<?xml version='1.0' encoding='UTF-8'?><gpx version="1.1" creator="JPX - https://github.com/jenetics/jpx" xmlns="http://www.topografix.com/GPX/1/1"><trk><trkseg><trkpt lat="43.962113364080295" lon="12.471046345912718"><ele>172.0</ele><time>2026-04-03T10:07:45.999Z</time></trkpt><trkpt lat="43.96221443802085" lon="12.470993727594482"><ele>172.0</ele><time>2026-04-03T10:07:47.999Z</time></trkpt><trkpt lat="43.9622783967845" lon="12.470939132309102"><ele>172.0</ele><time>2026-04-03T10:07:49.999Z</time></trkpt><trkpt lat="43.96241886017063" lon="12.470851801856693"><ele>172.0</ele><time>2026-04-03T10:07:51.999Z</time></trkpt><trkpt lat="43.96251723534556" lon="12.470806906767995"><ele>172.0</ele><time>2026-04-03T10:07:52.999Z</time></trkpt><trkpt lat="43.96263118294333" lon="12.470760644106248"><ele>170.0</ele><time>2026-04-03T10:07:53.999Z</time></trkpt><trkpt lat="43.96274567024373" lon="12.470715694178478"><ele>168.0</ele><time>2026-04-03T10:07:54.999Z</time></trkpt><trkpt lat="43.96287691254124" lon="12.470669584824595"><ele>166.0</ele><time>2026-04-03T10:07:55.999Z</time></trkpt><trkpt lat="43.96301192961652" lon="12.470632127483515"><ele>164.0</ele><time>2026-04-03T10:07:56.999Z</time></trkpt><trkpt lat="43.96314586389873" lon="12.470598399311067"><ele>164.0</ele><time>2026-04-03T10:07:57.999Z</time></trkpt><trkpt lat="43.96327846037716" lon="12.470583022745968"><ele>164.0</ele><time>2026-04-03T10:07:58.999Z</time></trkpt><trkpt lat="43.96342241851243" lon="12.470585506801628"><ele>164.0</ele><time>2026-04-03T10:07:59.999Z</time></trkpt><trkpt lat="43.96355895817453" lon="12.470586369783762"><ele>164.0</ele><time>2026-04-03T10:08:00.999Z</time></trkpt><trkpt lat="43.96369929852491" lon="12.470612856609488"><ele>161.0</ele><time>2026-04-03T10:08:01.999Z</time></trkpt><trkpt lat="43.96384965747228" lon="12.470647738415938"><ele>158.0</ele><time>2026-04-03T10:08:02.999Z</time></trkpt><trkpt lat="43.9639993054539" lon="12.470701126466487"><ele>155.0</ele><time>2026-04-03T10:08:03.999Z</time></trkpt><trkpt lat="43.96413981985724" lon="12.47076003093532"><ele>152.5</ele><time>2026-04-03T10:08:04.999Z</time></trkpt><trkpt lat="43.96428266787034" lon="12.470813073829321"><ele>150.0</ele><time>2026-04-03T10:08:05.999Z</time></trkpt><trkpt lat="43.96442195138359" lon="12.470858507453642"><ele>147.5</ele><time>2026-04-03T10:08:06.999Z</time></trkpt><trkpt lat="43.96456155977878" lon="12.470918219392223"><ele>145.0</ele><time>2026-04-03T10:08:07.999Z</time></trkpt><trkpt lat="43.96469671036842" lon="12.470999083392941"><ele>145.0</ele><time>2026-04-03T10:08:08.999Z</time></trkpt><trkpt lat="43.9648287515721" lon="12.471103820484704"><ele>145.0</ele><time>2026-04-03T10:08:09.999Z</time></trkpt><trkpt lat="43.96493896872191" lon="12.471222175548451"><ele>145.0</ele><time>2026-04-03T10:08:10.999Z</time></trkpt><trkpt lat="43.965052162467735" lon="12.471354234804119"><ele>145.0</ele><time>2026-04-03T10:08:11.999Z</time></trkpt><trkpt lat="43.96515480334224" lon="12.47150345926418"><ele>142.0</ele><time>2026-04-03T10:08:12.999Z</time></trkpt><trkpt lat="43.965247587011035" lon="12.471664981453246"><ele>139.0</ele><time>2026-04-03T10:08:13.999Z</time></trkpt><trkpt lat="43.96533738626532" lon="12.471831926617924"><ele>136.0</ele><time>2026-04-03T10:08:14.999Z</time></trkpt><trkpt lat="43.96543067265159" lon="12.472007410589109"><ele>139.0</ele><time>2026-04-03T10:08:15.999Z</time></trkpt><trkpt lat="43.96552843336989" lon="12.472182987641354"><ele>142.0</ele><time>2026-04-03T10:08:16.999Z</time></trkpt><trkpt lat="43.965616247404725" lon="12.472350342585427"><ele>145.0</ele><time>2026-04-03T10:08:17.999Z</time></trkpt><trkpt lat="43.96570909532595" lon="12.472512745664208"><ele>145.0</ele><time>2026-04-03T10:08:18.999Z</time></trkpt><trkpt lat="43.96579414555089" lon="12.472667382608895"><ele>145.0</ele><time>2026-04-03T10:08:19.999Z</time></trkpt><trkpt lat="43.965881231552444" lon="12.47282831171609"><ele>145.0</ele><time>2026-04-03T10:08:20.999Z</time></trkpt><trkpt lat="43.96596981850819" lon="12.472979267939413"><ele>145.0</ele><time>2026-04-03T10:08:21.999Z</time></trkpt><trkpt lat="43.966056828705604" lon="12.473141786557466"><ele>144.0</ele><time>2026-04-03T10:08:22.999Z</time></trkpt><trkpt lat="43.9661414729199" lon="12.473300104767558"><ele>143.0</ele><time>2026-04-03T10:08:23.999Z</time></trkpt><trkpt lat="43.96622619821045" lon="12.473455131102858"><ele>142.0</ele><time>2026-04-03T10:08:24.999Z</time></trkpt><trkpt lat="43.966315587583324" lon="12.47361248582039"><ele>141.0</ele><time>2026-04-03T10:08:25.999Z</time></trkpt><trkpt lat="43.96639738623799" lon="12.473753172005212"><ele>142.0</ele><time>2026-04-03T10:08:26.999Z</time></trkpt><trkpt lat="43.966482792736905" lon="12.4739033851039"><ele>143.0</ele><time>2026-04-03T10:08:27.999Z</time></trkpt><trkpt lat="43.96656836336263" lon="12.474056595507765"><ele>144.0</ele><time>2026-04-03T10:08:28.999Z</time></trkpt><trkpt lat="43.966658327098756" lon="12.474217104759298"><ele>145.0</ele><time>2026-04-03T10:08:29.999Z</time></trkpt><trkpt lat="43.96674597288519" lon="12.474378666420465"><ele>144.5</ele><time>2026-04-03T10:08:30.999Z</time></trkpt><trkpt lat="43.96683811826164" lon="12.47454504099758"><ele>144.0</ele><time>2026-04-03T10:08:31.999Z</time></trkpt><trkpt lat="43.96693251300887" lon="12.4746999729085"><ele>143.5</ele><time>2026-04-03T10:08:32.999Z</time></trkpt><trkpt lat="43.96702794795949" lon="12.474863116628862"><ele>143.0</ele><time>2026-04-03T10:08:33.999Z</time></trkpt><trkpt lat="43.96712319936709" lon="12.47502180379385"><ele>143.0</ele><time>2026-04-03T10:08:34.999Z</time></trkpt><trkpt lat="43.96721707148962" lon="12.47517082644333"><ele>143.0</ele><time>2026-04-03T10:08:35.999Z</time></trkpt><trkpt lat="43.96731050263753" lon="12.475324536482326"><ele>143.0</ele><time>2026-04-03T10:08:36.999Z</time></trkpt><trkpt lat="43.967394055032656" lon="12.475481560700294"><ele>143.0</ele><time>2026-04-03T10:08:37.999Z</time></trkpt><trkpt lat="43.96747697479444" lon="12.475619609057217"><ele>140.5</ele><time>2026-04-03T10:08:38.999Z</time></trkpt><trkpt lat="43.96756999852853" lon="12.475772013201865"><ele>138.0</ele><time>2026-04-03T10:08:39.999Z</time></trkpt><trkpt lat="43.9676648113028" lon="12.475916176601176"><ele>135.5</ele><time>2026-04-03T10:08:40.999Z</time></trkpt><trkpt lat="43.96775658070346" lon="12.476045002993498"><ele>133.0</ele><time>2026-04-03T10:08:41.999Z</time></trkpt><trkpt lat="43.96785696511604" lon="12.476159584921081"><ele>133.0</ele><time>2026-04-03T10:08:42.999Z</time></trkpt><trkpt lat="43.967955664897254" lon="12.476263914222963"><ele>133.0</ele><time>2026-04-03T10:08:43.999Z</time></trkpt><trkpt lat="43.96805869768049" lon="12.476362881386455"><ele>133.0</ele><time>2026-04-03T10:08:44.999Z</time></trkpt><trkpt lat="43.96815806930375" lon="12.476450628801723"><ele>133.0</ele><time>2026-04-03T10:08:45.999Z</time></trkpt><trkpt lat="43.96825759577706" lon="12.476548638210247"><ele>135.0</ele><time>2026-04-03T10:08:46.999Z</time></trkpt><trkpt lat="43.968355364400225" lon="12.476646688338883"><ele>137.0</ele><time>2026-04-03T10:08:47.999Z</time></trkpt><trkpt lat="43.968470300074664" lon="12.476758498531785"><ele>139.0</ele><time>2026-04-03T10:08:48.999Z</time></trkpt><trkpt lat="43.96858877582258" lon="12.476870680745407"><ele>141.0</ele><time>2026-04-03T10:08:49.999Z</time></trkpt><trkpt lat="43.968714263961765" lon="12.476997129855794"><ele>139.25</ele><time>2026-04-03T10:08:50.999Z</time></trkpt><trkpt lat="43.968827425668294" lon="12.4771464868041"><ele>137.5</ele><time>2026-04-03T10:08:51.999Z</time></trkpt><trkpt lat="43.968923726984166" lon="12.477294816478915"><ele>135.75</ele><time>2026-04-03T10:08:52.999Z</time></trkpt><trkpt lat="43.96901584834977" lon="12.477445730047094"><ele>134.0</ele><time>2026-04-03T10:08:53.999Z</time></trkpt><trkpt lat="43.96910939743178" lon="12.477599243247074"><ele>130.5</ele><time>2026-04-03T10:08:54.999Z</time></trkpt><trkpt lat="43.969194469050734" lon="12.477747264444977"><ele>127.0</ele><time>2026-04-03T10:08:55.999Z</time></trkpt><trkpt lat="43.9692796168299" lon="12.47789346099244"><ele>123.5</ele><time>2026-04-03T10:08:56.999Z</time></trkpt><trkpt lat="43.96936000681014" lon="12.47804174405688"><ele>120.0</ele><time>2026-04-03T10:08:57.999Z</time></trkpt><trkpt lat="43.96944147653409" lon="12.478176469788584"><ele>120.0</ele><time>2026-04-03T10:08:58.999Z</time></trkpt><trkpt lat="43.96951614566813" lon="12.478302097720686"><ele>120.0</ele><time>2026-04-03T10:08:59.999Z</time></trkpt><trkpt lat="43.96958683625254" lon="12.478418278832144"><ele>120.0</ele><time>2026-04-03T10:09:00.999Z</time></trkpt><trkpt lat="43.96965291810517" lon="12.478527858583075"><ele>120.0</ele><time>2026-04-03T10:09:01.999Z</time></trkpt><trkpt lat="43.96971219887005" lon="12.478615035704413"><ele>120.0</ele><time>2026-04-03T10:09:02.999Z</time></trkpt><trkpt lat="43.96977033309602" lon="12.47869426979422"><ele>120.0</ele><time>2026-04-03T10:09:03.999Z</time></trkpt><trkpt lat="43.96982550949753" lon="12.478763785372294"><ele>120.0</ele><time>2026-04-03T10:09:04.999Z</time></trkpt><trkpt lat="43.96989866812071" lon="12.478901121009782"><ele>120.0</ele><time>2026-04-03T10:09:06.999Z</time></trkpt><trkpt lat="43.96996936728797" lon="12.47904686228817"><ele>120.0</ele><time>2026-04-03T10:09:08.999Z</time></trkpt><trkpt lat="43.9700314839521" lon="12.47907950350366"><ele>120.0</ele><time>2026-04-03T10:09:09.999Z</time></trkpt><trkpt lat="43.97009718129248" lon="12.47905122963735"><ele>117.6</ele><time>2026-04-03T10:09:10.999Z</time></trkpt><trkpt lat="43.97015249110225" lon="12.478949442271608"><ele>115.2</ele><time>2026-04-03T10:09:11.999Z</time></trkpt><trkpt lat="43.970155652187046" lon="12.478826489336528"><ele>112.80000000000001</ele><time>2026-04-03T10:09:12.999Z</time></trkpt><trkpt lat="43.97014571650283" lon="12.478707540711659"><ele>110.4</ele><time>2026-04-03T10:09:13.999Z</time></trkpt><trkpt lat="43.970119354987155" lon="12.478568384152691"><ele>108.0</ele><time>2026-04-03T10:09:14.999Z</time></trkpt><trkpt lat="43.97008317782664" lon="12.478420190885588"><ele>106.75</ele><time>2026-04-03T10:09:15.999Z</time></trkpt><trkpt lat="43.97003565044669" lon="12.47825224979314"><ele>105.5</ele><time>2026-04-03T10:09:16.999Z</time></trkpt><trkpt lat="43.96997802622283" lon="12.478086128955345"><ele>104.25</ele><time>2026-04-03T10:09:17.999Z</time></trkpt><trkpt lat="43.96991969347628" lon="12.477901777961465"><ele>103.0</ele><time>2026-04-03T10:09:18.999Z</time></trkpt><trkpt lat="43.96987619482944" lon="12.477703848336429"><ele>104.25</ele><time>2026-04-03T10:09:19.999Z</time></trkpt><trkpt lat="43.96983110890304" lon="12.477502810196443"><ele>105.5</ele><time>2026-04-03T10:09:20.999Z</time></trkpt><trkpt lat="43.969802132931136" lon="12.477294276402993"><ele>106.75</ele><time>2026-04-03T10:09:21.999Z</time></trkpt><trkpt lat="43.96976914448756" lon="12.477112753184601"><ele>108.0</ele><time>2026-04-03T10:09:22.999Z</time></trkpt><trkpt lat="43.96973454411936" lon="12.476925452963966"><ele>108.0</ele><time>2026-04-03T10:09:23.999Z</time></trkpt><trkpt lat="43.96970266873952" lon="12.476739835262162"><ele>108.0</ele><time>2026-04-03T10:09:24.999Z</time></trkpt><trkpt lat="43.96965939790654" lon="12.476568695621612"><ele>108.0</ele><time>2026-04-03T10:09:25.999Z</time></trkpt><trkpt lat="43.96962096543034" lon="12.476386269669659"><ele>108.0</ele><time>2026-04-03T10:09:26.998Z</time></trkpt><trkpt lat="43.96958481159732" lon="12.476225837561282"><ele>107.0</ele><time>2026-04-03T10:09:27.998Z</time></trkpt><trkpt lat="43.96954574927179" lon="12.476056682701948"><ele>106.0</ele><time>2026-04-03T10:09:28.998Z</time></trkpt><trkpt lat="43.96951463198914" lon="12.47588678971726"><ele>105.0</ele><time>2026-04-03T10:09:29.998Z</time></trkpt><trkpt lat="43.96948372621526" lon="12.475727460851745"><ele>104.0</ele><time>2026-04-03T10:09:30.998Z</time></trkpt><trkpt lat="43.96944754320564" lon="12.475576050255778"><ele>104.0</ele><time>2026-04-03T10:09:31.998Z</time></trkpt><trkpt lat="43.96940194337219" lon="12.475449689242112"><ele>104.0</ele><time>2026-04-03T10:09:32.998Z</time></trkpt><trkpt lat="43.969361146317596" lon="12.475332940991851"><ele>104.0</ele><time>2026-04-03T10:09:33.998Z</time></trkpt><trkpt lat="43.9693241575659" lon="12.475200794770485"><ele>104.0</ele><time>2026-04-03T10:09:34.998Z</time></trkpt><trkpt lat="43.9692867073618" lon="12.475074287798199"><ele>104.0</ele><time>2026-04-03T10:09:35.998Z</time></trkpt><trkpt lat="43.96925232494332" lon="12.474946134566038"><ele>103.99999999999999</ele><time>2026-04-03T10:09:36.998Z</time></trkpt><trkpt lat="43.9692176481534" lon="12.474836202937071"><ele>104.0</ele><time>2026-04-03T10:09:37.998Z</time></trkpt><trkpt lat="43.969184835646836" lon="12.474735836247469"><ele>104.0</ele><time>2026-04-03T10:09:38.998Z</time></trkpt><trkpt lat="43.96915352566274" lon="12.474638956090201"><ele>104.0</ele><time>2026-04-03T10:09:39.998Z</time></trkpt><trkpt lat="43.96912796860215" lon="12.474536609331288"><ele>103.99999999999999</ele><time>2026-04-03T10:09:40.998Z</time></trkpt><trkpt lat="43.96910413826481" lon="12.474432979944023"><ele>104.0</ele><time>2026-04-03T10:09:41.998Z</time></trkpt><trkpt lat="43.96907764472336" lon="12.47434512415698"><ele>103.66666666666666</ele><time>2026-04-03T10:09:42.998Z</time></trkpt><trkpt lat="43.96906375469869" lon="12.474248119916087"><ele>103.33333333333333</ele><time>2026-04-03T10:09:43.998Z</time></trkpt><trkpt lat="43.96905996104849" lon="12.474152222465268"><ele>103.0</ele><time>2026-04-03T10:09:44.998Z</time></trkpt><trkpt lat="43.96907311550297" lon="12.474016237562543"><ele>102.66666666666666</ele><time>2026-04-03T10:09:46.998Z</time></trkpt><trkpt lat="43.96910030093143" lon="12.47390704889214"><ele>102.33333333333333</ele><time>2026-04-03T10:09:50.998Z</time></trkpt><trkpt lat="43.96914374994056" lon="12.473821260203572"><ele>102.0</ele><time>2026-04-03T10:09:51.998Z</time></trkpt><trkpt lat="43.969190126373675" lon="12.473758872725734"><ele>102.33333333333333</ele><time>2026-04-03T10:09:52.998Z</time></trkpt><trkpt lat="43.96924232058875" lon="12.473702853037583"><ele>102.66666666666666</ele><time>2026-04-03T10:09:53.998Z</time></trkpt><trkpt lat="43.96929861290312" lon="12.47365909361504"><ele>103.0</ele><time>2026-04-03T10:09:54.998Z</time></trkpt><trkpt lat="43.96935348594688" lon="12.47361529831603"><ele>103.33333333333333</ele><time>2026-04-03T10:09:55.998Z</time></trkpt><trkpt lat="43.969446544777924" lon="12.473543602920673"><ele>103.66666666666666</ele><time>2026-04-03T10:09:57.998Z</time></trkpt><trkpt lat="43.969535032466105" lon="12.473459031144651"><ele>104.0</ele><time>2026-04-03T10:09:59.998Z</time></trkpt><trkpt lat="43.96961629284344" lon="12.473385577947058"><ele>104.0</ele><time>2026-04-03T10:10:01.998Z</time></trkpt><trkpt lat="43.969707711892596" lon="12.4732994921496"><ele>104.0</ele><time>2026-04-03T10:10:03.998Z</time></trkpt><trkpt lat="43.96982236110939" lon="12.47320473165851"><ele>104.0</ele><time>2026-04-03T10:10:05.998Z</time></trkpt><trkpt lat="43.969882945697925" lon="12.473146060981156"><ele>104.0</ele><time>2026-04-03T10:10:06.998Z</time></trkpt><trkpt lat="43.96995185952351" lon="12.473092131571788"><ele>104.0</ele><time>2026-04-03T10:10:07.998Z</time></trkpt><trkpt lat="43.97002428827047" lon="12.473037821925637"><ele>107.6</ele><time>2026-04-03T10:10:08.998Z</time></trkpt><trkpt lat="43.97010615076296" lon="12.473005714952265"><ele>111.2</ele><time>2026-04-03T10:10:09.998Z</time></trkpt><trkpt lat="43.97019728470536" lon="12.47301205537119"><ele>114.79999999999998</ele><time>2026-04-03T10:10:10.998Z</time></trkpt><trkpt lat="43.97029204414014" lon="12.473049280504231"><ele>118.39999999999999</ele><time>2026-04-03T10:10:11.998Z</time></trkpt><trkpt lat="43.97038709165586" lon="12.473142814669936"><ele>122.0</ele><time>2026-04-03T10:10:12.998Z</time></trkpt><trkpt lat="43.97048515304065" lon="12.473232369754545"><ele>122.0</ele><time>2026-04-03T10:10:13.998Z</time></trkpt><trkpt lat="43.9705809167731" lon="12.473334294039299"><ele>121.99999999999999</ele><time>2026-04-03T10:10:14.998Z</time></trkpt><trkpt lat="43.97067907843175" lon="12.473423249760804"><ele>121.99999999999999</ele><time>2026-04-03T10:10:15.998Z</time></trkpt><trkpt lat="43.97076475721218" lon="12.473502515975593"><ele>122.0</ele><time>2026-04-03T10:10:16.998Z</time></trkpt><trkpt lat="43.97084565395639" lon="12.473584468389957"><ele>122.0</ele><time>2026-04-03T10:10:17.998Z</time></trkpt><trkpt lat="43.97093540561372" lon="12.47366501204589"><ele>122.5</ele><time>2026-04-03T10:10:18.998Z</time></trkpt><trkpt lat="43.97102836238479" lon="12.47374829243392"><ele>123.0</ele><time>2026-04-03T10:10:19.998Z</time></trkpt><trkpt lat="43.971127854029696" lon="12.47383460988272"><ele>123.5</ele><time>2026-04-03T10:10:20.998Z</time></trkpt><trkpt lat="43.97123479983342" lon="12.47392481823417"><ele>124.0</ele><time>2026-04-03T10:10:21.998Z</time></trkpt><trkpt lat="43.97132569669328" lon="12.47401165862248"><ele>124.0</ele><time>2026-04-03T10:10:22.998Z</time></trkpt><trkpt lat="43.97140995543832" lon="12.474079310340889"><ele>124.0</ele><time>2026-04-03T10:10:23.998Z</time></trkpt><trkpt lat="43.97148553828605" lon="12.474145583774485"><ele>124.0</ele><time>2026-04-03T10:10:24.998Z</time></trkpt><trkpt lat="43.97154473835827" lon="12.474212237999751"><ele>124.0</ele><time>2026-04-03T10:10:25.998Z</time></trkpt><trkpt lat="43.97163722860175" lon="12.474272598173084"><ele>124.0</ele><time>2026-04-03T10:10:27.998Z</time></trkpt><trkpt lat="43.97168676270185" lon="12.474157072585765"><ele>124.0</ele><time>2026-04-03T10:10:29.998Z</time></trkpt><trkpt lat="43.971650241658864" lon="12.474066744773522"><ele>124.0</ele><time>2026-04-03T10:10:30.998Z</time></trkpt><trkpt lat="43.97159234144102" lon="12.473976788371488"><ele>124.0</ele><time>2026-04-03T10:10:31.998Z</time></trkpt><trkpt lat="43.971525001257014" lon="12.473882929188424"><ele>124.0</ele><time>2026-04-03T10:10:32.998Z</time></trkpt><trkpt lat="43.97145522726433" lon="12.473765495608802"><ele>124.0</ele><time>2026-04-03T10:10:33.998Z</time></trkpt><trkpt lat="43.97138806460055" lon="12.47364529862762"><ele>126.80000000000001</ele><time>2026-04-03T10:10:34.998Z</time></trkpt><trkpt lat="43.971364712790546" lon="12.473509730997307"><ele>129.60000000000002</ele><time>2026-04-03T10:10:35.998Z</time></trkpt><trkpt lat="43.97137657977672" lon="12.473374828801687"><ele>132.4</ele><time>2026-04-03T10:10:36.998Z</time></trkpt><trkpt lat="43.97142421961773" lon="12.473242420259563"><ele>135.20000000000002</ele><time>2026-04-03T10:10:37.998Z</time></trkpt><trkpt lat="43.971501073106005" lon="12.47312205268783"><ele>138.0</ele><time>2026-04-03T10:10:38.998Z</time></trkpt><trkpt lat="43.971596177886674" lon="12.473035199531997"><ele>138.0</ele><time>2026-04-03T10:10:39.998Z</time></trkpt><trkpt lat="43.971685673340254" lon="12.472979643082375"><ele>138.0</ele><time>2026-04-03T10:10:40.998Z</time></trkpt><trkpt lat="43.97174671603988" lon="12.472948923514053"><ele>138.0</ele><time>2026-04-03T10:10:41.998Z</time></trkpt><trkpt lat="43.97182372945812" lon="12.47293284166192"><ele>138.0</ele><time>2026-04-03T10:10:43.998Z</time></trkpt><trkpt lat="43.97182096444155" lon="12.472792306353258"><ele>138.0</ele><time>2026-04-03T10:10:45.998Z</time></trkpt><trkpt lat="43.97178583197886" lon="12.47270337849125"><ele>138.0</ele><time>2026-04-03T10:10:46.998Z</time></trkpt><trkpt lat="43.97173898229639" lon="12.47259542811525"><ele>139.75</ele><time>2026-04-03T10:10:47.998Z</time></trkpt><trkpt lat="43.97167577159373" lon="12.472472898375756"><ele>141.5</ele><time>2026-04-03T10:10:48.998Z</time></trkpt><trkpt lat="43.97160942603934" lon="12.472316146194443"><ele>143.25</ele><time>2026-04-03T10:10:49.998Z</time></trkpt><trkpt lat="43.97154385066411" lon="12.472163446604421"><ele>145.0</ele><time>2026-04-03T10:10:50.998Z</time></trkpt><trkpt lat="43.971489333414596" lon="12.472030307533293"><ele>146.2</ele><time>2026-04-03T10:10:51.998Z</time></trkpt><trkpt lat="43.97144461695431" lon="12.471907569808513"><ele>147.4</ele><time>2026-04-03T10:10:52.998Z</time></trkpt><trkpt lat="43.9714163588115" lon="12.471784168254088"><ele>148.6</ele><time>2026-04-03T10:10:53.998Z</time></trkpt><trkpt lat="43.971408775636775" lon="12.471651194315207"><ele>149.8</ele><time>2026-04-03T10:10:54.998Z</time></trkpt><trkpt lat="43.97143050012251" lon="12.471503445413536"><ele>151.0</ele><time>2026-04-03T10:10:55.998Z</time></trkpt><trkpt lat="43.9714776278392" lon="12.471361579075882"><ele>152.25</ele><time>2026-04-03T10:10:56.998Z</time></trkpt><trkpt lat="43.971535328012756" lon="12.471209171888281"><ele>153.5</ele><time>2026-04-03T10:10:57.998Z</time></trkpt><trkpt lat="43.97157852568288" lon="12.471051877605934"><ele>154.75</ele><time>2026-04-03T10:10:58.998Z</time></trkpt><trkpt lat="43.971626645104266" lon="12.470894611186138"><ele>156.0</ele><time>2026-04-03T10:10:59.998Z</time></trkpt><trkpt lat="43.97167632510883" lon="12.470732565173627"><ele>159.0</ele><time>2026-04-03T10:11:00.998Z</time></trkpt><trkpt lat="43.971727824128536" lon="12.470568468392663"><ele>162.0</ele><time>2026-04-03T10:11:01.998Z</time></trkpt><trkpt lat="43.971776879158604" lon="12.470422426035974"><ele>165.0</ele><time>2026-04-03T10:11:02.998Z</time></trkpt><trkpt lat="43.97183921385933" lon="12.470278373876974"><ele>168.0</ele><time>2026-04-03T10:11:03.998Z</time></trkpt><trkpt lat="43.97191248523954" lon="12.470176512789854"><ele>168.0</ele><time>2026-04-03T10:11:04.998Z</time></trkpt><trkpt lat="43.97199584095307" lon="12.470082090471003"><ele>168.0</ele><time>2026-04-03T10:11:05.998Z</time></trkpt><trkpt lat="43.972087652411034" lon="12.470012346954105"><ele>168.0</ele><time>2026-04-03T10:11:06.998Z</time></trkpt><trkpt lat="43.97218836888032" lon="12.46998840736945"><ele>168.0</ele><time>2026-04-03T10:11:07.998Z</time></trkpt><trkpt lat="43.97229019185415" lon="12.469980177107269"><ele>168.0</ele><time>2026-04-03T10:11:08.998Z</time></trkpt><trkpt lat="43.97237809264616" lon="12.469990383458383"><ele>168.0</ele><time>2026-04-03T10:11:09.998Z</time></trkpt><trkpt lat="43.97247773386775" lon="12.470027461670266"><ele>168.0</ele><time>2026-04-03T10:11:10.998Z</time></trkpt><trkpt lat="43.97257153123642" lon="12.470106542419922"><ele>168.0</ele><time>2026-04-03T10:11:11.998Z</time></trkpt><trkpt lat="43.972668673771864" lon="12.470204253158917"><ele>168.0</ele><time>2026-04-03T10:11:12.998Z</time></trkpt><trkpt lat="43.97275741645237" lon="12.470308207002455"><ele>168.0</ele><time>2026-04-03T10:11:13.998Z</time></trkpt><trkpt lat="43.97285262870094" lon="12.470433819747587"><ele>171.0</ele><time>2026-04-03T10:11:14.998Z</time></trkpt><trkpt lat="43.97294565262494" lon="12.47056910471406"><ele>174.0</ele><time>2026-04-03T10:11:15.998Z</time></trkpt><trkpt lat="43.973031863148854" lon="12.470710663668013"><ele>177.0</ele><time>2026-04-03T10:11:16.998Z</time></trkpt><trkpt lat="43.97311842712532" lon="12.470863107904348"><ele>180.0</ele><time>2026-04-03T10:11:17.998Z</time></trkpt><trkpt lat="43.9732052536243" lon="12.47102020712439"><ele>180.0</ele><time>2026-04-03T10:11:18.998Z</time></trkpt><trkpt lat="43.973294454106686" lon="12.471180974549544"><ele>180.0</ele><time>2026-04-03T10:11:19.998Z</time></trkpt><trkpt lat="43.973385449990936" lon="12.471342976562365"><ele>180.0</ele><time>2026-04-03T10:11:20.998Z</time></trkpt><trkpt lat="43.97345571992292" lon="12.471463960534486"><ele>180.0</ele><time>2026-04-03T10:11:21.998Z</time></trkpt><trkpt lat="43.973491589499694" lon="12.471539706291303"><ele>181.2</ele><time>2026-04-03T10:11:22.998Z</time></trkpt><trkpt lat="43.973536467867" lon="12.471615826861232"><ele>182.4</ele><time>2026-04-03T10:11:25.998Z</time></trkpt><trkpt lat="43.97358077732667" lon="12.471709201207046"><ele>183.60000000000002</ele><time>2026-04-03T10:11:37.998Z</time></trkpt><trkpt lat="43.973718077562495" lon="12.471631645997274"><ele>184.8</ele><time>2026-04-03T10:11:39.998Z</time></trkpt><trkpt lat="43.97378944780983" lon="12.471618656347067"><ele>186.0</ele><time>2026-04-03T10:11:40.998Z</time></trkpt><trkpt lat="43.973871679109884" lon="12.471601470276406"><ele>186.0</ele><time>2026-04-03T10:11:41.998Z</time></trkpt><trkpt lat="43.97395517083397" lon="12.471554566268978"><ele>186.0</ele><time>2026-04-03T10:11:42.998Z</time></trkpt><trkpt lat="43.974022740223695" lon="12.47147080814068"><ele>186.0</ele><time>2026-04-03T10:11:43.998Z</time></trkpt><trkpt lat="43.974065365875724" lon="12.47139310896589"><ele>186.0</ele><time>2026-04-03T10:11:44.997Z</time></trkpt><trkpt lat="43.97410725419857" lon="12.471325201001452"><ele>186.0</ele><time>2026-04-03T10:11:45.997Z</time></trkpt><trkpt lat="43.97419637989615" lon="12.471284684466283"><ele>186.0</ele><time>2026-04-03T10:11:47.997Z</time></trkpt><trkpt lat="43.97425174751162" lon="12.471352062930288"><ele>187.0</ele><time>2026-04-03T10:11:48.997Z</time></trkpt><trkpt lat="43.97431368025714" lon="12.47147908867131"><ele>188.0</ele><time>2026-04-03T10:11:49.997Z</time></trkpt><trkpt lat="43.97437408461141" lon="12.47161978476294"><ele>189.0</ele><time>2026-04-03T10:11:50.997Z</time></trkpt><trkpt lat="43.97442158501943" lon="12.471738500089002"><ele>190.0</ele><time>2026-04-03T10:11:51.997Z</time></trkpt><trkpt lat="43.97446055927776" lon="12.47182204526337"><ele>191.0</ele><time>2026-04-03T10:11:52.997Z</time></trkpt><trkpt lat="43.974522276236996" lon="12.471841386657696"><ele>191.0</ele><time>2026-04-03T10:11:55.997Z</time></trkpt><trkpt lat="43.974588731722164" lon="12.4718947551842"><ele>191.0</ele><time>2026-04-03T10:12:09.997Z</time></trkpt><trkpt lat="43.97456573802728" lon="12.471622185018022"><ele>191.0</ele><time>2026-04-03T10:12:11.997Z</time></trkpt><trkpt lat="43.97454415500474" lon="12.471494640744417"><ele>191.0</ele><time>2026-04-03T10:12:12.997Z</time></trkpt><trkpt lat="43.97452765492015" lon="12.471331554961706"><ele>191.25</ele><time>2026-04-03T10:12:13.997Z</time></trkpt><trkpt lat="43.974528415262185" lon="12.471151302832105"><ele>191.5</ele><time>2026-04-03T10:12:14.997Z</time></trkpt><trkpt lat="43.97451726102495" lon="12.470970810223426"><ele>191.75</ele><time>2026-04-03T10:12:15.997Z</time></trkpt><trkpt lat="43.97450538472872" lon="12.470780706826915"><ele>192.0</ele><time>2026-04-03T10:12:16.997Z</time></trkpt><trkpt lat="43.97449265514332" lon="12.47058678344622"><ele>192.0</ele><time>2026-04-03T10:12:17.997Z</time></trkpt><trkpt lat="43.974485551464355" lon="12.47040068159007"><ele>192.0</ele><time>2026-04-03T10:12:18.997Z</time></trkpt><trkpt lat="43.97447378660421" lon="12.470209296383613"><ele>192.0</ele><time>2026-04-03T10:12:19.997Z</time></trkpt><trkpt lat="43.974455903426495" lon="12.470010441949992"><ele>192.0</ele><time>2026-04-03T10:12:20.997Z</time></trkpt><trkpt lat="43.97442425505773" lon="12.469613581966863"><ele>193.0</ele><time>2026-04-03T10:12:22.997Z</time></trkpt><trkpt lat="43.97440838888621" lon="12.469401271738505"><ele>194.0</ele><time>2026-04-03T10:12:23.997Z</time></trkpt><trkpt lat="43.974392645059915" lon="12.469187162911906"><ele>195.0</ele><time>2026-04-03T10:12:24.997Z</time></trkpt><trkpt lat="43.974379471621454" lon="12.468972978746002"><ele>196.66666666666669</ele><time>2026-04-03T10:12:25.997Z</time></trkpt><trkpt lat="43.9743686211212" lon="12.468756043670632"><ele>198.33333333333334</ele><time>2026-04-03T10:12:26.997Z</time></trkpt><trkpt lat="43.97435855448854" lon="12.468546805151071"><ele>200.0</ele><time>2026-04-03T10:12:27.997Z</time></trkpt><trkpt lat="43.97434837406571" lon="12.468336307423666"><ele>200.0</ele><time>2026-04-03T10:12:28.997Z</time></trkpt><trkpt lat="43.97433802972039" lon="12.468122427560857"><ele>200.0</ele><time>2026-04-03T10:12:29.997Z</time></trkpt><trkpt lat="43.97432555307755" lon="12.467911678770161"><ele>200.0</ele><time>2026-04-03T10:12:30.997Z</time></trkpt><trkpt lat="43.97431824086389" lon="12.467699448689878"><ele>201.33333333333334</ele><time>2026-04-03T10:12:31.997Z</time></trkpt><trkpt lat="43.974304409989266" lon="12.467482062222562"><ele>202.66666666666669</ele><time>2026-04-03T10:12:32.997Z</time></trkpt><trkpt lat="43.97428855828857" lon="12.46726259277099"><ele>204.0</ele><time>2026-04-03T10:12:33.997Z</time></trkpt><trkpt lat="43.97427340620721" lon="12.467042333921064"><ele>207.33333333333331</ele><time>2026-04-03T10:12:34.997Z</time></trkpt><trkpt lat="43.97426373753485" lon="12.466822204038184"><ele>210.66666666666666</ele><time>2026-04-03T10:12:35.997Z</time></trkpt><trkpt lat="43.97425366355933" lon="12.466601619624099"><ele>214.0</ele><time>2026-04-03T10:12:36.997Z</time></trkpt><trkpt lat="43.97424164960541" lon="12.466380465813646"><ele>215.33333333333331</ele><time>2026-04-03T10:12:37.997Z</time></trkpt><trkpt lat="43.97423076757309" lon="12.46615745136986"><ele>216.66666666666669</ele><time>2026-04-03T10:12:38.997Z</time></trkpt><trkpt lat="43.974218759834415" lon="12.465935907820935"><ele>218.0</ele><time>2026-04-03T10:12:39.997Z</time></trkpt><trkpt lat="43.97421010838217" lon="12.465725466554494"><ele>218.0</ele><time>2026-04-03T10:12:40.997Z</time></trkpt><trkpt lat="43.974196718146914" lon="12.46553039015715"><ele>218.0</ele><time>2026-04-03T10:12:41.997Z</time></trkpt><trkpt lat="43.974184094504785" lon="12.46534831386904"><ele>218.0</ele><time>2026-04-03T10:12:42.997Z</time></trkpt><trkpt lat="43.97417325046587" lon="12.465167328930264"><ele>218.0</ele><time>2026-04-03T10:12:43.997Z</time></trkpt><trkpt lat="43.97416406520922" lon="12.464990314669734"><ele>219.4</ele><time>2026-04-03T10:12:44.997Z</time></trkpt><trkpt lat="43.97416045829697" lon="12.464823817214262"><ele>220.8</ele><time>2026-04-03T10:12:45.997Z</time></trkpt><trkpt lat="43.97415485751229" lon="12.464672674098514"><ele>222.2</ele><time>2026-04-03T10:12:46.997Z</time></trkpt><trkpt lat="43.97417443959897" lon="12.464539786571914"><ele>223.6</ele><time>2026-04-03T10:12:47.997Z</time></trkpt><trkpt lat="43.974224351170456" lon="12.46442954893544"><ele>225.0</ele><time>2026-04-03T10:12:48.997Z</time></trkpt><trkpt lat="43.974284133347346" lon="12.464347204578093"><ele>225.2</ele><time>2026-04-03T10:12:49.997Z</time></trkpt><trkpt lat="43.974363814454" lon="12.464270311322448"><ele>225.4</ele><time>2026-04-03T10:12:50.997Z</time></trkpt><trkpt lat="43.97443861633925" lon="12.464197834340307"><ele>225.60000000000002</ele><time>2026-04-03T10:12:51.997Z</time></trkpt><trkpt lat="43.9745194361616" lon="12.464117983388098"><ele>225.8</ele><time>2026-04-03T10:12:52.997Z</time></trkpt><trkpt lat="43.97460707499107" lon="12.464031724111353"><ele>226.0</ele><time>2026-04-03T10:12:53.997Z</time></trkpt><trkpt lat="43.97469996649976" lon="12.463968201137202"><ele>226.0</ele><time>2026-04-03T10:12:54.997Z</time></trkpt><trkpt lat="43.97477615404055" lon="12.463884825075965"><ele>226.00000000000003</ele><time>2026-04-03T10:12:55.997Z</time></trkpt><trkpt lat="43.97484954354054" lon="12.463802580849414"><ele>226.00000000000003</ele><time>2026-04-03T10:12:56.997Z</time></trkpt><trkpt lat="43.974920995191525" lon="12.463721604738462"><ele>226.0</ele><time>2026-04-03T10:12:57.997Z</time></trkpt><trkpt lat="43.97498921468661" lon="12.463638876877727"><ele>226.0</ele><time>2026-04-03T10:12:58.997Z</time></trkpt><trkpt lat="43.97505852294815" lon="12.463544174447815"><ele>224.99999999999997</ele><time>2026-04-03T10:12:59.997Z</time></trkpt><trkpt lat="43.97513051548158" lon="12.463456150575343"><ele>224.0</ele><time>2026-04-03T10:13:00.997Z</time></trkpt><trkpt lat="43.97519933311359" lon="12.463373930487991"><ele>223.0</ele><time>2026-04-03T10:13:01.997Z</time></trkpt><trkpt lat="43.97525714923841" lon="12.463305354944607"><ele>222.0</ele><time>2026-04-03T10:13:02.997Z</time></trkpt><trkpt lat="43.975332685167594" lon="12.463192062867357"><ele>220.99999999999997</ele><time>2026-04-03T10:13:04.997Z</time></trkpt><trkpt lat="43.97539388125097" lon="12.463149792653518"><ele>220.0</ele><time>2026-04-03T10:13:07.997Z</time></trkpt><trkpt lat="43.97533386300233" lon="12.463021164326685"><ele>220.0</ele><time>2026-04-03T10:13:08.997Z</time></trkpt><trkpt lat="43.97519799008838" lon="12.462947635658288"><ele>220.0</ele><time>2026-04-03T10:13:10.997Z</time></trkpt><trkpt lat="43.975111394949764" lon="12.46291249341892"><ele>220.0</ele><time>2026-04-03T10:13:11.997Z</time></trkpt><trkpt lat="43.9749998499712" lon="12.462870212069024"><ele>220.0</ele><time>2026-04-03T10:13:12.997Z</time></trkpt><trkpt lat="43.97488593205551" lon="12.462831598440253"><ele>219.75</ele><time>2026-04-03T10:13:13.997Z</time></trkpt><trkpt lat="43.974771314070715" lon="12.462797904905747"><ele>219.5</ele><time>2026-04-03T10:13:14.997Z</time></trkpt><trkpt lat="43.97466302129979" lon="12.462742378126647"><ele>219.25</ele><time>2026-04-03T10:13:15.997Z</time></trkpt><trkpt lat="43.974563584105724" lon="12.46266204435164"><ele>219.0</ele><time>2026-04-03T10:13:16.997Z</time></trkpt><trkpt lat="43.9744696595068" lon="12.462550964999163"><ele>219.0</ele><time>2026-04-03T10:13:17.997Z</time></trkpt><trkpt lat="43.97438686135353" lon="12.462418041152306"><ele>219.0</ele><time>2026-04-03T10:13:18.997Z</time></trkpt><trkpt lat="43.97432791817965" lon="12.462242039776841"><ele>219.0</ele><time>2026-04-03T10:13:19.997Z</time></trkpt><trkpt lat="43.9742593295248" lon="12.462070228342895"><ele>219.0</ele><time>2026-04-03T10:13:20.997Z</time></trkpt><trkpt lat="43.974187263931434" lon="12.46189439282061"><ele>217.66666666666669</ele><time>2026-04-03T10:13:21.997Z</time></trkpt><trkpt lat="43.974110230109" lon="12.461716308197591"><ele>216.33333333333334</ele><time>2026-04-03T10:13:22.997Z</time></trkpt><trkpt lat="43.974029404228695" lon="12.461534290575313"><ele>215.0</ele><time>2026-04-03T10:13:23.997Z</time></trkpt><trkpt lat="43.97394529746969" lon="12.461349245032851"><ele>213.66666666666669</ele><time>2026-04-03T10:13:24.997Z</time></trkpt><trkpt lat="43.97386047851944" lon="12.461165365215061"><ele>212.33333333333331</ele><time>2026-04-03T10:13:25.997Z</time></trkpt><trkpt lat="43.973765318114644" lon="12.460996792772294"><ele>211.0</ele><time>2026-04-03T10:13:26.997Z</time></trkpt><trkpt lat="43.973681872458975" lon="12.460813151881055"><ele>211.0</ele><time>2026-04-03T10:13:27.997Z</time></trkpt><trkpt lat="43.97360580019456" lon="12.460620306482662"><ele>211.0</ele><time>2026-04-03T10:13:28.997Z</time></trkpt><trkpt lat="43.97353534292863" lon="12.460429899877271"><ele>211.0</ele><time>2026-04-03T10:13:29.997Z</time></trkpt><trkpt lat="43.973465189747415" lon="12.460243731471156"><ele>211.33333333333331</ele><time>2026-04-03T10:13:30.997Z</time></trkpt><trkpt lat="43.97338451145479" lon="12.460054534071343"><ele>211.66666666666669</ele><time>2026-04-03T10:13:31.997Z</time></trkpt><trkpt lat="43.973300179785426" lon="12.459861696691295"><ele>212.0</ele><time>2026-04-03T10:13:32.997Z</time></trkpt><trkpt lat="43.97321914255034" lon="12.459665403344548"><ele>211.66666666666669</ele><time>2026-04-03T10:13:33.997Z</time></trkpt><trkpt lat="43.973144074457885" lon="12.459470192588771"><ele>211.33333333333331</ele><time>2026-04-03T10:13:34.997Z</time></trkpt><trkpt lat="43.97307419760476" lon="12.45927070723795"><ele>211.0</ele><time>2026-04-03T10:13:35.997Z</time></trkpt><trkpt lat="43.973009993579275" lon="12.459067968163318"><ele>211.0</ele><time>2026-04-03T10:13:36.997Z</time></trkpt><trkpt lat="43.97294684100867" lon="12.458858532661896"><ele>211.0</ele><time>2026-04-03T10:13:37.997Z</time></trkpt><trkpt lat="43.9728936648741" lon="12.458651893261372"><ele>211.0</ele><time>2026-04-03T10:13:38.997Z</time></trkpt><trkpt lat="43.97284887169434" lon="12.458440450668128"><ele>211.33333333333331</ele><time>2026-04-03T10:13:39.997Z</time></trkpt><trkpt lat="43.97280596663686" lon="12.458238390150191"><ele>211.66666666666669</ele><time>2026-04-03T10:13:40.997Z</time></trkpt><trkpt lat="43.97276340261204" lon="12.458036412401034"><ele>212.0</ele><time>2026-04-03T10:13:41.997Z</time></trkpt><trkpt lat="43.972728255552795" lon="12.457838400211006"><ele>212.0</ele><time>2026-04-03T10:13:42.997Z</time></trkpt><trkpt lat="43.97270126520006" lon="12.45764125202404"><ele>212.0</ele><time>2026-04-03T10:13:43.997Z</time></trkpt><trkpt lat="43.9726891086634" lon="12.457441975729386"><ele>212.0</ele><time>2026-04-03T10:13:44.997Z</time></trkpt><trkpt lat="43.97269808973952" lon="12.457237499244279"><ele>212.0</ele><time>2026-04-03T10:13:45.997Z</time></trkpt><trkpt lat="43.97272855769537" lon="12.45703229910365"><ele>213.75</ele><time>2026-04-03T10:13:46.997Z</time></trkpt><trkpt lat="43.972770142131694" lon="12.456826313777476"><ele>215.5</ele><time>2026-04-03T10:13:47.997Z</time></trkpt><trkpt lat="43.972807003268564" lon="12.456635487358326"><ele>217.25</ele><time>2026-04-03T10:13:48.997Z</time></trkpt><trkpt lat="43.97284071953327" lon="12.456451296931643"><ele>219.0</ele><time>2026-04-03T10:13:49.997Z</time></trkpt><trkpt lat="43.9728662459822" lon="12.456269722501654"><ele>219.5</ele><time>2026-04-03T10:13:50.997Z</time></trkpt><trkpt lat="43.972875073726044" lon="12.456088602512843"><ele>220.0</ele><time>2026-04-03T10:13:51.997Z</time></trkpt><trkpt lat="43.97285730249467" lon="12.455910417073236"><ele>220.5</ele><time>2026-04-03T10:13:52.997Z</time></trkpt><trkpt lat="43.97281883033319" lon="12.455737477376871"><ele>221.0</ele><time>2026-04-03T10:13:53.997Z</time></trkpt><trkpt lat="43.97276731441416" lon="12.455563019370842"><ele>219.5</ele><time>2026-04-03T10:13:54.997Z</time></trkpt><trkpt lat="43.97270983259831" lon="12.455383139378904"><ele>218.0</ele><time>2026-04-03T10:13:55.997Z</time></trkpt><trkpt lat="43.97264546436268" lon="12.455223175511646"><ele>216.5</ele><time>2026-04-03T10:13:56.996Z</time></trkpt><trkpt lat="43.97258098713395" lon="12.455065490360234"><ele>215.0</ele><time>2026-04-03T10:13:57.996Z</time></trkpt><trkpt lat="43.972522338545254" lon="12.45490327166508"><ele>219.0</ele><time>2026-04-03T10:13:58.996Z</time></trkpt><trkpt lat="43.97247774706999" lon="12.454735292136162"><ele>223.0</ele><time>2026-04-03T10:13:59.996Z</time></trkpt><trkpt lat="43.97245288782776" lon="12.454578592968204"><ele>227.0</ele><time>2026-04-03T10:14:00.996Z</time></trkpt><trkpt lat="43.97245235366316" lon="12.454414689600474"><ele>231.0</ele><time>2026-04-03T10:14:01.996Z</time></trkpt><trkpt lat="43.9724794598932" lon="12.454249871900906"><ele>229.5</ele><time>2026-04-03T10:14:02.996Z</time></trkpt><trkpt lat="43.97252428658017" lon="12.454082414060744"><ele>228.0</ele><time>2026-04-03T10:14:03.996Z</time></trkpt><trkpt lat="43.97258533443537" lon="12.453913224553222"><ele>226.5</ele><time>2026-04-03T10:14:04.996Z</time></trkpt><trkpt lat="43.97264973633711" lon="12.45375018793365"><ele>225.0</ele><time>2026-04-03T10:14:05.996Z</time></trkpt><trkpt lat="43.97269939207797" lon="12.453593846937796"><ele>225.0</ele><time>2026-04-03T10:14:06.996Z</time></trkpt><trkpt lat="43.972756781863225" lon="12.453468120063505"><ele>225.0</ele><time>2026-04-03T10:14:07.996Z</time></trkpt><trkpt lat="43.972783573790615" lon="12.45333355079107"><ele>225.0</ele><time>2026-04-03T10:14:08.996Z</time></trkpt><trkpt lat="43.97278785232031" lon="12.453184623989559"><ele>225.0</ele><time>2026-04-03T10:14:09.996Z</time></trkpt><trkpt lat="43.97276782564928" lon="12.453047822474828"><ele>225.0</ele><time>2026-04-03T10:14:10.996Z</time></trkpt><trkpt lat="43.97271937675357" lon="12.4529135068055"><ele>225.4</ele><time>2026-04-03T10:14:11.996Z</time></trkpt><trkpt lat="43.972648950832756" lon="12.452802854075863"><ele>225.8</ele><time>2026-04-03T10:14:12.996Z</time></trkpt><trkpt lat="43.97255595186726" lon="12.452717113945873"><ele>226.2</ele><time>2026-04-03T10:14:13.996Z</time></trkpt><trkpt lat="43.972454696071146" lon="12.452649971440067"><ele>226.6</ele><time>2026-04-03T10:14:14.996Z</time></trkpt><trkpt lat="43.97235781501299" lon="12.452590511463033"><ele>227.0</ele><time>2026-04-03T10:14:15.996Z</time></trkpt><trkpt lat="43.97226641520103" lon="12.4525444947413"><ele>228.66666666666669</ele><time>2026-04-03T10:14:16.996Z</time></trkpt><trkpt lat="43.9721852339311" lon="12.452503894782796"><ele>230.33333333333334</ele><time>2026-04-03T10:14:17.996Z</time></trkpt><trkpt lat="43.97210723862613" lon="12.452467882222575"><ele>232.0</ele><time>2026-04-03T10:14:18.996Z</time></trkpt><trkpt lat="43.97204204505019" lon="12.452439898624057"><ele>233.66666666666669</ele><time>2026-04-03T10:14:19.996Z</time></trkpt><trkpt lat="43.97194117557693" lon="12.45237723603103"><ele>235.33333333333334</ele><time>2026-04-03T10:14:21.996Z</time></trkpt><trkpt lat="43.971875735686424" lon="12.452284279764806"><ele>237.0</ele><time>2026-04-03T10:14:23.996Z</time></trkpt><trkpt lat="43.97191136949729" lon="12.452162743392044"><ele>235.39999999999998</ele><time>2026-04-03T10:14:25.996Z</time></trkpt><trkpt lat="43.97203028288935" lon="12.45211753802711"><ele>233.79999999999998</ele><time>2026-04-03T10:14:27.996Z</time></trkpt><trkpt lat="43.97211370820736" lon="12.452113634349404"><ele>232.2</ele><time>2026-04-03T10:14:28.996Z</time></trkpt><trkpt lat="43.97219967137003" lon="12.452111644539182"><ele>230.6</ele><time>2026-04-03T10:14:29.996Z</time></trkpt><trkpt lat="43.972295352518636" lon="12.452108110911206"><ele>229.0</ele><time>2026-04-03T10:14:30.996Z</time></trkpt><trkpt lat="43.97240278995336" lon="12.452118347582173"><ele>229.0</ele><time>2026-04-03T10:14:31.996Z</time></trkpt><trkpt lat="43.97251803416193" lon="12.45211326687021"><ele>228.99999999999997</ele><time>2026-04-03T10:14:32.996Z</time></trkpt><trkpt lat="43.97262831482847" lon="12.45210865433002"><ele>228.99999999999997</ele><time>2026-04-03T10:14:33.996Z</time></trkpt><trkpt lat="43.97273997994202" lon="12.452102518587527"><ele>229.0</ele><time>2026-04-03T10:14:34.996Z</time></trkpt><trkpt lat="43.972843701801004" lon="12.452075813004827"><ele>229.0</ele><time>2026-04-03T10:14:35.996Z</time></trkpt><trkpt lat="43.97294358017513" lon="12.452070749934038"><ele>227.25</ele><time>2026-04-03T10:14:36.996Z</time></trkpt><trkpt lat="43.97304524508021" lon="12.452067738970456"><ele>225.5</ele><time>2026-04-03T10:14:37.996Z</time></trkpt><trkpt lat="43.97315883076619" lon="12.45206180391337"><ele>223.75</ele><time>2026-04-03T10:14:38.996Z</time></trkpt><trkpt lat="43.97328287548332" lon="12.452073535345532"><ele>222.0</ele><time>2026-04-03T10:14:39.996Z</time></trkpt><trkpt lat="43.97341059929079" lon="12.45211229820573"><ele>221.25</ele><time>2026-04-03T10:14:40.996Z</time></trkpt><trkpt lat="43.97352898226109" lon="12.452170456269302"><ele>220.5</ele><time>2026-04-03T10:14:41.996Z</time></trkpt><trkpt lat="43.973652233874404" lon="12.452243453900115"><ele>219.75</ele><time>2026-04-03T10:14:42.996Z</time></trkpt><trkpt lat="43.97376351999174" lon="12.452325531450791"><ele>219.0</ele><time>2026-04-03T10:14:43.996Z</time></trkpt><trkpt lat="43.97388375410146" lon="12.452389620309193"><ele>219.0</ele><time>2026-04-03T10:14:44.996Z</time></trkpt><trkpt lat="43.97400579623746" lon="12.452425759942841"><ele>219.0</ele><time>2026-04-03T10:14:45.996Z</time></trkpt><trkpt lat="43.97413473763314" lon="12.452437838875413"><ele>219.0</ele><time>2026-04-03T10:14:46.996Z</time></trkpt><trkpt lat="43.97426533435511" lon="12.452412651902682"><ele>219.0</ele><time>2026-04-03T10:14:47.996Z</time></trkpt><trkpt lat="43.97440322569516" lon="12.45240748217067"><ele>217.25</ele><time>2026-04-03T10:14:48.996Z</time></trkpt><trkpt lat="43.974545720914925" lon="12.452399531565812"><ele>215.5</ele><time>2026-04-03T10:14:49.996Z</time></trkpt><trkpt lat="43.97469159713886" lon="12.452387455521242"><ele>213.75</ele><time>2026-04-03T10:14:50.996Z</time></trkpt><trkpt lat="43.974844563034104" lon="12.452401972777135"><ele>212.0</ele><time>2026-04-03T10:14:51.996Z</time></trkpt><trkpt lat="43.974992951945545" lon="12.452395267128658"><ele>211.25</ele><time>2026-04-03T10:14:52.996Z</time></trkpt><trkpt lat="43.97513857146776" lon="12.452384972131542"><ele>210.5</ele><time>2026-04-03T10:14:53.996Z</time></trkpt><trkpt lat="43.97527773842616" lon="12.45233764750863"><ele>209.75</ele><time>2026-04-03T10:14:54.996Z</time></trkpt><trkpt lat="43.97541967558198" lon="12.45227805596518"><ele>209.0</ele><time>2026-04-03T10:14:55.996Z</time></trkpt><trkpt lat="43.97555349968876" lon="12.452188082079246"><ele>208.66666666666669</ele><time>2026-04-03T10:14:56.996Z</time></trkpt><trkpt lat="43.97567683055778" lon="12.452061834377792"><ele>208.33333333333331</ele><time>2026-04-03T10:14:57.996Z</time></trkpt><trkpt lat="43.97579864203531" lon="12.451938114273602"><ele>208.0</ele><time>2026-04-03T10:14:58.996Z</time></trkpt><trkpt lat="43.97591415264763" lon="12.45181358727272"><ele>208.0</ele><time>2026-04-03T10:14:59.996Z</time></trkpt><trkpt lat="43.97602863420449" lon="12.451676605770205"><ele>208.0</ele><time>2026-04-03T10:15:00.996Z</time></trkpt><trkpt lat="43.97614580915153" lon="12.451537624033367"><ele>208.0</ele><time>2026-04-03T10:15:01.996Z</time></trkpt><trkpt lat="43.97626567930877" lon="12.451392021876103"><ele>208.0</ele><time>2026-04-03T10:15:02.996Z</time></trkpt><trkpt lat="43.976382064155366" lon="12.451249539345646"><ele>208.0</ele><time>2026-04-03T10:15:03.996Z</time></trkpt><trkpt lat="43.976498632600574" lon="12.451106619299576"><ele>208.0</ele><time>2026-04-03T10:15:04.996Z</time></trkpt><trkpt lat="43.97661449261127" lon="12.450953619242753"><ele>204.66666666666666</ele><time>2026-04-03T10:15:05.996Z</time></trkpt><trkpt lat="43.97673084512135" lon="12.450799144855813"><ele>201.33333333333331</ele><time>2026-04-03T10:15:06.996Z</time></trkpt><trkpt lat="43.976850588621545" lon="12.450640449101941"><ele>198.0</ele><time>2026-04-03T10:15:07.996Z</time></trkpt><trkpt lat="43.97697511767249" lon="12.450484769453954"><ele>200.0</ele><time>2026-04-03T10:15:08.996Z</time></trkpt><trkpt lat="43.97710067929458" lon="12.450336869346113"><ele>202.0</ele><time>2026-04-03T10:15:09.996Z</time></trkpt><trkpt lat="43.977228934749654" lon="12.450188961457636"><ele>204.0</ele><time>2026-04-03T10:15:10.996Z</time></trkpt><trkpt lat="43.97735727504057" lon="12.450047105404344"><ele>204.0</ele><time>2026-04-03T10:15:11.996Z</time></trkpt><trkpt lat="43.97748933912738" lon="12.449903198816235"><ele>204.0</ele><time>2026-04-03T10:15:12.996Z</time></trkpt><trkpt lat="43.97760820840645" lon="12.449770443335817"><ele>204.0</ele><time>2026-04-03T10:15:13.996Z</time></trkpt><trkpt lat="43.97772432466017" lon="12.449645118624256"><ele>204.75</ele><time>2026-04-03T10:15:14.996Z</time></trkpt><trkpt lat="43.97783634148857" lon="12.449517619745176"><ele>205.5</ele><time>2026-04-03T10:15:15.996Z</time></trkpt><trkpt lat="43.97794094833315" lon="12.449389730965537"><ele>206.25</ele><time>2026-04-03T10:15:16.996Z</time></trkpt><trkpt lat="43.97803818603552" lon="12.449238635367161"><ele>207.0</ele><time>2026-04-03T10:15:17.996Z</time></trkpt><trkpt lat="43.97811826343349" lon="12.44905695528554"><ele>207.0</ele><time>2026-04-03T10:15:18.996Z</time></trkpt><trkpt lat="43.97818619375513" lon="12.448851826127969"><ele>207.0</ele><time>2026-04-03T10:15:19.996Z</time></trkpt><trkpt lat="43.97825050321139" lon="12.44864096444439"><ele>207.0</ele><time>2026-04-03T10:15:20.996Z</time></trkpt><trkpt lat="43.978309385119964" lon="12.448435027407124"><ele>206.66666666666669</ele><time>2026-04-03T10:15:21.996Z</time></trkpt><trkpt lat="43.978360068879375" lon="12.448234745105207"><ele>206.33333333333334</ele><time>2026-04-03T10:15:22.996Z</time></trkpt><trkpt lat="43.97840747650676" lon="12.448030055697968"><ele>206.0</ele><time>2026-04-03T10:15:23.996Z</time></trkpt><trkpt lat="43.97846429011514" lon="12.4478293490929"><ele>206.0</ele><time>2026-04-03T10:15:24.996Z</time></trkpt><trkpt lat="43.97852448756154" lon="12.447626991050882"><ele>206.0</ele><time>2026-04-03T10:15:25.996Z</time></trkpt><trkpt lat="43.97858595028778" lon="12.447429996492074"><ele>206.0</ele><time>2026-04-03T10:15:26.996Z</time></trkpt><trkpt lat="43.9786533266029" lon="12.447234270774812"><ele>207.66666666666669</ele><time>2026-04-03T10:15:27.996Z</time></trkpt><trkpt lat="43.97872059254741" lon="12.44703432515949"><ele>209.33333333333331</ele><time>2026-04-03T10:15:28.996Z</time></trkpt><trkpt lat="43.978789921725244" lon="12.44683085894866"><ele>211.0</ele><time>2026-04-03T10:15:29.996Z</time></trkpt><trkpt lat="43.97885731368248" lon="12.446625927596555"><ele>211.0</ele><time>2026-04-03T10:15:30.996Z</time></trkpt><trkpt lat="43.978920935222696" lon="12.446430227761999"><ele>211.0</ele><time>2026-04-03T10:15:31.996Z</time></trkpt><trkpt lat="43.97898678728414" lon="12.446231265938426"><ele>211.0</ele><time>2026-04-03T10:15:32.996Z</time></trkpt><trkpt lat="43.97905358742181" lon="12.446034544628501"><ele>211.66666666666666</ele><time>2026-04-03T10:15:33.996Z</time></trkpt><trkpt lat="43.97911705661429" lon="12.44583913801076"><ele>212.33333333333331</ele><time>2026-04-03T10:15:34.996Z</time></trkpt><trkpt lat="43.97918288210415" lon="12.445645465788136"><ele>213.0</ele><time>2026-04-03T10:15:35.996Z</time></trkpt><trkpt lat="43.979264676730544" lon="12.445451481402918"><ele>213.0</ele><time>2026-04-03T10:15:36.996Z</time></trkpt><trkpt lat="43.979334435931634" lon="12.445248461750863"><ele>213.0</ele><time>2026-04-03T10:15:37.996Z</time></trkpt><trkpt lat="43.97940500867998" lon="12.445042457776017"><ele>213.0</ele><time>2026-04-03T10:15:38.996Z</time></trkpt><trkpt lat="43.97947275723661" lon="12.44483804456843"><ele>213.0</ele><time>2026-04-03T10:15:39.996Z</time></trkpt><trkpt lat="43.979540762096434" lon="12.444635349249857"><ele>213.0</ele><time>2026-04-03T10:15:40.996Z</time></trkpt><trkpt lat="43.97961080008599" lon="12.44443674167457"><ele>213.0</ele><time>2026-04-03T10:15:41.996Z</time></trkpt><trkpt lat="43.979682431900535" lon="12.444241783557638"><ele>215.33333333333331</ele><time>2026-04-03T10:15:42.996Z</time></trkpt><trkpt lat="43.979738726627225" lon="12.4440426323121"><ele>217.66666666666666</ele><time>2026-04-03T10:15:43.996Z</time></trkpt><trkpt lat="43.97981278674792" lon="12.443859638165039"><ele>220.0</ele><time>2026-04-03T10:15:44.996Z</time></trkpt><trkpt lat="43.97988094182642" lon="12.44368165999512"><ele>221.25</ele><time>2026-04-03T10:15:45.996Z</time></trkpt><trkpt lat="43.979947399318235" lon="12.44350839126076"><ele>222.5</ele><time>2026-04-03T10:15:46.996Z</time></trkpt><trkpt lat="43.98002355089383" lon="12.44334966949925"><ele>223.75</ele><time>2026-04-03T10:15:47.996Z</time></trkpt><trkpt lat="43.98010803562671" lon="12.44321293338608"><ele>225.0</ele><time>2026-04-03T10:15:48.996Z</time></trkpt><trkpt lat="43.98021984577942" lon="12.443111587259725"><ele>225.0</ele><time>2026-04-03T10:15:49.996Z</time></trkpt><trkpt lat="43.98034278711643" lon="12.442997811554543"><ele>225.0</ele><time>2026-04-03T10:15:50.996Z</time></trkpt><trkpt lat="43.98045579692335" lon="12.442888559328301"><ele>225.0</ele><time>2026-04-03T10:15:51.996Z</time></trkpt><trkpt lat="43.980559287301254" lon="12.442763033380185"><ele>225.0</ele><time>2026-04-03T10:15:52.996Z</time></trkpt><trkpt lat="43.98067502709596" lon="12.442662432216382"><ele>225.5</ele><time>2026-04-03T10:15:53.996Z</time></trkpt><trkpt lat="43.980797002778985" lon="12.442564490003662"><ele>226.0</ele><time>2026-04-03T10:15:54.996Z</time></trkpt><trkpt lat="43.980925850786974" lon="12.442482748051713"><ele>226.5</ele><time>2026-04-03T10:15:55.996Z</time></trkpt><trkpt lat="43.981033702253825" lon="12.442401534652552"><ele>227.0</ele><time>2026-04-03T10:15:56.996Z</time></trkpt><trkpt lat="43.98114066151158" lon="12.442317481384565"><ele>227.0</ele><time>2026-04-03T10:15:57.996Z</time></trkpt><trkpt lat="43.981243873676604" lon="12.44222914919309"><ele>227.0</ele><time>2026-04-03T10:15:58.996Z</time></trkpt><trkpt lat="43.981332488681" lon="12.442140847824481"><ele>227.0</ele><time>2026-04-03T10:15:59.996Z</time></trkpt><trkpt lat="43.98141784944549" lon="12.44202383055183"><ele>227.0</ele><time>2026-04-03T10:16:00.996Z</time></trkpt><trkpt lat="43.981470872456796" lon="12.441876007812704"><ele>227.75</ele><time>2026-04-03T10:16:01.996Z</time></trkpt><trkpt lat="43.98152773698225" lon="12.44172051857025"><ele>228.5</ele><time>2026-04-03T10:16:02.996Z</time></trkpt><trkpt lat="43.98157210599812" lon="12.441555473626618"><ele>229.25</ele><time>2026-04-03T10:16:03.996Z</time></trkpt><trkpt lat="43.98161685203915" lon="12.44138959001736"><ele>230.0</ele><time>2026-04-03T10:16:04.996Z</time></trkpt><trkpt lat="43.981664797214336" lon="12.441217468276712"><ele>226.5</ele><time>2026-04-03T10:16:05.995Z</time></trkpt><trkpt lat="43.98170929025267" lon="12.441058545753727"><ele>223.0</ele><time>2026-04-03T10:16:06.995Z</time></trkpt><trkpt lat="43.981767783174355" lon="12.440905105249858"><ele>219.5</ele><time>2026-04-03T10:16:07.995Z</time></trkpt><trkpt lat="43.98181289452393" lon="12.44073930413097"><ele>216.0</ele><time>2026-04-03T10:16:08.995Z</time></trkpt><trkpt lat="43.98185899643609" lon="12.440569862322942"><ele>217.75</ele><time>2026-04-03T10:16:09.995Z</time></trkpt><trkpt lat="43.981907640380186" lon="12.440396952029815"><ele>219.5</ele><time>2026-04-03T10:16:10.995Z</time></trkpt><trkpt lat="43.98195378912009" lon="12.440219477622463"><ele>221.25</ele><time>2026-04-03T10:16:11.995Z</time></trkpt><trkpt lat="43.982005448484244" lon="12.44003467780468"><ele>223.0</ele><time>2026-04-03T10:16:12.995Z</time></trkpt><trkpt lat="43.982054948748356" lon="12.43985509160507"><ele>223.0</ele><time>2026-04-03T10:16:13.995Z</time></trkpt><trkpt lat="43.98210036110893" lon="12.43967471408108"><ele>223.0</ele><time>2026-04-03T10:16:14.995Z</time></trkpt><trkpt lat="43.9821399916023" lon="12.439492443802424"><ele>223.0</ele><time>2026-04-03T10:16:15.995Z</time></trkpt><trkpt lat="43.98217007743847" lon="12.439305304498049"><ele>223.0</ele><time>2026-04-03T10:16:16.995Z</time></trkpt><trkpt lat="43.98218573001764" lon="12.43911085257075"><ele>224.25</ele><time>2026-04-03T10:16:17.995Z</time></trkpt><trkpt lat="43.98218760703836" lon="12.4389068401567"><ele>225.5</ele><time>2026-04-03T10:16:18.995Z</time></trkpt><trkpt lat="43.98217666886754" lon="12.43870149802677"><ele>226.75</ele><time>2026-04-03T10:16:19.995Z</time></trkpt><trkpt lat="43.98216120506453" lon="12.43850426649901"><ele>228.0</ele><time>2026-04-03T10:16:20.995Z</time></trkpt><trkpt lat="43.98215028219765" lon="12.438317460908104"><ele>229.0</ele><time>2026-04-03T10:16:21.995Z</time></trkpt><trkpt lat="43.98213889215764" lon="12.438128289233271"><ele>230.0</ele><time>2026-04-03T10:16:22.995Z</time></trkpt><trkpt lat="43.98212392234115" lon="12.437942319293402"><ele>231.0</ele><time>2026-04-03T10:16:23.995Z</time></trkpt><trkpt lat="43.98210433083119" lon="12.43775743641552"><ele>232.0</ele><time>2026-04-03T10:16:24.995Z</time></trkpt><trkpt lat="43.9820747464551" lon="12.437577263929043"><ele>233.0</ele><time>2026-04-03T10:16:25.995Z</time></trkpt><trkpt lat="43.98204415789214" lon="12.437384826118299"><ele>234.0</ele><time>2026-04-03T10:16:26.995Z</time></trkpt><trkpt lat="43.982006539080245" lon="12.437192963758111"><ele>235.0</ele><time>2026-04-03T10:16:27.995Z</time></trkpt><trkpt lat="43.98196714348912" lon="12.436999949403111"><ele>236.0</ele><time>2026-04-03T10:16:28.995Z</time></trkpt><trkpt lat="43.98192130565899" lon="12.436803959849406"><ele>237.0</ele><time>2026-04-03T10:16:29.995Z</time></trkpt><trkpt lat="43.98186987218318" lon="12.436608360458907"><ele>238.0</ele><time>2026-04-03T10:16:30.995Z</time></trkpt><trkpt lat="43.98181395874142" lon="12.436410616211013"><ele>239.0</ele><time>2026-04-03T10:16:31.995Z</time></trkpt><trkpt lat="43.981749107153185" lon="12.43622468549268"><ele>239.25</ele><time>2026-04-03T10:16:32.995Z</time></trkpt><trkpt lat="43.981683403290155" lon="12.436041283524936"><ele>239.5</ele><time>2026-04-03T10:16:33.995Z</time></trkpt><trkpt lat="43.98162299079266" lon="12.435859586988448"><ele>239.75</ele><time>2026-04-03T10:16:34.995Z</time></trkpt><trkpt lat="43.98156763767059" lon="12.435693338819545"><ele>240.0</ele><time>2026-04-03T10:16:35.995Z</time></trkpt><trkpt lat="43.98151948710127" lon="12.435537676439163"><ele>240.5</ele><time>2026-04-03T10:16:36.995Z</time></trkpt><trkpt lat="43.98148174629617" lon="12.435386295104236"><ele>241.0</ele><time>2026-04-03T10:16:37.995Z</time></trkpt><trkpt lat="43.9814645761645" lon="12.435231897431185"><ele>241.5</ele><time>2026-04-03T10:16:38.995Z</time></trkpt><trkpt lat="43.9814697072095" lon="12.435072664926455"><ele>242.0</ele><time>2026-04-03T10:16:39.995Z</time></trkpt><trkpt lat="43.98148415053647" lon="12.434901598653113"><ele>242.0</ele><time>2026-04-03T10:16:40.995Z</time></trkpt><trkpt lat="43.98149827606088" lon="12.434721592094757"><ele>242.0</ele><time>2026-04-03T10:16:41.995Z</time></trkpt><trkpt lat="43.9815107617386" lon="12.434532453730963"><ele>242.0</ele><time>2026-04-03T10:16:42.995Z</time></trkpt><trkpt lat="43.981524850638905" lon="12.434336050665651"><ele>242.0</ele><time>2026-04-03T10:16:43.995Z</time></trkpt><trkpt lat="43.981543516970255" lon="12.434135949120545"><ele>240.5</ele><time>2026-04-03T10:16:44.995Z</time></trkpt><trkpt lat="43.981563597134794" lon="12.43393480359433"><ele>239.0</ele><time>2026-04-03T10:16:45.995Z</time></trkpt><trkpt lat="43.98158010116456" lon="12.43373532752178"><ele>237.5</ele><time>2026-04-03T10:16:46.995Z</time></trkpt><trkpt lat="43.98159765102233" lon="12.433541624675637"><ele>236.0</ele><time>2026-04-03T10:16:47.995Z</time></trkpt><trkpt lat="43.98161266539374" lon="12.433357054424702"><ele>236.0</ele><time>2026-04-03T10:16:48.995Z</time></trkpt><trkpt lat="43.98161641605584" lon="12.433169451222934"><ele>236.0</ele><time>2026-04-03T10:16:49.995Z</time></trkpt><trkpt lat="43.98163090565174" lon="12.432997575229015"><ele>236.0</ele><time>2026-04-03T10:16:50.995Z</time></trkpt><trkpt lat="43.98164528337998" lon="12.432828342439194"><ele>236.0</ele><time>2026-04-03T10:16:51.995Z</time></trkpt><trkpt lat="43.98166072224605" lon="12.432665564778652"><ele>236.0</ele><time>2026-04-03T10:16:52.995Z</time></trkpt><trkpt lat="43.9816736910535" lon="12.43250997963466"><ele>236.0</ele><time>2026-04-03T10:16:53.995Z</time></trkpt><trkpt lat="43.98169031985319" lon="12.432357649502768"><ele>236.0</ele><time>2026-04-03T10:16:54.995Z</time></trkpt><trkpt lat="43.981700259620624" lon="12.432204052226316"><ele>236.0</ele><time>2026-04-03T10:16:55.995Z</time></trkpt><trkpt lat="43.9817087328444" lon="12.432038321324622"><ele>234.25</ele><time>2026-04-03T10:16:56.995Z</time></trkpt><trkpt lat="43.981715834843016" lon="12.431864820515226"><ele>232.5</ele><time>2026-04-03T10:16:57.995Z</time></trkpt><trkpt lat="43.98172017016584" lon="12.431683047702938"><ele>230.75</ele><time>2026-04-03T10:16:58.995Z</time></trkpt><trkpt lat="43.98171971045371" lon="12.431514541427386"><ele>229.0</ele><time>2026-04-03T10:16:59.995Z</time></trkpt><trkpt lat="43.98170986881801" lon="12.431345460332286"><ele>229.0</ele><time>2026-04-03T10:17:00.995Z</time></trkpt><trkpt lat="43.9816883888962" lon="12.431180515725199"><ele>229.0</ele><time>2026-04-03T10:17:01.995Z</time></trkpt><trkpt lat="43.98164328212292" lon="12.431014436097048"><ele>229.0</ele><time>2026-04-03T10:17:02.995Z</time></trkpt><trkpt lat="43.981574215274684" lon="12.430855494882547"><ele>229.0</ele><time>2026-04-03T10:17:03.995Z</time></trkpt><trkpt lat="43.98148998487694" lon="12.430705659485442"><ele>232.5</ele><time>2026-04-03T10:17:04.995Z</time></trkpt><trkpt lat="43.98140330758021" lon="12.430568837423037"><ele>236.0</ele><time>2026-04-03T10:17:05.995Z</time></trkpt><trkpt lat="43.98130962792338" lon="12.430430146318397"><ele>239.5</ele><time>2026-04-03T10:17:06.995Z</time></trkpt><trkpt lat="43.981217227480585" lon="12.430299181963658"><ele>243.0</ele><time>2026-04-03T10:17:07.995Z</time></trkpt><trkpt lat="43.98112654177696" lon="12.430173014812427"><ele>243.0</ele><time>2026-04-03T10:17:08.995Z</time></trkpt><trkpt lat="43.981035422710086" lon="12.430059043120465"><ele>243.0</ele><time>2026-04-03T10:17:09.995Z</time></trkpt><trkpt lat="43.98094305833414" lon="12.429943732366835"><ele>243.0</ele><time>2026-04-03T10:17:10.995Z</time></trkpt><trkpt lat="43.98085023339174" lon="12.429830234029053"><ele>243.0</ele><time>2026-04-03T10:17:11.995Z</time></trkpt><trkpt lat="43.98075159151676" lon="12.429729712830937"><ele>245.0</ele><time>2026-04-03T10:17:12.995Z</time></trkpt><trkpt lat="43.980650270601124" lon="12.429658421904389"><ele>247.0</ele><time>2026-04-03T10:17:13.995Z</time></trkpt><trkpt lat="43.98053709303292" lon="12.429608284144539"><ele>249.0</ele><time>2026-04-03T10:17:14.995Z</time></trkpt><trkpt lat="43.98041682809809" lon="12.429572205746851"><ele>251.0</ele><time>2026-04-03T10:17:15.995Z</time></trkpt><trkpt lat="43.980295129637746" lon="12.429555101197908"><ele>250.5</ele><time>2026-04-03T10:17:16.995Z</time></trkpt><trkpt lat="43.98015769520641" lon="12.42956374348106"><ele>250.0</ele><time>2026-04-03T10:17:17.995Z</time></trkpt><trkpt lat="43.98001990602539" lon="12.42958745652364"><ele>249.5</ele><time>2026-04-03T10:17:18.995Z</time></trkpt><trkpt lat="43.97988833020988" lon="12.429614852187001"><ele>249.0</ele><time>2026-04-03T10:17:19.995Z</time></trkpt><trkpt lat="43.97976535818576" lon="12.429654614268234"><ele>249.0</ele><time>2026-04-03T10:17:20.995Z</time></trkpt><trkpt lat="43.97965081266034" lon="12.429690510706214"><ele>248.99999999999997</ele><time>2026-04-03T10:17:21.995Z</time></trkpt><trkpt lat="43.97954706433076" lon="12.429734183782754"><ele>248.99999999999997</ele><time>2026-04-03T10:17:22.995Z</time></trkpt><trkpt lat="43.979443338914486" lon="12.429785377825086"><ele>249.0</ele><time>2026-04-03T10:17:23.995Z</time></trkpt><trkpt lat="43.97933866820856" lon="12.42981907090345"><ele>249.0</ele><time>2026-04-03T10:17:24.995Z</time></trkpt><trkpt lat="43.979228030383396" lon="12.429816857955549"><ele>251.5</ele><time>2026-04-03T10:17:25.995Z</time></trkpt><trkpt lat="43.979118845115345" lon="12.429791490005243"><ele>254.0</ele><time>2026-04-03T10:17:26.995Z</time></trkpt><trkpt lat="43.97901983893707" lon="12.429726317923656"><ele>256.5</ele><time>2026-04-03T10:17:27.995Z</time></trkpt><trkpt lat="43.97893750903559" lon="12.429613143503863"><ele>259.0</ele><time>2026-04-03T10:17:28.995Z</time></trkpt><trkpt lat="43.97885809720763" lon="12.429476945657065"><ele>262.0</ele><time>2026-04-03T10:17:29.995Z</time></trkpt><trkpt lat="43.978782453341125" lon="12.429326870488778"><ele>265.0</ele><time>2026-04-03T10:17:30.995Z</time></trkpt><trkpt lat="43.978720876272334" lon="12.429168416015415"><ele>268.0</ele><time>2026-04-03T10:17:31.995Z</time></trkpt><trkpt lat="43.978664289387446" lon="12.429014418380484"><ele>271.0</ele><time>2026-04-03T10:17:32.995Z</time></trkpt><trkpt lat="43.97860362315167" lon="12.428862996033471"><ele>273.0</ele><time>2026-04-03T10:17:33.995Z</time></trkpt><trkpt lat="43.978545248700854" lon="12.428718160632341"><ele>275.0</ele><time>2026-04-03T10:17:34.995Z</time></trkpt><trkpt lat="43.978493401185276" lon="12.428590255258358"><ele>277.0</ele><time>2026-04-03T10:17:35.995Z</time></trkpt><trkpt lat="43.978449619660815" lon="12.428483733152522"><ele>279.0</ele><time>2026-04-03T10:17:36.995Z</time></trkpt><trkpt lat="43.97841444447758" lon="12.42840406899908"><ele>281.0</ele><time>2026-04-03T10:17:37.995Z</time></trkpt><trkpt lat="43.97838969023109" lon="12.428265949726976"><ele>281.0</ele><time>2026-04-03T10:17:39.995Z</time></trkpt><trkpt lat="43.97838268117449" lon="12.428111814146973"><ele>281.0</ele><time>2026-04-03T10:17:41.995Z</time></trkpt><trkpt lat="43.97833638828773" lon="12.42805126457985"><ele>281.0</ele><time>2026-04-03T10:17:42.995Z</time></trkpt><trkpt lat="43.97827041285537" lon="12.428001156525578"><ele>281.0</ele><time>2026-04-03T10:17:43.995Z</time></trkpt><trkpt lat="43.9781891459141" lon="12.42794483790519"><ele>281.0</ele><time>2026-04-03T10:17:44.995Z</time></trkpt><trkpt lat="43.97809793079007" lon="12.427887079243108"><ele>281.0</ele><time>2026-04-03T10:17:45.995Z</time></trkpt><trkpt lat="43.978005998822184" lon="12.42783795476446"><ele>281.8</ele><time>2026-04-03T10:17:46.995Z</time></trkpt><trkpt lat="43.97791229804225" lon="12.427803765062453"><ele>282.6</ele><time>2026-04-03T10:17:47.995Z</time></trkpt><trkpt lat="43.97782098191065" lon="12.427781786051487"><ele>283.4</ele><time>2026-04-03T10:17:48.995Z</time></trkpt><trkpt lat="43.97772765716126" lon="12.427768555851076"><ele>284.2</ele><time>2026-04-03T10:17:49.995Z</time></trkpt><trkpt lat="43.97763366111854" lon="12.427757596778822"><ele>285.0</ele><time>2026-04-03T10:17:50.995Z</time></trkpt><trkpt lat="43.977541713114576" lon="12.427736780645432"><ele>282.6</ele><time>2026-04-03T10:17:51.995Z</time></trkpt><trkpt lat="43.97744626189902" lon="12.427715287955316"><ele>280.2</ele><time>2026-04-03T10:17:52.995Z</time></trkpt><trkpt lat="43.97735064249926" lon="12.427691729614336"><ele>277.8</ele><time>2026-04-03T10:17:53.995Z</time></trkpt><trkpt lat="43.977252386268276" lon="12.427678638460563"><ele>275.4</ele><time>2026-04-03T10:17:54.995Z</time></trkpt><trkpt lat="43.977144484531124" lon="12.427703929372989"><ele>273.0</ele><time>2026-04-03T10:17:55.995Z</time></trkpt><trkpt lat="43.977042277972316" lon="12.42776243822869"><ele>273.0</ele><time>2026-04-03T10:17:56.995Z</time></trkpt><trkpt lat="43.976932820159654" lon="12.427844061604391"><ele>273.0</ele><time>2026-04-03T10:17:57.995Z</time></trkpt><trkpt lat="43.97683063603703" lon="12.427911570767973"><ele>273.0</ele><time>2026-04-03T10:17:58.995Z</time></trkpt><trkpt lat="43.97672964698439" lon="12.427954954165864"><ele>273.0</ele><time>2026-04-03T10:17:59.995Z</time></trkpt><trkpt lat="43.9766188774525" lon="12.427980069558568"><ele>273.2</ele><time>2026-04-03T10:18:00.995Z</time></trkpt><trkpt lat="43.97650677864695" lon="12.427995720252271"><ele>273.4</ele><time>2026-04-03T10:18:01.995Z</time></trkpt><trkpt lat="43.97639902337412" lon="12.427979984775664"><ele>273.59999999999997</ele><time>2026-04-03T10:18:02.995Z</time></trkpt><trkpt lat="43.97630760453341" lon="12.427939887621173"><ele>273.8</ele><time>2026-04-03T10:18:03.995Z</time></trkpt><trkpt lat="43.976212931906325" lon="12.427879910140314"><ele>274.0</ele><time>2026-04-03T10:18:04.995Z</time></trkpt><trkpt lat="43.97612164108179" lon="12.427785595750521"><ele>274.0</ele><time>2026-04-03T10:18:05.995Z</time></trkpt><trkpt lat="43.97603927133867" lon="12.427674900063733"><ele>274.0</ele><time>2026-04-03T10:18:06.995Z</time></trkpt><trkpt lat="43.97595152274492" lon="12.427569039172988"><ele>274.0</ele><time>2026-04-03T10:18:07.995Z</time></trkpt><trkpt lat="43.97586652078971" lon="12.427458886587445"><ele>274.0</ele><time>2026-04-03T10:18:08.995Z</time></trkpt><trkpt lat="43.97578280632349" lon="12.427361160385066"><ele>271.4</ele><time>2026-04-03T10:18:09.995Z</time></trkpt><trkpt lat="43.97570525194729" lon="12.427261028777986"><ele>268.79999999999995</ele><time>2026-04-03T10:18:10.995Z</time></trkpt><trkpt lat="43.97564678529818" lon="12.427149329655574"><ele>266.20000000000005</ele><time>2026-04-03T10:18:11.995Z</time></trkpt><trkpt lat="43.97561390992818" lon="12.427030105605454"><ele>263.6</ele><time>2026-04-03T10:18:12.995Z</time></trkpt><trkpt lat="43.97560017835906" lon="12.426899764094872"><ele>261.0</ele><time>2026-04-03T10:18:13.995Z</time></trkpt><trkpt lat="43.97559056720847" lon="12.426757103082924"><ele>261.0</ele><time>2026-04-03T10:18:14.995Z</time></trkpt><trkpt lat="43.97557418665978" lon="12.426605408340006"><ele>261.0</ele><time>2026-04-03T10:18:15.995Z</time></trkpt><trkpt lat="43.97553866287205" lon="12.426449563540565"><ele>261.0</ele><time>2026-04-03T10:18:16.995Z</time></trkpt><trkpt lat="43.975486755057894" lon="12.426302703981417"><ele>261.0</ele><time>2026-04-03T10:18:17.995Z</time></trkpt><trkpt lat="43.97541789696313" lon="12.426174000803444"><ele>260.75</ele><time>2026-04-03T10:18:18.994Z</time></trkpt><trkpt lat="43.975330918016056" lon="12.426058540843472"><ele>260.5</ele><time>2026-04-03T10:18:19.994Z</time></trkpt><trkpt lat="43.97524158845003" lon="12.425955996211403"><ele>260.25</ele><time>2026-04-03T10:18:20.994Z</time></trkpt><trkpt lat="43.97516188484096" lon="12.425843604765088"><ele>260.0</ele><time>2026-04-03T10:18:21.994Z</time></trkpt><trkpt lat="43.9750971825282" lon="12.425701085332422"><ele>260.0</ele><time>2026-04-03T10:18:22.994Z</time></trkpt><trkpt lat="43.97505549053177" lon="12.42554204458267"><ele>260.0</ele><time>2026-04-03T10:18:23.994Z</time></trkpt><trkpt lat="43.975030775922434" lon="12.425380601683768"><ele>260.0</ele><time>2026-04-03T10:18:24.994Z</time></trkpt><trkpt lat="43.97501662235137" lon="12.425214501946261"><ele>260.0</ele><time>2026-04-03T10:18:25.994Z</time></trkpt><trkpt lat="43.97500228237779" lon="12.425050530824398"><ele>254.0</ele><time>2026-04-03T10:18:26.994Z</time></trkpt><trkpt lat="43.97498534675987" lon="12.42489109442224"><ele>248.0</ele><time>2026-04-03T10:18:27.994Z</time></trkpt><trkpt lat="43.97496139614186" lon="12.424729106902694"><ele>242.0</ele><time>2026-04-03T10:18:28.994Z</time></trkpt><trkpt lat="43.97492886388452" lon="12.424571827321605"><ele>236.0</ele><time>2026-04-03T10:18:29.994Z</time></trkpt><trkpt lat="43.97489095508256" lon="12.424422413311714"><ele>234.5</ele><time>2026-04-03T10:18:30.994Z</time></trkpt><trkpt lat="43.974841686429954" lon="12.42428391251783"><ele>233.0</ele><time>2026-04-03T10:18:31.994Z</time></trkpt><trkpt lat="43.97478930904412" lon="12.424147487477882"><ele>231.5</ele><time>2026-04-03T10:18:32.994Z</time></trkpt><trkpt lat="43.97473655130001" lon="12.424008015539915"><ele>230.0</ele><time>2026-04-03T10:18:33.994Z</time></trkpt><trkpt lat="43.97468721585539" lon="12.423863076900158"><ele>228.8</ele><time>2026-04-03T10:18:34.994Z</time></trkpt><trkpt lat="43.97463965509792" lon="12.423725139787647"><ele>227.6</ele><time>2026-04-03T10:18:35.994Z</time></trkpt><trkpt lat="43.97459165593131" lon="12.423591749234335"><ele>226.39999999999998</ele><time>2026-04-03T10:18:36.994Z</time></trkpt><trkpt lat="43.97454222989544" lon="12.423471185542002"><ele>225.2</ele><time>2026-04-03T10:18:37.994Z</time></trkpt><trkpt lat="43.97448830549999" lon="12.42336317179597"><ele>224.0</ele><time>2026-04-03T10:18:38.994Z</time></trkpt><trkpt lat="43.97443260202495" lon="12.423268144619772"><ele>224.00000000000003</ele><time>2026-04-03T10:18:39.994Z</time></trkpt><trkpt lat="43.97437903176623" lon="12.42320371983476"><ele>224.0</ele><time>2026-04-03T10:18:40.994Z</time></trkpt><trkpt lat="43.97428797457624" lon="12.423127409576338"><ele>224.0</ele><time>2026-04-03T10:18:42.994Z</time></trkpt><trkpt lat="43.97422563014139" lon="12.423082882759179"><ele>224.0</ele><time>2026-04-03T10:18:44.994Z</time></trkpt><trkpt lat="43.97414929485384" lon="12.423083527783223"><ele>224.00000000000003</ele><time>2026-04-03T10:18:47.994Z</time></trkpt><trkpt lat="43.974133120650805" lon="12.423214376726323"><ele>224.0</ele><time>2026-04-03T10:18:48.994Z</time></trkpt><trkpt lat="43.974140759491306" lon="12.423346581160864"><ele>221.16666666666669</ele><time>2026-04-03T10:18:49.994Z</time></trkpt><trkpt lat="43.97414704835827" lon="12.423487703792887"><ele>218.33333333333334</ele><time>2026-04-03T10:18:50.994Z</time></trkpt><trkpt lat="43.97412568936649" lon="12.423604233854261"><ele>215.5</ele><time>2026-04-03T10:18:51.994Z</time></trkpt><trkpt lat="43.97407891726902" lon="12.42369758398203"><ele>212.66666666666669</ele><time>2026-04-03T10:18:52.994Z</time></trkpt><trkpt lat="43.97401522289326" lon="12.42376196008904"><ele>209.83333333333334</ele><time>2026-04-03T10:18:53.994Z</time></trkpt><trkpt lat="43.97393614424679" lon="12.423783260348085"><ele>207.0</ele><time>2026-04-03T10:18:54.994Z</time></trkpt><trkpt lat="43.97382753334603" lon="12.423771934178557"><ele>207.0</ele><time>2026-04-03T10:18:55.994Z</time></trkpt><trkpt lat="43.97370872882241" lon="12.423719166315808"><ele>207.0</ele><time>2026-04-03T10:18:56.994Z</time></trkpt><trkpt lat="43.97360900128399" lon="12.42363568142528"><ele>207.0</ele><time>2026-04-03T10:18:57.994Z</time></trkpt><trkpt lat="43.97350898936224" lon="12.423569061262034"><ele>207.0</ele><time>2026-04-03T10:18:58.994Z</time></trkpt><trkpt lat="43.973418805061385" lon="12.423525922951207"><ele>207.0</ele><time>2026-04-03T10:18:59.994Z</time></trkpt><trkpt lat="43.973324601744075" lon="12.42351958717559"><ele>205.39999999999998</ele><time>2026-04-03T10:19:00.994Z</time></trkpt><trkpt lat="43.97323667742608" lon="12.423561530852751"><ele>203.79999999999998</ele><time>2026-04-03T10:19:01.994Z</time></trkpt><trkpt lat="43.97318909484686" lon="12.42367093508525"><ele>202.2</ele><time>2026-04-03T10:19:02.994Z</time></trkpt><trkpt lat="43.973148254253616" lon="12.423787208278364"><ele>200.6</ele><time>2026-04-03T10:19:03.994Z</time></trkpt><trkpt lat="43.973100136759875" lon="12.42390047072589"><ele>199.0</ele><time>2026-04-03T10:19:04.994Z</time></trkpt><trkpt lat="43.973061871964305" lon="12.424015031837097"><ele>198.99999999999997</ele><time>2026-04-03T10:19:05.994Z</time></trkpt><trkpt lat="43.97301095114116" lon="12.424095539221666"><ele>199.0</ele><time>2026-04-03T10:19:06.994Z</time></trkpt><trkpt lat="43.97294470004736" lon="12.424133618741275"><ele>199.0</ele><time>2026-04-03T10:19:07.994Z</time></trkpt><trkpt lat="43.97287895289073" lon="12.424136052265226"><ele>199.0</ele><time>2026-04-03T10:19:08.994Z</time></trkpt><trkpt lat="43.972824378669706" lon="12.424053746767683"><ele>198.99999999999997</ele><time>2026-04-03T10:19:09.994Z</time></trkpt><trkpt lat="43.97280032074302" lon="12.423937733665703"><ele>199.0</ele><time>2026-04-03T10:19:10.994Z</time></trkpt><trkpt lat="43.97280063925744" lon="12.423805869941647"><ele>198.79999999999998</ele><time>2026-04-03T10:19:11.994Z</time></trkpt><trkpt lat="43.972807820673" lon="12.423655681005336"><ele>198.6</ele><time>2026-04-03T10:19:12.994Z</time></trkpt><trkpt lat="43.9727975889037" lon="12.423510860564612"><ele>198.4</ele><time>2026-04-03T10:19:13.994Z</time></trkpt><trkpt lat="43.972768084276595" lon="12.423362319556995"><ele>198.2</ele><time>2026-04-03T10:19:14.994Z</time></trkpt><trkpt lat="43.97272515313722" lon="12.423213499615313"><ele>198.0</ele><time>2026-04-03T10:19:15.994Z</time></trkpt><trkpt lat="43.97267894702101" lon="12.423065796704579"><ele>196.8</ele><time>2026-04-03T10:19:16.994Z</time></trkpt><trkpt lat="43.972636512178" lon="12.42291046024552"><ele>195.60000000000002</ele><time>2026-04-03T10:19:17.994Z</time></trkpt><trkpt lat="43.97259538989201" lon="12.422764826543629"><ele>194.39999999999998</ele><time>2026-04-03T10:19:18.994Z</time></trkpt><trkpt lat="43.97255774647828" lon="12.42262712039947"><ele>193.2</ele><time>2026-04-03T10:19:19.994Z</time></trkpt><trkpt lat="43.97253967021744" lon="12.422492859368"><ele>192.0</ele><time>2026-04-03T10:19:20.994Z</time></trkpt><trkpt lat="43.97255034625956" lon="12.422360449148638"><ele>192.0</ele><time>2026-04-03T10:19:21.994Z</time></trkpt><trkpt lat="43.972592028563746" lon="12.422239383845577"><ele>192.0</ele><time>2026-04-03T10:19:22.994Z</time></trkpt><trkpt lat="43.9726588330313" lon="12.42211410773415"><ele>192.0</ele><time>2026-04-03T10:19:23.994Z</time></trkpt><trkpt lat="43.9727219729573" lon="12.421984706293173"><ele>192.0</ele><time>2026-04-03T10:19:24.994Z</time></trkpt><trkpt lat="43.972746874622366" lon="12.421837983057538"><ele>192.0</ele><time>2026-04-03T10:19:25.994Z</time></trkpt><trkpt lat="43.97273140263398" lon="12.421680379306952"><ele>191.25</ele><time>2026-04-03T10:19:26.994Z</time></trkpt><trkpt lat="43.97267059025499" lon="12.421555773363153"><ele>190.5</ele><time>2026-04-03T10:19:27.994Z</time></trkpt><trkpt lat="43.972593116069916" lon="12.421433784386945"><ele>189.75</ele><time>2026-04-03T10:19:28.994Z</time></trkpt><trkpt lat="43.97246301094455" lon="12.421384134566875"><ele>189.0</ele><time>2026-04-03T10:19:29.994Z</time></trkpt><trkpt lat="43.97234447085182" lon="12.421343006693448"><ele>186.6</ele><time>2026-04-03T10:19:30.994Z</time></trkpt><trkpt lat="43.972236322948504" lon="12.421281989910725"><ele>184.2</ele><time>2026-04-03T10:19:31.994Z</time></trkpt><trkpt lat="43.97213310683846" lon="12.42124152280685"><ele>181.79999999999998</ele><time>2026-04-03T10:19:32.994Z</time></trkpt><trkpt lat="43.9720365765439" lon="12.421219479763183"><ele>179.39999999999998</ele><time>2026-04-03T10:19:33.994Z</time></trkpt><trkpt lat="43.97196914340091" lon="12.42114968826679"><ele>177.0</ele><time>2026-04-03T10:19:34.994Z</time></trkpt><trkpt lat="43.971936504125395" lon="12.421048136856433"><ele>177.0</ele><time>2026-04-03T10:19:35.994Z</time></trkpt><trkpt lat="43.97195512789912" lon="12.420937000877327"><ele>177.0</ele><time>2026-04-03T10:19:36.994Z</time></trkpt><trkpt lat="43.97200032685014" lon="12.420812628400459"><ele>177.0</ele><time>2026-04-03T10:19:37.994Z</time></trkpt><trkpt lat="43.97206069591677" lon="12.420663585288118"><ele>177.0</ele><time>2026-04-03T10:19:38.994Z</time></trkpt><trkpt lat="43.972114298952725" lon="12.420518635026795"><ele>177.0</ele><time>2026-04-03T10:19:39.994Z</time></trkpt><trkpt lat="43.97215461972589" lon="12.420376789986067"><ele>176.25</ele><time>2026-04-03T10:19:40.994Z</time></trkpt><trkpt lat="43.972204703224214" lon="12.420227126113767"><ele>175.5</ele><time>2026-04-03T10:19:41.994Z</time></trkpt><trkpt lat="43.97225066940665" lon="12.420075410486172"><ele>174.75</ele><time>2026-04-03T10:19:42.994Z</time></trkpt><trkpt lat="43.972309716828356" lon="12.419939947601604"><ele>174.0</ele><time>2026-04-03T10:19:43.994Z</time></trkpt><trkpt lat="43.9723281274015" lon="12.419790719356063"><ele>174.0</ele><time>2026-04-03T10:19:44.994Z</time></trkpt><trkpt lat="43.97231445855067" lon="12.419657738596111"><ele>174.0</ele><time>2026-04-03T10:19:45.994Z</time></trkpt><trkpt lat="43.972261268139654" lon="12.419551725119115"><ele>174.0</ele><time>2026-04-03T10:19:46.994Z</time></trkpt><trkpt lat="43.972181905792155" lon="12.41948813119985"><ele>174.0</ele><time>2026-04-03T10:19:47.994Z</time></trkpt><trkpt lat="43.97208353827482" lon="12.419457532630059"><ele>174.0</ele><time>2026-04-03T10:19:48.994Z</time></trkpt><trkpt lat="43.97198238517446" lon="12.419458364356917"><ele>173.6</ele><time>2026-04-03T10:19:49.994Z</time></trkpt><trkpt lat="43.971889020372814" lon="12.419432230247015"><ele>173.2</ele><time>2026-04-03T10:19:50.994Z</time></trkpt><trkpt lat="43.971811080512666" lon="12.419376740060375"><ele>172.79999999999998</ele><time>2026-04-03T10:19:51.994Z</time></trkpt><trkpt lat="43.97176101841139" lon="12.41928634026352"><ele>172.39999999999998</ele><time>2026-04-03T10:19:52.994Z</time></trkpt><trkpt lat="43.97173180690049" lon="12.419171744805205"><ele>172.0</ele><time>2026-04-03T10:19:53.994Z</time></trkpt><trkpt lat="43.97171767522709" lon="12.419024116888133"><ele>172.0</ele><time>2026-04-03T10:19:54.994Z</time></trkpt><trkpt lat="43.97172434798161" lon="12.41887547711566"><ele>172.0</ele><time>2026-04-03T10:19:55.994Z</time></trkpt><trkpt lat="43.97174902202632" lon="12.418727999438197"><ele>172.0</ele><time>2026-04-03T10:19:56.994Z</time></trkpt><trkpt lat="43.97178337885815" lon="12.418596208000606"><ele>172.0</ele><time>2026-04-03T10:19:57.994Z</time></trkpt><trkpt lat="43.97183588524755" lon="12.4184799653698"><ele>172.0</ele><time>2026-04-03T10:19:58.994Z</time></trkpt><trkpt lat="43.97190738134787" lon="12.418360835062424"><ele>170.8</ele><time>2026-04-03T10:19:59.994Z</time></trkpt><trkpt lat="43.97198058983234" lon="12.418241957196345"><ele>169.6</ele><time>2026-04-03T10:20:00.994Z</time></trkpt><trkpt lat="43.972061620947194" lon="12.418130951064233"><ele>168.4</ele><time>2026-04-03T10:20:01.994Z</time></trkpt><trkpt lat="43.972141667664225" lon="12.418029613353635"><ele>167.20000000000002</ele><time>2026-04-03T10:20:02.994Z</time></trkpt><trkpt lat="43.97222032226828" lon="12.417926907707141"><ele>166.0</ele><time>2026-04-03T10:20:03.994Z</time></trkpt><trkpt lat="43.972301991500714" lon="12.417827105915508"><ele>165.5</ele><time>2026-04-03T10:20:04.994Z</time></trkpt><trkpt lat="43.97239507165528" lon="12.417740542851835"><ele>165.0</ele><time>2026-04-03T10:20:05.994Z</time></trkpt><trkpt lat="43.9724767858266" lon="12.41764352415853"><ele>164.5</ele><time>2026-04-03T10:20:06.994Z</time></trkpt><trkpt lat="43.97255672524332" lon="12.417536642385949"><ele>164.0</ele><time>2026-04-03T10:20:07.994Z</time></trkpt><trkpt lat="43.97262468449114" lon="12.41739634700714"><ele>164.0</ele><time>2026-04-03T10:20:08.994Z</time></trkpt><trkpt lat="43.97267133368612" lon="12.417223752612934"><ele>164.0</ele><time>2026-04-03T10:20:09.994Z</time></trkpt><trkpt lat="43.97273567581699" lon="12.417067361394764"><ele>164.0</ele><time>2026-04-03T10:20:10.994Z</time></trkpt><trkpt lat="43.97278203127728" lon="12.416897594794586"><ele>164.0</ele><time>2026-04-03T10:20:11.994Z</time></trkpt><trkpt lat="43.97281147107388" lon="12.416714939638416"><ele>163.5</ele><time>2026-04-03T10:20:12.994Z</time></trkpt><trkpt lat="43.97283218466591" lon="12.41653631337708"><ele>163.0</ele><time>2026-04-03T10:20:13.994Z</time></trkpt><trkpt lat="43.97285607933199" lon="12.416359799273124"><ele>162.5</ele><time>2026-04-03T10:20:14.994Z</time></trkpt><trkpt lat="43.97287540261678" lon="12.416177267661016"><ele>162.0</ele><time>2026-04-03T10:20:15.994Z</time></trkpt><trkpt lat="43.97288669718434" lon="12.4159869185892"><ele>161.75</ele><time>2026-04-03T10:20:16.994Z</time></trkpt><trkpt lat="43.972895212053984" lon="12.415794738407698"><ele>161.5</ele><time>2026-04-03T10:20:17.994Z</time></trkpt><trkpt lat="43.972887742553176" lon="12.41558669736801"><ele>161.25</ele><time>2026-04-03T10:20:18.994Z</time></trkpt><trkpt lat="43.972874457120014" lon="12.415381901287184"><ele>161.0</ele><time>2026-04-03T10:20:19.994Z</time></trkpt><trkpt lat="43.97285678371672" lon="12.415180422032309"><ele>160.5</ele><time>2026-04-03T10:20:20.994Z</time></trkpt><trkpt lat="43.972822011007544" lon="12.414984808403485"><ele>160.0</ele><time>2026-04-03T10:20:21.994Z</time></trkpt><trkpt lat="43.97279959443584" lon="12.414787862711961"><ele>159.5</ele><time>2026-04-03T10:20:22.994Z</time></trkpt><trkpt lat="43.97277509170897" lon="12.414576154736768"><ele>159.0</ele><time>2026-04-03T10:20:23.994Z</time></trkpt><trkpt lat="43.972752933864335" lon="12.414375006285193"><ele>157.75</ele><time>2026-04-03T10:20:24.994Z</time></trkpt><trkpt lat="43.972729565984615" lon="12.414173986301742"><ele>156.5</ele><time>2026-04-03T10:20:25.994Z</time></trkpt><trkpt lat="43.972733548676594" lon="12.413974960028604"><ele>155.25</ele><time>2026-04-03T10:20:26.994Z</time></trkpt><trkpt lat="43.97271302462535" lon="12.413783492637808"><ele>154.0</ele><time>2026-04-03T10:20:27.994Z</time></trkpt><trkpt lat="43.972724494482115" lon="12.413585042436928"><ele>151.25</ele><time>2026-04-03T10:20:28.994Z</time></trkpt><trkpt lat="43.972745296324966" lon="12.413402296079527"><ele>148.5</ele><time>2026-04-03T10:20:29.994Z</time></trkpt><trkpt lat="43.97277554791195" lon="12.413236599436102"><ele>145.75</ele><time>2026-04-03T10:20:30.994Z</time></trkpt><trkpt lat="43.972811473486985" lon="12.413085628017571"><ele>143.0</ele><time>2026-04-03T10:20:31.994Z</time></trkpt><trkpt lat="43.97285676496935" lon="12.412953882581897"><ele>141.99999999999997</ele><time>2026-04-03T10:20:32.994Z</time></trkpt><trkpt lat="43.97289654202966" lon="12.412856313130845"><ele>141.0</ele><time>2026-04-03T10:20:33.994Z</time></trkpt><trkpt lat="43.97292167639988" lon="12.412767387626781"><ele>140.0</ele><time>2026-04-03T10:20:34.994Z</time></trkpt><trkpt lat="43.97292317068562" lon="12.412670637905341"><ele>139.0</ele><time>2026-04-03T10:20:35.994Z</time></trkpt><trkpt lat="43.972885132062814" lon="12.412584505546189"><ele>138.0</ele><time>2026-04-03T10:20:36.994Z</time></trkpt><trkpt lat="43.97282157580656" lon="12.41254162408659"><ele>136.99999999999997</ele><time>2026-04-03T10:20:37.994Z</time></trkpt><trkpt lat="43.972753522817605" lon="12.412536901080244"><ele>136.0</ele><time>2026-04-03T10:20:38.994Z</time></trkpt><trkpt lat="43.972683493538995" lon="12.412573248724911"><ele>136.0</ele><time>2026-04-03T10:20:39.994Z</time></trkpt><trkpt lat="43.97260459377148" lon="12.412642376235874"><ele>136.0</ele><time>2026-04-03T10:20:40.994Z</time></trkpt><trkpt lat="43.97252612904566" lon="12.41271384653976"><ele>136.0</ele><time>2026-04-03T10:20:41.994Z</time></trkpt><trkpt lat="43.97244646430255" lon="12.412756147777301"><ele>136.0</ele><time>2026-04-03T10:20:42.994Z</time></trkpt><trkpt lat="43.97236909287951" lon="12.41275156994488"><ele>136.0</ele><time>2026-04-03T10:20:43.994Z</time></trkpt><trkpt lat="43.972301947935975" lon="12.412689585544555"><ele>136.0</ele><time>2026-04-03T10:20:44.994Z</time></trkpt><trkpt lat="43.972262225200616" lon="12.412597588166374"><ele>134.66666666666669</ele><time>2026-04-03T10:20:45.993Z</time></trkpt><trkpt lat="43.97226222423922" lon="12.412492202993366"><ele>133.33333333333334</ele><time>2026-04-03T10:20:46.993Z</time></trkpt><trkpt lat="43.97229634470946" lon="12.412391696560801"><ele>132.0</ele><time>2026-04-03T10:20:47.993Z</time></trkpt><trkpt lat="43.972338902024816" lon="12.412305158706516"><ele>130.66666666666666</ele><time>2026-04-03T10:20:48.993Z</time></trkpt><trkpt lat="43.97238577400269" lon="12.412235673651345"><ele>129.33333333333331</ele><time>2026-04-03T10:20:49.993Z</time></trkpt><trkpt lat="43.97246813853163" lon="12.41212776743893"><ele>128.0</ele><time>2026-04-03T10:20:51.993Z</time></trkpt><trkpt lat="43.97252721659733" lon="12.41206345899984"><ele>127.99999999999999</ele><time>2026-04-03T10:20:54.993Z</time></trkpt><trkpt lat="43.97257518645546" lon="12.412004097608737"><ele>128.0</ele><time>2026-04-03T10:21:21.993Z</time></trkpt><trkpt lat="43.97263726385165" lon="12.411952148129323"><ele>128.0</ele><time>2026-04-03T10:21:24.993Z</time></trkpt><trkpt lat="43.97271040631359" lon="12.411916533668963"><ele>128.0</ele><time>2026-04-03T10:21:25.993Z</time></trkpt><trkpt lat="43.97276744907064" lon="12.411874571012458"><ele>127.99999999999999</ele><time>2026-04-03T10:21:26.993Z</time></trkpt><trkpt lat="43.97282521135137" lon="12.411832079021517"><ele>128.0</ele><time>2026-04-03T10:21:27.993Z</time></trkpt><trkpt lat="43.97283017376506" lon="12.411644364915462"><ele>128.0</ele><time>2026-04-03T10:21:28.993Z</time></trkpt><trkpt lat="43.97289552064464" lon="12.411573291656579"><ele>128.0</ele><time>2026-04-03T10:21:29.993Z</time></trkpt><trkpt lat="43.972983879819786" lon="12.41151629273917"><ele>128.0</ele><time>2026-04-03T10:21:30.993Z</time></trkpt><trkpt lat="43.973068669602796" lon="12.411483983573913"><ele>128.0</ele><time>2026-04-03T10:21:31.993Z</time></trkpt><trkpt lat="43.9731673893204" lon="12.411464727749376"><ele>128.0</ele><time>2026-04-03T10:21:32.993Z</time></trkpt><trkpt lat="43.97327455205164" lon="12.41143662016784"><ele>129.75</ele><time>2026-04-03T10:21:33.993Z</time></trkpt><trkpt lat="43.97338260218079" lon="12.411407174177501"><ele>131.5</ele><time>2026-04-03T10:21:34.993Z</time></trkpt><trkpt lat="43.973497859920414" lon="12.411376996037983"><ele>133.25</ele><time>2026-04-03T10:21:35.993Z</time></trkpt><trkpt lat="43.973616540352694" lon="12.411346939060667"><ele>135.0</ele><time>2026-04-03T10:21:36.993Z</time></trkpt><trkpt lat="43.973730464705675" lon="12.411317461971967"><ele>133.75</ele><time>2026-04-03T10:21:37.993Z</time></trkpt><trkpt lat="43.97384723300739" lon="12.411280342391192"><ele>132.5</ele><time>2026-04-03T10:21:38.993Z</time></trkpt><trkpt lat="43.97397072340187" lon="12.41123771615365"><ele>131.25</ele><time>2026-04-03T10:21:39.993Z</time></trkpt><trkpt lat="43.97409817242128" lon="12.411191194737274"><ele>130.0</ele><time>2026-04-03T10:21:40.993Z</time></trkpt><trkpt lat="43.97422822906532" lon="12.411149486962096"><ele>130.0</ele><time>2026-04-03T10:21:41.993Z</time></trkpt><trkpt lat="43.974360003921234" lon="12.411095759990072"><ele>130.0</ele><time>2026-04-03T10:21:42.993Z</time></trkpt><trkpt lat="43.97448216480191" lon="12.411035611334698"><ele>130.0</ele><time>2026-04-03T10:21:43.993Z</time></trkpt><trkpt lat="43.97459433648068" lon="12.410954226431791"><ele>130.0</ele><time>2026-04-03T10:21:44.993Z</time></trkpt><trkpt lat="43.974710904631856" lon="12.410862065926896"><ele>130.0</ele><time>2026-04-03T10:21:45.993Z</time></trkpt><trkpt lat="43.97479426129352" lon="12.410707801465426"><ele>130.0</ele><time>2026-04-03T10:21:46.993Z</time></trkpt><trkpt lat="43.974884387473004" lon="12.410566179446652"><ele>130.0</ele><time>2026-04-03T10:21:47.993Z</time></trkpt><trkpt lat="43.974973115613984" lon="12.410439092874018"><ele>130.0</ele><time>2026-04-03T10:21:48.993Z</time></trkpt><trkpt lat="43.9750571740253" lon="12.410310756935507"><ele>130.5</ele><time>2026-04-03T10:21:49.993Z</time></trkpt><trkpt lat="43.975139723891594" lon="12.410184246167312"><ele>131.0</ele><time>2026-04-03T10:21:50.993Z</time></trkpt><trkpt lat="43.97522228580337" lon="12.410057839014016"><ele>131.5</ele><time>2026-04-03T10:21:51.993Z</time></trkpt><trkpt lat="43.97530994488595" lon="12.40993412550217"><ele>132.0</ele><time>2026-04-03T10:21:52.993Z</time></trkpt><trkpt lat="43.975406425961715" lon="12.40982329458342"><ele>132.0</ele><time>2026-04-03T10:21:53.993Z</time></trkpt><trkpt lat="43.975506490876136" lon="12.409730172154514"><ele>132.0</ele><time>2026-04-03T10:21:54.993Z</time></trkpt><trkpt lat="43.97561940128815" lon="12.409671730471102"><ele>132.0</ele><time>2026-04-03T10:21:55.993Z</time></trkpt><trkpt lat="43.97573541071522" lon="12.409642034968543"><ele>132.0</ele><time>2026-04-03T10:21:56.993Z</time></trkpt><trkpt lat="43.97585448660337" lon="12.409657573590481"><ele>132.75</ele><time>2026-04-03T10:21:57.993Z</time></trkpt><trkpt lat="43.97599388408304" lon="12.409689006410384"><ele>133.5</ele><time>2026-04-03T10:21:58.993Z</time></trkpt><trkpt lat="43.97613384233865" lon="12.409711498683077"><ele>134.25</ele><time>2026-04-03T10:21:59.993Z</time></trkpt><trkpt lat="43.97628480588758" lon="12.409724338353337"><ele>135.0</ele><time>2026-04-03T10:22:00.993Z</time></trkpt><trkpt lat="43.97642758062379" lon="12.40972082784243"><ele>135.0</ele><time>2026-04-03T10:22:01.993Z</time></trkpt><trkpt lat="43.97656814941523" lon="12.409700154846314"><ele>135.0</ele><time>2026-04-03T10:22:02.993Z</time></trkpt><trkpt lat="43.97671214670651" lon="12.409677443133155"><ele>135.0</ele><time>2026-04-03T10:22:03.993Z</time></trkpt><trkpt lat="43.976869151831195" lon="12.409658942531385"><ele>135.0</ele><time>2026-04-03T10:22:04.993Z</time></trkpt><trkpt lat="43.97702469145313" lon="12.409631393079914"><ele>133.25</ele><time>2026-04-03T10:22:05.993Z</time></trkpt><trkpt lat="43.97717538700132" lon="12.40959558862648"><ele>131.5</ele><time>2026-04-03T10:22:06.993Z</time></trkpt><trkpt lat="43.97732059601073" lon="12.409558864176601"><ele>129.75</ele><time>2026-04-03T10:22:07.993Z</time></trkpt><trkpt lat="43.97745336004345" lon="12.40951237329497"><ele>128.0</ele><time>2026-04-03T10:22:08.993Z</time></trkpt><trkpt lat="43.977571845709214" lon="12.409463223886139"><ele>128.0</ele><time>2026-04-03T10:22:09.993Z</time></trkpt><trkpt lat="43.97767707144652" lon="12.409416226082271"><ele>128.0</ele><time>2026-04-03T10:22:10.993Z</time></trkpt><trkpt lat="43.97778074914068" lon="12.4093691998227"><ele>128.0</ele><time>2026-04-03T10:22:11.993Z</time></trkpt><trkpt lat="43.97787947834216" lon="12.40932979089799"><ele>128.0</ele><time>2026-04-03T10:22:12.993Z</time></trkpt><trkpt lat="43.97798140483692" lon="12.409284404144831"><ele>128.0</ele><time>2026-04-03T10:22:13.993Z</time></trkpt><trkpt lat="43.97808542113082" lon="12.409238248793853"><ele>128.0</ele><time>2026-04-03T10:22:14.993Z</time></trkpt><trkpt lat="43.978179288450065" lon="12.40918735985034"><ele>128.0</ele><time>2026-04-03T10:22:15.993Z</time></trkpt><trkpt lat="43.97827889233991" lon="12.409144079421168"><ele>128.0</ele><time>2026-04-03T10:22:16.993Z</time></trkpt><trkpt lat="43.978368875037155" lon="12.409106540931417"><ele>128.0</ele><time>2026-04-03T10:22:17.993Z</time></trkpt><trkpt lat="43.97846363608691" lon="12.409065970105242"><ele>128.0</ele><time>2026-04-03T10:22:18.993Z</time></trkpt><trkpt lat="43.97855872706019" lon="12.409024613529477"><ele>128.20000000000002</ele><time>2026-04-03T10:22:19.993Z</time></trkpt><trkpt lat="43.978655801290316" lon="12.408982659396202"><ele>128.4</ele><time>2026-04-03T10:22:20.993Z</time></trkpt><trkpt lat="43.97875288977478" lon="12.408942308916727"><ele>128.60000000000002</ele><time>2026-04-03T10:22:21.993Z</time></trkpt><trkpt lat="43.97884500965348" lon="12.408903445764409"><ele>128.8</ele><time>2026-04-03T10:22:22.993Z</time></trkpt><trkpt lat="43.978939589174324" lon="12.408878386816069"><ele>129.0</ele><time>2026-04-03T10:22:23.993Z</time></trkpt><trkpt lat="43.97903260579673" lon="12.408839891460314"><ele>127.0</ele><time>2026-04-03T10:22:24.993Z</time></trkpt><trkpt lat="43.97913229830989" lon="12.408798580115842"><ele>125.0</ele><time>2026-04-03T10:22:25.993Z</time></trkpt><trkpt lat="43.97922922921974" lon="12.408758639188848"><ele>123.0</ele><time>2026-04-03T10:22:26.993Z</time></trkpt><trkpt lat="43.97932581819846" lon="12.4087188391568"><ele>121.0</ele><time>2026-04-03T10:22:27.993Z</time></trkpt><trkpt lat="43.97943701491704" lon="12.408672926037914"><ele>119.0</ele><time>2026-04-03T10:22:28.993Z</time></trkpt><trkpt lat="43.979548780333744" lon="12.408625678663924"><ele>119.0</ele><time>2026-04-03T10:22:29.993Z</time></trkpt><trkpt lat="43.979656595764645" lon="12.408556314587303"><ele>119.0</ele><time>2026-04-03T10:22:30.993Z</time></trkpt><trkpt lat="43.97977844216069" lon="12.408521398432974"><ele>119.0</ele><time>2026-04-03T10:22:31.993Z</time></trkpt><trkpt lat="43.979910522183616" lon="12.408467160031316"><ele>119.0</ele><time>2026-04-03T10:22:32.993Z</time></trkpt><trkpt lat="43.98003293860541" lon="12.40840594264472"><ele>119.75</ele><time>2026-04-03T10:22:33.993Z</time></trkpt><trkpt lat="43.98015092901548" lon="12.408334659291132"><ele>120.5</ele><time>2026-04-03T10:22:34.993Z</time></trkpt><trkpt lat="43.98026389944153" lon="12.408254902360504"><ele>121.25</ele><time>2026-04-03T10:22:35.993Z</time></trkpt><trkpt lat="43.98037177040691" lon="12.408181351892956"><ele>122.0</ele><time>2026-04-03T10:22:36.993Z</time></trkpt><trkpt lat="43.98047631296517" lon="12.408100738864805"><ele>122.0</ele><time>2026-04-03T10:22:37.993Z</time></trkpt><trkpt lat="43.980580057536535" lon="12.408015314014282"><ele>122.0</ele><time>2026-04-03T10:22:38.993Z</time></trkpt><trkpt lat="43.98067980391908" lon="12.407931491416173"><ele>122.0</ele><time>2026-04-03T10:22:39.993Z</time></trkpt><trkpt lat="43.980772229976445" lon="12.407851104136725"><ele>122.0</ele><time>2026-04-03T10:22:40.993Z</time></trkpt><trkpt lat="43.9808593247456" lon="12.407765382570833"><ele>120.6</ele><time>2026-04-03T10:22:41.993Z</time></trkpt><trkpt lat="43.980939718791326" lon="12.407672544035263"><ele>119.19999999999999</ele><time>2026-04-03T10:22:42.993Z</time></trkpt><trkpt lat="43.98100422586012" lon="12.407559698506832"><ele>117.8</ele><time>2026-04-03T10:22:43.993Z</time></trkpt><trkpt lat="43.98105796680047" lon="12.40744205185848"><ele>116.4</ele><time>2026-04-03T10:22:44.993Z</time></trkpt><trkpt lat="43.98110578260162" lon="12.40732254657761"><ele>115.0</ele><time>2026-04-03T10:22:45.993Z</time></trkpt><trkpt lat="43.98115831742667" lon="12.407202770806995"><ele>113.4</ele><time>2026-04-03T10:22:46.993Z</time></trkpt><trkpt lat="43.98121427857973" lon="12.407087026362408"><ele>111.8</ele><time>2026-04-03T10:22:47.993Z</time></trkpt><trkpt lat="43.98128420410101" lon="12.407007739402111"><ele>110.19999999999999</ele><time>2026-04-03T10:22:48.993Z</time></trkpt><trkpt lat="43.98136350923546" lon="12.406959143361446"><ele>108.6</ele><time>2026-04-03T10:22:49.993Z</time></trkpt><trkpt lat="43.98145608218293" lon="12.406965336745449"><ele>107.0</ele><time>2026-04-03T10:22:50.993Z</time></trkpt><trkpt lat="43.98155163591848" lon="12.40697057661179"><ele>107.0</ele><time>2026-04-03T10:22:51.993Z</time></trkpt><trkpt lat="43.98165225416238" lon="12.406990565555727"><ele>106.99999999999999</ele><time>2026-04-03T10:22:52.993Z</time></trkpt><trkpt lat="43.98174795627117" lon="12.407020166147985"><ele>106.99999999999999</ele><time>2026-04-03T10:22:53.993Z</time></trkpt><trkpt lat="43.98183244204156" lon="12.40704750885979"><ele>107.0</ele><time>2026-04-03T10:22:54.993Z</time></trkpt><trkpt lat="43.981905678103494" lon="12.407048153750514"><ele>107.0</ele><time>2026-04-03T10:22:55.993Z</time></trkpt><trkpt lat="43.98201334742205" lon="12.407096600459202"><ele>107.39999999999999</ele><time>2026-04-03T10:22:57.992Z</time></trkpt><trkpt lat="43.9821123935869" lon="12.407134229044521"><ele>107.79999999999998</ele><time>2026-04-03T10:22:59.992Z</time></trkpt><trkpt lat="43.982229637699575" lon="12.407167065141444"><ele>108.2</ele><time>2026-04-03T10:23:01.992Z</time></trkpt><trkpt lat="43.982297855198055" lon="12.40717304312949"><ele>108.6</ele><time>2026-04-03T10:23:03.992Z</time></trkpt><trkpt lat="43.98232112441012" lon="12.407014215744267"><ele>109.0</ele><time>2026-04-03T10:23:04.992Z</time></trkpt><trkpt lat="43.98232237802616" lon="12.406904589621671"><ele>109.0</ele><time>2026-04-03T10:23:05.992Z</time></trkpt><trkpt lat="43.982342707323966" lon="12.406787026960496"><ele>109.0</ele><time>2026-04-03T10:23:06.992Z</time></trkpt><trkpt lat="43.98237552809012" lon="12.406657267510743"><ele>109.0</ele><time>2026-04-03T10:23:07.992Z</time></trkpt><trkpt lat="43.982416077049244" lon="12.40652092356391"><ele>109.0</ele><time>2026-04-03T10:23:08.992Z</time></trkpt><trkpt lat="43.98245233523033" lon="12.40639142450704"><ele>109.0</ele><time>2026-04-03T10:23:09.992Z</time></trkpt><trkpt lat="43.982490578668276" lon="12.406260030504193"><ele>107.2</ele><time>2026-04-03T10:23:10.992Z</time></trkpt><trkpt lat="43.98253357922661" lon="12.406131747934252"><ele>105.4</ele><time>2026-04-03T10:23:11.992Z</time></trkpt><trkpt lat="43.98257521752319" lon="12.405997491057832"><ele>103.6</ele><time>2026-04-03T10:23:12.992Z</time></trkpt><trkpt lat="43.98261679739653" lon="12.405856149446768"><ele>101.8</ele><time>2026-04-03T10:23:13.992Z</time></trkpt><trkpt lat="43.982658565080165" lon="12.405705022045685"><ele>100.0</ele><time>2026-04-03T10:23:14.992Z</time></trkpt><trkpt lat="43.982699131157375" lon="12.4055496630738"><ele>100.5</ele><time>2026-04-03T10:23:15.992Z</time></trkpt><trkpt lat="43.98274306785732" lon="12.405396562407045"><ele>101.0</ele><time>2026-04-03T10:23:16.992Z</time></trkpt><trkpt lat="43.982788500037046" lon="12.405233750902532"><ele>101.5</ele><time>2026-04-03T10:23:17.992Z</time></trkpt><trkpt lat="43.982835797483126" lon="12.405080360621394"><ele>102.0</ele><time>2026-04-03T10:23:18.992Z</time></trkpt><trkpt lat="43.98287752535611" lon="12.404938770223033"><ele>102.0</ele><time>2026-04-03T10:23:19.992Z</time></trkpt><trkpt lat="43.98292276519021" lon="12.404802646565534"><ele>102.0</ele><time>2026-04-03T10:23:20.992Z</time></trkpt><trkpt lat="43.982970177765985" lon="12.404659934513077"><ele>102.0</ele><time>2026-04-03T10:23:21.992Z</time></trkpt><trkpt lat="43.983023876050886" lon="12.404511377530822"><ele>102.0</ele><time>2026-04-03T10:23:22.992Z</time></trkpt><trkpt lat="43.983079646163645" lon="12.404373018057269"><ele>103.0</ele><time>2026-04-03T10:23:23.992Z</time></trkpt><trkpt lat="43.98314637533096" lon="12.404239097553146"><ele>104.0</ele><time>2026-04-03T10:23:24.992Z</time></trkpt><trkpt lat="43.983215995546985" lon="12.40410952052922"><ele>105.0</ele><time>2026-04-03T10:23:25.992Z</time></trkpt><trkpt lat="43.983284006990594" lon="12.403986898626675"><ele>106.0</ele><time>2026-04-03T10:23:26.992Z</time></trkpt><trkpt lat="43.983368521902875" lon="12.403882121132822"><ele>108.75</ele><time>2026-04-03T10:23:27.992Z</time></trkpt><trkpt lat="43.98344507584486" lon="12.40377005747647"><ele>111.5</ele><time>2026-04-03T10:23:28.992Z</time></trkpt><trkpt lat="43.98352406413431" lon="12.403656340517529"><ele>114.25</ele><time>2026-04-03T10:23:29.992Z</time></trkpt><trkpt lat="43.98359425799939" lon="12.403528842727702"><ele>117.0</ele><time>2026-04-03T10:23:30.992Z</time></trkpt><trkpt lat="43.98367666388604" lon="12.403423513186999"><ele>117.0</ele><time>2026-04-03T10:23:31.992Z</time></trkpt><trkpt lat="43.983763090342016" lon="12.403321241128733"><ele>116.99999999999999</ele><time>2026-04-03T10:23:32.992Z</time></trkpt><trkpt lat="43.98385988101001" lon="12.403242192472433"><ele>116.99999999999999</ele><time>2026-04-03T10:23:33.992Z</time></trkpt><trkpt lat="43.98394364560912" lon="12.403131178614439"><ele>117.0</ele><time>2026-04-03T10:23:34.992Z</time></trkpt><trkpt lat="43.98403257784626" lon="12.403056603844368"><ele>117.0</ele><time>2026-04-03T10:23:35.992Z</time></trkpt><trkpt lat="43.98410813230278" lon="12.402996050980866"><ele>117.83333333333333</ele><time>2026-04-03T10:23:36.992Z</time></trkpt><trkpt lat="43.98417191673745" lon="12.40295214740524"><ele>118.66666666666666</ele><time>2026-04-03T10:23:37.992Z</time></trkpt><trkpt lat="43.984235992115835" lon="12.402950194602582"><ele>119.5</ele><time>2026-04-03T10:23:38.992Z</time></trkpt><trkpt lat="43.98430989830597" lon="12.402933951021907"><ele>120.33333333333333</ele><time>2026-04-03T10:23:40.992Z</time></trkpt><trkpt lat="43.98426402031038" lon="12.40277116168656"><ele>121.16666666666666</ele><time>2026-04-03T10:23:42.992Z</time></trkpt><trkpt lat="43.98420013201195" lon="12.402813292544165"><ele>122.0</ele><time>2026-04-03T10:23:44.992Z</time></trkpt><trkpt lat="43.98415755128925" lon="12.40290463403249"><ele>121.0</ele><time>2026-04-03T10:23:46.992Z</time></trkpt><trkpt lat="43.9840394281951" lon="12.403017551449693"><ele>119.99999999999999</ele><time>2026-04-03T10:23:48.992Z</time></trkpt><trkpt lat="43.98396692165" lon="12.403087231302719"><ele>118.99999999999999</ele><time>2026-04-03T10:23:49.992Z</time></trkpt><trkpt lat="43.98389934056186" lon="12.403147649422142"><ele>118.0</ele><time>2026-04-03T10:23:50.992Z</time></trkpt><trkpt lat="43.98383854540145" lon="12.40318098113093"><ele>117.0</ele><time>2026-04-03T10:23:51.992Z</time></trkpt><trkpt lat="43.983738819163925" lon="12.403140729307324"><ele>117.0</ele><time>2026-04-03T10:23:53.992Z</time></trkpt><trkpt lat="43.98372719277447" lon="12.403049644060099"><ele>117.0</ele><time>2026-04-03T10:23:54.992Z</time></trkpt><trkpt lat="43.98374979246" lon="12.402956265535908"><ele>117.0</ele><time>2026-04-03T10:23:55.992Z</time></trkpt><trkpt lat="43.9838055787706" lon="12.402867560488042"><ele>117.0</ele><time>2026-04-03T10:23:56.992Z</time></trkpt><trkpt lat="43.98388370441895" lon="12.40279810100769"><ele>117.0</ele><time>2026-04-03T10:23:57.992Z</time></trkpt><trkpt lat="43.98396710639316" lon="12.402725372053592"><ele>117.0</ele><time>2026-04-03T10:23:58.992Z</time></trkpt><trkpt lat="43.98405905190239" lon="12.4026497120806"><ele>118.0</ele><time>2026-04-03T10:23:59.992Z</time></trkpt><trkpt lat="43.98415173538842" lon="12.40257238659015"><ele>118.99999999999999</ele><time>2026-04-03T10:24:00.992Z</time></trkpt><trkpt lat="43.984243461555415" lon="12.402491575696851"><ele>119.99999999999999</ele><time>2026-04-03T10:24:01.992Z</time></trkpt><trkpt lat="43.98433707770469" lon="12.402411518888119"><ele>121.0</ele><time>2026-04-03T10:24:02.992Z</time></trkpt><trkpt lat="43.984431362049705" lon="12.402327204062368"><ele>122.0</ele><time>2026-04-03T10:24:03.992Z</time></trkpt><trkpt lat="43.98451629037138" lon="12.402233508781567"><ele>122.75</ele><time>2026-04-03T10:24:04.992Z</time></trkpt><trkpt lat="43.984598227344264" lon="12.402124905526446"><ele>123.5</ele><time>2026-04-03T10:24:05.992Z</time></trkpt><trkpt lat="43.98463235104011" lon="12.40195749827868"><ele>124.25</ele><time>2026-04-03T10:24:06.992Z</time></trkpt><trkpt lat="43.98462065437438" lon="12.401779845013744"><ele>125.0</ele><time>2026-04-03T10:24:07.992Z</time></trkpt><trkpt lat="43.98457823052227" lon="12.401624888174892"><ele>125.0</ele><time>2026-04-03T10:24:08.992Z</time></trkpt><trkpt lat="43.98449819466681" lon="12.401496922983913"><ele>125.0</ele><time>2026-04-03T10:24:09.992Z</time></trkpt><trkpt lat="43.98445413919302" lon="12.40137300767821"><ele>125.0</ele><time>2026-04-03T10:24:10.992Z</time></trkpt><trkpt lat="43.98440203432667" lon="12.401249125183526"><ele>125.0</ele><time>2026-04-03T10:24:11.992Z</time></trkpt><trkpt lat="43.98433329361319" lon="12.401111686327194"><ele>125.0</ele><time>2026-04-03T10:24:12.992Z</time></trkpt><trkpt lat="43.98426011331143" lon="12.400978077919964"><ele>126.0</ele><time>2026-04-03T10:24:13.992Z</time></trkpt><trkpt lat="43.984185267067346" lon="12.400859499671444"><ele>127.0</ele><time>2026-04-03T10:24:14.992Z</time></trkpt><trkpt lat="43.98410224648201" lon="12.400769285513071"><ele>128.0</ele><time>2026-04-03T10:24:15.992Z</time></trkpt><trkpt lat="43.98404035830964" lon="12.400690426266186"><ele>129.0</ele><time>2026-04-03T10:24:16.992Z</time></trkpt><trkpt lat="43.98394615206862" lon="12.400664004349641"><ele>130.0</ele><time>2026-04-03T10:24:17.992Z</time></trkpt><trkpt lat="43.98385025167179" lon="12.400699093430722"><ele>133.0</ele><time>2026-04-03T10:24:18.992Z</time></trkpt><trkpt lat="43.98374319423403" lon="12.400760138968042"><ele>136.0</ele><time>2026-04-03T10:24:19.992Z</time></trkpt><trkpt lat="43.98363173092526" lon="12.40083686344315"><ele>139.0</ele><time>2026-04-03T10:24:20.992Z</time></trkpt><trkpt lat="43.98352002046366" lon="12.400894779990383"><ele>142.0</ele><time>2026-04-03T10:24:21.992Z</time></trkpt><trkpt lat="43.983424920298305" lon="12.400958764317076"><ele>144.6</ele><time>2026-04-03T10:24:22.992Z</time></trkpt><trkpt lat="43.98333605964369" lon="12.401000514781895"><ele>147.2</ele><time>2026-04-03T10:24:23.992Z</time></trkpt><trkpt lat="43.98325909722776" lon="12.401033797769673"><ele>149.8</ele><time>2026-04-03T10:24:24.992Z</time></trkpt><trkpt lat="43.983192272993634" lon="12.40097709555858"><ele>152.4</ele><time>2026-04-03T10:24:25.992Z</time></trkpt><trkpt lat="43.98313459311909" lon="12.400822931000432"><ele>155.0</ele><time>2026-04-03T10:24:27.992Z</time></trkpt><trkpt lat="43.983184531046895" lon="12.400733046783929"><ele>155.0</ele><time>2026-04-03T10:24:28.992Z</time></trkpt><trkpt lat="43.983231768318475" lon="12.400671687416628"><ele>155.0</ele><time>2026-04-03T10:24:29.992Z</time></trkpt><trkpt lat="43.983285727846145" lon="12.400583277127877"><ele>155.0</ele><time>2026-04-03T10:24:30.992Z</time></trkpt><trkpt lat="43.983343790640525" lon="12.400478129609526"><ele>155.0</ele><time>2026-04-03T10:24:31.992Z</time></trkpt><trkpt lat="43.983392001657" lon="12.400378430180366"><ele>155.0</ele><time>2026-04-03T10:24:32.992Z</time></trkpt><trkpt lat="43.98339946685013" lon="12.400262798313912"><ele>155.0</ele><time>2026-04-03T10:24:33.992Z</time></trkpt><trkpt lat="43.983363331697134" lon="12.40015349284382"><ele>157.6</ele><time>2026-04-03T10:24:34.992Z</time></trkpt><trkpt lat="43.9833075925496" lon="12.400084122662143"><ele>160.2</ele><time>2026-04-03T10:24:35.992Z</time></trkpt><trkpt lat="43.98322227019352" lon="12.400067623925285"><ele>162.8</ele><time>2026-04-03T10:24:36.992Z</time></trkpt><trkpt lat="43.98312372594668" lon="12.400066685070065"><ele>165.4</ele><time>2026-04-03T10:24:37.992Z</time></trkpt><trkpt lat="43.98302359651393" lon="12.40004655300105"><ele>168.0</ele><time>2026-04-03T10:24:38.992Z</time></trkpt><trkpt lat="43.9828928022811" lon="12.400022898598529"><ele>168.0</ele><time>2026-04-03T10:24:39.992Z</time></trkpt><trkpt lat="43.98278523659397" lon="12.399994642679466"><ele>168.0</ele><time>2026-04-03T10:24:40.992Z</time></trkpt><trkpt lat="43.98267562670325" lon="12.39996676073231"><ele>168.0</ele><time>2026-04-03T10:24:41.992Z</time></trkpt><trkpt lat="43.98256598657085" lon="12.399928131960998"><ele>168.0</ele><time>2026-04-03T10:24:42.992Z</time></trkpt><trkpt lat="43.982464123243254" lon="12.399856446506435"><ele>168.0</ele><time>2026-04-03T10:24:43.992Z</time></trkpt><trkpt lat="43.98236145522759" lon="12.399807511403289"><ele>169.0</ele><time>2026-04-03T10:24:44.992Z</time></trkpt><trkpt lat="43.982269156055175" lon="12.399729571942979"><ele>170.0</ele><time>2026-04-03T10:24:45.992Z</time></trkpt><trkpt lat="43.9821827292583" lon="12.399643545535634"><ele>171.0</ele><time>2026-04-03T10:24:46.992Z</time></trkpt><trkpt lat="43.98211005349922" lon="12.399556635479096"><ele>172.0</ele><time>2026-04-03T10:24:47.992Z</time></trkpt><trkpt lat="43.98206767335493" lon="12.399425988199427"><ele>173.0</ele><time>2026-04-03T10:24:48.992Z</time></trkpt><trkpt lat="43.98203272084955" lon="12.39929142990246"><ele>177.0</ele><time>2026-04-03T10:24:49.992Z</time></trkpt><trkpt lat="43.98202054278459" lon="12.399145024018523"><ele>181.0</ele><time>2026-04-03T10:24:50.992Z</time></trkpt><trkpt lat="43.98202294495272" lon="12.39898814748459"><ele>185.0</ele><time>2026-04-03T10:24:51.992Z</time></trkpt><trkpt lat="43.982036677089866" lon="12.398828404144036"><ele>189.0</ele><time>2026-04-03T10:24:52.992Z</time></trkpt><trkpt lat="43.982070363762205" lon="12.39866169342564"><ele>191.0</ele><time>2026-04-03T10:24:53.992Z</time></trkpt><trkpt lat="43.982110656245986" lon="12.398491849659433"><ele>193.0</ele><time>2026-04-03T10:24:54.992Z</time></trkpt><trkpt lat="43.9821427868066" lon="12.39832113881526"><ele>195.0</ele><time>2026-04-03T10:24:55.992Z</time></trkpt><trkpt lat="43.98216319789998" lon="12.398163610900927"><ele>197.0</ele><time>2026-04-03T10:24:56.992Z</time></trkpt><trkpt lat="43.98218236653705" lon="12.398002956377812"><ele>197.5</ele><time>2026-04-03T10:24:57.992Z</time></trkpt><trkpt lat="43.982194331185134" lon="12.397846144121145"><ele>198.0</ele><time>2026-04-03T10:24:58.992Z</time></trkpt><trkpt lat="43.982214885238356" lon="12.397685144470348"><ele>198.5</ele><time>2026-04-03T10:24:59.992Z</time></trkpt><trkpt lat="43.982227266439025" lon="12.39751392164195"><ele>199.0</ele><time>2026-04-03T10:25:00.992Z</time></trkpt><trkpt lat="43.98223970767634" lon="12.39735281995971"><ele>199.0</ele><time>2026-04-03T10:25:01.992Z</time></trkpt><trkpt lat="43.982238662480654" lon="12.39718684000733"><ele>199.0</ele><time>2026-04-03T10:25:02.992Z</time></trkpt><trkpt lat="43.98222867040028" lon="12.3970053142152"><ele>199.0</ele><time>2026-04-03T10:25:03.992Z</time></trkpt><trkpt lat="43.98221036047597" lon="12.396817776870854"><ele>199.0</ele><time>2026-04-03T10:25:04.992Z</time></trkpt><trkpt lat="43.98218630976414" lon="12.39662797871235"><ele>198.5</ele><time>2026-04-03T10:25:05.992Z</time></trkpt><trkpt lat="43.98215230714799" lon="12.396438949001505"><ele>198.0</ele><time>2026-04-03T10:25:06.992Z</time></trkpt><trkpt lat="43.98210008193874" lon="12.396265820885121"><ele>197.5</ele><time>2026-04-03T10:25:07.992Z</time></trkpt><trkpt lat="43.9820419678339" lon="12.396106453270889"><ele>197.0</ele><time>2026-04-03T10:25:08.992Z</time></trkpt><trkpt lat="43.98198177571875" lon="12.395952792867234"><ele>198.25</ele><time>2026-04-03T10:25:09.992Z</time></trkpt><trkpt lat="43.98192159426935" lon="12.39580143796287"><ele>199.5</ele><time>2026-04-03T10:25:10.992Z</time></trkpt><trkpt lat="43.981876017721675" lon="12.395647155276516"><ele>200.75</ele><time>2026-04-03T10:25:11.992Z</time></trkpt><trkpt lat="43.981853975818865" lon="12.395485869433095"><ele>202.0</ele><time>2026-04-03T10:25:12.992Z</time></trkpt><trkpt lat="43.981850818325306" lon="12.395309123970675"><ele>204.25</ele><time>2026-04-03T10:25:13.992Z</time></trkpt><trkpt lat="43.981868447114586" lon="12.395125932904483"><ele>206.5</ele><time>2026-04-03T10:25:14.991Z</time></trkpt><trkpt lat="43.98188963750241" lon="12.394936376400677"><ele>208.75</ele><time>2026-04-03T10:25:15.991Z</time></trkpt><trkpt lat="43.981936176143336" lon="12.394769860272815"><ele>211.0</ele><time>2026-04-03T10:25:16.991Z</time></trkpt><trkpt lat="43.98199261594194" lon="12.394619385534945"><ele>213.25</ele><time>2026-04-03T10:25:17.991Z</time></trkpt><trkpt lat="43.982058590794246" lon="12.39447298361287"><ele>215.5</ele><time>2026-04-03T10:25:18.991Z</time></trkpt><trkpt lat="43.982110468448994" lon="12.394312589137575"><ele>217.75</ele><time>2026-04-03T10:25:19.991Z</time></trkpt><trkpt lat="43.98215272314138" lon="12.394143215248508"><ele>220.0</ele><time>2026-04-03T10:25:20.991Z</time></trkpt><trkpt lat="43.98218058702007" lon="12.393957533851653"><ele>221.75</ele><time>2026-04-03T10:25:21.991Z</time></trkpt><trkpt lat="43.982175131821705" lon="12.39376655733108"><ele>223.5</ele><time>2026-04-03T10:25:22.991Z</time></trkpt><trkpt lat="43.9821376797741" lon="12.393581132421566"><ele>225.25</ele><time>2026-04-03T10:25:23.991Z</time></trkpt><trkpt lat="43.98208012930158" lon="12.393405214373335"><ele>227.0</ele><time>2026-04-03T10:25:24.991Z</time></trkpt><trkpt lat="43.98201514094641" lon="12.393232913157304"><ele>227.0</ele><time>2026-04-03T10:25:25.991Z</time></trkpt><trkpt lat="43.981955255131375" lon="12.393076677179211"><ele>227.0</ele><time>2026-04-03T10:25:26.991Z</time></trkpt><trkpt lat="43.98191016190956" lon="12.392916665091157"><ele>227.0</ele><time>2026-04-03T10:25:27.991Z</time></trkpt><trkpt lat="43.98187357537518" lon="12.392738066033564"><ele>227.0</ele><time>2026-04-03T10:25:28.991Z</time></trkpt><trkpt lat="43.98185538230152" lon="12.392546682255153"><ele>229.0</ele><time>2026-04-03T10:25:29.991Z</time></trkpt><trkpt lat="43.98184193097093" lon="12.392343390405033"><ele>231.0</ele><time>2026-04-03T10:25:30.991Z</time></trkpt><trkpt lat="43.98182897023079" lon="12.39213861287268"><ele>233.0</ele><time>2026-04-03T10:25:31.991Z</time></trkpt><trkpt lat="43.98181139245814" lon="12.391943748602946"><ele>235.0</ele><time>2026-04-03T10:25:32.991Z</time></trkpt><trkpt lat="43.98180913669511" lon="12.391753466927032"><ele>238.5</ele><time>2026-04-03T10:25:33.991Z</time></trkpt><trkpt lat="43.981814838393696" lon="12.391590315341428"><ele>242.0</ele><time>2026-04-03T10:25:34.991Z</time></trkpt><trkpt lat="43.981839032204725" lon="12.391431919312726"><ele>245.5</ele><time>2026-04-03T10:25:35.991Z</time></trkpt><trkpt lat="43.98190482038717" lon="12.391284858521576"><ele>249.0</ele><time>2026-04-03T10:25:36.991Z</time></trkpt><trkpt lat="43.98197687886159" lon="12.391144965032474"><ele>253.5</ele><time>2026-04-03T10:25:37.991Z</time></trkpt><trkpt lat="43.982054151742936" lon="12.391006337893648"><ele>258.0</ele><time>2026-04-03T10:25:38.991Z</time></trkpt><trkpt lat="43.982138258587675" lon="12.390861884415187"><ele>262.5</ele><time>2026-04-03T10:25:39.991Z</time></trkpt><trkpt lat="43.982229204031285" lon="12.390750910951212"><ele>267.0</ele><time>2026-04-03T10:25:40.991Z</time></trkpt><trkpt lat="43.9823253022952" lon="12.390682726550574"><ele>267.0</ele><time>2026-04-03T10:25:41.991Z</time></trkpt><trkpt lat="43.982438787042824" lon="12.390654783623418"><ele>267.0</ele><time>2026-04-03T10:25:42.991Z</time></trkpt><trkpt lat="43.98255465251003" lon="12.39064993013172"><ele>267.0</ele><time>2026-04-03T10:25:43.991Z</time></trkpt><trkpt lat="43.98268890492305" lon="12.3906414140276"><ele>267.0</ele><time>2026-04-03T10:25:44.991Z</time></trkpt><trkpt lat="43.98282296466609" lon="12.390621711914552"><ele>266.8333333333333</ele><time>2026-04-03T10:25:45.991Z</time></trkpt><trkpt lat="43.982917162997296" lon="12.39057082159428"><ele>266.6666666666667</ele><time>2026-04-03T10:25:46.983Z</time></trkpt><trkpt lat="43.98298872872032" lon="12.39054147424121"><ele>266.5</ele><time>2026-04-03T10:25:47.983Z</time></trkpt><trkpt lat="43.98301169885769" lon="12.390434842675209"><ele>266.33333333333337</ele><time>2026-04-03T10:25:48.983Z</time></trkpt><trkpt lat="43.98300446069722" lon="12.390334840981119"><ele>266.1666666666667</ele><time>2026-04-03T10:25:49.983Z</time></trkpt><trkpt lat="43.98297095697583" lon="12.390217844792161"><ele>266.0</ele><time>2026-04-03T10:25:50.983Z</time></trkpt><trkpt lat="43.98292007247043" lon="12.390097643812814"><ele>269.40000000000003</ele><time>2026-04-03T10:25:51.983Z</time></trkpt><trkpt lat="43.98288273017762" lon="12.389971331170422"><ele>272.8</ele><time>2026-04-03T10:25:52.983Z</time></trkpt><trkpt lat="43.982875715085186" lon="12.389859597074766"><ele>276.20000000000005</ele><time>2026-04-03T10:25:53.983Z</time></trkpt><trkpt lat="43.982903530013935" lon="12.389768903250571"><ele>279.6</ele><time>2026-04-03T10:25:54.983Z</time></trkpt><trkpt lat="43.98297595477915" lon="12.389688579148752"><ele>283.0</ele><time>2026-04-03T10:25:55.983Z</time></trkpt><trkpt lat="43.98309478502711" lon="12.38968099372457"><ele>286.8</ele><time>2026-04-03T10:25:56.983Z</time></trkpt><trkpt lat="43.98317359060822" lon="12.389593569147394"><ele>290.6</ele><time>2026-04-03T10:25:57.983Z</time></trkpt><trkpt lat="43.98325323761418" lon="12.389517495587823"><ele>294.4</ele><time>2026-04-03T10:25:58.983Z</time></trkpt><trkpt lat="43.98329444893166" lon="12.389406999149797"><ele>298.2</ele><time>2026-04-03T10:25:59.983Z</time></trkpt><trkpt lat="43.98330495657462" lon="12.389284022379435"><ele>302.0</ele><time>2026-04-03T10:26:00.983Z</time></trkpt><trkpt lat="43.983234866857856" lon="12.389159021579276"><ele>302.0</ele><time>2026-04-03T10:26:01.983Z</time></trkpt><trkpt lat="43.98315325770564" lon="12.38903111588455"><ele>302.0</ele><time>2026-04-03T10:26:02.983Z</time></trkpt><trkpt lat="43.983072357920506" lon="12.388893221781935"><ele>302.0</ele><time>2026-04-03T10:26:03.983Z</time></trkpt><trkpt lat="43.983004144568405" lon="12.388747822992443"><ele>302.0</ele><time>2026-04-03T10:26:04.983Z</time></trkpt><trkpt lat="43.9829641942065" lon="12.388580908164403"><ele>303.8</ele><time>2026-04-03T10:26:05.983Z</time></trkpt><trkpt lat="43.98294148945723" lon="12.388422177405559"><ele>305.6</ele><time>2026-04-03T10:26:06.983Z</time></trkpt><trkpt lat="43.9829619271122" lon="12.388264069822089"><ele>307.40000000000003</ele><time>2026-04-03T10:26:07.983Z</time></trkpt><trkpt lat="43.982973452537685" lon="12.388132642190042"><ele>309.2</ele><time>2026-04-03T10:26:08.983Z</time></trkpt><trkpt lat="43.98304654637886" lon="12.388041314401226"><ele>311.0</ele><time>2026-04-03T10:26:09.983Z</time></trkpt><trkpt lat="43.983126690313824" lon="12.387970951469221"><ele>311.8</ele><time>2026-04-03T10:26:10.983Z</time></trkpt><trkpt lat="43.98321146642905" lon="12.38788919462691"><ele>312.6</ele><time>2026-04-03T10:26:11.983Z</time></trkpt><trkpt lat="43.983284666163065" lon="12.387789547350549"><ele>313.4</ele><time>2026-04-03T10:26:12.983Z</time></trkpt><trkpt lat="43.983341440565646" lon="12.387666909531816"><ele>314.2</ele><time>2026-04-03T10:26:13.983Z</time></trkpt><trkpt lat="43.98336161488877" lon="12.387513029463864"><ele>315.0</ele><time>2026-04-03T10:26:14.983Z</time></trkpt><trkpt lat="43.98339754718343" lon="12.387391773845275"><ele>315.0</ele><time>2026-04-03T10:26:15.983Z</time></trkpt><trkpt lat="43.98343321666744" lon="12.387271167349338"><ele>315.0</ele><time>2026-04-03T10:26:16.983Z</time></trkpt><trkpt lat="43.98349052786206" lon="12.38716644783974"><ele>315.0</ele><time>2026-04-03T10:26:17.983Z</time></trkpt><trkpt lat="43.983597245788005" lon="12.387119947343741"><ele>315.0</ele><time>2026-04-03T10:26:18.983Z</time></trkpt><trkpt lat="43.98370158886231" lon="12.38703525580011"><ele>315.0</ele><time>2026-04-03T10:26:19.983Z</time></trkpt><trkpt lat="43.98381078199012" lon="12.386946037428984"><ele>316.5</ele><time>2026-04-03T10:26:20.983Z</time></trkpt><trkpt lat="43.98392337660666" lon="12.386856501942258"><ele>318.0</ele><time>2026-04-03T10:26:21.983Z</time></trkpt><trkpt lat="43.984040027186225" lon="12.386750614953229"><ele>319.5</ele><time>2026-04-03T10:26:22.983Z</time></trkpt><trkpt lat="43.984154181403035" lon="12.386647520073009"><ele>321.0</ele><time>2026-04-03T10:26:23.983Z</time></trkpt><trkpt lat="43.984265123876526" lon="12.386550919160007"><ele>321.0</ele><time>2026-04-03T10:26:24.983Z</time></trkpt><trkpt lat="43.98437429596223" lon="12.386454029165161"><ele>321.0</ele><time>2026-04-03T10:26:25.983Z</time></trkpt><trkpt lat="43.984476586623344" lon="12.386364510316874"><ele>321.0</ele><time>2026-04-03T10:26:26.983Z</time></trkpt><trkpt lat="43.984576539485005" lon="12.386310885863463"><ele>321.0</ele><time>2026-04-03T10:26:27.983Z</time></trkpt><trkpt lat="43.98465126836778" lon="12.38622127648547"><ele>323.20000000000005</ele><time>2026-04-03T10:26:28.983Z</time></trkpt><trkpt lat="43.984730016285404" lon="12.386156393565606"><ele>325.40000000000003</ele><time>2026-04-03T10:26:29.983Z</time></trkpt><trkpt lat="43.984800422790045" lon="12.38608920216083"><ele>327.6</ele><time>2026-04-03T10:26:30.983Z</time></trkpt><trkpt lat="43.98487026323131" lon="12.385997821850355"><ele>329.8</ele><time>2026-04-03T10:26:31.983Z</time></trkpt><trkpt lat="43.98493956934598" lon="12.385903668516146"><ele>332.0</ele><time>2026-04-03T10:26:32.983Z</time></trkpt><trkpt lat="43.98499185539052" lon="12.385809510066094"><ele>330.8</ele><time>2026-04-03T10:26:33.98Z</time></trkpt><trkpt lat="43.985048271304834" lon="12.385730475909769"><ele>329.6</ele><time>2026-04-03T10:26:34.98Z</time></trkpt><trkpt lat="43.98511649909685" lon="12.385633867805508"><ele>328.40000000000003</ele><time>2026-04-03T10:26:36.98Z</time></trkpt><trkpt lat="43.985220847296816" lon="12.385639513753123"><ele>327.20000000000005</ele><time>2026-04-03T10:26:38.98Z</time></trkpt><trkpt lat="43.98535383011625" lon="12.385558396592009"><ele>326.0</ele><time>2026-04-03T10:26:40.98Z</time></trkpt><trkpt lat="43.9854485236751" lon="12.385500410805706"><ele>326.6666666666667</ele><time>2026-04-03T10:26:41.98Z</time></trkpt><trkpt lat="43.985534482707656" lon="12.385465746604988"><ele>327.33333333333337</ele><time>2026-04-03T10:26:42.98Z</time></trkpt><trkpt lat="43.98560260149951" lon="12.385440506397833"><ele>328.0</ele><time>2026-04-03T10:26:43.98Z</time></trkpt><trkpt lat="43.985663268533145" lon="12.38540356217962"><ele>328.6666666666667</ele><time>2026-04-03T10:26:44.98Z</time></trkpt><trkpt lat="43.98573892460268" lon="12.385352818359936"><ele>329.3333333333333</ele><time>2026-04-03T10:26:45.979Z</time></trkpt><trkpt lat="43.98582724027556" lon="12.385299151183766"><ele>330.0</ele><time>2026-04-03T10:26:46.98Z</time></trkpt><trkpt lat="43.985933453365" lon="12.385249071334144"><ele>330.0</ele><time>2026-04-03T10:26:47.98Z</time></trkpt><trkpt lat="43.986038786489324" lon="12.385192053989776"><ele>330.0</ele><time>2026-04-03T10:26:48.98Z</time></trkpt><trkpt lat="43.986149041751176" lon="12.385130242475098"><ele>330.0</ele><time>2026-04-03T10:26:49.98Z</time></trkpt><trkpt lat="43.98625137851168" lon="12.385059322743675"><ele>330.0</ele><time>2026-04-03T10:26:50.98Z</time></trkpt><trkpt lat="43.986337816815706" lon="12.384991468224507"><ele>330.0</ele><time>2026-04-03T10:26:51.98Z</time></trkpt><trkpt lat="43.98642618327458" lon="12.384918265980657"><ele>330.0</ele><time>2026-04-03T10:26:52.98Z</time></trkpt><trkpt lat="43.986509282340236" lon="12.38482748252156"><ele>330.0</ele><time>2026-04-03T10:26:53.98Z</time></trkpt><trkpt lat="43.986578333779654" lon="12.384721973883137"><ele>330.0</ele><time>2026-04-03T10:26:54.98Z</time></trkpt><trkpt lat="43.986654666422496" lon="12.384652301054208"><ele>330.0</ele><time>2026-04-03T10:26:55.98Z</time></trkpt><trkpt lat="43.986728657830504" lon="12.384564850415273"><ele>330.0</ele><time>2026-04-03T10:26:56.98Z</time></trkpt><trkpt lat="43.98681201850215" lon="12.384485239196126"><ele>331.2</ele><time>2026-04-03T10:26:57.98Z</time></trkpt><trkpt lat="43.98689320899778" lon="12.384398780522368"><ele>332.4</ele><time>2026-04-03T10:26:58.98Z</time></trkpt><trkpt lat="43.986989778527146" lon="12.384332048979475"><ele>333.6</ele><time>2026-04-03T10:26:59.98Z</time></trkpt><trkpt lat="43.9870975476836" lon="12.384280960102256"><ele>334.8</ele><time>2026-04-03T10:27:00.979Z</time></trkpt><trkpt lat="43.98720353827601" lon="12.384243507016986"><ele>336.0</ele><time>2026-04-03T10:27:01.979Z</time></trkpt><trkpt lat="43.987306018333484" lon="12.384220435679097"><ele>336.0</ele><time>2026-04-03T10:27:02.979Z</time></trkpt><trkpt lat="43.98741658046386" lon="12.384249447740071"><ele>336.0</ele><time>2026-04-03T10:27:03.979Z</time></trkpt><trkpt lat="43.987532880406405" lon="12.384274122465566"><ele>336.0</ele><time>2026-04-03T10:27:04.979Z</time></trkpt><trkpt lat="43.9876522884734" lon="12.384311371346834"><ele>336.0</ele><time>2026-04-03T10:27:05.979Z</time></trkpt><trkpt lat="43.98777465603404" lon="12.38435387121359"><ele>333.0</ele><time>2026-04-03T10:27:06.979Z</time></trkpt><trkpt lat="43.987893087805304" lon="12.384373424361828"><ele>330.0</ele><time>2026-04-03T10:27:07.979Z</time></trkpt><trkpt lat="43.988014958847366" lon="12.384444283901392"><ele>327.0</ele><time>2026-04-03T10:27:08.979Z</time></trkpt><trkpt lat="43.988132833380405" lon="12.384505155625387"><ele>324.0</ele><time>2026-04-03T10:27:09.979Z</time></trkpt><trkpt lat="43.98825027645176" lon="12.38457548739598"><ele>321.75</ele><time>2026-04-03T10:27:10.979Z</time></trkpt><trkpt lat="43.988357963242116" lon="12.384654833998269"><ele>319.5</ele><time>2026-04-03T10:27:11.979Z</time></trkpt><trkpt lat="43.98845670106719" lon="12.384743544177363"><ele>317.25</ele><time>2026-04-03T10:27:12.979Z</time></trkpt><trkpt lat="43.988557903095604" lon="12.384835792257125"><ele>315.0</ele><time>2026-04-03T10:27:13.979Z</time></trkpt><trkpt lat="43.98864692990131" lon="12.384930692296473"><ele>315.0</ele><time>2026-04-03T10:27:14.979Z</time></trkpt><trkpt lat="43.98872320646807" lon="12.385045931554371"><ele>315.0</ele><time>2026-04-03T10:27:15.979Z</time></trkpt><trkpt lat="43.988793337253355" lon="12.385197966952187"><ele>315.0</ele><time>2026-04-03T10:27:16.979Z</time></trkpt><trkpt lat="43.9888521675363" lon="12.385358120949741"><ele>315.0</ele><time>2026-04-03T10:27:17.979Z</time></trkpt><trkpt lat="43.988899338667245" lon="12.385536789704087"><ele>314.25</ele><time>2026-04-03T10:27:18.979Z</time></trkpt><trkpt lat="43.988965627450604" lon="12.385704263511093"><ele>313.5</ele><time>2026-04-03T10:27:19.979Z</time></trkpt><trkpt lat="43.98905928031509" lon="12.385834495697832"><ele>312.75</ele><time>2026-04-03T10:27:20.979Z</time></trkpt><trkpt lat="43.989145295393136" lon="12.38595685628816"><ele>312.0</ele><time>2026-04-03T10:27:21.979Z</time></trkpt><trkpt lat="43.98924312614091" lon="12.386061503803612"><ele>309.0</ele><time>2026-04-03T10:27:22.979Z</time></trkpt><trkpt lat="43.989349201045286" lon="12.38615237083413"><ele>306.0</ele><time>2026-04-03T10:27:23.979Z</time></trkpt><trkpt lat="43.98947005152897" lon="12.386205633636932"><ele>303.0</ele><time>2026-04-03T10:27:24.979Z</time></trkpt><trkpt lat="43.98958441060019" lon="12.386253378383412"><ele>300.0</ele><time>2026-04-03T10:27:25.979Z</time></trkpt><trkpt lat="43.989690696283894" lon="12.386291210026593"><ele>300.0</ele><time>2026-04-03T10:27:26.979Z</time></trkpt><trkpt lat="43.98979220727534" lon="12.386340589374667"><ele>300.0</ele><time>2026-04-03T10:27:27.979Z</time></trkpt><trkpt lat="43.98990302770658" lon="12.386384968228747"><ele>300.0</ele><time>2026-04-03T10:27:28.979Z</time></trkpt><trkpt lat="43.990017287078004" lon="12.386431540467106"><ele>300.0</ele><time>2026-04-03T10:27:29.979Z</time></trkpt><trkpt lat="43.9901312926815" lon="12.386472945229109"><ele>298.0</ele><time>2026-04-03T10:27:30.979Z</time></trkpt><trkpt lat="43.990246779978214" lon="12.386500686468018"><ele>296.0</ele><time>2026-04-03T10:27:31.979Z</time></trkpt><trkpt lat="43.990341334596536" lon="12.386534994281739"><ele>294.0</ele><time>2026-04-03T10:27:32.979Z</time></trkpt><trkpt lat="43.99041174629089" lon="12.386560684507627"><ele>292.0</ele><time>2026-04-03T10:27:33.979Z</time></trkpt><trkpt lat="43.99051293033671" lon="12.386607155772934"><ele>290.0</ele><time>2026-04-03T10:27:35.979Z</time></trkpt><trkpt lat="43.99056927093806" lon="12.386448680664682"><ele>290.0</ele><time>2026-04-03T10:27:37.979Z</time></trkpt><trkpt lat="43.990550553160524" lon="12.386257065243493"><ele>290.0</ele><time>2026-04-03T10:27:39.979Z</time></trkpt><trkpt lat="43.99052174542679" lon="12.386136972620532"><ele>290.0</ele><time>2026-04-03T10:27:40.979Z</time></trkpt><trkpt lat="43.99050014629459" lon="12.386003179298642"><ele>290.0</ele><time>2026-04-03T10:27:41.979Z</time></trkpt><trkpt lat="43.990470307828424" lon="12.385847053020342"><ele>290.0</ele><time>2026-04-03T10:27:42.979Z</time></trkpt><trkpt lat="43.99043717508799" lon="12.385661242677696"><ele>288.0</ele><time>2026-04-03T10:27:43.979Z</time></trkpt><trkpt lat="43.99040332411457" lon="12.385491610279296"><ele>286.0</ele><time>2026-04-03T10:27:44.979Z</time></trkpt><trkpt lat="43.990372940266695" lon="12.385328362362301"><ele>284.0</ele><time>2026-04-03T10:27:45.979Z</time></trkpt><trkpt lat="43.9903437087124" lon="12.385166710910715"><ele>282.0</ele><time>2026-04-03T10:27:46.979Z</time></trkpt><trkpt lat="43.990314971119695" lon="12.38500102247539"><ele>282.0</ele><time>2026-04-03T10:27:47.979Z</time></trkpt><trkpt lat="43.99028256467666" lon="12.38485512141504"><ele>282.0</ele><time>2026-04-03T10:27:48.979Z</time></trkpt><trkpt lat="43.99024949265912" lon="12.384727234251066"><ele>282.0</ele><time>2026-04-03T10:27:49.979Z</time></trkpt><trkpt lat="43.99020861066746" lon="12.384620736904521"><ele>282.0</ele><time>2026-04-03T10:27:50.979Z</time></trkpt><trkpt lat="43.990180615316355" lon="12.38453360635721"><ele>282.0</ele><time>2026-04-03T10:27:51.979Z</time></trkpt><trkpt lat="43.99019530817564" lon="12.38434654924103"><ele>281.2</ele><time>2026-04-03T10:27:53.979Z</time></trkpt><trkpt lat="43.99024614438193" lon="12.384258913717185"><ele>280.4</ele><time>2026-04-03T10:27:54.979Z</time></trkpt><trkpt lat="43.9903207040333" lon="12.384191553275587"><ele>279.6</ele><time>2026-04-03T10:27:55.979Z</time></trkpt><trkpt lat="43.990414804237" lon="12.38413575541063"><ele>278.8</ele><time>2026-04-03T10:27:56.979Z</time></trkpt><trkpt lat="43.990521378373856" lon="12.384078184606887"><ele>278.0</ele><time>2026-04-03T10:27:57.979Z</time></trkpt><trkpt lat="43.990635835803346" lon="12.384012649314593"><ele>278.0</ele><time>2026-04-03T10:27:58.979Z</time></trkpt><trkpt lat="43.990748710283704" lon="12.383948538211328"><ele>278.0</ele><time>2026-04-03T10:27:59.979Z</time></trkpt><trkpt lat="43.99085620321216" lon="12.383892731886029"><ele>278.0</ele><time>2026-04-03T10:28:00.979Z</time></trkpt><trkpt lat="43.99095568242959" lon="12.383821862181792"><ele>278.0</ele><time>2026-04-03T10:28:01.979Z</time></trkpt><trkpt lat="43.991042987069974" lon="12.383739861598977"><ele>275.4</ele><time>2026-04-03T10:28:02.979Z</time></trkpt><trkpt lat="43.99111483240393" lon="12.383643893501882"><ele>272.8</ele><time>2026-04-03T10:28:03.979Z</time></trkpt><trkpt lat="43.99118960040367" lon="12.383535062034186"><ele>270.2</ele><time>2026-04-03T10:28:04.979Z</time></trkpt><trkpt lat="43.99126755835436" lon="12.383436368516534"><ele>267.6</ele><time>2026-04-03T10:28:05.979Z</time></trkpt><trkpt lat="43.99133614974046" lon="12.38332250020282"><ele>265.0</ele><time>2026-04-03T10:28:06.979Z</time></trkpt><trkpt lat="43.99139895951351" lon="12.383210946478497"><ele>265.0</ele><time>2026-04-03T10:28:07.979Z</time></trkpt><trkpt lat="43.99146142041812" lon="12.383096834038888"><ele>265.0</ele><time>2026-04-03T10:28:08.979Z</time></trkpt><trkpt lat="43.99152522102509" lon="12.382985514639902"><ele>265.0</ele><time>2026-04-03T10:28:09.979Z</time></trkpt><trkpt lat="43.991595502299646" lon="12.38288508672612"><ele>265.0</ele><time>2026-04-03T10:28:10.979Z</time></trkpt><trkpt lat="43.991668633452605" lon="12.382789186983697"><ele>265.0</ele><time>2026-04-03T10:28:11.979Z</time></trkpt><trkpt lat="43.99174454965921" lon="12.382705583004144"><ele>262.66666666666663</ele><time>2026-04-03T10:28:12.979Z</time></trkpt><trkpt lat="43.99181931868524" lon="12.382637454718568"><ele>260.3333333333333</ele><time>2026-04-03T10:28:13.979Z</time></trkpt><trkpt lat="43.991889773583885" lon="12.382583738088657"><ele>258.0</ele><time>2026-04-03T10:28:14.979Z</time></trkpt><trkpt lat="43.99195811836317" lon="12.382527689532399"><ele>255.66666666666669</ele><time>2026-04-03T10:28:15.979Z</time></trkpt><trkpt lat="43.99204892634103" lon="12.38241606392346"><ele>253.33333333333334</ele><time>2026-04-03T10:28:17.979Z</time></trkpt><trkpt lat="43.992061386128235" lon="12.382326183128724"><ele>251.0</ele><time>2026-04-03T10:28:18.979Z</time></trkpt><trkpt lat="43.99203073869187" lon="12.382246155115734"><ele>250.8</ele><time>2026-04-03T10:28:19.979Z</time></trkpt><trkpt lat="43.99196949883231" lon="12.38215216194869"><ele>250.60000000000002</ele><time>2026-04-03T10:28:20.979Z</time></trkpt><trkpt lat="43.99189380306793" lon="12.382063482760975"><ele>250.4</ele><time>2026-04-03T10:28:21.979Z</time></trkpt><trkpt lat="43.99180744650787" lon="12.38196435396541"><ele>250.2</ele><time>2026-04-03T10:28:22.979Z</time></trkpt><trkpt lat="43.991722551461024" lon="12.381859188186843"><ele>250.0</ele><time>2026-04-03T10:28:23.979Z</time></trkpt><trkpt lat="43.991636885109244" lon="12.38175506171468"><ele>250.0</ele><time>2026-04-03T10:28:24.979Z</time></trkpt><trkpt lat="43.99155472308923" lon="12.38164906866828"><ele>250.0</ele><time>2026-04-03T10:28:25.979Z</time></trkpt><trkpt lat="43.99147355932982" lon="12.381532031006355"><ele>250.0</ele><time>2026-04-03T10:28:26.979Z</time></trkpt><trkpt lat="43.991390668480754" lon="12.381417258033958"><ele>250.0</ele><time>2026-04-03T10:28:27.979Z</time></trkpt><trkpt lat="43.99131501934194" lon="12.381295166499234"><ele>247.25</ele><time>2026-04-03T10:28:28.979Z</time></trkpt><trkpt lat="43.99123845935764" lon="12.381171249857115"><ele>244.5</ele><time>2026-04-03T10:28:29.979Z</time></trkpt><trkpt lat="43.99115094722416" lon="12.381049616945589"><ele>241.75</ele><time>2026-04-03T10:28:30.979Z</time></trkpt><trkpt lat="43.99106962860759" lon="12.380925780700279"><ele>239.0</ele><time>2026-04-03T10:28:31.979Z</time></trkpt><trkpt lat="43.99100553110806" lon="12.380805339007894"><ele>239.0</ele><time>2026-04-03T10:28:32.979Z</time></trkpt><trkpt lat="43.99093361525504" lon="12.38071445070129"><ele>238.99999999999997</ele><time>2026-04-03T10:28:33.979Z</time></trkpt><trkpt lat="43.99086749739163" lon="12.38061633826944"><ele>238.99999999999997</ele><time>2026-04-03T10:28:34.979Z</time></trkpt><trkpt lat="43.9908062916797" lon="12.380513068913725"><ele>239.0</ele><time>2026-04-03T10:28:35.979Z</time></trkpt><trkpt lat="43.99077887698464" lon="12.38039081618124"><ele>239.0</ele><time>2026-04-03T10:28:36.979Z</time></trkpt><trkpt lat="43.99077566720171" lon="12.380258486513489"><ele>238.50000000000003</ele><time>2026-04-03T10:28:37.979Z</time></trkpt><trkpt lat="43.99078144671417" lon="12.380128656992495"><ele>238.0</ele><time>2026-04-03T10:28:38.979Z</time></trkpt><trkpt lat="43.99078685795443" lon="12.38000424447114"><ele>237.5</ele><time>2026-04-03T10:28:39.976Z</time></trkpt><trkpt lat="43.99078831389307" lon="12.379877465303583"><ele>237.0</ele><time>2026-04-03T10:28:40.976Z</time></trkpt><trkpt lat="43.99077362894767" lon="12.379754347285543"><ele>236.50000000000003</ele><time>2026-04-03T10:28:41.976Z</time></trkpt><trkpt lat="43.99074834087544" lon="12.379646464628351"><ele>236.0</ele><time>2026-04-03T10:28:42.976Z</time></trkpt><trkpt lat="43.99071996435476" lon="12.379552313788885"><ele>236.0</ele><time>2026-04-03T10:28:43.975Z</time></trkpt><trkpt lat="43.99068917458884" lon="12.379473033026395"><ele>236.00000000000003</ele><time>2026-04-03T10:28:44.975Z</time></trkpt><trkpt lat="43.990651664645405" lon="12.379350825129952"><ele>236.00000000000003</ele><time>2026-04-03T10:28:46.976Z</time></trkpt><trkpt lat="43.99070643191887" lon="12.379233496795633"><ele>236.0</ele><time>2026-04-03T10:28:48.976Z</time></trkpt><trkpt lat="43.990826291943684" lon="12.379293406329332"><ele>236.0</ele><time>2026-04-03T10:28:50.976Z</time></trkpt><trkpt lat="43.990892602498235" lon="12.37934243539301"><ele>234.00000000000003</ele><time>2026-04-03T10:28:51.976Z</time></trkpt><trkpt lat="43.99095962405529" lon="12.37938126601813"><ele>232.0</ele><time>2026-04-03T10:28:52.976Z</time></trkpt><trkpt lat="43.99103038321016" lon="12.3794213650798"><ele>230.0</ele><time>2026-04-03T10:28:53.976Z</time></trkpt><trkpt lat="43.99109970445929" lon="12.379431630821202"><ele>228.0</ele><time>2026-04-03T10:28:54.976Z</time></trkpt><trkpt lat="43.99117850050565" lon="12.379413431385307"><ele>226.00000000000003</ele><time>2026-04-03T10:28:55.976Z</time></trkpt><trkpt lat="43.991243589956774" lon="12.379323154465375"><ele>224.0</ele><time>2026-04-03T10:28:56.976Z</time></trkpt><trkpt lat="43.991280349214016" lon="12.379211726440282"><ele>224.00000000000003</ele><time>2026-04-03T10:28:57.976Z</time></trkpt><trkpt lat="43.991299434173165" lon="12.379097847037213"><ele>224.0</ele><time>2026-04-03T10:28:58.976Z</time></trkpt><trkpt lat="43.99129490259156" lon="12.378955765985664"><ele>224.0</ele><time>2026-04-03T10:28:59.976Z</time></trkpt><trkpt lat="43.99127769784551" lon="12.378832859840948"><ele>224.0</ele><time>2026-04-03T10:29:00.976Z</time></trkpt><trkpt lat="43.99126014624535" lon="12.378729973505791"><ele>224.00000000000003</ele><time>2026-04-03T10:29:01.976Z</time></trkpt><trkpt lat="43.99125041597928" lon="12.378640127146902"><ele>224.0</ele><time>2026-04-03T10:29:02.976Z</time></trkpt><trkpt lat="43.99127325675515" lon="12.378469147623743"><ele>222.50000000000003</ele><time>2026-04-03T10:29:04.976Z</time></trkpt><trkpt lat="43.99131387759115" lon="12.37840132787993"><ele>221.0</ele><time>2026-04-03T10:29:05.976Z</time></trkpt><trkpt lat="43.99141887130981" lon="12.378327056508592"><ele>219.5</ele><time>2026-04-03T10:29:07.976Z</time></trkpt><trkpt lat="43.99149403394462" lon="12.378346545186911"><ele>218.0</ele><time>2026-04-03T10:29:08.976Z</time></trkpt><trkpt lat="43.991566053791026" lon="12.378387480215714"><ele>216.50000000000003</ele><time>2026-04-03T10:29:09.976Z</time></trkpt><trkpt lat="43.991644472396764" lon="12.378406227671155"><ele>215.0</ele><time>2026-04-03T10:29:10.976Z</time></trkpt><trkpt lat="43.99172579697335" lon="12.378426652790829"><ele>212.2</ele><time>2026-04-03T10:29:11.976Z</time></trkpt><trkpt lat="43.991812560909665" lon="12.378371985840543"><ele>209.4</ele><time>2026-04-03T10:29:12.976Z</time></trkpt><trkpt lat="43.99187855525387" lon="12.378258070189911"><ele>206.60000000000002</ele><time>2026-04-03T10:29:13.976Z</time></trkpt><trkpt lat="43.99192759989769" lon="12.378135409416943"><ele>203.8</ele><time>2026-04-03T10:29:14.976Z</time></trkpt><trkpt lat="43.991973371037325" lon="12.378010389121748"><ele>201.0</ele><time>2026-04-03T10:29:15.976Z</time></trkpt><trkpt lat="43.99201148772077" lon="12.377871229000979"><ele>199.8</ele><time>2026-04-03T10:29:16.976Z</time></trkpt><trkpt lat="43.99202607740315" lon="12.37772091649401"><ele>198.60000000000002</ele><time>2026-04-03T10:29:17.976Z</time></trkpt><trkpt lat="43.99201914086034" lon="12.377576474035246"><ele>197.4</ele><time>2026-04-03T10:29:18.976Z</time></trkpt><trkpt lat="43.9919963470301" lon="12.377438506828252"><ele>196.2</ele><time>2026-04-03T10:29:19.976Z</time></trkpt><trkpt lat="43.991947599812065" lon="12.377320887671987"><ele>195.0</ele><time>2026-04-03T10:29:20.976Z</time></trkpt><trkpt lat="43.99188334381798" lon="12.377254566994717"><ele>195.0</ele><time>2026-04-03T10:29:21.976Z</time></trkpt><trkpt lat="43.9918276904806" lon="12.377187281950276"><ele>195.0</ele><time>2026-04-03T10:29:22.976Z</time></trkpt><trkpt lat="43.99175534532636" lon="12.377156954921464"><ele>195.0</ele><time>2026-04-03T10:29:23.976Z</time></trkpt><trkpt lat="43.99167268154018" lon="12.377153224825141"><ele>195.0</ele><time>2026-04-03T10:29:24.976Z</time></trkpt><trkpt lat="43.99159490010259" lon="12.377146960455198"><ele>195.0</ele><time>2026-04-03T10:29:25.976Z</time></trkpt><trkpt lat="43.99151334564288" lon="12.377117014587547"><ele>195.0</ele><time>2026-04-03T10:29:26.976Z</time></trkpt><trkpt lat="43.99142993064946" lon="12.377067410783333"><ele>194.4</ele><time>2026-04-03T10:29:27.976Z</time></trkpt><trkpt lat="43.991373300212935" lon="12.3769560802449"><ele>193.8</ele><time>2026-04-03T10:29:28.976Z</time></trkpt><trkpt lat="43.99131155169159" lon="12.376833615409303"><ele>193.2</ele><time>2026-04-03T10:29:29.976Z</time></trkpt><trkpt lat="43.991257122058116" lon="12.376707891778752"><ele>192.6</ele><time>2026-04-03T10:29:30.976Z</time></trkpt><trkpt lat="43.99120887764715" lon="12.376579850172792"><ele>192.0</ele><time>2026-04-03T10:29:31.976Z</time></trkpt><trkpt lat="43.991162058246594" lon="12.376456988607714"><ele>191.0</ele><time>2026-04-03T10:29:32.976Z</time></trkpt><trkpt lat="43.99111751478901" lon="12.376338815752794"><ele>190.0</ele><time>2026-04-03T10:29:33.976Z</time></trkpt><trkpt lat="43.99106607317046" lon="12.37621838695633"><ele>189.0</ele><time>2026-04-03T10:29:34.976Z</time></trkpt><trkpt lat="43.99099880834194" lon="12.376095126853519"><ele>188.0</ele><time>2026-04-03T10:29:35.976Z</time></trkpt><trkpt lat="43.99091584423176" lon="12.375963117419158"><ele>187.0</ele><time>2026-04-03T10:29:36.976Z</time></trkpt><trkpt lat="43.990831554145544" lon="12.375868484895753"><ele>187.0</ele><time>2026-04-03T10:29:37.975Z</time></trkpt><trkpt lat="43.99076484143487" lon="12.375754937580467"><ele>187.0</ele><time>2026-04-03T10:29:38.975Z</time></trkpt><trkpt lat="43.990697890933966" lon="12.375659058292127"><ele>187.0</ele><time>2026-04-03T10:29:39.975Z</time></trkpt><trkpt lat="43.990631786262796" lon="12.375573176013425"><ele>187.0</ele><time>2026-04-03T10:29:40.975Z</time></trkpt><trkpt lat="43.99056574377482" lon="12.37548740162313"><ele>187.0</ele><time>2026-04-03T10:29:41.975Z</time></trkpt><trkpt lat="43.99049858807167" lon="12.37540080846384"><ele>184.2</ele><time>2026-04-03T10:29:42.975Z</time></trkpt><trkpt lat="43.990437051607174" lon="12.375313734560917"><ele>181.39999999999998</ele><time>2026-04-03T10:29:43.975Z</time></trkpt><trkpt lat="43.9903904837944" lon="12.375221205585643"><ele>178.60000000000002</ele><time>2026-04-03T10:29:44.975Z</time></trkpt><trkpt lat="43.990367325081216" lon="12.375137837744958"><ele>175.8</ele><time>2026-04-03T10:29:45.975Z</time></trkpt><trkpt lat="43.99041372310684" lon="12.375014610062665"><ele>173.0</ele><time>2026-04-03T10:29:47.975Z</time></trkpt><trkpt lat="43.990532154278604" lon="12.375029605560389"><ele>173.0</ele><time>2026-04-03T10:29:49.975Z</time></trkpt><trkpt lat="43.99059563047453" lon="12.37507792567301"><ele>173.0</ele><time>2026-04-03T10:29:50.975Z</time></trkpt><trkpt lat="43.990671409390096" lon="12.37512585103753"><ele>173.0</ele><time>2026-04-03T10:29:51.975Z</time></trkpt><trkpt lat="43.9907500082783" lon="12.375163420752132"><ele>173.0</ele><time>2026-04-03T10:29:52.975Z</time></trkpt><trkpt lat="43.990827725101816" lon="12.375180356225576"><ele>173.0</ele><time>2026-04-03T10:29:53.975Z</time></trkpt><trkpt lat="43.990903519563545" lon="12.375204195928715"><ele>173.0</ele><time>2026-04-03T10:29:54.975Z</time></trkpt><trkpt lat="43.99098767191122" lon="12.375151380100291"><ele>172.2</ele><time>2026-04-03T10:29:55.975Z</time></trkpt><trkpt lat="43.991072702457224" lon="12.3750881700275"><ele>171.4</ele><time>2026-04-03T10:29:56.975Z</time></trkpt><trkpt lat="43.991155084304744" lon="12.375023436109563"><ele>170.6</ele><time>2026-04-03T10:29:57.975Z</time></trkpt><trkpt lat="43.99122350877369" lon="12.374927928641181"><ele>169.79999999999998</ele><time>2026-04-03T10:29:58.975Z</time></trkpt><trkpt lat="43.99128107868819" lon="12.374817113695862"><ele>169.0</ele><time>2026-04-03T10:29:59.975Z</time></trkpt><trkpt lat="43.99131877978807" lon="12.374687929551131"><ele>166.39999999999998</ele><time>2026-04-03T10:30:00.975Z</time></trkpt><trkpt lat="43.99137139032328" lon="12.374580732805041"><ele>163.79999999999998</ele><time>2026-04-03T10:30:01.975Z</time></trkpt><trkpt lat="43.99142415856224" lon="12.374476205666724"><ele>161.2</ele><time>2026-04-03T10:30:02.975Z</time></trkpt><trkpt lat="43.99148660829595" lon="12.374379263018714"><ele>158.6</ele><time>2026-04-03T10:30:03.975Z</time></trkpt><trkpt lat="43.99155854888744" lon="12.374295908683477"><ele>156.0</ele><time>2026-04-03T10:30:04.975Z</time></trkpt><trkpt lat="43.991643604786596" lon="12.374221995853397"><ele>155.2</ele><time>2026-04-03T10:30:05.975Z</time></trkpt><trkpt lat="43.99173177004592" lon="12.374144052821574"><ele>154.39999999999998</ele><time>2026-04-03T10:30:06.975Z</time></trkpt><trkpt lat="43.9918293697191" lon="12.37409561222864"><ele>153.6</ele><time>2026-04-03T10:30:07.975Z</time></trkpt><trkpt lat="43.99192029637458" lon="12.374040438827656"><ele>152.79999999999998</ele><time>2026-04-03T10:30:08.975Z</time></trkpt><trkpt lat="43.99200405505659" lon="12.37400165635312"><ele>152.0</ele><time>2026-04-03T10:30:09.975Z</time></trkpt><trkpt lat="43.99209193180531" lon="12.373965643362576"><ele>152.0</ele><time>2026-04-03T10:30:10.975Z</time></trkpt><trkpt lat="43.99217794187494" lon="12.373937906818878"><ele>152.0</ele><time>2026-04-03T10:30:11.975Z</time></trkpt><trkpt lat="43.992267196964" lon="12.373915429370067"><ele>152.0</ele><time>2026-04-03T10:30:12.975Z</time></trkpt><trkpt lat="43.992353386338145" lon="12.373895760341664"><ele>152.0</ele><time>2026-04-03T10:30:13.975Z</time></trkpt><trkpt lat="43.99243823961482" lon="12.373876396429187"><ele>152.0</ele><time>2026-04-03T10:30:14.975Z</time></trkpt><trkpt lat="43.99251357850514" lon="12.373851546312448"><ele>152.0</ele><time>2026-04-03T10:30:15.975Z</time></trkpt><trkpt lat="43.99258634644034" lon="12.37380481571843"><ele>148.83333333333331</ele><time>2026-04-03T10:30:16.975Z</time></trkpt><trkpt lat="43.9926477172715" lon="12.373732838788841"><ele>145.66666666666666</ele><time>2026-04-03T10:30:17.975Z</time></trkpt><trkpt lat="43.99268760907988" lon="12.373624124512212"><ele>142.5</ele><time>2026-04-03T10:30:18.975Z</time></trkpt><trkpt lat="43.992688166172464" lon="12.373506418568358"><ele>139.33333333333334</ele><time>2026-04-03T10:30:19.975Z</time></trkpt><trkpt lat="43.99269125285571" lon="12.37337068890534"><ele>136.16666666666669</ele><time>2026-04-03T10:30:20.975Z</time></trkpt><trkpt lat="43.9926833637518" lon="12.373248281334666"><ele>133.0</ele><time>2026-04-03T10:30:21.975Z</time></trkpt><trkpt lat="43.99266452266517" lon="12.373124982519284"><ele>131.6</ele><time>2026-04-03T10:30:22.975Z</time></trkpt><trkpt lat="43.99265965654493" lon="12.373001129484681"><ele>130.20000000000002</ele><time>2026-04-03T10:30:23.975Z</time></trkpt><trkpt lat="43.9926438296068" lon="12.372880035867452"><ele>128.8</ele><time>2026-04-03T10:30:24.975Z</time></trkpt><trkpt lat="43.99262376522334" lon="12.372753463802006"><ele>127.4</ele><time>2026-04-03T10:30:25.975Z</time></trkpt><trkpt lat="43.99259745981304" lon="12.372623051744656"><ele>126.0</ele><time>2026-04-03T10:30:26.975Z</time></trkpt><trkpt lat="43.992552957933775" lon="12.372522375610574"><ele>125.66666666666667</ele><time>2026-04-03T10:30:27.975Z</time></trkpt><trkpt lat="43.99249940833007" lon="12.372420826339749"><ele>125.33333333333334</ele><time>2026-04-03T10:30:28.975Z</time></trkpt><trkpt lat="43.99245343424924" lon="12.372348935155577"><ele>125.0</ele><time>2026-04-03T10:30:29.975Z</time></trkpt><trkpt lat="43.99238399465739" lon="12.372234750316947"><ele>124.66666666666667</ele><time>2026-04-03T10:30:31.975Z</time></trkpt><trkpt lat="43.99236023621817" lon="12.372097651860667"><ele>124.33333333333334</ele><time>2026-04-03T10:30:33.975Z</time></trkpt><trkpt lat="43.99239359191841" lon="12.37201122578567"><ele>124.0</ele><time>2026-04-03T10:30:34.975Z</time></trkpt><trkpt lat="43.99246161665331" lon="12.37191406537344"><ele>122.50000000000001</ele><time>2026-04-03T10:30:35.975Z</time></trkpt><trkpt lat="43.992522768946756" lon="12.371828549668074"><ele>121.0</ele><time>2026-04-03T10:30:36.975Z</time></trkpt><trkpt lat="43.992564375713194" lon="12.371726445293058"><ele>119.5</ele><time>2026-04-03T10:30:37.975Z</time></trkpt><trkpt lat="43.99259871297965" lon="12.371607877657457"><ele>118.0</ele><time>2026-04-03T10:30:38.975Z</time></trkpt><trkpt lat="43.992628694744006" lon="12.37148766794386"><ele>116.50000000000001</ele><time>2026-04-03T10:30:39.975Z</time></trkpt><trkpt lat="43.99266358263873" lon="12.371382816600752"><ele>115.0</ele><time>2026-04-03T10:30:40.975Z</time></trkpt><trkpt lat="43.99270683893317" lon="12.371284827378524"><ele>113.83333333333334</ele><time>2026-04-03T10:30:41.975Z</time></trkpt><trkpt lat="43.99276434999314" lon="12.371198290659386"><ele>112.66666666666667</ele><time>2026-04-03T10:30:42.975Z</time></trkpt><trkpt lat="43.99283543486037" lon="12.371127977675776"><ele>111.5</ele><time>2026-04-03T10:30:43.975Z</time></trkpt><trkpt lat="43.99290985012079" lon="12.371081796407712"><ele>110.33333333333334</ele><time>2026-04-03T10:30:44.975Z</time></trkpt><trkpt lat="43.99299170399934" lon="12.371060016721298"><ele>109.16666666666667</ele><time>2026-04-03T10:30:45.972Z</time></trkpt><trkpt lat="43.99307263548806" lon="12.37108031953669"><ele>108.0</ele><time>2026-04-03T10:30:46.972Z</time></trkpt><trkpt lat="43.99315214422555" lon="12.371104253156071"><ele>108.0</ele><time>2026-04-03T10:30:47.972Z</time></trkpt><trkpt lat="43.99324035702182" lon="12.37112992533681"><ele>108.00000000000001</ele><time>2026-04-03T10:30:48.972Z</time></trkpt><trkpt lat="43.993332456871215" lon="12.371177416421542"><ele>108.00000000000001</ele><time>2026-04-03T10:30:49.972Z</time></trkpt><trkpt lat="43.99342843359251" lon="12.371220586297875"><ele>108.0</ele><time>2026-04-03T10:30:50.972Z</time></trkpt><trkpt lat="43.99352778644874" lon="12.371268687227209"><ele>108.0</ele><time>2026-04-03T10:30:51.972Z</time></trkpt><trkpt lat="43.993622587255736" lon="12.371320926340744"><ele>107.4</ele><time>2026-04-03T10:30:52.971Z</time></trkpt><trkpt lat="43.99371674735553" lon="12.371368031124401"><ele>106.80000000000001</ele><time>2026-04-03T10:30:53.971Z</time></trkpt><trkpt lat="43.99381913224393" lon="12.371410391971066"><ele>106.2</ele><time>2026-04-03T10:30:54.972Z</time></trkpt><trkpt lat="43.993919666270095" lon="12.371449243205664"><ele>105.6</ele><time>2026-04-03T10:30:55.972Z</time></trkpt><trkpt lat="43.99400732451077" lon="12.371480403749258"><ele>105.0</ele><time>2026-04-03T10:30:56.972Z</time></trkpt><trkpt lat="43.99409662979887" lon="12.371514980500546"><ele>104.6</ele><time>2026-04-03T10:30:57.972Z</time></trkpt><trkpt lat="43.99417838280729" lon="12.371511057625716"><ele>104.2</ele><time>2026-04-03T10:30:58.972Z</time></trkpt><trkpt lat="43.99424706453688" lon="12.37148603587873"><ele>103.80000000000001</ele><time>2026-04-03T10:30:59.972Z</time></trkpt><trkpt lat="43.994338394057586" lon="12.371416868517947"><ele>103.4</ele><time>2026-04-03T10:31:01.972Z</time></trkpt><trkpt lat="43.994350769329024" lon="12.371304868050549"><ele>103.0</ele><time>2026-04-03T10:31:22.972Z</time></trkpt><trkpt lat="43.99425299546178" lon="12.371199205046784"><ele>102.4</ele><time>2026-04-03T10:31:24.972Z</time></trkpt><trkpt lat="43.99416906407173" lon="12.371152515353316"><ele>101.80000000000001</ele><time>2026-04-03T10:31:25.972Z</time></trkpt><trkpt lat="43.99407699233417" lon="12.371090502137777"><ele>101.2</ele><time>2026-04-03T10:31:26.972Z</time></trkpt><trkpt lat="43.993976732997275" lon="12.371007329437823"><ele>100.6</ele><time>2026-04-03T10:31:27.972Z</time></trkpt><trkpt lat="43.9938790274487" lon="12.370914379705745"><ele>100.0</ele><time>2026-04-03T10:31:28.972Z</time></trkpt><trkpt lat="43.99377232428057" lon="12.370812820014626"><ele>100.0</ele><time>2026-04-03T10:31:29.972Z</time></trkpt><trkpt lat="43.99366139992112" lon="12.370709361447766"><ele>100.0</ele><time>2026-04-03T10:31:30.972Z</time></trkpt><trkpt lat="43.99354448812711" lon="12.37060564824378"><ele>100.0</ele><time>2026-04-03T10:31:31.972Z</time></trkpt><trkpt lat="43.99343139630027" lon="12.370504668906149"><ele>100.0</ele><time>2026-04-03T10:31:32.972Z</time></trkpt><trkpt lat="43.99333085298356" lon="12.370410139789044"><ele>100.5</ele><time>2026-04-03T10:31:33.972Z</time></trkpt><trkpt lat="43.99323075385293" lon="12.370322630284992"><ele>101.0</ele><time>2026-04-03T10:31:34.972Z</time></trkpt><trkpt lat="43.99312616909553" lon="12.370250800503857"><ele>101.5</ele><time>2026-04-03T10:31:35.972Z</time></trkpt><trkpt lat="43.99301025503" lon="12.370195375086922"><ele>102.0</ele><time>2026-04-03T10:31:36.972Z</time></trkpt><trkpt lat="43.99288290976378" lon="12.370150875134081"><ele>102.0</ele><time>2026-04-03T10:31:37.971Z</time></trkpt><trkpt lat="43.99275505751347" lon="12.370116926590738"><ele>102.0</ele><time>2026-04-03T10:31:38.971Z</time></trkpt><trkpt lat="43.99262237198132" lon="12.370100895835058"><ele>102.0</ele><time>2026-04-03T10:31:39.971Z</time></trkpt><trkpt lat="43.99250332811327" lon="12.37009137933126"><ele>102.0</ele><time>2026-04-03T10:31:40.971Z</time></trkpt><trkpt lat="43.992396773746464" lon="12.370073315008844"><ele>102.39999999999999</ele><time>2026-04-03T10:31:41.971Z</time></trkpt><trkpt lat="43.9922965062737" lon="12.370059323362574"><ele>102.8</ele><time>2026-04-03T10:31:42.971Z</time></trkpt><trkpt lat="43.99220326863722" lon="12.370043274232724"><ele>103.2</ele><time>2026-04-03T10:31:43.971Z</time></trkpt><trkpt lat="43.992112405380944" lon="12.370028490433892"><ele>103.6</ele><time>2026-04-03T10:31:44.971Z</time></trkpt><trkpt lat="43.992024902762786" lon="12.370009353999329"><ele>104.0</ele><time>2026-04-03T10:31:45.971Z</time></trkpt><trkpt lat="43.991943879938226" lon="12.369989403282307"><ele>103.99999999999999</ele><time>2026-04-03T10:31:46.971Z</time></trkpt><trkpt lat="43.99187810900289" lon="12.369970594599122"><ele>104.0</ele><time>2026-04-03T10:31:47.971Z</time></trkpt><trkpt lat="43.99178797219182" lon="12.369917789256275"><ele>104.0</ele><time>2026-04-03T10:31:49.971Z</time></trkpt><trkpt lat="43.99167311385199" lon="12.369897392627417"><ele>104.0</ele><time>2026-04-03T10:31:51.971Z</time></trkpt><trkpt lat="43.99159751672406" lon="12.369917793577718"><ele>103.99999999999999</ele><time>2026-04-03T10:31:52.971Z</time></trkpt><trkpt lat="43.991514618668106" lon="12.369932663215572"><ele>104.0</ele><time>2026-04-03T10:31:53.971Z</time></trkpt><trkpt lat="43.99141363698099" lon="12.369940801336522"><ele>104.25</ele><time>2026-04-03T10:31:54.971Z</time></trkpt><trkpt lat="43.99129898330675" lon="12.369943746691309"><ele>104.5</ele><time>2026-04-03T10:31:55.971Z</time></trkpt><trkpt lat="43.991175387754986" lon="12.369953185285386"><ele>104.75</ele><time>2026-04-03T10:31:56.971Z</time></trkpt><trkpt lat="43.99105174739574" lon="12.369964466741727"><ele>105.0</ele><time>2026-04-03T10:31:57.971Z</time></trkpt><trkpt lat="43.99093098053194" lon="12.369980938471056"><ele>105.0</ele><time>2026-04-03T10:31:58.971Z</time></trkpt><trkpt lat="43.99080347110457" lon="12.369993694924071"><ele>105.0</ele><time>2026-04-03T10:31:59.971Z</time></trkpt><trkpt lat="43.99067521628807" lon="12.369999116285042"><ele>105.0</ele><time>2026-04-03T10:32:00.971Z</time></trkpt><trkpt lat="43.99055445315926" lon="12.370008080600908"><ele>105.0</ele><time>2026-04-03T10:32:01.971Z</time></trkpt><trkpt lat="43.99043328300323" lon="12.370007593766424"><ele>105.0</ele><time>2026-04-03T10:32:02.971Z</time></trkpt><trkpt lat="43.99031539163523" lon="12.37000440155268"><ele>105.0</ele><time>2026-04-03T10:32:03.971Z</time></trkpt><trkpt lat="43.990206487076215" lon="12.369967204174722"><ele>105.0</ele><time>2026-04-03T10:32:04.971Z</time></trkpt><trkpt lat="43.99010367502605" lon="12.36990324790737"><ele>105.0</ele><time>2026-04-03T10:32:05.971Z</time></trkpt><trkpt lat="43.99000128096967" lon="12.369794063891604"><ele>104.33333333333334</ele><time>2026-04-03T10:32:06.971Z</time></trkpt><trkpt lat="43.989900923904216" lon="12.369651257621708"><ele>103.66666666666667</ele><time>2026-04-03T10:32:07.971Z</time></trkpt><trkpt lat="43.98979914061471" lon="12.369482637786803"><ele>103.0</ele><time>2026-04-03T10:32:08.971Z</time></trkpt><trkpt lat="43.98969746261796" lon="12.369317253187184"><ele>103.0</ele><time>2026-04-03T10:32:09.971Z</time></trkpt><trkpt lat="43.98959579773457" lon="12.369164327404594"><ele>103.0</ele><time>2026-04-03T10:32:10.971Z</time></trkpt><trkpt lat="43.989492436934135" lon="12.369012618891224"><ele>103.0</ele><time>2026-04-03T10:32:11.971Z</time></trkpt><trkpt lat="43.98939118918437" lon="12.368857605425353"><ele>103.33333333333334</ele><time>2026-04-03T10:32:12.971Z</time></trkpt><trkpt lat="43.98928718322222" lon="12.368696978892991"><ele>103.66666666666666</ele><time>2026-04-03T10:32:13.971Z</time></trkpt><trkpt lat="43.98917745544631" lon="12.368526314963011"><ele>104.0</ele><time>2026-04-03T10:32:14.971Z</time></trkpt><trkpt lat="43.98906655864052" lon="12.36835460131078"><ele>102.66666666666666</ele><time>2026-04-03T10:32:15.971Z</time></trkpt><trkpt lat="43.988951021040236" lon="12.368189413598637"><ele>101.33333333333334</ele><time>2026-04-03T10:32:16.971Z</time></trkpt><trkpt lat="43.988832961508685" lon="12.368020643901717"><ele>100.0</ele><time>2026-04-03T10:32:17.971Z</time></trkpt><trkpt lat="43.98871700644235" lon="12.367850428621972"><ele>99.66666666666667</ele><time>2026-04-03T10:32:18.971Z</time></trkpt><trkpt lat="43.988597390980296" lon="12.367674365489137"><ele>99.33333333333334</ele><time>2026-04-03T10:32:19.971Z</time></trkpt><trkpt lat="43.9884828790892" lon="12.367483863729973"><ele>99.0</ele><time>2026-04-03T10:32:20.971Z</time></trkpt><trkpt lat="43.9883690028122" lon="12.367297390411368"><ele>98.66666666666666</ele><time>2026-04-03T10:32:21.971Z</time></trkpt><trkpt lat="43.98825677031057" lon="12.367111807284447"><ele>98.33333333333333</ele><time>2026-04-03T10:32:22.971Z</time></trkpt><trkpt lat="43.98814140324771" lon="12.366921894360862"><ele>98.0</ele><time>2026-04-03T10:32:23.971Z</time></trkpt><trkpt lat="43.98802492183143" lon="12.366729249392352"><ele>98.0</ele><time>2026-04-03T10:32:24.971Z</time></trkpt><trkpt lat="43.98790946214471" lon="12.366540747747798"><ele>98.0</ele><time>2026-04-03T10:32:25.971Z</time></trkpt><trkpt lat="43.987794382256055" lon="12.36635318642468"><ele>98.0</ele><time>2026-04-03T10:32:26.971Z</time></trkpt><trkpt lat="43.987677945255896" lon="12.36616493841926"><ele>98.66666666666666</ele><time>2026-04-03T10:32:27.971Z</time></trkpt><trkpt lat="43.98756490581505" lon="12.365978079400323"><ele>99.33333333333334</ele><time>2026-04-03T10:32:28.971Z</time></trkpt><trkpt lat="43.98745158593304" lon="12.365789197617199"><ele>100.0</ele><time>2026-04-03T10:32:29.971Z</time></trkpt><trkpt lat="43.987340862635754" lon="12.365598963999421"><ele>100.0</ele><time>2026-04-03T10:32:30.971Z</time></trkpt><trkpt lat="43.987230594821575" lon="12.365403794823484"><ele>100.0</ele><time>2026-04-03T10:32:31.971Z</time></trkpt><trkpt lat="43.9871248834505" lon="12.36520444240648"><ele>100.0</ele><time>2026-04-03T10:32:32.971Z</time></trkpt><trkpt lat="43.98702341476529" lon="12.365002988418222"><ele>100.0</ele><time>2026-04-03T10:32:33.971Z</time></trkpt><trkpt lat="43.98692449213016" lon="12.364790095020512"><ele>100.0</ele><time>2026-04-03T10:32:34.971Z</time></trkpt><trkpt lat="43.986828616026465" lon="12.364573493988573"><ele>100.0</ele><time>2026-04-03T10:32:35.971Z</time></trkpt><trkpt lat="43.98673679808358" lon="12.364354651776424"><ele>101.0</ele><time>2026-04-03T10:32:36.971Z</time></trkpt><trkpt lat="43.98664717725018" lon="12.364132401982374"><ele>102.0</ele><time>2026-04-03T10:32:37.971Z</time></trkpt><trkpt lat="43.98655950968821" lon="12.363913076961357"><ele>103.0</ele><time>2026-04-03T10:32:38.971Z</time></trkpt><trkpt lat="43.98647273939696" lon="12.363694494155567"><ele>103.0</ele><time>2026-04-03T10:32:39.971Z</time></trkpt><trkpt lat="43.98638931887783" lon="12.363476210151026"><ele>103.0</ele><time>2026-04-03T10:32:40.971Z</time></trkpt><trkpt lat="43.986312186435086" lon="12.363277772563167"><ele>103.0</ele><time>2026-04-03T10:32:41.971Z</time></trkpt><trkpt lat="43.986241030619674" lon="12.363087877308574"><ele>103.0</ele><time>2026-04-03T10:32:42.971Z</time></trkpt><trkpt lat="43.98617663206133" lon="12.362907624506324"><ele>103.0</ele><time>2026-04-03T10:32:43.971Z</time></trkpt><trkpt lat="43.98612328094813" lon="12.362733772379377"><ele>103.0</ele><time>2026-04-03T10:32:44.971Z</time></trkpt><trkpt lat="43.9860825181728" lon="12.362557507782428"><ele>103.0</ele><time>2026-04-03T10:32:45.971Z</time></trkpt><trkpt lat="43.98606363891738" lon="12.36236734300234"><ele>103.0</ele><time>2026-04-03T10:32:46.971Z</time></trkpt><trkpt lat="43.98605677349927" lon="12.362171110001444"><ele>103.0</ele><time>2026-04-03T10:32:47.971Z</time></trkpt><trkpt lat="43.986067348895105" lon="12.361962636150485"><ele>103.0</ele><time>2026-04-03T10:32:48.971Z</time></trkpt><trkpt lat="43.98609947854349" lon="12.361746651093759"><ele>103.0</ele><time>2026-04-03T10:32:49.971Z</time></trkpt><trkpt lat="43.98617362631269" lon="12.361511785846636"><ele>103.0</ele><time>2026-04-03T10:32:50.971Z</time></trkpt><trkpt lat="43.98626378255454" lon="12.36128660741041"><ele>103.0</ele><time>2026-04-03T10:32:51.968Z</time></trkpt><trkpt lat="43.986356095335736" lon="12.361080795884357"><ele>104.33333333333334</ele><time>2026-04-03T10:32:52.968Z</time></trkpt><trkpt lat="43.98645146394844" lon="12.360869195814638"><ele>105.66666666666666</ele><time>2026-04-03T10:32:53.968Z</time></trkpt><trkpt lat="43.98654114013836" lon="12.360639394935612"><ele>107.0</ele><time>2026-04-03T10:32:54.968Z</time></trkpt><trkpt lat="43.9866146970075" lon="12.360401030106258"><ele>107.0</ele><time>2026-04-03T10:32:55.968Z</time></trkpt><trkpt lat="43.98667490325902" lon="12.360155058093905"><ele>107.0</ele><time>2026-04-03T10:32:56.968Z</time></trkpt><trkpt lat="43.986721028715415" lon="12.35990336668268"><ele>107.0</ele><time>2026-04-03T10:32:57.968Z</time></trkpt><trkpt lat="43.98676753709007" lon="12.359648764976024"><ele>107.0</ele><time>2026-04-03T10:32:58.968Z</time></trkpt><trkpt lat="43.986814464328795" lon="12.359394976584296"><ele>107.0</ele><time>2026-04-03T10:32:59.968Z</time></trkpt><trkpt lat="43.98686184195592" lon="12.359138880856355"><ele>107.0</ele><time>2026-04-03T10:33:00.968Z</time></trkpt><trkpt lat="43.98690584956297" lon="12.358880877428303"><ele>106.66666666666666</ele><time>2026-04-03T10:33:01.968Z</time></trkpt><trkpt lat="43.986946645778154" lon="12.358631096292644"><ele>106.33333333333334</ele><time>2026-04-03T10:33:02.968Z</time></trkpt><trkpt lat="43.986993871467234" lon="12.358384741930632"><ele>106.0</ele><time>2026-04-03T10:33:03.968Z</time></trkpt><trkpt lat="43.98704703519439" lon="12.358148816173815"><ele>106.0</ele><time>2026-04-03T10:33:04.967Z</time></trkpt><trkpt lat="43.9871097730242" lon="12.3579125895422"><ele>106.0</ele><time>2026-04-03T10:33:05.967Z</time></trkpt><trkpt lat="43.9871785559962" lon="12.357674797234147"><ele>106.0</ele><time>2026-04-03T10:33:06.967Z</time></trkpt><trkpt lat="43.98725495951643" lon="12.35744368730623"><ele>106.0</ele><time>2026-04-03T10:33:07.967Z</time></trkpt><trkpt lat="43.987344397785456" lon="12.357219210419261"><ele>106.0</ele><time>2026-04-03T10:33:08.967Z</time></trkpt><trkpt lat="43.987445959852025" lon="12.356994569661472"><ele>106.0</ele><time>2026-04-03T10:33:09.967Z</time></trkpt><trkpt lat="43.987552599283546" lon="12.35678433460509"><ele>107.33333333333334</ele><time>2026-04-03T10:33:10.967Z</time></trkpt><trkpt lat="43.98766203628333" lon="12.3565858571329"><ele>108.66666666666666</ele><time>2026-04-03T10:33:11.967Z</time></trkpt><trkpt lat="43.987773677330054" lon="12.356391334775777"><ele>110.0</ele><time>2026-04-03T10:33:12.967Z</time></trkpt><trkpt lat="43.987892652006515" lon="12.356203582589714"><ele>111.0</ele><time>2026-04-03T10:33:13.967Z</time></trkpt><trkpt lat="43.98801350143956" lon="12.35602459692916"><ele>112.0</ele><time>2026-04-03T10:33:14.967Z</time></trkpt><trkpt lat="43.98812879207964" lon="12.355849412471171"><ele>113.0</ele><time>2026-04-03T10:33:15.967Z</time></trkpt><trkpt lat="43.988234216068136" lon="12.3556858949778"><ele>113.5</ele><time>2026-04-03T10:33:16.967Z</time></trkpt><trkpt lat="43.98833385102221" lon="12.355536395810164"><ele>114.0</ele><time>2026-04-03T10:33:17.967Z</time></trkpt><trkpt lat="43.98842867383641" lon="12.355390912590568"><ele>114.5</ele><time>2026-04-03T10:33:18.967Z</time></trkpt><trkpt lat="43.98851858476296" lon="12.355247577608823"><ele>115.0</ele><time>2026-04-03T10:33:19.967Z</time></trkpt><trkpt lat="43.988601930856795" lon="12.355113676939466"><ele>116.6</ele><time>2026-04-03T10:33:20.967Z</time></trkpt><trkpt lat="43.98867453752634" lon="12.354998380190876"><ele>118.2</ele><time>2026-04-03T10:33:21.967Z</time></trkpt><trkpt lat="43.988737473307836" lon="12.354900020501132"><ele>119.80000000000001</ele><time>2026-04-03T10:33:22.967Z</time></trkpt><trkpt lat="43.98879557376818" lon="12.354818967315293"><ele>121.4</ele><time>2026-04-03T10:33:23.967Z</time></trkpt><trkpt lat="43.98884657467527" lon="12.354754796658622"><ele>123.0</ele><time>2026-04-03T10:33:24.967Z</time></trkpt><trkpt lat="43.98895613868361" lon="12.354707763665807"><ele>122.5</ele><time>2026-04-03T10:33:26.967Z</time></trkpt><trkpt lat="43.989020014317916" lon="12.354684921120542"><ele>122.0</ele><time>2026-04-03T10:33:27.967Z</time></trkpt><trkpt lat="43.9890856994155" lon="12.354631685666408"><ele>121.5</ele><time>2026-04-03T10:33:28.967Z</time></trkpt><trkpt lat="43.98914614368645" lon="12.354544278926365"><ele>121.0</ele><time>2026-04-03T10:33:29.967Z</time></trkpt><trkpt lat="43.98919765867785" lon="12.354442800176246"><ele>120.5</ele><time>2026-04-03T10:33:30.967Z</time></trkpt><trkpt lat="43.98924797718555" lon="12.354338719150585"><ele>120.0</ele><time>2026-04-03T10:33:31.967Z</time></trkpt><trkpt lat="43.989309454555766" lon="12.354218937462251"><ele>121.0</ele><time>2026-04-03T10:33:32.967Z</time></trkpt><trkpt lat="43.98939100926442" lon="12.354098271793301"><ele>122.0</ele><time>2026-04-03T10:33:33.967Z</time></trkpt><trkpt lat="43.98948463918632" lon="12.353977046386992"><ele>123.0</ele><time>2026-04-03T10:33:34.967Z</time></trkpt><trkpt lat="43.98958329591107" lon="12.353846669860745"><ele>124.0</ele><time>2026-04-03T10:33:35.967Z</time></trkpt><trkpt lat="43.98968353589907" lon="12.35370303356436"><ele>124.0</ele><time>2026-04-03T10:33:36.967Z</time></trkpt><trkpt lat="43.989783780695305" lon="12.35356046525806"><ele>124.0</ele><time>2026-04-03T10:33:37.967Z</time></trkpt><trkpt lat="43.98989305192333" lon="12.353406708706574"><ele>124.0</ele><time>2026-04-03T10:33:38.967Z</time></trkpt><trkpt lat="43.990006282341966" lon="12.353255019928506"><ele>127.33333333333334</ele><time>2026-04-03T10:33:39.967Z</time></trkpt><trkpt lat="43.9901225300904" lon="12.353100857342643"><ele>130.66666666666666</ele><time>2026-04-03T10:33:40.967Z</time></trkpt><trkpt lat="43.99023282520363" lon="12.352951612003043"><ele>134.0</ele><time>2026-04-03T10:33:41.967Z</time></trkpt><trkpt lat="43.99033511912459" lon="12.352802630189567"><ele>134.0</ele><time>2026-04-03T10:33:42.967Z</time></trkpt><trkpt lat="43.99042737427913" lon="12.352643139205835"><ele>134.0</ele><time>2026-04-03T10:33:43.967Z</time></trkpt><trkpt lat="43.990496594289844" lon="12.352459628086828"><ele>134.0</ele><time>2026-04-03T10:33:44.967Z</time></trkpt><trkpt lat="43.990538072135934" lon="12.3522484343912"><ele>132.66666666666666</ele><time>2026-04-03T10:33:45.967Z</time></trkpt><trkpt lat="43.99055866873815" lon="12.35202520759198"><ele>131.33333333333334</ele><time>2026-04-03T10:33:46.967Z</time></trkpt><trkpt lat="43.99056688568932" lon="12.351789178668039"><ele>130.0</ele><time>2026-04-03T10:33:47.967Z</time></trkpt><trkpt lat="43.99057832870087" lon="12.351547020371546"><ele>128.66666666666669</ele><time>2026-04-03T10:33:48.967Z</time></trkpt><trkpt lat="43.990601340639664" lon="12.351303861236808"><ele>127.33333333333334</ele><time>2026-04-03T10:33:49.967Z</time></trkpt><trkpt lat="43.990621518732944" lon="12.351060711438466"><ele>126.0</ele><time>2026-04-03T10:33:50.967Z</time></trkpt><trkpt lat="43.99064032019202" lon="12.35081169393047"><ele>126.0</ele><time>2026-04-03T10:33:51.967Z</time></trkpt><trkpt lat="43.99065876469638" lon="12.35055873720609"><ele>126.0</ele><time>2026-04-03T10:33:52.967Z</time></trkpt><trkpt lat="43.9906773014225" lon="12.350303686324457"><ele>126.0</ele><time>2026-04-03T10:33:53.967Z</time></trkpt><trkpt lat="43.990696700808755" lon="12.350045836558923"><ele>125.66666666666666</ele><time>2026-04-03T10:33:54.967Z</time></trkpt><trkpt lat="43.99071482487609" lon="12.349783406695169"><ele>125.33333333333333</ele><time>2026-04-03T10:33:55.967Z</time></trkpt><trkpt lat="43.99073350581094" lon="12.349521086689712"><ele>125.0</ele><time>2026-04-03T10:33:56.967Z</time></trkpt><trkpt lat="43.99075234222655" lon="12.349256385210706"><ele>125.66666666666666</ele><time>2026-04-03T10:33:57.967Z</time></trkpt><trkpt lat="43.99077025984867" lon="12.34899388005238"><ele>126.33333333333334</ele><time>2026-04-03T10:33:58.967Z</time></trkpt><trkpt lat="43.9907838863345" lon="12.348748837049447"><ele>127.0</ele><time>2026-04-03T10:33:59.967Z</time></trkpt><trkpt lat="43.99080116252345" lon="12.348514071645203"><ele>127.66666666666667</ele><time>2026-04-03T10:34:00.967Z</time></trkpt><trkpt lat="43.990815740337254" lon="12.348296566684294"><ele>128.33333333333334</ele><time>2026-04-03T10:34:01.967Z</time></trkpt><trkpt lat="43.99083175391984" lon="12.34807511089527"><ele>129.0</ele><time>2026-04-03T10:34:02.967Z</time></trkpt><trkpt lat="43.990847961186766" lon="12.347837263116313"><ele>132.66666666666666</ele><time>2026-04-03T10:34:03.967Z</time></trkpt><trkpt lat="43.99086284515313" lon="12.347596931497378"><ele>136.33333333333331</ele><time>2026-04-03T10:34:04.967Z</time></trkpt><trkpt lat="43.99088121333692" lon="12.347351118263578"><ele>140.0</ele><time>2026-04-03T10:34:05.967Z</time></trkpt><trkpt lat="43.99089480485679" lon="12.34710286022976"><ele>140.0</ele><time>2026-04-03T10:34:06.967Z</time></trkpt><trkpt lat="43.99089837975621" lon="12.34685097318623"><ele>140.0</ele><time>2026-04-03T10:34:07.967Z</time></trkpt><trkpt lat="43.99089761642384" lon="12.346588399064524"><ele>140.0</ele><time>2026-04-03T10:34:08.967Z</time></trkpt><trkpt lat="43.99088005324204" lon="12.34632421295854"><ele>139.0</ele><time>2026-04-03T10:34:09.967Z</time></trkpt><trkpt lat="43.99084456337293" lon="12.346062087341478"><ele>138.0</ele><time>2026-04-03T10:34:10.967Z</time></trkpt><trkpt lat="43.990812672473474" lon="12.345800507049159"><ele>137.0</ele><time>2026-04-03T10:34:11.967Z</time></trkpt><trkpt lat="43.99078304377058" lon="12.345534469145843"><ele>134.33333333333331</ele><time>2026-04-03T10:34:12.967Z</time></trkpt><trkpt lat="43.9907523885056" lon="12.345269807678624"><ele>131.66666666666666</ele><time>2026-04-03T10:34:13.967Z</time></trkpt><trkpt lat="43.99072128014542" lon="12.345001745179289"><ele>129.0</ele><time>2026-04-03T10:34:14.967Z</time></trkpt><trkpt lat="43.99068575181" lon="12.344733557162659"><ele>129.66666666666666</ele><time>2026-04-03T10:34:15.967Z</time></trkpt><trkpt lat="43.99065077390632" lon="12.344463558616594"><ele>130.33333333333331</ele><time>2026-04-03T10:34:16.967Z</time></trkpt><trkpt lat="43.9906145529526" lon="12.344193835173089"><ele>131.0</ele><time>2026-04-03T10:34:17.967Z</time></trkpt><trkpt lat="43.99058372857647" lon="12.343921385827024"><ele>132.0</ele><time>2026-04-03T10:34:18.967Z</time></trkpt><trkpt lat="43.99055227236333" lon="12.34365372457061"><ele>133.0</ele><time>2026-04-03T10:34:19.967Z</time></trkpt><trkpt lat="43.99052221417196" lon="12.343393819403493"><ele>134.0</ele><time>2026-04-03T10:34:20.967Z</time></trkpt><trkpt lat="43.990493878906804" lon="12.343137855077524"><ele>134.33333333333331</ele><time>2026-04-03T10:34:21.967Z</time></trkpt><trkpt lat="43.990464952156486" lon="12.342878091956605"><ele>134.66666666666666</ele><time>2026-04-03T10:34:22.967Z</time></trkpt><trkpt lat="43.9904230096531" lon="12.342616485397544"><ele>135.0</ele><time>2026-04-03T10:34:23.967Z</time></trkpt><trkpt lat="43.99038705351697" lon="12.342386244238146"><ele>135.33333333333334</ele><time>2026-04-03T10:34:24.967Z</time></trkpt><trkpt lat="43.990353024843095" lon="12.342174480465857"><ele>135.66666666666669</ele><time>2026-04-03T10:34:25.967Z</time></trkpt><trkpt lat="43.99032161217126" lon="12.341947936758562"><ele>136.0</ele><time>2026-04-03T10:34:26.967Z</time></trkpt><trkpt lat="43.99029944450315" lon="12.34173442880205"><ele>136.0</ele><time>2026-04-03T10:34:27.967Z</time></trkpt><trkpt lat="43.990303342507254" lon="12.34153158277888"><ele>136.0</ele><time>2026-04-03T10:34:28.967Z</time></trkpt><trkpt lat="43.99033103714091" lon="12.341332412893255"><ele>136.0</ele><time>2026-04-03T10:34:29.967Z</time></trkpt><trkpt lat="43.99038516199189" lon="12.341121900261678"><ele>136.0</ele><time>2026-04-03T10:34:30.967Z</time></trkpt><trkpt lat="43.99045866987165" lon="12.340900057167714"><ele>136.0</ele><time>2026-04-03T10:34:31.967Z</time></trkpt><trkpt lat="43.990537373883" lon="12.340667879035513"><ele>136.0</ele><time>2026-04-03T10:34:32.967Z</time></trkpt><trkpt lat="43.990615538051294" lon="12.34043834814538"><ele>135.66666666666669</ele><time>2026-04-03T10:34:33.967Z</time></trkpt><trkpt lat="43.99069058221356" lon="12.340206739394958"><ele>135.33333333333334</ele><time>2026-04-03T10:34:34.967Z</time></trkpt><trkpt lat="43.990764110924424" lon="12.33997989167628"><ele>135.0</ele><time>2026-04-03T10:34:35.967Z</time></trkpt><trkpt lat="43.99083480519075" lon="12.339752331668237"><ele>138.33333333333334</ele><time>2026-04-03T10:34:36.967Z</time></trkpt><trkpt lat="43.990906187973295" lon="12.339526290692891"><ele>141.66666666666669</ele><time>2026-04-03T10:34:37.967Z</time></trkpt><trkpt lat="43.990974916590176" lon="12.339312936024864"><ele>145.0</ele><time>2026-04-03T10:34:38.967Z</time></trkpt><trkpt lat="43.991039909038975" lon="12.339107584869"><ele>145.0</ele><time>2026-04-03T10:34:39.967Z</time></trkpt><trkpt lat="43.991100355282796" lon="12.33889185544631"><ele>145.0</ele><time>2026-04-03T10:34:40.967Z</time></trkpt><trkpt lat="43.99114848398841" lon="12.33866906507863"><ele>145.0</ele><time>2026-04-03T10:34:41.967Z</time></trkpt><trkpt lat="43.9911700118747" lon="12.338427650238822"><ele>142.33333333333334</ele><time>2026-04-03T10:34:42.967Z</time></trkpt><trkpt lat="43.99116199462174" lon="12.338178013249012"><ele>139.66666666666666</ele><time>2026-04-03T10:34:43.967Z</time></trkpt><trkpt lat="43.99113386987247" lon="12.337918083381679"><ele>137.0</ele><time>2026-04-03T10:34:44.967Z</time></trkpt><trkpt lat="43.99110043482293" lon="12.337665564421872"><ele>137.0</ele><time>2026-04-03T10:34:45.967Z</time></trkpt><trkpt lat="43.99106677313942" lon="12.337395895805916"><ele>137.0</ele><time>2026-04-03T10:34:46.967Z</time></trkpt><trkpt lat="43.99103696348827" lon="12.337126067310622"><ele>137.0</ele><time>2026-04-03T10:34:47.967Z</time></trkpt><trkpt lat="43.991005537225206" lon="12.336853279772567"><ele>139.0</ele><time>2026-04-03T10:34:48.967Z</time></trkpt><trkpt lat="43.99097838710542" lon="12.33657593406964"><ele>141.0</ele><time>2026-04-03T10:34:49.967Z</time></trkpt><trkpt lat="43.99095220266196" lon="12.336298812121932"><ele>143.0</ele><time>2026-04-03T10:34:50.967Z</time></trkpt><trkpt lat="43.990925639318256" lon="12.336031962535227"><ele>141.0</ele><time>2026-04-03T10:34:51.967Z</time></trkpt><trkpt lat="43.99089410318464" lon="12.335769296089302"><ele>139.0</ele><time>2026-04-03T10:34:52.967Z</time></trkpt><trkpt lat="43.99084140169602" lon="12.335514546654421"><ele>137.0</ele><time>2026-04-03T10:34:53.967Z</time></trkpt><trkpt lat="43.990772588050596" lon="12.335274001064654"><ele>137.0</ele><time>2026-04-03T10:34:54.967Z</time></trkpt><trkpt lat="43.990690552465736" lon="12.335045010060881"><ele>137.0</ele><time>2026-04-03T10:34:55.967Z</time></trkpt><trkpt lat="43.990622026228884" lon="12.334802059682845"><ele>137.0</ele><time>2026-04-03T10:34:56.967Z</time></trkpt><trkpt lat="43.990572640261306" lon="12.334556573584623"><ele>138.0</ele><time>2026-04-03T10:34:57.965Z</time></trkpt><trkpt lat="43.99053333999055" lon="12.334294730139979"><ele>139.0</ele><time>2026-04-03T10:34:58.964Z</time></trkpt><trkpt lat="43.99049107675046" lon="12.33403349115497"><ele>140.0</ele><time>2026-04-03T10:34:59.964Z</time></trkpt><trkpt lat="43.99045016595603" lon="12.333762692964408"><ele>140.0</ele><time>2026-04-03T10:35:00.964Z</time></trkpt><trkpt lat="43.99041064462423" lon="12.333492079290735"><ele>140.0</ele><time>2026-04-03T10:35:01.965Z</time></trkpt><trkpt lat="43.9903628904411" lon="12.333232240987165"><ele>140.0</ele><time>2026-04-03T10:35:02.965Z</time></trkpt><trkpt lat="43.99031556831026" lon="12.332961617848506"><ele>139.33333333333331</ele><time>2026-04-03T10:35:03.965Z</time></trkpt><trkpt lat="43.99026907563655" lon="12.332688252164619"><ele>138.66666666666666</ele><time>2026-04-03T10:35:04.965Z</time></trkpt><trkpt lat="43.99022008157319" lon="12.332406414549505"><ele>138.0</ele><time>2026-04-03T10:35:05.965Z</time></trkpt><trkpt lat="43.99017387434288" lon="12.332115777123848"><ele>138.0</ele><time>2026-04-03T10:35:06.965Z</time></trkpt><trkpt lat="43.990122509928966" lon="12.331823574297903"><ele>138.0</ele><time>2026-04-03T10:35:07.964Z</time></trkpt><trkpt lat="43.990068640465736" lon="12.33153248406728"><ele>138.0</ele><time>2026-04-03T10:35:08.964Z</time></trkpt><trkpt lat="43.99002136260885" lon="12.33123629165403"><ele>136.66666666666666</ele><time>2026-04-03T10:35:09.964Z</time></trkpt><trkpt lat="43.989974311286524" lon="12.330941625714367"><ele>135.33333333333331</ele><time>2026-04-03T10:35:10.964Z</time></trkpt><trkpt lat="43.9899297201003" lon="12.330649318326271"><ele>134.0</ele><time>2026-04-03T10:35:11.964Z</time></trkpt><trkpt lat="43.9898864035586" lon="12.33036553618021"><ele>134.0</ele><time>2026-04-03T10:35:12.964Z</time></trkpt><trkpt lat="43.98984263138357" lon="12.330087292558154"><ele>134.0</ele><time>2026-04-03T10:35:13.964Z</time></trkpt><trkpt lat="43.98979589569131" lon="12.329816142489053"><ele>134.0</ele><time>2026-04-03T10:35:14.964Z</time></trkpt><trkpt lat="43.98974615075506" lon="12.32954489655988"><ele>135.0</ele><time>2026-04-03T10:35:15.964Z</time></trkpt><trkpt lat="43.989700155640264" lon="12.329278267604316"><ele>136.0</ele><time>2026-04-03T10:35:16.964Z</time></trkpt><trkpt lat="43.98965525570816" lon="12.329011485524143"><ele>137.0</ele><time>2026-04-03T10:35:17.964Z</time></trkpt><trkpt lat="43.98961230621327" lon="12.328745693344182"><ele>138.66666666666666</ele><time>2026-04-03T10:35:18.964Z</time></trkpt><trkpt lat="43.98957210628749" lon="12.328483053642959"><ele>140.33333333333334</ele><time>2026-04-03T10:35:19.964Z</time></trkpt><trkpt lat="43.989539662233845" lon="12.328239838187493"><ele>142.0</ele><time>2026-04-03T10:35:20.964Z</time></trkpt><trkpt lat="43.98951880043808" lon="12.327996893274321"><ele>142.0</ele><time>2026-04-03T10:35:21.964Z</time></trkpt><trkpt lat="43.98952012207091" lon="12.327746618776636"><ele>142.0</ele><time>2026-04-03T10:35:22.964Z</time></trkpt><trkpt lat="43.989538620411174" lon="12.327475251382923"><ele>142.0</ele><time>2026-04-03T10:35:23.964Z</time></trkpt><trkpt lat="43.989560550234664" lon="12.327204717618619"><ele>142.0</ele><time>2026-04-03T10:35:24.964Z</time></trkpt><trkpt lat="43.98958605734903" lon="12.326929229941866"><ele>142.0</ele><time>2026-04-03T10:35:25.964Z</time></trkpt><trkpt lat="43.98960992357162" lon="12.326657484738389"><ele>142.0</ele><time>2026-04-03T10:35:26.964Z</time></trkpt><trkpt lat="43.98964135844206" lon="12.326380963111372"><ele>141.66666666666669</ele><time>2026-04-03T10:35:27.964Z</time></trkpt><trkpt lat="43.98967825331008" lon="12.326105991830923"><ele>141.33333333333334</ele><time>2026-04-03T10:35:28.964Z</time></trkpt><trkpt lat="43.98970863110044" lon="12.325831082395108"><ele>141.0</ele><time>2026-04-03T10:35:29.964Z</time></trkpt><trkpt lat="43.9897391728824" lon="12.3255533662399"><ele>141.0</ele><time>2026-04-03T10:35:30.964Z</time></trkpt><trkpt lat="43.98977020395872" lon="12.325274942318817"><ele>141.0</ele><time>2026-04-03T10:35:31.964Z</time></trkpt><trkpt lat="43.989801825263484" lon="12.325000549717489"><ele>141.0</ele><time>2026-04-03T10:35:32.964Z</time></trkpt><trkpt lat="43.98984105880909" lon="12.32473572601934"><ele>141.0</ele><time>2026-04-03T10:35:33.964Z</time></trkpt><trkpt lat="43.98987116409497" lon="12.324465625066031"><ele>141.0</ele><time>2026-04-03T10:35:34.964Z</time></trkpt><trkpt lat="43.98989829642866" lon="12.32419792328572"><ele>141.0</ele><time>2026-04-03T10:35:35.964Z</time></trkpt><trkpt lat="43.989924420519536" lon="12.323930038449872"><ele>140.0</ele><time>2026-04-03T10:35:36.964Z</time></trkpt><trkpt lat="43.98995173717463" lon="12.323669588806451"><ele>139.0</ele><time>2026-04-03T10:35:37.964Z</time></trkpt><trkpt lat="43.98998206759767" lon="12.323410243694278"><ele>138.0</ele><time>2026-04-03T10:35:38.964Z</time></trkpt><trkpt lat="43.990013757834255" lon="12.323147940153836"><ele>139.0</ele><time>2026-04-03T10:35:39.964Z</time></trkpt><trkpt lat="43.990045449073946" lon="12.322883687295944"><ele>140.0</ele><time>2026-04-03T10:35:40.964Z</time></trkpt><trkpt lat="43.99006882177626" lon="12.322616592480108"><ele>141.0</ele><time>2026-04-03T10:35:41.964Z</time></trkpt><trkpt lat="43.99008854584947" lon="12.322351147582253"><ele>140.33333333333334</ele><time>2026-04-03T10:35:42.964Z</time></trkpt><trkpt lat="43.99009378668234" lon="12.322077689255082"><ele>139.66666666666669</ele><time>2026-04-03T10:35:43.964Z</time></trkpt><trkpt lat="43.99007823120329" lon="12.321804550529098"><ele>139.0</ele><time>2026-04-03T10:35:44.964Z</time></trkpt><trkpt lat="43.99005988584039" lon="12.321541398747287"><ele>140.0</ele><time>2026-04-03T10:35:45.964Z</time></trkpt><trkpt lat="43.99004501917818" lon="12.321276255935967"><ele>141.0</ele><time>2026-04-03T10:35:46.964Z</time></trkpt><trkpt lat="43.99002953441719" lon="12.321009329066062"><ele>142.0</ele><time>2026-04-03T10:35:47.964Z</time></trkpt><trkpt lat="43.990009594696524" lon="12.320745051171993"><ele>140.33333333333334</ele><time>2026-04-03T10:35:48.964Z</time></trkpt><trkpt lat="43.989990860732796" lon="12.320477131734727"><ele>138.66666666666666</ele><time>2026-04-03T10:35:49.964Z</time></trkpt><trkpt lat="43.98996884720626" lon="12.320214676920676"><ele>137.0</ele><time>2026-04-03T10:35:50.964Z</time></trkpt><trkpt lat="43.98994589080289" lon="12.319952555195288"><ele>139.33333333333331</ele><time>2026-04-03T10:35:51.964Z</time></trkpt><trkpt lat="43.989928696767294" lon="12.319697035104642"><ele>141.66666666666666</ele><time>2026-04-03T10:35:52.964Z</time></trkpt><trkpt lat="43.98991268126535" lon="12.319438058925105"><ele>144.0</ele><time>2026-04-03T10:35:53.963Z</time></trkpt><trkpt lat="43.98989192185859" lon="12.31917733230782"><ele>144.0</ele><time>2026-04-03T10:35:54.963Z</time></trkpt><trkpt lat="43.98987299939691" lon="12.318919841602998"><ele>144.0</ele><time>2026-04-03T10:35:55.963Z</time></trkpt><trkpt lat="43.98985391570545" lon="12.318669649931843"><ele>144.0</ele><time>2026-04-03T10:35:56.963Z</time></trkpt><trkpt lat="43.98983882149422" lon="12.318430674278192"><ele>144.66666666666666</ele><time>2026-04-03T10:35:57.963Z</time></trkpt><trkpt lat="43.989827128640485" lon="12.318185219217584"><ele>145.33333333333331</ele><time>2026-04-03T10:35:58.963Z</time></trkpt><trkpt lat="43.989807930286645" lon="12.317943055023719"><ele>146.0</ele><time>2026-04-03T10:35:59.963Z</time></trkpt><trkpt lat="43.98978948808594" lon="12.317701171815724"><ele>146.0</ele><time>2026-04-03T10:36:00.963Z</time></trkpt><trkpt lat="43.989771058044965" lon="12.31746989688376"><ele>146.0</ele><time>2026-04-03T10:36:01.963Z</time></trkpt><trkpt lat="43.989754085076946" lon="12.317250452001414"><ele>146.0</ele><time>2026-04-03T10:36:02.963Z</time></trkpt><trkpt lat="43.98974777759925" lon="12.317051249720457"><ele>146.0</ele><time>2026-04-03T10:36:03.963Z</time></trkpt><trkpt lat="43.98974134036262" lon="12.316883146164487"><ele>146.0</ele><time>2026-04-03T10:36:04.963Z</time></trkpt><trkpt lat="43.989756326395415" lon="12.31674104598826"><ele>146.0</ele><time>2026-04-03T10:36:05.963Z</time></trkpt><trkpt lat="43.989750883580456" lon="12.316633026658295"><ele>146.0</ele><time>2026-04-03T10:36:06.963Z</time></trkpt><trkpt lat="43.989773558084075" lon="12.316459292452913"><ele>146.0</ele><time>2026-04-03T10:36:08.963Z</time></trkpt><trkpt lat="43.98982862782796" lon="12.316373647114071"><ele>145.6</ele><time>2026-04-03T10:36:09.963Z</time></trkpt><trkpt lat="43.98989465798356" lon="12.316292770322242"><ele>145.2</ele><time>2026-04-03T10:36:10.963Z</time></trkpt><trkpt lat="43.989973223278874" lon="12.316223869735111"><ele>144.8</ele><time>2026-04-03T10:36:11.963Z</time></trkpt><trkpt lat="43.990068914473724" lon="12.316136092868978"><ele>144.4</ele><time>2026-04-03T10:36:12.963Z</time></trkpt><trkpt lat="43.99016452392575" lon="12.316035527751524"><ele>144.0</ele><time>2026-04-03T10:36:13.963Z</time></trkpt><trkpt lat="43.99026632562574" lon="12.315943971214185"><ele>145.66666666666666</ele><time>2026-04-03T10:36:14.963Z</time></trkpt><trkpt lat="43.990361930716745" lon="12.315861498666804"><ele>147.33333333333334</ele><time>2026-04-03T10:36:15.963Z</time></trkpt><trkpt lat="43.99044300281909" lon="12.315793697292182"><ele>149.0</ele><time>2026-04-03T10:36:16.963Z</time></trkpt><trkpt lat="43.99051564550969" lon="12.315753326763568"><ele>150.66666666666669</ele><time>2026-04-03T10:36:17.963Z</time></trkpt><trkpt lat="43.990582009977025" lon="12.315753572860109"><ele>152.33333333333334</ele><time>2026-04-03T10:36:18.963Z</time></trkpt><trkpt lat="43.990638937166466" lon="12.315817605950889"><ele>154.0</ele><time>2026-04-03T10:36:19.963Z</time></trkpt><trkpt lat="43.99063370093509" lon="12.315998900146278"><ele>154.0</ele><time>2026-04-03T10:36:21.963Z</time></trkpt><trkpt lat="43.990589581262824" lon="12.316103898992184"><ele>154.0</ele><time>2026-04-03T10:36:22.963Z</time></trkpt><trkpt lat="43.990525653528884" lon="12.31621579806547"><ele>154.0</ele><time>2026-04-03T10:36:23.963Z</time></trkpt><trkpt lat="43.99046096479733" lon="12.316343708483574"><ele>154.0</ele><time>2026-04-03T10:36:24.963Z</time></trkpt><trkpt lat="43.99040584248798" lon="12.316475857285893"><ele>154.0</ele><time>2026-04-03T10:36:25.963Z</time></trkpt><trkpt lat="43.990355689323536" lon="12.316603604578917"><ele>156.2</ele><time>2026-04-03T10:36:26.963Z</time></trkpt><trkpt lat="43.99032346278887" lon="12.316729625724363"><ele>158.4</ele><time>2026-04-03T10:36:27.963Z</time></trkpt><trkpt lat="43.99033270346568" lon="12.31685585229836"><ele>160.6</ele><time>2026-04-03T10:36:28.963Z</time></trkpt><trkpt lat="43.99038079334005" lon="12.316955889386621"><ele>162.8</ele><time>2026-04-03T10:36:29.963Z</time></trkpt><trkpt lat="43.99046890862393" lon="12.31705606937164"><ele>165.0</ele><time>2026-04-03T10:36:30.963Z</time></trkpt><trkpt lat="43.990558439863285" lon="12.317162751672075"><ele>165.2</ele><time>2026-04-03T10:36:31.963Z</time></trkpt><trkpt lat="43.99064876911056" lon="12.317268310729666"><ele>165.4</ele><time>2026-04-03T10:36:32.963Z</time></trkpt><trkpt lat="43.99074251725571" lon="12.317376941362578"><ele>165.60000000000002</ele><time>2026-04-03T10:36:33.963Z</time></trkpt><trkpt lat="43.990822330441944" lon="12.317475190482261"><ele>165.8</ele><time>2026-04-03T10:36:34.963Z</time></trkpt><trkpt lat="43.990890993565166" lon="12.31755517484401"><ele>166.0</ele><time>2026-04-03T10:36:35.963Z</time></trkpt><trkpt lat="43.99096632337543" lon="12.317606173628755"><ele>169.8</ele><time>2026-04-03T10:36:36.963Z</time></trkpt><trkpt lat="43.9910483660981" lon="12.317619145953456"><ele>173.60000000000002</ele><time>2026-04-03T10:36:37.963Z</time></trkpt><trkpt lat="43.99112592844509" lon="12.317550402961825"><ele>177.4</ele><time>2026-04-03T10:36:38.963Z</time></trkpt><trkpt lat="43.99116853676796" lon="12.317425198362248"><ele>181.2</ele><time>2026-04-03T10:36:39.963Z</time></trkpt><trkpt lat="43.991194908230305" lon="12.317274499467688"><ele>185.0</ele><time>2026-04-03T10:36:40.963Z</time></trkpt><trkpt lat="43.99121881041291" lon="12.317119248920164"><ele>185.16666666666666</ele><time>2026-04-03T10:36:41.963Z</time></trkpt><trkpt lat="43.99126020269439" lon="12.316990316722555"><ele>185.33333333333331</ele><time>2026-04-03T10:36:42.963Z</time></trkpt><trkpt lat="43.99131584873712" lon="12.316891389323532"><ele>185.5</ele><time>2026-04-03T10:36:43.963Z</time></trkpt><trkpt lat="43.99137935295761" lon="12.316830374104242"><ele>185.66666666666666</ele><time>2026-04-03T10:36:44.963Z</time></trkpt><trkpt lat="43.99144128320529" lon="12.316811135707374"><ele>185.83333333333334</ele><time>2026-04-03T10:36:45.963Z</time></trkpt><trkpt lat="43.99151122164614" lon="12.316855940840096"><ele>186.0</ele><time>2026-04-03T10:36:46.963Z</time></trkpt><trkpt lat="43.9915667885992" lon="12.316953727782877"><ele>186.0</ele><time>2026-04-03T10:36:47.963Z</time></trkpt><trkpt lat="43.991620208700134" lon="12.317061946508398"><ele>186.0</ele><time>2026-04-03T10:36:48.963Z</time></trkpt><trkpt lat="43.99167767901526" lon="12.317173765587764"><ele>186.0</ele><time>2026-04-03T10:36:49.963Z</time></trkpt><trkpt lat="43.99174489868944" lon="12.317280921225162"><ele>186.0</ele><time>2026-04-03T10:36:50.963Z</time></trkpt><trkpt lat="43.99182129985168" lon="12.317383199316605"><ele>186.0</ele><time>2026-04-03T10:36:51.963Z</time></trkpt><trkpt lat="43.9919048843018" lon="12.317472622009454"><ele>191.25</ele><time>2026-04-03T10:36:52.963Z</time></trkpt><trkpt lat="43.99200340169182" lon="12.317546284383717"><ele>196.5</ele><time>2026-04-03T10:36:53.963Z</time></trkpt><trkpt lat="43.99210925503809" lon="12.317607743975167"><ele>201.75</ele><time>2026-04-03T10:36:54.963Z</time></trkpt><trkpt lat="43.99221622705721" lon="12.317660172939577"><ele>207.0</ele><time>2026-04-03T10:36:55.963Z</time></trkpt><trkpt lat="43.99232286395816" lon="12.317710042567699"><ele>207.0</ele><time>2026-04-03T10:36:56.963Z</time></trkpt><trkpt lat="43.99242352414364" lon="12.317768157829729"><ele>207.0</ele><time>2026-04-03T10:36:57.963Z</time></trkpt><trkpt lat="43.99249527041224" lon="12.317843019068292"><ele>207.0</ele><time>2026-04-03T10:36:58.963Z</time></trkpt><trkpt lat="43.9925478893974" lon="12.317934909070642"><ele>207.0</ele><time>2026-04-03T10:36:59.963Z</time></trkpt><trkpt lat="43.99261679666746" lon="12.318000619911736"><ele>207.0</ele><time>2026-04-03T10:37:00.963Z</time></trkpt><trkpt lat="43.992693766909596" lon="12.318012379345749"><ele>207.0</ele><time>2026-04-03T10:37:01.963Z</time></trkpt><trkpt lat="43.99277072371305" lon="12.317959681188752"><ele>213.2</ele><time>2026-04-03T10:37:02.963Z</time></trkpt><trkpt lat="43.992834211608525" lon="12.317859589218143"><ele>219.39999999999998</ele><time>2026-04-03T10:37:03.96Z</time></trkpt><trkpt lat="43.99287301861615" lon="12.317728054943922"><ele>225.60000000000002</ele><time>2026-04-03T10:37:04.96Z</time></trkpt><trkpt lat="43.99289215839829" lon="12.31756379182714"><ele>231.8</ele><time>2026-04-03T10:37:05.96Z</time></trkpt><trkpt lat="43.992903423850436" lon="12.317404009739064"><ele>238.0</ele><time>2026-04-03T10:37:06.96Z</time></trkpt><trkpt lat="43.99292557244531" lon="12.317241811271387"><ele>236.4</ele><time>2026-04-03T10:37:07.961Z</time></trkpt><trkpt lat="43.99296109034595" lon="12.317096106922257"><ele>234.8</ele><time>2026-04-03T10:37:08.961Z</time></trkpt><trkpt lat="43.99301297647752" lon="12.316976214200595"><ele>233.2</ele><time>2026-04-03T10:37:09.961Z</time></trkpt><trkpt lat="43.993085016523835" lon="12.316870234957328"><ele>231.6</ele><time>2026-04-03T10:37:10.96Z</time></trkpt><trkpt lat="43.993178001864116" lon="12.316775006769564"><ele>230.0</ele><time>2026-04-03T10:37:11.96Z</time></trkpt><trkpt lat="43.99327986637311" lon="12.316688430926412"><ele>228.4</ele><time>2026-04-03T10:37:12.961Z</time></trkpt><trkpt lat="43.99338514839425" lon="12.316598083229518"><ele>226.8</ele><time>2026-04-03T10:37:13.96Z</time></trkpt><trkpt lat="43.99348078254883" lon="12.316512996220352"><ele>225.2</ele><time>2026-04-03T10:37:14.96Z</time></trkpt><trkpt lat="43.9935634994113" lon="12.316426861032058"><ele>223.6</ele><time>2026-04-03T10:37:15.961Z</time></trkpt><trkpt lat="43.99364940641806" lon="12.316365027514081"><ele>222.0</ele><time>2026-04-03T10:37:16.961Z</time></trkpt><trkpt lat="43.99373833159887" lon="12.316342121312204"><ele>222.0</ele><time>2026-04-03T10:37:17.961Z</time></trkpt><trkpt lat="43.99384005285442" lon="12.31634933659463"><ele>222.0</ele><time>2026-04-03T10:37:18.961Z</time></trkpt><trkpt lat="43.99394575246102" lon="12.316374915369137"><ele>222.0</ele><time>2026-04-03T10:37:19.961Z</time></trkpt><trkpt lat="43.994064202028696" lon="12.316412788804492"><ele>222.0</ele><time>2026-04-03T10:37:20.961Z</time></trkpt><trkpt lat="43.994187124666276" lon="12.316458445661597"><ele>229.75</ele><time>2026-04-03T10:37:21.961Z</time></trkpt><trkpt lat="43.99431298999108" lon="12.316513664209133"><ele>237.5</ele><time>2026-04-03T10:37:22.961Z</time></trkpt><trkpt lat="43.99443214863707" lon="12.316574732199479"><ele>245.25</ele><time>2026-04-03T10:37:23.96Z</time></trkpt><trkpt lat="43.99454834968957" lon="12.31663792955719"><ele>253.0</ele><time>2026-04-03T10:37:24.96Z</time></trkpt><trkpt lat="43.99465871495012" lon="12.316705515661228"><ele>253.0</ele><time>2026-04-03T10:37:25.96Z</time></trkpt><trkpt lat="43.99477537215607" lon="12.316778297925186"><ele>253.0</ele><time>2026-04-03T10:37:26.96Z</time></trkpt><trkpt lat="43.9948889177122" lon="12.31686059442437"><ele>253.0</ele><time>2026-04-03T10:37:27.96Z</time></trkpt><trkpt lat="43.995006831106814" lon="12.316947195829334"><ele>253.0</ele><time>2026-04-03T10:37:28.96Z</time></trkpt><trkpt lat="43.99511209649702" lon="12.317027686406846"><ele>255.75</ele><time>2026-04-03T10:37:29.96Z</time></trkpt><trkpt lat="43.99522060384323" lon="12.317097616717506"><ele>258.5</ele><time>2026-04-03T10:37:30.96Z</time></trkpt><trkpt lat="43.9953374979543" lon="12.317141179910584"><ele>261.25</ele><time>2026-04-03T10:37:31.96Z</time></trkpt><trkpt lat="43.99546517224979" lon="12.317140254036644"><ele>264.0</ele><time>2026-04-03T10:37:32.96Z</time></trkpt><trkpt lat="43.99559453065228" lon="12.317107156378539"><ele>264.0</ele><time>2026-04-03T10:37:33.96Z</time></trkpt><trkpt lat="43.99573161678584" lon="12.317049728939457"><ele>264.0</ele><time>2026-04-03T10:37:34.96Z</time></trkpt><trkpt lat="43.99587191782153" lon="12.316985187641682"><ele>264.0</ele><time>2026-04-03T10:37:35.96Z</time></trkpt><trkpt lat="43.99601148129186" lon="12.316920099900273"><ele>264.0</ele><time>2026-04-03T10:37:36.96Z</time></trkpt><trkpt lat="43.99614037325649" lon="12.316857739442884"><ele>267.0</ele><time>2026-04-03T10:37:37.96Z</time></trkpt><trkpt lat="43.99625889330528" lon="12.316799985626124"><ele>270.0</ele><time>2026-04-03T10:37:38.96Z</time></trkpt><trkpt lat="43.996363918297554" lon="12.316755991095821"><ele>273.0</ele><time>2026-04-03T10:37:39.96Z</time></trkpt><trkpt lat="43.99646406481494" lon="12.316738782206563"><ele>276.0</ele><time>2026-04-03T10:37:40.96Z</time></trkpt><trkpt lat="43.99657752932723" lon="12.316731531928605"><ele>276.5</ele><time>2026-04-03T10:37:41.96Z</time></trkpt><trkpt lat="43.99669775621746" lon="12.316718906889124"><ele>277.0</ele><time>2026-04-03T10:37:42.96Z</time></trkpt><trkpt lat="43.996815660794674" lon="12.316701544054627"><ele>277.5</ele><time>2026-04-03T10:37:43.96Z</time></trkpt><trkpt lat="43.996938676626485" lon="12.316666628195692"><ele>278.0</ele><time>2026-04-03T10:37:44.96Z</time></trkpt><trkpt lat="43.997072560619365" lon="12.316617482076545"><ele>278.0</ele><time>2026-04-03T10:37:45.96Z</time></trkpt><trkpt lat="43.997214240272996" lon="12.316558892663725"><ele>278.0</ele><time>2026-04-03T10:37:46.96Z</time></trkpt><trkpt lat="43.99736128468027" lon="12.316493379506618"><ele>278.0</ele><time>2026-04-03T10:37:47.96Z</time></trkpt><trkpt lat="43.997513657135435" lon="12.3164189309258"><ele>279.6666666666667</ele><time>2026-04-03T10:37:48.96Z</time></trkpt><trkpt lat="43.9976578129036" lon="12.316349642235856"><ele>281.3333333333333</ele><time>2026-04-03T10:37:49.96Z</time></trkpt><trkpt lat="43.997798974208465" lon="12.316275246374671"><ele>283.0</ele><time>2026-04-03T10:37:50.96Z</time></trkpt><trkpt lat="43.99794517125228" lon="12.316208599687528"><ele>283.0</ele><time>2026-04-03T10:37:51.96Z</time></trkpt><trkpt lat="43.99808630587997" lon="12.31613698957856"><ele>283.0</ele><time>2026-04-03T10:37:52.96Z</time></trkpt><trkpt lat="43.99822639897865" lon="12.316066446305973"><ele>283.0</ele><time>2026-04-03T10:37:53.96Z</time></trkpt><trkpt lat="43.99836470107489" lon="12.315994938419466"><ele>283.0</ele><time>2026-04-03T10:37:54.96Z</time></trkpt><trkpt lat="43.998507276685366" lon="12.315925006007022"><ele>283.3333333333333</ele><time>2026-04-03T10:37:55.96Z</time></trkpt><trkpt lat="43.99864838648271" lon="12.31585248997181"><ele>283.6666666666667</ele><time>2026-04-03T10:37:56.96Z</time></trkpt><trkpt lat="43.998791846900225" lon="12.315778193526231"><ele>284.0</ele><time>2026-04-03T10:37:57.96Z</time></trkpt><trkpt lat="43.998928918613366" lon="12.315706974536068"><ele>284.0</ele><time>2026-04-03T10:37:58.96Z</time></trkpt><trkpt lat="43.999065483684426" lon="12.315633062544249"><ele>284.0</ele><time>2026-04-03T10:37:59.96Z</time></trkpt><trkpt lat="43.99919925261451" lon="12.31554953316358"><ele>284.0</ele><time>2026-04-03T10:38:00.96Z</time></trkpt><trkpt lat="43.99932964389212" lon="12.315464894842757"><ele>284.0</ele><time>2026-04-03T10:38:01.96Z</time></trkpt><trkpt lat="43.9994603411111" lon="12.315369849182282"><ele>286.6666666666667</ele><time>2026-04-03T10:38:02.96Z</time></trkpt><trkpt lat="43.99958738916484" lon="12.31525305979205"><ele>289.3333333333333</ele><time>2026-04-03T10:38:03.96Z</time></trkpt><trkpt lat="43.99970033366711" lon="12.315115071465788"><ele>292.0</ele><time>2026-04-03T10:38:04.96Z</time></trkpt><trkpt lat="43.99979689328632" lon="12.314956778355869"><ele>292.0</ele><time>2026-04-03T10:38:05.96Z</time></trkpt><trkpt lat="43.999885686298555" lon="12.314788871404822"><ele>292.0</ele><time>2026-04-03T10:38:06.96Z</time></trkpt><trkpt lat="43.999972587415854" lon="12.314619162391322"><ele>292.0</ele><time>2026-04-03T10:38:07.96Z</time></trkpt><trkpt lat="44.000059405277625" lon="12.314459028905675"><ele>292.0</ele><time>2026-04-03T10:38:08.96Z</time></trkpt><trkpt lat="44.00014800433395" lon="12.314306637130654"><ele>291.75</ele><time>2026-04-03T10:38:09.96Z</time></trkpt><trkpt lat="44.00024144564731" lon="12.314170481078442"><ele>291.5</ele><time>2026-04-03T10:38:10.96Z</time></trkpt><trkpt lat="44.000344863161786" lon="12.314053984347092"><ele>291.25</ele><time>2026-04-03T10:38:11.96Z</time></trkpt><trkpt lat="44.000461001743275" lon="12.313959232954133"><ele>291.0</ele><time>2026-04-03T10:38:12.96Z</time></trkpt><trkpt lat="44.00058416674621" lon="12.31387397739081"><ele>288.75</ele><time>2026-04-03T10:38:13.96Z</time></trkpt><trkpt lat="44.00070740599108" lon="12.313794268550424"><ele>286.5</ele><time>2026-04-03T10:38:14.96Z</time></trkpt><trkpt lat="44.00081908845228" lon="12.31372857476926"><ele>284.25</ele><time>2026-04-03T10:38:15.96Z</time></trkpt><trkpt lat="44.000919278079" lon="12.313674891716861"><ele>282.0</ele><time>2026-04-03T10:38:16.96Z</time></trkpt><trkpt lat="44.001004607992044" lon="12.31365005043981"><ele>286.0</ele><time>2026-04-03T10:38:17.96Z</time></trkpt><trkpt lat="44.001089091039034" lon="12.313653648518873"><ele>290.0</ele><time>2026-04-03T10:38:18.96Z</time></trkpt><trkpt lat="44.00116355338325" lon="12.313686295766912"><ele>294.0</ele><time>2026-04-03T10:38:19.96Z</time></trkpt><trkpt lat="44.0012293155747" lon="12.313758426282776"><ele>298.0</ele><time>2026-04-03T10:38:20.96Z</time></trkpt><trkpt lat="44.001276121984425" lon="12.313861362509646"><ele>302.0</ele><time>2026-04-03T10:38:21.96Z</time></trkpt><trkpt lat="44.00131992629718" lon="12.313971700889558"><ele>306.0</ele><time>2026-04-03T10:38:22.96Z</time></trkpt><trkpt lat="44.001372246732366" lon="12.314086893079613"><ele>306.0</ele><time>2026-04-03T10:38:23.96Z</time></trkpt><trkpt lat="44.00143935558151" lon="12.314151187517435"><ele>306.0</ele><time>2026-04-03T10:38:24.96Z</time></trkpt><trkpt lat="44.00150694667943" lon="12.314140990655524"><ele>306.0</ele><time>2026-04-03T10:38:25.96Z</time></trkpt><trkpt lat="44.00157052900413" lon="12.314088276719707"><ele>306.0</ele><time>2026-04-03T10:38:26.96Z</time></trkpt><trkpt lat="44.001606861198745" lon="12.31399645299092"><ele>306.0</ele><time>2026-04-03T10:38:27.96Z</time></trkpt><trkpt lat="44.00161871247011" lon="12.313892494172922"><ele>306.0</ele><time>2026-04-03T10:38:28.96Z</time></trkpt><trkpt lat="44.00163192143093" lon="12.313780408380868"><ele>306.0</ele><time>2026-04-03T10:38:29.96Z</time></trkpt><trkpt lat="44.00165169764002" lon="12.313657657315046"><ele>306.0</ele><time>2026-04-03T10:38:30.96Z</time></trkpt><trkpt lat="44.00168063453842" lon="12.313544913998768"><ele>306.0</ele><time>2026-04-03T10:38:31.96Z</time></trkpt><trkpt lat="44.00175065294787" lon="12.31342818815451"><ele>306.0</ele><time>2026-04-03T10:38:33.96Z</time></trkpt><trkpt lat="44.00187134111349" lon="12.313466662854761"><ele>306.0</ele><time>2026-04-03T10:38:35.96Z</time></trkpt><trkpt lat="44.00192266486134" lon="12.313538606619849"><ele>310.4</ele><time>2026-04-03T10:38:36.96Z</time></trkpt><trkpt lat="44.00198714090164" lon="12.313614700436057"><ele>314.8</ele><time>2026-04-03T10:38:37.96Z</time></trkpt><trkpt lat="44.002065273797356" lon="12.313669736636832"><ele>319.2</ele><time>2026-04-03T10:38:38.96Z</time></trkpt><trkpt lat="44.00215336537603" lon="12.313715223343758"><ele>323.59999999999997</ele><time>2026-04-03T10:38:39.96Z</time></trkpt><trkpt lat="44.00225552225662" lon="12.313723459163475"><ele>328.0</ele><time>2026-04-03T10:38:40.96Z</time></trkpt><trkpt lat="44.00235414421803" lon="12.313708809734413"><ele>328.0</ele><time>2026-04-03T10:38:41.96Z</time></trkpt><trkpt lat="44.00245555595785" lon="12.313669240469054"><ele>328.0</ele><time>2026-04-03T10:38:42.96Z</time></trkpt><trkpt lat="44.00255241752044" lon="12.313597798198698"><ele>328.0</ele><time>2026-04-03T10:38:43.96Z</time></trkpt><trkpt lat="44.00265350561633" lon="12.313518200138391"><ele>328.0</ele><time>2026-04-03T10:38:44.96Z</time></trkpt><trkpt lat="44.002751778950035" lon="12.313441432056324"><ele>328.0</ele><time>2026-04-03T10:38:45.96Z</time></trkpt><trkpt lat="44.00284586775856" lon="12.313364676230986"><ele>331.0</ele><time>2026-04-03T10:38:46.96Z</time></trkpt><trkpt lat="44.002943813648145" lon="12.313287806954376"><ele>334.0</ele><time>2026-04-03T10:38:47.96Z</time></trkpt><trkpt lat="44.003025062048586" lon="12.313200387501237"><ele>337.0</ele><time>2026-04-03T10:38:48.96Z</time></trkpt><trkpt lat="44.00311074474382" lon="12.313107446277142"><ele>340.0</ele><time>2026-04-03T10:38:49.96Z</time></trkpt><trkpt lat="44.00321521487704" lon="12.313029639918764"><ele>343.0</ele><time>2026-04-03T10:38:50.96Z</time></trkpt><trkpt lat="44.003329880210444" lon="12.31297910072067"><ele>342.0</ele><time>2026-04-03T10:38:51.96Z</time></trkpt><trkpt lat="44.00344593972434" lon="12.31296232982671"><ele>341.0</ele><time>2026-04-03T10:38:52.96Z</time></trkpt><trkpt lat="44.00356119438841" lon="12.31297167700977"><ele>340.0</ele><time>2026-04-03T10:38:53.96Z</time></trkpt><trkpt lat="44.00368290767812" lon="12.312984498494458"><ele>339.0</ele><time>2026-04-03T10:38:54.96Z</time></trkpt><trkpt lat="44.00380445055788" lon="12.312981718456152"><ele>339.0</ele><time>2026-04-03T10:38:55.96Z</time></trkpt><trkpt lat="44.00392307328072" lon="12.312958599281146"><ele>339.0</ele><time>2026-04-03T10:38:56.96Z</time></trkpt><trkpt lat="44.00403627332965" lon="12.312905646906055"><ele>339.0</ele><time>2026-04-03T10:38:57.96Z</time></trkpt><trkpt lat="44.00413874694154" lon="12.31282490103805"><ele>339.0</ele><time>2026-04-03T10:38:58.96Z</time></trkpt><trkpt lat="44.004221376388934" lon="12.312699836608251"><ele>338.25</ele><time>2026-04-03T10:38:59.96Z</time></trkpt><trkpt lat="44.00428575689168" lon="12.312551651578378"><ele>337.5</ele><time>2026-04-03T10:39:00.96Z</time></trkpt><trkpt lat="44.004336556634705" lon="12.3123867974422"><ele>336.75</ele><time>2026-04-03T10:39:01.96Z</time></trkpt><trkpt lat="44.00437155019515" lon="12.31221668557574"><ele>336.0</ele><time>2026-04-03T10:39:02.96Z</time></trkpt><trkpt lat="44.00441094085088" lon="12.312048236531863"><ele>336.0</ele><time>2026-04-03T10:39:03.96Z</time></trkpt><trkpt lat="44.00444467165161" lon="12.311894678536618"><ele>336.0</ele><time>2026-04-03T10:39:04.96Z</time></trkpt><trkpt lat="44.004475835256464" lon="12.31177385177171"><ele>336.0</ele><time>2026-04-03T10:39:05.96Z</time></trkpt><trkpt lat="44.00451521502836" lon="12.311689476038346"><ele>336.0</ele><time>2026-04-03T10:39:06.96Z</time></trkpt><trkpt lat="44.00456490861191" lon="12.31162307221086"><ele>336.0</ele><time>2026-04-03T10:39:07.96Z</time></trkpt><trkpt lat="44.004645939376516" lon="12.311566688529295"><ele>336.0</ele><time>2026-04-03T10:39:08.96Z</time></trkpt><trkpt lat="44.00474532761742" lon="12.311533449415995"><ele>336.0</ele><time>2026-04-03T10:39:09.957Z</time></trkpt><trkpt lat="44.00485388449314" lon="12.311505557813842"><ele>336.0</ele><time>2026-04-03T10:39:10.957Z</time></trkpt><trkpt lat="44.004972585144486" lon="12.311468053626946"><ele>336.0</ele><time>2026-04-03T10:39:11.957Z</time></trkpt><trkpt lat="44.00509941201992" lon="12.311428102096091"><ele>336.0</ele><time>2026-04-03T10:39:12.957Z</time></trkpt><trkpt lat="44.005227610233426" lon="12.311392852960784"><ele>334.25</ele><time>2026-04-03T10:39:13.957Z</time></trkpt><trkpt lat="44.005348440819255" lon="12.311370870327858"><ele>332.5</ele><time>2026-04-03T10:39:14.957Z</time></trkpt><trkpt lat="44.005467961981765" lon="12.311365737282632"><ele>330.75</ele><time>2026-04-03T10:39:15.956Z</time></trkpt><trkpt lat="44.00558622781946" lon="12.31136333534224"><ele>329.0</ele><time>2026-04-03T10:39:16.957Z</time></trkpt><trkpt lat="44.00570424976138" lon="12.311344661698888"><ele>329.0</ele><time>2026-04-03T10:39:17.957Z</time></trkpt><trkpt lat="44.005808477818796" lon="12.311311375936835"><ele>329.0</ele><time>2026-04-03T10:39:18.957Z</time></trkpt><trkpt lat="44.0059032941936" lon="12.311274308325075"><ele>329.0</ele><time>2026-04-03T10:39:19.956Z</time></trkpt><trkpt lat="44.00600161672199" lon="12.311231739321588"><ele>329.0</ele><time>2026-04-03T10:39:20.956Z</time></trkpt><trkpt lat="44.006095968637666" lon="12.311173893437317"><ele>329.0</ele><time>2026-04-03T10:39:21.956Z</time></trkpt><trkpt lat="44.00618989624512" lon="12.311099748041423"><ele>330.0</ele><time>2026-04-03T10:39:22.956Z</time></trkpt><trkpt lat="44.00626710488977" lon="12.311012744407567"><ele>331.0</ele><time>2026-04-03T10:39:23.956Z</time></trkpt><trkpt lat="44.00633807464029" lon="12.310925674780075"><ele>332.0</ele><time>2026-04-03T10:39:24.956Z</time></trkpt><trkpt lat="44.006404714241626" lon="12.310828696020751"><ele>333.0</ele><time>2026-04-03T10:39:25.956Z</time></trkpt><trkpt lat="44.00645862157889" lon="12.310719600296206"><ele>334.0</ele><time>2026-04-03T10:39:26.956Z</time></trkpt><trkpt lat="44.00649857438361" lon="12.310639752085825"><ele>333.2</ele><time>2026-04-03T10:39:27.956Z</time></trkpt><trkpt lat="44.00654822873618" lon="12.310555618096751"><ele>332.4</ele><time>2026-04-03T10:39:29.956Z</time></trkpt><trkpt lat="44.00659750519535" lon="12.31049294847445"><ele>331.6</ele><time>2026-04-03T10:39:32.956Z</time></trkpt><trkpt lat="44.00658699317744" lon="12.310318717040005"><ele>330.8</ele><time>2026-04-03T10:39:34.956Z</time></trkpt><trkpt lat="44.0065644967906" lon="12.310199759295434"><ele>330.0</ele><time>2026-04-03T10:39:35.956Z</time></trkpt><trkpt lat="44.00654216374339" lon="12.310066381793447"><ele>330.0</ele><time>2026-04-03T10:39:36.956Z</time></trkpt><trkpt lat="44.00651527966154" lon="12.309911571772755"><ele>330.0</ele><time>2026-04-03T10:39:37.956Z</time></trkpt><trkpt lat="44.00648063301198" lon="12.309748027356866"><ele>330.0</ele><time>2026-04-03T10:39:38.956Z</time></trkpt><trkpt lat="44.00643639301945" lon="12.30958300259515"><ele>330.0</ele><time>2026-04-03T10:39:39.956Z</time></trkpt><trkpt lat="44.006371676661935" lon="12.309415701434869"><ele>332.0</ele><time>2026-04-03T10:39:40.956Z</time></trkpt><trkpt lat="44.006306393774544" lon="12.309243087001036"><ele>334.0</ele><time>2026-04-03T10:39:41.956Z</time></trkpt><trkpt lat="44.006233539004114" lon="12.309077509725745"><ele>336.0</ele><time>2026-04-03T10:39:42.956Z</time></trkpt><trkpt lat="44.00616800611951" lon="12.308932069347025"><ele>338.0</ele><time>2026-04-03T10:39:43.956Z</time></trkpt><trkpt lat="44.00610893022381" lon="12.30879794037523"><ele>340.4</ele><time>2026-04-03T10:39:44.956Z</time></trkpt><trkpt lat="44.00605681748807" lon="12.308668201720119"><ele>342.79999999999995</ele><time>2026-04-03T10:39:45.956Z</time></trkpt><trkpt lat="44.00601174836527" lon="12.308544037888133"><ele>345.2</ele><time>2026-04-03T10:39:46.956Z</time></trkpt><trkpt lat="44.00596911409107" lon="12.308417733726623"><ele>347.6</ele><time>2026-04-03T10:39:47.956Z</time></trkpt><trkpt lat="44.005937806155785" lon="12.308288847105178"><ele>350.0</ele><time>2026-04-03T10:39:48.956Z</time></trkpt><trkpt lat="44.005912522103465" lon="12.308154943793651"><ele>351.4</ele><time>2026-04-03T10:39:49.956Z</time></trkpt><trkpt lat="44.00590018569929" lon="12.308018873113987"><ele>352.8</ele><time>2026-04-03T10:39:50.956Z</time></trkpt><trkpt lat="44.00589271041417" lon="12.307883932539452"><ele>354.20000000000005</ele><time>2026-04-03T10:39:51.956Z</time></trkpt><trkpt lat="44.00589030534762" lon="12.307749554724278"><ele>355.6</ele><time>2026-04-03T10:39:52.956Z</time></trkpt><trkpt lat="44.00589209339888" lon="12.307612775913906"><ele>357.0</ele><time>2026-04-03T10:39:53.956Z</time></trkpt><trkpt lat="44.00589337739466" lon="12.307466164994285"><ele>357.0</ele><time>2026-04-03T10:39:54.956Z</time></trkpt><trkpt lat="44.005887454627384" lon="12.307316530165743"><ele>357.0</ele><time>2026-04-03T10:39:55.956Z</time></trkpt><trkpt lat="44.00588093596114" lon="12.307174725581023"><ele>357.0</ele><time>2026-04-03T10:39:56.956Z</time></trkpt><trkpt lat="44.005867448347" lon="12.307031475362487"><ele>357.0</ele><time>2026-04-03T10:39:57.956Z</time></trkpt><trkpt lat="44.005852298054" lon="12.30688909312798"><ele>357.0</ele><time>2026-04-03T10:39:58.956Z</time></trkpt><trkpt lat="44.005832547402164" lon="12.306745922933729"><ele>356.40000000000003</ele><time>2026-04-03T10:39:59.956Z</time></trkpt><trkpt lat="44.005824073018" lon="12.306601269909779"><ele>355.8</ele><time>2026-04-03T10:40:00.956Z</time></trkpt><trkpt lat="44.00582635842373" lon="12.306452237003228"><ele>355.2</ele><time>2026-04-03T10:40:01.956Z</time></trkpt><trkpt lat="44.00584552217885" lon="12.306299484389733"><ele>354.6</ele><time>2026-04-03T10:40:02.956Z</time></trkpt><trkpt lat="44.00588123184934" lon="12.306153273823604"><ele>354.0</ele><time>2026-04-03T10:40:03.956Z</time></trkpt><trkpt lat="44.00591849993378" lon="12.306010421525226"><ele>354.0</ele><time>2026-04-03T10:40:04.956Z</time></trkpt><trkpt lat="44.00595910132912" lon="12.305868778598533"><ele>354.0</ele><time>2026-04-03T10:40:05.956Z</time></trkpt><trkpt lat="44.005984470504366" lon="12.305725465438853"><ele>354.0</ele><time>2026-04-03T10:40:06.956Z</time></trkpt><trkpt lat="44.00599732054556" lon="12.305585667292927"><ele>354.0</ele><time>2026-04-03T10:40:07.956Z</time></trkpt><trkpt lat="44.005998981898635" lon="12.305450381948722"><ele>354.0</ele><time>2026-04-03T10:40:08.956Z</time></trkpt><trkpt lat="44.00598139120923" lon="12.305312114125126"><ele>353.79999999999995</ele><time>2026-04-03T10:40:09.956Z</time></trkpt><trkpt lat="44.005967739977116" lon="12.305190597405028"><ele>353.59999999999997</ele><time>2026-04-03T10:40:10.956Z</time></trkpt><trkpt lat="44.00596672116911" lon="12.305062329022723"><ele>353.4</ele><time>2026-04-03T10:40:11.956Z</time></trkpt><trkpt lat="44.005947804586285" lon="12.304919442872624"><ele>353.2</ele><time>2026-04-03T10:40:12.956Z</time></trkpt><trkpt lat="44.005932526212355" lon="12.304781372464248"><ele>353.0</ele><time>2026-04-03T10:40:13.956Z</time></trkpt><trkpt lat="44.00590897837131" lon="12.304649790487694"><ele>353.79999999999995</ele><time>2026-04-03T10:40:14.956Z</time></trkpt><trkpt lat="44.005878475653454" lon="12.304521328173378"><ele>354.6</ele><time>2026-04-03T10:40:15.956Z</time></trkpt><trkpt lat="44.005830664881465" lon="12.30438415725897"><ele>355.4</ele><time>2026-04-03T10:40:16.956Z</time></trkpt><trkpt lat="44.005767864193295" lon="12.304260924094134"><ele>356.20000000000005</ele><time>2026-04-03T10:40:17.956Z</time></trkpt><trkpt lat="44.00570669835807" lon="12.304150524253247"><ele>357.0</ele><time>2026-04-03T10:40:18.956Z</time></trkpt><trkpt lat="44.00564335595867" lon="12.3040459812062"><ele>356.1666666666667</ele><time>2026-04-03T10:40:19.956Z</time></trkpt><trkpt lat="44.00558226822015" lon="12.303948279489733"><ele>355.3333333333333</ele><time>2026-04-03T10:40:20.956Z</time></trkpt><trkpt lat="44.00552905649955" lon="12.303863336998505"><ele>354.5</ele><time>2026-04-03T10:40:21.956Z</time></trkpt><trkpt lat="44.00547854024369" lon="12.303780332200994"><ele>353.66666666666663</ele><time>2026-04-03T10:40:22.956Z</time></trkpt><trkpt lat="44.005431001670225" lon="12.303713861681802"><ele>352.8333333333333</ele><time>2026-04-03T10:40:23.956Z</time></trkpt><trkpt lat="44.00537648508474" lon="12.303637776081228"><ele>352.0</ele><time>2026-04-03T10:40:25.956Z</time></trkpt><trkpt lat="44.005301429395935" lon="12.3036072503021"><ele>352.0</ele><time>2026-04-03T10:41:46.953Z</time></trkpt><trkpt lat="44.00524878401346" lon="12.30352310285617"><ele>352.0</ele><time>2026-04-03T10:41:47.953Z</time></trkpt><trkpt lat="44.00519039741464" lon="12.303427679190499"><ele>352.0</ele><time>2026-04-03T10:41:48.953Z</time></trkpt><trkpt lat="44.005125469549384" lon="12.30330902344043"><ele>352.0</ele><time>2026-04-03T10:41:49.953Z</time></trkpt><trkpt lat="44.00506418691761" lon="12.303180563342048"><ele>352.0</ele><time>2026-04-03T10:41:50.953Z</time></trkpt><trkpt lat="44.00500544048871" lon="12.303042024387544"><ele>349.5</ele><time>2026-04-03T10:41:51.953Z</time></trkpt><trkpt lat="44.00494888703374" lon="12.302897540055067"><ele>347.0</ele><time>2026-04-03T10:41:52.953Z</time></trkpt><trkpt lat="44.00489168282171" lon="12.30274751240401"><ele>344.5</ele><time>2026-04-03T10:41:53.953Z</time></trkpt><trkpt lat="44.00483344825319" lon="12.302598484451364"><ele>342.0</ele><time>2026-04-03T10:41:54.953Z</time></trkpt><trkpt lat="44.00477169091228" lon="12.302453288158528"><ele>342.0</ele><time>2026-04-03T10:41:55.953Z</time></trkpt><trkpt lat="44.00471320339099" lon="12.30230475685272"><ele>342.0</ele><time>2026-04-03T10:41:56.953Z</time></trkpt><trkpt lat="44.00459250148155" lon="12.302017000445222"><ele>342.0</ele><time>2026-04-03T10:41:58.953Z</time></trkpt><trkpt lat="44.004537022478935" lon="12.301868697793061"><ele>344.75</ele><time>2026-04-03T10:41:59.953Z</time></trkpt><trkpt lat="44.00448365294952" lon="12.301718293400956"><ele>347.5</ele><time>2026-04-03T10:42:00.953Z</time></trkpt><trkpt lat="44.00442335434921" lon="12.301570731249756"><ele>350.25</ele><time>2026-04-03T10:42:01.953Z</time></trkpt><trkpt lat="44.0043659133809" lon="12.301419259203124"><ele>353.0</ele><time>2026-04-03T10:42:02.953Z</time></trkpt><trkpt lat="44.004307165447464" lon="12.301267960184227"><ele>355.75</ele><time>2026-04-03T10:42:03.953Z</time></trkpt><trkpt lat="44.00424343372359" lon="12.301116178724715"><ele>358.5</ele><time>2026-04-03T10:42:04.953Z</time></trkpt><trkpt lat="44.00417831384939" lon="12.30096331490819"><ele>361.25</ele><time>2026-04-03T10:42:05.952Z</time></trkpt><trkpt lat="44.004111218843995" lon="12.300815061650127"><ele>364.0</ele><time>2026-04-03T10:42:06.952Z</time></trkpt><trkpt lat="44.00405227221057" lon="12.300666788751279"><ele>360.6</ele><time>2026-04-03T10:42:07.952Z</time></trkpt><trkpt lat="44.00400586376168" lon="12.300532242793453"><ele>357.2</ele><time>2026-04-03T10:42:08.952Z</time></trkpt><trkpt lat="44.0039620134933" lon="12.300418503496354"><ele>353.8</ele><time>2026-04-03T10:42:09.952Z</time></trkpt><trkpt lat="44.00391756611166" lon="12.300310539304592"><ele>350.40000000000003</ele><time>2026-04-03T10:42:10.952Z</time></trkpt><trkpt lat="44.00386829097155" lon="12.300189936672561"><ele>347.0</ele><time>2026-04-03T10:42:11.952Z</time></trkpt><trkpt lat="44.00381876027385" lon="12.300068192952331"><ele>347.0</ele><time>2026-04-03T10:42:12.952Z</time></trkpt><trkpt lat="44.00377491649887" lon="12.299940610107141"><ele>347.0</ele><time>2026-04-03T10:42:13.952Z</time></trkpt><trkpt lat="44.00372996478578" lon="12.299800191777397"><ele>347.0</ele><time>2026-04-03T10:42:14.952Z</time></trkpt><trkpt lat="44.00368734429546" lon="12.299656320721647"><ele>347.0</ele><time>2026-04-03T10:42:15.952Z</time></trkpt><trkpt lat="44.00364162692382" lon="12.299504095369052"><ele>347.0</ele><time>2026-04-03T10:42:16.952Z</time></trkpt><trkpt lat="44.003582785435306" lon="12.299349435867708"><ele>348.0</ele><time>2026-04-03T10:42:17.952Z</time></trkpt><trkpt lat="44.00353383719728" lon="12.299194546296697"><ele>349.0</ele><time>2026-04-03T10:42:18.952Z</time></trkpt><trkpt lat="44.003485944657314" lon="12.299047681874162"><ele>350.0</ele><time>2026-04-03T10:42:19.952Z</time></trkpt><trkpt lat="44.0034190667307" lon="12.29890969243205"><ele>351.0</ele><time>2026-04-03T10:42:20.952Z</time></trkpt><trkpt lat="44.0033645146104" lon="12.298780219309831"><ele>350.20000000000005</ele><time>2026-04-03T10:42:21.952Z</time></trkpt><trkpt lat="44.00331760229992" lon="12.298663761748795"><ele>349.40000000000003</ele><time>2026-04-03T10:42:22.952Z</time></trkpt><trkpt lat="44.0032684671172" lon="12.298553992908223"><ele>348.6</ele><time>2026-04-03T10:42:23.952Z</time></trkpt><trkpt lat="44.00320742583343" lon="12.298454804476808"><ele>347.8</ele><time>2026-04-03T10:42:24.952Z</time></trkpt><trkpt lat="44.00312917255283" lon="12.298352157700021"><ele>347.0</ele><time>2026-04-03T10:42:25.952Z</time></trkpt><trkpt lat="44.003036283371934" lon="12.29825829215558"><ele>347.0</ele><time>2026-04-03T10:42:26.952Z</time></trkpt><trkpt lat="44.00293667312433" lon="12.298171611279635"><ele>347.0</ele><time>2026-04-03T10:42:27.952Z</time></trkpt><trkpt lat="44.00283651997385" lon="12.298091180171216"><ele>347.0</ele><time>2026-04-03T10:42:28.952Z</time></trkpt><trkpt lat="44.00272786104761" lon="12.298011236965287"><ele>347.0</ele><time>2026-04-03T10:42:29.952Z</time></trkpt><trkpt lat="44.002616413393305" lon="12.297925092429505"><ele>347.0</ele><time>2026-04-03T10:42:30.952Z</time></trkpt><trkpt lat="44.002513299100535" lon="12.29783251689802"><ele>347.0</ele><time>2026-04-03T10:42:31.952Z</time></trkpt><trkpt lat="44.002411551140405" lon="12.297731244073676"><ele>347.0</ele><time>2026-04-03T10:42:32.952Z</time></trkpt><trkpt lat="44.002298332189284" lon="12.297637937816592"><ele>347.0</ele><time>2026-04-03T10:42:33.952Z</time></trkpt><trkpt lat="44.002192556601315" lon="12.297536544781753"><ele>345.8</ele><time>2026-04-03T10:42:34.952Z</time></trkpt><trkpt lat="44.002093679094976" lon="12.29744149829011"><ele>344.6</ele><time>2026-04-03T10:42:35.952Z</time></trkpt><trkpt lat="44.00200408232215" lon="12.297352730823661"><ele>343.40000000000003</ele><time>2026-04-03T10:42:36.952Z</time></trkpt><trkpt lat="44.00191675777097" lon="12.297276036985485"><ele>342.20000000000005</ele><time>2026-04-03T10:42:37.952Z</time></trkpt><trkpt lat="44.00183433001643" lon="12.297202720594449"><ele>341.0</ele><time>2026-04-03T10:42:38.952Z</time></trkpt><trkpt lat="44.00174882866912" lon="12.297122711535641"><ele>340.25</ele><time>2026-04-03T10:42:39.952Z</time></trkpt><trkpt lat="44.00165179649467" lon="12.297048717289995"><ele>339.5</ele><time>2026-04-03T10:42:40.952Z</time></trkpt><trkpt lat="44.0015544555837" lon="12.296955155007577"><ele>338.75</ele><time>2026-04-03T10:42:41.952Z</time></trkpt><trkpt lat="44.0014554463784" lon="12.29686235864795"><ele>338.0</ele><time>2026-04-03T10:42:42.952Z</time></trkpt><trkpt lat="44.00135411308269" lon="12.296773955534496"><ele>338.0</ele><time>2026-04-03T10:42:43.952Z</time></trkpt><trkpt lat="44.00124944528208" lon="12.296670233984536"><ele>338.0</ele><time>2026-04-03T10:42:44.952Z</time></trkpt><trkpt lat="44.00113765178193" lon="12.296570135127844"><ele>338.0</ele><time>2026-04-03T10:42:45.952Z</time></trkpt><trkpt lat="44.00102250860948" lon="12.296467084697067"><ele>338.0</ele><time>2026-04-03T10:42:46.952Z</time></trkpt><trkpt lat="44.0009071049447" lon="12.296359577007932"><ele>337.0</ele><time>2026-04-03T10:42:47.952Z</time></trkpt><trkpt lat="44.00079209184789" lon="12.296253219907658"><ele>336.0</ele><time>2026-04-03T10:42:48.952Z</time></trkpt><trkpt lat="44.00067755511934" lon="12.296143087793084"><ele>335.0</ele><time>2026-04-03T10:42:49.952Z</time></trkpt><trkpt lat="44.00056572243245" lon="12.29604087328176"><ele>334.0</ele><time>2026-04-03T10:42:50.952Z</time></trkpt><trkpt lat="44.0004623282889" lon="12.295946535765083"><ele>334.0</ele><time>2026-04-03T10:42:51.952Z</time></trkpt><trkpt lat="44.00035748565172" lon="12.295854412432657"><ele>334.0</ele><time>2026-04-03T10:42:52.952Z</time></trkpt><trkpt lat="44.00025490275001" lon="12.295757551102867"><ele>334.0</ele><time>2026-04-03T10:42:53.952Z</time></trkpt><trkpt lat="44.00015399247748" lon="12.295668145965388"><ele>334.0</ele><time>2026-04-03T10:42:54.952Z</time></trkpt><trkpt lat="44.0000572168858" lon="12.295583285168735"><ele>331.6</ele><time>2026-04-03T10:42:55.952Z</time></trkpt><trkpt lat="43.99995771006229" lon="12.295511634198233"><ele>329.2</ele><time>2026-04-03T10:42:56.952Z</time></trkpt><trkpt lat="43.99985649207867" lon="12.295457079190983"><ele>326.8</ele><time>2026-04-03T10:42:57.952Z</time></trkpt><trkpt lat="43.9997532063266" lon="12.295440713476452"><ele>324.40000000000003</ele><time>2026-04-03T10:42:58.952Z</time></trkpt><trkpt lat="43.99965534500502" lon="12.295459053969154"><ele>322.0</ele><time>2026-04-03T10:42:59.952Z</time></trkpt><trkpt lat="43.99956679278337" lon="12.295489587389195"><ele>322.0</ele><time>2026-04-03T10:43:00.952Z</time></trkpt><trkpt lat="43.99947341593075" lon="12.295517568444579"><ele>322.0</ele><time>2026-04-03T10:43:01.952Z</time></trkpt><trkpt lat="43.999372237081886" lon="12.295540627767114"><ele>322.0</ele><time>2026-04-03T10:43:02.952Z</time></trkpt><trkpt lat="43.99926716537869" lon="12.295577436660837"><ele>322.0</ele><time>2026-04-03T10:43:03.952Z</time></trkpt><trkpt lat="43.99916343349953" lon="12.295624324217332"><ele>322.0</ele><time>2026-04-03T10:43:04.952Z</time></trkpt><trkpt lat="43.999061929761226" lon="12.295673599973547"><ele>324.8</ele><time>2026-04-03T10:43:05.952Z</time></trkpt><trkpt lat="43.99895911437367" lon="12.295724549490037"><ele>327.6</ele><time>2026-04-03T10:43:06.952Z</time></trkpt><trkpt lat="43.99885774479719" lon="12.295773335645476"><ele>330.40000000000003</ele><time>2026-04-03T10:43:07.952Z</time></trkpt><trkpt lat="43.99875092698934" lon="12.295816988934435"><ele>333.20000000000005</ele><time>2026-04-03T10:43:08.952Z</time></trkpt><trkpt lat="43.99864376333435" lon="12.295845929212124"><ele>336.0</ele><time>2026-04-03T10:43:09.952Z</time></trkpt><trkpt lat="43.998537615922686" lon="12.295853016354053"><ele>336.0</ele><time>2026-04-03T10:43:10.952Z</time></trkpt><trkpt lat="43.99843174166296" lon="12.295830721861241"><ele>336.0</ele><time>2026-04-03T10:43:11.952Z</time></trkpt><trkpt lat="43.998321292150266" lon="12.295778598000263"><ele>336.0</ele><time>2026-04-03T10:43:12.952Z</time></trkpt><trkpt lat="43.99820477386975" lon="12.295719443867533"><ele>336.0</ele><time>2026-04-03T10:43:13.952Z</time></trkpt><trkpt lat="43.99808931287526" lon="12.295644229628365"><ele>341.25</ele><time>2026-04-03T10:43:14.952Z</time></trkpt><trkpt lat="43.99798067252421" lon="12.29554779817092"><ele>346.5</ele><time>2026-04-03T10:43:15.952Z</time></trkpt><trkpt lat="43.99788189798492" lon="12.2954352707108"><ele>351.75</ele><time>2026-04-03T10:43:16.952Z</time></trkpt><trkpt lat="43.9977984329342" lon="12.29530289181524"><ele>357.0</ele><time>2026-04-03T10:43:17.952Z</time></trkpt><trkpt lat="43.99772826964788" lon="12.295155305800046"><ele>357.0</ele><time>2026-04-03T10:43:18.952Z</time></trkpt><trkpt lat="43.99767727733315" lon="12.294998760451769"><ele>357.0</ele><time>2026-04-03T10:43:19.952Z</time></trkpt><trkpt lat="43.99763561052956" lon="12.294833831625686"><ele>357.0</ele><time>2026-04-03T10:43:20.952Z</time></trkpt><trkpt lat="43.99759460852051" lon="12.294665374103973"><ele>357.0</ele><time>2026-04-03T10:43:21.949Z</time></trkpt><trkpt lat="43.99755111173668" lon="12.294492935324081"><ele>357.25</ele><time>2026-04-03T10:43:22.949Z</time></trkpt><trkpt lat="43.99749262568711" lon="12.294338058262417"><ele>357.5</ele><time>2026-04-03T10:43:23.949Z</time></trkpt><trkpt lat="43.99742111383927" lon="12.29419135953142"><ele>357.75</ele><time>2026-04-03T10:43:24.949Z</time></trkpt><trkpt lat="43.997339915782895" lon="12.294065121273764"><ele>358.0</ele><time>2026-04-03T10:43:25.949Z</time></trkpt><trkpt lat="43.99724855652688" lon="12.293952699775062"><ele>361.75</ele><time>2026-04-03T10:43:26.949Z</time></trkpt><trkpt lat="43.99713589113103" lon="12.293868895959463"><ele>365.5</ele><time>2026-04-03T10:43:27.949Z</time></trkpt><trkpt lat="43.99700999186585" lon="12.293806913448465"><ele>369.25</ele><time>2026-04-03T10:43:28.948Z</time></trkpt><trkpt lat="43.99687565221805" lon="12.293759088705649"><ele>373.0</ele><time>2026-04-03T10:43:29.948Z</time></trkpt><trkpt lat="43.996744875699164" lon="12.293736812568152"><ele>372.0</ele><time>2026-04-03T10:43:30.949Z</time></trkpt><trkpt lat="43.99660775402619" lon="12.293742041778048"><ele>371.0</ele><time>2026-04-03T10:43:31.949Z</time></trkpt><trkpt lat="43.996469601746156" lon="12.293763838820709"><ele>370.0</ele><time>2026-04-03T10:43:32.948Z</time></trkpt><trkpt lat="43.99634325716357" lon="12.293799177435368"><ele>369.0</ele><time>2026-04-03T10:43:33.949Z</time></trkpt><trkpt lat="43.99622473302503" lon="12.293825443029354"><ele>369.0</ele><time>2026-04-03T10:43:34.948Z</time></trkpt><trkpt lat="43.9961055108821" lon="12.293827432667472"><ele>369.0</ele><time>2026-04-03T10:43:35.948Z</time></trkpt><trkpt lat="43.99599242085305" lon="12.293788313189824"><ele>369.0</ele><time>2026-04-03T10:43:36.948Z</time></trkpt><trkpt lat="43.99587717195622" lon="12.293714984671702"><ele>369.0</ele><time>2026-04-03T10:43:37.948Z</time></trkpt><trkpt lat="43.995767985472135" lon="12.293606100549752"><ele>368.75</ele><time>2026-04-03T10:43:38.948Z</time></trkpt><trkpt lat="43.99566618598921" lon="12.293481586120292"><ele>368.5</ele><time>2026-04-03T10:43:39.948Z</time></trkpt><trkpt lat="43.99557791003659" lon="12.293348371590126"><ele>368.25</ele><time>2026-04-03T10:43:40.948Z</time></trkpt><trkpt lat="43.99550545385439" lon="12.293198645023839"><ele>368.0</ele><time>2026-04-03T10:43:41.948Z</time></trkpt><trkpt lat="43.99539222268302" lon="12.293099714625553"><ele>370.5</ele><time>2026-04-03T10:43:42.948Z</time></trkpt><trkpt lat="43.995358121966696" lon="12.292904971370591"><ele>373.0</ele><time>2026-04-03T10:43:43.948Z</time></trkpt><trkpt lat="43.995327500584914" lon="12.292703944304632"><ele>375.5</ele><time>2026-04-03T10:43:44.948Z</time></trkpt><trkpt lat="43.99529982991726" lon="12.292490697451123"><ele>378.0</ele><time>2026-04-03T10:43:45.948Z</time></trkpt><trkpt lat="43.99526561116617" lon="12.292271780174538"><ele>382.0</ele><time>2026-04-03T10:43:46.948Z</time></trkpt><trkpt lat="43.995226687233014" lon="12.292051765933934"><ele>386.0</ele><time>2026-04-03T10:43:47.948Z</time></trkpt><trkpt lat="43.995190841316905" lon="12.291831674522122"><ele>390.0</ele><time>2026-04-03T10:43:48.948Z</time></trkpt><trkpt lat="43.99516211038254" lon="12.291620130230804"><ele>390.0</ele><time>2026-04-03T10:43:49.948Z</time></trkpt><trkpt lat="43.99513877637941" lon="12.291427297415234"><ele>390.0</ele><time>2026-04-03T10:43:50.948Z</time></trkpt><trkpt lat="43.99510522448969" lon="12.291268829115566"><ele>390.0</ele><time>2026-04-03T10:43:51.948Z</time></trkpt><trkpt lat="43.995052907006794" lon="12.291139024318436"><ele>390.0</ele><time>2026-04-03T10:43:52.948Z</time></trkpt><trkpt lat="43.99496213259858" lon="12.291045428397734"><ele>389.25</ele><time>2026-04-03T10:43:53.948Z</time></trkpt><trkpt lat="43.99483727722872" lon="12.291000950477699"><ele>388.5</ele><time>2026-04-03T10:43:54.948Z</time></trkpt><trkpt lat="43.99469936405394" lon="12.290992164318245"><ele>387.75</ele><time>2026-04-03T10:43:55.948Z</time></trkpt><trkpt lat="43.9945639817051" lon="12.290998389635465"><ele>387.0</ele><time>2026-04-03T10:43:56.948Z</time></trkpt><trkpt lat="43.9944190418924" lon="12.291020333557146"><ele>387.0</ele><time>2026-04-03T10:43:57.948Z</time></trkpt><trkpt lat="43.99427620906954" lon="12.291023285923885"><ele>387.0</ele><time>2026-04-03T10:43:58.948Z</time></trkpt><trkpt lat="43.994134168772185" lon="12.291024898978725"><ele>387.0</ele><time>2026-04-03T10:43:59.948Z</time></trkpt><trkpt lat="43.99401260081683" lon="12.291019501109114"><ele>387.0</ele><time>2026-04-03T10:44:00.948Z</time></trkpt><trkpt lat="43.99389564275806" lon="12.291026691262017"><ele>385.8</ele><time>2026-04-03T10:44:01.948Z</time></trkpt><trkpt lat="43.99379348923372" lon="12.291000484703986"><ele>384.6</ele><time>2026-04-03T10:44:02.948Z</time></trkpt><trkpt lat="43.99371357766803" lon="12.290939973894972"><ele>383.40000000000003</ele><time>2026-04-03T10:44:03.948Z</time></trkpt><trkpt lat="43.99365096506945" lon="12.290850831915137"><ele>382.20000000000005</ele><time>2026-04-03T10:44:04.948Z</time></trkpt><trkpt lat="43.993636609064254" lon="12.290721956067117"><ele>381.0</ele><time>2026-04-03T10:44:05.948Z</time></trkpt><trkpt lat="43.993651400797866" lon="12.290602402533029"><ele>381.0</ele><time>2026-04-03T10:44:06.948Z</time></trkpt><trkpt lat="43.99369672277077" lon="12.2904549779114"><ele>381.0</ele><time>2026-04-03T10:44:07.948Z</time></trkpt><trkpt lat="43.99376491444208" lon="12.290337989108018"><ele>381.0</ele><time>2026-04-03T10:44:08.948Z</time></trkpt><trkpt lat="43.993850719167575" lon="12.290216133693693"><ele>381.0</ele><time>2026-04-03T10:44:09.948Z</time></trkpt><trkpt lat="43.99394599666927" lon="12.290087012014547"><ele>381.0</ele><time>2026-04-03T10:44:10.948Z</time></trkpt><trkpt lat="43.99403456764795" lon="12.289956875623359"><ele>381.0</ele><time>2026-04-03T10:44:11.948Z</time></trkpt><trkpt lat="43.994128167481215" lon="12.289836473424204"><ele>381.0</ele><time>2026-04-03T10:44:12.948Z</time></trkpt><trkpt lat="43.99423163248093" lon="12.289734263551404"><ele>381.0</ele><time>2026-04-03T10:44:13.948Z</time></trkpt><trkpt lat="43.99435451634457" lon="12.289666704508736"><ele>383.0</ele><time>2026-04-03T10:44:14.948Z</time></trkpt><trkpt lat="43.9944884361838" lon="12.289615563636549"><ele>385.0</ele><time>2026-04-03T10:44:15.948Z</time></trkpt><trkpt lat="43.994615442010215" lon="12.289572142646396"><ele>387.0</ele><time>2026-04-03T10:44:16.948Z</time></trkpt><trkpt lat="43.99474026355419" lon="12.289503881387882"><ele>389.0</ele><time>2026-04-03T10:44:17.948Z</time></trkpt><trkpt lat="43.99484851266568" lon="12.289397750834437"><ele>389.0</ele><time>2026-04-03T10:44:18.948Z</time></trkpt><trkpt lat="43.99494764566908" lon="12.289268314797983"><ele>389.0</ele><time>2026-04-03T10:44:19.948Z</time></trkpt><trkpt lat="43.995046044003516" lon="12.289134140735845"><ele>389.0</ele><time>2026-04-03T10:44:20.948Z</time></trkpt><trkpt lat="43.99514422513195" lon="12.288984540624377"><ele>389.0</ele><time>2026-04-03T10:44:21.948Z</time></trkpt><trkpt lat="43.995238482855775" lon="12.288847319155773"><ele>390.25</ele><time>2026-04-03T10:44:22.948Z</time></trkpt><trkpt lat="43.995326464238325" lon="12.28870990352322"><ele>391.5</ele><time>2026-04-03T10:44:23.948Z</time></trkpt><trkpt lat="43.995397130559574" lon="12.288545026935466"><ele>392.75</ele><time>2026-04-03T10:44:24.948Z</time></trkpt><trkpt lat="43.99544550827533" lon="12.288342479175686"><ele>394.0</ele><time>2026-04-03T10:44:25.948Z</time></trkpt><trkpt lat="43.99548536584491" lon="12.288133955168421"><ele>392.33333333333337</ele><time>2026-04-03T10:44:26.948Z</time></trkpt><trkpt lat="43.99553721910371" lon="12.287931873212218"><ele>390.66666666666663</ele><time>2026-04-03T10:44:27.948Z</time></trkpt><trkpt lat="43.995597817049564" lon="12.287746260905863"><ele>389.0</ele><time>2026-04-03T10:44:28.948Z</time></trkpt><trkpt lat="43.99563272517739" lon="12.287545049826099"><ele>389.0</ele><time>2026-04-03T10:44:29.948Z</time></trkpt><trkpt lat="43.995654591308785" lon="12.28733314417329"><ele>389.0</ele><time>2026-04-03T10:44:30.948Z</time></trkpt><trkpt lat="43.9956551634243" lon="12.28710720511682"><ele>389.0</ele><time>2026-04-03T10:44:31.948Z</time></trkpt><trkpt lat="43.995640726691924" lon="12.286880715161764"><ele>389.66666666666663</ele><time>2026-04-03T10:44:32.948Z</time></trkpt><trkpt lat="43.995625629289734" lon="12.28665450433747"><ele>390.33333333333337</ele><time>2026-04-03T10:44:33.948Z</time></trkpt><trkpt lat="43.99560719074491" lon="12.286426016257138"><ele>391.0</ele><time>2026-04-03T10:44:34.948Z</time></trkpt><trkpt lat="43.99558606678082" lon="12.286199611244177"><ele>391.6666666666667</ele><time>2026-04-03T10:44:35.948Z</time></trkpt><trkpt lat="43.99555158534297" lon="12.285977126675414"><ele>392.33333333333337</ele><time>2026-04-03T10:44:36.948Z</time></trkpt><trkpt lat="43.99550433168001" lon="12.285765723579967"><ele>393.0</ele><time>2026-04-03T10:44:37.948Z</time></trkpt><trkpt lat="43.99543416802814" lon="12.285558222463877"><ele>393.0</ele><time>2026-04-03T10:44:38.948Z</time></trkpt><trkpt lat="43.995349453781735" lon="12.285357159238226"><ele>393.0</ele><time>2026-04-03T10:44:39.948Z</time></trkpt><trkpt lat="43.995250315949406" lon="12.285166792869441"><ele>393.0</ele><time>2026-04-03T10:44:40.948Z</time></trkpt><trkpt lat="43.995141221278075" lon="12.284976410164063"><ele>393.0</ele><time>2026-04-03T10:44:41.948Z</time></trkpt><trkpt lat="43.995044729137405" lon="12.284771993493132"><ele>393.0</ele><time>2026-04-03T10:44:42.948Z</time></trkpt><trkpt lat="43.99495233562957" lon="12.284559840555314"><ele>393.0</ele><time>2026-04-03T10:44:43.948Z</time></trkpt><trkpt lat="43.99487392777102" lon="12.284355660110524"><ele>394.33333333333337</ele><time>2026-04-03T10:44:44.948Z</time></trkpt><trkpt lat="43.99480518664887" lon="12.284165547570938"><ele>395.6666666666667</ele><time>2026-04-03T10:44:45.948Z</time></trkpt><trkpt lat="43.99472447453423" lon="12.28398835468056"><ele>397.0</ele><time>2026-04-03T10:44:46.948Z</time></trkpt><trkpt lat="43.99464150730684" lon="12.283818246447893"><ele>397.0</ele><time>2026-04-03T10:44:47.948Z</time></trkpt><trkpt lat="43.994545182787476" lon="12.283675791223652"><ele>397.0</ele><time>2026-04-03T10:44:48.948Z</time></trkpt><trkpt lat="43.994424193908095" lon="12.283532736445125"><ele>397.0</ele><time>2026-04-03T10:44:49.948Z</time></trkpt><trkpt lat="43.994295841209" lon="12.283405483755123"><ele>395.33333333333337</ele><time>2026-04-03T10:44:50.948Z</time></trkpt><trkpt lat="43.99415948613022" lon="12.28326811292161"><ele>393.66666666666663</ele><time>2026-04-03T10:44:51.948Z</time></trkpt><trkpt lat="43.99402006231218" lon="12.2831176132149"><ele>392.0</ele><time>2026-04-03T10:44:52.948Z</time></trkpt><trkpt lat="43.993876335282096" lon="12.282971406121767"><ele>392.0</ele><time>2026-04-03T10:44:53.948Z</time></trkpt><trkpt lat="43.99373708037482" lon="12.282831664411336"><ele>392.0</ele><time>2026-04-03T10:44:54.948Z</time></trkpt><trkpt lat="43.993604379576055" lon="12.282696197469566"><ele>392.0</ele><time>2026-04-03T10:44:55.948Z</time></trkpt><trkpt lat="43.99346793025226" lon="12.282561674413573"><ele>396.66666666666663</ele><time>2026-04-03T10:44:56.948Z</time></trkpt><trkpt lat="43.99332902524928" lon="12.282432890388852"><ele>401.33333333333337</ele><time>2026-04-03T10:44:57.948Z</time></trkpt><trkpt lat="43.99318882441849" lon="12.282311110421183"><ele>406.0</ele><time>2026-04-03T10:44:58.948Z</time></trkpt><trkpt lat="43.993054627251006" lon="12.28217690129317"><ele>406.0</ele><time>2026-04-03T10:44:59.948Z</time></trkpt><trkpt lat="43.99291341509014" lon="12.28204711754377"><ele>406.0</ele><time>2026-04-03T10:45:00.948Z</time></trkpt><trkpt lat="43.99277497080306" lon="12.281922275730699"><ele>406.0</ele><time>2026-04-03T10:45:01.948Z</time></trkpt><trkpt lat="43.99265432778757" lon="12.2818000426919"><ele>406.0</ele><time>2026-04-03T10:45:02.948Z</time></trkpt><trkpt lat="43.992542257868244" lon="12.281678344393148"><ele>406.0</ele><time>2026-04-03T10:45:03.948Z</time></trkpt><trkpt lat="43.99243378793367" lon="12.28157261458555"><ele>406.0</ele><time>2026-04-03T10:45:04.948Z</time></trkpt><trkpt lat="43.99231248092124" lon="12.28148227146033"><ele>406.0</ele><time>2026-04-03T10:45:05.948Z</time></trkpt><trkpt lat="43.99219823846612" lon="12.281425349461971"><ele>411.0</ele><time>2026-04-03T10:45:06.948Z</time></trkpt><trkpt lat="43.992084799211504" lon="12.28137470225143"><ele>416.0</ele><time>2026-04-03T10:45:07.948Z</time></trkpt><trkpt lat="43.99198563450693" lon="12.28129754002094"><ele>421.0</ele><time>2026-04-03T10:45:08.948Z</time></trkpt><trkpt lat="43.991904379279006" lon="12.281188973893281"><ele>426.0</ele><time>2026-04-03T10:45:09.948Z</time></trkpt><trkpt lat="43.991850327331036" lon="12.28106297216505"><ele>426.0</ele><time>2026-04-03T10:45:10.948Z</time></trkpt><trkpt lat="43.991828659725854" lon="12.28090459208881"><ele>426.0</ele><time>2026-04-03T10:45:11.948Z</time></trkpt><trkpt lat="43.991831902595024" lon="12.280750972177039"><ele>426.0</ele><time>2026-04-03T10:45:12.947Z</time></trkpt><trkpt lat="43.99185672119082" lon="12.2805717037888"><ele>426.0</ele><time>2026-04-03T10:45:13.947Z</time></trkpt><trkpt lat="43.99187649373057" lon="12.280388951628666"><ele>424.75</ele><time>2026-04-03T10:45:14.947Z</time></trkpt><trkpt lat="43.99189332036538" lon="12.280205909688911"><ele>423.5</ele><time>2026-04-03T10:45:15.947Z</time></trkpt><trkpt lat="43.99193091841775" lon="12.280020097482085"><ele>422.25</ele><time>2026-04-03T10:45:16.947Z</time></trkpt><trkpt lat="43.99195779201173" lon="12.279830382677426"><ele>421.0</ele><time>2026-04-03T10:45:17.947Z</time></trkpt><trkpt lat="43.991995024304295" lon="12.2796723974528"><ele>419.75</ele><time>2026-04-03T10:45:18.947Z</time></trkpt><trkpt lat="43.99204854201908" lon="12.279513553185648"><ele>418.5</ele><time>2026-04-03T10:45:19.947Z</time></trkpt><trkpt lat="43.99212179715932" lon="12.279362514991858"><ele>417.25</ele><time>2026-04-03T10:45:20.947Z</time></trkpt><trkpt lat="43.99218763223349" lon="12.279200250562956"><ele>416.0</ele><time>2026-04-03T10:45:21.947Z</time></trkpt><trkpt lat="43.99225677022726" lon="12.279034893403862"><ele>417.0</ele><time>2026-04-03T10:45:22.947Z</time></trkpt><trkpt lat="43.9923125140256" lon="12.278839960237576"><ele>418.0</ele><time>2026-04-03T10:45:23.947Z</time></trkpt><trkpt lat="43.9923667306373" lon="12.278662986500139"><ele>419.0</ele><time>2026-04-03T10:45:24.947Z</time></trkpt><trkpt lat="43.992415145382054" lon="12.278483816012276"><ele>420.0</ele><time>2026-04-03T10:45:25.947Z</time></trkpt><trkpt lat="43.99246572744385" lon="12.278312405729578"><ele>414.75</ele><time>2026-04-03T10:45:26.947Z</time></trkpt><trkpt lat="43.99252211768756" lon="12.278145944954913"><ele>409.5</ele><time>2026-04-03T10:45:27.945Z</time></trkpt><trkpt lat="43.99257965204568" lon="12.277976205957012"><ele>404.25</ele><time>2026-04-03T10:45:28.945Z</time></trkpt><trkpt lat="43.992621607744205" lon="12.277816463292583"><ele>399.0</ele><time>2026-04-03T10:45:29.945Z</time></trkpt><trkpt lat="43.99263984145795" lon="12.277664358859582"><ele>399.0</ele><time>2026-04-03T10:45:30.945Z</time></trkpt><trkpt lat="43.992648014350465" lon="12.277503371310786"><ele>399.0</ele><time>2026-04-03T10:45:31.945Z</time></trkpt><trkpt lat="43.99266386812343" lon="12.277338936813166"><ele>399.0</ele><time>2026-04-03T10:45:32.945Z</time></trkpt><trkpt lat="43.9926749449462" lon="12.27716873833405"><ele>399.0</ele><time>2026-04-03T10:45:33.945Z</time></trkpt><trkpt lat="43.992692825637604" lon="12.276988696427125"><ele>399.25</ele><time>2026-04-03T10:45:34.944Z</time></trkpt><trkpt lat="43.99271384856483" lon="12.276799763673255"><ele>399.5</ele><time>2026-04-03T10:45:35.944Z</time></trkpt><trkpt lat="43.99273260202175" lon="12.276596843008763"><ele>399.75</ele><time>2026-04-03T10:45:36.945Z</time></trkpt><trkpt lat="43.99275412502093" lon="12.276408549455908"><ele>400.0</ele><time>2026-04-03T10:45:37.945Z</time></trkpt><trkpt lat="43.99277727735139" lon="12.276219207799517"><ele>400.0</ele><time>2026-04-03T10:45:38.945Z</time></trkpt><trkpt lat="43.99280245658973" lon="12.276016443400486"><ele>400.0</ele><time>2026-04-03T10:45:39.945Z</time></trkpt><trkpt lat="43.992828643693144" lon="12.275810373449916"><ele>400.0</ele><time>2026-04-03T10:45:40.945Z</time></trkpt><trkpt lat="43.99285839609557" lon="12.275616869263773"><ele>400.0</ele><time>2026-04-03T10:45:41.945Z</time></trkpt><trkpt lat="43.992892275208646" lon="12.275427365247301"><ele>402.0</ele><time>2026-04-03T10:45:42.945Z</time></trkpt><trkpt lat="43.992934235495134" lon="12.275248006625086"><ele>404.0</ele><time>2026-04-03T10:45:43.945Z</time></trkpt><trkpt lat="43.99297900335063" lon="12.275070137101421"><ele>406.0</ele><time>2026-04-03T10:45:44.945Z</time></trkpt><trkpt lat="43.99302574652236" lon="12.274897163381867"><ele>408.0</ele><time>2026-04-03T10:45:45.945Z</time></trkpt><trkpt lat="43.99308078707355" lon="12.274736855138727"><ele>409.75</ele><time>2026-04-03T10:45:46.945Z</time></trkpt><trkpt lat="43.99313852008338" lon="12.274580495103137"><ele>411.5</ele><time>2026-04-03T10:45:47.945Z</time></trkpt><trkpt lat="43.99319002859932" lon="12.274414876609042"><ele>413.25</ele><time>2026-04-03T10:45:48.945Z</time></trkpt><trkpt lat="43.993240357798655" lon="12.274245107964592"><ele>415.0</ele><time>2026-04-03T10:45:49.945Z</time></trkpt><trkpt lat="43.993304159578145" lon="12.274080959107469"><ele>413.75</ele><time>2026-04-03T10:45:50.945Z</time></trkpt><trkpt lat="43.9933744329226" lon="12.273917454204796"><ele>412.5</ele><time>2026-04-03T10:45:51.945Z</time></trkpt><trkpt lat="43.993446938121316" lon="12.273762777677327"><ele>411.25</ele><time>2026-04-03T10:45:52.945Z</time></trkpt><trkpt lat="43.993521763497384" lon="12.273600857705206"><ele>410.0</ele><time>2026-04-03T10:45:53.945Z</time></trkpt><trkpt lat="43.993597962747465" lon="12.273438910681126"><ele>410.0</ele><time>2026-04-03T10:45:54.945Z</time></trkpt><trkpt lat="43.993679512543615" lon="12.273276502611902"><ele>410.0</ele><time>2026-04-03T10:45:55.945Z</time></trkpt><trkpt lat="43.99376241094142" lon="12.27311744717462"><ele>410.0</ele><time>2026-04-03T10:45:56.945Z</time></trkpt><trkpt lat="43.99383561260413" lon="12.272966415034306"><ele>410.0</ele><time>2026-04-03T10:45:57.945Z</time></trkpt><trkpt lat="43.993904390767014" lon="12.272815125788727"><ele>411.2</ele><time>2026-04-03T10:45:58.945Z</time></trkpt><trkpt lat="43.99397308466103" lon="12.27267510250351"><ele>412.4</ele><time>2026-04-03T10:45:59.945Z</time></trkpt><trkpt lat="43.994041993597044" lon="12.27254031612066"><ele>413.6</ele><time>2026-04-03T10:46:00.945Z</time></trkpt><trkpt lat="43.99409023277424" lon="12.272411168269313"><ele>414.8</ele><time>2026-04-03T10:46:01.945Z</time></trkpt><trkpt lat="43.99411276168468" lon="12.272276495782652"><ele>416.0</ele><time>2026-04-03T10:46:02.945Z</time></trkpt><trkpt lat="43.99409116303291" lon="12.272129476715723"><ele>417.75</ele><time>2026-04-03T10:46:03.945Z</time></trkpt><trkpt lat="43.99403185473405" lon="12.27198173933393"><ele>419.5</ele><time>2026-04-03T10:46:04.945Z</time></trkpt><trkpt lat="43.99396811994111" lon="12.271839813852653"><ele>421.25</ele><time>2026-04-03T10:46:05.945Z</time></trkpt><trkpt lat="43.99389069091664" lon="12.271695640620282"><ele>423.0</ele><time>2026-04-03T10:46:06.945Z</time></trkpt><trkpt lat="43.993803809503795" lon="12.27154269359141"><ele>425.25</ele><time>2026-04-03T10:46:07.945Z</time></trkpt><trkpt lat="43.9937070122962" lon="12.271392745242071"><ele>427.5</ele><time>2026-04-03T10:46:08.945Z</time></trkpt><trkpt lat="43.99362224173123" lon="12.271223887785624"><ele>429.75</ele><time>2026-04-03T10:46:09.945Z</time></trkpt><trkpt lat="43.99355134957075" lon="12.271068413230125"><ele>432.0</ele><time>2026-04-03T10:46:10.945Z</time></trkpt><trkpt lat="43.99349114192958" lon="12.27092325988697"><ele>432.0</ele><time>2026-04-03T10:46:11.945Z</time></trkpt><trkpt lat="43.99344795240206" lon="12.270782102062041"><ele>432.0</ele><time>2026-04-03T10:46:12.945Z</time></trkpt><trkpt lat="43.99343163870797" lon="12.270599436952716"><ele>432.0</ele><time>2026-04-03T10:46:13.945Z</time></trkpt><trkpt lat="43.99343494493729" lon="12.270406564676009"><ele>432.0</ele><time>2026-04-03T10:46:14.944Z</time></trkpt><trkpt lat="43.99343441813335" lon="12.27019430771805"><ele>435.66666666666663</ele><time>2026-04-03T10:46:15.944Z</time></trkpt><trkpt lat="43.99344977604003" lon="12.269990381575157"><ele>439.3333333333333</ele><time>2026-04-03T10:46:16.944Z</time></trkpt><trkpt lat="43.99345702873131" lon="12.2697685268093"><ele>443.0</ele><time>2026-04-03T10:46:17.944Z</time></trkpt><trkpt lat="43.9934753396456" lon="12.269541345584823"><ele>445.66666666666663</ele><time>2026-04-03T10:46:18.944Z</time></trkpt><trkpt lat="43.99348590559891" lon="12.26932091687316"><ele>448.33333333333337</ele><time>2026-04-03T10:46:19.944Z</time></trkpt><trkpt lat="43.99349675272241" lon="12.269104400836003"><ele>451.0</ele><time>2026-04-03T10:46:20.944Z</time></trkpt><trkpt lat="43.993504312185564" lon="12.268882143501887"><ele>451.0</ele><time>2026-04-03T10:46:21.944Z</time></trkpt><trkpt lat="43.9935142665113" lon="12.268672098860005"><ele>451.0</ele><time>2026-04-03T10:46:22.944Z</time></trkpt><trkpt lat="43.993523433820165" lon="12.268461332283184"><ele>451.0</ele><time>2026-04-03T10:46:23.944Z</time></trkpt><trkpt lat="43.99352614448765" lon="12.268252042236927"><ele>451.5</ele><time>2026-04-03T10:46:24.944Z</time></trkpt><trkpt lat="43.99352172808216" lon="12.268046942568446"><ele>452.0</ele><time>2026-04-03T10:46:25.944Z</time></trkpt><trkpt lat="43.99350146425689" lon="12.267852125925648"><ele>452.5</ele><time>2026-04-03T10:46:26.944Z</time></trkpt><trkpt lat="43.99347097783458" lon="12.267656296437224"><ele>453.0</ele><time>2026-04-03T10:46:27.944Z</time></trkpt><trkpt lat="43.99342079372886" lon="12.267462380037827"><ele>453.0</ele><time>2026-04-03T10:46:28.944Z</time></trkpt><trkpt lat="43.993340761055904" lon="12.267284003848534"><ele>453.0</ele><time>2026-04-03T10:46:29.944Z</time></trkpt><trkpt lat="43.99325197654033" lon="12.267128974979425"><ele>453.0</ele><time>2026-04-03T10:46:30.944Z</time></trkpt><trkpt lat="43.993159244165746" lon="12.266994492477462"><ele>453.0</ele><time>2026-04-03T10:46:31.944Z</time></trkpt><trkpt lat="43.99306425373172" lon="12.266892417628481"><ele>450.75</ele><time>2026-04-03T10:46:32.944Z</time></trkpt><trkpt lat="43.99295892633312" lon="12.266825232094511"><ele>448.5</ele><time>2026-04-03T10:46:33.944Z</time></trkpt><trkpt lat="43.99284065956325" lon="12.266794035727987"><ele>446.25</ele><time>2026-04-03T10:46:34.944Z</time></trkpt><trkpt lat="43.99272257589565" lon="12.266787003702628"><ele>444.0</ele><time>2026-04-03T10:46:35.944Z</time></trkpt><trkpt lat="43.99260244080038" lon="12.266803980894883"><ele>445.75</ele><time>2026-04-03T10:46:36.944Z</time></trkpt><trkpt lat="43.992487030830844" lon="12.266840856918543"><ele>447.5</ele><time>2026-04-03T10:46:37.944Z</time></trkpt><trkpt lat="43.99236597387011" lon="12.266878924788992"><ele>449.25</ele><time>2026-04-03T10:46:38.944Z</time></trkpt><trkpt lat="43.99223481727362" lon="12.266917216201517"><ele>451.0</ele><time>2026-04-03T10:46:39.944Z</time></trkpt><trkpt lat="43.992109442365184" lon="12.266961230605647"><ele>451.0</ele><time>2026-04-03T10:46:40.944Z</time></trkpt><trkpt lat="43.99198998958916" lon="12.267009047652978"><ele>451.0</ele><time>2026-04-03T10:46:41.944Z</time></trkpt><trkpt lat="43.99188475839683" lon="12.267050606659058"><ele>451.0</ele><time>2026-04-03T10:46:42.944Z</time></trkpt><trkpt lat="43.99178809635136" lon="12.267080771729743"><ele>451.0</ele><time>2026-04-03T10:46:43.944Z</time></trkpt><trkpt lat="43.99169081568328" lon="12.267061161515478"><ele>451.0</ele><time>2026-04-03T10:46:44.944Z</time></trkpt><trkpt lat="43.99159860770845" lon="12.266992829330981"><ele>450.4</ele><time>2026-04-03T10:46:45.944Z</time></trkpt><trkpt lat="43.99152861742511" lon="12.266895897580913"><ele>449.8</ele><time>2026-04-03T10:46:46.944Z</time></trkpt><trkpt lat="43.99147886593405" lon="12.266766510920728"><ele>449.19999999999993</ele><time>2026-04-03T10:46:47.944Z</time></trkpt><trkpt lat="43.991435580750114" lon="12.266615541087829"><ele>448.59999999999997</ele><time>2026-04-03T10:46:48.944Z</time></trkpt><trkpt lat="43.991399146336455" lon="12.266453931228007"><ele>448.0</ele><time>2026-04-03T10:46:49.944Z</time></trkpt><trkpt lat="43.9913702713208" lon="12.26627162765066"><ele>450.5</ele><time>2026-04-03T10:46:50.944Z</time></trkpt><trkpt lat="43.99133989534479" lon="12.266082791806515"><ele>453.0</ele><time>2026-04-03T10:46:51.944Z</time></trkpt><trkpt lat="43.991330608199135" lon="12.265893038942115"><ele>455.5</ele><time>2026-04-03T10:46:52.944Z</time></trkpt><trkpt lat="43.99131957911905" lon="12.26569292013757"><ele>458.0</ele><time>2026-04-03T10:46:53.944Z</time></trkpt><trkpt lat="43.99129508789435" lon="12.265503173424442"><ele>460.5</ele><time>2026-04-03T10:46:54.944Z</time></trkpt><trkpt lat="43.99126411629053" lon="12.265305882759524"><ele>463.0</ele><time>2026-04-03T10:46:55.944Z</time></trkpt><trkpt lat="43.991234853100366" lon="12.265116055308978"><ele>465.5</ele><time>2026-04-03T10:46:56.944Z</time></trkpt><trkpt lat="43.99121302872133" lon="12.264924805466967"><ele>468.0</ele><time>2026-04-03T10:46:57.944Z</time></trkpt><trkpt lat="43.991200024862984" lon="12.264757615838352"><ele>468.79999999999995</ele><time>2026-04-03T10:46:58.944Z</time></trkpt><trkpt lat="43.991197508045055" lon="12.264598386982179"><ele>469.59999999999997</ele><time>2026-04-03T10:46:59.944Z</time></trkpt><trkpt lat="43.99119191395892" lon="12.264440276907129"><ele>470.40000000000003</ele><time>2026-04-03T10:47:00.944Z</time></trkpt><trkpt lat="43.99119001137941" lon="12.264288855364226"><ele>471.20000000000005</ele><time>2026-04-03T10:47:01.944Z</time></trkpt><trkpt lat="43.99116520487901" lon="12.264155516276583"><ele>472.0</ele><time>2026-04-03T10:47:02.944Z</time></trkpt><trkpt lat="43.991101729773725" lon="12.264025467764618"><ele>474.0</ele><time>2026-04-03T10:47:03.944Z</time></trkpt><trkpt lat="43.991013890915795" lon="12.263917153316184"><ele>476.0</ele><time>2026-04-03T10:47:04.944Z</time></trkpt><trkpt lat="43.99091216507597" lon="12.26382178781674"><ele>478.0</ele><time>2026-04-03T10:47:05.944Z</time></trkpt><trkpt lat="43.99082548418738" lon="12.263712696082646"><ele>480.0</ele><time>2026-04-03T10:47:06.944Z</time></trkpt><trkpt lat="43.99075418306054" lon="12.263579546074842"><ele>475.5</ele><time>2026-04-03T10:47:07.944Z</time></trkpt><trkpt lat="43.99070875262394" lon="12.26341370968634"><ele>471.0</ele><time>2026-04-03T10:47:08.944Z</time></trkpt><trkpt lat="43.99068257153574" lon="12.263211351728643"><ele>466.5</ele><time>2026-04-03T10:47:09.944Z</time></trkpt><trkpt lat="43.990653058814495" lon="12.263003106239795"><ele>462.0</ele><time>2026-04-03T10:47:10.944Z</time></trkpt><trkpt lat="43.9906258388162" lon="12.262786723190413"><ele>462.0</ele><time>2026-04-03T10:47:11.944Z</time></trkpt><trkpt lat="43.99059599528169" lon="12.262560953027396"><ele>462.0</ele><time>2026-04-03T10:47:12.944Z</time></trkpt><trkpt lat="43.99057291648883" lon="12.262344243058152"><ele>462.0</ele><time>2026-04-03T10:47:13.944Z</time></trkpt><trkpt lat="43.99055400704469" lon="12.262130219489578"><ele>464.66666666666663</ele><time>2026-04-03T10:47:14.944Z</time></trkpt><trkpt lat="43.990528025435694" lon="12.261931875669283"><ele>467.3333333333333</ele><time>2026-04-03T10:47:15.944Z</time></trkpt><trkpt lat="43.9904913749756" lon="12.26172396249323"><ele>470.0</ele><time>2026-04-03T10:47:16.944Z</time></trkpt><trkpt lat="43.99044479920789" lon="12.261518672652297"><ele>470.75</ele><time>2026-04-03T10:47:17.944Z</time></trkpt><trkpt lat="43.99039491063212" lon="12.261319967572138"><ele>471.5</ele><time>2026-04-03T10:47:18.944Z</time></trkpt><trkpt lat="43.9903633764355" lon="12.261128819108176"><ele>472.25</ele><time>2026-04-03T10:47:19.944Z</time></trkpt><trkpt lat="43.99034384912814" lon="12.260936841244586"><ele>473.0</ele><time>2026-04-03T10:47:20.944Z</time></trkpt><trkpt lat="43.99033508977619" lon="12.26074820477054"><ele>472.25</ele><time>2026-04-03T10:47:21.944Z</time></trkpt><trkpt lat="43.990337274810976" lon="12.260555387172738"><ele>471.5</ele><time>2026-04-03T10:47:22.944Z</time></trkpt><trkpt lat="43.99034873122806" lon="12.260367016053024"><ele>470.75</ele><time>2026-04-03T10:47:23.944Z</time></trkpt><trkpt lat="43.990382814268735" lon="12.260165802908611"><ele>470.0</ele><time>2026-04-03T10:47:24.944Z</time></trkpt><trkpt lat="43.99042443507637" lon="12.259976266181086"><ele>469.3333333333333</ele><time>2026-04-03T10:47:25.944Z</time></trkpt><trkpt lat="43.990464042847044" lon="12.259780375426004"><ele>468.66666666666663</ele><time>2026-04-03T10:47:26.944Z</time></trkpt><trkpt lat="43.99048008037754" lon="12.25957427725014"><ele>468.0</ele><time>2026-04-03T10:47:27.944Z</time></trkpt><trkpt lat="43.99047111911039" lon="12.259356955659003"><ele>468.0</ele><time>2026-04-03T10:47:28.944Z</time></trkpt><trkpt lat="43.99045267706991" lon="12.259137129311137"><ele>468.0</ele><time>2026-04-03T10:47:29.944Z</time></trkpt><trkpt lat="43.99043915208205" lon="12.258912805268112"><ele>468.0</ele><time>2026-04-03T10:47:30.944Z</time></trkpt><trkpt lat="43.99043630786381" lon="12.258692782989614"><ele>467.5</ele><time>2026-04-03T10:47:31.944Z</time></trkpt><trkpt lat="43.9904400537716" lon="12.258487787808239"><ele>467.0</ele><time>2026-04-03T10:47:32.944Z</time></trkpt><trkpt lat="43.99045815343564" lon="12.258301846882937"><ele>466.5</ele><time>2026-04-03T10:47:33.942Z</time></trkpt><trkpt lat="43.99048060920415" lon="12.258121160310784"><ele>466.0</ele><time>2026-04-03T10:47:34.941Z</time></trkpt><trkpt lat="43.99050905716593" lon="12.257946668484472"><ele>463.75</ele><time>2026-04-03T10:47:35.941Z</time></trkpt><trkpt lat="43.99053689272847" lon="12.257791509524939"><ele>461.5</ele><time>2026-04-03T10:47:36.941Z</time></trkpt><trkpt lat="43.9905559035953" lon="12.257636113939167"><ele>459.25</ele><time>2026-04-03T10:47:37.941Z</time></trkpt><trkpt lat="43.990568638465135" lon="12.2574698324322"><ele>457.0</ele><time>2026-04-03T10:47:38.941Z</time></trkpt><trkpt lat="43.99058593995245" lon="12.257295981372563"><ele>455.5</ele><time>2026-04-03T10:47:39.941Z</time></trkpt><trkpt lat="43.990603718014434" lon="12.257114802595863"><ele>454.0</ele><time>2026-04-03T10:47:40.942Z</time></trkpt><trkpt lat="43.99061645224125" lon="12.25693037830892"><ele>452.5</ele><time>2026-04-03T10:47:41.942Z</time></trkpt><trkpt lat="43.99060937208593" lon="12.256763649207015"><ele>451.0</ele><time>2026-04-03T10:47:42.941Z</time></trkpt><trkpt lat="43.990591168344054" lon="12.256589384882632"><ele>447.5</ele><time>2026-04-03T10:47:43.941Z</time></trkpt><trkpt lat="43.99055219714621" lon="12.256412459452433"><ele>444.0</ele><time>2026-04-03T10:47:44.941Z</time></trkpt><trkpt lat="43.990505583147105" lon="12.256229172764634"><ele>440.5</ele><time>2026-04-03T10:47:45.941Z</time></trkpt><trkpt lat="43.990453360013916" lon="12.256020272817068"><ele>437.0</ele><time>2026-04-03T10:47:46.941Z</time></trkpt><trkpt lat="43.9904149811502" lon="12.255821012718783"><ele>434.5</ele><time>2026-04-03T10:47:47.941Z</time></trkpt><trkpt lat="43.99038940174319" lon="12.25561879682378"><ele>432.0</ele><time>2026-04-03T10:47:48.941Z</time></trkpt><trkpt lat="43.99037035741577" lon="12.25542302617412"><ele>429.5</ele><time>2026-04-03T10:47:49.941Z</time></trkpt><trkpt lat="43.990368082374026" lon="12.255225793057017"><ele>427.0</ele><time>2026-04-03T10:47:50.941Z</time></trkpt><trkpt lat="43.990375331887115" lon="12.255048003634032"><ele>427.0</ele><time>2026-04-03T10:47:51.941Z</time></trkpt><trkpt lat="43.9903871917355" lon="12.25487676081735"><ele>427.0</ele><time>2026-04-03T10:47:52.941Z</time></trkpt><trkpt lat="43.99041175540065" lon="12.254709521800956"><ele>427.0</ele><time>2026-04-03T10:47:53.941Z</time></trkpt><trkpt lat="43.99043937041192" lon="12.254548256939872"><ele>427.0</ele><time>2026-04-03T10:47:54.941Z</time></trkpt><trkpt lat="43.99045575500157" lon="12.254388210494385"><ele>427.0</ele><time>2026-04-03T10:47:55.941Z</time></trkpt><trkpt lat="43.99045309314317" lon="12.254236316495774"><ele>427.00000000000006</ele><time>2026-04-03T10:47:56.941Z</time></trkpt><trkpt lat="43.99045267780335" lon="12.254082746376916"><ele>427.00000000000006</ele><time>2026-04-03T10:47:57.941Z</time></trkpt><trkpt lat="43.99044937091147" lon="12.25394173696582"><ele>427.0</ele><time>2026-04-03T10:47:58.941Z</time></trkpt><trkpt lat="43.99044551943083" lon="12.253802251290153"><ele>427.0</ele><time>2026-04-03T10:47:59.941Z</time></trkpt><trkpt lat="43.99045385602809" lon="12.253674638072008"><ele>427.0</ele><time>2026-04-03T10:48:00.941Z</time></trkpt><trkpt lat="43.99050910225193" lon="12.253447735331106"><ele>427.00000000000006</ele><time>2026-04-03T10:48:02.941Z</time></trkpt><trkpt lat="43.990548888758006" lon="12.253338680692007"><ele>427.00000000000006</ele><time>2026-04-03T10:48:03.941Z</time></trkpt><trkpt lat="43.99058115674477" lon="12.253232524696681"><ele>427.0</ele><time>2026-04-03T10:48:04.941Z</time></trkpt><trkpt lat="43.99061093638022" lon="12.25310959055301"><ele>427.0</ele><time>2026-04-03T10:48:05.941Z</time></trkpt><trkpt lat="43.99064181508338" lon="12.252973395205666"><ele>428.20000000000005</ele><time>2026-04-03T10:48:06.941Z</time></trkpt><trkpt lat="43.99068218137605" lon="12.252834022572623"><ele>429.40000000000003</ele><time>2026-04-03T10:48:07.941Z</time></trkpt><trkpt lat="43.99073356693067" lon="12.252698673706073"><ele>430.59999999999997</ele><time>2026-04-03T10:48:08.941Z</time></trkpt><trkpt lat="43.99079437054139" lon="12.252570473100896"><ele>431.79999999999995</ele><time>2026-04-03T10:48:09.941Z</time></trkpt><trkpt lat="43.990861638321284" lon="12.25244068900134"><ele>433.0</ele><time>2026-04-03T10:48:10.941Z</time></trkpt><trkpt lat="43.990941320245376" lon="12.252316982027855"><ele>431.2</ele><time>2026-04-03T10:48:11.941Z</time></trkpt><trkpt lat="43.99099921258535" lon="12.252201480644185"><ele>429.4</ele><time>2026-04-03T10:48:12.941Z</time></trkpt><trkpt lat="43.99104626775452" lon="12.252092252578656"><ele>427.59999999999997</ele><time>2026-04-03T10:48:13.941Z</time></trkpt><trkpt lat="43.991083830366954" lon="12.25197306827473"><ele>425.79999999999995</ele><time>2026-04-03T10:48:14.941Z</time></trkpt><trkpt lat="43.991129700865244" lon="12.251842716142262"><ele>424.0</ele><time>2026-04-03T10:48:15.941Z</time></trkpt><trkpt lat="43.99118958081872" lon="12.251733140433254"><ele>424.0</ele><time>2026-04-03T10:48:16.941Z</time></trkpt><trkpt lat="43.991260651016404" lon="12.251637022252163"><ele>424.0</ele><time>2026-04-03T10:48:17.941Z</time></trkpt><trkpt lat="43.99134197725416" lon="12.251555669643002"><ele>424.0</ele><time>2026-04-03T10:48:18.941Z</time></trkpt><trkpt lat="43.99143234348534" lon="12.251501260621376"><ele>424.0</ele><time>2026-04-03T10:48:19.941Z</time></trkpt><trkpt lat="43.99153444005932" lon="12.251497952946439"><ele>424.0</ele><time>2026-04-03T10:48:20.941Z</time></trkpt><trkpt lat="43.99164237141986" lon="12.251534284893662"><ele>420.75</ele><time>2026-04-03T10:48:21.941Z</time></trkpt><trkpt lat="43.991756701480696" lon="12.251574964073269"><ele>417.5</ele><time>2026-04-03T10:48:22.941Z</time></trkpt><trkpt lat="43.99186512824183" lon="12.25161114431759"><ele>414.25</ele><time>2026-04-03T10:48:23.941Z</time></trkpt><trkpt lat="43.991975284789426" lon="12.251627999755906"><ele>411.0</ele><time>2026-04-03T10:48:24.941Z</time></trkpt><trkpt lat="43.99208600087233" lon="12.251615190323756"><ele>411.0</ele><time>2026-04-03T10:48:25.941Z</time></trkpt><trkpt lat="43.99218282402894" lon="12.251571523977834"><ele>411.0</ele><time>2026-04-03T10:48:26.941Z</time></trkpt><trkpt lat="43.99227525912984" lon="12.25150253468035"><ele>411.0</ele><time>2026-04-03T10:48:27.941Z</time></trkpt><trkpt lat="43.99236566559019" lon="12.251420419963592"><ele>411.0</ele><time>2026-04-03T10:48:28.941Z</time></trkpt><trkpt lat="43.99245894736705" lon="12.251337956097034"><ele>411.0</ele><time>2026-04-03T10:48:29.941Z</time></trkpt><trkpt lat="43.992554999839854" lon="12.251259089612903"><ele>405.20000000000005</ele><time>2026-04-03T10:48:30.941Z</time></trkpt><trkpt lat="43.992649758661415" lon="12.251191322165594"><ele>399.40000000000003</ele><time>2026-04-03T10:48:31.941Z</time></trkpt><trkpt lat="43.99273647052085" lon="12.251132913788462"><ele>393.6</ele><time>2026-04-03T10:48:32.941Z</time></trkpt><trkpt lat="43.9928275541828" lon="12.251080927423539"><ele>387.8</ele><time>2026-04-03T10:48:33.941Z</time></trkpt><trkpt lat="43.99291005299566" lon="12.251011869218157"><ele>382.0</ele><time>2026-04-03T10:48:34.941Z</time></trkpt><trkpt lat="43.992972404582" lon="12.25093624035131"><ele>382.0</ele><time>2026-04-03T10:48:35.941Z</time></trkpt><trkpt lat="43.9930134030835" lon="12.250834275215222"><ele>382.0</ele><time>2026-04-03T10:48:36.941Z</time></trkpt><trkpt lat="43.99302518873699" lon="12.250723302008627"><ele>382.0</ele><time>2026-04-03T10:48:37.941Z</time></trkpt><trkpt lat="43.992999138823315" lon="12.250605680223993"><ele>382.0</ele><time>2026-04-03T10:48:38.941Z</time></trkpt><trkpt lat="43.992951787205456" lon="12.250495457279552"><ele>382.0</ele><time>2026-04-03T10:48:39.941Z</time></trkpt><trkpt lat="43.99288510180955" lon="12.250413192793237"><ele>382.0</ele><time>2026-04-03T10:48:40.941Z</time></trkpt><trkpt lat="43.99280969861558" lon="12.250371841787821"><ele>383.16666666666663</ele><time>2026-04-03T10:48:41.941Z</time></trkpt><trkpt lat="43.992726610368315" lon="12.250376006829065"><ele>384.3333333333333</ele><time>2026-04-03T10:48:42.941Z</time></trkpt><trkpt lat="43.992645349463" lon="12.250411239003812"><ele>385.5</ele><time>2026-04-03T10:48:43.941Z</time></trkpt><trkpt lat="43.99257530455617" lon="12.250469300592107"><ele>386.66666666666663</ele><time>2026-04-03T10:48:44.941Z</time></trkpt><trkpt lat="43.99250705187069" lon="12.250532015049405"><ele>387.8333333333333</ele><time>2026-04-03T10:48:45.941Z</time></trkpt><trkpt lat="43.99244443133195" lon="12.250592271506758"><ele>389.0</ele><time>2026-04-03T10:48:46.941Z</time></trkpt><trkpt lat="43.99234074532691" lon="12.250621540382122"><ele>388.99999999999994</ele><time>2026-04-03T10:48:48.941Z</time></trkpt><trkpt lat="43.99227749841357" lon="12.25052711637785"><ele>389.0</ele><time>2026-04-03T10:48:50.941Z</time></trkpt><trkpt lat="43.99231023396236" lon="12.25037777960134"><ele>389.0</ele><time>2026-04-03T10:48:52.941Z</time></trkpt><trkpt lat="43.99235980696201" lon="12.250297742521921"><ele>389.0</ele><time>2026-04-03T10:48:53.941Z</time></trkpt><trkpt lat="43.99241660847674" lon="12.25021295674571"><ele>388.99999999999994</ele><time>2026-04-03T10:48:54.941Z</time></trkpt><trkpt lat="43.992480743373456" lon="12.250136606822645"><ele>389.0</ele><time>2026-04-03T10:48:55.941Z</time></trkpt><trkpt lat="43.992544298737386" lon="12.250077407963328"><ele>385.16666666666663</ele><time>2026-04-03T10:48:56.941Z</time></trkpt><trkpt lat="43.99261234052381" lon="12.250028119393091"><ele>381.3333333333333</ele><time>2026-04-03T10:48:57.941Z</time></trkpt><trkpt lat="43.992676410121824" lon="12.249987839124072"><ele>377.5</ele><time>2026-04-03T10:48:58.941Z</time></trkpt><trkpt lat="43.99280363130052" lon="12.249989750904376"><ele>373.66666666666663</ele><time>2026-04-03T10:49:00.941Z</time></trkpt><trkpt lat="43.992861389229866" lon="12.25002568264225"><ele>369.8333333333333</ele><time>2026-04-03T10:49:01.941Z</time></trkpt><trkpt lat="43.992928926107204" lon="12.250069185108618"><ele>366.0</ele><time>2026-04-03T10:49:02.941Z</time></trkpt><trkpt lat="43.993004015841144" lon="12.250117749445288"><ele>366.0</ele><time>2026-04-03T10:49:03.941Z</time></trkpt><trkpt lat="43.993082587133706" lon="12.250164995477027"><ele>366.0</ele><time>2026-04-03T10:49:04.941Z</time></trkpt><trkpt lat="43.99316252434476" lon="12.250218375331302"><ele>366.0</ele><time>2026-04-03T10:49:05.941Z</time></trkpt><trkpt lat="43.993243250848145" lon="12.250276920647552"><ele>366.0</ele><time>2026-04-03T10:49:06.941Z</time></trkpt><trkpt lat="43.99331326787015" lon="12.25035016884873"><ele>366.0</ele><time>2026-04-03T10:49:07.941Z</time></trkpt><trkpt lat="43.993375508612445" lon="12.250429569897433"><ele>366.0</ele><time>2026-04-03T10:49:08.941Z</time></trkpt><trkpt lat="43.99343514544809" lon="12.25052192667876"><ele>363.6</ele><time>2026-04-03T10:49:09.941Z</time></trkpt><trkpt lat="43.993501076765085" lon="12.250608360925675"><ele>361.20000000000005</ele><time>2026-04-03T10:49:10.941Z</time></trkpt><trkpt lat="43.9935820004251" lon="12.250670799241608"><ele>358.79999999999995</ele><time>2026-04-03T10:49:11.941Z</time></trkpt><trkpt lat="43.99367022062179" lon="12.250706414463314"><ele>356.4</ele><time>2026-04-03T10:49:12.941Z</time></trkpt><trkpt lat="43.99376692137998" lon="12.250690833527683"><ele>354.0</ele><time>2026-04-03T10:49:13.941Z</time></trkpt><trkpt lat="43.99386429467303" lon="12.2506574206387"><ele>354.0</ele><time>2026-04-03T10:49:14.941Z</time></trkpt><trkpt lat="43.99396037201651" lon="12.250590672267048"><ele>354.0</ele><time>2026-04-03T10:49:15.941Z</time></trkpt><trkpt lat="43.99401569279456" lon="12.250547004054956"><ele>354.0</ele><time>2026-04-03T10:49:16.941Z</time></trkpt><trkpt lat="43.994096258816576" lon="12.250487110517291"><ele>354.0</ele><time>2026-04-03T10:49:17.941Z</time></trkpt><trkpt lat="43.99419870879353" lon="12.250420136391746"><ele>354.0</ele><time>2026-04-03T10:49:18.941Z</time></trkpt><trkpt lat="43.99429414561435" lon="12.250328065704426"><ele>351.75</ele><time>2026-04-03T10:49:19.941Z</time></trkpt><trkpt lat="43.99436586751477" lon="12.2502131669061"><ele>349.5</ele><time>2026-04-03T10:49:20.941Z</time></trkpt><trkpt lat="43.994410245068565" lon="12.250074243945441"><ele>347.25</ele><time>2026-04-03T10:49:21.941Z</time></trkpt><trkpt lat="43.994426648824735" lon="12.249908240365047"><ele>345.0</ele><time>2026-04-03T10:49:22.941Z</time></trkpt><trkpt lat="43.99444794481228" lon="12.249752974238342"><ele>345.0</ele><time>2026-04-03T10:49:23.941Z</time></trkpt><trkpt lat="43.99448540238783" lon="12.249610668862518"><ele>345.0</ele><time>2026-04-03T10:49:24.941Z</time></trkpt><trkpt lat="43.994539654356274" lon="12.249480888368975"><ele>345.0</ele><time>2026-04-03T10:49:25.941Z</time></trkpt><trkpt lat="43.994609953003305" lon="12.249368902897839"><ele>345.0</ele><time>2026-04-03T10:49:26.941Z</time></trkpt><trkpt lat="43.994705684991246" lon="12.24929681405484"><ele>345.0</ele><time>2026-04-03T10:49:27.941Z</time></trkpt><trkpt lat="43.994797954957804" lon="12.249215225542095"><ele>345.0</ele><time>2026-04-03T10:49:28.941Z</time></trkpt><trkpt lat="43.994870813958656" lon="12.249113941110927"><ele>345.0</ele><time>2026-04-03T10:49:29.941Z</time></trkpt><trkpt lat="43.99492793524835" lon="12.248973218993035"><ele>345.0</ele><time>2026-04-03T10:49:30.941Z</time></trkpt><trkpt lat="43.99498140175556" lon="12.248814273224744"><ele>345.0</ele><time>2026-04-03T10:49:31.941Z</time></trkpt><trkpt lat="43.99503221978551" lon="12.24865108366204"><ele>345.25</ele><time>2026-04-03T10:49:32.941Z</time></trkpt><trkpt lat="43.995092725203655" lon="12.248486581592493"><ele>345.5</ele><time>2026-04-03T10:49:33.941Z</time></trkpt><trkpt lat="43.99515668197328" lon="12.248324692286916"><ele>345.75</ele><time>2026-04-03T10:49:34.941Z</time></trkpt><trkpt lat="43.99521238009247" lon="12.248169776689812"><ele>346.0</ele><time>2026-04-03T10:49:35.941Z</time></trkpt><trkpt lat="43.99526694656155" lon="12.248017451526042"><ele>344.0</ele><time>2026-04-03T10:49:36.941Z</time></trkpt><trkpt lat="43.995327852213606" lon="12.247864754355886"><ele>342.0</ele><time>2026-04-03T10:49:37.941Z</time></trkpt><trkpt lat="43.99539275362176" lon="12.247717060138948"><ele>340.0</ele><time>2026-04-03T10:49:38.941Z</time></trkpt><trkpt lat="43.99546353216282" lon="12.247586587658494"><ele>338.0</ele><time>2026-04-03T10:49:39.938Z</time></trkpt><trkpt lat="43.995533464763" lon="12.247479003597572"><ele>338.0</ele><time>2026-04-03T10:49:40.938Z</time></trkpt><trkpt lat="43.995596873806754" lon="12.24737733483542"><ele>338.0</ele><time>2026-04-03T10:49:41.938Z</time></trkpt><trkpt lat="43.99564894960416" lon="12.247269081598697"><ele>338.0</ele><time>2026-04-03T10:49:42.938Z</time></trkpt><trkpt lat="43.99566872126028" lon="12.247153996164556"><ele>338.0</ele><time>2026-04-03T10:49:43.937Z</time></trkpt><trkpt lat="43.995658322418876" lon="12.247030372064632"><ele>338.0</ele><time>2026-04-03T10:49:44.937Z</time></trkpt><trkpt lat="43.99562076476237" lon="12.246907487994523"><ele>336.0</ele><time>2026-04-03T10:49:45.937Z</time></trkpt><trkpt lat="43.9955897697679" lon="12.246783264497658"><ele>334.0</ele><time>2026-04-03T10:49:46.937Z</time></trkpt><trkpt lat="43.99558317338987" lon="12.246642634331893"><ele>332.0</ele><time>2026-04-03T10:49:47.937Z</time></trkpt><trkpt lat="43.995607382647506" lon="12.246522188625047"><ele>330.0</ele><time>2026-04-03T10:49:48.937Z</time></trkpt><trkpt lat="43.995658443310994" lon="12.246430739686236"><ele>328.0</ele><time>2026-04-03T10:49:49.937Z</time></trkpt><trkpt lat="43.995731170040784" lon="12.246365222967242"><ele>325.79999999999995</ele><time>2026-04-03T10:49:50.937Z</time></trkpt><trkpt lat="43.995811208500605" lon="12.246310784578073"><ele>323.59999999999997</ele><time>2026-04-03T10:49:51.937Z</time></trkpt><trkpt lat="43.99589059583606" lon="12.24623843949342"><ele>321.4</ele><time>2026-04-03T10:49:52.937Z</time></trkpt><trkpt lat="43.99596134826226" lon="12.246144653443197"><ele>319.2</ele><time>2026-04-03T10:49:53.937Z</time></trkpt><trkpt lat="43.99602445967897" lon="12.24601545928916"><ele>317.0</ele><time>2026-04-03T10:49:54.937Z</time></trkpt><trkpt lat="43.99607985086365" lon="12.24585747884636"><ele>313.25</ele><time>2026-04-03T10:49:55.937Z</time></trkpt><trkpt lat="43.99612395242247" lon="12.24568786863708"><ele>309.5</ele><time>2026-04-03T10:49:56.937Z</time></trkpt><trkpt lat="43.9961494522489" lon="12.245502977408453"><ele>305.75</ele><time>2026-04-03T10:49:57.937Z</time></trkpt><trkpt lat="43.99616405373395" lon="12.245318293270987"><ele>302.0</ele><time>2026-04-03T10:49:58.937Z</time></trkpt><trkpt lat="43.996184246642" lon="12.245137645487686"><ele>302.0</ele><time>2026-04-03T10:49:59.937Z</time></trkpt><trkpt lat="43.9962178001546" lon="12.244970295701995"><ele>302.0</ele><time>2026-04-03T10:50:00.937Z</time></trkpt><trkpt lat="43.99627782859931" lon="12.244811762234544"><ele>302.0</ele><time>2026-04-03T10:50:01.937Z</time></trkpt><trkpt lat="43.996354803386225" lon="12.244655134870634"><ele>302.0</ele><time>2026-04-03T10:50:02.937Z</time></trkpt><trkpt lat="43.99643732902392" lon="12.244501342996017"><ele>302.5</ele><time>2026-04-03T10:50:03.937Z</time></trkpt><trkpt lat="43.99651476126385" lon="12.244348347092767"><ele>303.0</ele><time>2026-04-03T10:50:04.937Z</time></trkpt><trkpt lat="43.996593444288344" lon="12.244187048423651"><ele>303.5</ele><time>2026-04-03T10:50:05.937Z</time></trkpt><trkpt lat="43.99667010358218" lon="12.244021081141211"><ele>304.0</ele><time>2026-04-03T10:50:06.937Z</time></trkpt><trkpt lat="43.99674426574813" lon="12.243849434375088"><ele>299.25</ele><time>2026-04-03T10:50:07.937Z</time></trkpt><trkpt lat="43.99679580690657" lon="12.24367647162639"><ele>294.5</ele><time>2026-04-03T10:50:08.937Z</time></trkpt><trkpt lat="43.99682786411165" lon="12.243499689709864"><ele>289.75</ele><time>2026-04-03T10:50:09.937Z</time></trkpt><trkpt lat="43.99683307776437" lon="12.243327263134994"><ele>285.0</ele><time>2026-04-03T10:50:10.937Z</time></trkpt><trkpt lat="43.99682247769509" lon="12.243168687623037"><ele>287.4</ele><time>2026-04-03T10:50:11.937Z</time></trkpt><trkpt lat="43.99682126735095" lon="12.243020039746618"><ele>289.8</ele><time>2026-04-03T10:50:12.937Z</time></trkpt><trkpt lat="43.99684733355567" lon="12.242869141567349"><ele>292.2</ele><time>2026-04-03T10:50:13.937Z</time></trkpt><trkpt lat="43.996890184551255" lon="12.242743228507074"><ele>294.6</ele><time>2026-04-03T10:50:14.937Z</time></trkpt><trkpt lat="43.99694747914452" lon="12.24263836999464"><ele>297.0</ele><time>2026-04-03T10:50:15.937Z</time></trkpt><trkpt lat="43.9970295239468" lon="12.24255212697833"><ele>297.0</ele><time>2026-04-03T10:50:16.937Z</time></trkpt><trkpt lat="43.99712506549404" lon="12.242456878793408"><ele>297.0</ele><time>2026-04-03T10:50:17.937Z</time></trkpt><trkpt lat="43.99721951317674" lon="12.242338634182188"><ele>297.0</ele><time>2026-04-03T10:50:18.937Z</time></trkpt><trkpt lat="43.99729794537497" lon="12.242191112639713"><ele>297.0</ele><time>2026-04-03T10:50:19.937Z</time></trkpt><trkpt lat="43.997368622323734" lon="12.242017888105927"><ele>297.5</ele><time>2026-04-03T10:50:20.937Z</time></trkpt><trkpt lat="43.99743621865863" lon="12.24184239778819"><ele>298.0</ele><time>2026-04-03T10:50:21.937Z</time></trkpt><trkpt lat="43.9974997772771" lon="12.241671646493845"><ele>298.5</ele><time>2026-04-03T10:50:22.937Z</time></trkpt><trkpt lat="43.997561701518286" lon="12.241518262182467"><ele>299.0</ele><time>2026-04-03T10:50:23.937Z</time></trkpt><trkpt lat="43.99762970653545" lon="12.241384747023293"><ele>303.5</ele><time>2026-04-03T10:50:24.937Z</time></trkpt><trkpt lat="43.997708172965744" lon="12.241269267288905"><ele>308.0</ele><time>2026-04-03T10:50:25.937Z</time></trkpt><trkpt lat="43.997800105186975" lon="12.241183201009445"><ele>312.5</ele><time>2026-04-03T10:50:26.937Z</time></trkpt><trkpt lat="43.99790171249868" lon="12.241115674927764"><ele>317.0</ele><time>2026-04-03T10:50:27.937Z</time></trkpt><trkpt lat="43.998021934740564" lon="12.241062684653933"><ele>317.0</ele><time>2026-04-03T10:50:28.936Z</time></trkpt><trkpt lat="43.99814730169628" lon="12.241014734394799"><ele>317.0</ele><time>2026-04-03T10:50:29.936Z</time></trkpt><trkpt lat="43.998276449038926" lon="12.240957582879437"><ele>317.0</ele><time>2026-04-03T10:50:30.936Z</time></trkpt><trkpt lat="43.998405142013276" lon="12.240887977829328"><ele>317.0</ele><time>2026-04-03T10:50:31.936Z</time></trkpt><trkpt lat="43.99852694196644" lon="12.240804454029094"><ele>317.0</ele><time>2026-04-03T10:50:32.936Z</time></trkpt><trkpt lat="43.99863954737135" lon="12.240713187412632"><ele>317.0</ele><time>2026-04-03T10:50:33.936Z</time></trkpt><trkpt lat="43.99874741221476" lon="12.24060487760799"><ele>317.0</ele><time>2026-04-03T10:50:34.936Z</time></trkpt><trkpt lat="43.99884131434141" lon="12.240498375487432"><ele>317.0</ele><time>2026-04-03T10:50:35.936Z</time></trkpt><trkpt lat="43.99893379391644" lon="12.240373025103287"><ele>317.4</ele><time>2026-04-03T10:50:36.936Z</time></trkpt><trkpt lat="43.999015748122865" lon="12.2402629384964"><ele>317.79999999999995</ele><time>2026-04-03T10:50:37.936Z</time></trkpt><trkpt lat="43.99909869253316" lon="12.24015310024006"><ele>318.2</ele><time>2026-04-03T10:50:38.936Z</time></trkpt><trkpt lat="43.99918404036059" lon="12.240066076062902"><ele>318.59999999999997</ele><time>2026-04-03T10:50:39.936Z</time></trkpt><trkpt lat="43.99928137962315" lon="12.240004071516534"><ele>319.0</ele><time>2026-04-03T10:50:40.936Z</time></trkpt><trkpt lat="43.99939020275721" lon="12.239974926833575"><ele>319.0</ele><time>2026-04-03T10:50:41.936Z</time></trkpt><trkpt lat="43.99950422429501" lon="12.239974828600324"><ele>319.0</ele><time>2026-04-03T10:50:42.936Z</time></trkpt><trkpt lat="43.999622377756864" lon="12.239961547420362"><ele>319.0</ele><time>2026-04-03T10:50:43.936Z</time></trkpt><trkpt lat="43.999743552328724" lon="12.239922808101387"><ele>319.0</ele><time>2026-04-03T10:50:44.936Z</time></trkpt><trkpt lat="43.99985250413" lon="12.239845484760588"><ele>317.75</ele><time>2026-04-03T10:50:45.936Z</time></trkpt><trkpt lat="43.99995095719481" lon="12.239741331631677"><ele>316.5</ele><time>2026-04-03T10:50:46.936Z</time></trkpt><trkpt lat="44.00003540031855" lon="12.239622366425177"><ele>315.25</ele><time>2026-04-03T10:50:47.936Z</time></trkpt><trkpt lat="44.00011779193858" lon="12.239492697043405"><ele>314.0</ele><time>2026-04-03T10:50:48.936Z</time></trkpt><trkpt lat="44.000198689756594" lon="12.239359246498143"><ele>314.0</ele><time>2026-04-03T10:50:49.936Z</time></trkpt><trkpt lat="44.00028207201842" lon="12.239225897000848"><ele>314.0</ele><time>2026-04-03T10:50:50.936Z</time></trkpt><trkpt lat="44.00036078289252" lon="12.239084560633486"><ele>314.0</ele><time>2026-04-03T10:50:51.936Z</time></trkpt><trkpt lat="44.00044423919948" lon="12.23895232844859"><ele>314.0</ele><time>2026-04-03T10:50:52.936Z</time></trkpt><trkpt lat="44.00052925662761" lon="12.238823822621823"><ele>315.5</ele><time>2026-04-03T10:50:53.936Z</time></trkpt><trkpt lat="44.00061257535479" lon="12.238703271081276"><ele>317.0</ele><time>2026-04-03T10:50:54.936Z</time></trkpt><trkpt lat="44.000695935268205" lon="12.238594626412318"><ele>318.5</ele><time>2026-04-03T10:50:55.936Z</time></trkpt><trkpt lat="44.00078486838311" lon="12.238503355395373"><ele>320.0</ele><time>2026-04-03T10:50:56.936Z</time></trkpt><trkpt lat="44.00088163028698" lon="12.238427081330869"><ele>320.0</ele><time>2026-04-03T10:50:57.936Z</time></trkpt><trkpt lat="44.000983043157774" lon="12.238351163321457"><ele>320.0</ele><time>2026-04-03T10:50:58.936Z</time></trkpt><trkpt lat="44.00107620826306" lon="12.238286153965898"><ele>320.0</ele><time>2026-04-03T10:50:59.936Z</time></trkpt><trkpt lat="44.00117298484249" lon="12.23822235371521"><ele>320.0</ele><time>2026-04-03T10:51:00.936Z</time></trkpt><trkpt lat="44.0012713341897" lon="12.238163498399162"><ele>320.0</ele><time>2026-04-03T10:51:01.936Z</time></trkpt><trkpt lat="44.00137515792064" lon="12.238129572821284"><ele>320.0</ele><time>2026-04-03T10:51:02.936Z</time></trkpt><trkpt lat="44.00148388101857" lon="12.238133588034211"><ele>320.0</ele><time>2026-04-03T10:51:03.936Z</time></trkpt><trkpt lat="44.0015977426445" lon="12.238186415988563"><ele>320.0</ele><time>2026-04-03T10:51:04.936Z</time></trkpt><trkpt lat="44.001720202378976" lon="12.238249860651802"><ele>320.0</ele><time>2026-04-03T10:51:05.936Z</time></trkpt><trkpt lat="44.00184107004968" lon="12.238295531446932"><ele>320.5</ele><time>2026-04-03T10:51:06.936Z</time></trkpt><trkpt lat="44.00195716980856" lon="12.238342056442328"><ele>321.0</ele><time>2026-04-03T10:51:07.936Z</time></trkpt><trkpt lat="44.00206835964507" lon="12.238384584717668"><ele>321.5</ele><time>2026-04-03T10:51:08.936Z</time></trkpt><trkpt lat="44.00218134475652" lon="12.238416019919933"><ele>322.0</ele><time>2026-04-03T10:51:09.936Z</time></trkpt><trkpt lat="44.00229374127587" lon="12.238425939429343"><ele>322.0</ele><time>2026-04-03T10:51:10.936Z</time></trkpt><trkpt lat="44.00240641948984" lon="12.238399023173988"><ele>322.0</ele><time>2026-04-03T10:51:11.936Z</time></trkpt><trkpt lat="44.00251667720664" lon="12.238326886034235"><ele>322.0</ele><time>2026-04-03T10:51:12.936Z</time></trkpt><trkpt lat="44.00262846360834" lon="12.238245650299467"><ele>322.0</ele><time>2026-04-03T10:51:13.936Z</time></trkpt><trkpt lat="44.00273491256796" lon="12.238152277755809"><ele>322.20000000000005</ele><time>2026-04-03T10:51:14.936Z</time></trkpt><trkpt lat="44.00281694003226" lon="12.238045610528147"><ele>322.4</ele><time>2026-04-03T10:51:15.936Z</time></trkpt><trkpt lat="44.002884697193714" lon="12.237926915905252"><ele>322.6</ele><time>2026-04-03T10:51:16.936Z</time></trkpt><trkpt lat="44.00294475199092" lon="12.237797913194054"><ele>322.79999999999995</ele><time>2026-04-03T10:51:17.936Z</time></trkpt><trkpt lat="44.00298871183048" lon="12.237663594252005"><ele>323.0</ele><time>2026-04-03T10:51:18.936Z</time></trkpt><trkpt lat="44.00301662741452" lon="12.237533569451722"><ele>323.0</ele><time>2026-04-03T10:51:19.936Z</time></trkpt><trkpt lat="44.00303426113696" lon="12.237408312249766"><ele>323.0</ele><time>2026-04-03T10:51:20.936Z</time></trkpt><trkpt lat="44.00303015741305" lon="12.23727760747438"><ele>323.0</ele><time>2026-04-03T10:51:21.936Z</time></trkpt><trkpt lat="44.003006919005955" lon="12.237143328107608"><ele>323.0</ele><time>2026-04-03T10:51:22.936Z</time></trkpt><trkpt lat="44.002966271035326" lon="12.23700856060554"><ele>323.0</ele><time>2026-04-03T10:51:23.936Z</time></trkpt><trkpt lat="44.002917157043434" lon="12.236871472224685"><ele>320.25</ele><time>2026-04-03T10:51:24.936Z</time></trkpt><trkpt lat="44.002862490095175" lon="12.236733013199249"><ele>317.5</ele><time>2026-04-03T10:51:25.936Z</time></trkpt><trkpt lat="44.00280099599857" lon="12.23658886654799"><ele>314.75</ele><time>2026-04-03T10:51:26.936Z</time></trkpt><trkpt lat="44.00272922551096" lon="12.236436958735323"><ele>312.0</ele><time>2026-04-03T10:51:27.936Z</time></trkpt><trkpt lat="44.00265715663029" lon="12.236276889672366"><ele>310.0</ele><time>2026-04-03T10:51:28.936Z</time></trkpt><trkpt lat="44.0025874978935" lon="12.236123894677236"><ele>308.0</ele><time>2026-04-03T10:51:29.936Z</time></trkpt><trkpt lat="44.00252204055797" lon="12.235976191063168"><ele>306.0</ele><time>2026-04-03T10:51:30.936Z</time></trkpt><trkpt lat="44.00246283701729" lon="12.235828621766826"><ele>304.0</ele><time>2026-04-03T10:51:31.936Z</time></trkpt><trkpt lat="44.00241717471733" lon="12.23568338286747"><ele>298.25</ele><time>2026-04-03T10:51:32.936Z</time></trkpt><trkpt lat="44.002392398246414" lon="12.235524742545108"><ele>292.5</ele><time>2026-04-03T10:51:33.936Z</time></trkpt><trkpt lat="44.0023883861902" lon="12.235349458043467"><ele>286.75</ele><time>2026-04-03T10:51:34.936Z</time></trkpt><trkpt lat="44.0024137181642" lon="12.235160432221598"><ele>281.0</ele><time>2026-04-03T10:51:35.936Z</time></trkpt><trkpt lat="44.00244797395357" lon="12.23497641967207"><ele>285.0</ele><time>2026-04-03T10:51:36.936Z</time></trkpt><trkpt lat="44.002503295388784" lon="12.23479619873777"><ele>289.0</ele><time>2026-04-03T10:51:37.936Z</time></trkpt><trkpt lat="44.0025750278703" lon="12.234631835412166"><ele>293.0</ele><time>2026-04-03T10:51:38.936Z</time></trkpt><trkpt lat="44.002657940067635" lon="12.234477952870662"><ele>297.0</ele><time>2026-04-03T10:51:39.936Z</time></trkpt><trkpt lat="44.002739778350254" lon="12.23433265792401"><ele>297.0</ele><time>2026-04-03T10:51:40.936Z</time></trkpt><trkpt lat="44.002806750691484" lon="12.234177100301768"><ele>297.0</ele><time>2026-04-03T10:51:41.936Z</time></trkpt><trkpt lat="44.002867019200536" lon="12.23402009532575"><ele>297.0</ele><time>2026-04-03T10:51:42.936Z</time></trkpt><trkpt lat="44.00291179528063" lon="12.23386853456537"><ele>297.0</ele><time>2026-04-03T10:51:43.936Z</time></trkpt><trkpt lat="44.00294261489012" lon="12.233711602472567"><ele>296.25</ele><time>2026-04-03T10:51:44.936Z</time></trkpt><trkpt lat="44.0029658632246" lon="12.23355631534357"><ele>295.5</ele><time>2026-04-03T10:51:45.935Z</time></trkpt><trkpt lat="44.002975661576706" lon="12.23338615460571"><ele>294.75</ele><time>2026-04-03T10:51:46.935Z</time></trkpt><trkpt lat="44.00297754394044" lon="12.23321466772618"><ele>294.0</ele><time>2026-04-03T10:51:47.935Z</time></trkpt><trkpt lat="44.00298737800369" lon="12.233041045976515"><ele>292.25</ele><time>2026-04-03T10:51:48.934Z</time></trkpt><trkpt lat="44.003019253758325" lon="12.2328718671084"><ele>290.5</ele><time>2026-04-03T10:51:49.934Z</time></trkpt><trkpt lat="44.00307641712487" lon="12.23270499041156"><ele>288.75</ele><time>2026-04-03T10:51:50.934Z</time></trkpt><trkpt lat="44.00314417840906" lon="12.232540548020172"><ele>287.0</ele><time>2026-04-03T10:51:51.934Z</time></trkpt><trkpt lat="44.00321609009895" lon="12.232380734159536"><ele>285.75</ele><time>2026-04-03T10:51:52.934Z</time></trkpt><trkpt lat="44.003281973716646" lon="12.232234309430678"><ele>284.5</ele><time>2026-04-03T10:51:53.934Z</time></trkpt><trkpt lat="44.00333752607507" lon="12.23208726837009"><ele>283.25</ele><time>2026-04-03T10:51:54.934Z</time></trkpt><trkpt lat="44.00339329256775" lon="12.231939042810968"><ele>282.0</ele><time>2026-04-03T10:51:55.934Z</time></trkpt><trkpt lat="44.00345373918398" lon="12.231786890287333"><ele>286.75</ele><time>2026-04-03T10:51:56.934Z</time></trkpt><trkpt lat="44.003524737478465" lon="12.23164007983398"><ele>291.5</ele><time>2026-04-03T10:51:57.934Z</time></trkpt><trkpt lat="44.00359876994232" lon="12.231502176974445"><ele>296.25</ele><time>2026-04-03T10:51:58.934Z</time></trkpt><trkpt lat="44.003662687203615" lon="12.231387730058637"><ele>301.0</ele><time>2026-04-03T10:51:59.934Z</time></trkpt><trkpt lat="44.00371988862238" lon="12.231267543156015"><ele>301.0</ele><time>2026-04-03T10:52:00.934Z</time></trkpt><trkpt lat="44.00374331246155" lon="12.231147532727787"><ele>301.0</ele><time>2026-04-03T10:52:01.934Z</time></trkpt><trkpt lat="44.00374847246845" lon="12.231013826028015"><ele>301.0</ele><time>2026-04-03T10:52:02.934Z</time></trkpt><trkpt lat="44.00374527784706" lon="12.230875908738222"><ele>301.0</ele><time>2026-04-03T10:52:03.934Z</time></trkpt><trkpt lat="44.00374792578847" lon="12.230739188130496"><ele>301.0</ele><time>2026-04-03T10:52:04.934Z</time></trkpt><trkpt lat="44.003755218083825" lon="12.230604408530416"><ele>297.40000000000003</ele><time>2026-04-03T10:52:05.934Z</time></trkpt><trkpt lat="44.00378401272555" lon="12.230465627031176"><ele>293.8</ele><time>2026-04-03T10:52:06.934Z</time></trkpt><trkpt lat="44.003838833742805" lon="12.230326814940955"><ele>290.20000000000005</ele><time>2026-04-03T10:52:07.934Z</time></trkpt><trkpt lat="44.00390544285001" lon="12.230206835611312"><ele>286.6</ele><time>2026-04-03T10:52:08.934Z</time></trkpt><trkpt lat="44.00398935109559" lon="12.23008997482881"><ele>283.0</ele><time>2026-04-03T10:52:09.934Z</time></trkpt><trkpt lat="44.00408596469022" lon="12.229980558953084"><ele>281.75</ele><time>2026-04-03T10:52:10.934Z</time></trkpt><trkpt lat="44.004190405891826" lon="12.229884239186836"><ele>280.5</ele><time>2026-04-03T10:52:11.934Z</time></trkpt><trkpt lat="44.004289382803684" lon="12.229783163160077"><ele>279.25</ele><time>2026-04-03T10:52:12.934Z</time></trkpt><trkpt lat="44.00438385152098" lon="12.229682279416048"><ele>278.0</ele><time>2026-04-03T10:52:13.934Z</time></trkpt><trkpt lat="44.00447004969222" lon="12.229573801315253"><ele>278.0</ele><time>2026-04-03T10:52:14.934Z</time></trkpt><trkpt lat="44.00454604632489" lon="12.229469615275834"><ele>278.0</ele><time>2026-04-03T10:52:15.934Z</time></trkpt><trkpt lat="44.004607345608065" lon="12.229369591845076"><ele>278.0</ele><time>2026-04-03T10:52:16.934Z</time></trkpt><trkpt lat="44.00465702820448" lon="12.22926623302454"><ele>278.0</ele><time>2026-04-03T10:52:17.934Z</time></trkpt><trkpt lat="44.00468167464863" lon="12.229138384845786"><ele>278.0</ele><time>2026-04-03T10:52:18.934Z</time></trkpt><trkpt lat="44.004675433451524" lon="12.229015584951325"><ele>274.5</ele><time>2026-04-03T10:52:19.934Z</time></trkpt><trkpt lat="44.00463792046281" lon="12.228909309381205"><ele>271.0</ele><time>2026-04-03T10:52:20.934Z</time></trkpt><trkpt lat="44.004580872833" lon="12.22883003170797"><ele>267.5</ele><time>2026-04-03T10:52:21.934Z</time></trkpt><trkpt lat="44.004506341892224" lon="12.228803665854587"><ele>264.0</ele><time>2026-04-03T10:52:22.934Z</time></trkpt><trkpt lat="44.00443732737174" lon="12.228817918652124"><ele>260.5</ele><time>2026-04-03T10:52:23.934Z</time></trkpt><trkpt lat="44.00437638214285" lon="12.228840907237089"><ele>257.0</ele><time>2026-04-03T10:52:24.934Z</time></trkpt><trkpt lat="44.00429951238825" lon="12.228750254961044"><ele>257.0</ele><time>2026-04-03T10:52:26.934Z</time></trkpt><trkpt lat="44.00436142130155" lon="12.228602865923666"><ele>257.0</ele><time>2026-04-03T10:52:28.934Z</time></trkpt><trkpt lat="44.00442845805027" lon="12.22855759336077"><ele>257.0</ele><time>2026-04-03T10:52:29.934Z</time></trkpt><trkpt lat="44.00450785165912" lon="12.228522168415768"><ele>257.0</ele><time>2026-04-03T10:52:30.934Z</time></trkpt><trkpt lat="44.00458604395357" lon="12.228495465075216"><ele>257.0</ele><time>2026-04-03T10:52:31.934Z</time></trkpt><trkpt lat="44.004666541640226" lon="12.228497531104706"><ele>257.0</ele><time>2026-04-03T10:52:32.934Z</time></trkpt><trkpt lat="44.00474169746888" lon="12.228517830176271"><ele>257.0</ele><time>2026-04-03T10:52:33.934Z</time></trkpt><trkpt lat="44.004811846529385" lon="12.228553235886194"><ele>257.0</ele><time>2026-04-03T10:52:34.934Z</time></trkpt><trkpt lat="44.00486951506216" lon="12.228609974686368"><ele>257.0</ele><time>2026-04-03T10:52:35.934Z</time></trkpt><trkpt lat="44.00492219423926" lon="12.228672418553575"><ele>257.0</ele><time>2026-04-03T10:52:36.934Z</time></trkpt><trkpt lat="44.004975050969556" lon="12.228736416346363"><ele>257.0</ele><time>2026-04-03T10:52:37.934Z</time></trkpt><trkpt lat="44.00504396273665" lon="12.228772636693517"><ele>257.0</ele><time>2026-04-03T10:52:38.934Z</time></trkpt><trkpt lat="44.00512964346319" lon="12.228763828464395"><ele>257.0</ele><time>2026-04-03T10:52:39.934Z</time></trkpt><trkpt lat="44.00521949476993" lon="12.228720820583236"><ele>257.2</ele><time>2026-04-03T10:52:40.934Z</time></trkpt><trkpt lat="44.005307248095434" lon="12.228637833767236"><ele>257.4</ele><time>2026-04-03T10:52:41.934Z</time></trkpt><trkpt lat="44.00539203712636" lon="12.228544538619081"><ele>257.6</ele><time>2026-04-03T10:52:42.934Z</time></trkpt><trkpt lat="44.00548761819005" lon="12.228447802952724"><ele>257.8</ele><time>2026-04-03T10:52:43.934Z</time></trkpt><trkpt lat="44.00559208929801" lon="12.228376820167298"><ele>258.0</ele><time>2026-04-03T10:52:44.934Z</time></trkpt><trkpt lat="44.00569584594322" lon="12.228326085149524"><ele>258.0</ele><time>2026-04-03T10:52:45.934Z</time></trkpt><trkpt lat="44.005797026193335" lon="12.228281875847816"><ele>258.0</ele><time>2026-04-03T10:52:46.934Z</time></trkpt><trkpt lat="44.00588953379328" lon="12.228242871633972"><ele>258.0</ele><time>2026-04-03T10:52:47.934Z</time></trkpt><trkpt lat="44.005969979770484" lon="12.228211092673337"><ele>258.0</ele><time>2026-04-03T10:52:48.934Z</time></trkpt><trkpt lat="44.006034986540826" lon="12.228167031374944"><ele>258.0</ele><time>2026-04-03T10:52:49.934Z</time></trkpt><trkpt lat="44.00607835089691" lon="12.228097263814885"><ele>258.0</ele><time>2026-04-03T10:52:50.934Z</time></trkpt><trkpt lat="44.006088357504936" lon="12.228000003145164"><ele>257.2</ele><time>2026-04-03T10:52:51.934Z</time></trkpt><trkpt lat="44.00605341936447" lon="12.227878165420611"><ele>256.4</ele><time>2026-04-03T10:52:52.934Z</time></trkpt><trkpt lat="44.00599816816843" lon="12.227756781441474"><ele>255.59999999999997</ele><time>2026-04-03T10:52:53.934Z</time></trkpt><trkpt lat="44.00593681478955" lon="12.227626656390274"><ele>254.79999999999998</ele><time>2026-04-03T10:52:54.934Z</time></trkpt><trkpt lat="44.00588642519791" lon="12.227491634432262"><ele>254.0</ele><time>2026-04-03T10:52:55.934Z</time></trkpt><trkpt lat="44.00584392438952" lon="12.227344708140626"><ele>247.5</ele><time>2026-04-03T10:52:56.934Z</time></trkpt><trkpt lat="44.005824004340894" lon="12.227197490527034"><ele>241.0</ele><time>2026-04-03T10:52:57.934Z</time></trkpt><trkpt lat="44.00580633089674" lon="12.227052704187198"><ele>234.5</ele><time>2026-04-03T10:52:58.934Z</time></trkpt><trkpt lat="44.00579771885215" lon="12.226891113762743"><ele>228.0</ele><time>2026-04-03T10:52:59.934Z</time></trkpt><trkpt lat="44.00581832640429" lon="12.226716076714613"><ele>231.5</ele><time>2026-04-03T10:53:00.934Z</time></trkpt><trkpt lat="44.00584774652012" lon="12.226540999264062"><ele>235.0</ele><time>2026-04-03T10:53:01.934Z</time></trkpt><trkpt lat="44.005883813944884" lon="12.226367015940516"><ele>238.5</ele><time>2026-04-03T10:53:02.934Z</time></trkpt><trkpt lat="44.005914184392026" lon="12.226200529387"><ele>242.0</ele><time>2026-04-03T10:53:03.934Z</time></trkpt><trkpt lat="44.00593162783028" lon="12.226036674916344"><ele>242.0</ele><time>2026-04-03T10:53:04.934Z</time></trkpt><trkpt lat="44.00594097284506" lon="12.22585733714526"><ele>242.0</ele><time>2026-04-03T10:53:05.934Z</time></trkpt><trkpt lat="44.00593549064799" lon="12.225675031237287"><ele>242.0</ele><time>2026-04-03T10:53:06.934Z</time></trkpt><trkpt lat="44.00593820120475" lon="12.225485241088748"><ele>242.0</ele><time>2026-04-03T10:53:07.934Z</time></trkpt><trkpt lat="44.00593397910019" lon="12.225284377795749"><ele>242.0</ele><time>2026-04-03T10:53:08.934Z</time></trkpt><trkpt lat="44.00592357069117" lon="12.225082643340356"><ele>242.0</ele><time>2026-04-03T10:53:09.934Z</time></trkpt><trkpt lat="44.00591175892343" lon="12.224900885008173"><ele>242.0</ele><time>2026-04-03T10:53:10.934Z</time></trkpt><trkpt lat="44.00590538721692" lon="12.224733262392366"><ele>242.0</ele><time>2026-04-03T10:53:11.934Z</time></trkpt><trkpt lat="44.00591664653183" lon="12.22456169645321"><ele>242.0</ele><time>2026-04-03T10:53:12.934Z</time></trkpt><trkpt lat="44.00594792710246" lon="12.22438922363552"><ele>242.0</ele><time>2026-04-03T10:53:13.934Z</time></trkpt><trkpt lat="44.00599647967468" lon="12.224217889119238"><ele>242.0</ele><time>2026-04-03T10:53:14.934Z</time></trkpt><trkpt lat="44.006061387687595" lon="12.224063315491884"><ele>242.0</ele><time>2026-04-03T10:53:15.934Z</time></trkpt><trkpt lat="44.00614116229742" lon="12.223936556348054"><ele>243.0</ele><time>2026-04-03T10:53:16.934Z</time></trkpt><trkpt lat="44.006216112477716" lon="12.22380650162198"><ele>244.0</ele><time>2026-04-03T10:53:17.934Z</time></trkpt><trkpt lat="44.006281225825795" lon="12.22367549883498"><ele>245.0</ele><time>2026-04-03T10:53:18.934Z</time></trkpt><trkpt lat="44.006315113556234" lon="12.2235552275832"><ele>246.0</ele><time>2026-04-03T10:53:19.934Z</time></trkpt><trkpt lat="44.0063182455823" lon="12.223442330838658"><ele>247.0</ele><time>2026-04-03T10:53:20.933Z</time></trkpt><trkpt lat="44.006283349702585" lon="12.223329263168766"><ele>247.0</ele><time>2026-04-03T10:53:21.933Z</time></trkpt><trkpt lat="44.00621428835009" lon="12.223230549424331"><ele>247.0</ele><time>2026-04-03T10:53:22.933Z</time></trkpt><trkpt lat="44.006128669371776" lon="12.223148910342754"><ele>247.0</ele><time>2026-04-03T10:53:23.933Z</time></trkpt><trkpt lat="44.00604174977651" lon="12.223064841066357"><ele>247.0</ele><time>2026-04-03T10:53:24.933Z</time></trkpt><trkpt lat="44.005970252792984" lon="12.22297053753174"><ele>247.0</ele><time>2026-04-03T10:53:25.933Z</time></trkpt><trkpt lat="44.00592516622057" lon="12.222836797546103"><ele>249.75</ele><time>2026-04-03T10:53:26.933Z</time></trkpt><trkpt lat="44.00590755522662" lon="12.222681226886223"><ele>252.5</ele><time>2026-04-03T10:53:27.933Z</time></trkpt><trkpt lat="44.00588960801446" lon="12.222522961778678"><ele>255.25</ele><time>2026-04-03T10:53:28.933Z</time></trkpt><trkpt lat="44.00587019041595" lon="12.222357413084726"><ele>258.0</ele><time>2026-04-03T10:53:29.933Z</time></trkpt><trkpt lat="44.00586099561745" lon="12.22219955387036"><ele>258.0</ele><time>2026-04-03T10:53:30.933Z</time></trkpt><trkpt lat="44.00587823989021" lon="12.222032791547562"><ele>258.0</ele><time>2026-04-03T10:53:31.933Z</time></trkpt><trkpt lat="44.005928603571306" lon="12.221893138470948"><ele>258.0</ele><time>2026-04-03T10:53:32.933Z</time></trkpt><trkpt lat="44.00599264862313" lon="12.221782489666731"><ele>258.0</ele><time>2026-04-03T10:53:33.933Z</time></trkpt><trkpt lat="44.00608371249134" lon="12.221698927401322"><ele>258.0</ele><time>2026-04-03T10:53:34.933Z</time></trkpt><trkpt lat="44.00619386851142" lon="12.221630858236743"><ele>258.0</ele><time>2026-04-03T10:53:35.933Z</time></trkpt><trkpt lat="44.00631818103194" lon="12.221561995665386"><ele>258.0</ele><time>2026-04-03T10:53:36.933Z</time></trkpt><trkpt lat="44.00643025494257" lon="12.221470007338542"><ele>258.0</ele><time>2026-04-03T10:53:37.933Z</time></trkpt><trkpt lat="44.00652534273613" lon="12.2213396224437"><ele>258.0</ele><time>2026-04-03T10:53:38.933Z</time></trkpt><trkpt lat="44.006589978347854" lon="12.221204903368164"><ele>258.75</ele><time>2026-04-03T10:53:39.933Z</time></trkpt><trkpt lat="44.00666658332857" lon="12.22104080228546"><ele>259.5</ele><time>2026-04-03T10:53:40.933Z</time></trkpt><trkpt lat="44.006738975308174" lon="12.220884477749152"><ele>260.25</ele><time>2026-04-03T10:53:41.933Z</time></trkpt><trkpt lat="44.006817287501306" lon="12.220732438713881"><ele>261.0</ele><time>2026-04-03T10:53:42.933Z</time></trkpt><trkpt lat="44.006908080056206" lon="12.220593652588862"><ele>259.0</ele><time>2026-04-03T10:53:43.933Z</time></trkpt><trkpt lat="44.00699154265707" lon="12.220450208284266"><ele>257.0</ele><time>2026-04-03T10:53:44.933Z</time></trkpt><trkpt lat="44.007069735450905" lon="12.220298885482945"><ele>255.0</ele><time>2026-04-03T10:53:45.933Z</time></trkpt><trkpt lat="44.00713212911081" lon="12.220152683808545"><ele>253.0</ele><time>2026-04-03T10:53:46.933Z</time></trkpt><trkpt lat="44.007176553413444" lon="12.220003902931541"><ele>253.0</ele><time>2026-04-03T10:53:47.933Z</time></trkpt><trkpt lat="44.00721574718361" lon="12.219852678060523"><ele>253.0</ele><time>2026-04-03T10:53:48.933Z</time></trkpt><trkpt lat="44.00726993691991" lon="12.21969831536563"><ele>253.0</ele><time>2026-04-03T10:53:49.933Z</time></trkpt><trkpt lat="44.007345865699804" lon="12.219566985459178"><ele>253.0</ele><time>2026-04-03T10:53:50.933Z</time></trkpt><trkpt lat="44.00744537976677" lon="12.219473698260172"><ele>254.5</ele><time>2026-04-03T10:53:51.931Z</time></trkpt><trkpt lat="44.00754837798874" lon="12.219395515489214"><ele>256.0</ele><time>2026-04-03T10:53:52.932Z</time></trkpt><trkpt lat="44.00764171625434" lon="12.219317171308221"><ele>257.5</ele><time>2026-04-03T10:53:53.932Z</time></trkpt><trkpt lat="44.007712895160445" lon="12.219198018754984"><ele>259.0</ele><time>2026-04-03T10:53:54.931Z</time></trkpt><trkpt lat="44.007766976405634" lon="12.219030675227765"><ele>259.5</ele><time>2026-04-03T10:53:55.931Z</time></trkpt><trkpt lat="44.00779673072436" lon="12.218831098416226"><ele>260.0</ele><time>2026-04-03T10:53:56.931Z</time></trkpt><trkpt lat="44.00782107827012" lon="12.218634140406946"><ele>260.5</ele><time>2026-04-03T10:53:57.931Z</time></trkpt><trkpt lat="44.00785093836555" lon="12.218453356186341"><ele>261.0</ele><time>2026-04-03T10:53:58.931Z</time></trkpt><trkpt lat="44.007874010676" lon="12.218284325619646"><ele>259.25</ele><time>2026-04-03T10:53:59.931Z</time></trkpt><trkpt lat="44.00788108737128" lon="12.2181156477255"><ele>257.5</ele><time>2026-04-03T10:54:00.93Z</time></trkpt><trkpt lat="44.007836647851576" lon="12.217936226045815"><ele>255.75</ele><time>2026-04-03T10:54:01.931Z</time></trkpt><trkpt lat="44.00781076395406" lon="12.217754766242585"><ele>254.0</ele><time>2026-04-03T10:54:02.931Z</time></trkpt><trkpt lat="44.00778256294808" lon="12.217574904777779"><ele>254.0</ele><time>2026-04-03T10:54:03.931Z</time></trkpt><trkpt lat="44.00775384494197" lon="12.217399569916832"><ele>254.0</ele><time>2026-04-03T10:54:04.931Z</time></trkpt><trkpt lat="44.00772775193221" lon="12.217232351588224"><ele>254.0</ele><time>2026-04-03T10:54:05.931Z</time></trkpt><trkpt lat="44.007698957182484" lon="12.217078323471203"><ele>254.0</ele><time>2026-04-03T10:54:06.931Z</time></trkpt><trkpt lat="44.00766579544185" lon="12.216941313192667"><ele>252.33333333333334</ele><time>2026-04-03T10:54:07.931Z</time></trkpt><trkpt lat="44.00764278846692" lon="12.216825314514733"><ele>250.66666666666669</ele><time>2026-04-03T10:54:08.931Z</time></trkpt><trkpt lat="44.00764135584927" lon="12.21672255262077"><ele>249.0</ele><time>2026-04-03T10:54:09.931Z</time></trkpt><trkpt lat="44.00768208218535" lon="12.216649152059354"><ele>247.33333333333331</ele><time>2026-04-03T10:54:10.931Z</time></trkpt><trkpt lat="44.007747047550545" lon="12.216589213006268"><ele>245.66666666666666</ele><time>2026-04-03T10:54:11.931Z</time></trkpt><trkpt lat="44.00781875553695" lon="12.21658692201685"><ele>244.0</ele><time>2026-04-03T10:54:12.931Z</time></trkpt><trkpt lat="44.00788910147328" lon="12.21665313944712"><ele>243.99999999999997</ele><time>2026-04-03T10:54:13.931Z</time></trkpt><trkpt lat="44.007960067494885" lon="12.216735531803005"><ele>244.0</ele><time>2026-04-03T10:54:14.931Z</time></trkpt><trkpt lat="44.00802188300978" lon="12.216805374248793"><ele>244.0</ele><time>2026-04-03T10:54:15.931Z</time></trkpt><trkpt lat="44.008070005184" lon="12.21687306345257"><ele>244.0</ele><time>2026-04-03T10:54:16.931Z</time></trkpt><trkpt lat="44.00813048558964" lon="12.216898371157848"><ele>243.99999999999997</ele><time>2026-04-03T10:54:17.931Z</time></trkpt><trkpt lat="44.00819390472481" lon="12.216862283994152"><ele>244.0</ele><time>2026-04-03T10:54:18.931Z</time></trkpt><trkpt lat="44.008250751234506" lon="12.216770399153328"><ele>244.0</ele><time>2026-04-03T10:54:19.931Z</time></trkpt><trkpt lat="44.00827621596466" lon="12.216649554943327"><ele>243.99999999999997</ele><time>2026-04-03T10:54:20.931Z</time></trkpt><trkpt lat="44.00829517358512" lon="12.216521552313608"><ele>243.99999999999997</ele><time>2026-04-03T10:54:21.931Z</time></trkpt><trkpt lat="44.00830763697897" lon="12.216390924946909"><ele>244.0</ele><time>2026-04-03T10:54:22.931Z</time></trkpt><trkpt lat="44.008342006710436" lon="12.216254581265302"><ele>244.0</ele><time>2026-04-03T10:54:23.931Z</time></trkpt><trkpt lat="44.0083973445205" lon="12.216114623204628"><ele>241.25</ele><time>2026-04-03T10:54:24.931Z</time></trkpt><trkpt lat="44.00846845361487" lon="12.215975478151519"><ele>238.5</ele><time>2026-04-03T10:54:25.931Z</time></trkpt><trkpt lat="44.00854621493849" lon="12.21583366350043"><ele>235.75</ele><time>2026-04-03T10:54:26.931Z</time></trkpt><trkpt lat="44.0086296922204" lon="12.215693917549814"><ele>233.0</ele><time>2026-04-03T10:54:27.931Z</time></trkpt><trkpt lat="44.008701821058246" lon="12.21554425171985"><ele>231.5</ele><time>2026-04-03T10:54:28.931Z</time></trkpt><trkpt lat="44.008750945000656" lon="12.215377180934984"><ele>230.0</ele><time>2026-04-03T10:54:29.931Z</time></trkpt><trkpt lat="44.00877417567561" lon="12.215213187966823"><ele>228.5</ele><time>2026-04-03T10:54:30.931Z</time></trkpt><trkpt lat="44.00875015058908" lon="12.215046981755252"><ele>227.0</ele><time>2026-04-03T10:54:31.931Z</time></trkpt><trkpt lat="44.00872443249657" lon="12.214891781665976"><ele>224.0</ele><time>2026-04-03T10:54:32.931Z</time></trkpt><trkpt lat="44.008745528324184" lon="12.21475199011849"><ele>221.0</ele><time>2026-04-03T10:54:33.931Z</time></trkpt><trkpt lat="44.008797571233295" lon="12.214629873315335"><ele>218.0</ele><time>2026-04-03T10:54:34.931Z</time></trkpt><trkpt lat="44.00886430585985" lon="12.214502575143165"><ele>215.0</ele><time>2026-04-03T10:54:35.931Z</time></trkpt><trkpt lat="44.008952036515794" lon="12.214393316377349"><ele>212.0</ele><time>2026-04-03T10:54:36.931Z</time></trkpt><trkpt lat="44.00904593635113" lon="12.214279266365388"><ele>212.0</ele><time>2026-04-03T10:54:37.931Z</time></trkpt><trkpt lat="44.0091428969971" lon="12.214162404070786"><ele>212.0</ele><time>2026-04-03T10:54:38.931Z</time></trkpt><trkpt lat="44.00924322040165" lon="12.214060036344097"><ele>212.0</ele><time>2026-04-03T10:54:39.931Z</time></trkpt><trkpt lat="44.00934859218472" lon="12.213962481794965"><ele>212.0</ele><time>2026-04-03T10:54:40.931Z</time></trkpt><trkpt lat="44.0094630630557" lon="12.213872434037158"><ele>208.75</ele><time>2026-04-03T10:54:41.931Z</time></trkpt><trkpt lat="44.00957937128605" lon="12.213792534040465"><ele>205.5</ele><time>2026-04-03T10:54:42.931Z</time></trkpt><trkpt lat="44.00969930771821" lon="12.213719277651633"><ele>202.25</ele><time>2026-04-03T10:54:43.931Z</time></trkpt><trkpt lat="44.00981217400673" lon="12.213634356299387"><ele>199.0</ele><time>2026-04-03T10:54:44.931Z</time></trkpt><trkpt lat="44.00991513361789" lon="12.21353305202686"><ele>198.25</ele><time>2026-04-03T10:54:45.931Z</time></trkpt><trkpt lat="44.01001540301636" lon="12.213405905347665"><ele>197.5</ele><time>2026-04-03T10:54:46.931Z</time></trkpt><trkpt lat="44.010106608187606" lon="12.213264177480855"><ele>196.75</ele><time>2026-04-03T10:54:47.931Z</time></trkpt><trkpt lat="44.01018668877584" lon="12.213100481214251"><ele>196.0</ele><time>2026-04-03T10:54:48.931Z</time></trkpt><trkpt lat="44.010270097450416" lon="12.212946562823161"><ele>195.0</ele><time>2026-04-03T10:54:49.931Z</time></trkpt><trkpt lat="44.01034712791336" lon="12.212790422150295"><ele>194.0</ele><time>2026-04-03T10:54:50.931Z</time></trkpt><trkpt lat="44.01043016970107" lon="12.212651143542152"><ele>193.0</ele><time>2026-04-03T10:54:51.931Z</time></trkpt><trkpt lat="44.010514297295444" lon="12.21252091630822"><ele>192.0</ele><time>2026-04-03T10:54:52.931Z</time></trkpt><trkpt lat="44.010592227068756" lon="12.212399791048739"><ele>190.8</ele><time>2026-04-03T10:54:53.931Z</time></trkpt><trkpt lat="44.01064260761504" lon="12.212275857355047"><ele>189.6</ele><time>2026-04-03T10:54:54.931Z</time></trkpt><trkpt lat="44.01066378512968" lon="12.212139681280128"><ele>188.4</ele><time>2026-04-03T10:54:55.931Z</time></trkpt><trkpt lat="44.01064987757291" lon="12.212010018124378"><ele>187.20000000000002</ele><time>2026-04-03T10:54:56.931Z</time></trkpt><trkpt lat="44.010583361331435" lon="12.211899141572863"><ele>186.0</ele><time>2026-04-03T10:54:57.931Z</time></trkpt><trkpt lat="44.01049050016792" lon="12.211815597747828"><ele>186.0</ele><time>2026-04-03T10:54:58.931Z</time></trkpt><trkpt lat="44.01037016709862" lon="12.211744984820912"><ele>186.0</ele><time>2026-04-03T10:54:59.931Z</time></trkpt><trkpt lat="44.010239031034175" lon="12.211679295489398"><ele>186.0</ele><time>2026-04-03T10:55:00.931Z</time></trkpt><trkpt lat="44.01011057220573" lon="12.211618031104878"><ele>186.0</ele><time>2026-04-03T10:55:01.931Z</time></trkpt><trkpt lat="44.01001296939432" lon="12.211550177547217"><ele>184.60000000000002</ele><time>2026-04-03T10:55:02.931Z</time></trkpt><trkpt lat="44.00994442756641" lon="12.211466372584114"><ele>183.2</ele><time>2026-04-03T10:55:03.931Z</time></trkpt><trkpt lat="44.00989377744832" lon="12.211367599385948"><ele>181.8</ele><time>2026-04-03T10:55:04.931Z</time></trkpt><trkpt lat="44.009877473238234" lon="12.211244787463311"><ele>180.39999999999998</ele><time>2026-04-03T10:55:05.931Z</time></trkpt><trkpt lat="44.0099156007478" lon="12.21111685302859"><ele>179.0</ele><time>2026-04-03T10:55:06.931Z</time></trkpt><trkpt lat="44.009986008778576" lon="12.21099240165062"><ele>178.0</ele><time>2026-04-03T10:55:07.931Z</time></trkpt><trkpt lat="44.01006593439297" lon="12.21087199291723"><ele>177.0</ele><time>2026-04-03T10:55:08.931Z</time></trkpt><trkpt lat="44.010149430669316" lon="12.210764979883033"><ele>176.0</ele><time>2026-04-03T10:55:09.931Z</time></trkpt><trkpt lat="44.010238019507156" lon="12.210666513375617"><ele>175.0</ele><time>2026-04-03T10:55:10.93Z</time></trkpt><trkpt lat="44.01032182928187" lon="12.21054269839056"><ele>173.0</ele><time>2026-04-03T10:55:11.93Z</time></trkpt><trkpt lat="44.010378332701876" lon="12.210395719840635"><ele>171.0</ele><time>2026-04-03T10:55:12.93Z</time></trkpt><trkpt lat="44.010414833577684" lon="12.210238659376033"><ele>169.0</ele><time>2026-04-03T10:55:13.93Z</time></trkpt><trkpt lat="44.010421045687046" lon="12.210064167537027"><ele>167.0</ele><time>2026-04-03T10:55:14.93Z</time></trkpt><trkpt lat="44.010415024581995" lon="12.20990039286123"><ele>165.0</ele><time>2026-04-03T10:55:15.93Z</time></trkpt><trkpt lat="44.0104218343606" lon="12.209743727133423"><ele>163.0</ele><time>2026-04-03T10:55:16.93Z</time></trkpt><trkpt lat="44.01043159463774" lon="12.209566033181693"><ele>161.0</ele><time>2026-04-03T10:55:17.93Z</time></trkpt><trkpt lat="44.010437795963476" lon="12.209385429793764"><ele>159.0</ele><time>2026-04-03T10:55:18.93Z</time></trkpt><trkpt lat="44.01045981422153" lon="12.209202415306647"><ele>159.0</ele><time>2026-04-03T10:55:19.93Z</time></trkpt><trkpt lat="44.01048431740816" lon="12.209023815317027"><ele>159.0</ele><time>2026-04-03T10:55:20.93Z</time></trkpt><trkpt lat="44.010511174699765" lon="12.208850695926403"><ele>159.0</ele><time>2026-04-03T10:55:21.93Z</time></trkpt><trkpt lat="44.010540468846855" lon="12.208677930171586"><ele>159.0</ele><time>2026-04-03T10:55:22.93Z</time></trkpt><trkpt lat="44.01057179270322" lon="12.208513903922734"><ele>157.25</ele><time>2026-04-03T10:55:23.93Z</time></trkpt><trkpt lat="44.0105955875364" lon="12.20835085843663"><ele>155.5</ele><time>2026-04-03T10:55:24.93Z</time></trkpt><trkpt lat="44.01058372726672" lon="12.208188057485346"><ele>153.75</ele><time>2026-04-03T10:55:25.93Z</time></trkpt><trkpt lat="44.0105336574632" lon="12.208033883822367"><ele>152.0</ele><time>2026-04-03T10:55:26.93Z</time></trkpt><trkpt lat="44.01049104416694" lon="12.207892839135292"><ele>150.79999999999998</ele><time>2026-04-03T10:55:27.93Z</time></trkpt><trkpt lat="44.01047145368982" lon="12.207736817102"><ele>149.6</ele><time>2026-04-03T10:55:28.93Z</time></trkpt><trkpt lat="44.0104757344046" lon="12.207581326229608"><ele>148.39999999999998</ele><time>2026-04-03T10:55:29.93Z</time></trkpt><trkpt lat="44.01049067879322" lon="12.20744847531442"><ele>147.2</ele><time>2026-04-03T10:55:30.93Z</time></trkpt><trkpt lat="44.01046616249604" lon="12.207336737413488"><ele>146.0</ele><time>2026-04-03T10:55:31.93Z</time></trkpt><trkpt lat="44.01040438065111" lon="12.207243377961841"><ele>146.0</ele><time>2026-04-03T10:55:32.93Z</time></trkpt><trkpt lat="44.01031644193029" lon="12.20719466567286"><ele>146.0</ele><time>2026-04-03T10:55:33.93Z</time></trkpt><trkpt lat="44.010217924416324" lon="12.20722351147255"><ele>146.0</ele><time>2026-04-03T10:55:34.93Z</time></trkpt><trkpt lat="44.01012986495613" lon="12.207302299433909"><ele>146.0</ele><time>2026-04-03T10:55:35.93Z</time></trkpt><trkpt lat="44.01003196810433" lon="12.207428695116274"><ele>146.0</ele><time>2026-04-03T10:55:36.93Z</time></trkpt><trkpt lat="44.00995809055041" lon="12.207595625616504"><ele>145.75</ele><time>2026-04-03T10:55:37.93Z</time></trkpt><trkpt lat="44.009896218571406" lon="12.207768914436276"><ele>145.5</ele><time>2026-04-03T10:55:38.93Z</time></trkpt><trkpt lat="44.00984194397584" lon="12.207932167527316"><ele>145.25</ele><time>2026-04-03T10:55:39.93Z</time></trkpt><trkpt lat="44.00979573431957" lon="12.20807625509399"><ele>145.0</ele><time>2026-04-03T10:55:40.93Z</time></trkpt><trkpt lat="44.00975184875766" lon="12.208190858204603"><ele>145.0</ele><time>2026-04-03T10:55:41.93Z</time></trkpt><trkpt lat="44.00969911760052" lon="12.208259230934566"><ele>145.0</ele><time>2026-04-03T10:55:42.93Z</time></trkpt><trkpt lat="44.00957421351223" lon="12.2082383426633"><ele>145.0</ele><time>2026-04-03T10:55:44.93Z</time></trkpt><trkpt lat="44.00953119205241" lon="12.208137316802642"><ele>145.0</ele><time>2026-04-03T10:55:45.93Z</time></trkpt><trkpt lat="44.0095409404865" lon="12.208004799142739"><ele>145.0</ele><time>2026-04-03T10:55:46.93Z</time></trkpt><trkpt lat="44.009570974877846" lon="12.207852138677781"><ele>143.25</ele><time>2026-04-03T10:55:47.93Z</time></trkpt><trkpt lat="44.00958587633344" lon="12.20768551284023"><ele>141.5</ele><time>2026-04-03T10:55:48.93Z</time></trkpt><trkpt lat="44.009578920696086" lon="12.207510988213064"><ele>139.75</ele><time>2026-04-03T10:55:49.93Z</time></trkpt><trkpt lat="44.00955957675264" lon="12.20733402582902"><ele>138.0</ele><time>2026-04-03T10:55:50.93Z</time></trkpt><trkpt lat="44.00953975228289" lon="12.207155459806152"><ele>135.75</ele><time>2026-04-03T10:55:51.93Z</time></trkpt><trkpt lat="44.00953695286327" lon="12.206974634516769"><ele>133.5</ele><time>2026-04-03T10:55:52.93Z</time></trkpt><trkpt lat="44.00954557771671" lon="12.20679933020868"><ele>131.25</ele><time>2026-04-03T10:55:53.93Z</time></trkpt><trkpt lat="44.00955350861167" lon="12.206625729687318"><ele>129.0</ele><time>2026-04-03T10:55:54.93Z</time></trkpt><trkpt lat="44.00954461425556" lon="12.206464671884346"><ele>128.0</ele><time>2026-04-03T10:55:55.93Z</time></trkpt><trkpt lat="44.009507743847166" lon="12.206308423150043"><ele>127.0</ele><time>2026-04-03T10:55:56.93Z</time></trkpt><trkpt lat="44.009466203430186" lon="12.206158925328062"><ele>126.0</ele><time>2026-04-03T10:55:57.928Z</time></trkpt><trkpt lat="44.00942606308477" lon="12.206007583656817"><ele>125.0</ele><time>2026-04-03T10:55:58.928Z</time></trkpt><trkpt lat="44.00940368007848" lon="12.205850984159152"><ele>125.0</ele><time>2026-04-03T10:55:59.928Z</time></trkpt><trkpt lat="44.009418369607765" lon="12.20570216109441"><ele>125.0</ele><time>2026-04-03T10:56:00.928Z</time></trkpt><trkpt lat="44.00944940766334" lon="12.205584783084399"><ele>125.0</ele><time>2026-04-03T10:56:01.928Z</time></trkpt><trkpt lat="44.009471452627004" lon="12.205479088541395"><ele>125.0</ele><time>2026-04-03T10:56:02.928Z</time></trkpt><trkpt lat="44.00945555846003" lon="12.205393455438662"><ele>125.0</ele><time>2026-04-03T10:56:03.927Z</time></trkpt><trkpt lat="44.00933599027518" lon="12.205333537254381"><ele>125.0</ele><time>2026-04-03T10:56:05.928Z</time></trkpt><trkpt lat="44.00926607650622" lon="12.205406676973734"><ele>125.0</ele><time>2026-04-03T10:56:06.928Z</time></trkpt><trkpt lat="44.00921293612903" lon="12.205538980295522"><ele>125.0</ele><time>2026-04-03T10:56:07.928Z</time></trkpt><trkpt lat="44.00919259752539" lon="12.20569110844127"><ele>125.0</ele><time>2026-04-03T10:56:08.928Z</time></trkpt><trkpt lat="44.00918829413207" lon="12.20583201361014"><ele>125.0</ele><time>2026-04-03T10:56:09.928Z</time></trkpt><trkpt lat="44.00919063633655" lon="12.205952447520227"><ele>125.0</ele><time>2026-04-03T10:56:10.928Z</time></trkpt><trkpt lat="44.00916910922869" lon="12.206052263775751"><ele>125.0</ele><time>2026-04-03T10:56:11.928Z</time></trkpt><trkpt lat="44.00906887271408" lon="12.206125621496366"><ele>125.0</ele><time>2026-04-03T10:56:13.928Z</time></trkpt><trkpt lat="44.00900128953011" lon="12.2059702071741"><ele>125.0</ele><time>2026-04-03T10:56:15.928Z</time></trkpt><trkpt lat="44.00900278260468" lon="12.205850724955932"><ele>125.0</ele><time>2026-04-03T10:56:16.928Z</time></trkpt><trkpt lat="44.009007601434725" lon="12.20571712153237"><ele>121.6</ele><time>2026-04-03T10:56:17.928Z</time></trkpt><trkpt lat="44.00901281968069" lon="12.205578860628309"><ele>118.2</ele><time>2026-04-03T10:56:18.928Z</time></trkpt><trkpt lat="44.00900947213712" lon="12.20543523705159"><ele>114.80000000000001</ele><time>2026-04-03T10:56:19.928Z</time></trkpt><trkpt lat="44.00898432100254" lon="12.20529831240084"><ele>111.4</ele><time>2026-04-03T10:56:20.928Z</time></trkpt><trkpt lat="44.0089415595906" lon="12.205147741527778"><ele>108.0</ele><time>2026-04-03T10:56:21.928Z</time></trkpt><trkpt lat="44.00889702122998" lon="12.204995765801264"><ele>108.0</ele><time>2026-04-03T10:56:22.928Z</time></trkpt><trkpt lat="44.00885460955285" lon="12.204846760855503"><ele>108.00000000000001</ele><time>2026-04-03T10:56:23.928Z</time></trkpt><trkpt lat="44.008811781933595" lon="12.204705498181797"><ele>108.00000000000001</ele><time>2026-04-03T10:56:24.928Z</time></trkpt><trkpt lat="44.00877993361627" lon="12.20456883965305"><ele>108.0</ele><time>2026-04-03T10:56:25.928Z</time></trkpt><trkpt lat="44.00877039320771" lon="12.204442995271387"><ele>108.0</ele><time>2026-04-03T10:56:26.928Z</time></trkpt><trkpt lat="44.00878403566892" lon="12.204343189171265"><ele>107.5</ele><time>2026-04-03T10:56:27.928Z</time></trkpt><trkpt lat="44.008828680917865" lon="12.20426654122166"><ele>107.0</ele><time>2026-04-03T10:56:28.928Z</time></trkpt><trkpt lat="44.008895650413045" lon="12.204222478002961"><ele>106.5</ele><time>2026-04-03T10:56:29.928Z</time></trkpt><trkpt lat="44.00897260369258" lon="12.204208365758904"><ele>106.0</ele><time>2026-04-03T10:56:30.928Z</time></trkpt><trkpt lat="44.009049597758505" lon="12.204205166882822"><ele>105.5</ele><time>2026-04-03T10:56:31.928Z</time></trkpt><trkpt lat="44.009131295044504" lon="12.204215210409899"><ele>105.0</ele><time>2026-04-03T10:56:32.928Z</time></trkpt><trkpt lat="44.0092117858306" lon="12.204225760388695"><ele>105.0</ele><time>2026-04-03T10:56:33.928Z</time></trkpt><trkpt lat="44.009304210912305" lon="12.204203434211031"><ele>105.0</ele><time>2026-04-03T10:56:34.928Z</time></trkpt><trkpt lat="44.009392543865616" lon="12.204180476673136"><ele>105.0</ele><time>2026-04-03T10:56:35.928Z</time></trkpt><trkpt lat="44.00949015177357" lon="12.204154689999521"><ele>105.0</ele><time>2026-04-03T10:56:36.928Z</time></trkpt><trkpt lat="44.009585796861266" lon="12.204132197804245"><ele>105.0</ele><time>2026-04-03T10:56:37.928Z</time></trkpt><trkpt lat="44.00968349121675" lon="12.204114716352091"><ele>105.0</ele><time>2026-04-03T10:56:38.928Z</time></trkpt><trkpt lat="44.00977941696363" lon="12.204095100500073"><ele>105.0</ele><time>2026-04-03T10:56:39.928Z</time></trkpt><trkpt lat="44.009870994873125" lon="12.204073936293494"><ele>105.0</ele><time>2026-04-03T10:56:40.928Z</time></trkpt><trkpt lat="44.00996795138098" lon="12.204052070802865"><ele>105.0</ele><time>2026-04-03T10:56:41.928Z</time></trkpt><trkpt lat="44.01006503981426" lon="12.204034361410958"><ele>105.0</ele><time>2026-04-03T10:56:42.928Z</time></trkpt><trkpt lat="44.01015729566055" lon="12.204015380576017"><ele>104.6</ele><time>2026-04-03T10:56:43.928Z</time></trkpt><trkpt lat="44.0102510697914" lon="12.20400824989622"><ele>104.2</ele><time>2026-04-03T10:56:44.928Z</time></trkpt><trkpt lat="44.01034675347276" lon="12.204036680384087"><ele>103.80000000000001</ele><time>2026-04-03T10:56:45.928Z</time></trkpt><trkpt lat="44.01043683988077" lon="12.204082674166145"><ele>103.4</ele><time>2026-04-03T10:56:46.928Z</time></trkpt><trkpt lat="44.010522593799095" lon="12.204137552897034"><ele>103.0</ele><time>2026-04-03T10:56:47.928Z</time></trkpt><trkpt lat="44.01060378953949" lon="12.204194101225992"><ele>103.00000000000001</ele><time>2026-04-03T10:56:48.928Z</time></trkpt><trkpt lat="44.01068501205771" lon="12.204246837917983"><ele>103.0</ele><time>2026-04-03T10:56:49.927Z</time></trkpt><trkpt lat="44.01076349670036" lon="12.204305700215928"><ele>103.0</ele><time>2026-04-03T10:56:50.927Z</time></trkpt><trkpt lat="44.01084208294241" lon="12.204363316749783"><ele>103.0</ele><time>2026-04-03T10:56:51.927Z</time></trkpt><trkpt lat="44.010916232385824" lon="12.204393199414197"><ele>103.00000000000001</ele><time>2026-04-03T10:56:52.927Z</time></trkpt><trkpt lat="44.01098499562217" lon="12.204398691710285"><ele>103.0</ele><time>2026-04-03T10:56:53.927Z</time></trkpt><trkpt lat="44.01109537275811" lon="12.204355131162597"><ele>101.33333333333334</ele><time>2026-04-03T10:56:55.927Z</time></trkpt><trkpt lat="44.01117393003168" lon="12.20429824423441"><ele>99.66666666666667</ele><time>2026-04-03T10:56:57.927Z</time></trkpt><trkpt lat="44.01125158044853" lon="12.204272806580411"><ele>98.0</ele><time>2026-04-03T10:56:59.927Z</time></trkpt><trkpt lat="44.011315943331006" lon="12.204305435491186"><ele>96.33333333333334</ele><time>2026-04-03T10:57:00.927Z</time></trkpt><trkpt lat="44.011383920638586" lon="12.204349335568946"><ele>94.66666666666667</ele><time>2026-04-03T10:57:01.927Z</time></trkpt><trkpt lat="44.01146497726888" lon="12.204406028911558"><ele>93.0</ele><time>2026-04-03T10:57:02.927Z</time></trkpt><trkpt lat="44.01156587025718" lon="12.20445311233542"><ele>92.0</ele><time>2026-04-03T10:57:03.927Z</time></trkpt><trkpt lat="44.01168042026341" lon="12.204497158018636"><ele>91.0</ele><time>2026-04-03T10:57:04.927Z</time></trkpt><trkpt lat="44.01179478695655" lon="12.2045395273963"><ele>90.0</ele><time>2026-04-03T10:57:05.927Z</time></trkpt><trkpt lat="44.01191069701581" lon="12.204592271686948"><ele>89.0</ele><time>2026-04-03T10:57:06.927Z</time></trkpt><trkpt lat="44.0120169495514" lon="12.204635146609776"><ele>89.0</ele><time>2026-04-03T10:57:07.927Z</time></trkpt><trkpt lat="44.012117797048795" lon="12.2046807275565"><ele>89.0</ele><time>2026-04-03T10:57:08.927Z</time></trkpt><trkpt lat="44.0122180436347" lon="12.204729428553916"><ele>89.0</ele><time>2026-04-03T10:57:09.927Z</time></trkpt><trkpt lat="44.012316347798595" lon="12.204778254797787"><ele>89.0</ele><time>2026-04-03T10:57:10.927Z</time></trkpt><trkpt lat="44.0124212666457" lon="12.204821156723286"><ele>89.0</ele><time>2026-04-03T10:57:11.927Z</time></trkpt><trkpt lat="44.01252494553844" lon="12.204870721708742"><ele>88.75</ele><time>2026-04-03T10:57:12.927Z</time></trkpt><trkpt lat="44.0126339609162" lon="12.204926951116065"><ele>88.5</ele><time>2026-04-03T10:57:13.927Z</time></trkpt><trkpt lat="44.01274778825572" lon="12.204981712349051"><ele>88.25</ele><time>2026-04-03T10:57:14.927Z</time></trkpt><trkpt lat="44.0128640905222" lon="12.205032344399193"><ele>88.0</ele><time>2026-04-03T10:57:15.927Z</time></trkpt><trkpt lat="44.01298035112905" lon="12.205076558691811"><ele>88.0</ele><time>2026-04-03T10:57:16.927Z</time></trkpt><trkpt lat="44.01309629582974" lon="12.205124182880521"><ele>88.0</ele><time>2026-04-03T10:57:17.927Z</time></trkpt><trkpt lat="44.01321258115148" lon="12.205175807850413"><ele>88.0</ele><time>2026-04-03T10:57:18.927Z</time></trkpt><trkpt lat="44.013330121078965" lon="12.205228285261255"><ele>88.0</ele><time>2026-04-03T10:57:19.927Z</time></trkpt><trkpt lat="44.01344797120785" lon="12.205277978409164"><ele>87.75</ele><time>2026-04-03T10:57:20.927Z</time></trkpt><trkpt lat="44.013566730315496" lon="12.205328792567412"><ele>87.5</ele><time>2026-04-03T10:57:21.927Z</time></trkpt><trkpt lat="44.01368014129251" lon="12.205372994933409"><ele>87.25</ele><time>2026-04-03T10:57:22.927Z</time></trkpt><trkpt lat="44.0137962308342" lon="12.205417043447246"><ele>87.0</ele><time>2026-04-03T10:57:23.927Z</time></trkpt><trkpt lat="44.01391401466393" lon="12.20545072212258"><ele>87.0</ele><time>2026-04-03T10:57:24.927Z</time></trkpt><trkpt lat="44.01403331044742" lon="12.205479751590852"><ele>87.0</ele><time>2026-04-03T10:57:25.927Z</time></trkpt><trkpt lat="44.01414884490795" lon="12.20551013477851"><ele>87.0</ele><time>2026-04-03T10:57:26.927Z</time></trkpt><trkpt lat="44.01426124925057" lon="12.205525324791289"><ele>87.0</ele><time>2026-04-03T10:57:27.927Z</time></trkpt><trkpt lat="44.01436719999444" lon="12.20553344265103"><ele>87.0</ele><time>2026-04-03T10:57:28.927Z</time></trkpt><trkpt lat="44.0144617983539" lon="12.205540611562444"><ele>87.0</ele><time>2026-04-03T10:57:29.927Z</time></trkpt><trkpt lat="44.01454933955967" lon="12.205526143426557"><ele>87.0</ele><time>2026-04-03T10:57:30.927Z</time></trkpt><trkpt lat="44.014631928197296" lon="12.20550871727611"><ele>87.0</ele><time>2026-04-03T10:57:31.927Z</time></trkpt><trkpt lat="44.01471088813005" lon="12.20550551587628"><ele>87.0</ele><time>2026-04-03T10:57:32.927Z</time></trkpt><trkpt lat="44.014791322018574" lon="12.205504580001687"><ele>87.0</ele><time>2026-04-03T10:57:33.927Z</time></trkpt><trkpt lat="44.01486252481944" lon="12.205500374387357"><ele>87.0</ele><time>2026-04-03T10:57:34.927Z</time></trkpt><trkpt lat="44.014929323890115" lon="12.205457698309045"><ele>87.0</ele><time>2026-04-03T10:57:35.927Z</time></trkpt><trkpt lat="44.01498035060158" lon="12.205391137700417"><ele>87.0</ele><time>2026-04-03T10:57:36.927Z</time></trkpt><trkpt lat="44.01500564769525" lon="12.205308111173101"><ele>87.0</ele><time>2026-04-03T10:57:37.927Z</time></trkpt><trkpt lat="44.01499673963663" lon="12.205165797599168"><ele>87.0</ele><time>2026-04-03T10:57:39.927Z</time></trkpt><trkpt lat="44.014961185515716" lon="12.205083842791678"><ele>87.0</ele><time>2026-04-03T10:58:18.925Z</time></trkpt><trkpt lat="44.0150005970829" lon="12.205009412246893"><ele>87.0</ele><time>2026-04-03T10:58:20.925Z</time></trkpt><trkpt lat="44.01504562377802" lon="12.204938868395276"><ele>86.8</ele><time>2026-04-03T10:58:21.925Z</time></trkpt><trkpt lat="44.015110415327186" lon="12.204879575195289"><ele>86.6</ele><time>2026-04-03T10:58:22.925Z</time></trkpt><trkpt lat="44.015197846459984" lon="12.204837765834379"><ele>86.39999999999999</ele><time>2026-04-03T10:58:23.925Z</time></trkpt><trkpt lat="44.01530179402053" lon="12.204830935607923"><ele>86.19999999999999</ele><time>2026-04-03T10:58:24.925Z</time></trkpt><trkpt lat="44.015408541812796" lon="12.204845329161953"><ele>86.0</ele><time>2026-04-03T10:58:25.925Z</time></trkpt><trkpt lat="44.01551719246342" lon="12.204857384993497"><ele>86.0</ele><time>2026-04-03T10:58:26.925Z</time></trkpt><trkpt lat="44.01564001602965" lon="12.2048722309291"><ele>86.0</ele><time>2026-04-03T10:58:27.925Z</time></trkpt><trkpt lat="44.01575846521872" lon="12.204885585151272"><ele>86.0</ele><time>2026-04-03T10:58:28.925Z</time></trkpt><trkpt lat="44.015869746145576" lon="12.204889868531707"><ele>86.0</ele><time>2026-04-03T10:58:29.925Z</time></trkpt><trkpt lat="44.01598264784325" lon="12.204893390762772"><ele>86.0</ele><time>2026-04-03T10:58:30.925Z</time></trkpt><trkpt lat="44.01610051334697" lon="12.204889695687946"><ele>86.0</ele><time>2026-04-03T10:58:31.925Z</time></trkpt><trkpt lat="44.016218400245634" lon="12.204880621072784"><ele>86.0</ele><time>2026-04-03T10:58:32.925Z</time></trkpt><trkpt lat="44.01634516606874" lon="12.204865301958854"><ele>86.0</ele><time>2026-04-03T10:58:33.925Z</time></trkpt><trkpt lat="44.016482626926795" lon="12.204859167710419"><ele>86.0</ele><time>2026-04-03T10:58:34.925Z</time></trkpt><trkpt lat="44.016628347887064" lon="12.204849871585578"><ele>86.0</ele><time>2026-04-03T10:58:35.925Z</time></trkpt><trkpt lat="44.01678115227598" lon="12.204842551655746"><ele>86.0</ele><time>2026-04-03T10:58:36.925Z</time></trkpt><trkpt lat="44.0169415180773" lon="12.204826752391579"><ele>85.33333333333334</ele><time>2026-04-03T10:58:37.925Z</time></trkpt><trkpt lat="44.017105997715994" lon="12.204802055332841"><ele>84.66666666666667</ele><time>2026-04-03T10:58:38.925Z</time></trkpt><trkpt lat="44.0172730173233" lon="12.204775677752716"><ele>84.0</ele><time>2026-04-03T10:58:39.925Z</time></trkpt><trkpt lat="44.01744500242464" lon="12.204742157665939"><ele>83.66666666666667</ele><time>2026-04-03T10:58:40.924Z</time></trkpt><trkpt lat="44.01762268793708" lon="12.20470270036217"><ele>83.33333333333334</ele><time>2026-04-03T10:58:41.924Z</time></trkpt><trkpt lat="44.0178083878124" lon="12.204651572377738"><ele>83.0</ele><time>2026-04-03T10:58:42.924Z</time></trkpt><trkpt lat="44.0179966985304" lon="12.204591857143404"><ele>83.0</ele><time>2026-04-03T10:58:43.924Z</time></trkpt><trkpt lat="44.018185193283294" lon="12.204527088411279"><ele>83.0</ele><time>2026-04-03T10:58:44.924Z</time></trkpt><trkpt lat="44.01837418245329" lon="12.204461344762132"><ele>83.0</ele><time>2026-04-03T10:58:45.924Z</time></trkpt><trkpt lat="44.018566005028006" lon="12.204396580948675"><ele>84.33333333333334</ele><time>2026-04-03T10:58:46.924Z</time></trkpt><trkpt lat="44.01875819751496" lon="12.204328198291487"><ele>85.66666666666667</ele><time>2026-04-03T10:58:47.924Z</time></trkpt><trkpt lat="44.018953452356286" lon="12.204255923965396"><ele>87.0</ele><time>2026-04-03T10:58:48.924Z</time></trkpt><trkpt lat="44.019150996726054" lon="12.204180640866445"><ele>87.0</ele><time>2026-04-03T10:58:49.924Z</time></trkpt><trkpt lat="44.019352179440396" lon="12.204109777065424"><ele>87.0</ele><time>2026-04-03T10:58:50.924Z</time></trkpt><trkpt lat="44.01954551965555" lon="12.204042605485144"><ele>87.0</ele><time>2026-04-03T10:58:51.924Z</time></trkpt><trkpt lat="44.01973988434873" lon="12.203979595798153"><ele>87.0</ele><time>2026-04-03T10:58:52.924Z</time></trkpt><trkpt lat="44.01992956724861" lon="12.203913120588709"><ele>87.0</ele><time>2026-04-03T10:58:53.924Z</time></trkpt><trkpt lat="44.02012464434524" lon="12.203845692534419"><ele>87.0</ele><time>2026-04-03T10:58:54.924Z</time></trkpt><trkpt lat="44.02032896012499" lon="12.203771093334042"><ele>87.0</ele><time>2026-04-03T10:58:55.924Z</time></trkpt><trkpt lat="44.020539024731605" lon="12.203693385208295"><ele>87.0</ele><time>2026-04-03T10:58:56.924Z</time></trkpt><trkpt lat="44.02075423339658" lon="12.20361623768283"><ele>87.0</ele><time>2026-04-03T10:58:57.924Z</time></trkpt><trkpt lat="44.020972053141335" lon="12.203532941481663"><ele>88.0</ele><time>2026-04-03T10:58:58.924Z</time></trkpt><trkpt lat="44.02119461502601" lon="12.203454463713106"><ele>89.0</ele><time>2026-04-03T10:58:59.924Z</time></trkpt><trkpt lat="44.021417749846066" lon="12.203371111058994"><ele>89.0</ele><time>2026-04-03T10:59:00.924Z</time></trkpt><trkpt lat="44.021644794410406" lon="12.203293097670779"><ele>89.0</ele><time>2026-04-03T10:59:01.924Z</time></trkpt><trkpt lat="44.02186473035907" lon="12.20321556909839"><ele>87.5</ele><time>2026-04-03T10:59:02.924Z</time></trkpt><trkpt lat="44.022083468469454" lon="12.20312490245104"><ele>86.0</ele><time>2026-04-03T10:59:03.924Z</time></trkpt><trkpt lat="44.02230279015392" lon="12.203043097366152"><ele>86.0</ele><time>2026-04-03T10:59:04.924Z</time></trkpt><trkpt lat="44.022521213107154" lon="12.202966677761218"><ele>86.0</ele><time>2026-04-03T10:59:05.924Z</time></trkpt><trkpt lat="44.02274568126125" lon="12.202892451362965"><ele>86.0</ele><time>2026-04-03T10:59:06.924Z</time></trkpt><trkpt lat="44.02296318929454" lon="12.20281692206792"><ele>86.0</ele><time>2026-04-03T10:59:07.924Z</time></trkpt><trkpt lat="44.023181868890155" lon="12.202737636624526"><ele>84.5</ele><time>2026-04-03T10:59:08.924Z</time></trkpt><trkpt lat="44.02340014374144" lon="12.202656425255398"><ele>83.0</ele><time>2026-04-03T10:59:09.924Z</time></trkpt><trkpt lat="44.02361758869966" lon="12.202574242522854"><ele>83.0</ele><time>2026-04-03T10:59:10.924Z</time></trkpt><trkpt lat="44.023832417798744" lon="12.20249173399213"><ele>83.0</ele><time>2026-04-03T10:59:11.924Z</time></trkpt><trkpt lat="44.024053508685064" lon="12.202419691749629"><ele>83.33333333333334</ele><time>2026-04-03T10:59:12.924Z</time></trkpt><trkpt lat="44.02427090189303" lon="12.202343993871882"><ele>83.66666666666667</ele><time>2026-04-03T10:59:13.924Z</time></trkpt><trkpt lat="44.02448602507973" lon="12.202261623539695"><ele>84.0</ele><time>2026-04-03T10:59:14.924Z</time></trkpt><trkpt lat="44.024696610654324" lon="12.20216971194603"><ele>82.66666666666667</ele><time>2026-04-03T10:59:15.924Z</time></trkpt><trkpt lat="44.02490492345898" lon="12.202069377584964"><ele>81.33333333333334</ele><time>2026-04-03T10:59:16.924Z</time></trkpt><trkpt lat="44.02510890723723" lon="12.201963300347932"><ele>80.0</ele><time>2026-04-03T10:59:17.924Z</time></trkpt><trkpt lat="44.025311674203195" lon="12.201849317890296"><ele>80.0</ele><time>2026-04-03T10:59:18.924Z</time></trkpt><trkpt lat="44.025513847180925" lon="12.201729518102576"><ele>80.0</ele><time>2026-04-03T10:59:19.924Z</time></trkpt><trkpt lat="44.02571053989146" lon="12.201601930895169"><ele>80.0</ele><time>2026-04-03T10:59:20.924Z</time></trkpt><trkpt lat="44.025900438813125" lon="12.201470995334232"><ele>79.0</ele><time>2026-04-03T10:59:21.924Z</time></trkpt><trkpt lat="44.02608718961892" lon="12.201336393772893"><ele>78.0</ele><time>2026-04-03T10:59:22.924Z</time></trkpt><trkpt lat="44.026271406959545" lon="12.201198235816193"><ele>77.0</ele><time>2026-04-03T10:59:23.924Z</time></trkpt><trkpt lat="44.02645886263072" lon="12.201057461776903"><ele>77.0</ele><time>2026-04-03T10:59:24.924Z</time></trkpt><trkpt lat="44.026637022239555" lon="12.200906180521965"><ele>77.0</ele><time>2026-04-03T10:59:25.924Z</time></trkpt><trkpt lat="44.02681605692778" lon="12.200747801139944"><ele>77.0</ele><time>2026-04-03T10:59:26.924Z</time></trkpt><trkpt lat="44.026993289947725" lon="12.200584217968228"><ele>77.0</ele><time>2026-04-03T10:59:27.924Z</time></trkpt><trkpt lat="44.02716820995094" lon="12.200409930374468"><ele>77.0</ele><time>2026-04-03T10:59:28.924Z</time></trkpt><trkpt lat="44.02734131942286" lon="12.200230482577162"><ele>77.0</ele><time>2026-04-03T10:59:29.924Z</time></trkpt><trkpt lat="44.02751074150564" lon="12.200047078634066"><ele>77.0</ele><time>2026-04-03T10:59:30.924Z</time></trkpt><trkpt lat="44.02768271416417" lon="12.199858244770962"><ele>77.0</ele><time>2026-04-03T10:59:31.924Z</time></trkpt><trkpt lat="44.02785336746107" lon="12.199664832296198"><ele>77.0</ele><time>2026-04-03T10:59:32.924Z</time></trkpt><trkpt lat="44.02802419668477" lon="12.199473033489072"><ele>76.66666666666667</ele><time>2026-04-03T10:59:33.924Z</time></trkpt><trkpt lat="44.028199275922155" lon="12.199283961987899"><ele>76.33333333333333</ele><time>2026-04-03T10:59:34.924Z</time></trkpt><trkpt lat="44.02837605339804" lon="12.199092572535964"><ele>76.0</ele><time>2026-04-03T10:59:35.924Z</time></trkpt><trkpt lat="44.028552728232796" lon="12.198897133459296"><ele>75.0</ele><time>2026-04-03T10:59:36.924Z</time></trkpt><trkpt lat="44.02872935104978" lon="12.198694664048693"><ele>74.0</ele><time>2026-04-03T10:59:37.924Z</time></trkpt><trkpt lat="44.028904828805864" lon="12.19849003774405"><ele>74.0</ele><time>2026-04-03T10:59:38.924Z</time></trkpt><trkpt lat="44.02908574633362" lon="12.198279839103574"><ele>74.0</ele><time>2026-04-03T10:59:39.924Z</time></trkpt><trkpt lat="44.02926617122579" lon="12.198064364752723"><ele>75.5</ele><time>2026-04-03T10:59:40.924Z</time></trkpt><trkpt lat="44.02945066233884" lon="12.19785208551245"><ele>77.0</ele><time>2026-04-03T10:59:41.924Z</time></trkpt><trkpt lat="44.02964247666257" lon="12.197639734616569"><ele>77.0</ele><time>2026-04-03T10:59:42.924Z</time></trkpt><trkpt lat="44.029836890022864" lon="12.197425836738146"><ele>77.0</ele><time>2026-04-03T10:59:43.924Z</time></trkpt><trkpt lat="44.030030081348855" lon="12.197207961851117"><ele>78.5</ele><time>2026-04-03T10:59:44.924Z</time></trkpt><trkpt lat="44.03022271011921" lon="12.196995541214491"><ele>80.0</ele><time>2026-04-03T10:59:45.924Z</time></trkpt><trkpt lat="44.030419930809664" lon="12.196787359156517"><ele>80.0</ele><time>2026-04-03T10:59:46.924Z</time></trkpt><trkpt lat="44.03062082621665" lon="12.196585453788789"><ele>80.0</ele><time>2026-04-03T10:59:47.924Z</time></trkpt><trkpt lat="44.030818311071705" lon="12.196378929929883"><ele>83.5</ele><time>2026-04-03T10:59:48.924Z</time></trkpt><trkpt lat="44.0310132895735" lon="12.196164352075904"><ele>87.0</ele><time>2026-04-03T10:59:49.924Z</time></trkpt><trkpt lat="44.03120457830991" lon="12.195948500709594"><ele>87.0</ele><time>2026-04-03T10:59:50.924Z</time></trkpt><trkpt lat="44.03138683855384" lon="12.195725155782274"><ele>87.0</ele><time>2026-04-03T10:59:51.924Z</time></trkpt><trkpt lat="44.031568640584226" lon="12.195510212984788"><ele>86.0</ele><time>2026-04-03T10:59:52.924Z</time></trkpt><trkpt lat="44.031754512116734" lon="12.195309234091557"><ele>85.0</ele><time>2026-04-03T10:59:53.924Z</time></trkpt><trkpt lat="44.03194244251651" lon="12.195107204595992"><ele>85.0</ele><time>2026-04-03T10:59:54.924Z</time></trkpt><trkpt lat="44.032130517523065" lon="12.194900081691404"><ele>85.0</ele><time>2026-04-03T10:59:55.924Z</time></trkpt><trkpt lat="44.03232377341115" lon="12.194691878148287"><ele>79.0</ele><time>2026-04-03T10:59:56.924Z</time></trkpt><trkpt lat="44.0325132670525" lon="12.194491030132518"><ele>73.0</ele><time>2026-04-03T10:59:57.924Z</time></trkpt><trkpt lat="44.03269489445283" lon="12.194289213873578"><ele>73.0</ele><time>2026-04-03T10:59:58.924Z</time></trkpt><trkpt lat="44.03287847863593" lon="12.194087225800947"><ele>73.0</ele><time>2026-04-03T10:59:59.924Z</time></trkpt><trkpt lat="44.03306245739227" lon="12.193888903632356"><ele>73.0</ele><time>2026-04-03T11:00:00.924Z</time></trkpt><trkpt lat="44.03324571949067" lon="12.193693972982947"><ele>73.0</ele><time>2026-04-03T11:00:01.924Z</time></trkpt><trkpt lat="44.03342887895481" lon="12.193493451064525"><ele>73.5</ele><time>2026-04-03T11:00:02.924Z</time></trkpt><trkpt lat="44.033611823654866" lon="12.193291975746899"><ele>74.0</ele><time>2026-04-03T11:00:03.924Z</time></trkpt><trkpt lat="44.03379353453225" lon="12.193089974000275"><ele>73.0</ele><time>2026-04-03T11:00:04.924Z</time></trkpt><trkpt lat="44.033975983420916" lon="12.192889303537537"><ele>72.0</ele><time>2026-04-03T11:00:05.924Z</time></trkpt><trkpt lat="44.034157996672576" lon="12.192687303272235"><ele>72.0</ele><time>2026-04-03T11:00:06.924Z</time></trkpt><trkpt lat="44.03433931595031" lon="12.192487279012262"><ele>72.0</ele><time>2026-04-03T11:00:07.924Z</time></trkpt><trkpt lat="44.034518819424584" lon="12.192284287858538"><ele>71.0</ele><time>2026-04-03T11:00:08.924Z</time></trkpt><trkpt lat="44.034696663012014" lon="12.19208291455299"><ele>70.0</ele><time>2026-04-03T11:00:09.921Z</time></trkpt><trkpt lat="44.03487811786788" lon="12.191883096299193"><ele>70.5</ele><time>2026-04-03T11:00:10.922Z</time></trkpt><trkpt lat="44.035061534751584" lon="12.191684588833176"><ele>71.0</ele><time>2026-04-03T11:00:11.922Z</time></trkpt><trkpt lat="44.03524772308299" lon="12.191488653924079"><ele>71.0</ele><time>2026-04-03T11:00:12.921Z</time></trkpt><trkpt lat="44.03543411039615" lon="12.191298412220696"><ele>71.0</ele><time>2026-04-03T11:00:13.922Z</time></trkpt><trkpt lat="44.035624710032835" lon="12.191109134419483"><ele>72.0</ele><time>2026-04-03T11:00:14.922Z</time></trkpt><trkpt lat="44.03581663024966" lon="12.190928719290614"><ele>73.0</ele><time>2026-04-03T11:00:15.921Z</time></trkpt><trkpt lat="44.03601369055887" lon="12.190753727497647"><ele>72.5</ele><time>2026-04-03T11:00:16.921Z</time></trkpt><trkpt lat="44.036215833517446" lon="12.190586592425138"><ele>72.0</ele><time>2026-04-03T11:00:17.921Z</time></trkpt><trkpt lat="44.03642379422088" lon="12.190426908721482"><ele>72.0</ele><time>2026-04-03T11:00:18.921Z</time></trkpt><trkpt lat="44.03663343759093" lon="12.19027081381134"><ele>72.0</ele><time>2026-04-03T11:00:19.921Z</time></trkpt><trkpt lat="44.0368426418346" lon="12.190117698556866"><ele>72.5</ele><time>2026-04-03T11:00:20.921Z</time></trkpt><trkpt lat="44.037055788967486" lon="12.189971897316605"><ele>73.0</ele><time>2026-04-03T11:00:21.921Z</time></trkpt><trkpt lat="44.03727124426792" lon="12.189832995950725"><ele>73.0</ele><time>2026-04-03T11:00:22.921Z</time></trkpt><trkpt lat="44.03749371802067" lon="12.189710680493794"><ele>73.0</ele><time>2026-04-03T11:00:23.921Z</time></trkpt><trkpt lat="44.03771496658463" lon="12.18958596185272"><ele>73.0</ele><time>2026-04-03T11:00:24.921Z</time></trkpt><trkpt lat="44.037936207794985" lon="12.189462268103888"><ele>73.0</ele><time>2026-04-03T11:00:25.921Z</time></trkpt><trkpt lat="44.038155803564884" lon="12.189343009702752"><ele>73.5</ele><time>2026-04-03T11:00:26.921Z</time></trkpt><trkpt lat="44.03837421963945" lon="12.18921993877239"><ele>74.0</ele><time>2026-04-03T11:00:27.921Z</time></trkpt><trkpt lat="44.03858839658869" lon="12.189099794814078"><ele>72.5</ele><time>2026-04-03T11:00:28.921Z</time></trkpt><trkpt lat="44.038804377583375" lon="12.188977061830812"><ele>71.0</ele><time>2026-04-03T11:00:29.921Z</time></trkpt><trkpt lat="44.03901895952288" lon="12.188857500301001"><ele>70.5</ele><time>2026-04-03T11:00:30.921Z</time></trkpt><trkpt lat="44.03923090035715" lon="12.188736368833704"><ele>70.0</ele><time>2026-04-03T11:00:31.921Z</time></trkpt><trkpt lat="44.03944464546248" lon="12.188611259722"><ele>70.0</ele><time>2026-04-03T11:00:32.921Z</time></trkpt><trkpt lat="44.03965320814961" lon="12.188490595401692"><ele>70.0</ele><time>2026-04-03T11:00:33.921Z</time></trkpt><trkpt lat="44.03986034970266" lon="12.18837915854512"><ele>70.0</ele><time>2026-04-03T11:00:34.921Z</time></trkpt><trkpt lat="44.04007763585224" lon="12.188259665297247"><ele>69.0</ele><time>2026-04-03T11:00:35.921Z</time></trkpt><trkpt lat="44.040292650781254" lon="12.188139788795995"><ele>68.0</ele><time>2026-04-03T11:00:36.921Z</time></trkpt><trkpt lat="44.04049578650938" lon="12.188021746992545"><ele>68.0</ele><time>2026-04-03T11:00:37.921Z</time></trkpt><trkpt lat="44.04070206407918" lon="12.187916230130952"><ele>68.0</ele><time>2026-04-03T11:00:38.921Z</time></trkpt><trkpt lat="44.04090252179177" lon="12.187803434025204"><ele>68.0</ele><time>2026-04-03T11:00:39.921Z</time></trkpt><trkpt lat="44.04111222664555" lon="12.187690239425352"><ele>68.0</ele><time>2026-04-03T11:00:40.921Z</time></trkpt><trkpt lat="44.04132872772746" lon="12.187568978777124"><ele>68.0</ele><time>2026-04-03T11:00:41.921Z</time></trkpt><trkpt lat="44.04153593041153" lon="12.187451648922687"><ele>69.66666666666667</ele><time>2026-04-03T11:00:42.921Z</time></trkpt><trkpt lat="44.041744292520235" lon="12.1873383705075"><ele>71.33333333333333</ele><time>2026-04-03T11:00:43.921Z</time></trkpt><trkpt lat="44.04194896137432" lon="12.187221493124246"><ele>73.0</ele><time>2026-04-03T11:00:44.921Z</time></trkpt><trkpt lat="44.04215174675621" lon="12.187104780590923"><ele>73.0</ele><time>2026-04-03T11:00:45.921Z</time></trkpt><trkpt lat="44.04235341662791" lon="12.186994015367576"><ele>73.0</ele><time>2026-04-03T11:00:46.921Z</time></trkpt><trkpt lat="44.04255400288996" lon="12.18687628589055"><ele>73.0</ele><time>2026-04-03T11:00:47.921Z</time></trkpt><trkpt lat="44.042752806729254" lon="12.18676038926685"><ele>73.0</ele><time>2026-04-03T11:00:48.921Z</time></trkpt><trkpt lat="44.042949776086665" lon="12.186646065242794"><ele>73.0</ele><time>2026-04-03T11:00:49.921Z</time></trkpt><trkpt lat="44.04314610570217" lon="12.18653971194892"><ele>73.0</ele><time>2026-04-03T11:00:50.921Z</time></trkpt><trkpt lat="44.04334638449308" lon="12.186426273833021"><ele>73.0</ele><time>2026-04-03T11:00:51.921Z</time></trkpt><trkpt lat="44.04354620047849" lon="12.186315105586091"><ele>73.0</ele><time>2026-04-03T11:00:52.921Z</time></trkpt><trkpt lat="44.04374151677801" lon="12.186206062729713"><ele>73.0</ele><time>2026-04-03T11:00:53.921Z</time></trkpt><trkpt lat="44.043939332173935" lon="12.186097698818495"><ele>73.33333333333333</ele><time>2026-04-03T11:00:54.921Z</time></trkpt><trkpt lat="44.04413502562288" lon="12.185991352536064"><ele>73.66666666666667</ele><time>2026-04-03T11:00:55.921Z</time></trkpt><trkpt lat="44.04433456335256" lon="12.185881914754976"><ele>74.0</ele><time>2026-04-03T11:00:56.921Z</time></trkpt><trkpt lat="44.04453075456127" lon="12.18576727571121"><ele>74.66666666666667</ele><time>2026-04-03T11:00:57.921Z</time></trkpt><trkpt lat="44.04473198949786" lon="12.185656405421858"><ele>75.33333333333333</ele><time>2026-04-03T11:00:58.921Z</time></trkpt><trkpt lat="44.04493035291974" lon="12.185546108903688"><ele>76.0</ele><time>2026-04-03T11:00:59.921Z</time></trkpt><trkpt lat="44.04513220658369" lon="12.185435526326755"><ele>76.0</ele><time>2026-04-03T11:01:00.921Z</time></trkpt><trkpt lat="44.045327174820315" lon="12.185317770584305"><ele>76.0</ele><time>2026-04-03T11:01:01.921Z</time></trkpt><trkpt lat="44.04552739193126" lon="12.185206122449554"><ele>76.0</ele><time>2026-04-03T11:01:02.921Z</time></trkpt><trkpt lat="44.04571889962304" lon="12.185093859376426"><ele>76.33333333333333</ele><time>2026-04-03T11:01:03.921Z</time></trkpt><trkpt lat="44.04590448040077" lon="12.184990198705389"><ele>76.66666666666667</ele><time>2026-04-03T11:01:04.921Z</time></trkpt><trkpt lat="44.046079110316015" lon="12.184898483702948"><ele>77.0</ele><time>2026-04-03T11:01:05.921Z</time></trkpt><trkpt lat="44.046247401032865" lon="12.184805614797467"><ele>77.5</ele><time>2026-04-03T11:01:06.921Z</time></trkpt><trkpt lat="44.046550776042984" lon="12.184634155038491"><ele>78.0</ele><time>2026-04-03T11:01:08.921Z</time></trkpt><trkpt lat="44.04668272517276" lon="12.184557179051893"><ele>79.0</ele><time>2026-04-03T11:01:09.921Z</time></trkpt><trkpt lat="44.04680191749581" lon="12.184490981718143"><ele>80.0</ele><time>2026-04-03T11:01:10.921Z</time></trkpt><trkpt lat="44.046913637573994" lon="12.1844375528395"><ele>81.0</ele><time>2026-04-03T11:01:11.921Z</time></trkpt><trkpt lat="44.04702590498744" lon="12.18439705580462"><ele>82.0</ele><time>2026-04-03T11:01:12.921Z</time></trkpt><trkpt lat="44.04712811119034" lon="12.18437312821533"><ele>82.0</ele><time>2026-04-03T11:01:13.921Z</time></trkpt><trkpt lat="44.04722683283361" lon="12.18435601275662"><ele>82.0</ele><time>2026-04-03T11:01:14.921Z</time></trkpt><trkpt lat="44.047322707844515" lon="12.18435181221194"><ele>82.0</ele><time>2026-04-03T11:01:15.921Z</time></trkpt><trkpt lat="44.04741882924626" lon="12.184368534962593"><ele>82.0</ele><time>2026-04-03T11:01:16.921Z</time></trkpt><trkpt lat="44.04751832435852" lon="12.184487238811299"><ele>82.0</ele><time>2026-04-03T11:01:17.921Z</time></trkpt><trkpt lat="44.04759922278402" lon="12.18461087701346"><ele>82.0</ele><time>2026-04-03T11:01:18.921Z</time></trkpt><trkpt lat="44.04766735766332" lon="12.184735058675315"><ele>82.0</ele><time>2026-04-03T11:01:19.921Z</time></trkpt><trkpt lat="44.047730411916866" lon="12.184867817792961"><ele>82.0</ele><time>2026-04-03T11:01:20.921Z</time></trkpt><trkpt lat="44.04778372980418" lon="12.18499204812964"><ele>82.0</ele><time>2026-04-03T11:01:21.921Z</time></trkpt><trkpt lat="44.04782592428985" lon="12.185071129220999"><ele>82.0</ele><time>2026-04-03T11:01:22.921Z</time></trkpt><trkpt lat="44.047882247892204" lon="12.185146639274633"><ele>82.0</ele><time>2026-04-03T11:01:24.921Z</time></trkpt><trkpt lat="44.047973753208915" lon="12.185148229623456"><ele>82.0</ele><time>2026-04-03T11:01:27.921Z</time></trkpt><trkpt lat="44.04802413166483" lon="12.185069710705102"><ele>82.0</ele><time>2026-04-03T11:01:28.921Z</time></trkpt><trkpt lat="44.048085378007" lon="12.184971113739442"><ele>82.0</ele><time>2026-04-03T11:01:29.921Z</time></trkpt><trkpt lat="44.04815683975576" lon="12.184844816205725"><ele>82.0</ele><time>2026-04-03T11:01:30.921Z</time></trkpt><trkpt lat="44.04822512009248" lon="12.184709938426396"><ele>81.5</ele><time>2026-04-03T11:01:31.921Z</time></trkpt><trkpt lat="44.04827972123978" lon="12.184551276167886"><ele>81.0</ele><time>2026-04-03T11:01:32.921Z</time></trkpt><trkpt lat="44.04831350259152" lon="12.18438269311982"><ele>80.5</ele><time>2026-04-03T11:01:33.921Z</time></trkpt><trkpt lat="44.0483368409069" lon="12.184203949686902"><ele>80.0</ele><time>2026-04-03T11:01:34.921Z</time></trkpt><trkpt lat="44.048354423636574" lon="12.184018557970187"><ele>79.25</ele><time>2026-04-03T11:01:35.921Z</time></trkpt><trkpt lat="44.04837099721321" lon="12.183819770685096"><ele>78.5</ele><time>2026-04-03T11:01:36.921Z</time></trkpt><trkpt lat="44.048387956999775" lon="12.183624398780628"><ele>77.75</ele><time>2026-04-03T11:01:37.921Z</time></trkpt><trkpt lat="44.04840266094805" lon="12.183443357401869"><ele>77.0</ele><time>2026-04-03T11:01:38.921Z</time></trkpt><trkpt lat="44.04841919772947" lon="12.183277882587534"><ele>78.2</ele><time>2026-04-03T11:01:39.921Z</time></trkpt><trkpt lat="44.048443479118426" lon="12.18312818430502"><ele>79.4</ele><time>2026-04-03T11:01:40.921Z</time></trkpt><trkpt lat="44.0484785414047" lon="12.18299433610276"><ele>80.60000000000001</ele><time>2026-04-03T11:01:41.921Z</time></trkpt><trkpt lat="44.04852341865463" lon="12.182884816955745"><ele>81.80000000000001</ele><time>2026-04-03T11:01:42.921Z</time></trkpt><trkpt lat="44.0485781313416" lon="12.182788499287643"><ele>83.0</ele><time>2026-04-03T11:01:43.921Z</time></trkpt><trkpt lat="44.04864480679729" lon="12.182715559415366"><ele>83.0</ele><time>2026-04-03T11:01:44.921Z</time></trkpt><trkpt lat="44.048715401305756" lon="12.182648387582493"><ele>83.0</ele><time>2026-04-03T11:01:45.921Z</time></trkpt><trkpt lat="44.048803655524104" lon="12.182584804102682"><ele>83.0</ele><time>2026-04-03T11:01:46.921Z</time></trkpt><trkpt lat="44.04891610699671" lon="12.182550884657255"><ele>83.0</ele><time>2026-04-03T11:01:47.921Z</time></trkpt><trkpt lat="44.049044672822504" lon="12.182547700250211"><ele>83.0</ele><time>2026-04-03T11:01:48.921Z</time></trkpt><trkpt lat="44.04917807498" lon="12.182537811626368"><ele>82.0</ele><time>2026-04-03T11:01:49.921Z</time></trkpt><trkpt lat="44.049326350148625" lon="12.182520592836347"><ele>81.0</ele><time>2026-04-03T11:01:50.921Z</time></trkpt><trkpt lat="44.04947376650812" lon="12.182504217971362"><ele>80.0</ele><time>2026-04-03T11:01:51.921Z</time></trkpt><trkpt lat="44.04962490145495" lon="12.18249012215374"><ele>79.0</ele><time>2026-04-03T11:01:52.921Z</time></trkpt><trkpt lat="44.04976937775933" lon="12.182469064624627"><ele>79.0</ele><time>2026-04-03T11:01:53.921Z</time></trkpt><trkpt lat="44.04991189362432" lon="12.182454060450702"><ele>79.0</ele><time>2026-04-03T11:01:54.921Z</time></trkpt><trkpt lat="44.05004799520664" lon="12.182437424712354"><ele>79.0</ele><time>2026-04-03T11:01:55.921Z</time></trkpt><trkpt lat="44.05018443459341" lon="12.182411380458005"><ele>79.0</ele><time>2026-04-03T11:01:56.921Z</time></trkpt><trkpt lat="44.05032255239336" lon="12.182368130265662"><ele>80.75</ele><time>2026-04-03T11:01:57.921Z</time></trkpt><trkpt lat="44.050452002430475" lon="12.182290895641353"><ele>82.5</ele><time>2026-04-03T11:01:58.921Z</time></trkpt><trkpt lat="44.05057705973616" lon="12.182186880317492"><ele>84.25</ele><time>2026-04-03T11:01:59.921Z</time></trkpt><trkpt lat="44.0506888556493" lon="12.182055538364676"><ele>86.0</ele><time>2026-04-03T11:02:00.921Z</time></trkpt><trkpt lat="44.05078410208814" lon="12.181899215813798"><ele>84.75</ele><time>2026-04-03T11:02:01.921Z</time></trkpt><trkpt lat="44.050861309610816" lon="12.181729959044732"><ele>83.5</ele><time>2026-04-03T11:02:02.921Z</time></trkpt><trkpt lat="44.05092333637681" lon="12.181542524080708"><ele>82.25</ele><time>2026-04-03T11:02:03.921Z</time></trkpt><trkpt lat="44.05096635518738" lon="12.181347191004425"><ele>81.0</ele><time>2026-04-03T11:02:04.921Z</time></trkpt><trkpt lat="44.050988244312926" lon="12.181148613042925"><ele>81.0</ele><time>2026-04-03T11:02:05.921Z</time></trkpt><trkpt lat="44.05099171488719" lon="12.180952894766563"><ele>81.0</ele><time>2026-04-03T11:02:06.921Z</time></trkpt><trkpt lat="44.050988132667484" lon="12.180762711370312"><ele>81.0</ele><time>2026-04-03T11:02:07.921Z</time></trkpt><trkpt lat="44.05097733888457" lon="12.18057883023488"><ele>81.0</ele><time>2026-04-03T11:02:08.921Z</time></trkpt><trkpt lat="44.0509607499413" lon="12.1803927943292"><ele>80.0</ele><time>2026-04-03T11:02:09.92Z</time></trkpt><trkpt lat="44.05094323740604" lon="12.180201202187963"><ele>79.0</ele><time>2026-04-03T11:02:10.92Z</time></trkpt><trkpt lat="44.05092473916473" lon="12.180013375665522"><ele>78.0</ele><time>2026-04-03T11:02:11.92Z</time></trkpt><trkpt lat="44.05091307063351" lon="12.179827998341963"><ele>77.0</ele><time>2026-04-03T11:02:12.92Z</time></trkpt><trkpt lat="44.050895454451826" lon="12.179646151102917"><ele>77.0</ele><time>2026-04-03T11:02:13.92Z</time></trkpt><trkpt lat="44.05086050572951" lon="12.179463329842562"><ele>77.0</ele><time>2026-04-03T11:02:14.92Z</time></trkpt><trkpt lat="44.050821327960286" lon="12.179278793911859"><ele>77.0</ele><time>2026-04-03T11:02:15.918Z</time></trkpt><trkpt lat="44.05076618823373" lon="12.179090897161535"><ele>77.0</ele><time>2026-04-03T11:02:16.917Z</time></trkpt><trkpt lat="44.05071223989321" lon="12.17890226636061"><ele>77.0</ele><time>2026-04-03T11:02:17.917Z</time></trkpt><trkpt lat="44.05065744200034" lon="12.178724671167892"><ele>77.0</ele><time>2026-04-03T11:02:18.917Z</time></trkpt><trkpt lat="44.050606979512416" lon="12.178554142097132"><ele>77.0</ele><time>2026-04-03T11:02:19.918Z</time></trkpt><trkpt lat="44.050571295047384" lon="12.178395483856091"><ele>77.0</ele><time>2026-04-03T11:02:20.918Z</time></trkpt><trkpt lat="44.05055711264565" lon="12.17822930653604"><ele>76.25</ele><time>2026-04-03T11:02:21.917Z</time></trkpt><trkpt lat="44.05055712211295" lon="12.178060279327001"><ele>75.5</ele><time>2026-04-03T11:02:22.917Z</time></trkpt><trkpt lat="44.05058575174194" lon="12.177880307418384"><ele>74.75</ele><time>2026-04-03T11:02:23.917Z</time></trkpt><trkpt lat="44.050645092005595" lon="12.177698352918213"><ele>74.0</ele><time>2026-04-03T11:02:24.917Z</time></trkpt><trkpt lat="44.050699127066295" lon="12.177526324931907"><ele>74.0</ele><time>2026-04-03T11:02:25.917Z</time></trkpt><trkpt lat="44.05075455640324" lon="12.177355168894403"><ele>74.0</ele><time>2026-04-03T11:02:26.917Z</time></trkpt><trkpt lat="44.05081784654556" lon="12.177189716868318"><ele>74.0</ele><time>2026-04-03T11:02:27.917Z</time></trkpt><trkpt lat="44.0508837946408" lon="12.17702066681186"><ele>74.0</ele><time>2026-04-03T11:02:28.917Z</time></trkpt><trkpt lat="44.05094343911947" lon="12.176857302878792"><ele>73.4</ele><time>2026-04-03T11:02:29.917Z</time></trkpt><trkpt lat="44.05099191468611" lon="12.176697015283192"><ele>72.80000000000001</ele><time>2026-04-03T11:02:30.917Z</time></trkpt><trkpt lat="44.05103979937657" lon="12.176546521509854"><ele>72.19999999999999</ele><time>2026-04-03T11:02:31.917Z</time></trkpt><trkpt lat="44.05110939352622" lon="12.176433269672087"><ele>71.6</ele><time>2026-04-03T11:02:32.917Z</time></trkpt><trkpt lat="44.051171712908015" lon="12.176355616079977"><ele>71.0</ele><time>2026-04-03T11:02:33.917Z</time></trkpt><trkpt lat="44.05125792938473" lon="12.176267762105448"><ele>71.0</ele><time>2026-04-03T11:02:35.917Z</time></trkpt><trkpt lat="44.051280859199856" lon="12.176179349858458"><ele>71.0</ele><time>2026-04-03T11:02:37.917Z</time></trkpt><trkpt lat="44.05133722206431" lon="12.176061948487531"><ele>71.0</ele><time>2026-04-03T11:02:40.917Z</time></trkpt><trkpt lat="44.05142546965656" lon="12.17596475554696"><ele>71.0</ele><time>2026-04-03T11:02:42.917Z</time></trkpt><trkpt lat="44.05149720480788" lon="12.175950293628498"><ele>71.0</ele><time>2026-04-03T11:02:43.917Z</time></trkpt><trkpt lat="44.051563342447736" lon="12.175953303543398"><ele>71.0</ele><time>2026-04-03T11:02:44.917Z</time></trkpt><trkpt lat="44.051626964280985" lon="12.175963170820456"><ele>71.2</ele><time>2026-04-03T11:02:45.917Z</time></trkpt><trkpt lat="44.051751662164854" lon="12.17598647553273"><ele>71.39999999999999</ele><time>2026-04-03T11:02:47.917Z</time></trkpt><trkpt lat="44.0518129570958" lon="12.176012693031435"><ele>71.6</ele><time>2026-04-03T11:02:48.917Z</time></trkpt><trkpt lat="44.0518783101915" lon="12.176067251752091"><ele>71.8</ele><time>2026-04-03T11:02:49.917Z</time></trkpt><trkpt lat="44.05193476040082" lon="12.176173782899495"><ele>72.0</ele><time>2026-04-03T11:02:50.917Z</time></trkpt><trkpt lat="44.05200269258671" lon="12.17628697445014"><ele>72.0</ele><time>2026-04-03T11:02:51.917Z</time></trkpt><trkpt lat="44.05207802867078" lon="12.176396472952238"><ele>72.0</ele><time>2026-04-03T11:02:52.917Z</time></trkpt><trkpt lat="44.052150636108365" lon="12.176512482845801"><ele>72.0</ele><time>2026-04-03T11:02:53.917Z</time></trkpt><trkpt lat="44.05222040621433" lon="12.176631098351514"><ele>72.0</ele><time>2026-04-03T11:02:54.917Z</time></trkpt><trkpt lat="44.05228842234308" lon="12.176757180115784"><ele>72.0</ele><time>2026-04-03T11:02:55.917Z</time></trkpt><trkpt lat="44.052359352194166" lon="12.17688662984297"><ele>72.0</ele><time>2026-04-03T11:02:56.917Z</time></trkpt><trkpt lat="44.0524360484315" lon="12.177024973817678"><ele>72.0</ele><time>2026-04-03T11:02:57.917Z</time></trkpt><trkpt lat="44.05250810537778" lon="12.177164005753562"><ele>72.0</ele><time>2026-04-03T11:02:58.917Z</time></trkpt><trkpt lat="44.05259431533941" lon="12.177294396413636"><ele>72.0</ele><time>2026-04-03T11:02:59.917Z</time></trkpt><trkpt lat="44.0526729501966" lon="12.177431532466752"><ele>71.75</ele><time>2026-04-03T11:03:00.917Z</time></trkpt><trkpt lat="44.05276057019648" lon="12.17756144259725"><ele>71.5</ele><time>2026-04-03T11:03:01.917Z</time></trkpt><trkpt lat="44.052852294923234" lon="12.177686343533145"><ele>71.25</ele><time>2026-04-03T11:03:02.917Z</time></trkpt><trkpt lat="44.052958529892486" lon="12.17778785343544"><ele>71.0</ele><time>2026-04-03T11:03:03.917Z</time></trkpt><trkpt lat="44.053065475484715" lon="12.17788678612005"><ele>71.0</ele><time>2026-04-03T11:03:04.917Z</time></trkpt><trkpt lat="44.05317992463102" lon="12.177970536400426"><ele>71.0</ele><time>2026-04-03T11:03:05.917Z</time></trkpt><trkpt lat="44.053303293703564" lon="12.178054569673806"><ele>71.0</ele><time>2026-04-03T11:03:06.917Z</time></trkpt><trkpt lat="44.0534215358136" lon="12.178147380269634"><ele>71.0</ele><time>2026-04-03T11:03:07.917Z</time></trkpt><trkpt lat="44.053553165405646" lon="12.178235110078324"><ele>71.75</ele><time>2026-04-03T11:03:08.917Z</time></trkpt><trkpt lat="44.053683771596525" lon="12.178328976119525"><ele>72.5</ele><time>2026-04-03T11:03:09.917Z</time></trkpt><trkpt lat="44.05381566012531" lon="12.17842760677531"><ele>73.25</ele><time>2026-04-03T11:03:10.917Z</time></trkpt><trkpt lat="44.05394168388811" lon="12.178521533124824"><ele>74.0</ele><time>2026-04-03T11:03:11.917Z</time></trkpt><trkpt lat="44.05406475960902" lon="12.178622785427104"><ele>75.0</ele><time>2026-04-03T11:03:12.917Z</time></trkpt><trkpt lat="44.05419189903812" lon="12.17871951338435"><ele>76.0</ele><time>2026-04-03T11:03:13.917Z</time></trkpt><trkpt lat="44.05431620022442" lon="12.178819749496448"><ele>77.0</ele><time>2026-04-03T11:03:14.917Z</time></trkpt><trkpt lat="44.05444687124947" lon="12.178913359117752"><ele>78.0</ele><time>2026-04-03T11:03:15.917Z</time></trkpt><trkpt lat="44.054569032017966" lon="12.179002125295652"><ele>78.75</ele><time>2026-04-03T11:03:16.917Z</time></trkpt><trkpt lat="44.05467709335144" lon="12.179103472855376"><ele>79.5</ele><time>2026-04-03T11:03:17.917Z</time></trkpt><trkpt lat="44.05478112414205" lon="12.179199177349032"><ele>80.25</ele><time>2026-04-03T11:03:18.917Z</time></trkpt><trkpt lat="44.05488790209266" lon="12.17928820813556"><ele>81.0</ele><time>2026-04-03T11:03:19.917Z</time></trkpt><trkpt lat="44.05499726724265" lon="12.17938155290864"><ele>81.0</ele><time>2026-04-03T11:03:20.917Z</time></trkpt><trkpt lat="44.055109533855976" lon="12.179471558293638"><ele>81.0</ele><time>2026-04-03T11:03:21.917Z</time></trkpt><trkpt lat="44.055217615009724" lon="12.179548271616564"><ele>81.0</ele><time>2026-04-03T11:03:22.917Z</time></trkpt><trkpt lat="44.055314007298044" lon="12.179613805364173"><ele>81.0</ele><time>2026-04-03T11:03:23.917Z</time></trkpt><trkpt lat="44.05539806552548" lon="12.179674797625534"><ele>81.0</ele><time>2026-04-03T11:03:24.917Z</time></trkpt><trkpt lat="44.05547767053035" lon="12.179723209558093"><ele>81.0</ele><time>2026-04-03T11:03:25.917Z</time></trkpt><trkpt lat="44.055582491140164" lon="12.179758054948685"><ele>81.0</ele><time>2026-04-03T11:03:27.917Z</time></trkpt><trkpt lat="44.05561915739326" lon="12.179664540892153"><ele>81.0</ele><time>2026-04-03T11:03:29.916Z</time></trkpt><trkpt lat="44.05553384243181" lon="12.17953873706683"><ele>81.0</ele><time>2026-04-03T11:03:31.916Z</time></trkpt><trkpt lat="44.05548262458271" lon="12.179424620645973"><ele>81.0</ele><time>2026-04-03T11:03:33.916Z</time></trkpt><trkpt lat="44.05556774086556" lon="12.179335580014525"><ele>81.0</ele><time>2026-04-03T11:03:35.916Z</time></trkpt><trkpt lat="44.055643079619145" lon="12.179309653092474"><ele>81.0</ele><time>2026-04-03T11:03:36.916Z</time></trkpt><trkpt lat="44.055776669081" lon="12.179202486884988"><ele>81.0</ele><time>2026-04-03T11:03:38.916Z</time></trkpt><trkpt lat="44.05583232893044" lon="12.179113440487404"><ele>81.0</ele><time>2026-04-03T11:03:39.916Z</time></trkpt><trkpt lat="44.05586338400739" lon="12.179030112282083"><ele>82.5</ele><time>2026-04-03T11:03:40.916Z</time></trkpt><trkpt lat="44.05585184208719" lon="12.178843234582631"><ele>84.0</ele><time>2026-04-03T11:03:42.916Z</time></trkpt><trkpt lat="44.0558074991118" lon="12.178726050169082"><ele>85.5</ele><time>2026-04-03T11:03:43.916Z</time></trkpt><trkpt lat="44.05575643876514" lon="12.178594774853801"><ele>87.0</ele><time>2026-04-03T11:03:44.916Z</time></trkpt><trkpt lat="44.055704887958875" lon="12.178450950371836"><ele>87.0</ele><time>2026-04-03T11:03:45.916Z</time></trkpt><trkpt lat="44.055658960876976" lon="12.178300418770291"><ele>87.0</ele><time>2026-04-03T11:03:46.916Z</time></trkpt><trkpt lat="44.05559920759364" lon="12.17814387780246"><ele>87.0</ele><time>2026-04-03T11:03:47.916Z</time></trkpt><trkpt lat="44.0555424842017" lon="12.1779738017757"><ele>87.0</ele><time>2026-04-03T11:03:48.916Z</time></trkpt><trkpt lat="44.05548082893721" lon="12.177798170529337"><ele>88.5</ele><time>2026-04-03T11:03:49.916Z</time></trkpt><trkpt lat="44.05542645038684" lon="12.177622309124514"><ele>90.0</ele><time>2026-04-03T11:03:50.916Z</time></trkpt><trkpt lat="44.05536823112686" lon="12.177447713929528"><ele>91.5</ele><time>2026-04-03T11:03:51.916Z</time></trkpt><trkpt lat="44.055310863512666" lon="12.17727989402176"><ele>93.0</ele><time>2026-04-03T11:03:52.916Z</time></trkpt><trkpt lat="44.05525387130829" lon="12.1771159408688"><ele>95.25</ele><time>2026-04-03T11:03:53.916Z</time></trkpt><trkpt lat="44.05519657360577" lon="12.176961747811088"><ele>97.5</ele><time>2026-04-03T11:03:54.916Z</time></trkpt><trkpt lat="44.05514318377212" lon="12.176809340329074"><ele>99.75</ele><time>2026-04-03T11:03:55.916Z</time></trkpt><trkpt lat="44.05509262495609" lon="12.176659114403513"><ele>102.0</ele><time>2026-04-03T11:03:56.916Z</time></trkpt><trkpt lat="44.055048725995654" lon="12.17652642896448"><ele>104.0</ele><time>2026-04-03T11:03:57.916Z</time></trkpt><trkpt lat="44.05502298578673" lon="12.176418283312804"><ele>106.0</ele><time>2026-04-03T11:03:58.916Z</time></trkpt><trkpt lat="44.05500589645069" lon="12.176328228184772"><ele>107.99999999999999</ele><time>2026-04-03T11:03:59.916Z</time></trkpt><trkpt lat="44.05505318826136" lon="12.176183047500517"><ele>110.0</ele><time>2026-04-03T11:04:01.916Z</time></trkpt><trkpt lat="44.05517362913024" lon="12.176189685544193"><ele>112.0</ele><time>2026-04-03T11:04:03.916Z</time></trkpt><trkpt lat="44.05523499843802" lon="12.176264005236895"><ele>112.0</ele><time>2026-04-03T11:04:04.916Z</time></trkpt><trkpt lat="44.055293245805835" lon="12.176361303548745"><ele>111.99999999999999</ele><time>2026-04-03T11:04:05.916Z</time></trkpt><trkpt lat="44.055354346347386" lon="12.176458884903598"><ele>111.99999999999999</ele><time>2026-04-03T11:04:06.916Z</time></trkpt><trkpt lat="44.055423010694206" lon="12.176547990642858"><ele>112.0</ele><time>2026-04-03T11:04:07.916Z</time></trkpt><trkpt lat="44.05549833251653" lon="12.17663817159573"><ele>112.0</ele><time>2026-04-03T11:04:08.916Z</time></trkpt><trkpt lat="44.055565626105135" lon="12.176701695465184"><ele>112.00000000000001</ele><time>2026-04-03T11:04:09.916Z</time></trkpt><trkpt lat="44.05563322814638" lon="12.176729609097157"><ele>112.0</ele><time>2026-04-03T11:04:10.916Z</time></trkpt><trkpt lat="44.05572162442093" lon="12.176638807382883"><ele>112.0</ele><time>2026-04-03T11:04:12.916Z</time></trkpt><trkpt lat="44.05573224574886" lon="12.176538204088946"><ele>112.0</ele><time>2026-04-03T11:04:13.916Z</time></trkpt><trkpt lat="44.055730309275134" lon="12.176434826289007"><ele>112.00000000000001</ele><time>2026-04-03T11:04:14.916Z</time></trkpt><trkpt lat="44.05573370439501" lon="12.176322285949169"><ele>112.0</ele><time>2026-04-03T11:04:15.916Z</time></trkpt><trkpt lat="44.05574365379592" lon="12.176192396281843"><ele>112.0</ele><time>2026-04-03T11:04:16.916Z</time></trkpt><trkpt lat="44.0557378908423" lon="12.17604632606075"><ele>112.0</ele><time>2026-04-03T11:04:17.916Z</time></trkpt><trkpt lat="44.055727307619215" lon="12.175872808791324"><ele>112.0</ele><time>2026-04-03T11:04:18.916Z</time></trkpt><trkpt lat="44.05572561602865" lon="12.17571141018399"><ele>112.0</ele><time>2026-04-03T11:04:19.916Z</time></trkpt><trkpt lat="44.05572509269347" lon="12.175550805517982"><ele>114.0</ele><time>2026-04-03T11:04:20.916Z</time></trkpt><trkpt lat="44.05571675977673" lon="12.175396294164356"><ele>115.99999999999999</ele><time>2026-04-03T11:04:21.914Z</time></trkpt><trkpt lat="44.0557080958023" lon="12.175254957901924"><ele>117.99999999999999</ele><time>2026-04-03T11:04:22.914Z</time></trkpt><trkpt lat="44.05567918954582" lon="12.175125860237745"><ele>120.0</ele><time>2026-04-03T11:04:23.914Z</time></trkpt><trkpt lat="44.05562189722054" lon="12.175012331465686"><ele>122.0</ele><time>2026-04-03T11:04:24.913Z</time></trkpt><trkpt lat="44.05555558580863" lon="12.174911221595956"><ele>123.8</ele><time>2026-04-03T11:04:25.913Z</time></trkpt><trkpt lat="44.05547536433795" lon="12.174812000859532"><ele>125.6</ele><time>2026-04-03T11:04:26.913Z</time></trkpt><trkpt lat="44.0553923114622" lon="12.174711109711607"><ele>127.39999999999999</ele><time>2026-04-03T11:04:27.914Z</time></trkpt><trkpt lat="44.055310188174836" lon="12.17461625526627"><ele>129.2</ele><time>2026-04-03T11:04:28.914Z</time></trkpt><trkpt lat="44.05524107147844" lon="12.174527279102538"><ele>131.0</ele><time>2026-04-03T11:04:29.914Z</time></trkpt><trkpt lat="44.055192076565646" lon="12.174435975667862"><ele>131.0</ele><time>2026-04-03T11:04:30.914Z</time></trkpt><trkpt lat="44.05516553147927" lon="12.174337322624934"><ele>131.0</ele><time>2026-04-03T11:04:31.914Z</time></trkpt><trkpt lat="44.05517449293941" lon="12.174232571780943"><ele>131.0</ele><time>2026-04-03T11:04:32.914Z</time></trkpt><trkpt lat="44.05521126974989" lon="12.174103252646914"><ele>131.0</ele><time>2026-04-03T11:04:33.913Z</time></trkpt><trkpt lat="44.0552579182652" lon="12.173981969443354"><ele>131.0</ele><time>2026-04-03T11:04:34.913Z</time></trkpt><trkpt lat="44.05530843451955" lon="12.173847685616852"><ele>132.8</ele><time>2026-04-03T11:04:35.913Z</time></trkpt><trkpt lat="44.05535802277707" lon="12.173719856347294"><ele>134.6</ele><time>2026-04-03T11:04:36.913Z</time></trkpt><trkpt lat="44.05542543048028" lon="12.173614292179359"><ele>136.4</ele><time>2026-04-03T11:04:37.913Z</time></trkpt><trkpt lat="44.055504751903705" lon="12.173533447018311"><ele>138.2</ele><time>2026-04-03T11:04:38.913Z</time></trkpt><trkpt lat="44.05561131336989" lon="12.173482134686513"><ele>140.0</ele><time>2026-04-03T11:04:39.913Z</time></trkpt><trkpt lat="44.055728549707254" lon="12.173447467025037"><ele>140.8</ele><time>2026-04-03T11:04:40.913Z</time></trkpt><trkpt lat="44.05584432074498" lon="12.173423581350317"><ele>141.6</ele><time>2026-04-03T11:04:41.913Z</time></trkpt><trkpt lat="44.055961021366834" lon="12.173403441693775"><ele>142.4</ele><time>2026-04-03T11:04:42.913Z</time></trkpt><trkpt lat="44.0560644370881" lon="12.173378837776804"><ele>143.2</ele><time>2026-04-03T11:04:43.913Z</time></trkpt><trkpt lat="44.05615509350467" lon="12.173338581786215"><ele>144.0</ele><time>2026-04-03T11:04:44.913Z</time></trkpt><trkpt lat="44.05622606274357" lon="12.173276012520912"><ele>146.0</ele><time>2026-04-03T11:04:45.913Z</time></trkpt><trkpt lat="44.05626742481263" lon="12.173185069327845"><ele>148.0</ele><time>2026-04-03T11:04:46.913Z</time></trkpt><trkpt lat="44.05627305672334" lon="12.173075570477952"><ele>150.0</ele><time>2026-04-03T11:04:47.913Z</time></trkpt><trkpt lat="44.056251643414576" lon="12.172966218774654"><ele>152.0</ele><time>2026-04-03T11:04:48.913Z</time></trkpt><trkpt lat="44.0562052030292" lon="12.172855972894455"><ele>154.0</ele><time>2026-04-03T11:04:49.913Z</time></trkpt><trkpt lat="44.05613875001759" lon="12.172761752425963"><ele>156.0</ele><time>2026-04-03T11:04:50.913Z</time></trkpt><trkpt lat="44.05605656881826" lon="12.172679149229102"><ele>156.0</ele><time>2026-04-03T11:04:51.913Z</time></trkpt><trkpt lat="44.0559711056364" lon="12.172592373328389"><ele>156.0</ele><time>2026-04-03T11:04:52.913Z</time></trkpt><trkpt lat="44.05587634556644" lon="12.172507727321879"><ele>156.0</ele><time>2026-04-03T11:04:53.913Z</time></trkpt><trkpt lat="44.05578074494605" lon="12.17242483320177"><ele>156.0</ele><time>2026-04-03T11:04:54.913Z</time></trkpt><trkpt lat="44.05569214919093" lon="12.17233701376139"><ele>156.0</ele><time>2026-04-03T11:04:55.913Z</time></trkpt><trkpt lat="44.055616364499436" lon="12.17225045295037"><ele>155.33333333333334</ele><time>2026-04-03T11:04:56.913Z</time></trkpt><trkpt lat="44.05555761893187" lon="12.172159129383262"><ele>154.66666666666666</ele><time>2026-04-03T11:04:57.913Z</time></trkpt><trkpt lat="44.055524687054614" lon="12.172048444921908"><ele>154.0</ele><time>2026-04-03T11:04:58.913Z</time></trkpt><trkpt lat="44.05552185351887" lon="12.171935257144463"><ele>153.33333333333331</ele><time>2026-04-03T11:04:59.913Z</time></trkpt><trkpt lat="44.0556010971944" lon="12.1718061037779"><ele>152.66666666666666</ele><time>2026-04-03T11:05:01.913Z</time></trkpt><trkpt lat="44.05567285888076" lon="12.171807108844659"><ele>152.0</ele><time>2026-04-03T11:05:02.913Z</time></trkpt><trkpt lat="44.05574962750849" lon="12.171830567867461"><ele>155.0</ele><time>2026-04-03T11:05:03.913Z</time></trkpt><trkpt lat="44.05582721048369" lon="12.17182913409631"><ele>158.0</ele><time>2026-04-03T11:05:04.913Z</time></trkpt><trkpt lat="44.0558980326291" lon="12.171788656173678"><ele>161.0</ele><time>2026-04-03T11:05:05.913Z</time></trkpt><trkpt lat="44.05596276935284" lon="12.171724680041452"><ele>164.0</ele><time>2026-04-03T11:05:06.913Z</time></trkpt><trkpt lat="44.05601195581669" lon="12.171658681248468"><ele>167.0</ele><time>2026-04-03T11:05:07.913Z</time></trkpt><trkpt lat="44.05607582699206" lon="12.171556236815443"><ele>170.0</ele><time>2026-04-03T11:05:08.913Z</time></trkpt><trkpt lat="44.05614491616906" lon="12.171453907392525"><ele>171.2</ele><time>2026-04-03T11:05:09.913Z</time></trkpt><trkpt lat="44.05619737424468" lon="12.171346809905858"><ele>172.4</ele><time>2026-04-03T11:05:10.913Z</time></trkpt><trkpt lat="44.05623022233228" lon="12.171212004289957"><ele>173.60000000000002</ele><time>2026-04-03T11:05:11.913Z</time></trkpt><trkpt lat="44.056252512079595" lon="12.171057265729859"><ele>174.8</ele><time>2026-04-03T11:05:12.913Z</time></trkpt><trkpt lat="44.056269959292976" lon="12.170880073555214"><ele>176.0</ele><time>2026-04-03T11:05:13.913Z</time></trkpt><trkpt lat="44.05628957573583" lon="12.170695664846814"><ele>175.5</ele><time>2026-04-03T11:05:14.913Z</time></trkpt><trkpt lat="44.056319913439005" lon="12.170511611703464"><ele>175.0</ele><time>2026-04-03T11:05:15.913Z</time></trkpt><trkpt lat="44.05635420913198" lon="12.170313658094132"><ele>174.5</ele><time>2026-04-03T11:05:16.913Z</time></trkpt><trkpt lat="44.05639088720906" lon="12.170118839597544"><ele>174.0</ele><time>2026-04-03T11:05:17.913Z</time></trkpt><trkpt lat="44.05642745602468" lon="12.16992880978816"><ele>173.0</ele><time>2026-04-03T11:05:18.913Z</time></trkpt><trkpt lat="44.056464042088784" lon="12.169748741926096"><ele>172.0</ele><time>2026-04-03T11:05:19.913Z</time></trkpt><trkpt lat="44.056502128313156" lon="12.169573710038508"><ele>171.0</ele><time>2026-04-03T11:05:20.913Z</time></trkpt><trkpt lat="44.05654104997913" lon="12.169405679737025"><ele>170.0</ele><time>2026-04-03T11:05:21.913Z</time></trkpt><trkpt lat="44.05656685628698" lon="12.169232143433987"><ele>170.0</ele><time>2026-04-03T11:05:22.913Z</time></trkpt><trkpt lat="44.05660675635496" lon="12.16905746060543"><ele>170.0</ele><time>2026-04-03T11:05:23.913Z</time></trkpt><trkpt lat="44.056655990060754" lon="12.168882744272436"><ele>170.0</ele><time>2026-04-03T11:05:24.913Z</time></trkpt><trkpt lat="44.05670334546997" lon="12.168706634350798"><ele>170.0</ele><time>2026-04-03T11:05:25.913Z</time></trkpt><trkpt lat="44.05675469717472" lon="12.1685403814158"><ele>176.0</ele><time>2026-04-03T11:05:26.913Z</time></trkpt><trkpt lat="44.05681573031956" lon="12.168358706154057"><ele>182.0</ele><time>2026-04-03T11:05:27.913Z</time></trkpt><trkpt lat="44.05688644831548" lon="12.168191109029353"><ele>188.0</ele><time>2026-04-03T11:05:28.913Z</time></trkpt><trkpt lat="44.056951703835296" lon="12.168005404138391"><ele>194.0</ele><time>2026-04-03T11:05:29.913Z</time></trkpt><trkpt lat="44.05702594757901" lon="12.16780393242062"><ele>194.33333333333334</ele><time>2026-04-03T11:05:30.913Z</time></trkpt><trkpt lat="44.05708962242727" lon="12.167594848507347"><ele>194.66666666666669</ele><time>2026-04-03T11:05:31.913Z</time></trkpt><trkpt lat="44.05715743176298" lon="12.16737435278201"><ele>195.0</ele><time>2026-04-03T11:05:32.913Z</time></trkpt><trkpt lat="44.057217959421195" lon="12.16718310337651"><ele>195.5</ele><time>2026-04-03T11:05:33.913Z</time></trkpt><trkpt lat="44.05726592198356" lon="12.1670044357297"><ele>196.0</ele><time>2026-04-03T11:05:34.913Z</time></trkpt><trkpt lat="44.057301492151964" lon="12.166828799645913"><ele>196.5</ele><time>2026-04-03T11:05:35.913Z</time></trkpt><trkpt lat="44.057343192841614" lon="12.166657397395511"><ele>197.0</ele><time>2026-04-03T11:05:36.913Z</time></trkpt><trkpt lat="44.05739606081852" lon="12.16650282054633"><ele>201.5</ele><time>2026-04-03T11:05:37.913Z</time></trkpt><trkpt lat="44.057472005719674" lon="12.16634247368695"><ele>206.0</ele><time>2026-04-03T11:05:38.913Z</time></trkpt><trkpt lat="44.057552850075936" lon="12.166193459295979"><ele>210.5</ele><time>2026-04-03T11:05:39.913Z</time></trkpt><trkpt lat="44.057626503655875" lon="12.166061281809377"><ele>215.0</ele><time>2026-04-03T11:05:40.913Z</time></trkpt><trkpt lat="44.05767163481697" lon="12.165965599172253"><ele>215.0</ele><time>2026-04-03T11:05:41.913Z</time></trkpt><trkpt lat="44.05768792777671" lon="12.165864823659474"><ele>215.0</ele><time>2026-04-03T11:05:42.913Z</time></trkpt><trkpt lat="44.057588991895045" lon="12.165729329211157"><ele>215.0</ele><time>2026-04-03T11:05:44.913Z</time></trkpt><trkpt lat="44.05750627574928" lon="12.16570986524773"><ele>215.0</ele><time>2026-04-03T11:05:45.913Z</time></trkpt><trkpt lat="44.057427285401765" lon="12.165770160862657"><ele>215.0</ele><time>2026-04-03T11:05:46.913Z</time></trkpt><trkpt lat="44.057386688090446" lon="12.165920965353093"><ele>214.0</ele><time>2026-04-03T11:05:47.913Z</time></trkpt><trkpt lat="44.05736222700709" lon="12.16603866917124"><ele>213.0</ele><time>2026-04-03T11:05:48.913Z</time></trkpt><trkpt lat="44.05735527236242" lon="12.166150403740284"><ele>212.0</ele><time>2026-04-03T11:05:49.913Z</time></trkpt><trkpt lat="44.05725674541017" lon="12.166135451802882"><ele>211.0</ele><time>2026-04-03T11:05:51.913Z</time></trkpt><trkpt lat="44.057202657686524" lon="12.165879691021885"><ele>211.0</ele><time>2026-04-03T11:05:52.913Z</time></trkpt><trkpt lat="44.05719381807823" lon="12.165775170927295"><ele>211.0</ele><time>2026-04-03T11:05:53.913Z</time></trkpt><trkpt lat="44.05719311813791" lon="12.165652891736391"><ele>211.0</ele><time>2026-04-03T11:05:54.913Z</time></trkpt><trkpt lat="44.05719544019537" lon="12.165508676724816"><ele>211.0</ele><time>2026-04-03T11:05:55.913Z</time></trkpt><trkpt lat="44.05719396220623" lon="12.165357235397511"><ele>211.0</ele><time>2026-04-03T11:05:56.913Z</time></trkpt><trkpt lat="44.05719336074334" lon="12.16519482663495"><ele>214.0</ele><time>2026-04-03T11:05:57.913Z</time></trkpt><trkpt lat="44.057190006404085" lon="12.165042425765058"><ele>217.0</ele><time>2026-04-03T11:05:58.913Z</time></trkpt><trkpt lat="44.05718567817358" lon="12.164884779352944"><ele>220.0</ele><time>2026-04-03T11:05:59.913Z</time></trkpt><trkpt lat="44.057162979925664" lon="12.164729843657513"><ele>223.0</ele><time>2026-04-03T11:06:00.913Z</time></trkpt><trkpt lat="44.057113711540154" lon="12.164587258490268"><ele>225.0</ele><time>2026-04-03T11:06:01.913Z</time></trkpt><trkpt lat="44.05705304638777" lon="12.164452951528466"><ele>227.0</ele><time>2026-04-03T11:06:02.913Z</time></trkpt><trkpt lat="44.05697831896469" lon="12.164323785996382"><ele>229.0</ele><time>2026-04-03T11:06:03.913Z</time></trkpt><trkpt lat="44.0568907511877" lon="12.164226668152843"><ele>231.0</ele><time>2026-04-03T11:06:04.913Z</time></trkpt><trkpt lat="44.05679333713335" lon="12.164150090535497"><ele>231.0</ele><time>2026-04-03T11:06:05.913Z</time></trkpt><trkpt lat="44.05672152635595" lon="12.164039507213714"><ele>231.0</ele><time>2026-04-03T11:06:06.913Z</time></trkpt><trkpt lat="44.05667892614765" lon="12.163889207724628"><ele>231.0</ele><time>2026-04-03T11:06:07.913Z</time></trkpt><trkpt lat="44.05666283754658" lon="12.163722648629598"><ele>231.0</ele><time>2026-04-03T11:06:08.913Z</time></trkpt><trkpt lat="44.05665781556185" lon="12.163547088528656"><ele>234.0</ele><time>2026-04-03T11:06:09.913Z</time></trkpt><trkpt lat="44.05664766496053" lon="12.163365802453473"><ele>237.0</ele><time>2026-04-03T11:06:10.913Z</time></trkpt><trkpt lat="44.05664982701985" lon="12.163168494497423"><ele>240.0</ele><time>2026-04-03T11:06:11.913Z</time></trkpt><trkpt lat="44.056655815186296" lon="12.16297167731472"><ele>243.0</ele><time>2026-04-03T11:06:12.913Z</time></trkpt><trkpt lat="44.05665849295619" lon="12.162777927751627"><ele>244.75</ele><time>2026-04-03T11:06:13.913Z</time></trkpt><trkpt lat="44.05666050929984" lon="12.162583103514166"><ele>246.5</ele><time>2026-04-03T11:06:14.913Z</time></trkpt><trkpt lat="44.056659468448906" lon="12.162394339576695"><ele>248.25</ele><time>2026-04-03T11:06:15.913Z</time></trkpt><trkpt lat="44.05662775809897" lon="12.16219813549876"><ele>250.0</ele><time>2026-04-03T11:06:16.913Z</time></trkpt><trkpt lat="44.056598581944506" lon="12.16200171976833"><ele>257.75</ele><time>2026-04-03T11:06:17.912Z</time></trkpt><trkpt lat="44.05656734355734" lon="12.161801380684231"><ele>265.5</ele><time>2026-04-03T11:06:18.912Z</time></trkpt><trkpt lat="44.0565353695948" lon="12.161638655073457"><ele>273.25</ele><time>2026-04-03T11:06:19.912Z</time></trkpt><trkpt lat="44.056517497113106" lon="12.161480318031824"><ele>281.0</ele><time>2026-04-03T11:06:20.912Z</time></trkpt><trkpt lat="44.05651012267188" lon="12.16132439800743"><ele>282.0</ele><time>2026-04-03T11:06:21.912Z</time></trkpt><trkpt lat="44.056535369336736" lon="12.161183387300278"><ele>283.0</ele><time>2026-04-03T11:06:22.912Z</time></trkpt><trkpt lat="44.05655892389246" lon="12.161078820604416"><ele>284.0</ele><time>2026-04-03T11:06:23.912Z</time></trkpt><trkpt lat="44.05655377919483" lon="12.160981082756146"><ele>285.0</ele><time>2026-04-03T11:06:24.912Z</time></trkpt><trkpt lat="44.05652453701236" lon="12.160903346839197"><ele>286.0</ele><time>2026-04-03T11:06:25.912Z</time></trkpt><trkpt lat="44.05647513947829" lon="12.160848688831967"><ele>287.0</ele><time>2026-04-03T11:06:26.912Z</time></trkpt><trkpt lat="44.05640395747833" lon="12.16086959558553"><ele>287.0</ele><time>2026-04-03T11:06:27.91Z</time></trkpt><trkpt lat="44.05633932323745" lon="12.16094570239797"><ele>287.0</ele><time>2026-04-03T11:06:28.91Z</time></trkpt><trkpt lat="44.056286962767196" lon="12.16103997426474"><ele>287.0</ele><time>2026-04-03T11:06:29.91Z</time></trkpt><trkpt lat="44.056229034028505" lon="12.161165749809449"><ele>287.0</ele><time>2026-04-03T11:06:30.91Z</time></trkpt><trkpt lat="44.056169325549845" lon="12.161300082189653"><ele>287.0</ele><time>2026-04-03T11:06:31.91Z</time></trkpt><trkpt lat="44.05610281052851" lon="12.161440194779363"><ele>285.5</ele><time>2026-04-03T11:06:32.91Z</time></trkpt><trkpt lat="44.056036368973224" lon="12.16157245240616"><ele>284.0</ele><time>2026-04-03T11:06:33.91Z</time></trkpt><trkpt lat="44.05596243065347" lon="12.161725383664498"><ele>282.5</ele><time>2026-04-03T11:06:34.91Z</time></trkpt><trkpt lat="44.05587833979618" lon="12.161867286714735"><ele>281.0</ele><time>2026-04-03T11:06:35.91Z</time></trkpt><trkpt lat="44.05581340155947" lon="12.161986882658553"><ele>282.5</ele><time>2026-04-03T11:06:36.91Z</time></trkpt><trkpt lat="44.05575359071578" lon="12.162083834131517"><ele>284.0</ele><time>2026-04-03T11:06:37.909Z</time></trkpt><trkpt lat="44.05569587166568" lon="12.162159437725217"><ele>285.5</ele><time>2026-04-03T11:06:38.909Z</time></trkpt><trkpt lat="44.05563122461522" lon="12.162227049833604"><ele>287.0</ele><time>2026-04-03T11:06:39.91Z</time></trkpt><trkpt lat="44.05556164333469" lon="12.162255709412756"><ele>288.5</ele><time>2026-04-03T11:06:40.909Z</time></trkpt><trkpt lat="44.05548524125031" lon="12.162255728438746"><ele>290.0</ele><time>2026-04-03T11:06:41.909Z</time></trkpt><trkpt lat="44.05540883380115" lon="12.162231571870244"><ele>290.0</ele><time>2026-04-03T11:06:42.909Z</time></trkpt><trkpt lat="44.05534010884875" lon="12.162142251341969"><ele>290.0</ele><time>2026-04-03T11:06:43.909Z</time></trkpt><trkpt lat="44.05527857853473" lon="12.162034417781841"><ele>290.0</ele><time>2026-04-03T11:06:44.909Z</time></trkpt><trkpt lat="44.05521940299172" lon="12.161933689057733"><ele>290.0</ele><time>2026-04-03T11:06:45.909Z</time></trkpt><trkpt lat="44.0551605964608" lon="12.161820482816422"><ele>290.0</ele><time>2026-04-03T11:06:46.909Z</time></trkpt><trkpt lat="44.05511804242482" lon="12.161710209722228"><ele>290.0</ele><time>2026-04-03T11:06:47.909Z</time></trkpt><trkpt lat="44.055104447500185" lon="12.161618451738034"><ele>290.0</ele><time>2026-04-03T11:06:48.909Z</time></trkpt><trkpt lat="44.05517546808344" lon="12.161509212565578"><ele>290.0</ele><time>2026-04-03T11:06:50.909Z</time></trkpt><trkpt lat="44.055240771152434" lon="12.161480658039505"><ele>290.0</ele><time>2026-04-03T11:06:51.909Z</time></trkpt><trkpt lat="44.05531545592078" lon="12.161466030325425"><ele>290.0</ele><time>2026-04-03T11:06:52.909Z</time></trkpt><trkpt lat="44.05540383859027" lon="12.161486735606475"><ele>290.0</ele><time>2026-04-03T11:06:53.909Z</time></trkpt><trkpt lat="44.05548403483127" lon="12.161443633787258"><ele>291.6</ele><time>2026-04-03T11:06:54.909Z</time></trkpt><trkpt lat="44.05554552012787" lon="12.161330895963216"><ele>293.2</ele><time>2026-04-03T11:06:55.909Z</time></trkpt><trkpt lat="44.055564685678256" lon="12.161197268117213"><ele>294.8</ele><time>2026-04-03T11:06:56.909Z</time></trkpt><trkpt lat="44.05556786131697" lon="12.161046133680802"><ele>296.4</ele><time>2026-04-03T11:06:57.909Z</time></trkpt><trkpt lat="44.0555605362358" lon="12.16087464942214"><ele>298.0</ele><time>2026-04-03T11:06:58.909Z</time></trkpt><trkpt lat="44.05555077059017" lon="12.160710939863106"><ele>294.75</ele><time>2026-04-03T11:06:59.909Z</time></trkpt><trkpt lat="44.05556271369981" lon="12.160547308025922"><ele>291.5</ele><time>2026-04-03T11:07:00.909Z</time></trkpt><trkpt lat="44.05558741107537" lon="12.160390782583098"><ele>288.25</ele><time>2026-04-03T11:07:01.909Z</time></trkpt><trkpt lat="44.05564851330462" lon="12.160238416843361"><ele>285.0</ele><time>2026-04-03T11:07:02.909Z</time></trkpt><trkpt lat="44.05573138416012" lon="12.160089806817705"><ele>286.75</ele><time>2026-04-03T11:07:03.909Z</time></trkpt><trkpt lat="44.055820140042904" lon="12.159959122113"><ele>288.5</ele><time>2026-04-03T11:07:04.909Z</time></trkpt><trkpt lat="44.05590061982921" lon="12.1598290447993"><ele>290.25</ele><time>2026-04-03T11:07:05.909Z</time></trkpt><trkpt lat="44.055948128961994" lon="12.159682716796048"><ele>292.0</ele><time>2026-04-03T11:07:06.909Z</time></trkpt><trkpt lat="44.05597755360484" lon="12.159540391015257"><ele>292.0</ele><time>2026-04-03T11:07:07.909Z</time></trkpt><trkpt lat="44.05598747095014" lon="12.159374585583027"><ele>292.0</ele><time>2026-04-03T11:07:08.909Z</time></trkpt><trkpt lat="44.05597624626999" lon="12.159204683819187"><ele>292.0</ele><time>2026-04-03T11:07:09.909Z</time></trkpt><trkpt lat="44.0559700014767" lon="12.159046164063422"><ele>292.0</ele><time>2026-04-03T11:07:10.909Z</time></trkpt><trkpt lat="44.055964864299774" lon="12.158895588059096"><ele>292.25</ele><time>2026-04-03T11:07:11.909Z</time></trkpt><trkpt lat="44.05597502127331" lon="12.158747929704996"><ele>292.5</ele><time>2026-04-03T11:07:12.909Z</time></trkpt><trkpt lat="44.056029817986186" lon="12.158602004126816"><ele>292.75</ele><time>2026-04-03T11:07:13.909Z</time></trkpt><trkpt lat="44.05612169498091" lon="12.158468684538525"><ele>293.0</ele><time>2026-04-03T11:07:14.909Z</time></trkpt><trkpt lat="44.05622372447854" lon="12.158358945960483"><ele>293.0</ele><time>2026-04-03T11:07:15.909Z</time></trkpt><trkpt lat="44.056336792600376" lon="12.158248093976416"><ele>293.0</ele><time>2026-04-03T11:07:16.909Z</time></trkpt><trkpt lat="44.05642799747123" lon="12.158116105309261"><ele>293.0</ele><time>2026-04-03T11:07:17.909Z</time></trkpt><trkpt lat="44.05650540014932" lon="12.157955997507234"><ele>293.0</ele><time>2026-04-03T11:07:18.909Z</time></trkpt><trkpt lat="44.056589559467234" lon="12.157787003957635"><ele>294.0</ele><time>2026-04-03T11:07:19.909Z</time></trkpt><trkpt lat="44.05667617374983" lon="12.157623855947625"><ele>295.0</ele><time>2026-04-03T11:07:20.909Z</time></trkpt><trkpt lat="44.05676918613527" lon="12.157459679269714"><ele>296.0</ele><time>2026-04-03T11:07:21.909Z</time></trkpt><trkpt lat="44.05685214599562" lon="12.157301013333063"><ele>297.0</ele><time>2026-04-03T11:07:22.909Z</time></trkpt><trkpt lat="44.056932397228955" lon="12.157125492312362"><ele>297.0</ele><time>2026-04-03T11:07:23.909Z</time></trkpt><trkpt lat="44.05701556011716" lon="12.15695488217599"><ele>297.0</ele><time>2026-04-03T11:07:24.909Z</time></trkpt><trkpt lat="44.05710546292625" lon="12.156784321778417"><ele>297.0</ele><time>2026-04-03T11:07:25.909Z</time></trkpt><trkpt lat="44.05720464522012" lon="12.156635645990974"><ele>297.0</ele><time>2026-04-03T11:07:26.909Z</time></trkpt><trkpt lat="44.05731005496843" lon="12.15647338664621"><ele>298.6666666666667</ele><time>2026-04-03T11:07:27.909Z</time></trkpt><trkpt lat="44.05741854806452" lon="12.156330167400952"><ele>300.33333333333337</ele><time>2026-04-03T11:07:28.909Z</time></trkpt><trkpt lat="44.05753195273538" lon="12.156193651491163"><ele>302.0</ele><time>2026-04-03T11:07:29.909Z</time></trkpt><trkpt lat="44.05765057017504" lon="12.156057444273982"><ele>302.0</ele><time>2026-04-03T11:07:30.909Z</time></trkpt><trkpt lat="44.05777690346544" lon="12.155932878356142"><ele>302.0</ele><time>2026-04-03T11:07:31.909Z</time></trkpt><trkpt lat="44.05790509953789" lon="12.155816431199025"><ele>302.0</ele><time>2026-04-03T11:07:32.909Z</time></trkpt><trkpt lat="44.05802831510119" lon="12.155697110927271"><ele>298.25</ele><time>2026-04-03T11:07:33.909Z</time></trkpt><trkpt lat="44.058133110722665" lon="12.155573564352155"><ele>294.5</ele><time>2026-04-03T11:07:34.909Z</time></trkpt><trkpt lat="44.05822972877886" lon="12.155443386725793"><ele>290.75</ele><time>2026-04-03T11:07:35.909Z</time></trkpt><trkpt lat="44.05833323926797" lon="12.155316581236669"><ele>287.0</ele><time>2026-04-03T11:07:36.909Z</time></trkpt><trkpt lat="44.058437554658404" lon="12.155202762118659"><ele>294.25</ele><time>2026-04-03T11:07:37.909Z</time></trkpt><trkpt lat="44.058513154441414" lon="12.155083586900615"><ele>301.5</ele><time>2026-04-03T11:07:38.909Z</time></trkpt><trkpt lat="44.05857968788789" lon="12.154967300088357"><ele>308.75</ele><time>2026-04-03T11:07:39.909Z</time></trkpt><trkpt lat="44.05862983744466" lon="12.154823253864977"><ele>316.0</ele><time>2026-04-03T11:07:40.909Z</time></trkpt><trkpt lat="44.05867057363402" lon="12.154656103672783"><ele>316.0</ele><time>2026-04-03T11:07:41.909Z</time></trkpt><trkpt lat="44.05869857376819" lon="12.154472807872375"><ele>316.0</ele><time>2026-04-03T11:07:42.909Z</time></trkpt><trkpt lat="44.05871276395265" lon="12.154282524338191"><ele>316.0</ele><time>2026-04-03T11:07:43.909Z</time></trkpt><trkpt lat="44.05871539701223" lon="12.15408593600734"><ele>316.0</ele><time>2026-04-03T11:07:44.909Z</time></trkpt><trkpt lat="44.05872156769311" lon="12.153884560883222"><ele>316.5</ele><time>2026-04-03T11:07:45.909Z</time></trkpt><trkpt lat="44.058729491853285" lon="12.153679747208834"><ele>317.0</ele><time>2026-04-03T11:07:46.909Z</time></trkpt><trkpt lat="44.05874758104332" lon="12.153497369966903"><ele>317.5</ele><time>2026-04-03T11:07:47.909Z</time></trkpt><trkpt lat="44.05876326645351" lon="12.153318233913243"><ele>318.0</ele><time>2026-04-03T11:07:48.909Z</time></trkpt><trkpt lat="44.05878263194674" lon="12.153144524679654"><ele>318.0</ele><time>2026-04-03T11:07:49.909Z</time></trkpt><trkpt lat="44.05879699821821" lon="12.152986481337576"><ele>318.0</ele><time>2026-04-03T11:07:50.909Z</time></trkpt><trkpt lat="44.05882032575807" lon="12.152845062037533"><ele>318.0</ele><time>2026-04-03T11:07:51.909Z</time></trkpt><trkpt lat="44.05887031940995" lon="12.152723526783806"><ele>318.0</ele><time>2026-04-03T11:07:52.909Z</time></trkpt><trkpt lat="44.05894737855396" lon="12.152593444113423"><ele>318.0</ele><time>2026-04-03T11:07:53.909Z</time></trkpt><trkpt lat="44.05904553197676" lon="12.152483272930986"><ele>319.5</ele><time>2026-04-03T11:07:54.909Z</time></trkpt><trkpt lat="44.05914490745167" lon="12.152368769678255"><ele>321.0</ele><time>2026-04-03T11:07:55.908Z</time></trkpt><trkpt lat="44.05924670322346" lon="12.152252945961653"><ele>322.5</ele><time>2026-04-03T11:07:56.908Z</time></trkpt><trkpt lat="44.05935840953517" lon="12.152135285813744"><ele>324.0</ele><time>2026-04-03T11:07:57.908Z</time></trkpt><trkpt lat="44.05947426154135" lon="12.152028768630192"><ele>324.0</ele><time>2026-04-03T11:07:58.908Z</time></trkpt><trkpt lat="44.05959247816089" lon="12.15191410393279"><ele>324.0</ele><time>2026-04-03T11:07:59.908Z</time></trkpt><trkpt lat="44.05970904005917" lon="12.151789372132534"><ele>324.0</ele><time>2026-04-03T11:08:00.908Z</time></trkpt><trkpt lat="44.059821329560656" lon="12.151661269577362"><ele>324.0</ele><time>2026-04-03T11:08:01.908Z</time></trkpt><trkpt lat="44.059932754247114" lon="12.1515274982971"><ele>327.75</ele><time>2026-04-03T11:08:02.908Z</time></trkpt><trkpt lat="44.060042476054214" lon="12.151391404793477"><ele>331.5</ele><time>2026-04-03T11:08:03.908Z</time></trkpt><trkpt lat="44.0601618469566" lon="12.151273437096478"><ele>335.25</ele><time>2026-04-03T11:08:04.908Z</time></trkpt><trkpt lat="44.06027663947584" lon="12.15116299453142"><ele>339.0</ele><time>2026-04-03T11:08:05.908Z</time></trkpt><trkpt lat="44.0603822507539" lon="12.151044972827268"><ele>339.0</ele><time>2026-04-03T11:08:06.908Z</time></trkpt><trkpt lat="44.06050271022763" lon="12.150928654965696"><ele>339.0</ele><time>2026-04-03T11:08:07.908Z</time></trkpt><trkpt lat="44.06061117154771" lon="12.15082048519851"><ele>339.0</ele><time>2026-04-03T11:08:08.908Z</time></trkpt><trkpt lat="44.06071065923443" lon="12.150718176836346"><ele>339.0</ele><time>2026-04-03T11:08:09.908Z</time></trkpt><trkpt lat="44.060800350225676" lon="12.150613246671709"><ele>342.25</ele><time>2026-04-03T11:08:10.908Z</time></trkpt><trkpt lat="44.0608775584855" lon="12.150501950360509"><ele>345.5</ele><time>2026-04-03T11:08:11.908Z</time></trkpt><trkpt lat="44.06092746480679" lon="12.150357308869115"><ele>348.75</ele><time>2026-04-03T11:08:12.908Z</time></trkpt><trkpt lat="44.060963971315104" lon="12.150182173718619"><ele>352.0</ele><time>2026-04-03T11:08:13.908Z</time></trkpt><trkpt lat="44.060984506079386" lon="12.14999779621497"><ele>351.5</ele><time>2026-04-03T11:08:14.908Z</time></trkpt><trkpt lat="44.061006137484426" lon="12.14980238699135"><ele>351.0</ele><time>2026-04-03T11:08:15.908Z</time></trkpt><trkpt lat="44.06102279084049" lon="12.149634495023967"><ele>350.5</ele><time>2026-04-03T11:08:16.908Z</time></trkpt><trkpt lat="44.06103186991901" lon="12.14947563496381"><ele>350.0</ele><time>2026-04-03T11:08:17.908Z</time></trkpt><trkpt lat="44.06104070320953" lon="12.149330581851666"><ele>350.0</ele><time>2026-04-03T11:08:18.908Z</time></trkpt><trkpt lat="44.06104832977172" lon="12.14922593523686"><ele>350.0</ele><time>2026-04-03T11:08:19.908Z</time></trkpt><trkpt lat="44.061058407752135" lon="12.149124095999554"><ele>350.0</ele><time>2026-04-03T11:08:20.908Z</time></trkpt><trkpt lat="44.061087681988255" lon="12.149005441945656"><ele>350.0</ele><time>2026-04-03T11:08:21.908Z</time></trkpt><trkpt lat="44.06114710728019" lon="12.148875867880326"><ele>350.0</ele><time>2026-04-03T11:08:22.908Z</time></trkpt><trkpt lat="44.06121399789662" lon="12.148731474358254"><ele>348.5</ele><time>2026-04-03T11:08:23.908Z</time></trkpt><trkpt lat="44.06128412515822" lon="12.148582817202524"><ele>347.0</ele><time>2026-04-03T11:08:24.908Z</time></trkpt><trkpt lat="44.06132384491523" lon="12.148406879485185"><ele>345.5</ele><time>2026-04-03T11:08:25.908Z</time></trkpt><trkpt lat="44.06134872958144" lon="12.148225097040914"><ele>344.0</ele><time>2026-04-03T11:08:26.908Z</time></trkpt><trkpt lat="44.06137861342781" lon="12.148042579804608"><ele>343.4</ele><time>2026-04-03T11:08:27.908Z</time></trkpt><trkpt lat="44.06138686971299" lon="12.147880189016057"><ele>342.79999999999995</ele><time>2026-04-03T11:08:28.908Z</time></trkpt><trkpt lat="44.061395131309304" lon="12.147719593227755"><ele>342.20000000000005</ele><time>2026-04-03T11:08:29.908Z</time></trkpt><trkpt lat="44.061401771632156" lon="12.147598085070152"><ele>341.6</ele><time>2026-04-03T11:08:30.908Z</time></trkpt><trkpt lat="44.0614322353444" lon="12.14746596255274"><ele>341.0</ele><time>2026-04-03T11:08:31.908Z</time></trkpt><trkpt lat="44.06150190395328" lon="12.147360563075543"><ele>339.75</ele><time>2026-04-03T11:08:32.908Z</time></trkpt><trkpt lat="44.061575724139374" lon="12.147232266415928"><ele>338.5</ele><time>2026-04-03T11:08:33.906Z</time></trkpt><trkpt lat="44.06163963704869" lon="12.147095184348121"><ele>337.25</ele><time>2026-04-03T11:08:34.906Z</time></trkpt><trkpt lat="44.0617247357224" lon="12.146959803150082"><ele>336.0</ele><time>2026-04-03T11:08:35.906Z</time></trkpt><trkpt lat="44.06179402580854" lon="12.146818132782048"><ele>340.6</ele><time>2026-04-03T11:08:36.906Z</time></trkpt><trkpt lat="44.06184896440809" lon="12.146676399709605"><ele>345.20000000000005</ele><time>2026-04-03T11:08:37.905Z</time></trkpt><trkpt lat="44.06189031824081" lon="12.146529925612294"><ele>349.79999999999995</ele><time>2026-04-03T11:08:38.905Z</time></trkpt><trkpt lat="44.06192340920723" lon="12.146404630432974"><ele>354.4</ele><time>2026-04-03T11:08:39.906Z</time></trkpt><trkpt lat="44.061952853399454" lon="12.146291596951677"><ele>359.0</ele><time>2026-04-03T11:08:40.906Z</time></trkpt><trkpt lat="44.061984690321026" lon="12.146212932557566"><ele>359.0</ele><time>2026-04-03T11:08:41.906Z</time></trkpt><trkpt lat="44.06203415078051" lon="12.146143903554059"><ele>359.0</ele><time>2026-04-03T11:08:42.906Z</time></trkpt><trkpt lat="44.06212941054066" lon="12.146178065397127"><ele>359.0</ele><time>2026-04-03T11:08:44.905Z</time></trkpt><trkpt lat="44.06214853297653" lon="12.146358125755738"><ele>359.0</ele><time>2026-04-03T11:08:46.905Z</time></trkpt><trkpt lat="44.06210683622003" lon="12.146464762932856"><ele>359.0</ele><time>2026-04-03T11:08:47.905Z</time></trkpt><trkpt lat="44.062066414902446" lon="12.146571868823564"><ele>359.0</ele><time>2026-04-03T11:08:48.905Z</time></trkpt><trkpt lat="44.0620302691006" lon="12.146681596400606"><ele>359.0</ele><time>2026-04-03T11:08:49.905Z</time></trkpt><trkpt lat="44.061994216618515" lon="12.146787438593467"><ele>359.0</ele><time>2026-04-03T11:08:50.905Z</time></trkpt><trkpt lat="44.061952042135715" lon="12.146914679855668"><ele>359.0</ele><time>2026-04-03T11:08:51.905Z</time></trkpt><trkpt lat="44.061900430866594" lon="12.147038797734082"><ele>359.0</ele><time>2026-04-03T11:08:52.905Z</time></trkpt><trkpt lat="44.06185151770645" lon="12.147166010299273"><ele>359.0</ele><time>2026-04-03T11:08:53.905Z</time></trkpt><trkpt lat="44.06181615737915" lon="12.147294853419465"><ele>359.0</ele><time>2026-04-03T11:08:54.905Z</time></trkpt><trkpt lat="44.061781654612034" lon="12.1474130233265"><ele>359.0</ele><time>2026-04-03T11:08:55.905Z</time></trkpt><trkpt lat="44.06175957040421" lon="12.147528080049344"><ele>359.0</ele><time>2026-04-03T11:08:56.905Z</time></trkpt><trkpt lat="44.06175523005965" lon="12.147644756433168"><ele>359.0</ele><time>2026-04-03T11:08:57.905Z</time></trkpt><trkpt lat="44.061776124618994" lon="12.147766980355826"><ele>360.0</ele><time>2026-04-03T11:08:58.905Z</time></trkpt><trkpt lat="44.06181690496496" lon="12.14786597336191"><ele>361.0</ele><time>2026-04-03T11:08:59.905Z</time></trkpt><trkpt lat="44.06187214231978" lon="12.147926980374619"><ele>362.0</ele><time>2026-04-03T11:09:00.905Z</time></trkpt><trkpt lat="44.0619450327569" lon="12.14795294709103"><ele>363.0</ele><time>2026-04-03T11:09:01.905Z</time></trkpt><trkpt lat="44.062030532737566" lon="12.147944765997662"><ele>364.0</ele><time>2026-04-03T11:09:02.905Z</time></trkpt><trkpt lat="44.062108930694286" lon="12.147906940146777"><ele>365.0</ele><time>2026-04-03T11:09:03.905Z</time></trkpt><trkpt lat="44.06217649429552" lon="12.147850524831922"><ele>365.0</ele><time>2026-04-03T11:09:04.905Z</time></trkpt><trkpt lat="44.062232746129816" lon="12.147761716737863"><ele>365.0</ele><time>2026-04-03T11:09:05.905Z</time></trkpt><trkpt lat="44.06226920381429" lon="12.147638901080825"><ele>365.0</ele><time>2026-04-03T11:09:06.905Z</time></trkpt><trkpt lat="44.06229487832525" lon="12.147500696442735"><ele>365.0</ele><time>2026-04-03T11:09:07.905Z</time></trkpt><trkpt lat="44.06231393955546" lon="12.147339841975032"><ele>365.0</ele><time>2026-04-03T11:09:08.905Z</time></trkpt><trkpt lat="44.062331266699964" lon="12.147178871433423"><ele>363.8</ele><time>2026-04-03T11:09:09.905Z</time></trkpt><trkpt lat="44.062356016109185" lon="12.147021636242382"><ele>362.6</ele><time>2026-04-03T11:09:10.905Z</time></trkpt><trkpt lat="44.06238027290232" lon="12.146867435996441"><ele>361.4</ele><time>2026-04-03T11:09:11.905Z</time></trkpt><trkpt lat="44.06239934434108" lon="12.146724236442727"><ele>360.2</ele><time>2026-04-03T11:09:12.905Z</time></trkpt><trkpt lat="44.06242377229583" lon="12.14657473878586"><ele>359.0</ele><time>2026-04-03T11:09:13.905Z</time></trkpt><trkpt lat="44.062448187495164" lon="12.146419708495594"><ele>363.6</ele><time>2026-04-03T11:09:14.905Z</time></trkpt><trkpt lat="44.06247063711674" lon="12.146264120168386"><ele>368.2</ele><time>2026-04-03T11:09:15.905Z</time></trkpt><trkpt lat="44.06249513377005" lon="12.146115551580284"><ele>372.8</ele><time>2026-04-03T11:09:16.905Z</time></trkpt><trkpt lat="44.06252021073415" lon="12.145974299799576"><ele>377.40000000000003</ele><time>2026-04-03T11:09:17.905Z</time></trkpt><trkpt lat="44.0625317618004" lon="12.145840277848524"><ele>382.0</ele><time>2026-04-03T11:09:18.905Z</time></trkpt><trkpt lat="44.06251846182676" lon="12.145699435499036"><ele>384.20000000000005</ele><time>2026-04-03T11:09:19.905Z</time></trkpt><trkpt lat="44.06249248733613" lon="12.14556214380079"><ele>386.4</ele><time>2026-04-03T11:09:20.905Z</time></trkpt><trkpt lat="44.06246566765549" lon="12.145422002812865"><ele>388.6</ele><time>2026-04-03T11:09:21.905Z</time></trkpt><trkpt lat="44.06244543041571" lon="12.145285640268055"><ele>390.79999999999995</ele><time>2026-04-03T11:09:22.905Z</time></trkpt><trkpt lat="44.062446831070446" lon="12.14515165818376"><ele>393.0</ele><time>2026-04-03T11:09:23.905Z</time></trkpt><trkpt lat="44.062465404290464" lon="12.145019256507275"><ele>393.0</ele><time>2026-04-03T11:09:24.905Z</time></trkpt><trkpt lat="44.062499239996576" lon="12.144884512621363"><ele>393.0</ele><time>2026-04-03T11:09:25.905Z</time></trkpt><trkpt lat="44.06255066934776" lon="12.144741514588649"><ele>393.0</ele><time>2026-04-03T11:09:26.905Z</time></trkpt><trkpt lat="44.06261294811365" lon="12.144591195996377"><ele>393.0</ele><time>2026-04-03T11:09:27.905Z</time></trkpt><trkpt lat="44.06267957612681" lon="12.14444478634103"><ele>392.5</ele><time>2026-04-03T11:09:28.905Z</time></trkpt><trkpt lat="44.06275572932904" lon="12.14432397685124"><ele>392.0</ele><time>2026-04-03T11:09:29.905Z</time></trkpt><trkpt lat="44.06284682282775" lon="12.144216685810445"><ele>391.5</ele><time>2026-04-03T11:09:30.905Z</time></trkpt><trkpt lat="44.06295182630394" lon="12.144130114176079"><ele>391.0</ele><time>2026-04-03T11:09:31.905Z</time></trkpt><trkpt lat="44.063071933583934" lon="12.144043244013163"><ele>393.25</ele><time>2026-04-03T11:09:32.905Z</time></trkpt><trkpt lat="44.06320226167393" lon="12.143955478741084"><ele>395.5</ele><time>2026-04-03T11:09:33.905Z</time></trkpt><trkpt lat="44.06333510910824" lon="12.143854626220103"><ele>397.75</ele><time>2026-04-03T11:09:34.905Z</time></trkpt><trkpt lat="44.063454695581505" lon="12.14375346325369"><ele>400.0</ele><time>2026-04-03T11:09:35.905Z</time></trkpt><trkpt lat="44.06357483501361" lon="12.143657981963932"><ele>400.0</ele><time>2026-04-03T11:09:36.905Z</time></trkpt><trkpt lat="44.06368810622679" lon="12.143566418876405"><ele>400.0</ele><time>2026-04-03T11:09:37.905Z</time></trkpt><trkpt lat="44.063801707718184" lon="12.143467145479027"><ele>400.0</ele><time>2026-04-03T11:09:38.905Z</time></trkpt><trkpt lat="44.063907276655065" lon="12.143361236396474"><ele>400.0</ele><time>2026-04-03T11:09:39.905Z</time></trkpt><trkpt lat="44.06400636113981" lon="12.14325298096658"><ele>399.75</ele><time>2026-04-03T11:09:40.905Z</time></trkpt><trkpt lat="44.064100044647596" lon="12.143134926233554"><ele>399.5</ele><time>2026-04-03T11:09:41.905Z</time></trkpt><trkpt lat="44.06417824817423" lon="12.142995445106049"><ele>399.25</ele><time>2026-04-03T11:09:42.905Z</time></trkpt><trkpt lat="44.06422711251367" lon="12.142844063028898"><ele>399.0</ele><time>2026-04-03T11:09:43.905Z</time></trkpt><trkpt lat="44.064245204320976" lon="12.142681318351293"><ele>399.25</ele><time>2026-04-03T11:09:44.905Z</time></trkpt><trkpt lat="44.0642344610791" lon="12.142515295684738"><ele>399.5</ele><time>2026-04-03T11:09:45.905Z</time></trkpt><trkpt lat="44.064201981266386" lon="12.14235244580753"><ele>399.75</ele><time>2026-04-03T11:09:46.905Z</time></trkpt><trkpt lat="44.06415708459327" lon="12.14220876631573"><ele>400.0</ele><time>2026-04-03T11:09:47.905Z</time></trkpt><trkpt lat="44.06410297611977" lon="12.142070844114773"><ele>400.0</ele><time>2026-04-03T11:09:48.905Z</time></trkpt><trkpt lat="44.06404538318658" lon="12.141941119193"><ele>400.0</ele><time>2026-04-03T11:09:49.905Z</time></trkpt><trkpt lat="44.064005843156224" lon="12.141830886659545"><ele>400.0</ele><time>2026-04-03T11:09:50.905Z</time></trkpt><trkpt lat="44.06398906659193" lon="12.141739238027048"><ele>400.0</ele><time>2026-04-03T11:09:51.905Z</time></trkpt><trkpt lat="44.063994469456574" lon="12.14157626133622"><ele>400.0</ele><time>2026-04-03T11:09:53.905Z</time></trkpt><trkpt lat="44.06402875935395" lon="12.141485435878668"><ele>399.6</ele><time>2026-04-03T11:09:54.905Z</time></trkpt><trkpt lat="44.06408287796724" lon="12.14140416937313"><ele>399.2</ele><time>2026-04-03T11:09:55.905Z</time></trkpt><trkpt lat="44.06415527331743" lon="12.141333434838124"><ele>398.79999999999995</ele><time>2026-04-03T11:09:56.905Z</time></trkpt><trkpt lat="44.06424269485803" lon="12.141256652244042"><ele>398.4</ele><time>2026-04-03T11:09:57.905Z</time></trkpt><trkpt lat="44.064328496290166" lon="12.141174698115238"><ele>398.0</ele><time>2026-04-03T11:09:58.905Z</time></trkpt><trkpt lat="44.06441892893363" lon="12.141085499250064"><ele>403.5</ele><time>2026-04-03T11:09:59.905Z</time></trkpt><trkpt lat="44.06451369797023" lon="12.14100368185345"><ele>409.0</ele><time>2026-04-03T11:10:00.905Z</time></trkpt><trkpt lat="44.06461039783317" lon="12.14091936651761"><ele>414.5</ele><time>2026-04-03T11:10:01.905Z</time></trkpt><trkpt lat="44.064709996253775" lon="12.140832704815365"><ele>420.0</ele><time>2026-04-03T11:10:02.905Z</time></trkpt><trkpt lat="44.06481079854035" lon="12.140733091367554"><ele>420.25</ele><time>2026-04-03T11:10:03.905Z</time></trkpt><trkpt lat="44.064911447031626" lon="12.140623899135742"><ele>420.5</ele><time>2026-04-03T11:10:04.905Z</time></trkpt><trkpt lat="44.065001801544014" lon="12.140518776365262"><ele>420.75</ele><time>2026-04-03T11:10:05.905Z</time></trkpt><trkpt lat="44.06508964754843" lon="12.14042145482489"><ele>421.0</ele><time>2026-04-03T11:10:06.905Z</time></trkpt><trkpt lat="44.06517225568767" lon="12.140327833330876"><ele>421.0</ele><time>2026-04-03T11:10:07.905Z</time></trkpt><trkpt lat="44.06523686497555" lon="12.140220964308327"><ele>421.0</ele><time>2026-04-03T11:10:08.905Z</time></trkpt><trkpt lat="44.06526959106191" lon="12.14009289891153"><ele>421.0</ele><time>2026-04-03T11:10:09.905Z</time></trkpt><trkpt lat="44.06527264130555" lon="12.139939900519348"><ele>421.0</ele><time>2026-04-03T11:10:10.905Z</time></trkpt><trkpt lat="44.06526884294443" lon="12.13977062309651"><ele>421.0</ele><time>2026-04-03T11:10:11.905Z</time></trkpt><trkpt lat="44.065265674085076" lon="12.139594084109536"><ele>420.75</ele><time>2026-04-03T11:10:12.905Z</time></trkpt><trkpt lat="44.06527918168102" lon="12.139422919172025"><ele>420.5</ele><time>2026-04-03T11:10:13.905Z</time></trkpt><trkpt lat="44.065295640233884" lon="12.13924662494584"><ele>420.25</ele><time>2026-04-03T11:10:14.905Z</time></trkpt><trkpt lat="44.065332111712216" lon="12.139073401693109"><ele>420.0</ele><time>2026-04-03T11:10:15.905Z</time></trkpt><trkpt lat="44.065378990388865" lon="12.138899929421813"><ele>420.0</ele><time>2026-04-03T11:10:16.905Z</time></trkpt><trkpt lat="44.06542441511912" lon="12.138734860605288"><ele>420.0</ele><time>2026-04-03T11:10:17.905Z</time></trkpt><trkpt lat="44.065474452234476" lon="12.138582634235668"><ele>420.0</ele><time>2026-04-03T11:10:18.905Z</time></trkpt><trkpt lat="44.06553663700937" lon="12.138453751530891"><ele>420.0</ele><time>2026-04-03T11:10:19.905Z</time></trkpt><trkpt lat="44.065625531036865" lon="12.138336180468373"><ele>420.0</ele><time>2026-04-03T11:10:20.905Z</time></trkpt><trkpt lat="44.06573042501939" lon="12.138232443825055"><ele>420.0</ele><time>2026-04-03T11:10:21.905Z</time></trkpt><trkpt lat="44.06584421301026" lon="12.138125759260323"><ele>420.0</ele><time>2026-04-03T11:10:22.905Z</time></trkpt><trkpt lat="44.06596326693881" lon="12.13801287062043"><ele>420.0</ele><time>2026-04-03T11:10:23.905Z</time></trkpt><trkpt lat="44.06608407224832" lon="12.137896050345455"><ele>421.75</ele><time>2026-04-03T11:10:24.905Z</time></trkpt><trkpt lat="44.0662037772493" lon="12.137777505476611"><ele>423.5</ele><time>2026-04-03T11:10:25.905Z</time></trkpt><trkpt lat="44.06632396778703" lon="12.137662227471031"><ele>425.25</ele><time>2026-04-03T11:10:26.905Z</time></trkpt><trkpt lat="44.06643800369042" lon="12.137550044489195"><ele>427.0</ele><time>2026-04-03T11:10:27.905Z</time></trkpt><trkpt lat="44.06655076239073" lon="12.137453530254552"><ele>429.5</ele><time>2026-04-03T11:10:28.905Z</time></trkpt><trkpt lat="44.06666388157616" lon="12.137364992382297"><ele>432.0</ele><time>2026-04-03T11:10:29.905Z</time></trkpt><trkpt lat="44.06677913849574" lon="12.137296742859949"><ele>434.5</ele><time>2026-04-03T11:10:30.905Z</time></trkpt><trkpt lat="44.06689680220208" lon="12.137236140482408"><ele>437.0</ele><time>2026-04-03T11:10:31.905Z</time></trkpt><trkpt lat="44.06701551286775" lon="12.137184159130523"><ele>437.0</ele><time>2026-04-03T11:10:32.905Z</time></trkpt><trkpt lat="44.06713999496497" lon="12.13714386100628"><ele>437.0</ele><time>2026-04-03T11:10:33.905Z</time></trkpt><trkpt lat="44.06726525259208" lon="12.137114475455007"><ele>437.0</ele><time>2026-04-03T11:10:34.905Z</time></trkpt><trkpt lat="44.067386458787915" lon="12.13708812771815"><ele>437.0</ele><time>2026-04-03T11:10:35.905Z</time></trkpt><trkpt lat="44.0675007951125" lon="12.13707708970736"><ele>437.20000000000005</ele><time>2026-04-03T11:10:36.905Z</time></trkpt><trkpt lat="44.06760775980239" lon="12.137068472749496"><ele>437.40000000000003</ele><time>2026-04-03T11:10:37.905Z</time></trkpt><trkpt lat="44.067716792824605" lon="12.137078077312735"><ele>437.59999999999997</ele><time>2026-04-03T11:10:38.905Z</time></trkpt><trkpt lat="44.06782913021699" lon="12.13708674236714"><ele>437.79999999999995</ele><time>2026-04-03T11:10:39.902Z</time></trkpt><trkpt lat="44.06793000032282" lon="12.137105311661422"><ele>438.0</ele><time>2026-04-03T11:10:40.902Z</time></trkpt><trkpt lat="44.06802307081922" lon="12.137123390777898"><ele>438.0</ele><time>2026-04-03T11:10:41.902Z</time></trkpt><trkpt lat="44.06810164324906" lon="12.13712657320542"><ele>438.0</ele><time>2026-04-03T11:10:42.902Z</time></trkpt><trkpt lat="44.06817005748795" lon="12.137111916623157"><ele>438.0</ele><time>2026-04-03T11:10:43.903Z</time></trkpt><trkpt lat="44.06825649639215" lon="12.136997146492181"><ele>438.0</ele><time>2026-04-03T11:10:45.903Z</time></trkpt><trkpt lat="44.06827514434992" lon="12.13689359188982"><ele>438.0</ele><time>2026-04-03T11:10:46.902Z</time></trkpt><trkpt lat="44.06827226865401" lon="12.136776948146375"><ele>438.0</ele><time>2026-04-03T11:10:47.902Z</time></trkpt><trkpt lat="44.06826555825438" lon="12.136643625916662"><ele>435.25</ele><time>2026-04-03T11:10:48.902Z</time></trkpt><trkpt lat="44.06825396309552" lon="12.136497856948225"><ele>432.5</ele><time>2026-04-03T11:10:49.902Z</time></trkpt><trkpt lat="44.06824954535438" lon="12.136345254251"><ele>429.75</ele><time>2026-04-03T11:10:50.902Z</time></trkpt><trkpt lat="44.06825389936417" lon="12.13617308360297"><ele>427.0</ele><time>2026-04-03T11:10:51.901Z</time></trkpt><trkpt lat="44.06825389715561" lon="12.136007591554675"><ele>427.0</ele><time>2026-04-03T11:10:52.902Z</time></trkpt><trkpt lat="44.068261251191714" lon="12.13584062447994"><ele>427.0</ele><time>2026-04-03T11:10:53.902Z</time></trkpt><trkpt lat="44.06827960612693" lon="12.135673865248942"><ele>427.0</ele><time>2026-04-03T11:10:54.901Z</time></trkpt><trkpt lat="44.06831045065208" lon="12.13549824189391"><ele>427.0</ele><time>2026-04-03T11:10:55.901Z</time></trkpt><trkpt lat="44.068358552985835" lon="12.135322107998944"><ele>427.5</ele><time>2026-04-03T11:10:56.901Z</time></trkpt><trkpt lat="44.0683978630349" lon="12.135165381273676"><ele>428.0</ele><time>2026-04-03T11:10:57.901Z</time></trkpt><trkpt lat="44.06843244938402" lon="12.134992756746465"><ele>428.5</ele><time>2026-04-03T11:10:58.901Z</time></trkpt><trkpt lat="44.06845717739707" lon="12.134813243804276"><ele>429.0</ele><time>2026-04-03T11:10:59.901Z</time></trkpt><trkpt lat="44.068466984846395" lon="12.134622796017322"><ele>429.0</ele><time>2026-04-03T11:11:00.901Z</time></trkpt><trkpt lat="44.06846699039173" lon="12.134427969955656"><ele>429.0</ele><time>2026-04-03T11:11:01.901Z</time></trkpt><trkpt lat="44.06847047337594" lon="12.134257846011813"><ele>429.0</ele><time>2026-04-03T11:11:02.901Z</time></trkpt><trkpt lat="44.06848264657142" lon="12.134113441991738"><ele>429.0</ele><time>2026-04-03T11:11:03.901Z</time></trkpt><trkpt lat="44.068511520464874" lon="12.133974933618353"><ele>430.25</ele><time>2026-04-03T11:11:04.901Z</time></trkpt><trkpt lat="44.06855112740001" lon="12.133836808590603"><ele>431.5</ele><time>2026-04-03T11:11:05.901Z</time></trkpt><trkpt lat="44.06859532114268" lon="12.133693186003697"><ele>432.75</ele><time>2026-04-03T11:11:06.901Z</time></trkpt><trkpt lat="44.06861357218365" lon="12.133517683669963"><ele>434.0</ele><time>2026-04-03T11:11:07.901Z</time></trkpt><trkpt lat="44.06860104913377" lon="12.133347540200651"><ele>435.5</ele><time>2026-04-03T11:11:08.901Z</time></trkpt><trkpt lat="44.06857769360097" lon="12.133177635028884"><ele>437.0</ele><time>2026-04-03T11:11:09.901Z</time></trkpt><trkpt lat="44.06854495539173" lon="12.133009417442993"><ele>438.5</ele><time>2026-04-03T11:11:10.901Z</time></trkpt><trkpt lat="44.06850390192902" lon="12.132835847512398"><ele>440.0</ele><time>2026-04-03T11:11:11.901Z</time></trkpt><trkpt lat="44.06845756468733" lon="12.132677454000456"><ele>440.0</ele><time>2026-04-03T11:11:12.901Z</time></trkpt><trkpt lat="44.06841477506319" lon="12.132526241837068"><ele>440.0</ele><time>2026-04-03T11:11:13.901Z</time></trkpt><trkpt lat="44.06839900392144" lon="12.132368948527152"><ele>440.0</ele><time>2026-04-03T11:11:14.901Z</time></trkpt><trkpt lat="44.068397049649924" lon="12.132202276680731"><ele>440.0</ele><time>2026-04-03T11:11:15.901Z</time></trkpt><trkpt lat="44.068401225950794" lon="12.132027780595358"><ele>440.0</ele><time>2026-04-03T11:11:16.901Z</time></trkpt><trkpt lat="44.06840968913768" lon="12.131842660340974"><ele>440.0</ele><time>2026-04-03T11:11:17.901Z</time></trkpt><trkpt lat="44.06841221337216" lon="12.13166164368242"><ele>440.0</ele><time>2026-04-03T11:11:18.901Z</time></trkpt><trkpt lat="44.06840159379889" lon="12.131490381614608"><ele>440.0</ele><time>2026-04-03T11:11:19.901Z</time></trkpt><trkpt lat="44.06839367208319" lon="12.131311057028919"><ele>440.0</ele><time>2026-04-03T11:11:20.901Z</time></trkpt><trkpt lat="44.06839473141215" lon="12.131149559270911"><ele>440.0</ele><time>2026-04-03T11:11:21.901Z</time></trkpt><trkpt lat="44.06841016964048" lon="12.131004265364977"><ele>440.0</ele><time>2026-04-03T11:11:22.901Z</time></trkpt><trkpt lat="44.06843937570358" lon="12.130867190752838"><ele>440.0</ele><time>2026-04-03T11:11:23.901Z</time></trkpt><trkpt lat="44.06847413021003" lon="12.130717191848738"><ele>440.0</ele><time>2026-04-03T11:11:24.901Z</time></trkpt><trkpt lat="44.068499221534104" lon="12.130557864958178"><ele>440.0</ele><time>2026-04-03T11:11:25.901Z</time></trkpt><trkpt lat="44.06851270424487" lon="12.130399403280656"><ele>440.0</ele><time>2026-04-03T11:11:26.901Z</time></trkpt><trkpt lat="44.0685133717232" lon="12.130236615310253"><ele>440.0</ele><time>2026-04-03T11:11:27.901Z</time></trkpt><trkpt lat="44.06850231004438" lon="12.130087179668227"><ele>440.0</ele><time>2026-04-03T11:11:28.901Z</time></trkpt><trkpt lat="44.06848784857448" lon="12.12992703771974"><ele>441.25</ele><time>2026-04-03T11:11:29.901Z</time></trkpt><trkpt lat="44.068471616882746" lon="12.129766811254882"><ele>442.5</ele><time>2026-04-03T11:11:30.901Z</time></trkpt><trkpt lat="44.0684438145548" lon="12.129598522078856"><ele>443.75</ele><time>2026-04-03T11:11:31.901Z</time></trkpt><trkpt lat="44.06841045005414" lon="12.12942240087463"><ele>445.0</ele><time>2026-04-03T11:11:32.901Z</time></trkpt><trkpt lat="44.06837067243433" lon="12.129270360548762"><ele>445.0</ele><time>2026-04-03T11:11:33.901Z</time></trkpt><trkpt lat="44.06832993413458" lon="12.129128735189465"><ele>445.0</ele><time>2026-04-03T11:11:34.901Z</time></trkpt><trkpt lat="44.068286541330274" lon="12.128999598298728"><ele>445.0</ele><time>2026-04-03T11:11:35.901Z</time></trkpt><trkpt lat="44.068237196234726" lon="12.128873608685492"><ele>445.0</ele><time>2026-04-03T11:11:36.901Z</time></trkpt><trkpt lat="44.06818786725076" lon="12.128752200476422"><ele>445.0</ele><time>2026-04-03T11:11:37.901Z</time></trkpt><trkpt lat="44.06813813572433" lon="12.128641423545236"><ele>442.6666666666667</ele><time>2026-04-03T11:11:38.901Z</time></trkpt><trkpt lat="44.068089746976405" lon="12.128538805544352"><ele>440.33333333333337</ele><time>2026-04-03T11:11:39.901Z</time></trkpt><trkpt lat="44.06804444208788" lon="12.128443079770735"><ele>438.0</ele><time>2026-04-03T11:11:40.901Z</time></trkpt><trkpt lat="44.06801242966201" lon="12.128351809778534"><ele>435.66666666666663</ele><time>2026-04-03T11:11:41.901Z</time></trkpt><trkpt lat="44.06800630909713" lon="12.12825199560751"><ele>433.3333333333333</ele><time>2026-04-03T11:11:42.901Z</time></trkpt><trkpt lat="44.068035708214715" lon="12.128147086195389"><ele>431.0</ele><time>2026-04-03T11:11:43.901Z</time></trkpt><trkpt lat="44.06809309707374" lon="12.128053561227054"><ele>432.4</ele><time>2026-04-03T11:11:44.901Z</time></trkpt><trkpt lat="44.068170996226954" lon="12.127974893412722"><ele>433.8</ele><time>2026-04-03T11:11:45.901Z</time></trkpt><trkpt lat="44.0682687551226" lon="12.12789849618423"><ele>435.19999999999993</ele><time>2026-04-03T11:11:46.901Z</time></trkpt><trkpt lat="44.06835738008965" lon="12.127806763337674"><ele>436.59999999999997</ele><time>2026-04-03T11:11:47.901Z</time></trkpt><trkpt lat="44.06844764137755" lon="12.127697264497314"><ele>438.0</ele><time>2026-04-03T11:11:48.901Z</time></trkpt><trkpt lat="44.068535267302444" lon="12.127566989813003"><ele>438.0</ele><time>2026-04-03T11:11:49.901Z</time></trkpt><trkpt lat="44.06861972960323" lon="12.127434716192587"><ele>438.0</ele><time>2026-04-03T11:11:50.901Z</time></trkpt><trkpt lat="44.068700556548706" lon="12.127286087048603"><ele>438.0</ele><time>2026-04-03T11:11:51.901Z</time></trkpt><trkpt lat="44.06877895955413" lon="12.127135689993382"><ele>438.0</ele><time>2026-04-03T11:11:52.901Z</time></trkpt><trkpt lat="44.06884939258628" lon="12.126988316698156"><ele>435.0</ele><time>2026-04-03T11:11:53.901Z</time></trkpt><trkpt lat="44.068912697066466" lon="12.126851869636695"><ele>431.99999999999994</ele><time>2026-04-03T11:11:54.901Z</time></trkpt><trkpt lat="44.06896065692067" lon="12.12671510734886"><ele>429.0</ele><time>2026-04-03T11:11:55.901Z</time></trkpt><trkpt lat="44.0689905302987" lon="12.126574654596215"><ele>426.0</ele><time>2026-04-03T11:11:56.901Z</time></trkpt><trkpt lat="44.06901526747654" lon="12.126432929644135"><ele>423.0</ele><time>2026-04-03T11:11:57.901Z</time></trkpt><trkpt lat="44.0690259297649" lon="12.126288676577444"><ele>421.4</ele><time>2026-04-03T11:11:58.901Z</time></trkpt><trkpt lat="44.06903137354494" lon="12.126148905716995"><ele>419.79999999999995</ele><time>2026-04-03T11:11:59.901Z</time></trkpt><trkpt lat="44.06902851402135" lon="12.126010999483483"><ele>418.2</ele><time>2026-04-03T11:12:00.901Z</time></trkpt><trkpt lat="44.06901299266158" lon="12.125883650936762"><ele>416.6</ele><time>2026-04-03T11:12:01.901Z</time></trkpt><trkpt lat="44.069000332671045" lon="12.125752565773482"><ele>415.0</ele><time>2026-04-03T11:12:02.901Z</time></trkpt><trkpt lat="44.068990510700644" lon="12.125626077833978"><ele>415.00000000000006</ele><time>2026-04-03T11:12:03.901Z</time></trkpt><trkpt lat="44.068995629406885" lon="12.125511535341985"><ele>415.0</ele><time>2026-04-03T11:12:04.901Z</time></trkpt><trkpt lat="44.069013437927524" lon="12.125404879384355"><ele>415.0</ele><time>2026-04-03T11:12:05.901Z</time></trkpt><trkpt lat="44.06904270707341" lon="12.12531024868458"><ele>415.0</ele><time>2026-04-03T11:12:06.901Z</time></trkpt><trkpt lat="44.06908082419828" lon="12.125217957699288"><ele>415.00000000000006</ele><time>2026-04-03T11:12:07.901Z</time></trkpt><trkpt lat="44.0691230442897" lon="12.12512949067174"><ele>415.0</ele><time>2026-04-03T11:12:08.901Z</time></trkpt><trkpt lat="44.06917492459" lon="12.125040906357983"><ele>419.0</ele><time>2026-04-03T11:12:09.901Z</time></trkpt><trkpt lat="44.06923344733069" lon="12.124944210260953"><ele>423.0</ele><time>2026-04-03T11:12:10.901Z</time></trkpt><trkpt lat="44.06930649724473" lon="12.124835476045597"><ele>427.0</ele><time>2026-04-03T11:12:11.901Z</time></trkpt><trkpt lat="44.069365109689656" lon="12.124705593606969"><ele>431.0</ele><time>2026-04-03T11:12:12.901Z</time></trkpt><trkpt lat="44.069431767708494" lon="12.124574553914515"><ele>435.0</ele><time>2026-04-03T11:12:13.901Z</time></trkpt><trkpt lat="44.069513466684306" lon="12.124442991967053"><ele>435.0</ele><time>2026-04-03T11:12:14.901Z</time></trkpt><trkpt lat="44.06959691754287" lon="12.124301770276581"><ele>435.0</ele><time>2026-04-03T11:12:15.901Z</time></trkpt><trkpt lat="44.06968339118012" lon="12.124162124705894"><ele>435.0</ele><time>2026-04-03T11:12:16.901Z</time></trkpt><trkpt lat="44.06977406998366" lon="12.124019386022699"><ele>435.0</ele><time>2026-04-03T11:12:17.901Z</time></trkpt><trkpt lat="44.069861707265304" lon="12.12387888461858"><ele>434.75</ele><time>2026-04-03T11:12:18.901Z</time></trkpt><trkpt lat="44.069950301889556" lon="12.123732326145639"><ele>434.5</ele><time>2026-04-03T11:12:19.901Z</time></trkpt><trkpt lat="44.07004324038749" lon="12.123578402025812"><ele>434.25</ele><time>2026-04-03T11:12:20.901Z</time></trkpt><trkpt lat="44.07013486071454" lon="12.12342349205832"><ele>434.0</ele><time>2026-04-03T11:12:21.901Z</time></trkpt><trkpt lat="44.07021647567296" lon="12.123281840556063"><ele>435.75</ele><time>2026-04-03T11:12:22.901Z</time></trkpt><trkpt lat="44.070284611227194" lon="12.123135329711088"><ele>437.5</ele><time>2026-04-03T11:12:23.901Z</time></trkpt><trkpt lat="44.0703777955115" lon="12.122995754415498"><ele>439.25</ele><time>2026-04-03T11:12:24.901Z</time></trkpt><trkpt lat="44.070462348409094" lon="12.122856365881399"><ele>441.0</ele><time>2026-04-03T11:12:25.901Z</time></trkpt><trkpt lat="44.07055078600364" lon="12.122725640172856"><ele>441.0</ele><time>2026-04-03T11:12:26.901Z</time></trkpt><trkpt lat="44.07064495252791" lon="12.12260219133229"><ele>441.0</ele><time>2026-04-03T11:12:27.901Z</time></trkpt><trkpt lat="44.070740499039516" lon="12.122512705052493"><ele>441.0</ele><time>2026-04-03T11:12:28.901Z</time></trkpt><trkpt lat="44.070842459750665" lon="12.12242209674416"><ele>441.0</ele><time>2026-04-03T11:12:29.901Z</time></trkpt><trkpt lat="44.070953818254814" lon="12.122345514773704"><ele>440.0</ele><time>2026-04-03T11:12:30.901Z</time></trkpt><trkpt lat="44.07107449696907" lon="12.122287882122535"><ele>439.0</ele><time>2026-04-03T11:12:31.901Z</time></trkpt><trkpt lat="44.07118088556137" lon="12.122252693567487"><ele>438.0</ele><time>2026-04-03T11:12:32.901Z</time></trkpt><trkpt lat="44.07128430884699" lon="12.122212866949997"><ele>437.0</ele><time>2026-04-03T11:12:33.901Z</time></trkpt><trkpt lat="44.07138461146621" lon="12.122165361112264"><ele>437.0</ele><time>2026-04-03T11:12:34.901Z</time></trkpt><trkpt lat="44.07147210191527" lon="12.122084878637045"><ele>437.00000000000006</ele><time>2026-04-03T11:12:35.901Z</time></trkpt><trkpt lat="44.07154259372009" lon="12.121974514073223"><ele>437.00000000000006</ele><time>2026-04-03T11:12:36.901Z</time></trkpt><trkpt lat="44.0715917456563" lon="12.12184134567921"><ele>437.0</ele><time>2026-04-03T11:12:37.901Z</time></trkpt><trkpt lat="44.0716247785251" lon="12.121703886812075"><ele>437.0</ele><time>2026-04-03T11:12:38.901Z</time></trkpt><trkpt lat="44.07162411321956" lon="12.12156086995847"><ele>436.20000000000005</ele><time>2026-04-03T11:12:39.901Z</time></trkpt><trkpt lat="44.07161264722475" lon="12.121406787040758"><ele>435.40000000000003</ele><time>2026-04-03T11:12:40.901Z</time></trkpt><trkpt lat="44.07157859778379" lon="12.121263465763871"><ele>434.59999999999997</ele><time>2026-04-03T11:12:41.901Z</time></trkpt><trkpt lat="44.07153452374412" lon="12.121123071978653"><ele>433.79999999999995</ele><time>2026-04-03T11:12:42.901Z</time></trkpt><trkpt lat="44.07149320409767" lon="12.120980483102386"><ele>433.0</ele><time>2026-04-03T11:12:43.901Z</time></trkpt><trkpt lat="44.07145269994946" lon="12.120829847699484"><ele>430.59999999999997</ele><time>2026-04-03T11:12:44.901Z</time></trkpt><trkpt lat="44.07142258766345" lon="12.120681364679745"><ele>428.19999999999993</ele><time>2026-04-03T11:12:45.899Z</time></trkpt><trkpt lat="44.071395091409585" lon="12.12054282527623"><ele>425.8</ele><time>2026-04-03T11:12:46.898Z</time></trkpt><trkpt lat="44.07137021500064" lon="12.120409775151098"><ele>423.4</ele><time>2026-04-03T11:12:47.898Z</time></trkpt><trkpt lat="44.071358143514686" lon="12.120271028670052"><ele>421.0</ele><time>2026-04-03T11:12:48.898Z</time></trkpt><trkpt lat="44.07135830048692" lon="12.1201318476603"><ele>421.0</ele><time>2026-04-03T11:12:49.899Z</time></trkpt><trkpt lat="44.07136638671717" lon="12.119965890675193"><ele>421.0</ele><time>2026-04-03T11:12:50.899Z</time></trkpt><trkpt lat="44.07139203374248" lon="12.1198024136648"><ele>421.0</ele><time>2026-04-03T11:12:51.898Z</time></trkpt><trkpt lat="44.07142824054866" lon="12.119644185271826"><ele>421.0</ele><time>2026-04-03T11:12:52.898Z</time></trkpt><trkpt lat="44.071457233448164" lon="12.11949641038687"><ele>418.1666666666667</ele><time>2026-04-03T11:12:53.898Z</time></trkpt><trkpt lat="44.0714804900176" lon="12.119378300736425"><ele>415.33333333333337</ele><time>2026-04-03T11:12:54.899Z</time></trkpt><trkpt lat="44.071506307789974" lon="12.11926987647669"><ele>412.5</ele><time>2026-04-03T11:12:55.898Z</time></trkpt><trkpt lat="44.07153431155977" lon="12.119162010596451"><ele>409.66666666666663</ele><time>2026-04-03T11:12:56.898Z</time></trkpt><trkpt lat="44.07157122923235" lon="12.119075078422"><ele>406.8333333333333</ele><time>2026-04-03T11:12:57.898Z</time></trkpt><trkpt lat="44.07163198689915" lon="12.11899985031336"><ele>404.0</ele><time>2026-04-03T11:12:58.898Z</time></trkpt><trkpt lat="44.071705116307086" lon="12.118959281603006"><ele>403.49999999999994</ele><time>2026-04-03T11:12:59.898Z</time></trkpt><trkpt lat="44.07177833706449" lon="12.118948094489475"><ele>403.0</ele><time>2026-04-03T11:13:00.898Z</time></trkpt><trkpt lat="44.07184863816659" lon="12.1189706574799"><ele>402.5</ele><time>2026-04-03T11:13:01.898Z</time></trkpt><trkpt lat="44.07191297519476" lon="12.11903814230365"><ele>402.0</ele><time>2026-04-03T11:13:02.898Z</time></trkpt><trkpt lat="44.07196470044721" lon="12.119125927162441"><ele>401.49999999999994</ele><time>2026-04-03T11:13:03.898Z</time></trkpt><trkpt lat="44.072000718370404" lon="12.119238613037743"><ele>401.0</ele><time>2026-04-03T11:13:04.898Z</time></trkpt><trkpt lat="44.072042027413154" lon="12.119344970054087"><ele>402.16666666666663</ele><time>2026-04-03T11:13:05.898Z</time></trkpt><trkpt lat="44.072085742453396" lon="12.119456976751176"><ele>403.3333333333333</ele><time>2026-04-03T11:13:06.898Z</time></trkpt><trkpt lat="44.072125476958206" lon="12.119558848935258"><ele>404.5</ele><time>2026-04-03T11:13:07.898Z</time></trkpt><trkpt lat="44.072165688439156" lon="12.119641507925069"><ele>405.66666666666663</ele><time>2026-04-03T11:13:08.898Z</time></trkpt><trkpt lat="44.07223888126561" lon="12.11976639702569"><ele>406.8333333333333</ele><time>2026-04-03T11:13:10.898Z</time></trkpt><trkpt lat="44.07230199951015" lon="12.119766571829029"><ele>408.0</ele><time>2026-04-03T11:13:11.898Z</time></trkpt><trkpt lat="44.07236320268652" lon="12.119726621242544"><ele>408.0</ele><time>2026-04-03T11:13:12.898Z</time></trkpt><trkpt lat="44.07243256106826" lon="12.119635327609704"><ele>408.0</ele><time>2026-04-03T11:13:13.898Z</time></trkpt><trkpt lat="44.072495755966735" lon="12.119531013034242"><ele>408.0</ele><time>2026-04-03T11:13:14.898Z</time></trkpt><trkpt lat="44.07254956272972" lon="12.119406152352884"><ele>408.0</ele><time>2026-04-03T11:13:15.898Z</time></trkpt><trkpt lat="44.07260301448533" lon="12.119277021217139"><ele>408.0</ele><time>2026-04-03T11:13:16.898Z</time></trkpt><trkpt lat="44.07266910972381" lon="12.119149322013477"><ele>404.75</ele><time>2026-04-03T11:13:17.898Z</time></trkpt><trkpt lat="44.07274185307508" lon="12.119003789162734"><ele>401.5</ele><time>2026-04-03T11:13:18.898Z</time></trkpt><trkpt lat="44.07281734124785" lon="12.118852608012668"><ele>398.25</ele><time>2026-04-03T11:13:19.898Z</time></trkpt><trkpt lat="44.07289003825255" lon="12.118691723949995"><ele>395.0</ele><time>2026-04-03T11:13:20.898Z</time></trkpt><trkpt lat="44.07295967241432" lon="12.11854257297224"><ele>395.0</ele><time>2026-04-03T11:13:21.898Z</time></trkpt><trkpt lat="44.073037614287365" lon="12.118385489951564"><ele>395.0</ele><time>2026-04-03T11:13:22.898Z</time></trkpt><trkpt lat="44.073117829280285" lon="12.118236976394574"><ele>395.0</ele><time>2026-04-03T11:13:23.898Z</time></trkpt><trkpt lat="44.07319699461738" lon="12.118076309872574"><ele>395.0</ele><time>2026-04-03T11:13:24.898Z</time></trkpt><trkpt lat="44.07326440451861" lon="12.117921680379679"><ele>390.75</ele><time>2026-04-03T11:13:25.898Z</time></trkpt><trkpt lat="44.0733354658763" lon="12.117769002870343"><ele>386.5</ele><time>2026-04-03T11:13:26.898Z</time></trkpt><trkpt lat="44.07340254563086" lon="12.117597098382642"><ele>382.25</ele><time>2026-04-03T11:13:27.898Z</time></trkpt><trkpt lat="44.07345519552233" lon="12.117417203829616"><ele>378.0</ele><time>2026-04-03T11:13:28.898Z</time></trkpt><trkpt lat="44.07350264888451" lon="12.117239161954384"><ele>377.0</ele><time>2026-04-03T11:13:29.898Z</time></trkpt><trkpt lat="44.07353906625918" lon="12.11704698874398"><ele>376.0</ele><time>2026-04-03T11:13:30.898Z</time></trkpt><trkpt lat="44.073580074301134" lon="12.116867110123438"><ele>375.0</ele><time>2026-04-03T11:13:31.898Z</time></trkpt><trkpt lat="44.073631754586025" lon="12.116681008141304"><ele>374.0</ele><time>2026-04-03T11:13:32.898Z</time></trkpt><trkpt lat="44.07368937706883" lon="12.11649067827971"><ele>371.6666666666667</ele><time>2026-04-03T11:13:33.898Z</time></trkpt><trkpt lat="44.07375348278471" lon="12.11629116825303"><ele>369.3333333333333</ele><time>2026-04-03T11:13:34.898Z</time></trkpt><trkpt lat="44.073819564174826" lon="12.116094958324828"><ele>367.0</ele><time>2026-04-03T11:13:35.898Z</time></trkpt><trkpt lat="44.073888773861995" lon="12.115893594500802"><ele>360.3333333333333</ele><time>2026-04-03T11:13:36.898Z</time></trkpt><trkpt lat="44.07395600366718" lon="12.115692264873598"><ele>353.6666666666667</ele><time>2026-04-03T11:13:37.898Z</time></trkpt><trkpt lat="44.07401859477435" lon="12.115497236967949"><ele>347.0</ele><time>2026-04-03T11:13:38.898Z</time></trkpt><trkpt lat="44.07407981093128" lon="12.11531030637872"><ele>348.6666666666667</ele><time>2026-04-03T11:13:39.898Z</time></trkpt><trkpt lat="44.07414471226955" lon="12.115120324450992"><ele>350.3333333333333</ele><time>2026-04-03T11:13:40.898Z</time></trkpt><trkpt lat="44.07421427113388" lon="12.114925662353066"><ele>352.0</ele><time>2026-04-03T11:13:41.898Z</time></trkpt><trkpt lat="44.074278768265835" lon="12.114736105656016"><ele>349.0</ele><time>2026-04-03T11:13:42.898Z</time></trkpt><trkpt lat="44.07434270151116" lon="12.11455225998812"><ele>346.0</ele><time>2026-04-03T11:13:43.898Z</time></trkpt><trkpt lat="44.07440801125375" lon="12.114378121483648"><ele>343.0</ele><time>2026-04-03T11:13:44.898Z</time></trkpt><trkpt lat="44.07448581200932" lon="12.114203460156762"><ele>340.0</ele><time>2026-04-03T11:13:45.898Z</time></trkpt><trkpt lat="44.07455952888566" lon="12.11404651799078"><ele>338.0</ele><time>2026-04-03T11:13:46.898Z</time></trkpt><trkpt lat="44.074636208429574" lon="12.113890055353648"><ele>336.0</ele><time>2026-04-03T11:13:47.898Z</time></trkpt><trkpt lat="44.074721317328574" lon="12.11374075609881"><ele>334.0</ele><time>2026-04-03T11:13:48.898Z</time></trkpt><trkpt lat="44.074811489927136" lon="12.113597199158548"><ele>332.0</ele><time>2026-04-03T11:13:49.898Z</time></trkpt><trkpt lat="44.07491195144848" lon="12.113452408953295"><ele>334.0</ele><time>2026-04-03T11:13:50.898Z</time></trkpt><trkpt lat="44.07501663175524" lon="12.113304240084227"><ele>336.0</ele><time>2026-04-03T11:13:51.898Z</time></trkpt><trkpt lat="44.075118317058426" lon="12.113153039857647"><ele>338.0</ele><time>2026-04-03T11:13:52.898Z</time></trkpt><trkpt lat="44.07522326184466" lon="12.112998778257404"><ele>338.0</ele><time>2026-04-03T11:13:53.898Z</time></trkpt><trkpt lat="44.07533235608104" lon="12.112845690474053"><ele>338.0</ele><time>2026-04-03T11:13:54.898Z</time></trkpt><trkpt lat="44.075441512661385" lon="12.112690559326534"><ele>338.0</ele><time>2026-04-03T11:13:55.898Z</time></trkpt><trkpt lat="44.07555539597725" lon="12.112526297590694"><ele>337.0</ele><time>2026-04-03T11:13:56.898Z</time></trkpt><trkpt lat="44.07567279238078" lon="12.112360523819586"><ele>336.0</ele><time>2026-04-03T11:13:57.898Z</time></trkpt><trkpt lat="44.07578296098033" lon="12.112198589170388"><ele>335.0</ele><time>2026-04-03T11:13:58.898Z</time></trkpt><trkpt lat="44.07589410200026" lon="12.112028907285856"><ele>335.0</ele><time>2026-04-03T11:13:59.898Z</time></trkpt><trkpt lat="44.07600523736547" lon="12.111864058219613"><ele>335.0</ele><time>2026-04-03T11:14:00.898Z</time></trkpt><trkpt lat="44.07611987341493" lon="12.111693176424195"><ele>335.0</ele><time>2026-04-03T11:14:01.898Z</time></trkpt><trkpt lat="44.07623315542248" lon="12.111528448060808"><ele>329.33333333333337</ele><time>2026-04-03T11:14:02.898Z</time></trkpt><trkpt lat="44.076345257595314" lon="12.111369397643168"><ele>323.6666666666667</ele><time>2026-04-03T11:14:03.898Z</time></trkpt><trkpt lat="44.07645402757471" lon="12.111216647070558"><ele>318.0</ele><time>2026-04-03T11:14:04.898Z</time></trkpt><trkpt lat="44.07655528589594" lon="12.111062472329314"><ele>320.25</ele><time>2026-04-03T11:14:05.898Z</time></trkpt><trkpt lat="44.07665452835439" lon="12.110913235267345"><ele>322.5</ele><time>2026-04-03T11:14:06.898Z</time></trkpt><trkpt lat="44.0767440469427" lon="12.110769240120845"><ele>324.75</ele><time>2026-04-03T11:14:07.898Z</time></trkpt><trkpt lat="44.076839241192715" lon="12.110620723785875"><ele>327.0</ele><time>2026-04-03T11:14:08.898Z</time></trkpt><trkpt lat="44.07694842078259" lon="12.11047959151543"><ele>327.0</ele><time>2026-04-03T11:14:09.898Z</time></trkpt><trkpt lat="44.07705704722229" lon="12.110347485971783"><ele>327.0</ele><time>2026-04-03T11:14:10.898Z</time></trkpt><trkpt lat="44.07715974718974" lon="12.110232597810008"><ele>327.0</ele><time>2026-04-03T11:14:11.898Z</time></trkpt><trkpt lat="44.07725372985084" lon="12.1101318000459"><ele>327.0</ele><time>2026-04-03T11:14:12.898Z</time></trkpt><trkpt lat="44.07734022322432" lon="12.110037885382212"><ele>327.0</ele><time>2026-04-03T11:14:13.898Z</time></trkpt><trkpt lat="44.07742912948022" lon="12.109945848059313"><ele>327.0</ele><time>2026-04-03T11:14:14.898Z</time></trkpt><trkpt lat="44.07751493993069" lon="12.109848717054357"><ele>327.0</ele><time>2026-04-03T11:14:15.898Z</time></trkpt><trkpt lat="44.07761623846628" lon="12.109755006885909"><ele>327.0</ele><time>2026-04-03T11:14:16.898Z</time></trkpt><trkpt lat="44.07772594382099" lon="12.10967130923421"><ele>328.75</ele><time>2026-04-03T11:14:17.898Z</time></trkpt><trkpt lat="44.07783952555819" lon="12.109585986214107"><ele>330.5</ele><time>2026-04-03T11:14:18.898Z</time></trkpt><trkpt lat="44.07796047824699" lon="12.109506266910957"><ele>332.25</ele><time>2026-04-03T11:14:19.898Z</time></trkpt><trkpt lat="44.07808840014488" lon="12.109444957879674"><ele>334.0</ele><time>2026-04-03T11:14:20.898Z</time></trkpt><trkpt lat="44.07822433240241" lon="12.109391776071636"><ele>334.3333333333333</ele><time>2026-04-03T11:14:21.898Z</time></trkpt><trkpt lat="44.078369482951665" lon="12.109337347187394"><ele>334.6666666666667</ele><time>2026-04-03T11:14:22.898Z</time></trkpt><trkpt lat="44.078515693191406" lon="12.109272844114635"><ele>335.0</ele><time>2026-04-03T11:14:23.898Z</time></trkpt><trkpt lat="44.07866591810617" lon="12.109223534877069"><ele>335.0</ele><time>2026-04-03T11:14:24.898Z</time></trkpt><trkpt lat="44.07881341462174" lon="12.109182429452769"><ele>335.0</ele><time>2026-04-03T11:14:25.898Z</time></trkpt><trkpt lat="44.07896189293558" lon="12.109142613353548"><ele>335.0</ele><time>2026-04-03T11:14:26.898Z</time></trkpt><trkpt lat="44.07910908689889" lon="12.109101250223873"><ele>331.0</ele><time>2026-04-03T11:14:27.898Z</time></trkpt><trkpt lat="44.07925802598457" lon="12.10905430296511"><ele>327.0</ele><time>2026-04-03T11:14:28.898Z</time></trkpt><trkpt lat="44.07940475198485" lon="12.10900797767395"><ele>323.0</ele><time>2026-04-03T11:14:29.898Z</time></trkpt><trkpt lat="44.079551712556864" lon="12.108961231298668"><ele>323.0</ele><time>2026-04-03T11:14:30.898Z</time></trkpt><trkpt lat="44.079692122300365" lon="12.108917870020933"><ele>323.0</ele><time>2026-04-03T11:14:31.898Z</time></trkpt><trkpt lat="44.07982179588155" lon="12.108876537340025"><ele>323.0</ele><time>2026-04-03T11:14:32.898Z</time></trkpt><trkpt lat="44.0799501542828" lon="12.108830893608799"><ele>323.0</ele><time>2026-04-03T11:14:33.898Z</time></trkpt><trkpt lat="44.08008246085395" lon="12.108788519807751"><ele>322.25</ele><time>2026-04-03T11:14:34.898Z</time></trkpt><trkpt lat="44.08021597819348" lon="12.108747376796067"><ele>321.5</ele><time>2026-04-03T11:14:35.898Z</time></trkpt><trkpt lat="44.080350463994236" lon="12.108705127888225"><ele>320.75</ele><time>2026-04-03T11:14:36.898Z</time></trkpt><trkpt lat="44.08048358344579" lon="12.10865800783043"><ele>320.0</ele><time>2026-04-03T11:14:37.898Z</time></trkpt><trkpt lat="44.08061796617517" lon="12.10860341862138"><ele>320.0</ele><time>2026-04-03T11:14:38.898Z</time></trkpt><trkpt lat="44.08075326291285" lon="12.108557214636564"><ele>320.0</ele><time>2026-04-03T11:14:39.898Z</time></trkpt><trkpt lat="44.0808843177833" lon="12.108534643464537"><ele>320.0</ele><time>2026-04-03T11:14:40.898Z</time></trkpt><trkpt lat="44.0810231490661" lon="12.108528692931674"><ele>320.0</ele><time>2026-04-03T11:14:41.898Z</time></trkpt><trkpt lat="44.08116203869235" lon="12.108531619590599"><ele>319.75</ele><time>2026-04-03T11:14:42.898Z</time></trkpt><trkpt lat="44.08130263288784" lon="12.10853797831759"><ele>319.5</ele><time>2026-04-03T11:14:43.898Z</time></trkpt><trkpt lat="44.081441003152285" lon="12.108547530641022"><ele>319.25</ele><time>2026-04-03T11:14:44.898Z</time></trkpt><trkpt lat="44.08157748214695" lon="12.108552484991339"><ele>319.0</ele><time>2026-04-03T11:14:45.898Z</time></trkpt><trkpt lat="44.08170334608081" lon="12.108531231434094"><ele>317.75</ele><time>2026-04-03T11:14:46.898Z</time></trkpt><trkpt lat="44.08182400442559" lon="12.10848580356101"><ele>316.5</ele><time>2026-04-03T11:14:47.897Z</time></trkpt><trkpt lat="44.081943753566094" lon="12.108430530317825"><ele>315.25</ele><time>2026-04-03T11:14:48.897Z</time></trkpt><trkpt lat="44.08206030122494" lon="12.108378350959931"><ele>314.0</ele><time>2026-04-03T11:14:49.897Z</time></trkpt><trkpt lat="44.0821746994617" lon="12.108317883578653"><ele>314.0</ele><time>2026-04-03T11:14:50.897Z</time></trkpt><trkpt lat="44.08228805817581" lon="12.108240278278446"><ele>314.0</ele><time>2026-04-03T11:14:51.894Z</time></trkpt><trkpt lat="44.082399424803754" lon="12.108144853306122"><ele>314.0</ele><time>2026-04-03T11:14:52.895Z</time></trkpt><trkpt lat="44.08251670451754" lon="12.108046494883434"><ele>314.0</ele><time>2026-04-03T11:14:53.895Z</time></trkpt><trkpt lat="44.08262712862647" lon="12.107952200319229"><ele>313.5</ele><time>2026-04-03T11:14:54.895Z</time></trkpt><trkpt lat="44.08273133684008" lon="12.107866000461781"><ele>313.0</ele><time>2026-04-03T11:14:55.895Z</time></trkpt><trkpt lat="44.08282908427349" lon="12.10778843334854"><ele>312.5</ele><time>2026-04-03T11:14:56.895Z</time></trkpt><trkpt lat="44.082927164976496" lon="12.107712449412322"><ele>312.0</ele><time>2026-04-03T11:14:57.894Z</time></trkpt><trkpt lat="44.08302906801603" lon="12.107653376421103"><ele>312.0</ele><time>2026-04-03T11:14:58.894Z</time></trkpt><trkpt lat="44.08312493362208" lon="12.107612303391223"><ele>312.0</ele><time>2026-04-03T11:14:59.894Z</time></trkpt><trkpt lat="44.083198565171095" lon="12.107580175391522"><ele>312.0</ele><time>2026-04-03T11:15:00.895Z</time></trkpt><trkpt lat="44.08324592303553" lon="12.107506702294884"><ele>312.0</ele><time>2026-04-03T11:15:01.894Z</time></trkpt><trkpt lat="44.08327177654973" lon="12.107399241494832"><ele>312.0</ele><time>2026-04-03T11:15:02.894Z</time></trkpt><trkpt lat="44.0832927951114" lon="12.1072780098072"><ele>312.0</ele><time>2026-04-03T11:15:03.894Z</time></trkpt><trkpt lat="44.08332343819925" lon="12.107157231812964"><ele>311.7142857142857</ele><time>2026-04-03T11:15:04.894Z</time></trkpt><trkpt lat="44.08335439892482" lon="12.107045099341972"><ele>311.4285714285714</ele><time>2026-04-03T11:15:05.894Z</time></trkpt><trkpt lat="44.083382604378556" lon="12.106953869906187"><ele>311.1428571428571</ele><time>2026-04-03T11:15:06.894Z</time></trkpt><trkpt lat="44.08341187829256" lon="12.106874454698303"><ele>310.8571428571429</ele><time>2026-04-03T11:15:07.894Z</time></trkpt><trkpt lat="44.08344705467452" lon="12.106798616908277"><ele>310.57142857142856</ele><time>2026-04-03T11:15:08.894Z</time></trkpt><trkpt lat="44.08349760407327" lon="12.106731575523012"><ele>310.2857142857143</ele><time>2026-04-03T11:15:09.894Z</time></trkpt><trkpt lat="44.08355625917251" lon="12.106666660112426"><ele>310.0</ele><time>2026-04-03T11:15:10.894Z</time></trkpt><trkpt lat="44.08361670127053" lon="12.10660535573914"><ele>308.16666666666663</ele><time>2026-04-03T11:15:11.894Z</time></trkpt><trkpt lat="44.08368184441565" lon="12.106544293130707"><ele>306.3333333333333</ele><time>2026-04-03T11:15:12.894Z</time></trkpt><trkpt lat="44.083748798934536" lon="12.106487354752257"><ele>304.5</ele><time>2026-04-03T11:15:13.894Z</time></trkpt><trkpt lat="44.083817319807174" lon="12.106431825792045"><ele>302.6666666666667</ele><time>2026-04-03T11:15:14.894Z</time></trkpt><trkpt lat="44.083889730344836" lon="12.106385871980684"><ele>300.83333333333337</ele><time>2026-04-03T11:15:15.894Z</time></trkpt><trkpt lat="44.08396555990478" lon="12.106328046072989"><ele>299.0</ele><time>2026-04-03T11:15:16.894Z</time></trkpt><trkpt lat="44.08404261463491" lon="12.106267881733423"><ele>300.0</ele><time>2026-04-03T11:15:17.894Z</time></trkpt><trkpt lat="44.0841231092172" lon="12.106214169765458"><ele>301.0</ele><time>2026-04-03T11:15:18.894Z</time></trkpt><trkpt lat="44.0841999254688" lon="12.10614962291434"><ele>302.0</ele><time>2026-04-03T11:15:19.894Z</time></trkpt><trkpt lat="44.084285856859545" lon="12.106085979470025"><ele>303.0</ele><time>2026-04-03T11:15:20.894Z</time></trkpt><trkpt lat="44.084376348866236" lon="12.106026310826756"><ele>304.0</ele><time>2026-04-03T11:15:21.894Z</time></trkpt><trkpt lat="44.084453818247844" lon="12.105966567200149"><ele>304.0</ele><time>2026-04-03T11:15:22.894Z</time></trkpt><trkpt lat="44.08453968593684" lon="12.105923722790324"><ele>304.0</ele><time>2026-04-03T11:15:23.894Z</time></trkpt><trkpt lat="44.084625406004655" lon="12.105873344535807"><ele>304.0</ele><time>2026-04-03T11:15:24.894Z</time></trkpt><trkpt lat="44.08470920613625" lon="12.105811899337272"><ele>304.0</ele><time>2026-04-03T11:15:25.894Z</time></trkpt><trkpt lat="44.084791487490925" lon="12.105746292026017"><ele>304.0</ele><time>2026-04-03T11:15:26.894Z</time></trkpt><trkpt lat="44.08487238428548" lon="12.105657078670568"><ele>302.4</ele><time>2026-04-03T11:15:27.894Z</time></trkpt><trkpt lat="44.08494860995133" lon="12.10557485434694"><ele>300.79999999999995</ele><time>2026-04-03T11:15:28.894Z</time></trkpt><trkpt lat="44.0850219691974" lon="12.105481474914484"><ele>299.20000000000005</ele><time>2026-04-03T11:15:29.894Z</time></trkpt><trkpt lat="44.085101679303364" lon="12.10538783421512"><ele>297.6</ele><time>2026-04-03T11:15:30.894Z</time></trkpt><trkpt lat="44.085178557461674" lon="12.105302505538306"><ele>296.0</ele><time>2026-04-03T11:15:31.894Z</time></trkpt><trkpt lat="44.08525939132045" lon="12.105230006717397"><ele>296.0</ele><time>2026-04-03T11:15:32.894Z</time></trkpt><trkpt lat="44.08534356476497" lon="12.105170155194331"><ele>296.0</ele><time>2026-04-03T11:15:33.894Z</time></trkpt><trkpt lat="44.085430566482835" lon="12.105108865187805"><ele>296.0</ele><time>2026-04-03T11:15:34.894Z</time></trkpt><trkpt lat="44.08552795286391" lon="12.105041319418902"><ele>296.0</ele><time>2026-04-03T11:15:35.894Z</time></trkpt><trkpt lat="44.085623822001004" lon="12.104956429720337"><ele>296.0</ele><time>2026-04-03T11:15:36.894Z</time></trkpt><trkpt lat="44.08572091665044" lon="12.104865094193565"><ele>293.75</ele><time>2026-04-03T11:15:37.894Z</time></trkpt><trkpt lat="44.085820443273626" lon="12.104768485436416"><ele>291.5</ele><time>2026-04-03T11:15:38.894Z</time></trkpt><trkpt lat="44.085922261256535" lon="12.104657230357656"><ele>289.25</ele><time>2026-04-03T11:15:39.894Z</time></trkpt><trkpt lat="44.08602451180869" lon="12.104542258786713"><ele>287.0</ele><time>2026-04-03T11:15:40.894Z</time></trkpt><trkpt lat="44.086130946958285" lon="12.104434872828271"><ele>287.0</ele><time>2026-04-03T11:15:41.894Z</time></trkpt><trkpt lat="44.08624109960085" lon="12.1043437929106"><ele>287.0</ele><time>2026-04-03T11:15:42.894Z</time></trkpt><trkpt lat="44.086351439001035" lon="12.10425408835789"><ele>287.0</ele><time>2026-04-03T11:15:43.894Z</time></trkpt><trkpt lat="44.0864582390256" lon="12.104159481502158"><ele>287.0</ele><time>2026-04-03T11:15:44.894Z</time></trkpt><trkpt lat="44.08655620926518" lon="12.104044253370079"><ele>284.75</ele><time>2026-04-03T11:15:45.894Z</time></trkpt><trkpt lat="44.0866564058528" lon="12.103932121005327"><ele>282.5</ele><time>2026-04-03T11:15:46.894Z</time></trkpt><trkpt lat="44.086758591326536" lon="12.10382891538006"><ele>280.25</ele><time>2026-04-03T11:15:47.894Z</time></trkpt><trkpt lat="44.086864076495516" lon="12.103739174729192"><ele>278.0</ele><time>2026-04-03T11:15:48.894Z</time></trkpt><trkpt lat="44.08697164136949" lon="12.103648622462188"><ele>278.0</ele><time>2026-04-03T11:15:49.894Z</time></trkpt><trkpt lat="44.08707828332423" lon="12.103572056543394"><ele>278.0</ele><time>2026-04-03T11:15:50.894Z</time></trkpt><trkpt lat="44.08718525679543" lon="12.103495890064995"><ele>278.0</ele><time>2026-04-03T11:15:51.894Z</time></trkpt><trkpt lat="44.087292120858926" lon="12.103417915598708"><ele>278.0</ele><time>2026-04-03T11:15:52.894Z</time></trkpt><trkpt lat="44.08739227179612" lon="12.103331330475438"><ele>275.25</ele><time>2026-04-03T11:15:53.894Z</time></trkpt><trkpt lat="44.087488909054926" lon="12.103236693387261"><ele>272.5</ele><time>2026-04-03T11:15:54.894Z</time></trkpt><trkpt lat="44.08758453204483" lon="12.103136047965835"><ele>269.75</ele><time>2026-04-03T11:15:55.894Z</time></trkpt><trkpt lat="44.087680606261735" lon="12.103014496382311"><ele>267.0</ele><time>2026-04-03T11:15:56.894Z</time></trkpt><trkpt lat="44.08778216684195" lon="12.10289538207037"><ele>267.0</ele><time>2026-04-03T11:15:57.894Z</time></trkpt><trkpt lat="44.08788891694633" lon="12.102785009860822"><ele>267.0</ele><time>2026-04-03T11:15:58.894Z</time></trkpt><trkpt lat="44.087996005981346" lon="12.102680129821135"><ele>267.0</ele><time>2026-04-03T11:15:59.894Z</time></trkpt><trkpt lat="44.08810715486432" lon="12.10256496289661"><ele>267.0</ele><time>2026-04-03T11:16:00.894Z</time></trkpt><trkpt lat="44.08821337657869" lon="12.102461899222225"><ele>265.0</ele><time>2026-04-03T11:16:01.894Z</time></trkpt><trkpt lat="44.088316559049844" lon="12.102357148117502"><ele>263.0</ele><time>2026-04-03T11:16:02.894Z</time></trkpt><trkpt lat="44.08841955669389" lon="12.102259103598897"><ele>261.0</ele><time>2026-04-03T11:16:03.894Z</time></trkpt><trkpt lat="44.088518455573684" lon="12.102175482900764"><ele>259.0</ele><time>2026-04-03T11:16:04.894Z</time></trkpt><trkpt lat="44.08862188765912" lon="12.102100623217005"><ele>259.0</ele><time>2026-04-03T11:16:05.894Z</time></trkpt><trkpt lat="44.08872734637425" lon="12.102030450033729"><ele>259.0</ele><time>2026-04-03T11:16:06.894Z</time></trkpt><trkpt lat="44.08881550935963" lon="12.101943510330836"><ele>259.0</ele><time>2026-04-03T11:16:07.894Z</time></trkpt><trkpt lat="44.08888683844905" lon="12.101822169073701"><ele>259.0</ele><time>2026-04-03T11:16:08.894Z</time></trkpt><trkpt lat="44.08894658859193" lon="12.101690469751993"><ele>259.0</ele><time>2026-04-03T11:16:09.894Z</time></trkpt><trkpt lat="44.089001954198935" lon="12.101562316449714"><ele>257.8</ele><time>2026-04-03T11:16:10.894Z</time></trkpt><trkpt lat="44.089060527086346" lon="12.101434776933182"><ele>256.59999999999997</ele><time>2026-04-03T11:16:11.894Z</time></trkpt><trkpt lat="44.089126547134704" lon="12.101304857093883"><ele>255.4</ele><time>2026-04-03T11:16:12.894Z</time></trkpt><trkpt lat="44.08919313213888" lon="12.101186111732552"><ele>254.2</ele><time>2026-04-03T11:16:13.894Z</time></trkpt><trkpt lat="44.08926387940315" lon="12.101068308954627"><ele>253.0</ele><time>2026-04-03T11:16:14.894Z</time></trkpt><trkpt lat="44.089348466559585" lon="12.1009653578339"><ele>253.0</ele><time>2026-04-03T11:16:15.894Z</time></trkpt><trkpt lat="44.08944099860764" lon="12.100867605073582"><ele>253.0</ele><time>2026-04-03T11:16:16.894Z</time></trkpt><trkpt lat="44.089536362017" lon="12.100776967216817"><ele>253.0</ele><time>2026-04-03T11:16:17.894Z</time></trkpt><trkpt lat="44.08963585090587" lon="12.100694866391857"><ele>253.0</ele><time>2026-04-03T11:16:18.894Z</time></trkpt><trkpt lat="44.08974149055619" lon="12.100625588730914"><ele>251.4</ele><time>2026-04-03T11:16:19.894Z</time></trkpt><trkpt lat="44.08984879095716" lon="12.100574407404777"><ele>249.8</ele><time>2026-04-03T11:16:20.894Z</time></trkpt><trkpt lat="44.0899565839166" lon="12.100540683404796"><ele>248.2</ele><time>2026-04-03T11:16:21.894Z</time></trkpt><trkpt lat="44.09006592113505" lon="12.100521384770431"><ele>246.6</ele><time>2026-04-03T11:16:22.894Z</time></trkpt><trkpt lat="44.09017183911114" lon="12.100504253625166"><ele>245.0</ele><time>2026-04-03T11:16:23.894Z</time></trkpt><trkpt lat="44.09027699967974" lon="12.100481587557626"><ele>245.0</ele><time>2026-04-03T11:16:24.894Z</time></trkpt><trkpt lat="44.090384372768064" lon="12.10043609363937"><ele>245.0</ele><time>2026-04-03T11:16:25.894Z</time></trkpt><trkpt lat="44.090479648817336" lon="12.100383521258061"><ele>245.0</ele><time>2026-04-03T11:16:26.894Z</time></trkpt><trkpt lat="44.09056777555183" lon="12.100306153407166"><ele>245.0</ele><time>2026-04-03T11:16:27.894Z</time></trkpt><trkpt lat="44.09065199210427" lon="12.10022338910437"><ele>245.0</ele><time>2026-04-03T11:16:28.894Z</time></trkpt><trkpt lat="44.09072717062868" lon="12.100118854422412"><ele>245.6</ele><time>2026-04-03T11:16:29.894Z</time></trkpt><trkpt lat="44.09078381819271" lon="12.099990375280063"><ele>246.2</ele><time>2026-04-03T11:16:30.894Z</time></trkpt><trkpt lat="44.090848088396136" lon="12.099853310587179"><ele>246.8</ele><time>2026-04-03T11:16:31.894Z</time></trkpt><trkpt lat="44.09088726734367" lon="12.099709267500172"><ele>247.4</ele><time>2026-04-03T11:16:32.894Z</time></trkpt><trkpt lat="44.09090029591616" lon="12.099556927873053"><ele>248.0</ele><time>2026-04-03T11:16:33.894Z</time></trkpt><trkpt lat="44.090889995459854" lon="12.099405695915763"><ele>248.0</ele><time>2026-04-03T11:16:34.894Z</time></trkpt><trkpt lat="44.09085247171275" lon="12.099247135001498"><ele>248.0</ele><time>2026-04-03T11:16:35.894Z</time></trkpt><trkpt lat="44.090801353690516" lon="12.099086969797554"><ele>248.0</ele><time>2026-04-03T11:16:36.894Z</time></trkpt><trkpt lat="44.090740135392515" lon="12.098933314642183"><ele>248.0</ele><time>2026-04-03T11:16:37.894Z</time></trkpt><trkpt lat="44.09068101252653" lon="12.098775199177833"><ele>243.75</ele><time>2026-04-03T11:16:38.894Z</time></trkpt><trkpt lat="44.0906284232965" lon="12.098618495585153"><ele>239.5</ele><time>2026-04-03T11:16:39.894Z</time></trkpt><trkpt lat="44.09057085850987" lon="12.098458811356595"><ele>235.25</ele><time>2026-04-03T11:16:40.894Z</time></trkpt><trkpt lat="44.090516896985754" lon="12.098298444890862"><ele>231.0</ele><time>2026-04-03T11:16:41.894Z</time></trkpt><trkpt lat="44.09046002633863" lon="12.09814559873268"><ele>231.0</ele><time>2026-04-03T11:16:42.894Z</time></trkpt><trkpt lat="44.09040584525579" lon="12.097995087092547"><ele>231.0</ele><time>2026-04-03T11:16:43.894Z</time></trkpt><trkpt lat="44.09035437369313" lon="12.097847289806577"><ele>231.0</ele><time>2026-04-03T11:16:44.894Z</time></trkpt><trkpt lat="44.090308905588074" lon="12.097691645481534"><ele>231.0</ele><time>2026-04-03T11:16:45.894Z</time></trkpt><trkpt lat="44.09026081691187" lon="12.097535716412654"><ele>231.75</ele><time>2026-04-03T11:16:46.894Z</time></trkpt><trkpt lat="44.09019517301699" lon="12.097396435699254"><ele>232.5</ele><time>2026-04-03T11:16:47.894Z</time></trkpt><trkpt lat="44.09012369619794" lon="12.097267038777654"><ele>233.25</ele><time>2026-04-03T11:16:48.894Z</time></trkpt><trkpt lat="44.09004572154234" lon="12.09713623976652"><ele>234.0</ele><time>2026-04-03T11:16:49.894Z</time></trkpt><trkpt lat="44.08997258271903" lon="12.097005581332612"><ele>231.0</ele><time>2026-04-03T11:16:50.894Z</time></trkpt><trkpt lat="44.08990137067801" lon="12.096878560853554"><ele>227.99999999999997</ele><time>2026-04-03T11:16:51.894Z</time></trkpt><trkpt lat="44.08984035352672" lon="12.096741714363231"><ele>224.99999999999997</ele><time>2026-04-03T11:16:52.894Z</time></trkpt><trkpt lat="44.08978775068265" lon="12.096604314046798"><ele>222.0</ele><time>2026-04-03T11:16:53.894Z</time></trkpt><trkpt lat="44.0897519770357" lon="12.09648114096733"><ele>219.0</ele><time>2026-04-03T11:16:54.894Z</time></trkpt><trkpt lat="44.08971577813426" lon="12.096367748855858"><ele>219.0</ele><time>2026-04-03T11:16:55.894Z</time></trkpt><trkpt lat="44.089682256776754" lon="12.096263296564855"><ele>219.0</ele><time>2026-04-03T11:16:56.894Z</time></trkpt><trkpt lat="44.08964805526545" lon="12.096168449380833"><ele>219.0</ele><time>2026-04-03T11:16:57.892Z</time></trkpt><trkpt lat="44.0896129873926" lon="12.096088614356828"><ele>219.0</ele><time>2026-04-03T11:16:58.892Z</time></trkpt><trkpt lat="44.0895552828912" lon="12.095946865648447"><ele>219.0</ele><time>2026-04-03T11:17:00.891Z</time></trkpt><trkpt lat="44.08951372354905" lon="12.095828515304236"><ele>219.0</ele><time>2026-04-03T11:17:02.891Z</time></trkpt><trkpt lat="44.08948131586978" lon="12.095740778558405"><ele>219.0</ele><time>2026-04-03T11:17:04.891Z</time></trkpt><trkpt lat="44.08944735001873" lon="12.095627277062297"><ele>219.0</ele><time>2026-04-03T11:19:19.888Z</time></trkpt><trkpt lat="44.089455572627955" lon="12.09575045295568"><ele>219.0</ele><time>2026-04-03T11:19:30.888Z</time></trkpt><trkpt lat="44.08950803476022" lon="12.095858958774006"><ele>219.0</ele><time>2026-04-03T11:19:31.888Z</time></trkpt><trkpt lat="44.08953614631456" lon="12.095947716361074"><ele>219.0</ele><time>2026-04-03T11:19:32.888Z</time></trkpt><trkpt lat="44.08957092109185" lon="12.096049757689945"><ele>219.0</ele><time>2026-04-03T11:19:33.888Z</time></trkpt><trkpt lat="44.08960948915913" lon="12.09616404923791"><ele>219.0</ele><time>2026-04-03T11:19:34.888Z</time></trkpt><trkpt lat="44.08965466669214" lon="12.096286443822505"><ele>218.99999999999997</ele><time>2026-04-03T11:19:35.888Z</time></trkpt><trkpt lat="44.08970518528769" lon="12.09640818275595"><ele>218.99999999999997</ele><time>2026-04-03T11:19:36.888Z</time></trkpt><trkpt lat="44.08975419475385" lon="12.096532825409254"><ele>219.0</ele><time>2026-04-03T11:19:37.888Z</time></trkpt><trkpt lat="44.08980293858036" lon="12.096663556714699"><ele>219.0</ele><time>2026-04-03T11:19:38.888Z</time></trkpt><trkpt lat="44.08985327279276" lon="12.096798764713705"><ele>217.25</ele><time>2026-04-03T11:19:39.888Z</time></trkpt><trkpt lat="44.08992468263575" lon="12.09693987345369"><ele>215.5</ele><time>2026-04-03T11:19:40.888Z</time></trkpt><trkpt lat="44.0899974178039" lon="12.097076961245586"><ele>213.75</ele><time>2026-04-03T11:19:41.887Z</time></trkpt><trkpt lat="44.09007017645076" lon="12.097202852015533"><ele>212.0</ele><time>2026-04-03T11:19:42.887Z</time></trkpt><trkpt lat="44.09013785941886" lon="12.097328066743666"><ele>215.8</ele><time>2026-04-03T11:19:43.887Z</time></trkpt><trkpt lat="44.09019999452541" lon="12.097455824777379"><ele>219.6</ele><time>2026-04-03T11:19:44.887Z</time></trkpt><trkpt lat="44.09025476020161" lon="12.097588047736426"><ele>223.40000000000003</ele><time>2026-04-03T11:19:45.887Z</time></trkpt><trkpt lat="44.0903032208833" lon="12.097725993259044"><ele>227.20000000000002</ele><time>2026-04-03T11:19:46.887Z</time></trkpt><trkpt lat="44.090348056319115" lon="12.097867358236735"><ele>231.0</ele><time>2026-04-03T11:19:47.887Z</time></trkpt><trkpt lat="44.09039782151862" lon="12.09800655435525"><ele>231.0</ele><time>2026-04-03T11:19:48.887Z</time></trkpt><trkpt lat="44.090447916763566" lon="12.098137425931755"><ele>231.0</ele><time>2026-04-03T11:19:49.887Z</time></trkpt><trkpt lat="44.090496322436884" lon="12.098269205028615"><ele>231.0</ele><time>2026-04-03T11:19:50.887Z</time></trkpt><trkpt lat="44.0905492045343" lon="12.09841444854034"><ele>231.0</ele><time>2026-04-03T11:19:51.887Z</time></trkpt><trkpt lat="44.090600580458414" lon="12.098570989118427"><ele>230.0</ele><time>2026-04-03T11:19:52.887Z</time></trkpt><trkpt lat="44.09064880997303" lon="12.098726587713662"><ele>229.0</ele><time>2026-04-03T11:19:53.887Z</time></trkpt><trkpt lat="44.09068937082997" lon="12.098880693762045"><ele>228.0</ele><time>2026-04-03T11:19:54.887Z</time></trkpt><trkpt lat="44.09073425335384" lon="12.099036041843195"><ele>227.0</ele><time>2026-04-03T11:19:55.887Z</time></trkpt><trkpt lat="44.090781287131726" lon="12.099183335203527"><ele>231.2</ele><time>2026-04-03T11:19:56.887Z</time></trkpt><trkpt lat="44.090828560858306" lon="12.09932176597738"><ele>235.39999999999998</ele><time>2026-04-03T11:19:57.887Z</time></trkpt><trkpt lat="44.090856226035946" lon="12.099458206180438"><ele>239.60000000000002</ele><time>2026-04-03T11:19:58.887Z</time></trkpt><trkpt lat="44.090861649555904" lon="12.09959746272399"><ele>243.8</ele><time>2026-04-03T11:19:59.887Z</time></trkpt><trkpt lat="44.09083839992497" lon="12.099737321596441"><ele>248.0</ele><time>2026-04-03T11:20:00.887Z</time></trkpt><trkpt lat="44.09079500725485" lon="12.099878765367043"><ele>247.25</ele><time>2026-04-03T11:20:01.887Z</time></trkpt><trkpt lat="44.0907352863389" lon="12.10001407888802"><ele>246.5</ele><time>2026-04-03T11:20:02.887Z</time></trkpt><trkpt lat="44.09066544741004" lon="12.100145202020833"><ele>245.75</ele><time>2026-04-03T11:20:03.887Z</time></trkpt><trkpt lat="44.09057635187386" lon="12.100256620911132"><ele>245.0</ele><time>2026-04-03T11:20:04.887Z</time></trkpt><trkpt lat="44.09047886782819" lon="12.100346533291933"><ele>245.0</ele><time>2026-04-03T11:20:05.887Z</time></trkpt><trkpt lat="44.09038140939067" lon="12.100412109710042"><ele>245.0</ele><time>2026-04-03T11:20:06.887Z</time></trkpt><trkpt lat="44.090275210791454" lon="12.10045871471957"><ele>245.0</ele><time>2026-04-03T11:20:07.887Z</time></trkpt><trkpt lat="44.09016512309905" lon="12.100492352693118"><ele>245.0</ele><time>2026-04-03T11:20:08.887Z</time></trkpt><trkpt lat="44.090051457712754" lon="12.100509873247452"><ele>245.0</ele><time>2026-04-03T11:20:09.887Z</time></trkpt><trkpt lat="44.0899492852875" lon="12.100523804391736"><ele>246.6</ele><time>2026-04-03T11:20:10.887Z</time></trkpt><trkpt lat="44.08985349269575" lon="12.100547990094267"><ele>248.2</ele><time>2026-04-03T11:20:11.887Z</time></trkpt><trkpt lat="44.089749995584214" lon="12.100603162415092"><ele>249.8</ele><time>2026-04-03T11:20:12.887Z</time></trkpt><trkpt lat="44.08964415196904" lon="12.100665787840049"><ele>251.4</ele><time>2026-04-03T11:20:13.887Z</time></trkpt><trkpt lat="44.08953897591121" lon="12.10074620794862"><ele>253.0</ele><time>2026-04-03T11:20:14.887Z</time></trkpt><trkpt lat="44.08943978474601" lon="12.100841261647277"><ele>253.0</ele><time>2026-04-03T11:20:15.887Z</time></trkpt><trkpt lat="44.0893442142094" lon="12.100940692303322"><ele>253.0</ele><time>2026-04-03T11:20:16.887Z</time></trkpt><trkpt lat="44.0892558258193" lon="12.101053023952936"><ele>253.0</ele><time>2026-04-03T11:20:17.887Z</time></trkpt><trkpt lat="44.08917545498407" lon="12.101175875634944"><ele>253.0</ele><time>2026-04-03T11:20:18.887Z</time></trkpt><trkpt lat="44.08910219111615" lon="12.10130839288925"><ele>253.99999999999997</ele><time>2026-04-03T11:20:19.887Z</time></trkpt><trkpt lat="44.08905326337953" lon="12.101425913297241"><ele>255.0</ele><time>2026-04-03T11:20:20.887Z</time></trkpt><trkpt lat="44.08900491604371" lon="12.101537344142692"><ele>256.0</ele><time>2026-04-03T11:20:21.887Z</time></trkpt><trkpt lat="44.08896316067939" lon="12.101641118893518"><ele>257.0</ele><time>2026-04-03T11:20:22.887Z</time></trkpt><trkpt lat="44.0889194766082" lon="12.10173243618609"><ele>258.0</ele><time>2026-04-03T11:20:23.887Z</time></trkpt><trkpt lat="44.08887421338557" lon="12.101825988936882"><ele>259.0</ele><time>2026-04-03T11:20:24.887Z</time></trkpt><trkpt lat="44.088827469628946" lon="12.10192454033594"><ele>259.0</ele><time>2026-04-03T11:20:25.887Z</time></trkpt><trkpt lat="44.088770139927554" lon="12.102029967522311"><ele>259.0</ele><time>2026-04-03T11:20:26.887Z</time></trkpt><trkpt lat="44.08870028602894" lon="12.102128570509622"><ele>259.0</ele><time>2026-04-03T11:20:27.887Z</time></trkpt><trkpt lat="44.08861803540726" lon="12.102217064258218"><ele>259.0</ele><time>2026-04-03T11:20:28.887Z</time></trkpt><trkpt lat="44.088537698690665" lon="12.102298527609554"><ele>259.0</ele><time>2026-04-03T11:20:29.887Z</time></trkpt><trkpt lat="44.08844906948267" lon="12.102372093204492"><ele>260.3333333333333</ele><time>2026-04-03T11:20:30.887Z</time></trkpt><trkpt lat="44.088363728471926" lon="12.102444275541725"><ele>261.66666666666663</ele><time>2026-04-03T11:20:31.887Z</time></trkpt><trkpt lat="44.088283922141756" lon="12.102523788788986"><ele>263.0</ele><time>2026-04-03T11:20:32.887Z</time></trkpt><trkpt lat="44.08822053669659" lon="12.102601485634706"><ele>264.3333333333333</ele><time>2026-04-03T11:20:33.887Z</time></trkpt><trkpt lat="44.08815348352071" lon="12.102687737868324"><ele>265.6666666666667</ele><time>2026-04-03T11:20:35.887Z</time></trkpt><trkpt lat="44.08819212266418" lon="12.102762627090884"><ele>267.0</ele><time>2026-04-03T11:20:40.887Z</time></trkpt><trkpt lat="44.08824791889426" lon="12.102709937620705"><ele>269.0</ele><time>2026-04-03T11:20:43.887Z</time></trkpt><trkpt lat="44.08834266854271" lon="12.102610731706951"><ele>271.0</ele><time>2026-04-03T11:21:04.887Z</time></trkpt><trkpt lat="44.088415754866446" lon="12.102572666346067"><ele>273.0</ele><time>2026-04-03T11:21:05.887Z</time></trkpt><trkpt lat="44.08851141312069" lon="12.10252957393933"><ele>275.0</ele><time>2026-04-03T11:21:06.887Z</time></trkpt><trkpt lat="44.08862836834053" lon="12.102473026075016"><ele>277.0</ele><time>2026-04-03T11:21:07.887Z</time></trkpt><trkpt lat="44.08874799863743" lon="12.102416531248586"><ele>275.25</ele><time>2026-04-03T11:21:08.887Z</time></trkpt><trkpt lat="44.08886441756688" lon="12.102342734300349"><ele>273.5</ele><time>2026-04-03T11:21:09.885Z</time></trkpt><trkpt lat="44.0889737176795" lon="12.102258070084169"><ele>271.75</ele><time>2026-04-03T11:21:10.885Z</time></trkpt><trkpt lat="44.08908284951956" lon="12.102178053871622"><ele>270.0</ele><time>2026-04-03T11:21:11.885Z</time></trkpt><trkpt lat="44.08918629055726" lon="12.102097364579713"><ele>270.0</ele><time>2026-04-03T11:21:12.885Z</time></trkpt><trkpt lat="44.089282962086635" lon="12.102010123260296"><ele>270.0</ele><time>2026-04-03T11:21:13.885Z</time></trkpt><trkpt lat="44.0893866421968" lon="12.101910172302587"><ele>270.0</ele><time>2026-04-03T11:21:14.885Z</time></trkpt><trkpt lat="44.08948598142099" lon="12.10181346334626"><ele>270.0</ele><time>2026-04-03T11:21:15.885Z</time></trkpt><trkpt lat="44.08958628953205" lon="12.101717854449722"><ele>270.0</ele><time>2026-04-03T11:21:16.885Z</time></trkpt><trkpt lat="44.08968279212469" lon="12.101616272634647"><ele>270.0</ele><time>2026-04-03T11:21:17.885Z</time></trkpt><trkpt lat="44.089777857381414" lon="12.101533507960593"><ele>270.0</ele><time>2026-04-03T11:21:18.885Z</time></trkpt><trkpt lat="44.08987456475782" lon="12.10147142350342"><ele>270.0</ele><time>2026-04-03T11:21:19.885Z</time></trkpt><trkpt lat="44.08996740184069" lon="12.101413887130613"><ele>270.0</ele><time>2026-04-03T11:21:20.885Z</time></trkpt><trkpt lat="44.09007661653678" lon="12.101358980198683"><ele>269.25</ele><time>2026-04-03T11:21:21.885Z</time></trkpt><trkpt lat="44.09020024482654" lon="12.101312510034642"><ele>268.5</ele><time>2026-04-03T11:21:22.885Z</time></trkpt><trkpt lat="44.09032886050624" lon="12.101260389988202"><ele>267.75</ele><time>2026-04-03T11:21:23.885Z</time></trkpt><trkpt lat="44.090456469183934" lon="12.101203642754362"><ele>267.0</ele><time>2026-04-03T11:21:24.885Z</time></trkpt><trkpt lat="44.090583889021524" lon="12.101144992640368"><ele>267.0</ele><time>2026-04-03T11:21:25.885Z</time></trkpt><trkpt lat="44.09070885294441" lon="12.101089743319635"><ele>267.0</ele><time>2026-04-03T11:21:26.885Z</time></trkpt><trkpt lat="44.090831599871144" lon="12.101037852072684"><ele>267.0</ele><time>2026-04-03T11:21:27.885Z</time></trkpt><trkpt lat="44.090949990565946" lon="12.100988596895299"><ele>267.0</ele><time>2026-04-03T11:21:28.885Z</time></trkpt><trkpt lat="44.09105966822357" lon="12.100936362938336"><ele>266.5</ele><time>2026-04-03T11:21:29.885Z</time></trkpt><trkpt lat="44.09117515655622" lon="12.100880397495969"><ele>266.0</ele><time>2026-04-03T11:21:30.885Z</time></trkpt><trkpt lat="44.09129119022333" lon="12.1008089210003"><ele>265.5</ele><time>2026-04-03T11:21:31.885Z</time></trkpt><trkpt lat="44.09140915921144" lon="12.100728844077851"><ele>265.0</ele><time>2026-04-03T11:21:32.885Z</time></trkpt><trkpt lat="44.09152785967752" lon="12.10064681173341"><ele>265.25</ele><time>2026-04-03T11:21:33.885Z</time></trkpt><trkpt lat="44.09164205643354" lon="12.100554190725456"><ele>265.5</ele><time>2026-04-03T11:21:34.885Z</time></trkpt><trkpt lat="44.09174741254332" lon="12.100462775264807"><ele>265.75</ele><time>2026-04-03T11:21:35.885Z</time></trkpt><trkpt lat="44.091850313447665" lon="12.100381112247781"><ele>266.0</ele><time>2026-04-03T11:21:36.885Z</time></trkpt><trkpt lat="44.09195618044683" lon="12.100310183578058"><ele>266.0</ele><time>2026-04-03T11:21:37.885Z</time></trkpt><trkpt lat="44.092061232911234" lon="12.100253232234767"><ele>266.0</ele><time>2026-04-03T11:21:38.885Z</time></trkpt><trkpt lat="44.09217188170123" lon="12.100216304180499"><ele>266.0</ele><time>2026-04-03T11:21:39.885Z</time></trkpt><trkpt lat="44.09228664972634" lon="12.100209388449006"><ele>266.0</ele><time>2026-04-03T11:21:40.885Z</time></trkpt><trkpt lat="44.09240479363778" lon="12.100219215223424"><ele>268.75</ele><time>2026-04-03T11:21:41.885Z</time></trkpt><trkpt lat="44.09252706574102" lon="12.100238867151088"><ele>271.5</ele><time>2026-04-03T11:21:42.885Z</time></trkpt><trkpt lat="44.09263774251837" lon="12.10024731852759"><ele>274.25</ele><time>2026-04-03T11:21:43.885Z</time></trkpt><trkpt lat="44.092745915187336" lon="12.10024870885247"><ele>277.0</ele><time>2026-04-03T11:21:44.885Z</time></trkpt><trkpt lat="44.092861657024926" lon="12.100271870414053"><ele>277.0</ele><time>2026-04-03T11:21:45.885Z</time></trkpt><trkpt lat="44.09298332568082" lon="12.100324484096426"><ele>277.0</ele><time>2026-04-03T11:21:46.885Z</time></trkpt><trkpt lat="44.09310223885979" lon="12.100389896517024"><ele>277.0</ele><time>2026-04-03T11:21:47.885Z</time></trkpt><trkpt lat="44.09321868093509" lon="12.100465361734562"><ele>277.0</ele><time>2026-04-03T11:21:48.885Z</time></trkpt><trkpt lat="44.093341197052716" lon="12.100530889928978"><ele>275.75</ele><time>2026-04-03T11:21:49.885Z</time></trkpt><trkpt lat="44.09346855402297" lon="12.10060459330262"><ele>274.5</ele><time>2026-04-03T11:21:50.885Z</time></trkpt><trkpt lat="44.093600267153086" lon="12.100673559316641"><ele>273.25</ele><time>2026-04-03T11:21:51.885Z</time></trkpt><trkpt lat="44.09372997203474" lon="12.100743130667837"><ele>272.0</ele><time>2026-04-03T11:21:52.885Z</time></trkpt><trkpt lat="44.09385574027306" lon="12.10080538652388"><ele>271.0</ele><time>2026-04-03T11:21:53.885Z</time></trkpt><trkpt lat="44.09398308789779" lon="12.100848240924146"><ele>270.0</ele><time>2026-04-03T11:21:54.885Z</time></trkpt><trkpt lat="44.094109398385456" lon="12.1008889291493"><ele>269.0</ele><time>2026-04-03T11:21:55.885Z</time></trkpt><trkpt lat="44.09423642602914" lon="12.100931326895507"><ele>268.0</ele><time>2026-04-03T11:21:56.885Z</time></trkpt><trkpt lat="44.094370881957964" lon="12.100968340318593"><ele>268.0</ele><time>2026-04-03T11:21:57.885Z</time></trkpt><trkpt lat="44.09450659366506" lon="12.101012623461443"><ele>268.0</ele><time>2026-04-03T11:21:58.885Z</time></trkpt><trkpt lat="44.094640523206344" lon="12.101059228766363"><ele>268.0</ele><time>2026-04-03T11:21:59.885Z</time></trkpt><trkpt lat="44.09477197588585" lon="12.101116016151062"><ele>268.0</ele><time>2026-04-03T11:22:00.885Z</time></trkpt><trkpt lat="44.09490170656634" lon="12.101170933522944"><ele>268.5</ele><time>2026-04-03T11:22:01.885Z</time></trkpt><trkpt lat="44.09503237292144" lon="12.10122472084477"><ele>269.0</ele><time>2026-04-03T11:22:02.885Z</time></trkpt><trkpt lat="44.09516033182989" lon="12.101270105995523"><ele>269.5</ele><time>2026-04-03T11:22:03.885Z</time></trkpt><trkpt lat="44.095291500216995" lon="12.10129515086777"><ele>270.0</ele><time>2026-04-03T11:22:04.885Z</time></trkpt><trkpt lat="44.095427693285444" lon="12.101295409166516"><ele>270.0</ele><time>2026-04-03T11:22:05.885Z</time></trkpt><trkpt lat="44.09556777121658" lon="12.101274779828854"><ele>270.0</ele><time>2026-04-03T11:22:06.885Z</time></trkpt><trkpt lat="44.095703091511396" lon="12.10123755699079"><ele>270.0</ele><time>2026-04-03T11:22:07.885Z</time></trkpt><trkpt lat="44.095833866706734" lon="12.10117933510187"><ele>270.0</ele><time>2026-04-03T11:22:08.885Z</time></trkpt><trkpt lat="44.09597098881174" lon="12.101114745102812"><ele>271.25</ele><time>2026-04-03T11:22:09.885Z</time></trkpt><trkpt lat="44.096107352187765" lon="12.101065392419729"><ele>272.5</ele><time>2026-04-03T11:22:10.885Z</time></trkpt><trkpt lat="44.096233292790366" lon="12.101028537760374"><ele>273.75</ele><time>2026-04-03T11:22:11.885Z</time></trkpt><trkpt lat="44.096352684892246" lon="12.101008186769096"><ele>275.0</ele><time>2026-04-03T11:22:12.885Z</time></trkpt><trkpt lat="44.09646662269239" lon="12.100996410975611"><ele>275.0</ele><time>2026-04-03T11:22:13.885Z</time></trkpt><trkpt lat="44.09658483463523" lon="12.100989513385729"><ele>275.0</ele><time>2026-04-03T11:22:14.885Z</time></trkpt><trkpt lat="44.096693359900385" lon="12.101005255798542"><ele>275.0</ele><time>2026-04-03T11:22:15.885Z</time></trkpt><trkpt lat="44.096805938763076" lon="12.101057535580027"><ele>275.0</ele><time>2026-04-03T11:22:16.885Z</time></trkpt><trkpt lat="44.09691491460849" lon="12.101126984715252"><ele>278.0</ele><time>2026-04-03T11:22:17.885Z</time></trkpt><trkpt lat="44.09702947113851" lon="12.101208371644706"><ele>281.0</ele><time>2026-04-03T11:22:18.885Z</time></trkpt><trkpt lat="44.09714977465393" lon="12.10128151269042"><ele>284.0</ele><time>2026-04-03T11:22:19.885Z</time></trkpt><trkpt lat="44.097277239498375" lon="12.101356148896109"><ele>287.0</ele><time>2026-04-03T11:22:20.885Z</time></trkpt><trkpt lat="44.0974137259375" lon="12.101440724101007"><ele>287.33333333333337</ele><time>2026-04-03T11:22:21.885Z</time></trkpt><trkpt lat="44.09755756846241" lon="12.101525089412927"><ele>287.6666666666667</ele><time>2026-04-03T11:22:22.885Z</time></trkpt><trkpt lat="44.097702189092445" lon="12.10161689281907"><ele>288.0</ele><time>2026-04-03T11:22:23.885Z</time></trkpt><trkpt lat="44.09783460342296" lon="12.101694512962725"><ele>288.0</ele><time>2026-04-03T11:22:24.885Z</time></trkpt><trkpt lat="44.09795838229933" lon="12.1017694119876"><ele>288.0</ele><time>2026-04-03T11:22:25.885Z</time></trkpt><trkpt lat="44.09807000460235" lon="12.10185284701272"><ele>288.0</ele><time>2026-04-03T11:22:26.885Z</time></trkpt><trkpt lat="44.09817971278102" lon="12.101918772965238"><ele>288.0</ele><time>2026-04-03T11:22:27.885Z</time></trkpt><trkpt lat="44.098278819892805" lon="12.101983015396055"><ele>290.2</ele><time>2026-04-03T11:22:28.885Z</time></trkpt><trkpt lat="44.09836681104273" lon="12.10203017513603"><ele>292.4</ele><time>2026-04-03T11:22:29.885Z</time></trkpt><trkpt lat="44.09845529407687" lon="12.102050820379777"><ele>294.59999999999997</ele><time>2026-04-03T11:22:30.885Z</time></trkpt><trkpt lat="44.09855582473667" lon="12.102052766361606"><ele>296.8</ele><time>2026-04-03T11:22:31.885Z</time></trkpt><trkpt lat="44.098658745622416" lon="12.102026004767215"><ele>299.0</ele><time>2026-04-03T11:22:32.885Z</time></trkpt><trkpt lat="44.098766431840225" lon="12.101985664843262"><ele>299.0</ele><time>2026-04-03T11:22:33.885Z</time></trkpt><trkpt lat="44.098879615676864" lon="12.101940978807852"><ele>299.0</ele><time>2026-04-03T11:22:34.885Z</time></trkpt><trkpt lat="44.098994981274195" lon="12.10189737359794"><ele>299.0</ele><time>2026-04-03T11:22:35.885Z</time></trkpt><trkpt lat="44.09911832389345" lon="12.101850418275635"><ele>299.0</ele><time>2026-04-03T11:22:36.885Z</time></trkpt><trkpt lat="44.099237421395294" lon="12.101800981436723"><ele>298.0</ele><time>2026-04-03T11:22:37.885Z</time></trkpt><trkpt lat="44.0993487078847" lon="12.101760422634554"><ele>297.0</ele><time>2026-04-03T11:22:38.885Z</time></trkpt><trkpt lat="44.09945916309327" lon="12.10170716849997"><ele>296.0</ele><time>2026-04-03T11:22:39.885Z</time></trkpt><trkpt lat="44.09956046297974" lon="12.10164288847127"><ele>295.0</ele><time>2026-04-03T11:22:40.885Z</time></trkpt><trkpt lat="44.09965880014628" lon="12.101568277064178"><ele>297.0</ele><time>2026-04-03T11:22:41.885Z</time></trkpt><trkpt lat="44.09976317335231" lon="12.101488661327577"><ele>299.0</ele><time>2026-04-03T11:22:42.885Z</time></trkpt><trkpt lat="44.09987924667585" lon="12.101435562845573"><ele>301.0</ele><time>2026-04-03T11:22:43.885Z</time></trkpt><trkpt lat="44.100007530031725" lon="12.10140376296001"><ele>303.0</ele><time>2026-04-03T11:22:44.885Z</time></trkpt><trkpt lat="44.10013882257995" lon="12.101370491696406"><ele>303.0</ele><time>2026-04-03T11:22:45.885Z</time></trkpt><trkpt lat="44.10026929592593" lon="12.101326604897876"><ele>303.0</ele><time>2026-04-03T11:22:46.885Z</time></trkpt><trkpt lat="44.10039256435697" lon="12.101269425222997"><ele>303.0</ele><time>2026-04-03T11:22:47.885Z</time></trkpt><trkpt lat="44.10049446906737" lon="12.101215171442385"><ele>303.0</ele><time>2026-04-03T11:22:48.885Z</time></trkpt><trkpt lat="44.100586502329755" lon="12.101152896953542"><ele>303.0</ele><time>2026-04-03T11:22:49.885Z</time></trkpt><trkpt lat="44.10066330983443" lon="12.101091761024756"><ele>303.0</ele><time>2026-04-03T11:22:50.885Z</time></trkpt><trkpt lat="44.10072371802611" lon="12.101024856761299"><ele>303.0</ele><time>2026-04-03T11:22:51.885Z</time></trkpt><trkpt lat="44.10076453627793" lon="12.100948502361526"><ele>303.0</ele><time>2026-04-03T11:22:52.885Z</time></trkpt><trkpt lat="44.10080281192734" lon="12.100857682576398"><ele>303.0</ele><time>2026-04-03T11:22:53.885Z</time></trkpt><trkpt lat="44.10083079540864" lon="12.100758093560135"><ele>303.0</ele><time>2026-04-03T11:22:54.885Z</time></trkpt><trkpt lat="44.10083891606741" lon="12.10064783616599"><ele>301.8</ele><time>2026-04-03T11:22:55.885Z</time></trkpt><trkpt lat="44.100841701414296" lon="12.100529983894235"><ele>300.6</ele><time>2026-04-03T11:22:56.885Z</time></trkpt><trkpt lat="44.10083451518007" lon="12.100396927169216"><ele>299.4</ele><time>2026-04-03T11:22:57.885Z</time></trkpt><trkpt lat="44.10082226409946" lon="12.10024886383214"><ele>298.2</ele><time>2026-04-03T11:22:58.885Z</time></trkpt><trkpt lat="44.10081597204818" lon="12.100095550902333"><ele>297.0</ele><time>2026-04-03T11:22:59.885Z</time></trkpt><trkpt lat="44.10081623662746" lon="12.099933799966461"><ele>296.75</ele><time>2026-04-03T11:23:00.885Z</time></trkpt><trkpt lat="44.100820507116296" lon="12.099769600055495"><ele>296.5</ele><time>2026-04-03T11:23:01.885Z</time></trkpt><trkpt lat="44.100839277929055" lon="12.099616149071231"><ele>296.25</ele><time>2026-04-03T11:23:02.885Z</time></trkpt><trkpt lat="44.10087516108224" lon="12.09947021077122"><ele>296.0</ele><time>2026-04-03T11:23:03.885Z</time></trkpt><trkpt lat="44.10092527458023" lon="12.09932258009535"><ele>296.0</ele><time>2026-04-03T11:23:04.885Z</time></trkpt><trkpt lat="44.100988703814366" lon="12.099180101841956"><ele>296.0</ele><time>2026-04-03T11:23:05.885Z</time></trkpt><trkpt lat="44.10106202029429" lon="12.099039134829864"><ele>296.0</ele><time>2026-04-03T11:23:06.885Z</time></trkpt><trkpt lat="44.101143243332494" lon="12.09890311491502"><ele>296.0</ele><time>2026-04-03T11:23:07.885Z</time></trkpt><trkpt lat="44.10123503133121" lon="12.098763384857882"><ele>294.25</ele><time>2026-04-03T11:23:08.885Z</time></trkpt><trkpt lat="44.10132860909002" lon="12.098641654257078"><ele>292.5</ele><time>2026-04-03T11:23:09.884Z</time></trkpt><trkpt lat="44.101426266118416" lon="12.098540975463363"><ele>290.75</ele><time>2026-04-03T11:23:10.884Z</time></trkpt><trkpt lat="44.10152801476833" lon="12.098447910454935"><ele>289.0</ele><time>2026-04-03T11:23:11.884Z</time></trkpt><trkpt lat="44.1016417377417" lon="12.098366681392438"><ele>288.75</ele><time>2026-04-03T11:23:12.884Z</time></trkpt><trkpt lat="44.101767628370546" lon="12.098284552052673"><ele>288.5</ele><time>2026-04-03T11:23:13.884Z</time></trkpt><trkpt lat="44.10189613030278" lon="12.098201393501864"><ele>288.25</ele><time>2026-04-03T11:23:14.884Z</time></trkpt><trkpt lat="44.10202666325465" lon="12.09812911855704"><ele>288.0</ele><time>2026-04-03T11:23:15.882Z</time></trkpt><trkpt lat="44.10215742390735" lon="12.098041666707354"><ele>285.0</ele><time>2026-04-03T11:23:16.882Z</time></trkpt><trkpt lat="44.10229009336907" lon="12.097953029729624"><ele>282.0</ele><time>2026-04-03T11:23:17.882Z</time></trkpt><trkpt lat="44.10242377352587" lon="12.097864248932138"><ele>279.0</ele><time>2026-04-03T11:23:18.882Z</time></trkpt><trkpt lat="44.10256194712123" lon="12.0977727034865"><ele>276.0</ele><time>2026-04-03T11:23:19.882Z</time></trkpt><trkpt lat="44.102708109123206" lon="12.097679972555156"><ele>276.0</ele><time>2026-04-03T11:23:20.882Z</time></trkpt><trkpt lat="44.10285627289569" lon="12.097582309747155"><ele>276.0</ele><time>2026-04-03T11:23:21.882Z</time></trkpt><trkpt lat="44.10300733857823" lon="12.097483451424342"><ele>276.0</ele><time>2026-04-03T11:23:22.882Z</time></trkpt><trkpt lat="44.10316719954122" lon="12.097385679049797"><ele>272.3333333333333</ele><time>2026-04-03T11:23:23.882Z</time></trkpt><trkpt lat="44.10332493332185" lon="12.097285754190024"><ele>268.66666666666663</ele><time>2026-04-03T11:23:24.882Z</time></trkpt><trkpt lat="44.103488422157035" lon="12.097183363323765"><ele>265.0</ele><time>2026-04-03T11:23:25.882Z</time></trkpt><trkpt lat="44.10365431928538" lon="12.097077906558429"><ele>265.0</ele><time>2026-04-03T11:23:26.882Z</time></trkpt><trkpt lat="44.10381694288252" lon="12.09697616635785"><ele>265.0</ele><time>2026-04-03T11:23:27.882Z</time></trkpt><trkpt lat="44.10398255022378" lon="12.096875059761103"><ele>265.0</ele><time>2026-04-03T11:23:28.881Z</time></trkpt><trkpt lat="44.104146898602295" lon="12.096778310176827"><ele>264.0</ele><time>2026-04-03T11:23:29.881Z</time></trkpt><trkpt lat="44.10430925310005" lon="12.09667694744465"><ele>263.0</ele><time>2026-04-03T11:23:30.881Z</time></trkpt><trkpt lat="44.10446915637345" lon="12.096576530108957"><ele>262.0</ele><time>2026-04-03T11:23:31.881Z</time></trkpt><trkpt lat="44.10462786868559" lon="12.096479583488827"><ele>262.0</ele><time>2026-04-03T11:23:32.881Z</time></trkpt><trkpt lat="44.10479155031104" lon="12.096384406549666"><ele>262.0</ele><time>2026-04-03T11:23:33.881Z</time></trkpt><trkpt lat="44.1049512357763" lon="12.096288544167193"><ele>262.0</ele><time>2026-04-03T11:23:34.881Z</time></trkpt><trkpt lat="44.10510481207248" lon="12.096194902317118"><ele>262.3333333333333</ele><time>2026-04-03T11:23:35.881Z</time></trkpt><trkpt lat="44.10525495578706" lon="12.096101905877127"><ele>262.6666666666667</ele><time>2026-04-03T11:23:36.881Z</time></trkpt><trkpt lat="44.105397627652366" lon="12.096012449268269"><ele>263.0</ele><time>2026-04-03T11:23:37.881Z</time></trkpt><trkpt lat="44.1055401234688" lon="12.095931608746843"><ele>263.0</ele><time>2026-04-03T11:23:38.881Z</time></trkpt><trkpt lat="44.105683384412366" lon="12.095863729103057"><ele>263.0</ele><time>2026-04-03T11:23:39.881Z</time></trkpt><trkpt lat="44.1058213968032" lon="12.095806329877535"><ele>263.0</ele><time>2026-04-03T11:23:40.881Z</time></trkpt><trkpt lat="44.10595842120137" lon="12.095752374699114"><ele>263.0</ele><time>2026-04-03T11:23:41.881Z</time></trkpt><trkpt lat="44.106092957211956" lon="12.095694712654787"><ele>261.25</ele><time>2026-04-03T11:23:42.881Z</time></trkpt><trkpt lat="44.10622334354506" lon="12.095653293227473"><ele>259.5</ele><time>2026-04-03T11:23:43.881Z</time></trkpt><trkpt lat="44.10634246725996" lon="12.095621087914466"><ele>257.75</ele><time>2026-04-03T11:23:44.881Z</time></trkpt><trkpt lat="44.10647872421524" lon="12.095621970071962"><ele>256.0</ele><time>2026-04-03T11:23:45.881Z</time></trkpt><trkpt lat="44.106619590731675" lon="12.095665399727869"><ele>256.0</ele><time>2026-04-03T11:23:46.881Z</time></trkpt><trkpt lat="44.1067551754525" lon="12.095726942759308"><ele>256.0</ele><time>2026-04-03T11:23:47.881Z</time></trkpt><trkpt lat="44.106875634866654" lon="12.095801299378298"><ele>256.0</ele><time>2026-04-03T11:23:48.881Z</time></trkpt><trkpt lat="44.10698350906539" lon="12.095861344985337"><ele>256.0</ele><time>2026-04-03T11:23:49.881Z</time></trkpt><trkpt lat="44.107090417256856" lon="12.095914297608939"><ele>257.0</ele><time>2026-04-03T11:23:50.881Z</time></trkpt><trkpt lat="44.10719648586627" lon="12.095966852037055"><ele>258.0</ele><time>2026-04-03T11:23:51.881Z</time></trkpt><trkpt lat="44.10729543123887" lon="12.09601217290401"><ele>259.0</ele><time>2026-04-03T11:23:52.881Z</time></trkpt><trkpt lat="44.1073862940054" lon="12.096048704416976"><ele>260.0</ele><time>2026-04-03T11:23:53.881Z</time></trkpt><trkpt lat="44.107489581746755" lon="12.09605987314187"><ele>261.0</ele><time>2026-04-03T11:23:54.881Z</time></trkpt><trkpt lat="44.10759268298969" lon="12.096030505095772"><ele>260.8</ele><time>2026-04-03T11:23:55.881Z</time></trkpt><trkpt lat="44.1076810106519" lon="12.09596568205626"><ele>260.6</ele><time>2026-04-03T11:23:56.881Z</time></trkpt><trkpt lat="44.10776057961586" lon="12.095871539650409"><ele>260.4</ele><time>2026-04-03T11:23:57.881Z</time></trkpt><trkpt lat="44.10782373565094" lon="12.095756191867352"><ele>260.2</ele><time>2026-04-03T11:23:58.881Z</time></trkpt><trkpt lat="44.107884130223844" lon="12.09562528170238"><ele>260.0</ele><time>2026-04-03T11:23:59.881Z</time></trkpt><trkpt lat="44.1079378603684" lon="12.09548878222608"><ele>260.0</ele><time>2026-04-03T11:24:00.881Z</time></trkpt><trkpt lat="44.10798990664178" lon="12.095353301699566"><ele>260.0</ele><time>2026-04-03T11:24:01.881Z</time></trkpt><trkpt lat="44.10803920344545" lon="12.095207015942567"><ele>260.0</ele><time>2026-04-03T11:24:02.881Z</time></trkpt><trkpt lat="44.10808870588489" lon="12.095061879760442"><ele>260.0</ele><time>2026-04-03T11:24:03.881Z</time></trkpt><trkpt lat="44.10814679446016" lon="12.094915644951769"><ele>259.25</ele><time>2026-04-03T11:24:04.881Z</time></trkpt><trkpt lat="44.108211360955345" lon="12.094758423341894"><ele>258.5</ele><time>2026-04-03T11:24:05.881Z</time></trkpt><trkpt lat="44.10827756661984" lon="12.09459449158569"><ele>257.75</ele><time>2026-04-03T11:24:06.881Z</time></trkpt><trkpt lat="44.10834654123478" lon="12.094420991202176"><ele>257.0</ele><time>2026-04-03T11:24:07.881Z</time></trkpt><trkpt lat="44.108417524500034" lon="12.094241579598682"><ele>256.0</ele><time>2026-04-03T11:24:08.881Z</time></trkpt><trkpt lat="44.1084957256539" lon="12.094060092387066"><ele>255.0</ele><time>2026-04-03T11:24:09.881Z</time></trkpt><trkpt lat="44.10857209248642" lon="12.093876714549777"><ele>254.0</ele><time>2026-04-03T11:24:10.881Z</time></trkpt><trkpt lat="44.10864802873705" lon="12.093692992323623"><ele>254.0</ele><time>2026-04-03T11:24:11.881Z</time></trkpt><trkpt lat="44.108718687389974" lon="12.09351697333628"><ele>254.0</ele><time>2026-04-03T11:24:12.881Z</time></trkpt><trkpt lat="44.10878541155687" lon="12.093345591523487"><ele>254.0</ele><time>2026-04-03T11:24:13.881Z</time></trkpt><trkpt lat="44.108848349386655" lon="12.093174670354685"><ele>254.0</ele><time>2026-04-03T11:24:14.881Z</time></trkpt><trkpt lat="44.10890109331711" lon="12.09299504828339"><ele>253.0</ele><time>2026-04-03T11:24:15.881Z</time></trkpt><trkpt lat="44.108939817736086" lon="12.092824567622161"><ele>252.0</ele><time>2026-04-03T11:24:16.881Z</time></trkpt><trkpt lat="44.108966535496705" lon="12.092666107650432"><ele>251.0</ele><time>2026-04-03T11:24:17.881Z</time></trkpt><trkpt lat="44.10897836797705" lon="12.092511884739308"><ele>250.0</ele><time>2026-04-03T11:24:18.881Z</time></trkpt><trkpt lat="44.10898928626216" lon="12.092364363419271"><ele>249.6</ele><time>2026-04-03T11:24:19.881Z</time></trkpt><trkpt lat="44.10900687759244" lon="12.092219492242652"><ele>249.2</ele><time>2026-04-03T11:24:20.881Z</time></trkpt><trkpt lat="44.109014654470165" lon="12.092075239161032"><ele>248.8</ele><time>2026-04-03T11:24:21.881Z</time></trkpt><trkpt lat="44.10902433020089" lon="12.091923359389497"><ele>248.4</ele><time>2026-04-03T11:24:22.881Z</time></trkpt><trkpt lat="44.10903513973153" lon="12.091768001462556"><ele>248.0</ele><time>2026-04-03T11:24:23.881Z</time></trkpt><trkpt lat="44.10903436026508" lon="12.091610594919182"><ele>247.4</ele><time>2026-04-03T11:24:24.881Z</time></trkpt><trkpt lat="44.109034025298385" lon="12.091453110777817"><ele>246.8</ele><time>2026-04-03T11:24:25.881Z</time></trkpt><trkpt lat="44.10903315234733" lon="12.091298621483867"><ele>246.2</ele><time>2026-04-03T11:24:26.881Z</time></trkpt><trkpt lat="44.10903390424314" lon="12.091144556846393"><ele>245.6</ele><time>2026-04-03T11:24:27.881Z</time></trkpt><trkpt lat="44.109039481519375" lon="12.09098871392916"><ele>245.0</ele><time>2026-04-03T11:24:28.881Z</time></trkpt><trkpt lat="44.109045824416896" lon="12.090826935827618"><ele>244.25</ele><time>2026-04-03T11:24:29.881Z</time></trkpt><trkpt lat="44.109059929947264" lon="12.090661271776494"><ele>243.5</ele><time>2026-04-03T11:24:30.881Z</time></trkpt><trkpt lat="44.10907908202982" lon="12.090490910148954"><ele>242.75</ele><time>2026-04-03T11:24:31.881Z</time></trkpt><trkpt lat="44.10909668892272" lon="12.090318948021034"><ele>242.0</ele><time>2026-04-03T11:24:32.881Z</time></trkpt><trkpt lat="44.10910788978849" lon="12.09015405755803"><ele>244.39999999999998</ele><time>2026-04-03T11:24:33.881Z</time></trkpt><trkpt lat="44.109122407291004" lon="12.0899963897037"><ele>246.79999999999998</ele><time>2026-04-03T11:24:34.881Z</time></trkpt><trkpt lat="44.109139726459624" lon="12.089841982696564"><ele>249.2</ele><time>2026-04-03T11:24:35.881Z</time></trkpt><trkpt lat="44.109154325872765" lon="12.089693202306982"><ele>251.6</ele><time>2026-04-03T11:24:36.881Z</time></trkpt><trkpt lat="44.10916654090321" lon="12.089548204229473"><ele>254.0</ele><time>2026-04-03T11:24:37.881Z</time></trkpt><trkpt lat="44.109163220159246" lon="12.089397393436442"><ele>254.0</ele><time>2026-04-03T11:24:38.881Z</time></trkpt><trkpt lat="44.109143851757246" lon="12.089252731289447"><ele>254.0</ele><time>2026-04-03T11:24:39.881Z</time></trkpt><trkpt lat="44.10910838712654" lon="12.089102060556655"><ele>254.0</ele><time>2026-04-03T11:24:40.881Z</time></trkpt><trkpt lat="44.109067328656536" lon="12.088943629510359"><ele>254.0</ele><time>2026-04-03T11:24:41.881Z</time></trkpt><trkpt lat="44.109027096723636" lon="12.088792416916363"><ele>249.75</ele><time>2026-04-03T11:24:42.881Z</time></trkpt><trkpt lat="44.1089871589983" lon="12.088638020731224"><ele>245.5</ele><time>2026-04-03T11:24:43.881Z</time></trkpt><trkpt lat="44.10895264158222" lon="12.088483642103402"><ele>241.25</ele><time>2026-04-03T11:24:44.881Z</time></trkpt><trkpt lat="44.10891428065265" lon="12.088332717257506"><ele>237.0</ele><time>2026-04-03T11:24:45.881Z</time></trkpt><trkpt lat="44.10888209102251" lon="12.088180920513398"><ele>236.25</ele><time>2026-04-03T11:24:46.881Z</time></trkpt><trkpt lat="44.10886302174718" lon="12.088031375234166"><ele>235.5</ele><time>2026-04-03T11:24:47.881Z</time></trkpt><trkpt lat="44.1088523476949" lon="12.08787849405259"><ele>234.75</ele><time>2026-04-03T11:24:48.881Z</time></trkpt><trkpt lat="44.108849620215274" lon="12.087714859834584"><ele>234.0</ele><time>2026-04-03T11:24:49.881Z</time></trkpt><trkpt lat="44.10886315906816" lon="12.08754234269552"><ele>232.75</ele><time>2026-04-03T11:24:50.881Z</time></trkpt><trkpt lat="44.10888066374045" lon="12.087354535824577"><ele>231.5</ele><time>2026-04-03T11:24:51.881Z</time></trkpt><trkpt lat="44.10890092991617" lon="12.087153096006627"><ele>230.25</ele><time>2026-04-03T11:24:52.881Z</time></trkpt><trkpt lat="44.10892622641314" lon="12.086972034159464"><ele>229.0</ele><time>2026-04-03T11:24:53.881Z</time></trkpt><trkpt lat="44.1089527077351" lon="12.086798837908802"><ele>229.0</ele><time>2026-04-03T11:24:54.881Z</time></trkpt><trkpt lat="44.10897610680001" lon="12.086639879908496"><ele>228.99999999999997</ele><time>2026-04-03T11:24:55.881Z</time></trkpt><trkpt lat="44.10898841453893" lon="12.086500399921256"><ele>228.99999999999997</ele><time>2026-04-03T11:24:56.881Z</time></trkpt><trkpt lat="44.10900543808282" lon="12.086387451316387"><ele>229.0</ele><time>2026-04-03T11:24:57.881Z</time></trkpt><trkpt lat="44.1090145925302" lon="12.086257065629434"><ele>229.0</ele><time>2026-04-03T11:24:58.881Z</time></trkpt><trkpt lat="44.10904701030759" lon="12.086149017853124"><ele>230.79999999999998</ele><time>2026-04-03T11:24:59.881Z</time></trkpt><trkpt lat="44.10910511121277" lon="12.086058374952923"><ele>232.59999999999997</ele><time>2026-04-03T11:25:00.881Z</time></trkpt><trkpt lat="44.10918480270398" lon="12.085980919067943"><ele>234.4</ele><time>2026-04-03T11:25:01.881Z</time></trkpt><trkpt lat="44.10927529681535" lon="12.085910465599492"><ele>236.2</ele><time>2026-04-03T11:25:02.881Z</time></trkpt><trkpt lat="44.109370932142504" lon="12.085839771703897"><ele>238.0</ele><time>2026-04-03T11:25:03.881Z</time></trkpt><trkpt lat="44.10946577815804" lon="12.085763771648578"><ele>236.4</ele><time>2026-04-03T11:25:04.881Z</time></trkpt><trkpt lat="44.10956292025352" lon="12.085691361848255"><ele>234.8</ele><time>2026-04-03T11:25:05.881Z</time></trkpt><trkpt lat="44.10965746632878" lon="12.085615397390669"><ele>233.2</ele><time>2026-04-03T11:25:06.881Z</time></trkpt><trkpt lat="44.10974060904776" lon="12.085536071490843"><ele>231.6</ele><time>2026-04-03T11:25:07.881Z</time></trkpt><trkpt lat="44.10981805451875" lon="12.08543716238641"><ele>230.0</ele><time>2026-04-03T11:25:08.881Z</time></trkpt><trkpt lat="44.10988449024374" lon="12.085320678893062"><ele>229.5</ele><time>2026-04-03T11:25:09.881Z</time></trkpt><trkpt lat="44.10994412951179" lon="12.085198026666943"><ele>229.0</ele><time>2026-04-03T11:25:10.881Z</time></trkpt><trkpt lat="44.11001848755092" lon="12.085070510414612"><ele>228.5</ele><time>2026-04-03T11:25:11.881Z</time></trkpt><trkpt lat="44.11011521328673" lon="12.084958182751551"><ele>228.0</ele><time>2026-04-03T11:25:12.881Z</time></trkpt><trkpt lat="44.110228314915304" lon="12.084863044181024"><ele>228.0</ele><time>2026-04-03T11:25:13.881Z</time></trkpt><trkpt lat="44.11034290180139" lon="12.08477654215291"><ele>228.0</ele><time>2026-04-03T11:25:14.881Z</time></trkpt><trkpt lat="44.11044656100485" lon="12.084689351817309"><ele>228.0</ele><time>2026-04-03T11:25:15.881Z</time></trkpt><trkpt lat="44.11055099121248" lon="12.08461333100782"><ele>228.0</ele><time>2026-04-03T11:25:16.881Z</time></trkpt><trkpt lat="44.11065185401976" lon="12.084548523088333"><ele>229.0</ele><time>2026-04-03T11:25:17.881Z</time></trkpt><trkpt lat="44.11074502603029" lon="12.08449357526624"><ele>230.0</ele><time>2026-04-03T11:25:18.881Z</time></trkpt><trkpt lat="44.1108234605437" lon="12.084427136640313"><ele>231.0</ele><time>2026-04-03T11:25:19.881Z</time></trkpt><trkpt lat="44.11086791921461" lon="12.08432850265217"><ele>232.0</ele><time>2026-04-03T11:25:20.881Z</time></trkpt><trkpt lat="44.11088713680401" lon="12.084213030542127"><ele>233.0</ele><time>2026-04-03T11:25:21.879Z</time></trkpt><trkpt lat="44.11088926482407" lon="12.084083310620587"><ele>233.0</ele><time>2026-04-03T11:25:22.879Z</time></trkpt><trkpt lat="44.110884150332446" lon="12.08395268526853"><ele>233.0</ele><time>2026-04-03T11:25:23.879Z</time></trkpt><trkpt lat="44.1108795757504" lon="12.083820823216273"><ele>233.0</ele><time>2026-04-03T11:25:24.879Z</time></trkpt><trkpt lat="44.11087846862714" lon="12.083677573597686"><ele>233.0</ele><time>2026-04-03T11:25:25.879Z</time></trkpt><trkpt lat="44.110883725092144" lon="12.08352594561333"><ele>233.0</ele><time>2026-04-03T11:25:26.879Z</time></trkpt><trkpt lat="44.110891476489996" lon="12.083368315861609"><ele>231.60000000000002</ele><time>2026-04-03T11:25:27.879Z</time></trkpt><trkpt lat="44.110901216037306" lon="12.083215686863953"><ele>230.20000000000002</ele><time>2026-04-03T11:25:28.879Z</time></trkpt><trkpt lat="44.1109102405697" lon="12.08306761826996"><ele>228.8</ele><time>2026-04-03T11:25:29.879Z</time></trkpt><trkpt lat="44.110917950571285" lon="12.082927950494643"><ele>227.4</ele><time>2026-04-03T11:25:30.879Z</time></trkpt><trkpt lat="44.110932047971374" lon="12.082808402176289"><ele>226.0</ele><time>2026-04-03T11:25:31.879Z</time></trkpt><trkpt lat="44.11094937707938" lon="12.082706174208253"><ele>225.99999999999997</ele><time>2026-04-03T11:25:32.879Z</time></trkpt><trkpt lat="44.11098688482776" lon="12.082611976166572"><ele>226.0</ele><time>2026-04-03T11:25:33.879Z</time></trkpt><trkpt lat="44.11104280400117" lon="12.082538717313485"><ele>226.0</ele><time>2026-04-03T11:25:34.879Z</time></trkpt><trkpt lat="44.11111250785837" lon="12.082495308008092"><ele>226.0</ele><time>2026-04-03T11:25:35.879Z</time></trkpt><trkpt lat="44.11119148666246" lon="12.082497801004163"><ele>225.99999999999997</ele><time>2026-04-03T11:25:36.879Z</time></trkpt><trkpt lat="44.11127644635139" lon="12.08252984679598"><ele>226.0</ele><time>2026-04-03T11:25:37.879Z</time></trkpt><trkpt lat="44.111363731941466" lon="12.082568434028408"><ele>226.0</ele><time>2026-04-03T11:25:38.879Z</time></trkpt><trkpt lat="44.111450555814535" lon="12.082597949745587"><ele>226.00000000000003</ele><time>2026-04-03T11:25:39.879Z</time></trkpt><trkpt lat="44.11153952912043" lon="12.082625250351127"><ele>226.00000000000003</ele><time>2026-04-03T11:25:40.879Z</time></trkpt><trkpt lat="44.11163741149561" lon="12.082650473647572"><ele>226.0</ele><time>2026-04-03T11:25:41.879Z</time></trkpt><trkpt lat="44.11174301176184" lon="12.082684635912084"><ele>226.0</ele><time>2026-04-03T11:25:42.879Z</time></trkpt><trkpt lat="44.111844565490244" lon="12.082719313845114"><ele>226.33333333333331</ele><time>2026-04-03T11:25:43.879Z</time></trkpt><trkpt lat="44.11194635516881" lon="12.08275330464437"><ele>226.66666666666666</ele><time>2026-04-03T11:25:44.879Z</time></trkpt><trkpt lat="44.11203731938098" lon="12.082763009553817"><ele>227.0</ele><time>2026-04-03T11:25:45.879Z</time></trkpt><trkpt lat="44.11211815433874" lon="12.082754253294942"><ele>227.33333333333331</ele><time>2026-04-03T11:25:46.879Z</time></trkpt><trkpt lat="44.11218644604943" lon="12.08270570262007"><ele>227.66666666666666</ele><time>2026-04-03T11:25:47.879Z</time></trkpt><trkpt lat="44.112234447521935" lon="12.082615616583446"><ele>228.0</ele><time>2026-04-03T11:25:48.879Z</time></trkpt><trkpt lat="44.11226756472305" lon="12.082511948923484"><ele>227.4</ele><time>2026-04-03T11:25:49.879Z</time></trkpt><trkpt lat="44.11229638833746" lon="12.08239597603486"><ele>226.8</ele><time>2026-04-03T11:25:50.879Z</time></trkpt><trkpt lat="44.11233261145099" lon="12.08227308844044"><ele>226.2</ele><time>2026-04-03T11:25:51.879Z</time></trkpt><trkpt lat="44.11237135271092" lon="12.08213895925284"><ele>225.6</ele><time>2026-04-03T11:25:52.879Z</time></trkpt><trkpt lat="44.11241073941085" lon="12.081993890202929"><ele>225.0</ele><time>2026-04-03T11:25:53.879Z</time></trkpt><trkpt lat="44.11245793738803" lon="12.081832371199237"><ele>225.0</ele><time>2026-04-03T11:25:54.879Z</time></trkpt><trkpt lat="44.11250442007881" lon="12.081668182360007"><ele>225.0</ele><time>2026-04-03T11:25:55.879Z</time></trkpt><trkpt lat="44.11255343180057" lon="12.081505268035347"><ele>225.0</ele><time>2026-04-03T11:25:56.879Z</time></trkpt><trkpt lat="44.11259822886903" lon="12.081340979292106"><ele>225.0</ele><time>2026-04-03T11:25:57.879Z</time></trkpt><trkpt lat="44.11264599680031" lon="12.081181315122159"><ele>223.6</ele><time>2026-04-03T11:25:58.879Z</time></trkpt><trkpt lat="44.11268865720898" lon="12.081031523711216"><ele>222.2</ele><time>2026-04-03T11:25:59.879Z</time></trkpt><trkpt lat="44.11272838140014" lon="12.080889633984064"><ele>220.8</ele><time>2026-04-03T11:26:00.879Z</time></trkpt><trkpt lat="44.112766370933954" lon="12.080772080273151"><ele>219.4</ele><time>2026-04-03T11:26:01.879Z</time></trkpt><trkpt lat="44.11279525871003" lon="12.08067586854523"><ele>218.0</ele><time>2026-04-03T11:26:02.879Z</time></trkpt><trkpt lat="44.1128305377947" lon="12.08060264910377"><ele>216.66666666666669</ele><time>2026-04-03T11:26:03.879Z</time></trkpt><trkpt lat="44.11292523962335" lon="12.080501798939741"><ele>215.33333333333334</ele><time>2026-04-03T11:26:05.879Z</time></trkpt><trkpt lat="44.11299469313651" lon="12.08048332978081"><ele>214.0</ele><time>2026-04-03T11:26:06.879Z</time></trkpt><trkpt lat="44.11306503495926" lon="12.080488226266464"><ele>212.66666666666669</ele><time>2026-04-03T11:26:07.879Z</time></trkpt><trkpt lat="44.113150352483515" lon="12.080507092479346"><ele>211.33333333333334</ele><time>2026-04-03T11:26:08.879Z</time></trkpt><trkpt lat="44.11324993811015" lon="12.08052417744885"><ele>210.0</ele><time>2026-04-03T11:26:09.879Z</time></trkpt><trkpt lat="44.11334981596758" lon="12.080554526246196"><ele>210.0</ele><time>2026-04-03T11:26:10.879Z</time></trkpt><trkpt lat="44.113448168197465" lon="12.080579946358965"><ele>210.0</ele><time>2026-04-03T11:26:11.879Z</time></trkpt><trkpt lat="44.113551885273594" lon="12.080602959269227"><ele>210.0</ele><time>2026-04-03T11:26:12.879Z</time></trkpt><trkpt lat="44.113663499005554" lon="12.080633392283525"><ele>210.0</ele><time>2026-04-03T11:26:13.879Z</time></trkpt><trkpt lat="44.11378548138291" lon="12.080662809571505"><ele>210.0</ele><time>2026-04-03T11:26:14.878Z</time></trkpt><trkpt lat="44.113922785648924" lon="12.08069478855122"><ele>210.0</ele><time>2026-04-03T11:26:15.878Z</time></trkpt><trkpt lat="44.11406026639279" lon="12.080726194649532"><ele>210.0</ele><time>2026-04-03T11:26:16.878Z</time></trkpt><trkpt lat="44.11419572726454" lon="12.08076520318246"><ele>210.0</ele><time>2026-04-03T11:26:17.878Z</time></trkpt><trkpt lat="44.11432697990404" lon="12.080797439563803"><ele>210.0</ele><time>2026-04-03T11:26:18.878Z</time></trkpt><trkpt lat="44.11445414726139" lon="12.080825268981691"><ele>209.25</ele><time>2026-04-03T11:26:19.878Z</time></trkpt><trkpt lat="44.11458045893623" lon="12.080853249874304"><ele>208.5</ele><time>2026-04-03T11:26:20.878Z</time></trkpt><trkpt lat="44.11469917523203" lon="12.080875311400998"><ele>207.75</ele><time>2026-04-03T11:26:21.878Z</time></trkpt><trkpt lat="44.11482047315683" lon="12.08088623854094"><ele>207.0</ele><time>2026-04-03T11:26:22.878Z</time></trkpt><trkpt lat="44.11493818511543" lon="12.080877895618691"><ele>205.5</ele><time>2026-04-03T11:26:23.878Z</time></trkpt><trkpt lat="44.1150578398351" lon="12.080819100953152"><ele>204.0</ele><time>2026-04-03T11:26:24.878Z</time></trkpt><trkpt lat="44.11517843061993" lon="12.080731334677695"><ele>202.5</ele><time>2026-04-03T11:26:25.878Z</time></trkpt><trkpt lat="44.11529763966634" lon="12.080643180033835"><ele>201.0</ele><time>2026-04-03T11:26:26.878Z</time></trkpt><trkpt lat="44.115420013800815" lon="12.080547926986121"><ele>199.75</ele><time>2026-04-03T11:26:27.878Z</time></trkpt><trkpt lat="44.11554986810168" lon="12.080451885977723"><ele>198.5</ele><time>2026-04-03T11:26:28.878Z</time></trkpt><trkpt lat="44.11567738984465" lon="12.080360702470436"><ele>197.25</ele><time>2026-04-03T11:26:29.878Z</time></trkpt><trkpt lat="44.115804345226806" lon="12.080267555983902"><ele>196.0</ele><time>2026-04-03T11:26:30.878Z</time></trkpt><trkpt lat="44.11593169537072" lon="12.080167912478814"><ele>194.75</ele><time>2026-04-03T11:26:31.878Z</time></trkpt><trkpt lat="44.11605900031818" lon="12.080073917258312"><ele>193.5</ele><time>2026-04-03T11:26:32.878Z</time></trkpt><trkpt lat="44.11618618173602" lon="12.07998152855713"><ele>192.25</ele><time>2026-04-03T11:26:33.878Z</time></trkpt><trkpt lat="44.1163015679051" lon="12.079900405738433"><ele>191.0</ele><time>2026-04-03T11:26:34.878Z</time></trkpt><trkpt lat="44.116409666159484" lon="12.079821824324886"><ele>190.60000000000002</ele><time>2026-04-03T11:26:35.878Z</time></trkpt><trkpt lat="44.1165087031186" lon="12.07974149169351"><ele>190.2</ele><time>2026-04-03T11:26:36.878Z</time></trkpt><trkpt lat="44.11659751203174" lon="12.079663653563127"><ele>189.8</ele><time>2026-04-03T11:26:37.878Z</time></trkpt><trkpt lat="44.116687663554615" lon="12.079584676497557"><ele>189.39999999999998</ele><time>2026-04-03T11:26:38.878Z</time></trkpt><trkpt lat="44.11676172069765" lon="12.079483061967908"><ele>189.0</ele><time>2026-04-03T11:26:39.878Z</time></trkpt><trkpt lat="44.116817613581944" lon="12.079375593830935"><ele>187.25</ele><time>2026-04-03T11:26:40.878Z</time></trkpt><trkpt lat="44.11686305607326" lon="12.079243511082684"><ele>185.5</ele><time>2026-04-03T11:26:41.878Z</time></trkpt><trkpt lat="44.11689296640855" lon="12.079092799431715"><ele>183.75</ele><time>2026-04-03T11:26:42.878Z</time></trkpt><trkpt lat="44.11691728364161" lon="12.07892435169891"><ele>182.0</ele><time>2026-04-03T11:26:43.878Z</time></trkpt><trkpt lat="44.11694680568472" lon="12.078752856411677"><ele>181.25</ele><time>2026-04-03T11:26:44.878Z</time></trkpt><trkpt lat="44.11697552643904" lon="12.078570196954741"><ele>180.5</ele><time>2026-04-03T11:26:45.878Z</time></trkpt><trkpt lat="44.11700151471809" lon="12.078382104607922"><ele>179.75</ele><time>2026-04-03T11:26:46.878Z</time></trkpt><trkpt lat="44.11702531889924" lon="12.078184501927455"><ele>179.0</ele><time>2026-04-03T11:26:47.878Z</time></trkpt><trkpt lat="44.11705720242578" lon="12.0779823251948"><ele>177.75</ele><time>2026-04-03T11:26:48.878Z</time></trkpt><trkpt lat="44.11708893576235" lon="12.077775483386555"><ele>176.5</ele><time>2026-04-03T11:26:49.878Z</time></trkpt><trkpt lat="44.117116844747294" lon="12.077571361693304"><ele>175.25</ele><time>2026-04-03T11:26:50.878Z</time></trkpt><trkpt lat="44.11714599090684" lon="12.077374145137707"><ele>174.0</ele><time>2026-04-03T11:26:51.878Z</time></trkpt><trkpt lat="44.11717236807951" lon="12.07718583446684"><ele>172.5</ele><time>2026-04-03T11:26:52.878Z</time></trkpt><trkpt lat="44.11719866060757" lon="12.077007290676232"><ele>171.0</ele><time>2026-04-03T11:26:53.878Z</time></trkpt><trkpt lat="44.11723321092508" lon="12.076840726782944"><ele>169.5</ele><time>2026-04-03T11:26:54.878Z</time></trkpt><trkpt lat="44.11727726614037" lon="12.07667474923475"><ele>168.0</ele><time>2026-04-03T11:26:55.878Z</time></trkpt><trkpt lat="44.11732570859137" lon="12.076506800704658"><ele>166.75</ele><time>2026-04-03T11:26:56.878Z</time></trkpt><trkpt lat="44.11738529736157" lon="12.07634700980501"><ele>165.5</ele><time>2026-04-03T11:26:57.878Z</time></trkpt><trkpt lat="44.117444479652015" lon="12.076185275153016"><ele>164.25</ele><time>2026-04-03T11:26:58.878Z</time></trkpt><trkpt lat="44.11750167918432" lon="12.076024492085207"><ele>163.0</ele><time>2026-04-03T11:26:59.878Z</time></trkpt><trkpt lat="44.117554374140816" lon="12.075855651348249"><ele>160.25</ele><time>2026-04-03T11:27:00.878Z</time></trkpt><trkpt lat="44.11760007393275" lon="12.07567914482955"><ele>157.5</ele><time>2026-04-03T11:27:01.878Z</time></trkpt><trkpt lat="44.11762671615923" lon="12.075497350731442"><ele>154.75</ele><time>2026-04-03T11:27:02.878Z</time></trkpt><trkpt lat="44.11764356816698" lon="12.075311602777733"><ele>152.0</ele><time>2026-04-03T11:27:03.878Z</time></trkpt><trkpt lat="44.117654167030146" lon="12.075126064241053"><ele>152.0</ele><time>2026-04-03T11:27:04.878Z</time></trkpt><trkpt lat="44.117663288782644" lon="12.074950049634257"><ele>152.0</ele><time>2026-04-03T11:27:05.878Z</time></trkpt><trkpt lat="44.11767887700503" lon="12.074783828005899"><ele>152.0</ele><time>2026-04-03T11:27:06.878Z</time></trkpt><trkpt lat="44.117708305480136" lon="12.07462765064758"><ele>152.0</ele><time>2026-04-03T11:27:07.878Z</time></trkpt><trkpt lat="44.11775467976801" lon="12.074480182136991"><ele>151.0</ele><time>2026-04-03T11:27:08.878Z</time></trkpt><trkpt lat="44.11781085539585" lon="12.074343238671196"><ele>150.0</ele><time>2026-04-03T11:27:09.878Z</time></trkpt><trkpt lat="44.11787577364719" lon="12.07420557075972"><ele>149.0</ele><time>2026-04-03T11:27:10.878Z</time></trkpt><trkpt lat="44.11793768910135" lon="12.074067872763973"><ele>148.0</ele><time>2026-04-03T11:27:11.878Z</time></trkpt><trkpt lat="44.1179934060542" lon="12.073925945821843"><ele>146.0</ele><time>2026-04-03T11:27:12.878Z</time></trkpt><trkpt lat="44.118035332141886" lon="12.07377849388944"><ele>144.0</ele><time>2026-04-03T11:27:13.878Z</time></trkpt><trkpt lat="44.11807403952234" lon="12.07362513767952"><ele>142.0</ele><time>2026-04-03T11:27:14.878Z</time></trkpt><trkpt lat="44.118100359258726" lon="12.07345843396259"><ele>140.0</ele><time>2026-04-03T11:27:15.878Z</time></trkpt><trkpt lat="44.11813629788171" lon="12.073293730045073"><ele>137.25</ele><time>2026-04-03T11:27:16.878Z</time></trkpt><trkpt lat="44.11817162797311" lon="12.073126156761754"><ele>134.5</ele><time>2026-04-03T11:27:17.878Z</time></trkpt><trkpt lat="44.118209660686446" lon="12.072964871010353"><ele>131.75</ele><time>2026-04-03T11:27:18.878Z</time></trkpt><trkpt lat="44.11824987428431" lon="12.07280479929617"><ele>129.0</ele><time>2026-04-03T11:27:19.878Z</time></trkpt><trkpt lat="44.11828439766552" lon="12.072642233045968"><ele>128.25</ele><time>2026-04-03T11:27:20.878Z</time></trkpt><trkpt lat="44.11831474760105" lon="12.072479273589547"><ele>127.5</ele><time>2026-04-03T11:27:21.878Z</time></trkpt><trkpt lat="44.11835054800234" lon="12.072319680043233"><ele>126.75</ele><time>2026-04-03T11:27:22.878Z</time></trkpt><trkpt lat="44.118390184017464" lon="12.07214997669495"><ele>126.0</ele><time>2026-04-03T11:27:23.878Z</time></trkpt><trkpt lat="44.118428998357075" lon="12.071982398712345"><ele>124.0</ele><time>2026-04-03T11:27:24.878Z</time></trkpt><trkpt lat="44.11847189319928" lon="12.071815229995421"><ele>122.0</ele><time>2026-04-03T11:27:25.878Z</time></trkpt><trkpt lat="44.11850634611322" lon="12.071640766899991"><ele>120.0</ele><time>2026-04-03T11:27:26.878Z</time></trkpt><trkpt lat="44.11853389700365" lon="12.071456164829625"><ele>118.0</ele><time>2026-04-03T11:27:27.876Z</time></trkpt><trkpt lat="44.11854536629566" lon="12.071278976435144"><ele>116.25</ele><time>2026-04-03T11:27:28.876Z</time></trkpt><trkpt lat="44.118563728754474" lon="12.071098588037527"><ele>114.5</ele><time>2026-04-03T11:27:29.876Z</time></trkpt><trkpt lat="44.11858361074087" lon="12.070922713633296"><ele>112.75</ele><time>2026-04-03T11:27:30.876Z</time></trkpt><trkpt lat="44.11860113453954" lon="12.070750635070718"><ele>111.0</ele><time>2026-04-03T11:27:31.875Z</time></trkpt><trkpt lat="44.1186174157176" lon="12.070592329555817"><ele>109.66666666666667</ele><time>2026-04-03T11:27:32.875Z</time></trkpt><trkpt lat="44.1186283315711" lon="12.07045560593723"><ele>108.33333333333334</ele><time>2026-04-03T11:27:33.876Z</time></trkpt><trkpt lat="44.118639045552605" lon="12.07033930263168"><ele>107.0</ele><time>2026-04-03T11:27:34.875Z</time></trkpt><trkpt lat="44.11865159351778" lon="12.070237341393648"><ele>105.66666666666667</ele><time>2026-04-03T11:27:35.875Z</time></trkpt><trkpt lat="44.118662846073846" lon="12.070131391854263"><ele>104.33333333333334</ele><time>2026-04-03T11:27:36.876Z</time></trkpt><trkpt lat="44.11866890235414" lon="12.070028088326465"><ele>103.0</ele><time>2026-04-03T11:27:37.876Z</time></trkpt><trkpt lat="44.118676528356644" lon="12.069923162494009"><ele>101.50000000000001</ele><time>2026-04-03T11:27:38.876Z</time></trkpt><trkpt lat="44.11869067983466" lon="12.069822087604027"><ele>100.0</ele><time>2026-04-03T11:27:39.876Z</time></trkpt><trkpt lat="44.11869791597263" lon="12.069727917695248"><ele>98.5</ele><time>2026-04-03T11:27:40.875Z</time></trkpt><trkpt lat="44.118712143859234" lon="12.069641408142356"><ele>97.0</ele><time>2026-04-03T11:27:41.875Z</time></trkpt><trkpt lat="44.11873290393617" lon="12.069491823535735"><ele>95.5</ele><time>2026-04-03T11:27:43.875Z</time></trkpt><trkpt lat="44.11873740575208" lon="12.069367238579197"><ele>94.0</ele><time>2026-04-03T11:27:45.875Z</time></trkpt><trkpt lat="44.1186786330031" lon="12.06926135311721"><ele>94.0</ele><time>2026-04-03T11:27:47.875Z</time></trkpt><trkpt lat="44.118576059497144" lon="12.069192462155769"><ele>94.0</ele><time>2026-04-03T11:27:49.875Z</time></trkpt><trkpt lat="44.11847299951325" lon="12.069143485239223"><ele>94.0</ele><time>2026-04-03T11:27:51.875Z</time></trkpt><trkpt lat="44.11839939620242" lon="12.069109470506683"><ele>94.0</ele><time>2026-04-03T11:27:53.875Z</time></trkpt><trkpt lat="44.11833476861348" lon="12.069062365003637"><ele>94.0</ele><time>2026-04-03T11:27:55.875Z</time></trkpt><trkpt lat="44.11827738434537" lon="12.068953872483142"><ele>92.0</ele><time>2026-04-03T11:27:57.875Z</time></trkpt><trkpt lat="44.11826286842193" lon="12.068784338956984"><ele>90.0</ele><time>2026-04-03T11:27:59.875Z</time></trkpt><trkpt lat="44.11827267896332" lon="12.06868679259966"><ele>88.0</ele><time>2026-04-03T11:28:00.875Z</time></trkpt><trkpt lat="44.118301922355954" lon="12.068582623314771"><ele>86.0</ele><time>2026-04-03T11:28:01.875Z</time></trkpt><trkpt lat="44.11834391812967" lon="12.068483522636484"><ele>84.0</ele><time>2026-04-03T11:28:02.875Z</time></trkpt><trkpt lat="44.11840228108636" lon="12.068397782467768"><ele>82.0</ele><time>2026-04-03T11:28:03.875Z</time></trkpt><trkpt lat="44.11846017854305" lon="12.068332697201004"><ele>82.0</ele><time>2026-04-03T11:28:04.875Z</time></trkpt><trkpt lat="44.118524988142326" lon="12.068289339100124"><ele>82.0</ele><time>2026-04-03T11:28:05.875Z</time></trkpt><trkpt lat="44.11859107684933" lon="12.068265508807222"><ele>82.0</ele><time>2026-04-03T11:28:06.875Z</time></trkpt><trkpt lat="44.118718603970834" lon="12.068235890717537"><ele>82.0</ele><time>2026-04-03T11:28:08.875Z</time></trkpt><trkpt lat="44.11878927153025" lon="12.068239949774433"><ele>82.0</ele><time>2026-04-03T11:28:09.875Z</time></trkpt><trkpt lat="44.11886268698928" lon="12.06824696379467"><ele>82.0</ele><time>2026-04-03T11:28:10.875Z</time></trkpt><trkpt lat="44.11893571437559" lon="12.06825104710972"><ele>79.6</ele><time>2026-04-03T11:28:11.875Z</time></trkpt><trkpt lat="44.119012800105885" lon="12.068231799676264"><ele>77.19999999999999</ele><time>2026-04-03T11:28:12.875Z</time></trkpt><trkpt lat="44.119091436003316" lon="12.068173726552201"><ele>74.8</ele><time>2026-04-03T11:28:13.875Z</time></trkpt><trkpt lat="44.119167281095976" lon="12.068094634428718"><ele>72.4</ele><time>2026-04-03T11:28:14.875Z</time></trkpt><trkpt lat="44.11923780482752" lon="12.067994356666183"><ele>70.0</ele><time>2026-04-03T11:28:15.875Z</time></trkpt><trkpt lat="44.119305993154185" lon="12.06787601283017"><ele>70.0</ele><time>2026-04-03T11:28:16.875Z</time></trkpt><trkpt lat="44.119363319843444" lon="12.06773533834138"><ele>70.0</ele><time>2026-04-03T11:28:17.875Z</time></trkpt><trkpt lat="44.11941418273667" lon="12.067580641891539"><ele>70.0</ele><time>2026-04-03T11:28:18.875Z</time></trkpt><trkpt lat="44.11945949764293" lon="12.06742519822126"><ele>70.0</ele><time>2026-04-03T11:28:19.875Z</time></trkpt><trkpt lat="44.119506623205986" lon="12.067263704484352"><ele>69.25</ele><time>2026-04-03T11:28:20.875Z</time></trkpt><trkpt lat="44.119558092048514" lon="12.067098861137755"><ele>68.5</ele><time>2026-04-03T11:28:21.875Z</time></trkpt><trkpt lat="44.11961214576845" lon="12.066943412602525"><ele>67.75</ele><time>2026-04-03T11:28:22.875Z</time></trkpt><trkpt lat="44.119665500563926" lon="12.066797424272904"><ele>67.0</ele><time>2026-04-03T11:28:23.875Z</time></trkpt><trkpt lat="44.119719961240826" lon="12.066650585392065"><ele>66.5</ele><time>2026-04-03T11:28:24.875Z</time></trkpt><trkpt lat="44.11977725872369" lon="12.066500030011317"><ele>66.0</ele><time>2026-04-03T11:28:25.875Z</time></trkpt><trkpt lat="44.119831394289356" lon="12.066342585736303"><ele>65.5</ele><time>2026-04-03T11:28:26.875Z</time></trkpt><trkpt lat="44.11988463531578" lon="12.06618882099199"><ele>65.0</ele><time>2026-04-03T11:28:27.875Z</time></trkpt><trkpt lat="44.11993582571088" lon="12.066045922230076"><ele>65.0</ele><time>2026-04-03T11:28:28.875Z</time></trkpt><trkpt lat="44.119987015227544" lon="12.065910742497035"><ele>65.0</ele><time>2026-04-03T11:28:29.875Z</time></trkpt><trkpt lat="44.1200289488625" lon="12.065769928989903"><ele>65.0</ele><time>2026-04-03T11:28:30.875Z</time></trkpt><trkpt lat="44.120064775208725" lon="12.065625837843134"><ele>65.0</ele><time>2026-04-03T11:28:31.875Z</time></trkpt><trkpt lat="44.12008948549078" lon="12.065475913440217"><ele>65.0</ele><time>2026-04-03T11:28:32.875Z</time></trkpt><trkpt lat="44.120107720121844" lon="12.065312229823963"><ele>65.0</ele><time>2026-04-03T11:28:33.875Z</time></trkpt><trkpt lat="44.120120868017985" lon="12.065146743293274"><ele>65.0</ele><time>2026-04-03T11:28:34.875Z</time></trkpt><trkpt lat="44.12013383197636" lon="12.064991373147967"><ele>65.0</ele><time>2026-04-03T11:28:35.875Z</time></trkpt><trkpt lat="44.1201509982252" lon="12.064838199940805"><ele>65.0</ele><time>2026-04-03T11:28:36.875Z</time></trkpt><trkpt lat="44.12017223651729" lon="12.064683011688318"><ele>64.8</ele><time>2026-04-03T11:28:37.875Z</time></trkpt><trkpt lat="44.12020381549142" lon="12.064536576632243"><ele>64.6</ele><time>2026-04-03T11:28:38.875Z</time></trkpt><trkpt lat="44.12024136042999" lon="12.064401670896693"><ele>64.4</ele><time>2026-04-03T11:28:39.875Z</time></trkpt><trkpt lat="44.12028054096452" lon="12.064273486988585"><ele>64.2</ele><time>2026-04-03T11:28:40.875Z</time></trkpt><trkpt lat="44.12031809743777" lon="12.064152433282029"><ele>64.0</ele><time>2026-04-03T11:28:41.875Z</time></trkpt><trkpt lat="44.120353974115396" lon="12.064023139029375"><ele>63.666666666666664</ele><time>2026-04-03T11:28:42.875Z</time></trkpt><trkpt lat="44.12038749902522" lon="12.063900847992924"><ele>63.33333333333333</ele><time>2026-04-03T11:28:43.875Z</time></trkpt><trkpt lat="44.12042342368936" lon="12.063788112965648"><ele>63.0</ele><time>2026-04-03T11:28:44.875Z</time></trkpt><trkpt lat="44.12046823726898" lon="12.06367767062418"><ele>62.66666666666667</ele><time>2026-04-03T11:28:45.875Z</time></trkpt><trkpt lat="44.12050659303043" lon="12.063571745420079"><ele>62.333333333333336</ele><time>2026-04-03T11:28:46.875Z</time></trkpt><trkpt lat="44.12053875265812" lon="12.063467418387637"><ele>62.0</ele><time>2026-04-03T11:28:47.875Z</time></trkpt><trkpt lat="44.12058010123982" lon="12.063372244108427"><ele>62.0</ele><time>2026-04-03T11:28:48.875Z</time></trkpt><trkpt lat="44.12061425918675" lon="12.063287948754155"><ele>62.00000000000001</ele><time>2026-04-03T11:28:49.875Z</time></trkpt><trkpt lat="44.12065332125896" lon="12.06319407764983"><ele>62.0</ele><time>2026-04-03T11:28:50.875Z</time></trkpt><trkpt lat="44.12068596326342" lon="12.063087697878824"><ele>62.0</ele><time>2026-04-03T11:28:51.875Z</time></trkpt><trkpt lat="44.120715700563295" lon="12.06298571727177"><ele>62.00000000000001</ele><time>2026-04-03T11:28:52.875Z</time></trkpt><trkpt lat="44.120746931924195" lon="12.06290061532515"><ele>62.0</ele><time>2026-04-03T11:28:53.875Z</time></trkpt><trkpt lat="44.12077518493121" lon="12.06281340832067"><ele>62.0</ele><time>2026-04-03T11:28:54.875Z</time></trkpt><trkpt lat="44.12080144900646" lon="12.06272643507155"><ele>61.50000000000001</ele><time>2026-04-03T11:28:55.875Z</time></trkpt><trkpt lat="44.120817283880264" lon="12.06263772740308"><ele>61.0</ele><time>2026-04-03T11:28:56.875Z</time></trkpt><trkpt lat="44.12085997625321" lon="12.062519351424308"><ele>60.5</ele><time>2026-04-03T11:28:58.875Z</time></trkpt><trkpt lat="44.12088402207903" lon="12.062414201648831"><ele>60.0</ele><time>2026-04-03T11:29:01.875Z</time></trkpt><trkpt lat="44.12092805171178" lon="12.06233549354542"><ele>59.50000000000001</ele><time>2026-04-03T11:30:32.871Z</time></trkpt><trkpt lat="44.120947106722426" lon="12.06223561657609"><ele>59.0</ele><time>2026-04-03T11:30:34.871Z</time></trkpt><trkpt lat="44.12095447720915" lon="12.062090070454584"><ele>58.2</ele><time>2026-04-03T11:30:37.871Z</time></trkpt><trkpt lat="44.12103822187378" lon="12.061941719811431"><ele>57.400000000000006</ele><time>2026-04-03T11:30:39.871Z</time></trkpt><trkpt lat="44.12111293361057" lon="12.061884087410185"><ele>56.6</ele><time>2026-04-03T11:30:40.871Z</time></trkpt><trkpt lat="44.12119873257742" lon="12.06182506939761"><ele>55.8</ele><time>2026-04-03T11:30:41.871Z</time></trkpt><trkpt lat="44.121290071192576" lon="12.061757940101325"><ele>55.0</ele><time>2026-04-03T11:30:42.871Z</time></trkpt><trkpt lat="44.121389556012524" lon="12.061691923282819"><ele>54.99999999999999</ele><time>2026-04-03T11:30:43.871Z</time></trkpt><trkpt lat="44.1214828457976" lon="12.061622047980356"><ele>55.0</ele><time>2026-04-03T11:30:44.871Z</time></trkpt><trkpt lat="44.12156971792397" lon="12.061556472660234"><ele>55.0</ele><time>2026-04-03T11:30:45.871Z</time></trkpt><trkpt lat="44.121650627877706" lon="12.061498124953111"><ele>55.0</ele><time>2026-04-03T11:30:46.871Z</time></trkpt><trkpt lat="44.12172457918213" lon="12.061447188600798"><ele>54.99999999999999</ele><time>2026-04-03T11:30:47.871Z</time></trkpt><trkpt lat="44.121787142220974" lon="12.061405462198316"><ele>55.0</ele><time>2026-04-03T11:30:48.871Z</time></trkpt><trkpt lat="44.1218635823692" lon="12.061333597872432"><ele>54.99999999999999</ele><time>2026-04-03T11:30:50.871Z</time></trkpt><trkpt lat="44.12188204523827" lon="12.06124723905746"><ele>55.0</ele><time>2026-04-03T11:30:51.871Z</time></trkpt><trkpt lat="44.12187809668939" lon="12.061151081085928"><ele>55.0</ele><time>2026-04-03T11:30:52.871Z</time></trkpt><trkpt lat="44.12186816682358" lon="12.061048414831534"><ele>55.0</ele><time>2026-04-03T11:30:53.871Z</time></trkpt><trkpt lat="44.121866981140556" lon="12.060938908196176"><ele>54.99999999999999</ele><time>2026-04-03T11:30:54.871Z</time></trkpt><trkpt lat="44.12187573279957" lon="12.060820835085321"><ele>55.0</ele><time>2026-04-03T11:30:55.871Z</time></trkpt><trkpt lat="44.121887822390796" lon="12.06069334197586"><ele>55.83333333333333</ele><time>2026-04-03T11:30:56.871Z</time></trkpt><trkpt lat="44.121900935847094" lon="12.060564401918572"><ele>56.666666666666664</ele><time>2026-04-03T11:30:57.871Z</time></trkpt><trkpt lat="44.1219158616255" lon="12.060446604585417"><ele>57.5</ele><time>2026-04-03T11:30:58.871Z</time></trkpt><trkpt lat="44.12192902743791" lon="12.060342325700244"><ele>58.33333333333333</ele><time>2026-04-03T11:30:59.871Z</time></trkpt><trkpt lat="44.121943236851976" lon="12.060175235432832"><ele>59.166666666666664</ele><time>2026-04-03T11:31:01.871Z</time></trkpt><trkpt lat="44.121907003668944" lon="12.060100631822449"><ele>60.0</ele><time>2026-04-03T11:31:02.871Z</time></trkpt><trkpt lat="44.12183349530385" lon="12.060049475455246"><ele>60.0</ele><time>2026-04-03T11:31:03.871Z</time></trkpt><trkpt lat="44.12174845598153" lon="12.060016275978418"><ele>60.0</ele><time>2026-04-03T11:31:04.871Z</time></trkpt><trkpt lat="44.12164771015422" lon="12.05997984892364"><ele>60.0</ele><time>2026-04-03T11:31:05.871Z</time></trkpt><trkpt lat="44.121549325436135" lon="12.059949541826622"><ele>60.0</ele><time>2026-04-03T11:31:06.871Z</time></trkpt><trkpt lat="44.1214560466256" lon="12.059919406792245"><ele>60.0</ele><time>2026-04-03T11:31:07.871Z</time></trkpt><trkpt lat="44.121361879654515" lon="12.059880938458603"><ele>61.75</ele><time>2026-04-03T11:31:08.871Z</time></trkpt><trkpt lat="44.12125975092182" lon="12.05984103784322"><ele>63.5</ele><time>2026-04-03T11:31:09.871Z</time></trkpt><trkpt lat="44.12115058379475" lon="12.059797613053757"><ele>65.25</ele><time>2026-04-03T11:31:10.871Z</time></trkpt><trkpt lat="44.12103507717881" lon="12.05974957939191"><ele>67.0</ele><time>2026-04-03T11:31:11.871Z</time></trkpt><trkpt lat="44.12091754540428" lon="12.059706177387962"><ele>67.0</ele><time>2026-04-03T11:31:12.871Z</time></trkpt><trkpt lat="44.12080379032761" lon="12.059666853179333"><ele>67.0</ele><time>2026-04-03T11:31:13.871Z</time></trkpt><trkpt lat="44.1206848966596" lon="12.059617816980898"><ele>67.0</ele><time>2026-04-03T11:31:14.871Z</time></trkpt><trkpt lat="44.12056300324503" lon="12.059570440101458"><ele>67.0</ele><time>2026-04-03T11:31:15.871Z</time></trkpt><trkpt lat="44.120442922980864" lon="12.059526876633917"><ele>66.5</ele><time>2026-04-03T11:31:16.871Z</time></trkpt><trkpt lat="44.12032512590808" lon="12.059480751478056"><ele>66.0</ele><time>2026-04-03T11:31:17.871Z</time></trkpt><trkpt lat="44.12020914399357" lon="12.059434492345204"><ele>65.5</ele><time>2026-04-03T11:31:18.871Z</time></trkpt><trkpt lat="44.12009885672845" lon="12.05939042289536"><ele>65.0</ele><time>2026-04-03T11:31:19.871Z</time></trkpt><trkpt lat="44.12000659290766" lon="12.059340392148622"><ele>65.0</ele><time>2026-04-03T11:31:20.871Z</time></trkpt><trkpt lat="44.1199117364411" lon="12.059296732655199"><ele>65.0</ele><time>2026-04-03T11:31:21.871Z</time></trkpt><trkpt lat="44.119818056663746" lon="12.059239706077133"><ele>65.0</ele><time>2026-04-03T11:31:22.871Z</time></trkpt><trkpt lat="44.11972472565433" lon="12.059160740879026"><ele>65.0</ele><time>2026-04-03T11:31:23.871Z</time></trkpt><trkpt lat="44.11963508808416" lon="12.059069230622217"><ele>65.0</ele><time>2026-04-03T11:31:24.871Z</time></trkpt><trkpt lat="44.11956178962711" lon="12.058986761961714"><ele>65.5</ele><time>2026-04-03T11:31:25.871Z</time></trkpt><trkpt lat="44.11950452641642" lon="12.058923257372477"><ele>66.0</ele><time>2026-04-03T11:31:26.871Z</time></trkpt><trkpt lat="44.11944624039786" lon="12.058837777162289"><ele>66.5</ele><time>2026-04-03T11:31:28.871Z</time></trkpt><trkpt lat="44.119477517197566" lon="12.058757380213846"><ele>67.0</ele><time>2026-04-03T11:31:43.868Z</time></trkpt><trkpt lat="44.119535989730494" lon="12.058793083323687"><ele>67.5</ele><time>2026-04-03T11:31:44.868Z</time></trkpt><trkpt lat="44.11961876243506" lon="12.058886735442364"><ele>68.0</ele><time>2026-04-03T11:31:45.868Z</time></trkpt><trkpt lat="44.119705052343754" lon="12.058980281048543"><ele>68.0</ele><time>2026-04-03T11:31:46.868Z</time></trkpt><trkpt lat="44.11979807306393" lon="12.059067192543816"><ele>68.0</ele><time>2026-04-03T11:31:47.868Z</time></trkpt><trkpt lat="44.11990645823597" lon="12.05914679676997"><ele>68.0</ele><time>2026-04-03T11:31:48.868Z</time></trkpt><trkpt lat="44.12002453670037" lon="12.059207089530599"><ele>68.0</ele><time>2026-04-03T11:31:49.868Z</time></trkpt><trkpt lat="44.12014547496531" lon="12.059252634485555"><ele>67.4</ele><time>2026-04-03T11:31:50.868Z</time></trkpt><trkpt lat="44.12026303939534" lon="12.05928458255162"><ele>66.8</ele><time>2026-04-03T11:31:51.868Z</time></trkpt><trkpt lat="44.120374527347884" lon="12.059312019766715"><ele>66.2</ele><time>2026-04-03T11:31:52.868Z</time></trkpt><trkpt lat="44.1204718043752" lon="12.05934109440691"><ele>65.6</ele><time>2026-04-03T11:31:53.868Z</time></trkpt><trkpt lat="44.12055582002924" lon="12.059357250372665"><ele>65.0</ele><time>2026-04-03T11:31:54.868Z</time></trkpt><trkpt lat="44.12061890987112" lon="12.059364201093738"><ele>65.0</ele><time>2026-04-03T11:31:55.868Z</time></trkpt><trkpt lat="44.12068690542921" lon="12.059374519907749"><ele>65.0</ele><time>2026-04-03T11:31:57.868Z</time></trkpt><trkpt lat="44.12076614271435" lon="12.059363834139926"><ele>65.0</ele><time>2026-04-03T11:32:49.868Z</time></trkpt><trkpt lat="44.12088200203056" lon="12.059374421913876"><ele>65.0</ele><time>2026-04-03T11:32:51.868Z</time></trkpt><trkpt lat="44.1209529455147" lon="12.059374846753096"><ele>65.0</ele><time>2026-04-03T11:32:52.868Z</time></trkpt><trkpt lat="44.12103788420046" lon="12.059379374272954"><ele>65.0</ele><time>2026-04-03T11:32:53.868Z</time></trkpt><trkpt lat="44.12112682334521" lon="12.059383772468573"><ele>65.4</ele><time>2026-04-03T11:32:54.868Z</time></trkpt><trkpt lat="44.121222039361136" lon="12.059389833653807"><ele>65.8</ele><time>2026-04-03T11:32:55.868Z</time></trkpt><trkpt lat="44.121314660868016" lon="12.059392260409536"><ele>66.2</ele><time>2026-04-03T11:32:56.868Z</time></trkpt><trkpt lat="44.121405350361094" lon="12.059384470441518"><ele>66.6</ele><time>2026-04-03T11:32:57.868Z</time></trkpt><trkpt lat="44.121500525272495" lon="12.059379138914808"><ele>67.0</ele><time>2026-04-03T11:32:58.868Z</time></trkpt><trkpt lat="44.12159484657063" lon="12.059376690135519"><ele>67.6</ele><time>2026-04-03T11:32:59.868Z</time></trkpt><trkpt lat="44.12168786747749" lon="12.059372636620013"><ele>68.2</ele><time>2026-04-03T11:33:00.868Z</time></trkpt><trkpt lat="44.12178469455639" lon="12.059366302857052"><ele>68.8</ele><time>2026-04-03T11:33:01.868Z</time></trkpt><trkpt lat="44.12188467966617" lon="12.059360872200324"><ele>69.4</ele><time>2026-04-03T11:33:02.868Z</time></trkpt><trkpt lat="44.121987100714996" lon="12.059356250719091"><ele>70.0</ele><time>2026-04-03T11:33:03.868Z</time></trkpt><trkpt lat="44.12210067792768" lon="12.059346702007522"><ele>70.0</ele><time>2026-04-03T11:33:04.868Z</time></trkpt><trkpt lat="44.12222212561091" lon="12.059337309244862"><ele>70.0</ele><time>2026-04-03T11:33:05.868Z</time></trkpt><trkpt lat="44.12235520706272" lon="12.059328072883252"><ele>70.0</ele><time>2026-04-03T11:33:06.868Z</time></trkpt><trkpt lat="44.12248118728255" lon="12.059318918424955"><ele>70.0</ele><time>2026-04-03T11:33:07.868Z</time></trkpt><trkpt lat="44.12259713516769" lon="12.05929641729632"><ele>70.25</ele><time>2026-04-03T11:33:08.868Z</time></trkpt><trkpt lat="44.12271848716945" lon="12.059287812950949"><ele>70.5</ele><time>2026-04-03T11:33:09.868Z</time></trkpt><trkpt lat="44.12284193767314" lon="12.059273601300749"><ele>70.75</ele><time>2026-04-03T11:33:10.868Z</time></trkpt><trkpt lat="44.122959876027295" lon="12.059250130691021"><ele>71.0</ele><time>2026-04-03T11:33:11.868Z</time></trkpt><trkpt lat="44.12307740458508" lon="12.059223652269447"><ele>71.0</ele><time>2026-04-03T11:33:12.868Z</time></trkpt><trkpt lat="44.123188743733785" lon="12.05919458119301"><ele>71.0</ele><time>2026-04-03T11:33:13.868Z</time></trkpt><trkpt lat="44.1233026381318" lon="12.059155926455597"><ele>71.0</ele><time>2026-04-03T11:33:14.868Z</time></trkpt><trkpt lat="44.123420544806386" lon="12.059117780638132"><ele>71.0</ele><time>2026-04-03T11:33:15.868Z</time></trkpt><trkpt lat="44.123546066330604" lon="12.059072649008858"><ele>72.5</ele><time>2026-04-03T11:33:16.868Z</time></trkpt><trkpt lat="44.12368068371915" lon="12.059028554197319"><ele>74.0</ele><time>2026-04-03T11:33:17.868Z</time></trkpt><trkpt lat="44.12382097513532" lon="12.058983416915623"><ele>75.5</ele><time>2026-04-03T11:33:18.868Z</time></trkpt><trkpt lat="44.12396686042533" lon="12.058934999328232"><ele>77.0</ele><time>2026-04-03T11:33:19.868Z</time></trkpt><trkpt lat="44.12411118335843" lon="12.058884524557579"><ele>77.0</ele><time>2026-04-03T11:33:20.868Z</time></trkpt><trkpt lat="44.1242497315866" lon="12.058837306834308"><ele>77.0</ele><time>2026-04-03T11:33:21.868Z</time></trkpt><trkpt lat="44.124392427191246" lon="12.058778451483148"><ele>77.0</ele><time>2026-04-03T11:33:22.868Z</time></trkpt><trkpt lat="44.12454156555135" lon="12.058722951896723"><ele>77.0</ele><time>2026-04-03T11:33:23.868Z</time></trkpt><trkpt lat="44.12469594626607" lon="12.058671397300586"><ele>77.0</ele><time>2026-04-03T11:33:24.868Z</time></trkpt><trkpt lat="44.12484863797019" lon="12.058619221314588"><ele>77.0</ele><time>2026-04-03T11:33:25.868Z</time></trkpt><trkpt lat="44.12515816232027" lon="12.058502260841465"><ele>76.33333333333334</ele><time>2026-04-03T11:33:27.868Z</time></trkpt><trkpt lat="44.12531340891651" lon="12.058457916669209"><ele>75.66666666666667</ele><time>2026-04-03T11:33:28.868Z</time></trkpt><trkpt lat="44.12546347746494" lon="12.058429864249558"><ele>75.0</ele><time>2026-04-03T11:33:29.868Z</time></trkpt><trkpt lat="44.12561593576664" lon="12.058409509093098"><ele>73.5</ele><time>2026-04-03T11:33:30.868Z</time></trkpt><trkpt lat="44.12577121297653" lon="12.058395568466212"><ele>72.0</ele><time>2026-04-03T11:33:31.868Z</time></trkpt><trkpt lat="44.12608412181625" lon="12.058405788202188"><ele>72.0</ele><time>2026-04-03T11:33:33.868Z</time></trkpt><trkpt lat="44.12623287364681" lon="12.058428693027656"><ele>72.0</ele><time>2026-04-03T11:33:34.868Z</time></trkpt><trkpt lat="44.12638852557975" lon="12.058462363357348"><ele>72.0</ele><time>2026-04-03T11:33:35.868Z</time></trkpt><trkpt lat="44.126544816826076" lon="12.058506212550594"><ele>73.0</ele><time>2026-04-03T11:33:36.868Z</time></trkpt><trkpt lat="44.126700511589085" lon="12.058555409188562"><ele>74.0</ele><time>2026-04-03T11:33:37.868Z</time></trkpt><trkpt lat="44.12685856719701" lon="12.058607219897596"><ele>75.0</ele><time>2026-04-03T11:33:38.868Z</time></trkpt><trkpt lat="44.12700602897773" lon="12.05865786376359"><ele>75.0</ele><time>2026-04-03T11:33:39.868Z</time></trkpt><trkpt lat="44.12714412537136" lon="12.058701041299217"><ele>75.0</ele><time>2026-04-03T11:33:40.868Z</time></trkpt><trkpt lat="44.12727669833718" lon="12.05874522973401"><ele>75.0</ele><time>2026-04-03T11:33:41.868Z</time></trkpt><trkpt lat="44.127397407476536" lon="12.058793290221066"><ele>75.0</ele><time>2026-04-03T11:33:42.868Z</time></trkpt><trkpt lat="44.12751364048223" lon="12.058831929300052"><ele>76.2</ele><time>2026-04-03T11:33:43.868Z</time></trkpt><trkpt lat="44.12762176661509" lon="12.058871708200401"><ele>77.4</ele><time>2026-04-03T11:33:44.868Z</time></trkpt><trkpt lat="44.127721972058474" lon="12.05890187238584"><ele>78.6</ele><time>2026-04-03T11:33:45.865Z</time></trkpt><trkpt lat="44.12780367971152" lon="12.058931499695607"><ele>79.8</ele><time>2026-04-03T11:33:46.865Z</time></trkpt><trkpt lat="44.127882748119" lon="12.058958544928672"><ele>81.0</ele><time>2026-04-03T11:33:47.865Z</time></trkpt><trkpt lat="44.1279863476443" lon="12.058918966454554"><ele>81.0</ele><time>2026-04-03T11:33:49.865Z</time></trkpt><trkpt lat="44.12802103110104" lon="12.058787852253932"><ele>81.0</ele><time>2026-04-03T11:33:51.865Z</time></trkpt><trkpt lat="44.127971806248176" lon="12.058639492949876"><ele>81.0</ele><time>2026-04-03T11:33:53.865Z</time></trkpt><trkpt lat="44.127929429034666" lon="12.058565680324367"><ele>81.0</ele><time>2026-04-03T11:33:54.865Z</time></trkpt><trkpt lat="44.12787102928801" lon="12.058469392969974"><ele>81.0</ele><time>2026-04-03T11:33:55.865Z</time></trkpt><trkpt lat="44.12780955737048" lon="12.058352635224537"><ele>85.33333333333333</ele><time>2026-04-03T11:33:56.865Z</time></trkpt><trkpt lat="44.12767649694317" lon="12.058094496477352"><ele>89.66666666666666</ele><time>2026-04-03T11:33:58.864Z</time></trkpt><trkpt lat="44.12760525405736" lon="12.057954613035813"><ele>94.0</ele><time>2026-04-03T11:33:59.864Z</time></trkpt><trkpt lat="44.12753957611682" lon="12.057830041797086"><ele>94.0</ele><time>2026-04-03T11:34:00.864Z</time></trkpt><trkpt lat="44.12746785852244" lon="12.057738572815166"><ele>94.0</ele><time>2026-04-03T11:34:01.864Z</time></trkpt><trkpt lat="44.12737628841135" lon="12.057670464310767"><ele>94.0</ele><time>2026-04-03T11:34:02.864Z</time></trkpt><trkpt lat="44.12726612369779" lon="12.057632345119266"><ele>94.0</ele><time>2026-04-03T11:34:03.864Z</time></trkpt><trkpt lat="44.12714732870711" lon="12.05759995618008"><ele>94.0</ele><time>2026-04-03T11:34:04.864Z</time></trkpt><trkpt lat="44.12702351682323" lon="12.05756354352921"><ele>92.5</ele><time>2026-04-03T11:34:05.864Z</time></trkpt><trkpt lat="44.12689921149005" lon="12.057512382278267"><ele>91.0</ele><time>2026-04-03T11:34:06.864Z</time></trkpt><trkpt lat="44.126784756273466" lon="12.05744180683064"><ele>89.5</ele><time>2026-04-03T11:34:07.864Z</time></trkpt><trkpt lat="44.126682927511055" lon="12.05734852597043"><ele>88.0</ele><time>2026-04-03T11:34:08.864Z</time></trkpt><trkpt lat="44.12659591799259" lon="12.057242336003702"><ele>88.25</ele><time>2026-04-03T11:34:09.864Z</time></trkpt><trkpt lat="44.126518560696816" lon="12.057107964298012"><ele>88.5</ele><time>2026-04-03T11:34:10.864Z</time></trkpt><trkpt lat="44.126448857636284" lon="12.056949369629063"><ele>88.75</ele><time>2026-04-03T11:34:11.864Z</time></trkpt><trkpt lat="44.12639382675153" lon="12.05675694748805"><ele>89.0</ele><time>2026-04-03T11:34:12.864Z</time></trkpt><trkpt lat="44.12634201408093" lon="12.056560244199257"><ele>92.0</ele><time>2026-04-03T11:34:13.864Z</time></trkpt><trkpt lat="44.126286208611006" lon="12.05636320904788"><ele>95.0</ele><time>2026-04-03T11:34:14.864Z</time></trkpt><trkpt lat="44.12622616625478" lon="12.056160336930946"><ele>98.0</ele><time>2026-04-03T11:34:15.864Z</time></trkpt><trkpt lat="44.12616959594506" lon="12.055955170253362"><ele>101.33333333333333</ele><time>2026-04-03T11:34:16.864Z</time></trkpt><trkpt lat="44.12610750530758" lon="12.055747077511496"><ele>104.66666666666666</ele><time>2026-04-03T11:34:17.864Z</time></trkpt><trkpt lat="44.126047470655784" lon="12.055543866323138"><ele>108.0</ele><time>2026-04-03T11:34:18.864Z</time></trkpt><trkpt lat="44.12597772523477" lon="12.05534648581281"><ele>108.0</ele><time>2026-04-03T11:34:19.864Z</time></trkpt><trkpt lat="44.12588831156199" lon="12.055168469174989"><ele>108.0</ele><time>2026-04-03T11:34:20.864Z</time></trkpt><trkpt lat="44.12578532303802" lon="12.055013381675511"><ele>108.0</ele><time>2026-04-03T11:34:21.864Z</time></trkpt><trkpt lat="44.12567564550302" lon="12.05486570500708"><ele>110.25</ele><time>2026-04-03T11:34:22.864Z</time></trkpt><trkpt lat="44.12556059151326" lon="12.05472477323046"><ele>112.5</ele><time>2026-04-03T11:34:23.864Z</time></trkpt><trkpt lat="44.12544614444673" lon="12.054591813721471"><ele>114.75</ele><time>2026-04-03T11:34:24.864Z</time></trkpt><trkpt lat="44.125336418333944" lon="12.054465021324084"><ele>117.0</ele><time>2026-04-03T11:34:25.864Z</time></trkpt><trkpt lat="44.12523337302528" lon="12.054343680387005"><ele>117.0</ele><time>2026-04-03T11:34:26.864Z</time></trkpt><trkpt lat="44.12513383945773" lon="12.05423546648973"><ele>117.0</ele><time>2026-04-03T11:34:27.864Z</time></trkpt><trkpt lat="44.12502374654676" lon="12.054160238139692"><ele>117.0</ele><time>2026-04-03T11:34:28.864Z</time></trkpt><trkpt lat="44.12489391741323" lon="12.054147411431657"><ele>117.0</ele><time>2026-04-03T11:34:29.864Z</time></trkpt><trkpt lat="44.124772278936106" lon="12.05417129826602"><ele>118.75</ele><time>2026-04-03T11:34:30.864Z</time></trkpt><trkpt lat="44.12465893459705" lon="12.054228501349424"><ele>120.5</ele><time>2026-04-03T11:34:31.864Z</time></trkpt><trkpt lat="44.12456507685614" lon="12.0543204816282"><ele>122.25</ele><time>2026-04-03T11:34:32.864Z</time></trkpt><trkpt lat="44.124493345605416" lon="12.054451059051626"><ele>124.0</ele><time>2026-04-03T11:34:33.864Z</time></trkpt><trkpt lat="44.12445046714281" lon="12.054586594950377"><ele>124.0</ele><time>2026-04-03T11:34:34.864Z</time></trkpt><trkpt lat="44.12440000391248" lon="12.05469367951371"><ele>124.0</ele><time>2026-04-03T11:34:35.864Z</time></trkpt><trkpt lat="44.12432800645876" lon="12.054755511034928"><ele>124.0</ele><time>2026-04-03T11:34:36.864Z</time></trkpt><trkpt lat="44.12423146771009" lon="12.05475942538487"><ele>124.0</ele><time>2026-04-03T11:34:37.864Z</time></trkpt><trkpt lat="44.124114449938915" lon="12.054718847914074"><ele>124.0</ele><time>2026-04-03T11:34:38.864Z</time></trkpt><trkpt lat="44.1239918702036" lon="12.054651183006444"><ele>126.0</ele><time>2026-04-03T11:34:39.864Z</time></trkpt><trkpt lat="44.12387044065533" lon="12.054570301588416"><ele>128.0</ele><time>2026-04-03T11:34:40.864Z</time></trkpt><trkpt lat="44.123759324991326" lon="12.054518879265329"><ele>130.0</ele><time>2026-04-03T11:34:41.864Z</time></trkpt><trkpt lat="44.12364470354209" lon="12.054511914341228"><ele>132.0</ele><time>2026-04-03T11:34:42.864Z</time></trkpt><trkpt lat="44.12353597500764" lon="12.054565510874575"><ele>132.0</ele><time>2026-04-03T11:34:43.864Z</time></trkpt><trkpt lat="44.12344162687545" lon="12.054667704328764"><ele>132.0</ele><time>2026-04-03T11:34:44.864Z</time></trkpt><trkpt lat="44.123356422724285" lon="12.054794584233186"><ele>132.0</ele><time>2026-04-03T11:34:45.864Z</time></trkpt><trkpt lat="44.12326500082762" lon="12.054902911779484"><ele>132.0</ele><time>2026-04-03T11:34:46.864Z</time></trkpt><trkpt lat="44.123164896508115" lon="12.054972332129905"><ele>132.4</ele><time>2026-04-03T11:34:47.864Z</time></trkpt><trkpt lat="44.12305675581792" lon="12.054977728402344"><ele>132.79999999999998</ele><time>2026-04-03T11:34:48.864Z</time></trkpt><trkpt lat="44.12295655196198" lon="12.054934847739586"><ele>133.2</ele><time>2026-04-03T11:34:49.864Z</time></trkpt><trkpt lat="44.12286738195277" lon="12.054845968274488"><ele>133.6</ele><time>2026-04-03T11:34:50.864Z</time></trkpt><trkpt lat="44.122795547865834" lon="12.054714724061656"><ele>134.0</ele><time>2026-04-03T11:34:51.864Z</time></trkpt><trkpt lat="44.12273490437009" lon="12.054545551895762"><ele>134.0</ele><time>2026-04-03T11:34:52.864Z</time></trkpt><trkpt lat="44.12265148216941" lon="12.05437629820542"><ele>134.0</ele><time>2026-04-03T11:34:53.864Z</time></trkpt><trkpt lat="44.122548179013314" lon="12.054198708023236"><ele>134.0</ele><time>2026-04-03T11:34:54.864Z</time></trkpt><trkpt lat="44.12243852987029" lon="12.054028276366628"><ele>135.33333333333331</ele><time>2026-04-03T11:34:55.864Z</time></trkpt><trkpt lat="44.122339088707506" lon="12.05383539968587"><ele>136.66666666666666</ele><time>2026-04-03T11:34:56.864Z</time></trkpt><trkpt lat="44.12223249558487" lon="12.053640629928646"><ele>138.0</ele><time>2026-04-03T11:34:57.864Z</time></trkpt><trkpt lat="44.1221296795534" lon="12.053455617324236"><ele>138.66666666666666</ele><time>2026-04-03T11:34:58.864Z</time></trkpt><trkpt lat="44.12203295291635" lon="12.053284225527555"><ele>139.33333333333331</ele><time>2026-04-03T11:34:59.864Z</time></trkpt><trkpt lat="44.121939212686364" lon="12.053110452450147"><ele>140.0</ele><time>2026-04-03T11:35:00.864Z</time></trkpt><trkpt lat="44.12186095285929" lon="12.052928137142526"><ele>140.0</ele><time>2026-04-03T11:35:01.864Z</time></trkpt><trkpt lat="44.121797995304924" lon="12.05272931308129"><ele>140.0</ele><time>2026-04-03T11:35:02.864Z</time></trkpt><trkpt lat="44.12176380939589" lon="12.052517249465037"><ele>140.0</ele><time>2026-04-03T11:35:03.864Z</time></trkpt><trkpt lat="44.1217619590863" lon="12.052282586682475"><ele>140.33333333333331</ele><time>2026-04-03T11:35:04.864Z</time></trkpt><trkpt lat="44.12178382769007" lon="12.05203308906892"><ele>140.66666666666666</ele><time>2026-04-03T11:35:05.864Z</time></trkpt><trkpt lat="44.12180235370882" lon="12.05178687346533"><ele>141.0</ele><time>2026-04-03T11:35:06.864Z</time></trkpt><trkpt lat="44.12182803736725" lon="12.05153748304826"><ele>141.66666666666666</ele><time>2026-04-03T11:35:07.864Z</time></trkpt><trkpt lat="44.121852147482336" lon="12.051295546155"><ele>142.33333333333331</ele><time>2026-04-03T11:35:08.864Z</time></trkpt><trkpt lat="44.12187791976093" lon="12.051061870410537"><ele>143.0</ele><time>2026-04-03T11:35:09.864Z</time></trkpt><trkpt lat="44.121903532366396" lon="12.050825619441458"><ele>143.66666666666666</ele><time>2026-04-03T11:35:10.864Z</time></trkpt><trkpt lat="44.121938876455594" lon="12.050592640895964"><ele>144.33333333333334</ele><time>2026-04-03T11:35:11.864Z</time></trkpt><trkpt lat="44.12199247752146" lon="12.050369733507713"><ele>145.0</ele><time>2026-04-03T11:35:12.864Z</time></trkpt><trkpt lat="44.12207841040597" lon="12.050160764376649"><ele>145.33333333333334</ele><time>2026-04-03T11:35:13.864Z</time></trkpt><trkpt lat="44.12217654906085" lon="12.049955016599647"><ele>145.66666666666666</ele><time>2026-04-03T11:35:14.864Z</time></trkpt><trkpt lat="44.12229061794511" lon="12.049771818369894"><ele>146.0</ele><time>2026-04-03T11:35:15.864Z</time></trkpt><trkpt lat="44.122397749696596" lon="12.049583930941882"><ele>145.0</ele><time>2026-04-03T11:35:16.864Z</time></trkpt><trkpt lat="44.122488407293645" lon="12.049375433245823"><ele>144.0</ele><time>2026-04-03T11:35:17.864Z</time></trkpt><trkpt lat="44.12257619754157" lon="12.04916094238695"><ele>143.0</ele><time>2026-04-03T11:35:18.864Z</time></trkpt><trkpt lat="44.12265227607232" lon="12.048943680248728"><ele>143.0</ele><time>2026-04-03T11:35:19.864Z</time></trkpt><trkpt lat="44.122719276643" lon="12.048735092936228"><ele>143.0</ele><time>2026-04-03T11:35:20.864Z</time></trkpt><trkpt lat="44.12277555436981" lon="12.048533252844434"><ele>143.0</ele><time>2026-04-03T11:35:21.864Z</time></trkpt><trkpt lat="44.1228204057654" lon="12.04833692005553"><ele>143.66666666666666</ele><time>2026-04-03T11:35:22.864Z</time></trkpt><trkpt lat="44.12284789341867" lon="12.048130079429745"><ele>144.33333333333334</ele><time>2026-04-03T11:35:23.864Z</time></trkpt><trkpt lat="44.12285194159584" lon="12.047910282036804"><ele>145.0</ele><time>2026-04-03T11:35:24.864Z</time></trkpt><trkpt lat="44.12281828898211" lon="12.047679233297796"><ele>145.33333333333334</ele><time>2026-04-03T11:35:25.864Z</time></trkpt><trkpt lat="44.12275548971258" lon="12.047449937503725"><ele>145.66666666666666</ele><time>2026-04-03T11:35:26.864Z</time></trkpt><trkpt lat="44.122664785174514" lon="12.047223124947713"><ele>146.0</ele><time>2026-04-03T11:35:27.864Z</time></trkpt><trkpt lat="44.122558126941975" lon="12.04699965208283"><ele>146.0</ele><time>2026-04-03T11:35:28.864Z</time></trkpt><trkpt lat="44.12244915751151" lon="12.04678036323213"><ele>146.0</ele><time>2026-04-03T11:35:29.864Z</time></trkpt><trkpt lat="44.1223489575325" lon="12.046572037378187"><ele>146.0</ele><time>2026-04-03T11:35:30.864Z</time></trkpt><trkpt lat="44.12225292875828" lon="12.046358841357879"><ele>148.33333333333331</ele><time>2026-04-03T11:35:31.864Z</time></trkpt><trkpt lat="44.122169542713515" lon="12.046142944781598"><ele>150.66666666666666</ele><time>2026-04-03T11:35:32.864Z</time></trkpt><trkpt lat="44.12211024396174" lon="12.045923057190514"><ele>153.0</ele><time>2026-04-03T11:35:33.864Z</time></trkpt><trkpt lat="44.122070998212486" lon="12.045708346033523"><ele>153.66666666666666</ele><time>2026-04-03T11:35:34.864Z</time></trkpt><trkpt lat="44.12205078636107" lon="12.045491837302897"><ele>154.33333333333331</ele><time>2026-04-03T11:35:35.864Z</time></trkpt><trkpt lat="44.12205613019571" lon="12.045274743627111"><ele>155.0</ele><time>2026-04-03T11:35:36.864Z</time></trkpt><trkpt lat="44.12208961399096" lon="12.045069308115858"><ele>153.33333333333331</ele><time>2026-04-03T11:35:37.864Z</time></trkpt><trkpt lat="44.122132700641465" lon="12.044864282636533"><ele>151.66666666666666</ele><time>2026-04-03T11:35:38.864Z</time></trkpt><trkpt lat="44.1221770522666" lon="12.044650856241278"><ele>150.0</ele><time>2026-04-03T11:35:39.864Z</time></trkpt><trkpt lat="44.12222721654474" lon="12.044427345652233"><ele>150.0</ele><time>2026-04-03T11:35:40.864Z</time></trkpt><trkpt lat="44.12228319065034" lon="12.044178981817092"><ele>150.0</ele><time>2026-04-03T11:35:41.864Z</time></trkpt><trkpt lat="44.122344370087276" lon="12.043931426191362"><ele>150.0</ele><time>2026-04-03T11:35:42.864Z</time></trkpt><trkpt lat="44.12240542724857" lon="12.043679594746994"><ele>154.33333333333334</ele><time>2026-04-03T11:35:43.864Z</time></trkpt><trkpt lat="44.122457031508574" lon="12.043425495592277"><ele>158.66666666666669</ele><time>2026-04-03T11:35:44.864Z</time></trkpt><trkpt lat="44.122498269886584" lon="12.04316177326937"><ele>163.0</ele><time>2026-04-03T11:35:45.864Z</time></trkpt><trkpt lat="44.12254457825736" lon="12.042907879293795"><ele>163.66666666666669</ele><time>2026-04-03T11:35:46.864Z</time></trkpt><trkpt lat="44.12259569980459" lon="12.042665158107873"><ele>164.33333333333334</ele><time>2026-04-03T11:35:47.864Z</time></trkpt><trkpt lat="44.122647342733536" lon="12.042426215459754"><ele>165.0</ele><time>2026-04-03T11:35:48.864Z</time></trkpt><trkpt lat="44.122694485017114" lon="12.042182717732032"><ele>165.33333333333334</ele><time>2026-04-03T11:35:49.864Z</time></trkpt><trkpt lat="44.12274224971301" lon="12.04193585673451"><ele>165.66666666666669</ele><time>2026-04-03T11:35:50.864Z</time></trkpt><trkpt lat="44.12279006186066" lon="12.041690925884248"><ele>166.0</ele><time>2026-04-03T11:35:51.861Z</time></trkpt><trkpt lat="44.12283367357936" lon="12.041451796248932"><ele>165.33333333333334</ele><time>2026-04-03T11:35:52.861Z</time></trkpt><trkpt lat="44.12288044565186" lon="12.041214799855018"><ele>164.66666666666666</ele><time>2026-04-03T11:35:53.861Z</time></trkpt><trkpt lat="44.122931780670264" lon="12.040982629824985"><ele>164.0</ele><time>2026-04-03T11:35:54.861Z</time></trkpt><trkpt lat="44.12298741358934" lon="12.040749333408854"><ele>162.33333333333331</ele><time>2026-04-03T11:35:55.861Z</time></trkpt><trkpt lat="44.1230500823579" lon="12.040523798691739"><ele>160.66666666666666</ele><time>2026-04-03T11:35:56.861Z</time></trkpt><trkpt lat="44.12312396045032" lon="12.04029814751222"><ele>159.0</ele><time>2026-04-03T11:35:57.861Z</time></trkpt><trkpt lat="44.12320260304458" lon="12.040077018700753"><ele>163.33333333333334</ele><time>2026-04-03T11:35:58.861Z</time></trkpt><trkpt lat="44.12327540166165" lon="12.039852472240025"><ele>167.66666666666669</ele><time>2026-04-03T11:35:59.861Z</time></trkpt><trkpt lat="44.123356541611045" lon="12.039631225207215"><ele>172.0</ele><time>2026-04-03T11:36:00.861Z</time></trkpt><trkpt lat="44.123435098300156" lon="12.039403616485826"><ele>172.0</ele><time>2026-04-03T11:36:01.861Z</time></trkpt><trkpt lat="44.12352432393928" lon="12.039169542014397"><ele>172.0</ele><time>2026-04-03T11:36:02.861Z</time></trkpt><trkpt lat="44.12361905782419" lon="12.038930605850679"><ele>172.0</ele><time>2026-04-03T11:36:03.861Z</time></trkpt><trkpt lat="44.12371334439345" lon="12.038686514597508"><ele>170.0</ele><time>2026-04-03T11:36:04.861Z</time></trkpt><trkpt lat="44.12381289078971" lon="12.03844620310119"><ele>168.0</ele><time>2026-04-03T11:36:05.861Z</time></trkpt><trkpt lat="44.12391206444561" lon="12.03820727159465"><ele>166.0</ele><time>2026-04-03T11:36:06.861Z</time></trkpt><trkpt lat="44.12400287883239" lon="12.037996728807455"><ele>170.66666666666669</ele><time>2026-04-03T11:36:07.861Z</time></trkpt><trkpt lat="44.124091930495105" lon="12.037814494378098"><ele>175.33333333333334</ele><time>2026-04-03T11:36:08.861Z</time></trkpt><trkpt lat="44.124192856091376" lon="12.037648197804037"><ele>180.0</ele><time>2026-04-03T11:36:09.861Z</time></trkpt><trkpt lat="44.12431140049586" lon="12.037496782072832"><ele>179.0</ele><time>2026-04-03T11:36:10.861Z</time></trkpt><trkpt lat="44.124442836457035" lon="12.037344218185911"><ele>178.0</ele><time>2026-04-03T11:36:11.861Z</time></trkpt><trkpt lat="44.12458310457089" lon="12.037180969122009"><ele>177.0</ele><time>2026-04-03T11:36:12.861Z</time></trkpt><trkpt lat="44.124724740393745" lon="12.037026601932585"><ele>177.0</ele><time>2026-04-03T11:36:13.861Z</time></trkpt><trkpt lat="44.12486338463512" lon="12.03687405947074"><ele>177.0</ele><time>2026-04-03T11:36:14.861Z</time></trkpt><trkpt lat="44.124991664079225" lon="12.036723986464755"><ele>177.0</ele><time>2026-04-03T11:36:15.861Z</time></trkpt><trkpt lat="44.12511890413292" lon="12.036586962152578"><ele>183.33333333333331</ele><time>2026-04-03T11:36:16.861Z</time></trkpt><trkpt lat="44.12526515242075" lon="12.036455845151128"><ele>189.66666666666666</ele><time>2026-04-03T11:36:17.861Z</time></trkpt><trkpt lat="44.1254308459656" lon="12.036340287710543"><ele>196.0</ele><time>2026-04-03T11:36:18.861Z</time></trkpt><trkpt lat="44.12560099696309" lon="12.036230237655474"><ele>198.0</ele><time>2026-04-03T11:36:19.861Z</time></trkpt><trkpt lat="44.12577623011221" lon="12.036125741957875"><ele>200.0</ele><time>2026-04-03T11:36:20.861Z</time></trkpt><trkpt lat="44.12594712682865" lon="12.03601220182313"><ele>202.0</ele><time>2026-04-03T11:36:21.861Z</time></trkpt><trkpt lat="44.126112882100415" lon="12.035885385934334"><ele>204.33333333333331</ele><time>2026-04-03T11:36:22.861Z</time></trkpt><trkpt lat="44.12627521902445" lon="12.035733820587911"><ele>206.66666666666669</ele><time>2026-04-03T11:36:23.861Z</time></trkpt><trkpt lat="44.126427720084166" lon="12.035584523542132"><ele>209.0</ele><time>2026-04-03T11:36:24.861Z</time></trkpt><trkpt lat="44.12657875088892" lon="12.035433544738545"><ele>209.0</ele><time>2026-04-03T11:36:25.861Z</time></trkpt><trkpt lat="44.126736142749785" lon="12.035278889921438"><ele>209.0</ele><time>2026-04-03T11:36:26.861Z</time></trkpt><trkpt lat="44.126899567193696" lon="12.03512526854115"><ele>209.0</ele><time>2026-04-03T11:36:27.861Z</time></trkpt><trkpt lat="44.12706081070978" lon="12.03496878808553"><ele>211.0</ele><time>2026-04-03T11:36:28.861Z</time></trkpt><trkpt lat="44.12721884032176" lon="12.034804868728667"><ele>213.0</ele><time>2026-04-03T11:36:29.861Z</time></trkpt><trkpt lat="44.12736289576612" lon="12.034649032642779"><ele>215.0</ele><time>2026-04-03T11:36:30.861Z</time></trkpt><trkpt lat="44.127495952791314" lon="12.034518969181356"><ele>215.0</ele><time>2026-04-03T11:36:31.861Z</time></trkpt><trkpt lat="44.12763410412128" lon="12.034421569011457"><ele>215.0</ele><time>2026-04-03T11:36:32.861Z</time></trkpt><trkpt lat="44.127784636822476" lon="12.034335628710254"><ele>215.0</ele><time>2026-04-03T11:36:33.861Z</time></trkpt><trkpt lat="44.12794784933415" lon="12.034271839467278"><ele>215.0</ele><time>2026-04-03T11:36:34.861Z</time></trkpt><trkpt lat="44.12809725300641" lon="12.034206365941198"><ele>215.0</ele><time>2026-04-03T11:36:35.861Z</time></trkpt><trkpt lat="44.1282407941511" lon="12.034154435062986"><ele>215.0</ele><time>2026-04-03T11:36:36.861Z</time></trkpt><trkpt lat="44.12837051692019" lon="12.034115187676468"><ele>215.0</ele><time>2026-04-03T11:36:37.861Z</time></trkpt><trkpt lat="44.128491124138485" lon="12.034082943456477"><ele>217.0</ele><time>2026-04-03T11:36:38.861Z</time></trkpt><trkpt lat="44.128599750512684" lon="12.034062193259262"><ele>219.0</ele><time>2026-04-03T11:36:39.861Z</time></trkpt><trkpt lat="44.128695728351175" lon="12.034053566933537"><ele>221.0</ele><time>2026-04-03T11:36:40.861Z</time></trkpt><trkpt lat="44.12879579503111" lon="12.03402943651518"><ele>223.0</ele><time>2026-04-03T11:36:41.861Z</time></trkpt><trkpt lat="44.12886313879578" lon="12.033966650713664"><ele>225.0</ele><time>2026-04-03T11:36:42.861Z</time></trkpt><trkpt lat="44.128886990499915" lon="12.033864210769252"><ele>225.0</ele><time>2026-04-03T11:36:43.861Z</time></trkpt><trkpt lat="44.128869263356485" lon="12.033753072996323"><ele>225.0</ele><time>2026-04-03T11:36:44.861Z</time></trkpt><trkpt lat="44.12881610864974" lon="12.033656366191828"><ele>225.0</ele><time>2026-04-03T11:36:45.861Z</time></trkpt><trkpt lat="44.12873576729251" lon="12.033590852701634"><ele>225.0</ele><time>2026-04-03T11:36:46.861Z</time></trkpt><trkpt lat="44.128634106593495" lon="12.033554264012293"><ele>225.0</ele><time>2026-04-03T11:36:47.861Z</time></trkpt><trkpt lat="44.12851660457713" lon="12.033509815301958"><ele>225.0</ele><time>2026-04-03T11:36:48.861Z</time></trkpt><trkpt lat="44.128384829489" lon="12.03344208516323"><ele>225.0</ele><time>2026-04-03T11:36:49.861Z</time></trkpt><trkpt lat="44.1282423667681" lon="12.033358237334319"><ele>225.0</ele><time>2026-04-03T11:36:50.861Z</time></trkpt><trkpt lat="44.12809286460858" lon="12.033251479992325"><ele>228.33333333333331</ele><time>2026-04-03T11:36:51.861Z</time></trkpt><trkpt lat="44.12794214772263" lon="12.033132242313165"><ele>231.66666666666666</ele><time>2026-04-03T11:36:52.861Z</time></trkpt><trkpt lat="44.12778193068204" lon="12.033006329338429"><ele>235.0</ele><time>2026-04-03T11:36:53.861Z</time></trkpt><trkpt lat="44.127622638687605" lon="12.032876414632975"><ele>235.0</ele><time>2026-04-03T11:36:54.861Z</time></trkpt><trkpt lat="44.1274636812484" lon="12.032747277321297"><ele>235.0</ele><time>2026-04-03T11:36:55.861Z</time></trkpt><trkpt lat="44.12731559465405" lon="12.032622002308099"><ele>235.0</ele><time>2026-04-03T11:36:56.861Z</time></trkpt><trkpt lat="44.12717564363237" lon="12.032516680423933"><ele>238.0</ele><time>2026-04-03T11:36:57.861Z</time></trkpt><trkpt lat="44.127028624576646" lon="12.032423847491053"><ele>241.0</ele><time>2026-04-03T11:36:58.861Z</time></trkpt><trkpt lat="44.12687404949337" lon="12.032379688251735"><ele>244.0</ele><time>2026-04-03T11:36:59.861Z</time></trkpt><trkpt lat="44.126711563749055" lon="12.032365014500366"><ele>243.33333333333331</ele><time>2026-04-03T11:37:00.861Z</time></trkpt><trkpt lat="44.12655000916593" lon="12.032365857811488"><ele>242.66666666666669</ele><time>2026-04-03T11:37:01.861Z</time></trkpt><trkpt lat="44.12639349623623" lon="12.03236414464355"><ele>242.0</ele><time>2026-04-03T11:37:02.86Z</time></trkpt><trkpt lat="44.12625849874007" lon="12.03235386178851"><ele>242.0</ele><time>2026-04-03T11:37:03.86Z</time></trkpt><trkpt lat="44.126138908149336" lon="12.032331951867713"><ele>242.0</ele><time>2026-04-03T11:37:04.86Z</time></trkpt><trkpt lat="44.12602562065924" lon="12.03228303070178"><ele>242.0</ele><time>2026-04-03T11:37:05.86Z</time></trkpt><trkpt lat="44.125931054051065" lon="12.032202903630276"><ele>242.0</ele><time>2026-04-03T11:37:06.86Z</time></trkpt><trkpt lat="44.125850724251634" lon="12.032080789249068"><ele>242.0</ele><time>2026-04-03T11:37:07.86Z</time></trkpt><trkpt lat="44.1257964647032" lon="12.031938023013497"><ele>242.0</ele><time>2026-04-03T11:37:08.86Z</time></trkpt><trkpt lat="44.12577616845015" lon="12.031777399369691"><ele>242.0</ele><time>2026-04-03T11:37:09.86Z</time></trkpt><trkpt lat="44.12578697089835" lon="12.031586647840735"><ele>242.0</ele><time>2026-04-03T11:37:10.86Z</time></trkpt><trkpt lat="44.12580410146417" lon="12.031377983138814"><ele>243.66666666666669</ele><time>2026-04-03T11:37:11.86Z</time></trkpt><trkpt lat="44.125823683300794" lon="12.031166077974472"><ele>245.33333333333331</ele><time>2026-04-03T11:37:12.86Z</time></trkpt><trkpt lat="44.12585417426385" lon="12.030923226568465"><ele>247.0</ele><time>2026-04-03T11:37:13.86Z</time></trkpt><trkpt lat="44.12588990837471" lon="12.030686767178315"><ele>247.33333333333331</ele><time>2026-04-03T11:37:14.86Z</time></trkpt><trkpt lat="44.12591511570656" lon="12.030454711490467"><ele>247.66666666666669</ele><time>2026-04-03T11:37:15.86Z</time></trkpt><trkpt lat="44.12594387342108" lon="12.030225068021696"><ele>248.0</ele><time>2026-04-03T11:37:16.86Z</time></trkpt><trkpt lat="44.12597175690599" lon="12.029984236218402"><ele>247.66666666666669</ele><time>2026-04-03T11:37:17.86Z</time></trkpt><trkpt lat="44.126003394906384" lon="12.029744048678763"><ele>247.33333333333331</ele><time>2026-04-03T11:37:18.86Z</time></trkpt><trkpt lat="44.126032541918384" lon="12.029506233868041"><ele>247.0</ele><time>2026-04-03T11:37:19.86Z</time></trkpt><trkpt lat="44.12605196835638" lon="12.029288104560013"><ele>247.66666666666666</ele><time>2026-04-03T11:37:20.86Z</time></trkpt><trkpt lat="44.12606552698419" lon="12.029080476850105"><ele>248.33333333333331</ele><time>2026-04-03T11:37:21.86Z</time></trkpt><trkpt lat="44.126063732815794" lon="12.028871002323195"><ele>249.0</ele><time>2026-04-03T11:37:22.86Z</time></trkpt><trkpt lat="44.12604805558527" lon="12.02864713921681"><ele>249.0</ele><time>2026-04-03T11:37:23.86Z</time></trkpt><trkpt lat="44.12600525250641" lon="12.028420122157204"><ele>249.0</ele><time>2026-04-03T11:37:24.86Z</time></trkpt><trkpt lat="44.125946101022336" lon="12.02818822370597"><ele>249.0</ele><time>2026-04-03T11:37:25.86Z</time></trkpt><trkpt lat="44.12587038919183" lon="12.027960454512794"><ele>250.33333333333331</ele><time>2026-04-03T11:37:26.86Z</time></trkpt><trkpt lat="44.125799014849804" lon="12.027729702018226"><ele>251.66666666666666</ele><time>2026-04-03T11:37:27.86Z</time></trkpt><trkpt lat="44.125738399685794" lon="12.027507258904848"><ele>253.0</ele><time>2026-04-03T11:37:28.86Z</time></trkpt><trkpt lat="44.12565634875222" lon="12.027284351571796"><ele>253.0</ele><time>2026-04-03T11:37:29.86Z</time></trkpt><trkpt lat="44.12556755134922" lon="12.027076601120053"><ele>253.0</ele><time>2026-04-03T11:37:30.86Z</time></trkpt><trkpt lat="44.12546904749097" lon="12.026876523425363"><ele>253.0</ele><time>2026-04-03T11:37:31.86Z</time></trkpt><trkpt lat="44.12537665830389" lon="12.026684300819792"><ele>255.33333333333331</ele><time>2026-04-03T11:37:32.86Z</time></trkpt><trkpt lat="44.12528213721528" lon="12.026509892100968"><ele>257.6666666666667</ele><time>2026-04-03T11:37:33.86Z</time></trkpt><trkpt lat="44.125188778779474" lon="12.026346123552997"><ele>260.0</ele><time>2026-04-03T11:37:34.86Z</time></trkpt><trkpt lat="44.12510127933761" lon="12.026180324957458"><ele>260.0</ele><time>2026-04-03T11:37:35.86Z</time></trkpt><trkpt lat="44.12502502913494" lon="12.02599688694221"><ele>260.0</ele><time>2026-04-03T11:37:36.86Z</time></trkpt><trkpt lat="44.1249444080195" lon="12.025795369057999"><ele>260.0</ele><time>2026-04-03T11:37:37.86Z</time></trkpt><trkpt lat="44.12487068710347" lon="12.0255708386096"><ele>259.33333333333337</ele><time>2026-04-03T11:37:38.86Z</time></trkpt><trkpt lat="44.12480192501725" lon="12.025337202600662"><ele>258.6666666666667</ele><time>2026-04-03T11:37:39.86Z</time></trkpt><trkpt lat="44.124733581550856" lon="12.02510284552124"><ele>258.0</ele><time>2026-04-03T11:37:40.86Z</time></trkpt><trkpt lat="44.12466840340684" lon="12.024868246243788"><ele>261.3333333333333</ele><time>2026-04-03T11:37:41.86Z</time></trkpt><trkpt lat="44.12459977815489" lon="12.024631463675949"><ele>264.66666666666663</ele><time>2026-04-03T11:37:42.86Z</time></trkpt><trkpt lat="44.12453000381083" lon="12.02438917501981"><ele>268.0</ele><time>2026-04-03T11:37:43.86Z</time></trkpt><trkpt lat="44.12446497832521" lon="12.024157118257959"><ele>270.0</ele><time>2026-04-03T11:37:44.86Z</time></trkpt><trkpt lat="44.12439885569778" lon="12.023913494652945"><ele>272.0</ele><time>2026-04-03T11:37:45.86Z</time></trkpt><trkpt lat="44.124344001515915" lon="12.023684850096764"><ele>274.0</ele><time>2026-04-03T11:37:46.86Z</time></trkpt><trkpt lat="44.124281971789195" lon="12.02345028167673"><ele>275.3333333333333</ele><time>2026-04-03T11:37:47.86Z</time></trkpt><trkpt lat="44.124217024401155" lon="12.023203539158576"><ele>276.6666666666667</ele><time>2026-04-03T11:37:48.86Z</time></trkpt><trkpt lat="44.124141211084826" lon="12.02295616397861"><ele>278.0</ele><time>2026-04-03T11:37:49.86Z</time></trkpt><trkpt lat="44.12406319168857" lon="12.022709402072739"><ele>277.33333333333337</ele><time>2026-04-03T11:37:50.86Z</time></trkpt><trkpt lat="44.12398231122408" lon="12.022467495296128"><ele>276.6666666666667</ele><time>2026-04-03T11:37:51.86Z</time></trkpt><trkpt lat="44.123905874583244" lon="12.022237177500434"><ele>276.0</ele><time>2026-04-03T11:37:52.86Z</time></trkpt><trkpt lat="44.123825290650885" lon="12.022019088960235"><ele>276.0</ele><time>2026-04-03T11:37:53.86Z</time></trkpt><trkpt lat="44.12374480258396" lon="12.021808134287797"><ele>276.0</ele><time>2026-04-03T11:37:54.86Z</time></trkpt><trkpt lat="44.1236642446484" lon="12.021600062145172"><ele>276.0</ele><time>2026-04-03T11:37:55.86Z</time></trkpt><trkpt lat="44.12358667742158" lon="12.021396890353818"><ele>276.0</ele><time>2026-04-03T11:37:56.86Z</time></trkpt><trkpt lat="44.12351651536502" lon="12.021214820832265"><ele>276.0</ele><time>2026-04-03T11:37:57.857Z</time></trkpt><trkpt lat="44.12343960419635" lon="12.021047025876884"><ele>276.0</ele><time>2026-04-03T11:37:58.857Z</time></trkpt><trkpt lat="44.12334552040341" lon="12.020881617740505"><ele>276.0</ele><time>2026-04-03T11:37:59.857Z</time></trkpt><trkpt lat="44.12323310896038" lon="12.020704629990316"><ele>275.0</ele><time>2026-04-03T11:38:00.857Z</time></trkpt><trkpt lat="44.12310771198293" lon="12.020526280726578"><ele>274.0</ele><time>2026-04-03T11:38:01.857Z</time></trkpt><trkpt lat="44.12297208338874" lon="12.020331803323991"><ele>273.0</ele><time>2026-04-03T11:38:02.857Z</time></trkpt><trkpt lat="44.12283884581786" lon="12.020134351965103"><ele>272.6666666666667</ele><time>2026-04-03T11:38:03.857Z</time></trkpt><trkpt lat="44.1227058518745" lon="12.019942725487695"><ele>272.33333333333337</ele><time>2026-04-03T11:38:04.857Z</time></trkpt><trkpt lat="44.12257325780698" lon="12.019748295122424"><ele>272.0</ele><time>2026-04-03T11:38:05.857Z</time></trkpt><trkpt lat="44.12244289559423" lon="12.019546688099183"><ele>271.6666666666667</ele><time>2026-04-03T11:38:06.857Z</time></trkpt><trkpt lat="44.12231562942234" lon="12.019353363526406"><ele>271.3333333333333</ele><time>2026-04-03T11:38:07.857Z</time></trkpt><trkpt lat="44.12219189185267" lon="12.019162005460121"><ele>271.0</ele><time>2026-04-03T11:38:08.857Z</time></trkpt><trkpt lat="44.12207543574119" lon="12.018974511932546"><ele>273.3333333333333</ele><time>2026-04-03T11:38:09.857Z</time></trkpt><trkpt lat="44.121960897614755" lon="12.01880159079228"><ele>275.6666666666667</ele><time>2026-04-03T11:38:10.856Z</time></trkpt><trkpt lat="44.121843853900955" lon="12.01865532942353"><ele>278.0</ele><time>2026-04-03T11:38:11.856Z</time></trkpt><trkpt lat="44.12170611927349" lon="12.01853211866893"><ele>278.0</ele><time>2026-04-03T11:38:12.856Z</time></trkpt><trkpt lat="44.121545662410384" lon="12.018429742229827"><ele>278.0</ele><time>2026-04-03T11:38:13.856Z</time></trkpt><trkpt lat="44.12136992459895" lon="12.018346923592636"><ele>278.0</ele><time>2026-04-03T11:38:14.856Z</time></trkpt><trkpt lat="44.12118446204533" lon="12.018259082190166"><ele>278.0</ele><time>2026-04-03T11:38:15.856Z</time></trkpt><trkpt lat="44.12100250854098" lon="12.01815050118462"><ele>278.0</ele><time>2026-04-03T11:38:16.856Z</time></trkpt><trkpt lat="44.12082336200186" lon="12.018028896481876"><ele>278.0</ele><time>2026-04-03T11:38:17.856Z</time></trkpt><trkpt lat="44.12064305822418" lon="12.017910399753687"><ele>277.0</ele><time>2026-04-03T11:38:18.856Z</time></trkpt><trkpt lat="44.12046057597657" lon="12.01779125823867"><ele>276.0</ele><time>2026-04-03T11:38:19.856Z</time></trkpt><trkpt lat="44.120277883331376" lon="12.017677659710033"><ele>275.0</ele><time>2026-04-03T11:38:20.856Z</time></trkpt><trkpt lat="44.12010974440977" lon="12.01757384055866"><ele>273.0</ele><time>2026-04-03T11:38:21.856Z</time></trkpt><trkpt lat="44.11994512251634" lon="12.017480028529318"><ele>271.0</ele><time>2026-04-03T11:38:22.856Z</time></trkpt><trkpt lat="44.119794115839916" lon="12.017387610167136"><ele>269.0</ele><time>2026-04-03T11:38:23.856Z</time></trkpt><trkpt lat="44.11965696252418" lon="12.017293903580505"><ele>272.75</ele><time>2026-04-03T11:38:24.856Z</time></trkpt><trkpt lat="44.119539960751645" lon="12.017200101462068"><ele>276.5</ele><time>2026-04-03T11:38:25.856Z</time></trkpt><trkpt lat="44.119425529177704" lon="12.017098875251309"><ele>280.25</ele><time>2026-04-03T11:38:26.856Z</time></trkpt><trkpt lat="44.1193329871412" lon="12.016963041255048"><ele>284.0</ele><time>2026-04-03T11:38:27.856Z</time></trkpt><trkpt lat="44.11925982325166" lon="12.016787260182538"><ele>284.25</ele><time>2026-04-03T11:38:28.856Z</time></trkpt><trkpt lat="44.11920937545315" lon="12.016588876995923"><ele>284.5</ele><time>2026-04-03T11:38:29.856Z</time></trkpt><trkpt lat="44.11915913829474" lon="12.016417949884051"><ele>284.75</ele><time>2026-04-03T11:38:30.856Z</time></trkpt><trkpt lat="44.1190861257029" lon="12.01625570575719"><ele>285.0</ele><time>2026-04-03T11:38:31.856Z</time></trkpt><trkpt lat="44.11897508173613" lon="12.016108986398807"><ele>289.3333333333333</ele><time>2026-04-03T11:38:32.856Z</time></trkpt><trkpt lat="44.11884050600929" lon="12.015977296676816"><ele>293.66666666666663</ele><time>2026-04-03T11:38:33.856Z</time></trkpt><trkpt lat="44.11869731899443" lon="12.015841122585607"><ele>298.0</ele><time>2026-04-03T11:38:34.856Z</time></trkpt><trkpt lat="44.118547301836166" lon="12.015693456775045"><ele>298.0</ele><time>2026-04-03T11:38:35.856Z</time></trkpt><trkpt lat="44.11839356287324" lon="12.015535631091984"><ele>298.0</ele><time>2026-04-03T11:38:36.856Z</time></trkpt><trkpt lat="44.118250778815" lon="12.015389235486998"><ele>298.0</ele><time>2026-04-03T11:38:37.856Z</time></trkpt><trkpt lat="44.118126644801364" lon="12.015257329850334"><ele>301.75</ele><time>2026-04-03T11:38:38.856Z</time></trkpt><trkpt lat="44.11801866855946" lon="12.015140478871823"><ele>305.5</ele><time>2026-04-03T11:38:39.856Z</time></trkpt><trkpt lat="44.11792292071486" lon="12.015056995656513"><ele>309.25</ele><time>2026-04-03T11:38:40.856Z</time></trkpt><trkpt lat="44.117819561902735" lon="12.015034328001859"><ele>313.0</ele><time>2026-04-03T11:38:41.856Z</time></trkpt><trkpt lat="44.1177137033426" lon="12.015068835755192"><ele>313.0</ele><time>2026-04-03T11:38:42.856Z</time></trkpt><trkpt lat="44.11761468957079" lon="12.015163603043035"><ele>313.0</ele><time>2026-04-03T11:38:43.856Z</time></trkpt><trkpt lat="44.11751216263658" lon="12.015270347501541"><ele>313.0</ele><time>2026-04-03T11:38:44.856Z</time></trkpt><trkpt lat="44.11740168631689" lon="12.015391350116213"><ele>313.0</ele><time>2026-04-03T11:38:45.856Z</time></trkpt><trkpt lat="44.11728364327257" lon="12.015511641969399"><ele>313.5</ele><time>2026-04-03T11:38:46.856Z</time></trkpt><trkpt lat="44.11717869979767" lon="12.015619549682492"><ele>314.0</ele><time>2026-04-03T11:38:47.856Z</time></trkpt><trkpt lat="44.117089766529006" lon="12.015715677629764"><ele>314.5</ele><time>2026-04-03T11:38:48.856Z</time></trkpt><trkpt lat="44.11699519723161" lon="12.015787179573586"><ele>315.0</ele><time>2026-04-03T11:38:49.856Z</time></trkpt><trkpt lat="44.116888794717056" lon="12.01582185723"><ele>317.25</ele><time>2026-04-03T11:38:50.856Z</time></trkpt><trkpt lat="44.11677548156161" lon="12.015816427247044"><ele>319.5</ele><time>2026-04-03T11:38:51.856Z</time></trkpt><trkpt lat="44.11665841204806" lon="12.015758879189084"><ele>321.75</ele><time>2026-04-03T11:38:52.856Z</time></trkpt><trkpt lat="44.11654247979847" lon="12.015670707002709"><ele>324.0</ele><time>2026-04-03T11:38:53.856Z</time></trkpt><trkpt lat="44.11641533880742" lon="12.015545674506345"><ele>324.0</ele><time>2026-04-03T11:38:54.856Z</time></trkpt><trkpt lat="44.116275510659726" lon="12.01541011571887"><ele>324.0</ele><time>2026-04-03T11:38:55.856Z</time></trkpt><trkpt lat="44.11613016774887" lon="12.01524512050756"><ele>324.0</ele><time>2026-04-03T11:38:56.856Z</time></trkpt><trkpt lat="44.11598302143024" lon="12.01509554240724"><ele>325.6666666666667</ele><time>2026-04-03T11:38:57.856Z</time></trkpt><trkpt lat="44.11582707618333" lon="12.014929553174555"><ele>327.33333333333337</ele><time>2026-04-03T11:38:58.856Z</time></trkpt><trkpt lat="44.115672151376465" lon="12.014769606509555"><ele>329.0</ele><time>2026-04-03T11:38:59.856Z</time></trkpt><trkpt lat="44.1155144297267" lon="12.014620404364052"><ele>330.33333333333337</ele><time>2026-04-03T11:39:00.856Z</time></trkpt><trkpt lat="44.11536452807776" lon="12.014478768299254"><ele>331.6666666666667</ele><time>2026-04-03T11:39:01.856Z</time></trkpt><trkpt lat="44.11523062237396" lon="12.014342736580485"><ele>333.0</ele><time>2026-04-03T11:39:02.856Z</time></trkpt><trkpt lat="44.11509982658476" lon="12.014220345865997"><ele>333.75</ele><time>2026-04-03T11:39:03.856Z</time></trkpt><trkpt lat="44.114991579555" lon="12.014107780645952"><ele>334.5</ele><time>2026-04-03T11:39:04.856Z</time></trkpt><trkpt lat="44.11489545313055" lon="12.013996685594407"><ele>335.25</ele><time>2026-04-03T11:39:05.856Z</time></trkpt><trkpt lat="44.11481994296555" lon="12.013883368360267"><ele>336.0</ele><time>2026-04-03T11:39:06.856Z</time></trkpt><trkpt lat="44.11476521501369" lon="12.01375358116288"><ele>339.5</ele><time>2026-04-03T11:39:07.856Z</time></trkpt><trkpt lat="44.11472999338601" lon="12.013599592128402"><ele>343.0</ele><time>2026-04-03T11:39:08.856Z</time></trkpt><trkpt lat="44.11470495485404" lon="12.013420153614852"><ele>346.5</ele><time>2026-04-03T11:39:09.856Z</time></trkpt><trkpt lat="44.11467537799178" lon="12.013228657978829"><ele>350.0</ele><time>2026-04-03T11:39:10.856Z</time></trkpt><trkpt lat="44.11464136057093" lon="12.013014971065697"><ele>350.0</ele><time>2026-04-03T11:39:11.856Z</time></trkpt><trkpt lat="44.1146064564198" lon="12.012785890399828"><ele>350.0</ele><time>2026-04-03T11:39:12.856Z</time></trkpt><trkpt lat="44.1145736864401" lon="12.012560105509303"><ele>350.0</ele><time>2026-04-03T11:39:13.856Z</time></trkpt><trkpt lat="44.11454487791792" lon="12.012347225872455"><ele>348.75</ele><time>2026-04-03T11:39:14.856Z</time></trkpt><trkpt lat="44.114519053834606" lon="12.0121489202148"><ele>347.5</ele><time>2026-04-03T11:39:15.856Z</time></trkpt><trkpt lat="44.11449051939787" lon="12.011968906288514"><ele>346.25</ele><time>2026-04-03T11:39:16.856Z</time></trkpt><trkpt lat="44.11446765232195" lon="12.011805761181252"><ele>345.0</ele><time>2026-04-03T11:39:17.856Z</time></trkpt><trkpt lat="44.11443150577588" lon="12.011660262928462"><ele>344.0</ele><time>2026-04-03T11:39:18.856Z</time></trkpt><trkpt lat="44.11437113094846" lon="12.011568393734402"><ele>343.0</ele><time>2026-04-03T11:39:19.856Z</time></trkpt><trkpt lat="44.11429422229063" lon="12.011516050726126"><ele>342.0</ele><time>2026-04-03T11:39:20.856Z</time></trkpt><trkpt lat="44.11420602933216" lon="12.011521448412715"><ele>341.0</ele><time>2026-04-03T11:39:21.856Z</time></trkpt><trkpt lat="44.114116917399386" lon="12.011558623592652"><ele>340.0</ele><time>2026-04-03T11:39:22.856Z</time></trkpt><trkpt lat="44.11402945802069" lon="12.011598937666298"><ele>339.0</ele><time>2026-04-03T11:39:23.856Z</time></trkpt><trkpt lat="44.11393349793779" lon="12.011610751071691"><ele>341.5</ele><time>2026-04-03T11:39:24.856Z</time></trkpt><trkpt lat="44.11384567166991" lon="12.011577889060066"><ele>344.0</ele><time>2026-04-03T11:39:25.856Z</time></trkpt><trkpt lat="44.11377405207353" lon="12.011522513575924"><ele>346.5</ele><time>2026-04-03T11:39:26.856Z</time></trkpt><trkpt lat="44.113713493800994" lon="12.011430779651159"><ele>349.0</ele><time>2026-04-03T11:39:27.856Z</time></trkpt><trkpt lat="44.11369127231589" lon="12.01133410671876"><ele>351.5</ele><time>2026-04-03T11:39:28.856Z</time></trkpt><trkpt lat="44.11369608503556" lon="12.0112439396726"><ele>354.0</ele><time>2026-04-03T11:39:29.856Z</time></trkpt><trkpt lat="44.113709941189576" lon="12.011158043363187"><ele>354.0</ele><time>2026-04-03T11:39:30.856Z</time></trkpt><trkpt lat="44.11373482844826" lon="12.010989908642497"><ele>354.0</ele><time>2026-04-03T11:39:32.856Z</time></trkpt><trkpt lat="44.113755820272665" lon="12.010901889389856"><ele>354.0</ele><time>2026-04-03T11:39:33.856Z</time></trkpt><trkpt lat="44.11377537559158" lon="12.01078667659351"><ele>354.0</ele><time>2026-04-03T11:39:34.856Z</time></trkpt><trkpt lat="44.11379675699386" lon="12.01067941842888"><ele>354.0</ele><time>2026-04-03T11:39:35.856Z</time></trkpt><trkpt lat="44.11379939572326" lon="12.010561939024074"><ele>354.0</ele><time>2026-04-03T11:39:36.856Z</time></trkpt><trkpt lat="44.11376758890648" lon="12.01045586561659"><ele>354.2</ele><time>2026-04-03T11:39:37.856Z</time></trkpt><trkpt lat="44.11368879872036" lon="12.010339764607195"><ele>354.4</ele><time>2026-04-03T11:39:38.856Z</time></trkpt><trkpt lat="44.11358566158232" lon="12.010247147287288"><ele>354.6</ele><time>2026-04-03T11:39:39.856Z</time></trkpt><trkpt lat="44.113504604468375" lon="12.010155876483672"><ele>354.8</ele><time>2026-04-03T11:39:40.856Z</time></trkpt><trkpt lat="44.11344283160354" lon="12.010054060950903"><ele>355.0</ele><time>2026-04-03T11:39:41.856Z</time></trkpt><trkpt lat="44.11341814638421" lon="12.009908588298524"><ele>355.0</ele><time>2026-04-03T11:39:42.856Z</time></trkpt><trkpt lat="44.113443389816474" lon="12.009739092687708"><ele>355.0</ele><time>2026-04-03T11:39:43.856Z</time></trkpt><trkpt lat="44.11350193894569" lon="12.009550486651916"><ele>355.0</ele><time>2026-04-03T11:39:44.856Z</time></trkpt><trkpt lat="44.11357758401147" lon="12.009349670552469"><ele>355.0</ele><time>2026-04-03T11:39:45.856Z</time></trkpt><trkpt lat="44.11364849381886" lon="12.00914273822263"><ele>357.66666666666663</ele><time>2026-04-03T11:39:46.856Z</time></trkpt><trkpt lat="44.11370826757006" lon="12.008935025102337"><ele>360.3333333333333</ele><time>2026-04-03T11:39:47.856Z</time></trkpt><trkpt lat="44.11378078636478" lon="12.008744967995106"><ele>363.0</ele><time>2026-04-03T11:39:48.856Z</time></trkpt><trkpt lat="44.113873966318245" lon="12.008584343555091"><ele>363.0</ele><time>2026-04-03T11:39:49.856Z</time></trkpt><trkpt lat="44.11396011450737" lon="12.008437140259236"><ele>363.0</ele><time>2026-04-03T11:39:50.856Z</time></trkpt><trkpt lat="44.11403887060444" lon="12.008300822507548"><ele>363.0</ele><time>2026-04-03T11:39:51.856Z</time></trkpt><trkpt lat="44.1141235142567" lon="12.008180449864089"><ele>363.0</ele><time>2026-04-03T11:39:52.856Z</time></trkpt><trkpt lat="44.11421680968044" lon="12.008061737336615"><ele>362.0</ele><time>2026-04-03T11:39:53.856Z</time></trkpt><trkpt lat="44.11433338940499" lon="12.007959513871423"><ele>361.0</ele><time>2026-04-03T11:39:54.856Z</time></trkpt><trkpt lat="44.11446002198772" lon="12.0078812476186"><ele>360.0</ele><time>2026-04-03T11:39:55.856Z</time></trkpt><trkpt lat="44.114572333673024" lon="12.007829608710331"><ele>359.0</ele><time>2026-04-03T11:39:56.856Z</time></trkpt><trkpt lat="44.114666757332664" lon="12.007760951818916"><ele>359.0</ele><time>2026-04-03T11:39:57.856Z</time></trkpt><trkpt lat="44.11473603797467" lon="12.007634342562275"><ele>359.0</ele><time>2026-04-03T11:39:58.856Z</time></trkpt><trkpt lat="44.11476917825261" lon="12.007483156615452"><ele>359.0</ele><time>2026-04-03T11:39:59.856Z</time></trkpt><trkpt lat="44.11477261524183" lon="12.00731437325176"><ele>359.0</ele><time>2026-04-03T11:40:00.856Z</time></trkpt><trkpt lat="44.11476500340158" lon="12.007123719044891"><ele>361.5</ele><time>2026-04-03T11:40:01.856Z</time></trkpt><trkpt lat="44.11475605424985" lon="12.00693381205312"><ele>364.0</ele><time>2026-04-03T11:40:02.856Z</time></trkpt><trkpt lat="44.11475540922956" lon="12.006728946396175"><ele>366.5</ele><time>2026-04-03T11:40:03.853Z</time></trkpt><trkpt lat="44.114756347255856" lon="12.00650780116405"><ele>369.0</ele><time>2026-04-03T11:40:04.853Z</time></trkpt><trkpt lat="44.11475025840579" lon="12.006277583308211"><ele>369.0</ele><time>2026-04-03T11:40:05.853Z</time></trkpt><trkpt lat="44.11474554403805" lon="12.006032597002655"><ele>369.0</ele><time>2026-04-03T11:40:06.853Z</time></trkpt><trkpt lat="44.11473573415575" lon="12.005789981658374"><ele>369.0</ele><time>2026-04-03T11:40:07.853Z</time></trkpt><trkpt lat="44.1147332417753" lon="12.00553273769481"><ele>366.3333333333333</ele><time>2026-04-03T11:40:08.853Z</time></trkpt><trkpt lat="44.114735048224176" lon="12.005286158596189"><ele>363.66666666666663</ele><time>2026-04-03T11:40:09.853Z</time></trkpt><trkpt lat="44.11473592861318" lon="12.00504272437536"><ele>361.0</ele><time>2026-04-03T11:40:10.853Z</time></trkpt><trkpt lat="44.11473903265288" lon="12.004797283477556"><ele>360.0</ele><time>2026-04-03T11:40:11.853Z</time></trkpt><trkpt lat="44.11473211083231" lon="12.00456442296133"><ele>359.0</ele><time>2026-04-03T11:40:12.853Z</time></trkpt><trkpt lat="44.1147246090861" lon="12.004350427783328"><ele>358.0</ele><time>2026-04-03T11:40:13.852Z</time></trkpt><trkpt lat="44.11472032188774" lon="12.00414217381716"><ele>356.25</ele><time>2026-04-03T11:40:14.852Z</time></trkpt><trkpt lat="44.11471794064697" lon="12.003946191734656"><ele>354.5</ele><time>2026-04-03T11:40:15.853Z</time></trkpt><trkpt lat="44.114717556192524" lon="12.003771977053932"><ele>352.75</ele><time>2026-04-03T11:40:16.852Z</time></trkpt><trkpt lat="44.114718613944326" lon="12.003613074355778"><ele>351.0</ele><time>2026-04-03T11:40:17.852Z</time></trkpt><trkpt lat="44.11471874064115" lon="12.00347095803854"><ele>351.0</ele><time>2026-04-03T11:40:18.852Z</time></trkpt><trkpt lat="44.11471863474759" lon="12.003332915129036"><ele>351.0</ele><time>2026-04-03T11:40:19.852Z</time></trkpt><trkpt lat="44.11471951818506" lon="12.003190287159622"><ele>351.0</ele><time>2026-04-03T11:40:20.852Z</time></trkpt><trkpt lat="44.11472259356614" lon="12.003050103015365"><ele>351.0</ele><time>2026-04-03T11:40:21.852Z</time></trkpt><trkpt lat="44.11472899367714" lon="12.002913195886354"><ele>351.0</ele><time>2026-04-03T11:40:22.852Z</time></trkpt><trkpt lat="44.11473463665888" lon="12.00276848239438"><ele>348.75</ele><time>2026-04-03T11:40:23.852Z</time></trkpt><trkpt lat="44.11473753778847" lon="12.002615359960862"><ele>346.5</ele><time>2026-04-03T11:40:24.852Z</time></trkpt><trkpt lat="44.11472974167741" lon="12.0024505716888"><ele>344.25</ele><time>2026-04-03T11:40:25.852Z</time></trkpt><trkpt lat="44.11472437759984" lon="12.002293706862805"><ele>342.0</ele><time>2026-04-03T11:40:26.852Z</time></trkpt><trkpt lat="44.114737162264625" lon="12.002127760754016"><ele>341.5</ele><time>2026-04-03T11:40:27.852Z</time></trkpt><trkpt lat="44.1147587438439" lon="12.001948355216319"><ele>341.0</ele><time>2026-04-03T11:40:28.852Z</time></trkpt><trkpt lat="44.11479614750009" lon="12.00178767235166"><ele>340.5</ele><time>2026-04-03T11:40:29.852Z</time></trkpt><trkpt lat="44.11483174719409" lon="12.001641759882867"><ele>340.0</ele><time>2026-04-03T11:40:30.852Z</time></trkpt><trkpt lat="44.11485493049666" lon="12.001504415265359"><ele>340.0</ele><time>2026-04-03T11:40:31.852Z</time></trkpt><trkpt lat="44.11485391017149" lon="12.001357671286279"><ele>340.0</ele><time>2026-04-03T11:40:32.852Z</time></trkpt><trkpt lat="44.11482727842311" lon="12.001203545412904"><ele>340.0</ele><time>2026-04-03T11:40:33.852Z</time></trkpt><trkpt lat="44.11477753500378" lon="12.00103705903391"><ele>340.0</ele><time>2026-04-03T11:40:34.852Z</time></trkpt><trkpt lat="44.11472990472273" lon="12.000862194032871"><ele>341.5</ele><time>2026-04-03T11:40:35.852Z</time></trkpt><trkpt lat="44.11469709462098" lon="12.000684582291575"><ele>343.0</ele><time>2026-04-03T11:40:36.852Z</time></trkpt><trkpt lat="44.11468266392835" lon="12.000515353094546"><ele>344.5</ele><time>2026-04-03T11:40:37.852Z</time></trkpt><trkpt lat="44.11467093216255" lon="12.000358282551602"><ele>346.0</ele><time>2026-04-03T11:40:38.852Z</time></trkpt><trkpt lat="44.114668625002864" lon="12.000217938529076"><ele>346.0</ele><time>2026-04-03T11:40:39.852Z</time></trkpt><trkpt lat="44.11468497173845" lon="12.000089701888854"><ele>346.0</ele><time>2026-04-03T11:40:40.852Z</time></trkpt><trkpt lat="44.11472558405414" lon="11.999981969197982"><ele>346.0</ele><time>2026-04-03T11:40:41.852Z</time></trkpt><trkpt lat="44.11478580088864" lon="11.99989422514774"><ele>346.0</ele><time>2026-04-03T11:40:42.852Z</time></trkpt><trkpt lat="44.11485170283331" lon="11.999819127774625"><ele>346.0</ele><time>2026-04-03T11:40:43.852Z</time></trkpt><trkpt lat="44.114915693980755" lon="11.9997508326117"><ele>346.0</ele><time>2026-04-03T11:40:44.852Z</time></trkpt><trkpt lat="44.114946214987036" lon="11.999671346193715"><ele>346.0</ele><time>2026-04-03T11:40:45.852Z</time></trkpt><trkpt lat="44.11494632444752" lon="11.99958229818615"><ele>346.0</ele><time>2026-04-03T11:40:46.852Z</time></trkpt><trkpt lat="44.11490947864441" lon="11.999508302599576"><ele>346.0</ele><time>2026-04-03T11:40:47.852Z</time></trkpt><trkpt lat="44.11483675773264" lon="11.999469441984274"><ele>346.0</ele><time>2026-04-03T11:40:48.852Z</time></trkpt><trkpt lat="44.114745575324804" lon="11.999448296633082"><ele>346.0</ele><time>2026-04-03T11:40:49.852Z</time></trkpt><trkpt lat="44.1146385683728" lon="11.999420293877725"><ele>346.0</ele><time>2026-04-03T11:40:50.852Z</time></trkpt><trkpt lat="44.1145272836544" lon="11.999402309268563"><ele>346.0</ele><time>2026-04-03T11:40:51.852Z</time></trkpt><trkpt lat="44.114408838537734" lon="11.999386751497532"><ele>346.0</ele><time>2026-04-03T11:40:52.852Z</time></trkpt><trkpt lat="44.114292524402586" lon="11.999388087244805"><ele>346.0</ele><time>2026-04-03T11:40:53.852Z</time></trkpt><trkpt lat="44.11418284145827" lon="11.99937743167205"><ele>346.0</ele><time>2026-04-03T11:40:54.852Z</time></trkpt><trkpt lat="44.11408194831194" lon="11.999378522698741"><ele>346.0</ele><time>2026-04-03T11:40:55.852Z</time></trkpt><trkpt lat="44.113981233553694" lon="11.999405121064285"><ele>341.75</ele><time>2026-04-03T11:40:56.852Z</time></trkpt><trkpt lat="44.11387643738351" lon="11.999470783621657"><ele>337.5</ele><time>2026-04-03T11:40:57.852Z</time></trkpt><trkpt lat="44.113777358440146" lon="11.999576142152243"><ele>333.25</ele><time>2026-04-03T11:40:58.852Z</time></trkpt><trkpt lat="44.11368057682827" lon="11.999678930810767"><ele>329.0</ele><time>2026-04-03T11:40:59.852Z</time></trkpt><trkpt lat="44.11358805549288" lon="11.999780659562948"><ele>329.0</ele><time>2026-04-03T11:41:00.852Z</time></trkpt><trkpt lat="44.113510120207714" lon="11.99986742622564"><ele>329.0</ele><time>2026-04-03T11:41:01.852Z</time></trkpt><trkpt lat="44.11345060603689" lon="11.999922535807576"><ele>329.0</ele><time>2026-04-03T11:41:02.852Z</time></trkpt><trkpt lat="44.1133473021123" lon="11.999946252675283"><ele>329.0</ele><time>2026-04-03T11:41:04.852Z</time></trkpt><trkpt lat="44.11333981209032" lon="11.999790184231525"><ele>329.0</ele><time>2026-04-03T11:41:06.852Z</time></trkpt><trkpt lat="44.11338988175732" lon="11.999706735108774"><ele>329.0</ele><time>2026-04-03T11:41:07.852Z</time></trkpt><trkpt lat="44.113445453433854" lon="11.999611868873663"><ele>329.0</ele><time>2026-04-03T11:41:08.852Z</time></trkpt><trkpt lat="44.11351092611593" lon="11.999513560146534"><ele>329.0</ele><time>2026-04-03T11:41:09.852Z</time></trkpt><trkpt lat="44.11357221182116" lon="11.999407317450746"><ele>329.0</ele><time>2026-04-03T11:41:10.852Z</time></trkpt><trkpt lat="44.113627905062486" lon="11.999287446295321"><ele>329.0</ele><time>2026-04-03T11:41:11.852Z</time></trkpt><trkpt lat="44.11367383790905" lon="11.999167003563665"><ele>328.0</ele><time>2026-04-03T11:41:12.852Z</time></trkpt><trkpt lat="44.113712951537885" lon="11.999041337974091"><ele>327.0</ele><time>2026-04-03T11:41:13.852Z</time></trkpt><trkpt lat="44.113745250379615" lon="11.998908412301342"><ele>326.0</ele><time>2026-04-03T11:41:14.852Z</time></trkpt><trkpt lat="44.11376370214998" lon="11.998766636866446"><ele>325.0</ele><time>2026-04-03T11:41:15.852Z</time></trkpt><trkpt lat="44.113758062854195" lon="11.998621186496022"><ele>324.0</ele><time>2026-04-03T11:41:16.852Z</time></trkpt><trkpt lat="44.11372988690624" lon="11.998470863217657"><ele>322.5</ele><time>2026-04-03T11:41:17.852Z</time></trkpt><trkpt lat="44.11367383271968" lon="11.998323349969978"><ele>321.0</ele><time>2026-04-03T11:41:18.852Z</time></trkpt><trkpt lat="44.11359709022857" lon="11.998203881945447"><ele>319.5</ele><time>2026-04-03T11:41:19.852Z</time></trkpt><trkpt lat="44.11350068441946" lon="11.998083605029489"><ele>318.0</ele><time>2026-04-03T11:41:20.852Z</time></trkpt><trkpt lat="44.11340504162506" lon="11.997967903863092"><ele>318.0</ele><time>2026-04-03T11:41:21.852Z</time></trkpt><trkpt lat="44.113309548708614" lon="11.997861213459991"><ele>318.0</ele><time>2026-04-03T11:41:22.852Z</time></trkpt><trkpt lat="44.11321056699138" lon="11.997776439618805"><ele>318.0</ele><time>2026-04-03T11:41:23.852Z</time></trkpt><trkpt lat="44.113108430389936" lon="11.997717647277772"><ele>318.0</ele><time>2026-04-03T11:41:24.852Z</time></trkpt><trkpt lat="44.1129920792708" lon="11.997690813605718"><ele>315.0</ele><time>2026-04-03T11:41:25.852Z</time></trkpt><trkpt lat="44.11287004176676" lon="11.99769576711884"><ele>312.0</ele><time>2026-04-03T11:41:26.852Z</time></trkpt><trkpt lat="44.11275099026311" lon="11.997732814700761"><ele>309.0</ele><time>2026-04-03T11:41:27.852Z</time></trkpt><trkpt lat="44.11263642864255" lon="11.997792902955338"><ele>306.0</ele><time>2026-04-03T11:41:28.852Z</time></trkpt><trkpt lat="44.1125202453349" lon="11.997858738541444"><ele>306.0</ele><time>2026-04-03T11:41:29.852Z</time></trkpt><trkpt lat="44.11240685502617" lon="11.997911347811987"><ele>306.0</ele><time>2026-04-03T11:41:30.852Z</time></trkpt><trkpt lat="44.11229468912807" lon="11.997946678748335"><ele>306.0</ele><time>2026-04-03T11:41:31.852Z</time></trkpt><trkpt lat="44.11217506479214" lon="11.99795592556989"><ele>306.0</ele><time>2026-04-03T11:41:32.852Z</time></trkpt><trkpt lat="44.112070858908645" lon="11.997935632837466"><ele>303.40000000000003</ele><time>2026-04-03T11:41:33.852Z</time></trkpt><trkpt lat="44.11197292442037" lon="11.997900117134163"><ele>300.8</ele><time>2026-04-03T11:41:34.852Z</time></trkpt><trkpt lat="44.11188990974629" lon="11.997856676366371"><ele>298.20000000000005</ele><time>2026-04-03T11:41:35.852Z</time></trkpt><trkpt lat="44.11183304893809" lon="11.99778638531225"><ele>295.6</ele><time>2026-04-03T11:41:36.852Z</time></trkpt><trkpt lat="44.111830059332426" lon="11.99762983325897"><ele>293.0</ele><time>2026-04-03T11:41:38.852Z</time></trkpt><trkpt lat="44.111893241016546" lon="11.997560819751392"><ele>293.4</ele><time>2026-04-03T11:41:39.852Z</time></trkpt><trkpt lat="44.11197467531247" lon="11.997499006601007"><ele>293.8</ele><time>2026-04-03T11:41:40.852Z</time></trkpt><trkpt lat="44.11206476765476" lon="11.997430329141354"><ele>294.2</ele><time>2026-04-03T11:41:41.852Z</time></trkpt><trkpt lat="44.112162631527596" lon="11.997355392578609"><ele>294.6</ele><time>2026-04-03T11:41:42.852Z</time></trkpt><trkpt lat="44.112268913043934" lon="11.997297601149281"><ele>295.0</ele><time>2026-04-03T11:41:43.852Z</time></trkpt><trkpt lat="44.1123901248775" lon="11.997261418319601"><ele>298.0</ele><time>2026-04-03T11:41:44.852Z</time></trkpt><trkpt lat="44.11252467111001" lon="11.997234152403704"><ele>301.0</ele><time>2026-04-03T11:41:45.852Z</time></trkpt><trkpt lat="44.11267180839875" lon="11.99720625604048"><ele>304.0</ele><time>2026-04-03T11:41:46.852Z</time></trkpt><trkpt lat="44.112821015028736" lon="11.997179253457713"><ele>307.0</ele><time>2026-04-03T11:41:47.852Z</time></trkpt><trkpt lat="44.11296791103448" lon="11.99715880322662"><ele>307.0</ele><time>2026-04-03T11:41:48.852Z</time></trkpt><trkpt lat="44.11310955673521" lon="11.997137637441062"><ele>307.0</ele><time>2026-04-03T11:41:49.852Z</time></trkpt><trkpt lat="44.11324529548266" lon="11.997117281109588"><ele>307.0</ele><time>2026-04-03T11:41:50.852Z</time></trkpt><trkpt lat="44.11336874713126" lon="11.997095570857285"><ele>307.0</ele><time>2026-04-03T11:41:51.852Z</time></trkpt><trkpt lat="44.113482914603466" lon="11.997078414068342"><ele>306.66666666666663</ele><time>2026-04-03T11:41:52.852Z</time></trkpt><trkpt lat="44.11357889603231" lon="11.99707003427028"><ele>306.3333333333333</ele><time>2026-04-03T11:41:53.852Z</time></trkpt><trkpt lat="44.11365311570699" lon="11.997033273489745"><ele>306.0</ele><time>2026-04-03T11:41:54.852Z</time></trkpt><trkpt lat="44.11369715274408" lon="11.996962997405978"><ele>305.6666666666667</ele><time>2026-04-03T11:41:55.852Z</time></trkpt><trkpt lat="44.113697000743045" lon="11.996872716075623"><ele>305.33333333333337</ele><time>2026-04-03T11:41:56.852Z</time></trkpt><trkpt lat="44.113649534348696" lon="11.996796916913905"><ele>305.0</ele><time>2026-04-03T11:41:57.852Z</time></trkpt><trkpt lat="44.11357763960171" lon="11.996757052807821"><ele>305.0</ele><time>2026-04-03T11:41:58.852Z</time></trkpt><trkpt lat="44.11348785509185" lon="11.996747638750813"><ele>305.0</ele><time>2026-04-03T11:41:59.852Z</time></trkpt><trkpt lat="44.113380432110645" lon="11.996742755957687"><ele>305.0</ele><time>2026-04-03T11:42:00.852Z</time></trkpt><trkpt lat="44.113262706591776" lon="11.996735054401483"><ele>305.0</ele><time>2026-04-03T11:42:01.852Z</time></trkpt><trkpt lat="44.11313251974909" lon="11.996723086335574"><ele>305.0</ele><time>2026-04-03T11:42:02.852Z</time></trkpt><trkpt lat="44.11300209462623" lon="11.996705265931551"><ele>305.5</ele><time>2026-04-03T11:42:03.852Z</time></trkpt><trkpt lat="44.112862168468965" lon="11.996680750411384"><ele>306.0</ele><time>2026-04-03T11:42:04.852Z</time></trkpt><trkpt lat="44.11272475268741" lon="11.996649572280374"><ele>306.5</ele><time>2026-04-03T11:42:05.852Z</time></trkpt><trkpt lat="44.11258374787376" lon="11.99662551751705"><ele>307.0</ele><time>2026-04-03T11:42:06.852Z</time></trkpt><trkpt lat="44.11244339191312" lon="11.99660618222025"><ele>300.5</ele><time>2026-04-03T11:42:07.852Z</time></trkpt><trkpt lat="44.11230470533951" lon="11.996586590304021"><ele>294.0</ele><time>2026-04-03T11:42:08.852Z</time></trkpt><trkpt lat="44.1121729913107" lon="11.996563414181736"><ele>287.5</ele><time>2026-04-03T11:42:09.849Z</time></trkpt><trkpt lat="44.11204443351453" lon="11.99655129542265"><ele>281.0</ele><time>2026-04-03T11:42:10.849Z</time></trkpt><trkpt lat="44.1119228898646" lon="11.996571305959868"><ele>281.0</ele><time>2026-04-03T11:42:11.849Z</time></trkpt><trkpt lat="44.11181381474502" lon="11.996598078751243"><ele>281.0</ele><time>2026-04-03T11:42:12.849Z</time></trkpt><trkpt lat="44.11171304733697" lon="11.996623277939273"><ele>281.0</ele><time>2026-04-03T11:42:13.849Z</time></trkpt><trkpt lat="44.11162501207722" lon="11.996635477103657"><ele>281.0</ele><time>2026-04-03T11:42:14.849Z</time></trkpt><trkpt lat="44.1115505572847" lon="11.996629981329061"><ele>281.0</ele><time>2026-04-03T11:42:15.849Z</time></trkpt><trkpt lat="44.111465672067744" lon="11.99655113951896"><ele>281.0</ele><time>2026-04-03T11:42:17.849Z</time></trkpt><trkpt lat="44.11153083105459" lon="11.996419426733478"><ele>281.0</ele><time>2026-04-03T11:42:19.849Z</time></trkpt><trkpt lat="44.11162156982459" lon="11.996376809929375"><ele>281.0</ele><time>2026-04-03T11:42:20.849Z</time></trkpt><trkpt lat="44.111720731701034" lon="11.996347880230186"><ele>281.0</ele><time>2026-04-03T11:42:21.848Z</time></trkpt><trkpt lat="44.111834251253" lon="11.996319100482413"><ele>281.0</ele><time>2026-04-03T11:42:22.848Z</time></trkpt><trkpt lat="44.111952949446916" lon="11.996277961547895"><ele>281.0</ele><time>2026-04-03T11:42:23.848Z</time></trkpt><trkpt lat="44.11207185086488" lon="11.996243412141645"><ele>281.0</ele><time>2026-04-03T11:42:24.848Z</time></trkpt><trkpt lat="44.1121826710036" lon="11.996211393991953"><ele>281.0</ele><time>2026-04-03T11:42:25.848Z</time></trkpt><trkpt lat="44.11227179551584" lon="11.996163501424565"><ele>281.0</ele><time>2026-04-03T11:42:26.848Z</time></trkpt><trkpt lat="44.11233375733078" lon="11.996093172759055"><ele>281.0</ele><time>2026-04-03T11:42:27.848Z</time></trkpt><trkpt lat="44.11235975137764" lon="11.996003175767129"><ele>281.0</ele><time>2026-04-03T11:42:28.848Z</time></trkpt><trkpt lat="44.11234487144878" lon="11.995901198186143"><ele>281.0</ele><time>2026-04-03T11:42:29.848Z</time></trkpt><trkpt lat="44.11229087734741" lon="11.99578270750047"><ele>281.0</ele><time>2026-04-03T11:42:30.848Z</time></trkpt><trkpt lat="44.11221091739709" lon="11.99565566687037"><ele>281.0</ele><time>2026-04-03T11:42:31.848Z</time></trkpt><trkpt lat="44.11211453740164" lon="11.995506157268272"><ele>281.0</ele><time>2026-04-03T11:42:32.848Z</time></trkpt><trkpt lat="44.11204043999477" lon="11.99538111969289"><ele>276.5</ele><time>2026-04-03T11:42:33.848Z</time></trkpt><trkpt lat="44.1119721492769" lon="11.995250059124148"><ele>272.0</ele><time>2026-04-03T11:42:34.848Z</time></trkpt><trkpt lat="44.11193132237659" lon="11.99510680154428"><ele>267.5</ele><time>2026-04-03T11:42:35.848Z</time></trkpt><trkpt lat="44.11191929356088" lon="11.994954127686137"><ele>263.0</ele><time>2026-04-03T11:42:36.848Z</time></trkpt><trkpt lat="44.11192438023073" lon="11.99478271456198"><ele>261.4</ele><time>2026-04-03T11:42:37.848Z</time></trkpt><trkpt lat="44.11193287073595" lon="11.994613945321996"><ele>259.8</ele><time>2026-04-03T11:42:38.848Z</time></trkpt><trkpt lat="44.11193798584879" lon="11.994458841052504"><ele>258.2</ele><time>2026-04-03T11:42:39.848Z</time></trkpt><trkpt lat="44.111944607260696" lon="11.994323949153584"><ele>256.6</ele><time>2026-04-03T11:42:40.848Z</time></trkpt><trkpt lat="44.111934335115535" lon="11.994227962667109"><ele>255.0</ele><time>2026-04-03T11:42:41.848Z</time></trkpt><trkpt lat="44.11183275366034" lon="11.994178696275467"><ele>255.0</ele><time>2026-04-03T11:42:43.848Z</time></trkpt><trkpt lat="44.11176287127127" lon="11.994264951554367"><ele>255.0</ele><time>2026-04-03T11:42:44.848Z</time></trkpt><trkpt lat="44.11169457811635" lon="11.994384484802126"><ele>255.0</ele><time>2026-04-03T11:42:45.848Z</time></trkpt><trkpt lat="44.11161539639984" lon="11.994518560362398"><ele>255.0</ele><time>2026-04-03T11:42:46.848Z</time></trkpt><trkpt lat="44.11153605935077" lon="11.9946310858705"><ele>255.0</ele><time>2026-04-03T11:42:47.848Z</time></trkpt><trkpt lat="44.11146740521809" lon="11.994740535411399"><ele>252.83333333333334</ele><time>2026-04-03T11:42:48.848Z</time></trkpt><trkpt lat="44.11140654396067" lon="11.994839860526685"><ele>250.66666666666669</ele><time>2026-04-03T11:42:49.848Z</time></trkpt><trkpt lat="44.11134194098447" lon="11.994912432380477"><ele>248.5</ele><time>2026-04-03T11:42:50.848Z</time></trkpt><trkpt lat="44.1112669306476" lon="11.99492155815242"><ele>246.33333333333334</ele><time>2026-04-03T11:42:51.848Z</time></trkpt><trkpt lat="44.11120656270301" lon="11.994878283962382"><ele>244.16666666666669</ele><time>2026-04-03T11:42:52.848Z</time></trkpt><trkpt lat="44.11117378014295" lon="11.99478769564397"><ele>242.0</ele><time>2026-04-03T11:42:53.848Z</time></trkpt><trkpt lat="44.11118526860211" lon="11.99467706917093"><ele>242.0</ele><time>2026-04-03T11:42:54.848Z</time></trkpt><trkpt lat="44.1112368982551" lon="11.994564247722538"><ele>242.0</ele><time>2026-04-03T11:42:55.848Z</time></trkpt><trkpt lat="44.111310932083896" lon="11.99444615995103"><ele>242.0</ele><time>2026-04-03T11:42:56.848Z</time></trkpt><trkpt lat="44.11137457788361" lon="11.99433024891634"><ele>242.0</ele><time>2026-04-03T11:42:57.848Z</time></trkpt><trkpt lat="44.11142873674256" lon="11.994223630715057"><ele>242.0</ele><time>2026-04-03T11:42:58.848Z</time></trkpt><trkpt lat="44.1114624673916" lon="11.994120458066426"><ele>240.6</ele><time>2026-04-03T11:42:59.848Z</time></trkpt><trkpt lat="44.11147434937082" lon="11.994023194555696"><ele>239.2</ele><time>2026-04-03T11:43:00.848Z</time></trkpt><trkpt lat="44.11140583693604" lon="11.993901752643815"><ele>237.8</ele><time>2026-04-03T11:43:02.848Z</time></trkpt><trkpt lat="44.111339308856266" lon="11.993924337434208"><ele>236.4</ele><time>2026-04-03T11:43:03.848Z</time></trkpt><trkpt lat="44.11124548582833" lon="11.993983342055706"><ele>235.0</ele><time>2026-04-03T11:43:04.848Z</time></trkpt><trkpt lat="44.11115299912164" lon="11.994052738475023"><ele>235.0</ele><time>2026-04-03T11:43:05.848Z</time></trkpt><trkpt lat="44.11104077453917" lon="11.99409000364161"><ele>235.0</ele><time>2026-04-03T11:43:06.848Z</time></trkpt><trkpt lat="44.11092198559342" lon="11.99410380988594"><ele>235.0</ele><time>2026-04-03T11:43:07.848Z</time></trkpt><trkpt lat="44.11082190158746" lon="11.99411783886018"><ele>235.0</ele><time>2026-04-03T11:43:08.848Z</time></trkpt><trkpt lat="44.11072455882643" lon="11.994128995605212"><ele>235.0</ele><time>2026-04-03T11:43:09.848Z</time></trkpt><trkpt lat="44.11063406879123" lon="11.994147597695266"><ele>232.66666666666666</ele><time>2026-04-03T11:43:10.848Z</time></trkpt><trkpt lat="44.11054939148503" lon="11.994158296774005"><ele>230.33333333333331</ele><time>2026-04-03T11:43:11.848Z</time></trkpt><trkpt lat="44.110481112781514" lon="11.994135870338901"><ele>228.0</ele><time>2026-04-03T11:43:12.848Z</time></trkpt><trkpt lat="44.110422839442045" lon="11.99400178078843"><ele>225.66666666666669</ele><time>2026-04-03T11:43:14.848Z</time></trkpt><trkpt lat="44.11045712562692" lon="11.993927516873487"><ele>223.33333333333334</ele><time>2026-04-03T11:43:15.848Z</time></trkpt><trkpt lat="44.110525199917554" lon="11.99388171045605"><ele>221.0</ele><time>2026-04-03T11:43:16.848Z</time></trkpt><trkpt lat="44.110613614224455" lon="11.993844553290858"><ele>221.0</ele><time>2026-04-03T11:43:17.848Z</time></trkpt><trkpt lat="44.11071361530954" lon="11.993805824760878"><ele>221.00000000000003</ele><time>2026-04-03T11:43:18.848Z</time></trkpt><trkpt lat="44.11081105281424" lon="11.993759570462641"><ele>221.00000000000003</ele><time>2026-04-03T11:43:19.848Z</time></trkpt><trkpt lat="44.110902998911996" lon="11.99370856839881"><ele>221.0</ele><time>2026-04-03T11:43:20.848Z</time></trkpt><trkpt lat="44.11099391324254" lon="11.993664698918746"><ele>221.0</ele><time>2026-04-03T11:43:21.848Z</time></trkpt><trkpt lat="44.11106682021852" lon="11.99361953015776"><ele>223.8</ele><time>2026-04-03T11:43:22.848Z</time></trkpt><trkpt lat="44.11111495265023" lon="11.993548861748003"><ele>226.60000000000002</ele><time>2026-04-03T11:43:23.848Z</time></trkpt><trkpt lat="44.11111879812812" lon="11.993460907637829"><ele>229.4</ele><time>2026-04-03T11:43:24.848Z</time></trkpt><trkpt lat="44.11100352402351" lon="11.99336868663408"><ele>232.2</ele><time>2026-04-03T11:43:26.848Z</time></trkpt><trkpt lat="44.11090561929507" lon="11.993384694743046"><ele>235.0</ele><time>2026-04-03T11:43:27.848Z</time></trkpt><trkpt lat="44.11079220209584" lon="11.99339985005286"><ele>231.5</ele><time>2026-04-03T11:43:28.848Z</time></trkpt><trkpt lat="44.11067969027515" lon="11.993379453108927"><ele>228.0</ele><time>2026-04-03T11:43:29.848Z</time></trkpt><trkpt lat="44.11057093374672" lon="11.99332274969001"><ele>224.5</ele><time>2026-04-03T11:43:30.848Z</time></trkpt><trkpt lat="44.11046272002883" lon="11.993254608410764"><ele>221.0</ele><time>2026-04-03T11:43:31.848Z</time></trkpt><trkpt lat="44.110356555828986" lon="11.993209009526803"><ele>220.20000000000002</ele><time>2026-04-03T11:43:32.848Z</time></trkpt><trkpt lat="44.110247585963" lon="11.993196022563792"><ele>219.40000000000003</ele><time>2026-04-03T11:43:33.848Z</time></trkpt><trkpt lat="44.110143077983665" lon="11.993213598405548"><ele>218.6</ele><time>2026-04-03T11:43:34.848Z</time></trkpt><trkpt lat="44.11005221849003" lon="11.993247471937915"><ele>217.8</ele><time>2026-04-03T11:43:35.848Z</time></trkpt><trkpt lat="44.10997311062778" lon="11.993246442610605"><ele>217.0</ele><time>2026-04-03T11:43:36.848Z</time></trkpt><trkpt lat="44.10991175610308" lon="11.99320936155355"><ele>217.0</ele><time>2026-04-03T11:43:37.848Z</time></trkpt><trkpt lat="44.10989842003221" lon="11.993093795610049"><ele>217.0</ele><time>2026-04-03T11:43:39.848Z</time></trkpt><trkpt lat="44.10996276673367" lon="11.99304276933853"><ele>217.0</ele><time>2026-04-03T11:43:40.848Z</time></trkpt><trkpt lat="44.11005483030561" lon="11.993007394047929"><ele>217.0</ele><time>2026-04-03T11:43:41.848Z</time></trkpt><trkpt lat="44.11015272269708" lon="11.992964734860044"><ele>217.0</ele><time>2026-04-03T11:43:42.848Z</time></trkpt><trkpt lat="44.11024594022943" lon="11.992922458730554"><ele>216.99999999999997</ele><time>2026-04-03T11:43:43.848Z</time></trkpt><trkpt lat="44.11033524479341" lon="11.992877285866205"><ele>217.0</ele><time>2026-04-03T11:43:44.848Z</time></trkpt><trkpt lat="44.110422863557105" lon="11.992836949480147"><ele>217.0</ele><time>2026-04-03T11:43:45.848Z</time></trkpt><trkpt lat="44.11050880350143" lon="11.992810477967689"><ele>217.0</ele><time>2026-04-03T11:43:46.847Z</time></trkpt><trkpt lat="44.1105952301529" lon="11.992799301184704"><ele>216.99999999999997</ele><time>2026-04-03T11:43:47.847Z</time></trkpt><trkpt lat="44.11068025855916" lon="11.992788625450277"><ele>217.0</ele><time>2026-04-03T11:43:48.847Z</time></trkpt><trkpt lat="44.11076113701693" lon="11.992768340419845"><ele>215.99999999999997</ele><time>2026-04-03T11:43:49.847Z</time></trkpt><trkpt lat="44.11083556364164" lon="11.992743878389168"><ele>215.0</ele><time>2026-04-03T11:43:50.847Z</time></trkpt><trkpt lat="44.11089432949499" lon="11.99268326018249"><ele>214.0</ele><time>2026-04-03T11:43:51.847Z</time></trkpt><trkpt lat="44.110917912053985" lon="11.992594462990139"><ele>213.0</ele><time>2026-04-03T11:43:52.847Z</time></trkpt><trkpt lat="44.11084440381" lon="11.992483505134516"><ele>211.99999999999997</ele><time>2026-04-03T11:43:54.847Z</time></trkpt><trkpt lat="44.11076307366597" lon="11.992480478895747"><ele>211.0</ele><time>2026-04-03T11:43:55.847Z</time></trkpt><trkpt lat="44.110668713107664" lon="11.992477041290435"><ele>210.20000000000002</ele><time>2026-04-03T11:43:56.847Z</time></trkpt><trkpt lat="44.11056597226442" lon="11.992485828559857"><ele>209.4</ele><time>2026-04-03T11:43:57.847Z</time></trkpt><trkpt lat="44.11046999655957" lon="11.992454249032459"><ele>208.6</ele><time>2026-04-03T11:43:58.847Z</time></trkpt><trkpt lat="44.11036426957117" lon="11.992413981380551"><ele>207.8</ele><time>2026-04-03T11:43:59.847Z</time></trkpt><trkpt lat="44.110258828459244" lon="11.992357055495752"><ele>207.0</ele><time>2026-04-03T11:44:00.847Z</time></trkpt><trkpt lat="44.11014932183491" lon="11.992298376437272"><ele>207.0</ele><time>2026-04-03T11:44:01.847Z</time></trkpt><trkpt lat="44.11004183837761" lon="11.992241525935544"><ele>207.0</ele><time>2026-04-03T11:44:02.847Z</time></trkpt><trkpt lat="44.1099354370255" lon="11.992175686453903"><ele>207.0</ele><time>2026-04-03T11:44:03.847Z</time></trkpt><trkpt lat="44.10982516021609" lon="11.992115713555172"><ele>207.0</ele><time>2026-04-03T11:44:04.847Z</time></trkpt><trkpt lat="44.109717349638295" lon="11.99206323655893"><ele>204.8</ele><time>2026-04-03T11:44:05.847Z</time></trkpt><trkpt lat="44.10961337055002" lon="11.992017689652958"><ele>202.6</ele><time>2026-04-03T11:44:06.847Z</time></trkpt><trkpt lat="44.10951023355976" lon="11.991978607030513"><ele>200.4</ele><time>2026-04-03T11:44:07.847Z</time></trkpt><trkpt lat="44.109409900096516" lon="11.99194434455957"><ele>198.20000000000002</ele><time>2026-04-03T11:44:08.847Z</time></trkpt><trkpt lat="44.10931475961587" lon="11.991903938852706"><ele>196.0</ele><time>2026-04-03T11:44:09.847Z</time></trkpt><trkpt lat="44.10922178303808" lon="11.991865098969624"><ele>195.99999999999997</ele><time>2026-04-03T11:44:10.847Z</time></trkpt><trkpt lat="44.1091408808795" lon="11.991815818543493"><ele>196.0</ele><time>2026-04-03T11:44:11.847Z</time></trkpt><trkpt lat="44.10908460113517" lon="11.991731742272668"><ele>196.0</ele><time>2026-04-03T11:44:12.847Z</time></trkpt><trkpt lat="44.10906683113842" lon="11.991624760869039"><ele>196.0</ele><time>2026-04-03T11:44:13.847Z</time></trkpt><trkpt lat="44.10909052463712" lon="11.991523583568446"><ele>195.99999999999997</ele><time>2026-04-03T11:44:14.847Z</time></trkpt><trkpt lat="44.109144702427194" lon="11.991458869735983"><ele>196.0</ele><time>2026-04-03T11:44:15.845Z</time></trkpt><trkpt lat="44.10921349651954" lon="11.991426366000272"><ele>194.60000000000002</ele><time>2026-04-03T11:44:16.845Z</time></trkpt><trkpt lat="44.1093003568589" lon="11.991413080588245"><ele>193.2</ele><time>2026-04-03T11:44:17.845Z</time></trkpt><trkpt lat="44.10939725204219" lon="11.991407459186561"><ele>191.8</ele><time>2026-04-03T11:44:18.845Z</time></trkpt><trkpt lat="44.10949454740754" lon="11.991398866001362"><ele>190.39999999999998</ele><time>2026-04-03T11:44:19.845Z</time></trkpt><trkpt lat="44.109591406660805" lon="11.991409053975167"><ele>189.0</ele><time>2026-04-03T11:44:20.845Z</time></trkpt><trkpt lat="44.10969103807908" lon="11.991424215922116"><ele>189.0</ele><time>2026-04-03T11:44:21.845Z</time></trkpt><trkpt lat="44.10978767132816" lon="11.991455376442575"><ele>189.0</ele><time>2026-04-03T11:44:22.845Z</time></trkpt><trkpt lat="44.10986526182434" lon="11.991505086554689"><ele>189.0</ele><time>2026-04-03T11:44:23.845Z</time></trkpt><trkpt lat="44.10993306187178" lon="11.991572058969467"><ele>189.0</ele><time>2026-04-03T11:44:24.844Z</time></trkpt><trkpt lat="44.10999705278638" lon="11.991593361297982"><ele>189.0</ele><time>2026-04-03T11:44:25.844Z</time></trkpt><trkpt lat="44.11005304389893" lon="11.991471076936767"><ele>189.0</ele><time>2026-04-03T11:44:27.844Z</time></trkpt><trkpt lat="44.110023976662426" lon="11.991389039625009"><ele>189.0</ele><time>2026-04-03T11:44:28.844Z</time></trkpt><trkpt lat="44.10995273831858" lon="11.991295832241386"><ele>189.0</ele><time>2026-04-03T11:44:29.844Z</time></trkpt><trkpt lat="44.10986464927561" lon="11.991212673707096"><ele>189.0</ele><time>2026-04-03T11:44:30.844Z</time></trkpt><trkpt lat="44.109766841207374" lon="11.991114789617995"><ele>189.0</ele><time>2026-04-03T11:44:31.844Z</time></trkpt><trkpt lat="44.109677862378064" lon="11.991001329193125"><ele>189.0</ele><time>2026-04-03T11:44:32.844Z</time></trkpt><trkpt lat="44.10959684675964" lon="11.990876354569888"><ele>187.0</ele><time>2026-04-03T11:44:33.844Z</time></trkpt><trkpt lat="44.1095240451971" lon="11.990751429340888"><ele>185.0</ele><time>2026-04-03T11:44:34.844Z</time></trkpt><trkpt lat="44.10944562877073" lon="11.990631277878542"><ele>183.0</ele><time>2026-04-03T11:44:35.844Z</time></trkpt><trkpt lat="44.109359106828975" lon="11.990536524374825"><ele>181.0</ele><time>2026-04-03T11:44:36.844Z</time></trkpt><trkpt lat="44.10925820683302" lon="11.990465437537205"><ele>181.0</ele><time>2026-04-03T11:44:37.844Z</time></trkpt><trkpt lat="44.1091479628422" lon="11.99041443315978"><ele>181.0</ele><time>2026-04-03T11:44:38.844Z</time></trkpt><trkpt lat="44.109035525881886" lon="11.990395440199448"><ele>181.0</ele><time>2026-04-03T11:44:39.844Z</time></trkpt><trkpt lat="44.108929535969864" lon="11.990423793803654"><ele>181.0</ele><time>2026-04-03T11:44:40.844Z</time></trkpt><trkpt lat="44.10883992130076" lon="11.990467534073405"><ele>181.0</ele><time>2026-04-03T11:44:41.844Z</time></trkpt><trkpt lat="44.10876138145931" lon="11.990486597054302"><ele>178.60000000000002</ele><time>2026-04-03T11:44:42.844Z</time></trkpt><trkpt lat="44.10870068382281" lon="11.99045909694185"><ele>176.2</ele><time>2026-04-03T11:44:43.844Z</time></trkpt><trkpt lat="44.108670985586826" lon="11.990329511598832"><ele>173.8</ele><time>2026-04-03T11:44:45.844Z</time></trkpt><trkpt lat="44.108788022386186" lon="11.990245059283204"><ele>171.39999999999998</ele><time>2026-04-03T11:44:47.844Z</time></trkpt><trkpt lat="44.108880646687545" lon="11.99023962786157"><ele>169.0</ele><time>2026-04-03T11:44:48.844Z</time></trkpt><trkpt lat="44.108972857697125" lon="11.990238553240806"><ele>169.0</ele><time>2026-04-03T11:44:49.844Z</time></trkpt><trkpt lat="44.109058604337314" lon="11.990224084836013"><ele>169.0</ele><time>2026-04-03T11:44:50.844Z</time></trkpt><trkpt lat="44.109137910663414" lon="11.990211175117262"><ele>169.0</ele><time>2026-04-03T11:44:51.844Z</time></trkpt><trkpt lat="44.10920540801261" lon="11.990177335155002"><ele>169.0</ele><time>2026-04-03T11:44:52.844Z</time></trkpt><trkpt lat="44.10925526536807" lon="11.990120859002396"><ele>169.0</ele><time>2026-04-03T11:44:53.844Z</time></trkpt><trkpt lat="44.10920975609765" lon="11.989982119501882"><ele>169.0</ele><time>2026-04-03T11:44:55.844Z</time></trkpt><trkpt lat="44.109130686069314" lon="11.989961631612125"><ele>169.0</ele><time>2026-04-03T11:44:56.844Z</time></trkpt><trkpt lat="44.10903787709952" lon="11.98998944821318"><ele>169.0</ele><time>2026-04-03T11:44:57.844Z</time></trkpt><trkpt lat="44.10894827865727" lon="11.990036256258383"><ele>169.0</ele><time>2026-04-03T11:44:58.844Z</time></trkpt><trkpt lat="44.10886230774997" lon="11.990077657341349"><ele>169.0</ele><time>2026-04-03T11:44:59.844Z</time></trkpt><trkpt lat="44.108779582279944" lon="11.990111130301782"><ele>169.0</ele><time>2026-04-03T11:45:00.844Z</time></trkpt><trkpt lat="44.10870201175563" lon="11.990141550861843"><ele>169.0</ele><time>2026-04-03T11:45:01.844Z</time></trkpt><trkpt lat="44.1085910619699" lon="11.990123182508235"><ele>167.0</ele><time>2026-04-03T11:45:03.844Z</time></trkpt><trkpt lat="44.108580676001424" lon="11.98996690559318"><ele>165.0</ele><time>2026-04-03T11:45:05.844Z</time></trkpt><trkpt lat="44.10865510106493" lon="11.989892490377464"><ele>163.0</ele><time>2026-04-03T11:45:06.844Z</time></trkpt><trkpt lat="44.10875281068596" lon="11.989848012000166"><ele>161.0</ele><time>2026-04-03T11:45:07.844Z</time></trkpt><trkpt lat="44.10886033896778" lon="11.989804724928087"><ele>159.0</ele><time>2026-04-03T11:45:08.844Z</time></trkpt><trkpt lat="44.10896146966172" lon="11.989751180052068"><ele>159.0</ele><time>2026-04-03T11:45:09.844Z</time></trkpt><trkpt lat="44.10905732911267" lon="11.989693539561511"><ele>159.0</ele><time>2026-04-03T11:45:10.844Z</time></trkpt><trkpt lat="44.10915266268628" lon="11.989643499297314"><ele>159.0</ele><time>2026-04-03T11:45:11.844Z</time></trkpt><trkpt lat="44.1092439291774" lon="11.989605428876475"><ele>159.0</ele><time>2026-04-03T11:45:12.844Z</time></trkpt><trkpt lat="44.109317352342394" lon="11.989549696667604"><ele>159.0</ele><time>2026-04-03T11:45:13.844Z</time></trkpt><trkpt lat="44.10935474726246" lon="11.989468953711487"><ele>159.0</ele><time>2026-04-03T11:45:14.844Z</time></trkpt><trkpt lat="44.10934850275402" lon="11.98937578536109"><ele>159.0</ele><time>2026-04-03T11:45:15.844Z</time></trkpt><trkpt lat="44.10929370799055" lon="11.989322220794156"><ele>159.0</ele><time>2026-04-03T11:45:16.844Z</time></trkpt><trkpt lat="44.109214576003346" lon="11.989297278691557"><ele>159.0</ele><time>2026-04-03T11:45:17.844Z</time></trkpt><trkpt lat="44.109115948336786" lon="11.989290224277356"><ele>159.0</ele><time>2026-04-03T11:45:18.844Z</time></trkpt><trkpt lat="44.10900452027954" lon="11.989298839460083"><ele>159.0</ele><time>2026-04-03T11:45:19.844Z</time></trkpt><trkpt lat="44.108894982237054" lon="11.989305697932952"><ele>159.0</ele><time>2026-04-03T11:45:20.844Z</time></trkpt><trkpt lat="44.10879145307655" lon="11.989310760741676"><ele>159.0</ele><time>2026-04-03T11:45:21.844Z</time></trkpt><trkpt lat="44.108696991418164" lon="11.989312035214638"><ele>159.0</ele><time>2026-04-03T11:45:22.844Z</time></trkpt><trkpt lat="44.10862487070244" lon="11.98929107249154"><ele>159.0</ele><time>2026-04-03T11:45:23.844Z</time></trkpt><trkpt lat="44.108562320893995" lon="11.98912356969465"><ele>159.0</ele><time>2026-04-03T11:45:25.844Z</time></trkpt><trkpt lat="44.10858483641559" lon="11.989002860077534"><ele>155.75</ele><time>2026-04-03T11:45:26.844Z</time></trkpt><trkpt lat="44.10864452178506" lon="11.988862657040832"><ele>152.5</ele><time>2026-04-03T11:45:27.844Z</time></trkpt><trkpt lat="44.10872143643237" lon="11.98872827519626"><ele>149.25</ele><time>2026-04-03T11:45:28.844Z</time></trkpt><trkpt lat="44.1088002902298" lon="11.988590587385463"><ele>146.0</ele><time>2026-04-03T11:45:29.844Z</time></trkpt><trkpt lat="44.10887832237045" lon="11.988444705728615"><ele>144.75</ele><time>2026-04-03T11:45:30.844Z</time></trkpt><trkpt lat="44.10896492259021" lon="11.988289323895254"><ele>143.5</ele><time>2026-04-03T11:45:31.844Z</time></trkpt><trkpt lat="44.10904483373776" lon="11.988132893532187"><ele>142.25</ele><time>2026-04-03T11:45:32.844Z</time></trkpt><trkpt lat="44.109125045397754" lon="11.987984637617863"><ele>141.0</ele><time>2026-04-03T11:45:33.844Z</time></trkpt><trkpt lat="44.10920766815241" lon="11.987844947901534"><ele>141.0</ele><time>2026-04-03T11:45:34.844Z</time></trkpt><trkpt lat="44.109286022753246" lon="11.98771248133362"><ele>141.0</ele><time>2026-04-03T11:45:35.844Z</time></trkpt><trkpt lat="44.1093586523747" lon="11.987583280753219"><ele>141.0</ele><time>2026-04-03T11:45:36.844Z</time></trkpt><trkpt lat="44.10942061417904" lon="11.987440255647558"><ele>141.0</ele><time>2026-04-03T11:45:37.844Z</time></trkpt><trkpt lat="44.10946378928805" lon="11.987280842483502"><ele>140.0</ele><time>2026-04-03T11:45:38.844Z</time></trkpt><trkpt lat="44.10947720716067" lon="11.98710807356185"><ele>139.0</ele><time>2026-04-03T11:45:39.844Z</time></trkpt><trkpt lat="44.109464917846076" lon="11.986940158849146"><ele>138.0</ele><time>2026-04-03T11:45:40.844Z</time></trkpt><trkpt lat="44.10942287885671" lon="11.986772846272865"><ele>137.0</ele><time>2026-04-03T11:45:41.844Z</time></trkpt><trkpt lat="44.109361082068375" lon="11.986619759863633"><ele>136.25</ele><time>2026-04-03T11:45:42.844Z</time></trkpt><trkpt lat="44.10928843718219" lon="11.986481460625487"><ele>135.5</ele><time>2026-04-03T11:45:43.844Z</time></trkpt><trkpt lat="44.10920815080561" lon="11.98633361286979"><ele>134.75</ele><time>2026-04-03T11:45:44.844Z</time></trkpt><trkpt lat="44.10912187557363" lon="11.986177589313218"><ele>134.0</ele><time>2026-04-03T11:45:45.844Z</time></trkpt><trkpt lat="44.109038522261564" lon="11.98602255652052"><ele>132.75</ele><time>2026-04-03T11:45:46.844Z</time></trkpt><trkpt lat="44.108950067537606" lon="11.985859806880171"><ele>131.5</ele><time>2026-04-03T11:45:47.844Z</time></trkpt><trkpt lat="44.108859837483905" lon="11.985700730182732"><ele>130.25</ele><time>2026-04-03T11:45:48.844Z</time></trkpt><trkpt lat="44.1087761065172" lon="11.98554059249555"><ele>129.0</ele><time>2026-04-03T11:45:49.844Z</time></trkpt><trkpt lat="44.10868934068866" lon="11.985384801768342"><ele>128.75</ele><time>2026-04-03T11:45:50.844Z</time></trkpt><trkpt lat="44.10860312885464" lon="11.98522629552068"><ele>128.5</ele><time>2026-04-03T11:45:51.844Z</time></trkpt><trkpt lat="44.10851683417861" lon="11.985059524603738"><ele>128.25</ele><time>2026-04-03T11:45:52.844Z</time></trkpt><trkpt lat="44.1084294238407" lon="11.984892473784608"><ele>128.0</ele><time>2026-04-03T11:45:53.844Z</time></trkpt><trkpt lat="44.108341292256846" lon="11.984727444251073"><ele>127.25</ele><time>2026-04-03T11:45:54.844Z</time></trkpt><trkpt lat="44.10825150031026" lon="11.984563339330302"><ele>126.5</ele><time>2026-04-03T11:45:55.844Z</time></trkpt><trkpt lat="44.10816309940276" lon="11.984394633059393"><ele>125.75</ele><time>2026-04-03T11:45:56.844Z</time></trkpt><trkpt lat="44.108079005863736" lon="11.984230467757714"><ele>125.0</ele><time>2026-04-03T11:45:57.844Z</time></trkpt><trkpt lat="44.10799842919973" lon="11.984066641017911"><ele>123.75</ele><time>2026-04-03T11:45:58.844Z</time></trkpt><trkpt lat="44.10791504196374" lon="11.98390601903732"><ele>122.5</ele><time>2026-04-03T11:45:59.844Z</time></trkpt><trkpt lat="44.10782929805396" lon="11.983751240500496"><ele>121.25</ele><time>2026-04-03T11:46:00.844Z</time></trkpt><trkpt lat="44.10774558330263" lon="11.983595521260266"><ele>120.0</ele><time>2026-04-03T11:46:01.844Z</time></trkpt><trkpt lat="44.10766048205969" lon="11.983442119385026"><ele>120.75</ele><time>2026-04-03T11:46:02.844Z</time></trkpt><trkpt lat="44.107573409836846" lon="11.98328788854166"><ele>121.5</ele><time>2026-04-03T11:46:03.844Z</time></trkpt><trkpt lat="44.10748897749817" lon="11.983130199021998"><ele>122.25</ele><time>2026-04-03T11:46:04.844Z</time></trkpt><trkpt lat="44.107407533308695" lon="11.98297622926945"><ele>123.0</ele><time>2026-04-03T11:46:05.844Z</time></trkpt><trkpt lat="44.10732705913207" lon="11.982823905230745"><ele>123.5</ele><time>2026-04-03T11:46:06.844Z</time></trkpt><trkpt lat="44.107245233667584" lon="11.982677128342546"><ele>124.0</ele><time>2026-04-03T11:46:07.844Z</time></trkpt><trkpt lat="44.10716407206392" lon="11.98253083758138"><ele>124.5</ele><time>2026-04-03T11:46:08.844Z</time></trkpt><trkpt lat="44.10708573838554" lon="11.982384672574367"><ele>125.0</ele><time>2026-04-03T11:46:09.844Z</time></trkpt><trkpt lat="44.10701142160465" lon="11.9822477853845"><ele>125.49999999999999</ele><time>2026-04-03T11:46:10.843Z</time></trkpt><trkpt lat="44.10693884513063" lon="11.982119115776063"><ele>126.0</ele><time>2026-04-03T11:46:11.843Z</time></trkpt><trkpt lat="44.10687479987546" lon="11.982001666323336"><ele>126.5</ele><time>2026-04-03T11:46:12.843Z</time></trkpt><trkpt lat="44.106819760448005" lon="11.981901254254305"><ele>127.0</ele><time>2026-04-03T11:46:13.843Z</time></trkpt><trkpt lat="44.10678657811035" lon="11.981824191320358"><ele>127.49999999999999</ele><time>2026-04-03T11:46:14.843Z</time></trkpt><trkpt lat="44.10674537861417" lon="11.981755248678933"><ele>128.0</ele><time>2026-04-03T11:46:22.841Z</time></trkpt><trkpt lat="44.106721291514525" lon="11.9816738733042"><ele>128.16666666666666</ele><time>2026-04-03T11:46:29.84Z</time></trkpt><trkpt lat="44.10661785898609" lon="11.981618210740864"><ele>128.33333333333331</ele><time>2026-04-03T11:46:34.841Z</time></trkpt><trkpt lat="44.10654849536761" lon="11.981641567242606"><ele>128.5</ele><time>2026-04-03T11:46:35.841Z</time></trkpt><trkpt lat="44.106462881952254" lon="11.981661136302751"><ele>128.66666666666666</ele><time>2026-04-03T11:46:36.841Z</time></trkpt><trkpt lat="44.10637539309385" lon="11.981682058683486"><ele>128.83333333333334</ele><time>2026-04-03T11:46:37.841Z</time></trkpt><trkpt lat="44.10628820539374" lon="11.981709999637435"><ele>129.0</ele><time>2026-04-03T11:46:38.841Z</time></trkpt><trkpt lat="44.10619480588256" lon="11.981722111992712"><ele>128.5</ele><time>2026-04-03T11:46:39.841Z</time></trkpt><trkpt lat="44.106111140521044" lon="11.981721719634406"><ele>128.0</ele><time>2026-04-03T11:46:40.841Z</time></trkpt><trkpt lat="44.10603193676477" lon="11.981715584064476"><ele>127.5</ele><time>2026-04-03T11:46:41.841Z</time></trkpt><trkpt lat="44.10596124448574" lon="11.981713268748125"><ele>127.0</ele><time>2026-04-03T11:46:42.841Z</time></trkpt><trkpt lat="44.10588862592358" lon="11.981716728086678"><ele>126.5</ele><time>2026-04-03T11:46:43.841Z</time></trkpt><trkpt lat="44.105810592894485" lon="11.981720643169972"><ele>126.0</ele><time>2026-04-03T11:46:44.841Z</time></trkpt><trkpt lat="44.105734277831175" lon="11.98172301840493"><ele>126.0</ele><time>2026-04-03T11:46:45.841Z</time></trkpt><trkpt lat="44.10566425940535" lon="11.981717004007184"><ele>126.0</ele><time>2026-04-03T11:46:46.841Z</time></trkpt><trkpt lat="44.105599546486694" lon="11.981711871472548"><ele>126.0</ele><time>2026-04-03T11:46:47.841Z</time></trkpt><trkpt lat="44.105531864320426" lon="11.981707003219812"><ele>126.0</ele><time>2026-04-03T11:46:48.841Z</time></trkpt><trkpt lat="44.10541039113446" lon="11.981698764706763"><ele>126.0</ele><time>2026-04-03T11:46:50.841Z</time></trkpt><trkpt lat="44.10534143623956" lon="11.981695868826924"><ele>126.0</ele><time>2026-04-03T11:46:51.841Z</time></trkpt><trkpt lat="44.105260543081705" lon="11.981691948724007"><ele>126.0</ele><time>2026-04-03T11:46:52.841Z</time></trkpt><trkpt lat="44.105170593545296" lon="11.981689989493441"><ele>126.0</ele><time>2026-04-03T11:46:53.841Z</time></trkpt><trkpt lat="44.10508021481204" lon="11.98168463498741"><ele>126.0</ele><time>2026-04-03T11:46:54.841Z</time></trkpt><trkpt lat="44.10499380376139" lon="11.981681417180324"><ele>126.0</ele><time>2026-04-03T11:46:55.841Z</time></trkpt><trkpt lat="44.10491014607707" lon="11.981674536947356"><ele>126.0</ele><time>2026-04-03T11:46:56.841Z</time></trkpt><trkpt lat="44.10482409031104" lon="11.981667754173099"><ele>126.0</ele><time>2026-04-03T11:46:57.841Z</time></trkpt><trkpt lat="44.10474222040799" lon="11.981662005439054"><ele>127.0</ele><time>2026-04-03T11:46:58.841Z</time></trkpt><trkpt lat="44.10466712403016" lon="11.98165765230319"><ele>128.0</ele><time>2026-04-03T11:46:59.841Z</time></trkpt><trkpt lat="44.10458656342806" lon="11.981667891549876"><ele>129.0</ele><time>2026-04-03T11:47:00.841Z</time></trkpt><trkpt lat="44.10448434708457" lon="11.981661988043417"><ele>130.0</ele><time>2026-04-03T11:47:01.841Z</time></trkpt><trkpt lat="44.104359171330174" lon="11.981653076179107"><ele>131.0</ele><time>2026-04-03T11:47:02.841Z</time></trkpt><trkpt lat="44.1042231238694" lon="11.981645929533697"><ele>131.0</ele><time>2026-04-03T11:47:03.841Z</time></trkpt><trkpt lat="44.10409285384691" lon="11.981643966663684"><ele>131.0</ele><time>2026-04-03T11:47:04.841Z</time></trkpt><trkpt lat="44.10395348474242" lon="11.98164922453657"><ele>131.0</ele><time>2026-04-03T11:47:05.841Z</time></trkpt><trkpt lat="44.10381401143443" lon="11.98164771325015"><ele>131.0</ele><time>2026-04-03T11:47:06.841Z</time></trkpt><trkpt lat="44.10367569319422" lon="11.981649263199031"><ele>131.25</ele><time>2026-04-03T11:47:07.841Z</time></trkpt><trkpt lat="44.10354777235223" lon="11.981639755487025"><ele>131.5</ele><time>2026-04-03T11:47:08.841Z</time></trkpt><trkpt lat="44.103423288576366" lon="11.981627877155963"><ele>131.75</ele><time>2026-04-03T11:47:09.841Z</time></trkpt><trkpt lat="44.103302166289296" lon="11.981622531563058"><ele>132.0</ele><time>2026-04-03T11:47:10.841Z</time></trkpt><trkpt lat="44.10318883549866" lon="11.98162262815153"><ele>132.0</ele><time>2026-04-03T11:47:11.841Z</time></trkpt><trkpt lat="44.1031160588895" lon="11.981622265520741"><ele>132.0</ele><time>2026-04-03T11:47:12.841Z</time></trkpt><trkpt lat="44.1030254576231" lon="11.981628079520291"><ele>132.0</ele><time>2026-04-03T11:47:15.84Z</time></trkpt><trkpt lat="44.102919732354444" lon="11.981625780771333"><ele>132.0</ele><time>2026-04-03T11:47:17.84Z</time></trkpt><trkpt lat="44.10284178624595" lon="11.981624825053702"><ele>132.0</ele><time>2026-04-03T11:47:18.84Z</time></trkpt><trkpt lat="44.10275293510957" lon="11.98163067606291"><ele>132.0</ele><time>2026-04-03T11:47:19.84Z</time></trkpt><trkpt lat="44.10265603041551" lon="11.981625176561996"><ele>132.0</ele><time>2026-04-03T11:47:20.84Z</time></trkpt><trkpt lat="44.10255114432576" lon="11.98161882293914"><ele>132.0</ele><time>2026-04-03T11:47:21.84Z</time></trkpt><trkpt lat="44.102453581000034" lon="11.981603984581826"><ele>132.0</ele><time>2026-04-03T11:47:22.84Z</time></trkpt><trkpt lat="44.102355369622046" lon="11.98158450741355"><ele>132.0</ele><time>2026-04-03T11:47:23.84Z</time></trkpt><trkpt lat="44.10224783068125" lon="11.981563103332691"><ele>132.0</ele><time>2026-04-03T11:47:24.84Z</time></trkpt><trkpt lat="44.10213834390594" lon="11.981537033272412"><ele>133.0</ele><time>2026-04-03T11:47:25.84Z</time></trkpt><trkpt lat="44.102023503528656" lon="11.98151092990319"><ele>134.0</ele><time>2026-04-03T11:47:26.84Z</time></trkpt><trkpt lat="44.10190461536844" lon="11.981476170259093"><ele>135.0</ele><time>2026-04-03T11:47:27.84Z</time></trkpt><trkpt lat="44.101780234215845" lon="11.981432976964241"><ele>136.0</ele><time>2026-04-03T11:47:28.84Z</time></trkpt><trkpt lat="44.10165727620412" lon="11.981390787529131"><ele>136.5</ele><time>2026-04-03T11:47:29.84Z</time></trkpt><trkpt lat="44.10153241513741" lon="11.9813579079711"><ele>137.0</ele><time>2026-04-03T11:47:30.84Z</time></trkpt><trkpt lat="44.10140367360941" lon="11.981315792805104"><ele>137.5</ele><time>2026-04-03T11:47:31.84Z</time></trkpt><trkpt lat="44.10128346135018" lon="11.981277021171787"><ele>138.0</ele><time>2026-04-03T11:47:32.84Z</time></trkpt><trkpt lat="44.101149936669295" lon="11.981234068521825"><ele>138.0</ele><time>2026-04-03T11:47:33.84Z</time></trkpt><trkpt lat="44.101007624743986" lon="11.981196896768656"><ele>138.0</ele><time>2026-04-03T11:47:34.84Z</time></trkpt><trkpt lat="44.100860879169474" lon="11.981147409831111"><ele>138.0</ele><time>2026-04-03T11:47:35.84Z</time></trkpt><trkpt lat="44.10070763509998" lon="11.981108636618131"><ele>137.66666666666666</ele><time>2026-04-03T11:47:36.84Z</time></trkpt><trkpt lat="44.100559153834325" lon="11.981066824552451"><ele>137.33333333333331</ele><time>2026-04-03T11:47:37.84Z</time></trkpt><trkpt lat="44.10041065219473" lon="11.981042925901054"><ele>137.0</ele><time>2026-04-03T11:47:38.84Z</time></trkpt><trkpt lat="44.10025568692895" lon="11.981040341951717"><ele>137.0</ele><time>2026-04-03T11:47:39.84Z</time></trkpt><trkpt lat="44.10009997566368" lon="11.98105062434118"><ele>137.0</ele><time>2026-04-03T11:47:40.84Z</time></trkpt><trkpt lat="44.09993974029505" lon="11.98107134214594"><ele>137.0</ele><time>2026-04-03T11:47:41.84Z</time></trkpt><trkpt lat="44.0997770142036" lon="11.981091650966196"><ele>138.66666666666666</ele><time>2026-04-03T11:47:42.84Z</time></trkpt><trkpt lat="44.099609254742774" lon="11.981118644781336"><ele>140.33333333333334</ele><time>2026-04-03T11:47:43.84Z</time></trkpt><trkpt lat="44.09943978317648" lon="11.981146368974883"><ele>142.0</ele><time>2026-04-03T11:47:44.84Z</time></trkpt><trkpt lat="44.09926920408669" lon="11.981190381514946"><ele>142.0</ele><time>2026-04-03T11:47:45.84Z</time></trkpt><trkpt lat="44.09910679923306" lon="11.981254460139088"><ele>142.0</ele><time>2026-04-03T11:47:46.84Z</time></trkpt><trkpt lat="44.09893966005696" lon="11.98127708737897"><ele>142.0</ele><time>2026-04-03T11:47:47.84Z</time></trkpt><trkpt lat="44.09877650269112" lon="11.981298615904228"><ele>142.0</ele><time>2026-04-03T11:47:48.84Z</time></trkpt><trkpt lat="44.098614206736585" lon="11.981326808916974"><ele>142.0</ele><time>2026-04-03T11:47:49.84Z</time></trkpt><trkpt lat="44.09845218871616" lon="11.98134948699679"><ele>142.0</ele><time>2026-04-03T11:47:50.84Z</time></trkpt><trkpt lat="44.098289583832674" lon="11.98136934926771"><ele>142.33333333333334</ele><time>2026-04-03T11:47:51.84Z</time></trkpt><trkpt lat="44.09812631827597" lon="11.98139590914266"><ele>142.66666666666666</ele><time>2026-04-03T11:47:52.84Z</time></trkpt><trkpt lat="44.097966766950556" lon="11.981419400128974"><ele>143.0</ele><time>2026-04-03T11:47:53.84Z</time></trkpt><trkpt lat="44.097810026719074" lon="11.981449269193693"><ele>143.0</ele><time>2026-04-03T11:47:54.84Z</time></trkpt><trkpt lat="44.097655064282065" lon="11.981476344643779"><ele>143.0</ele><time>2026-04-03T11:47:55.84Z</time></trkpt><trkpt lat="44.0975034525816" lon="11.981491327874686"><ele>143.0</ele><time>2026-04-03T11:47:56.84Z</time></trkpt><trkpt lat="44.09735064799117" lon="11.9814936715646"><ele>143.66666666666666</ele><time>2026-04-03T11:47:57.84Z</time></trkpt><trkpt lat="44.097196419223394" lon="11.981480305317248"><ele>144.33333333333334</ele><time>2026-04-03T11:47:58.84Z</time></trkpt><trkpt lat="44.09703867213133" lon="11.981434147198213"><ele>145.0</ele><time>2026-04-03T11:47:59.84Z</time></trkpt><trkpt lat="44.096886448155" lon="11.981382162606153"><ele>145.0</ele><time>2026-04-03T11:48:00.84Z</time></trkpt><trkpt lat="44.096732927117706" lon="11.981304476608333"><ele>145.0</ele><time>2026-04-03T11:48:01.84Z</time></trkpt><trkpt lat="44.09658478559026" lon="11.981237314108231"><ele>145.0</ele><time>2026-04-03T11:48:02.84Z</time></trkpt><trkpt lat="44.096435107998246" lon="11.98119671058295"><ele>145.33333333333334</ele><time>2026-04-03T11:48:03.84Z</time></trkpt><trkpt lat="44.09628102371603" lon="11.981148866650534"><ele>145.66666666666666</ele><time>2026-04-03T11:48:04.84Z</time></trkpt><trkpt lat="44.09613233453663" lon="11.981074247026193"><ele>146.0</ele><time>2026-04-03T11:48:05.84Z</time></trkpt><trkpt lat="44.095986059018934" lon="11.980990648355016"><ele>146.0</ele><time>2026-04-03T11:48:06.84Z</time></trkpt><trkpt lat="44.09584060930986" lon="11.980890257903349"><ele>146.0</ele><time>2026-04-03T11:48:07.84Z</time></trkpt><trkpt lat="44.09569367805806" lon="11.980792501740753"><ele>146.0</ele><time>2026-04-03T11:48:08.84Z</time></trkpt><trkpt lat="44.095548402114915" lon="11.980684298903892"><ele>146.66666666666666</ele><time>2026-04-03T11:48:09.84Z</time></trkpt><trkpt lat="44.095403449310055" lon="11.98058211217119"><ele>147.33333333333334</ele><time>2026-04-03T11:48:10.84Z</time></trkpt><trkpt lat="44.095257024081754" lon="11.980483692367764"><ele>148.0</ele><time>2026-04-03T11:48:11.84Z</time></trkpt><trkpt lat="44.09510172195422" lon="11.980380111023122"><ele>148.0</ele><time>2026-04-03T11:48:12.84Z</time></trkpt><trkpt lat="44.09495203406365" lon="11.98027082854731"><ele>148.0</ele><time>2026-04-03T11:48:13.84Z</time></trkpt><trkpt lat="44.094802238024364" lon="11.980157915465206"><ele>148.0</ele><time>2026-04-03T11:48:14.84Z</time></trkpt><trkpt lat="44.09465071112744" lon="11.980049692354331"><ele>148.0</ele><time>2026-04-03T11:48:15.84Z</time></trkpt><trkpt lat="44.094500076991004" lon="11.979948391882205"><ele>148.0</ele><time>2026-04-03T11:48:16.84Z</time></trkpt><trkpt lat="44.094364892676694" lon="11.979842683083087"><ele>148.0</ele><time>2026-04-03T11:48:17.84Z</time></trkpt><trkpt lat="44.094234917941904" lon="11.979745284722501"><ele>148.0</ele><time>2026-04-03T11:48:18.84Z</time></trkpt><trkpt lat="44.094109297484664" lon="11.979651334187741"><ele>148.0</ele><time>2026-04-03T11:48:19.84Z</time></trkpt><trkpt lat="44.09397501342929" lon="11.979572843072704"><ele>148.0</ele><time>2026-04-03T11:48:20.84Z</time></trkpt><trkpt lat="44.09383479050288" lon="11.979511047497102"><ele>148.0</ele><time>2026-04-03T11:48:21.84Z</time></trkpt><trkpt lat="44.09368521801247" lon="11.979471973386495"><ele>148.0</ele><time>2026-04-03T11:48:22.84Z</time></trkpt><trkpt lat="44.09353543120827" lon="11.979474078453308"><ele>148.0</ele><time>2026-04-03T11:48:23.84Z</time></trkpt><trkpt lat="44.09338706694181" lon="11.97950090738592"><ele>148.0</ele><time>2026-04-03T11:48:24.84Z</time></trkpt><trkpt lat="44.093239016790704" lon="11.97955561454991"><ele>149.66666666666669</ele><time>2026-04-03T11:48:25.84Z</time></trkpt><trkpt lat="44.093067380853604" lon="11.979621014000857"><ele>151.33333333333334</ele><time>2026-04-03T11:48:26.84Z</time></trkpt><trkpt lat="44.092893490719526" lon="11.97966344044606"><ele>153.0</ele><time>2026-04-03T11:48:27.837Z</time></trkpt><trkpt lat="44.09271683092302" lon="11.97972112181124"><ele>153.0</ele><time>2026-04-03T11:48:28.837Z</time></trkpt><trkpt lat="44.092527218174965" lon="11.97977770498494"><ele>153.0</ele><time>2026-04-03T11:48:29.837Z</time></trkpt><trkpt lat="44.092343501053215" lon="11.97983324727478"><ele>153.0</ele><time>2026-04-03T11:48:30.837Z</time></trkpt><trkpt lat="44.092156349574196" lon="11.979895941261304"><ele>153.0</ele><time>2026-04-03T11:48:31.837Z</time></trkpt><trkpt lat="44.091975113183295" lon="11.979951762051245"><ele>153.0</ele><time>2026-04-03T11:48:32.837Z</time></trkpt><trkpt lat="44.091803662933934" lon="11.980005092626588"><ele>153.0</ele><time>2026-04-03T11:48:33.837Z</time></trkpt><trkpt lat="44.091635749167736" lon="11.980053818199588"><ele>150.33333333333334</ele><time>2026-04-03T11:48:34.837Z</time></trkpt><trkpt lat="44.09147126714184" lon="11.980097399930319"><ele>147.66666666666669</ele><time>2026-04-03T11:48:35.837Z</time></trkpt><trkpt lat="44.09130584345145" lon="11.980141672503851"><ele>145.0</ele><time>2026-04-03T11:48:36.837Z</time></trkpt><trkpt lat="44.09113739186627" lon="11.980175674264647"><ele>145.0</ele><time>2026-04-03T11:48:37.837Z</time></trkpt><trkpt lat="44.09097949978188" lon="11.980176631210634"><ele>145.0</ele><time>2026-04-03T11:48:38.837Z</time></trkpt><trkpt lat="44.09081124356771" lon="11.980168700505352"><ele>145.0</ele><time>2026-04-03T11:48:39.837Z</time></trkpt><trkpt lat="44.09064030329422" lon="11.980136906290362"><ele>144.66666666666669</ele><time>2026-04-03T11:48:40.837Z</time></trkpt><trkpt lat="44.090463354107065" lon="11.980082711231068"><ele>144.33333333333334</ele><time>2026-04-03T11:48:41.837Z</time></trkpt><trkpt lat="44.09028577537617" lon="11.980017028765943"><ele>144.0</ele><time>2026-04-03T11:48:42.837Z</time></trkpt><trkpt lat="44.09010400577067" lon="11.979927898608492"><ele>145.33333333333334</ele><time>2026-04-03T11:48:43.837Z</time></trkpt><trkpt lat="44.08992474086537" lon="11.97984525715496"><ele>146.66666666666669</ele><time>2026-04-03T11:48:44.837Z</time></trkpt><trkpt lat="44.08975002567802" lon="11.979755571922015"><ele>148.0</ele><time>2026-04-03T11:48:45.837Z</time></trkpt><trkpt lat="44.089577915636085" lon="11.9796669058888"><ele>148.0</ele><time>2026-04-03T11:48:46.837Z</time></trkpt><trkpt lat="44.0894074636994" lon="11.979568478263088"><ele>148.0</ele><time>2026-04-03T11:48:47.837Z</time></trkpt><trkpt lat="44.089244093886464" lon="11.979481438404873"><ele>148.0</ele><time>2026-04-03T11:48:48.837Z</time></trkpt><trkpt lat="44.08907891920909" lon="11.97939648258333"><ele>148.0</ele><time>2026-04-03T11:48:49.837Z</time></trkpt><trkpt lat="44.08892438475653" lon="11.979307371508927"><ele>148.0</ele><time>2026-04-03T11:48:50.837Z</time></trkpt><trkpt lat="44.088772335743265" lon="11.979222051573503"><ele>148.0</ele><time>2026-04-03T11:48:51.837Z</time></trkpt><trkpt lat="44.088620575297654" lon="11.979131200733462"><ele>149.66666666666669</ele><time>2026-04-03T11:48:52.837Z</time></trkpt><trkpt lat="44.088465528379615" lon="11.979040673273529"><ele>151.33333333333334</ele><time>2026-04-03T11:48:53.837Z</time></trkpt><trkpt lat="44.08830948106808" lon="11.978950303794901"><ele>153.0</ele><time>2026-04-03T11:48:54.837Z</time></trkpt><trkpt lat="44.088153464135786" lon="11.978855394303258"><ele>153.0</ele><time>2026-04-03T11:48:55.837Z</time></trkpt><trkpt lat="44.0879953944822" lon="11.978758646520303"><ele>153.0</ele><time>2026-04-03T11:48:56.837Z</time></trkpt><trkpt lat="44.087835736134565" lon="11.97865673209739"><ele>153.0</ele><time>2026-04-03T11:48:57.837Z</time></trkpt><trkpt lat="44.08767286088608" lon="11.978557631736932"><ele>153.0</ele><time>2026-04-03T11:48:58.837Z</time></trkpt><trkpt lat="44.08750813747503" lon="11.97845850494544"><ele>153.0</ele><time>2026-04-03T11:48:59.837Z</time></trkpt><trkpt lat="44.087346242273036" lon="11.978357567638614"><ele>153.0</ele><time>2026-04-03T11:49:00.837Z</time></trkpt><trkpt lat="44.087180596796586" lon="11.978259100590442"><ele>153.33333333333334</ele><time>2026-04-03T11:49:01.837Z</time></trkpt><trkpt lat="44.08702382589506" lon="11.978155582267519"><ele>153.66666666666669</ele><time>2026-04-03T11:49:02.837Z</time></trkpt><trkpt lat="44.08686821414245" lon="11.978053231405262"><ele>154.0</ele><time>2026-04-03T11:49:03.836Z</time></trkpt><trkpt lat="44.08672181188679" lon="11.97796087025627"><ele>153.0</ele><time>2026-04-03T11:49:04.836Z</time></trkpt><trkpt lat="44.0865812262176" lon="11.97787290221723"><ele>152.0</ele><time>2026-04-03T11:49:05.836Z</time></trkpt><trkpt lat="44.08644771456078" lon="11.97777723708355"><ele>151.0</ele><time>2026-04-03T11:49:06.836Z</time></trkpt><trkpt lat="44.086326802993774" lon="11.977670145152386"><ele>150.0</ele><time>2026-04-03T11:49:07.836Z</time></trkpt><trkpt lat="44.086216101926524" lon="11.977548993472274"><ele>150.25</ele><time>2026-04-03T11:49:08.836Z</time></trkpt><trkpt lat="44.08612012214991" lon="11.977401303148214"><ele>150.5</ele><time>2026-04-03T11:49:09.836Z</time></trkpt><trkpt lat="44.08604181648943" lon="11.977244801880497"><ele>150.75</ele><time>2026-04-03T11:49:10.836Z</time></trkpt><trkpt lat="44.08597751841683" lon="11.97706102084335"><ele>151.0</ele><time>2026-04-03T11:49:11.836Z</time></trkpt><trkpt lat="44.08593311733026" lon="11.976851638674795"><ele>151.25</ele><time>2026-04-03T11:49:12.836Z</time></trkpt><trkpt lat="44.08590236973186" lon="11.976649514446057"><ele>151.5</ele><time>2026-04-03T11:49:13.836Z</time></trkpt><trkpt lat="44.08586850754983" lon="11.97645528379759"><ele>151.75</ele><time>2026-04-03T11:49:14.836Z</time></trkpt><trkpt lat="44.085829874210006" lon="11.976270146063303"><ele>152.0</ele><time>2026-04-03T11:49:15.836Z</time></trkpt><trkpt lat="44.08578627317645" lon="11.976097919359827"><ele>152.0</ele><time>2026-04-03T11:49:16.836Z</time></trkpt><trkpt lat="44.08572382670302" lon="11.975932049577255"><ele>152.0</ele><time>2026-04-03T11:49:17.836Z</time></trkpt><trkpt lat="44.08562671051946" lon="11.975814610433211"><ele>152.0</ele><time>2026-04-03T11:49:18.836Z</time></trkpt><trkpt lat="44.085499884636604" lon="11.97572284442435"><ele>152.0</ele><time>2026-04-03T11:49:19.836Z</time></trkpt><trkpt lat="44.08535830575517" lon="11.975647463473537"><ele>152.0</ele><time>2026-04-03T11:49:20.836Z</time></trkpt><trkpt lat="44.08520619633198" lon="11.975582164131637"><ele>152.0</ele><time>2026-04-03T11:49:21.836Z</time></trkpt><trkpt lat="44.08504825069495" lon="11.975560087917625"><ele>152.0</ele><time>2026-04-03T11:49:22.836Z</time></trkpt><trkpt lat="44.084885590513466" lon="11.975597143566176"><ele>152.33333333333331</ele><time>2026-04-03T11:49:23.836Z</time></trkpt><trkpt lat="44.08471670475891" lon="11.975665398720306"><ele>152.66666666666666</ele><time>2026-04-03T11:49:24.836Z</time></trkpt><trkpt lat="44.08453497320421" lon="11.975736241358964"><ele>153.0</ele><time>2026-04-03T11:49:25.836Z</time></trkpt><trkpt lat="44.08435049912362" lon="11.975799014690036"><ele>153.0</ele><time>2026-04-03T11:49:26.836Z</time></trkpt><trkpt lat="44.084169102466504" lon="11.975856268219044"><ele>153.0</ele><time>2026-04-03T11:49:27.836Z</time></trkpt><trkpt lat="44.08399084108142" lon="11.975912080766445"><ele>153.0</ele><time>2026-04-03T11:49:28.836Z</time></trkpt><trkpt lat="44.083816826164856" lon="11.975957319119773"><ele>152.33333333333334</ele><time>2026-04-03T11:49:29.836Z</time></trkpt><trkpt lat="44.08364057288794" lon="11.975989225162463"><ele>151.66666666666669</ele><time>2026-04-03T11:49:30.836Z</time></trkpt><trkpt lat="44.08345465654558" lon="11.975994515401519"><ele>151.0</ele><time>2026-04-03T11:49:31.836Z</time></trkpt><trkpt lat="44.083266008365925" lon="11.975977782682651"><ele>151.66666666666669</ele><time>2026-04-03T11:49:32.836Z</time></trkpt><trkpt lat="44.08307670260139" lon="11.975942082793287"><ele>152.33333333333334</ele><time>2026-04-03T11:49:33.836Z</time></trkpt><trkpt lat="44.082888223279404" lon="11.975893281362039"><ele>153.0</ele><time>2026-04-03T11:49:34.836Z</time></trkpt><trkpt lat="44.0826983578915" lon="11.975826055141722"><ele>154.0</ele><time>2026-04-03T11:49:35.836Z</time></trkpt><trkpt lat="44.08251249985866" lon="11.975763645423841"><ele>155.0</ele><time>2026-04-03T11:49:36.836Z</time></trkpt><trkpt lat="44.0823276570284" lon="11.975687295275117"><ele>156.0</ele><time>2026-04-03T11:49:37.836Z</time></trkpt><trkpt lat="44.08214505871129" lon="11.975606666626609"><ele>156.66666666666666</ele><time>2026-04-03T11:49:38.836Z</time></trkpt><trkpt lat="44.08195901341184" lon="11.975517429010887"><ele>157.33333333333331</ele><time>2026-04-03T11:49:39.836Z</time></trkpt><trkpt lat="44.081769648401114" lon="11.975427377817558"><ele>158.0</ele><time>2026-04-03T11:49:40.836Z</time></trkpt><trkpt lat="44.081577902010636" lon="11.9753306464192"><ele>159.0</ele><time>2026-04-03T11:49:41.836Z</time></trkpt><trkpt lat="44.0813845687268" lon="11.97523808491865"><ele>160.0</ele><time>2026-04-03T11:49:42.836Z</time></trkpt><trkpt lat="44.081190971437884" lon="11.975149232910264"><ele>161.0</ele><time>2026-04-03T11:49:43.836Z</time></trkpt><trkpt lat="44.08099469254233" lon="11.97505936676953"><ele>161.33333333333331</ele><time>2026-04-03T11:49:44.836Z</time></trkpt><trkpt lat="44.08078998393603" lon="11.97497476566887"><ele>161.66666666666666</ele><time>2026-04-03T11:49:45.836Z</time></trkpt><trkpt lat="44.08059765865915" lon="11.974879514000976"><ele>162.0</ele><time>2026-04-03T11:49:46.836Z</time></trkpt><trkpt lat="44.080408514946335" lon="11.97477722436355"><ele>162.0</ele><time>2026-04-03T11:49:47.836Z</time></trkpt><trkpt lat="44.08022289710764" lon="11.974674715525792"><ele>162.0</ele><time>2026-04-03T11:49:48.836Z</time></trkpt><trkpt lat="44.08003459261163" lon="11.974571417139627"><ele>162.0</ele><time>2026-04-03T11:49:49.836Z</time></trkpt><trkpt lat="44.07985405237317" lon="11.974469602462563"><ele>161.33333333333334</ele><time>2026-04-03T11:49:50.836Z</time></trkpt><trkpt lat="44.07967895045171" lon="11.974364906550512"><ele>160.66666666666669</ele><time>2026-04-03T11:49:51.836Z</time></trkpt><trkpt lat="44.079513113620806" lon="11.974268656604636"><ele>160.0</ele><time>2026-04-03T11:49:52.836Z</time></trkpt><trkpt lat="44.07934776433644" lon="11.974169431604052"><ele>161.66666666666669</ele><time>2026-04-03T11:49:53.836Z</time></trkpt><trkpt lat="44.07917950733262" lon="11.974067504256283"><ele>163.33333333333334</ele><time>2026-04-03T11:49:54.836Z</time></trkpt><trkpt lat="44.07901121891093" lon="11.973969155830929"><ele>165.0</ele><time>2026-04-03T11:49:55.836Z</time></trkpt><trkpt lat="44.07884028272471" lon="11.97387560894609"><ele>165.0</ele><time>2026-04-03T11:49:56.836Z</time></trkpt><trkpt lat="44.07866950175472" lon="11.973785618296004"><ele>165.0</ele><time>2026-04-03T11:49:57.836Z</time></trkpt><trkpt lat="44.07849442208332" lon="11.97368954076545"><ele>165.0</ele><time>2026-04-03T11:49:58.836Z</time></trkpt><trkpt lat="44.07831675525565" lon="11.973589529753925"><ele>164.0</ele><time>2026-04-03T11:49:59.836Z</time></trkpt><trkpt lat="44.07813487921454" lon="11.973483606586948"><ele>163.0</ele><time>2026-04-03T11:50:00.836Z</time></trkpt><trkpt lat="44.077946463178755" lon="11.973384770684094"><ele>162.0</ele><time>2026-04-03T11:50:01.836Z</time></trkpt><trkpt lat="44.07774904232727" lon="11.973302366490493"><ele>163.66666666666666</ele><time>2026-04-03T11:50:02.836Z</time></trkpt><trkpt lat="44.077546472491605" lon="11.973241502598663"><ele>165.33333333333331</ele><time>2026-04-03T11:50:03.836Z</time></trkpt><trkpt lat="44.07734250884864" lon="11.973212354116846"><ele>167.0</ele><time>2026-04-03T11:50:04.836Z</time></trkpt><trkpt lat="44.07713267888407" lon="11.9732100413283"><ele>167.0</ele><time>2026-04-03T11:50:05.836Z</time></trkpt><trkpt lat="44.076923786073145" lon="11.973221988614679"><ele>167.0</ele><time>2026-04-03T11:50:06.836Z</time></trkpt><trkpt lat="44.07671493814328" lon="11.973237672534601"><ele>167.0</ele><time>2026-04-03T11:50:07.836Z</time></trkpt><trkpt lat="44.07650591170536" lon="11.973256838018928"><ele>167.33333333333331</ele><time>2026-04-03T11:50:08.836Z</time></trkpt><trkpt lat="44.07630962602089" lon="11.973269517337869"><ele>167.66666666666666</ele><time>2026-04-03T11:50:09.836Z</time></trkpt><trkpt lat="44.076120830137626" lon="11.973285178086176"><ele>168.0</ele><time>2026-04-03T11:50:10.836Z</time></trkpt><trkpt lat="44.07592876296768" lon="11.973302603104269"><ele>167.33333333333334</ele><time>2026-04-03T11:50:11.836Z</time></trkpt><trkpt lat="44.07574352464315" lon="11.973325252591449"><ele>166.66666666666669</ele><time>2026-04-03T11:50:12.836Z</time></trkpt><trkpt lat="44.075572179685615" lon="11.973346219406645"><ele>166.0</ele><time>2026-04-03T11:50:13.836Z</time></trkpt><trkpt lat="44.075398115741486" lon="11.973365291150776"><ele>166.0</ele><time>2026-04-03T11:50:14.836Z</time></trkpt><trkpt lat="44.075236302647326" lon="11.973369074214048"><ele>166.0</ele><time>2026-04-03T11:50:15.836Z</time></trkpt><trkpt lat="44.07507700223951" lon="11.973366092736434"><ele>166.0</ele><time>2026-04-03T11:50:16.836Z</time></trkpt><trkpt lat="44.074919500962004" lon="11.973341125709087"><ele>169.0</ele><time>2026-04-03T11:50:17.836Z</time></trkpt><trkpt lat="44.07476383562704" lon="11.97330690031003"><ele>172.0</ele><time>2026-04-03T11:50:18.836Z</time></trkpt><trkpt lat="44.07460356725186" lon="11.973270771799672"><ele>175.0</ele><time>2026-04-03T11:50:19.836Z</time></trkpt><trkpt lat="44.07444223042319" lon="11.973237016477794"><ele>175.0</ele><time>2026-04-03T11:50:20.836Z</time></trkpt><trkpt lat="44.07427553902841" lon="11.973218071615301"><ele>175.0</ele><time>2026-04-03T11:50:21.836Z</time></trkpt><trkpt lat="44.07410853939742" lon="11.973171546679996"><ele>175.0</ele><time>2026-04-03T11:50:22.836Z</time></trkpt><trkpt lat="44.07393542331662" lon="11.973116103130826"><ele>174.0</ele><time>2026-04-03T11:50:23.836Z</time></trkpt><trkpt lat="44.07376232374083" lon="11.973058183479068"><ele>173.0</ele><time>2026-04-03T11:50:24.836Z</time></trkpt><trkpt lat="44.0735888967276" lon="11.973004142008593"><ele>172.0</ele><time>2026-04-03T11:50:25.836Z</time></trkpt><trkpt lat="44.07342065324116" lon="11.97295960795771"><ele>169.66666666666669</ele><time>2026-04-03T11:50:26.836Z</time></trkpt><trkpt lat="44.07325608943603" lon="11.97291085154265"><ele>167.33333333333334</ele><time>2026-04-03T11:50:27.836Z</time></trkpt><trkpt lat="44.07309271221236" lon="11.972865128121748"><ele>165.0</ele><time>2026-04-03T11:50:28.836Z</time></trkpt><trkpt lat="44.072932401884955" lon="11.972823892079708"><ele>165.0</ele><time>2026-04-03T11:50:29.836Z</time></trkpt><trkpt lat="44.07277518837292" lon="11.97278706601277"><ele>165.0</ele><time>2026-04-03T11:50:30.836Z</time></trkpt><trkpt lat="44.072631604685306" lon="11.972738889841327"><ele>165.0</ele><time>2026-04-03T11:50:31.836Z</time></trkpt><trkpt lat="44.072499584858065" lon="11.972701872981778"><ele>165.0</ele><time>2026-04-03T11:50:32.836Z</time></trkpt><trkpt lat="44.07237802750664" lon="11.972668707811154"><ele>165.0</ele><time>2026-04-03T11:50:33.833Z</time></trkpt><trkpt lat="44.072261152370835" lon="11.972639069794505"><ele>165.0</ele><time>2026-04-03T11:50:34.834Z</time></trkpt><trkpt lat="44.072144477822796" lon="11.972612524106925"><ele>165.0</ele><time>2026-04-03T11:50:35.834Z</time></trkpt><trkpt lat="44.072027798777675" lon="11.97257456593635"><ele>165.0</ele><time>2026-04-03T11:50:36.833Z</time></trkpt><trkpt lat="44.07190726329608" lon="11.972545328726918"><ele>165.5</ele><time>2026-04-03T11:50:37.833Z</time></trkpt><trkpt lat="44.07178154697727" lon="11.972516764295412"><ele>166.0</ele><time>2026-04-03T11:50:38.833Z</time></trkpt><trkpt lat="44.071653367123936" lon="11.972486767569965"><ele>166.5</ele><time>2026-04-03T11:50:39.833Z</time></trkpt><trkpt lat="44.0715202972626" lon="11.972453810704781"><ele>167.0</ele><time>2026-04-03T11:50:40.833Z</time></trkpt><trkpt lat="44.071378222185785" lon="11.97242410151456"><ele>167.25</ele><time>2026-04-03T11:50:41.833Z</time></trkpt><trkpt lat="44.071237956194736" lon="11.972388386441274"><ele>167.5</ele><time>2026-04-03T11:50:42.832Z</time></trkpt><trkpt lat="44.071095646161" lon="11.972352096049324"><ele>167.75</ele><time>2026-04-03T11:50:43.833Z</time></trkpt><trkpt lat="44.07095537314206" lon="11.972317721027759"><ele>168.0</ele><time>2026-04-03T11:50:44.833Z</time></trkpt><trkpt lat="44.07081250189553" lon="11.972285136464487"><ele>168.25</ele><time>2026-04-03T11:50:45.833Z</time></trkpt><trkpt lat="44.070663907350074" lon="11.972255368242134"><ele>168.5</ele><time>2026-04-03T11:50:46.833Z</time></trkpt><trkpt lat="44.070518944135785" lon="11.972218174753214"><ele>168.75</ele><time>2026-04-03T11:50:47.833Z</time></trkpt><trkpt lat="44.070372876354035" lon="11.972183993215022"><ele>169.0</ele><time>2026-04-03T11:50:48.833Z</time></trkpt><trkpt lat="44.07022752166458" lon="11.97214640997759"><ele>169.0</ele><time>2026-04-03T11:50:49.833Z</time></trkpt><trkpt lat="44.07008004867049" lon="11.972111476885592"><ele>169.0</ele><time>2026-04-03T11:50:50.833Z</time></trkpt><trkpt lat="44.06993458532821" lon="11.972076294990636"><ele>169.0</ele><time>2026-04-03T11:50:51.833Z</time></trkpt><trkpt lat="44.06978456592557" lon="11.972038863438701"><ele>171.5</ele><time>2026-04-03T11:50:52.833Z</time></trkpt><trkpt lat="44.06963608629327" lon="11.971993028323451"><ele>174.0</ele><time>2026-04-03T11:50:53.833Z</time></trkpt><trkpt lat="44.06949037315406" lon="11.971953957489763"><ele>176.5</ele><time>2026-04-03T11:50:54.833Z</time></trkpt><trkpt lat="44.069349004683374" lon="11.97192230400419"><ele>179.0</ele><time>2026-04-03T11:50:55.833Z</time></trkpt><trkpt lat="44.069208904987185" lon="11.97187833702956"><ele>180.5</ele><time>2026-04-03T11:50:56.833Z</time></trkpt><trkpt lat="44.069074382422244" lon="11.971820934645635"><ele>182.0</ele><time>2026-04-03T11:50:57.833Z</time></trkpt><trkpt lat="44.06894664161971" lon="11.97173558013618"><ele>183.5</ele><time>2026-04-03T11:50:58.833Z</time></trkpt><trkpt lat="44.06881971703658" lon="11.971637058880232"><ele>185.0</ele><time>2026-04-03T11:50:59.833Z</time></trkpt><trkpt lat="44.06869016728236" lon="11.97152981529211"><ele>185.0</ele><time>2026-04-03T11:51:00.833Z</time></trkpt><trkpt lat="44.06856207169191" lon="11.971412535259526"><ele>185.0</ele><time>2026-04-03T11:51:01.833Z</time></trkpt><trkpt lat="44.068432242673296" lon="11.971294662953113"><ele>185.0</ele><time>2026-04-03T11:51:02.833Z</time></trkpt><trkpt lat="44.06829110953951" lon="11.971178619652953"><ele>188.66666666666666</ele><time>2026-04-03T11:51:03.833Z</time></trkpt><trkpt lat="44.06814341630004" lon="11.971080185702721"><ele>192.33333333333331</ele><time>2026-04-03T11:51:04.833Z</time></trkpt><trkpt lat="44.06799122835465" lon="11.970994317594787"><ele>196.0</ele><time>2026-04-03T11:51:05.833Z</time></trkpt><trkpt lat="44.067838108688875" lon="11.970908023451017"><ele>197.0</ele><time>2026-04-03T11:51:06.833Z</time></trkpt><trkpt lat="44.06768543599073" lon="11.970828671889427"><ele>198.0</ele><time>2026-04-03T11:51:07.833Z</time></trkpt><trkpt lat="44.067528726027405" lon="11.970753108890763"><ele>199.0</ele><time>2026-04-03T11:51:08.833Z</time></trkpt><trkpt lat="44.067366051994085" lon="11.970673816907011"><ele>199.0</ele><time>2026-04-03T11:51:09.833Z</time></trkpt><trkpt lat="44.0672089896115" lon="11.970591377528274"><ele>199.0</ele><time>2026-04-03T11:51:10.833Z</time></trkpt><trkpt lat="44.06706270363849" lon="11.970511329381324"><ele>199.0</ele><time>2026-04-03T11:51:11.833Z</time></trkpt><trkpt lat="44.06691596879509" lon="11.970432023214046"><ele>199.0</ele><time>2026-04-03T11:51:12.833Z</time></trkpt><trkpt lat="44.066775007459476" lon="11.970358582211217"><ele>199.0</ele><time>2026-04-03T11:51:13.833Z</time></trkpt><trkpt lat="44.0666467504757" lon="11.970281476805242"><ele>199.0</ele><time>2026-04-03T11:51:14.833Z</time></trkpt><trkpt lat="44.066531322877026" lon="11.970183504116475"><ele>199.0</ele><time>2026-04-03T11:51:15.833Z</time></trkpt><trkpt lat="44.06642822871995" lon="11.970048053745273"><ele>198.0</ele><time>2026-04-03T11:51:16.833Z</time></trkpt><trkpt lat="44.06633558687962" lon="11.969875711074955"><ele>197.0</ele><time>2026-04-03T11:51:17.833Z</time></trkpt><trkpt lat="44.06624185442349" lon="11.969699590466787"><ele>196.0</ele><time>2026-04-03T11:51:18.833Z</time></trkpt><trkpt lat="44.0661642912425" lon="11.969504212766823"><ele>196.0</ele><time>2026-04-03T11:51:19.833Z</time></trkpt><trkpt lat="44.06608904732217" lon="11.969294934098828"><ele>196.0</ele><time>2026-04-03T11:51:20.833Z</time></trkpt><trkpt lat="44.06602158082809" lon="11.96907613807261"><ele>196.0</ele><time>2026-04-03T11:51:21.833Z</time></trkpt><trkpt lat="44.06595278886959" lon="11.96886607377666"><ele>193.66666666666666</ele><time>2026-04-03T11:51:22.833Z</time></trkpt><trkpt lat="44.065886979427326" lon="11.968642551592113"><ele>191.33333333333331</ele><time>2026-04-03T11:51:23.833Z</time></trkpt><trkpt lat="44.065817239797916" lon="11.96841393747431"><ele>189.0</ele><time>2026-04-03T11:51:24.833Z</time></trkpt><trkpt lat="44.06574620969552" lon="11.9681893535921"><ele>187.33333333333334</ele><time>2026-04-03T11:51:25.833Z</time></trkpt><trkpt lat="44.06568104167218" lon="11.967974133037847"><ele>185.66666666666669</ele><time>2026-04-03T11:51:26.833Z</time></trkpt><trkpt lat="44.065615418187384" lon="11.967763263112474"><ele>184.0</ele><time>2026-04-03T11:51:27.833Z</time></trkpt><trkpt lat="44.06555936478893" lon="11.967563988681283"><ele>182.75</ele><time>2026-04-03T11:51:28.833Z</time></trkpt><trkpt lat="44.06551385759861" lon="11.967365301454553"><ele>181.5</ele><time>2026-04-03T11:51:29.833Z</time></trkpt><trkpt lat="44.06547403892397" lon="11.967179053368824"><ele>180.25</ele><time>2026-04-03T11:51:30.833Z</time></trkpt><trkpt lat="44.06543415122634" lon="11.967001178140785"><ele>179.0</ele><time>2026-04-03T11:51:31.833Z</time></trkpt><trkpt lat="44.06536140946331" lon="11.966843217186046"><ele>179.0</ele><time>2026-04-03T11:51:32.833Z</time></trkpt><trkpt lat="44.06526125618965" lon="11.966724191552201"><ele>179.0</ele><time>2026-04-03T11:51:33.833Z</time></trkpt><trkpt lat="44.06513412966184" lon="11.96665277807105"><ele>179.0</ele><time>2026-04-03T11:51:34.833Z</time></trkpt><trkpt lat="44.06498933653575" lon="11.966618311208839"><ele>179.0</ele><time>2026-04-03T11:51:35.833Z</time></trkpt><trkpt lat="44.0648337238248" lon="11.966582420601254"><ele>179.0</ele><time>2026-04-03T11:51:36.833Z</time></trkpt><trkpt lat="44.06466554040466" lon="11.966539366542598"><ele>179.0</ele><time>2026-04-03T11:51:37.833Z</time></trkpt><trkpt lat="44.064492630977924" lon="11.966496227266214"><ele>179.0</ele><time>2026-04-03T11:51:38.833Z</time></trkpt><trkpt lat="44.064328644187725" lon="11.966455947238856"><ele>179.0</ele><time>2026-04-03T11:51:39.833Z</time></trkpt><trkpt lat="44.064171671591374" lon="11.966415058027245"><ele>179.0</ele><time>2026-04-03T11:51:40.833Z</time></trkpt><trkpt lat="44.064023459747006" lon="11.966377779012445"><ele>179.0</ele><time>2026-04-03T11:51:41.833Z</time></trkpt><trkpt lat="44.063887546199474" lon="11.966334697593599"><ele>179.75</ele><time>2026-04-03T11:51:42.833Z</time></trkpt><trkpt lat="44.063757142997886" lon="11.966273897811604"><ele>180.5</ele><time>2026-04-03T11:51:43.833Z</time></trkpt><trkpt lat="44.06363714910128" lon="11.966175825013915"><ele>181.25</ele><time>2026-04-03T11:51:44.833Z</time></trkpt><trkpt lat="44.06352861957942" lon="11.966056050709463"><ele>182.0</ele><time>2026-04-03T11:51:45.833Z</time></trkpt><trkpt lat="44.063449491490616" lon="11.965931987665403"><ele>182.8</ele><time>2026-04-03T11:51:46.832Z</time></trkpt><trkpt lat="44.063412803187475" lon="11.965810599228359"><ele>183.6</ele><time>2026-04-03T11:51:47.832Z</time></trkpt><trkpt lat="44.06342078577093" lon="11.96567324488206"><ele>184.4</ele><time>2026-04-03T11:51:48.832Z</time></trkpt><trkpt lat="44.06346570639301" lon="11.965536330027078"><ele>185.20000000000002</ele><time>2026-04-03T11:51:49.832Z</time></trkpt><trkpt lat="44.06353423598148" lon="11.965418071154817"><ele>186.0</ele><time>2026-04-03T11:51:50.832Z</time></trkpt><trkpt lat="44.06362148920768" lon="11.965342674931994"><ele>186.0</ele><time>2026-04-03T11:51:51.832Z</time></trkpt><trkpt lat="44.063723703331256" lon="11.965300349232306"><ele>186.0</ele><time>2026-04-03T11:51:52.832Z</time></trkpt><trkpt lat="44.063833999966356" lon="11.965314285567661"><ele>186.0</ele><time>2026-04-03T11:51:53.832Z</time></trkpt><trkpt lat="44.063928823031624" lon="11.965368191824307"><ele>186.0</ele><time>2026-04-03T11:51:54.832Z</time></trkpt><trkpt lat="44.06401242103925" lon="11.965461715226041"><ele>186.0</ele><time>2026-04-03T11:51:55.832Z</time></trkpt><trkpt lat="44.06410773377869" lon="11.96553921370733"><ele>186.20000000000002</ele><time>2026-04-03T11:51:56.832Z</time></trkpt><trkpt lat="44.06420957328002" lon="11.965544944805696"><ele>186.4</ele><time>2026-04-03T11:51:57.832Z</time></trkpt><trkpt lat="44.06429816470214" lon="11.965492051791717"><ele>186.6</ele><time>2026-04-03T11:51:58.832Z</time></trkpt><trkpt lat="44.064361347250035" lon="11.965396602641594"><ele>186.8</ele><time>2026-04-03T11:51:59.832Z</time></trkpt><trkpt lat="44.06438041555919" lon="11.965259573154318"><ele>187.0</ele><time>2026-04-03T11:52:00.832Z</time></trkpt><trkpt lat="44.06436281968028" lon="11.965113141911091"><ele>190.5</ele><time>2026-04-03T11:52:01.832Z</time></trkpt><trkpt lat="44.06431828199149" lon="11.964968616539224"><ele>194.0</ele><time>2026-04-03T11:52:02.832Z</time></trkpt><trkpt lat="44.06425429952274" lon="11.964815165269213"><ele>197.5</ele><time>2026-04-03T11:52:03.832Z</time></trkpt><trkpt lat="44.064194461723474" lon="11.964648347532474"><ele>201.0</ele><time>2026-04-03T11:52:04.832Z</time></trkpt><trkpt lat="44.06415719178465" lon="11.964506370824846"><ele>200.33333333333331</ele><time>2026-04-03T11:52:05.832Z</time></trkpt><trkpt lat="44.064077508303015" lon="11.964293119980598"><ele>199.66666666666666</ele><time>2026-04-03T11:52:06.832Z</time></trkpt><trkpt lat="44.0639909433437" lon="11.964087832718269"><ele>199.0</ele><time>2026-04-03T11:52:07.832Z</time></trkpt><trkpt lat="44.063898470644794" lon="11.963867599446134"><ele>199.0</ele><time>2026-04-03T11:52:08.832Z</time></trkpt><trkpt lat="44.0638026128411" lon="11.963650944932475"><ele>199.0</ele><time>2026-04-03T11:52:09.832Z</time></trkpt><trkpt lat="44.063695175837346" lon="11.963453720708648"><ele>199.0</ele><time>2026-04-03T11:52:10.832Z</time></trkpt><trkpt lat="44.063569390171736" lon="11.96327038149454"><ele>197.66666666666666</ele><time>2026-04-03T11:52:11.832Z</time></trkpt><trkpt lat="44.063434978304194" lon="11.963096850248874"><ele>196.33333333333331</ele><time>2026-04-03T11:52:12.832Z</time></trkpt><trkpt lat="44.06329840727341" lon="11.962935107105864"><ele>195.0</ele><time>2026-04-03T11:52:13.832Z</time></trkpt><trkpt lat="44.063168335888506" lon="11.962788800076934"><ele>195.0</ele><time>2026-04-03T11:52:14.832Z</time></trkpt><trkpt lat="44.063049031397036" lon="11.962657603772058"><ele>195.0</ele><time>2026-04-03T11:52:15.832Z</time></trkpt><trkpt lat="44.062938263919" lon="11.962534971784153"><ele>195.0</ele><time>2026-04-03T11:52:16.832Z</time></trkpt><trkpt lat="44.06284643857015" lon="11.96240767787225"><ele>195.0</ele><time>2026-04-03T11:52:17.832Z</time></trkpt><trkpt lat="44.062777991606026" lon="11.962273114892275"><ele>197.5</ele><time>2026-04-03T11:52:18.832Z</time></trkpt><trkpt lat="44.06273050704021" lon="11.962115574627038"><ele>200.0</ele><time>2026-04-03T11:52:19.832Z</time></trkpt><trkpt lat="44.06270740955893" lon="11.961936258830699"><ele>202.5</ele><time>2026-04-03T11:52:20.832Z</time></trkpt><trkpt lat="44.062701602497064" lon="11.961762682373148"><ele>205.0</ele><time>2026-04-03T11:52:21.832Z</time></trkpt><trkpt lat="44.06272622529478" lon="11.96160668422325"><ele>205.25</ele><time>2026-04-03T11:52:22.832Z</time></trkpt><trkpt lat="44.0627807723013" lon="11.961465479711556"><ele>205.5</ele><time>2026-04-03T11:52:23.832Z</time></trkpt><trkpt lat="44.062865378286176" lon="11.961333373210875"><ele>205.75</ele><time>2026-04-03T11:52:24.832Z</time></trkpt><trkpt lat="44.062954086983396" lon="11.961191944989743"><ele>206.0</ele><time>2026-04-03T11:52:25.832Z</time></trkpt><trkpt lat="44.0630122553859" lon="11.96104890762414"><ele>206.0</ele><time>2026-04-03T11:52:26.832Z</time></trkpt><trkpt lat="44.06304594079023" lon="11.96087279988401"><ele>206.0</ele><time>2026-04-03T11:52:27.832Z</time></trkpt><trkpt lat="44.06300892704995" lon="11.960643863297056"><ele>206.0</ele><time>2026-04-03T11:52:28.832Z</time></trkpt><trkpt lat="44.0629395034924" lon="11.960437895684608"><ele>205.33333333333334</ele><time>2026-04-03T11:52:29.832Z</time></trkpt><trkpt lat="44.0628585861849" lon="11.960231434114219"><ele>204.66666666666669</ele><time>2026-04-03T11:52:30.832Z</time></trkpt><trkpt lat="44.06276512587463" lon="11.96001582375733"><ele>204.0</ele><time>2026-04-03T11:52:31.832Z</time></trkpt><trkpt lat="44.06268107429701" lon="11.959794820235224"><ele>206.66666666666669</ele><time>2026-04-03T11:52:32.832Z</time></trkpt><trkpt lat="44.062609009901806" lon="11.95957640023888"><ele>209.33333333333334</ele><time>2026-04-03T11:52:33.832Z</time></trkpt><trkpt lat="44.06255602257209" lon="11.959363387287793"><ele>212.0</ele><time>2026-04-03T11:52:34.832Z</time></trkpt><trkpt lat="44.06250327324269" lon="11.959165603446946"><ele>207.33333333333334</ele><time>2026-04-03T11:52:35.832Z</time></trkpt><trkpt lat="44.06244072009139" lon="11.958980936092589"><ele>202.66666666666669</ele><time>2026-04-03T11:52:36.832Z</time></trkpt><trkpt lat="44.06235391220127" lon="11.958802353392239"><ele>198.0</ele><time>2026-04-03T11:52:37.832Z</time></trkpt><trkpt lat="44.06223074853553" lon="11.958648091383541"><ele>198.0</ele><time>2026-04-03T11:52:38.832Z</time></trkpt><trkpt lat="44.06209638334873" lon="11.958496177780235"><ele>198.0</ele><time>2026-04-03T11:52:39.829Z</time></trkpt><trkpt lat="44.061965561518726" lon="11.958326813830844"><ele>198.0</ele><time>2026-04-03T11:52:40.83Z</time></trkpt><trkpt lat="44.06183360885467" lon="11.958144158804794"><ele>196.0</ele><time>2026-04-03T11:52:41.83Z</time></trkpt><trkpt lat="44.06171041224105" lon="11.957954229611502"><ele>194.0</ele><time>2026-04-03T11:52:42.829Z</time></trkpt><trkpt lat="44.06159367700451" lon="11.957760973827922"><ele>192.0</ele><time>2026-04-03T11:52:43.829Z</time></trkpt><trkpt lat="44.06147965794701" lon="11.957563413756032"><ele>193.33333333333331</ele><time>2026-04-03T11:52:44.829Z</time></trkpt><trkpt lat="44.06137247457607" lon="11.957363473608284"><ele>194.66666666666666</ele><time>2026-04-03T11:52:45.829Z</time></trkpt><trkpt lat="44.061274483196016" lon="11.957165215196655"><ele>196.0</ele><time>2026-04-03T11:52:46.83Z</time></trkpt><trkpt lat="44.0611674798293" lon="11.95699036751711"><ele>196.0</ele><time>2026-04-03T11:52:47.83Z</time></trkpt><trkpt lat="44.06105561884929" lon="11.956827105477482"><ele>196.0</ele><time>2026-04-03T11:52:48.829Z</time></trkpt><trkpt lat="44.06094591469869" lon="11.956673255114362"><ele>196.0</ele><time>2026-04-03T11:52:49.829Z</time></trkpt><trkpt lat="44.06083584076942" lon="11.956538972177864"><ele>195.25</ele><time>2026-04-03T11:52:50.829Z</time></trkpt><trkpt lat="44.06071669649115" lon="11.956408900069494"><ele>194.5</ele><time>2026-04-03T11:52:51.829Z</time></trkpt><trkpt lat="44.06059725049035" lon="11.95628623536209"><ele>193.75</ele><time>2026-04-03T11:52:52.829Z</time></trkpt><trkpt lat="44.06048169192744" lon="11.95617255576541"><ele>193.0</ele><time>2026-04-03T11:52:53.829Z</time></trkpt><trkpt lat="44.06036747491928" lon="11.956056270816017"><ele>193.0</ele><time>2026-04-03T11:52:54.829Z</time></trkpt><trkpt lat="44.06025800333561" lon="11.955948029117929"><ele>193.0</ele><time>2026-04-03T11:52:55.829Z</time></trkpt><trkpt lat="44.06015396837821" lon="11.955842428110277"><ele>193.0</ele><time>2026-04-03T11:52:56.829Z</time></trkpt><trkpt lat="44.060050227918445" lon="11.955745451505916"><ele>193.0</ele><time>2026-04-03T11:52:57.829Z</time></trkpt><trkpt lat="44.05995046926561" lon="11.95565536365643"><ele>192.8</ele><time>2026-04-03T11:52:58.829Z</time></trkpt><trkpt lat="44.059861015772505" lon="11.955569976941911"><ele>192.60000000000002</ele><time>2026-04-03T11:52:59.829Z</time></trkpt><trkpt lat="44.05977783430584" lon="11.95546234899771"><ele>192.39999999999998</ele><time>2026-04-03T11:53:00.829Z</time></trkpt><trkpt lat="44.05969918682981" lon="11.955366766732467"><ele>192.2</ele><time>2026-04-03T11:53:01.829Z</time></trkpt><trkpt lat="44.05962571112439" lon="11.955239121891678"><ele>192.0</ele><time>2026-04-03T11:53:02.829Z</time></trkpt><trkpt lat="44.05958799796476" lon="11.95506947576104"><ele>192.75</ele><time>2026-04-03T11:53:03.829Z</time></trkpt><trkpt lat="44.05956877953134" lon="11.95488273327951"><ele>193.5</ele><time>2026-04-03T11:53:04.829Z</time></trkpt><trkpt lat="44.059552278626306" lon="11.954699025733118"><ele>194.25</ele><time>2026-04-03T11:53:05.829Z</time></trkpt><trkpt lat="44.059533691557434" lon="11.954519799022624"><ele>195.0</ele><time>2026-04-03T11:53:06.829Z</time></trkpt><trkpt lat="44.0595148320386" lon="11.954335186504688"><ele>195.5</ele><time>2026-04-03T11:53:07.829Z</time></trkpt><trkpt lat="44.059494723157485" lon="11.954152546759303"><ele>196.0</ele><time>2026-04-03T11:53:08.829Z</time></trkpt><trkpt lat="44.05946605950291" lon="11.953980035920246"><ele>196.5</ele><time>2026-04-03T11:53:09.829Z</time></trkpt><trkpt lat="44.059427799815104" lon="11.953800988514505"><ele>197.0</ele><time>2026-04-03T11:53:10.829Z</time></trkpt><trkpt lat="44.059379251426606" lon="11.95362212718763"><ele>197.0</ele><time>2026-04-03T11:53:11.829Z</time></trkpt><trkpt lat="44.05932159615947" lon="11.953451659026685"><ele>197.0</ele><time>2026-04-03T11:53:12.829Z</time></trkpt><trkpt lat="44.05926475434346" lon="11.953275133732179"><ele>197.0</ele><time>2026-04-03T11:53:13.829Z</time></trkpt><trkpt lat="44.05920682752847" lon="11.953108326619404"><ele>197.0</ele><time>2026-04-03T11:53:14.829Z</time></trkpt><trkpt lat="44.05913829357715" lon="11.952961493311738"><ele>197.75</ele><time>2026-04-03T11:53:15.829Z</time></trkpt><trkpt lat="44.059056410414065" lon="11.952831130664736"><ele>198.5</ele><time>2026-04-03T11:53:16.829Z</time></trkpt><trkpt lat="44.058966982029155" lon="11.952713344580284"><ele>199.25</ele><time>2026-04-03T11:53:17.829Z</time></trkpt><trkpt lat="44.05887263013994" lon="11.952607968383921"><ele>200.0</ele><time>2026-04-03T11:53:18.829Z</time></trkpt><trkpt lat="44.05877264339796" lon="11.952501511500804"><ele>200.0</ele><time>2026-04-03T11:53:19.829Z</time></trkpt><trkpt lat="44.05867346900025" lon="11.952400435354782"><ele>200.0</ele><time>2026-04-03T11:53:20.829Z</time></trkpt><trkpt lat="44.05857029607591" lon="11.952305101641471"><ele>200.0</ele><time>2026-04-03T11:53:21.829Z</time></trkpt><trkpt lat="44.058478939156174" lon="11.952205235694025"><ele>200.0</ele><time>2026-04-03T11:53:22.829Z</time></trkpt><trkpt lat="44.05838723722269" lon="11.952129537570112"><ele>200.0</ele><time>2026-04-03T11:53:23.829Z</time></trkpt><trkpt lat="44.05829765631817" lon="11.952047457956132"><ele>200.0</ele><time>2026-04-03T11:53:24.829Z</time></trkpt><trkpt lat="44.05820742427623" lon="11.95195816537911"><ele>200.0</ele><time>2026-04-03T11:53:25.829Z</time></trkpt><trkpt lat="44.05812645577413" lon="11.951862060562025"><ele>200.0</ele><time>2026-04-03T11:53:26.829Z</time></trkpt><trkpt lat="44.058049355709905" lon="11.951769067287186"><ele>200.0</ele><time>2026-04-03T11:53:27.829Z</time></trkpt><trkpt lat="44.05798282979976" lon="11.95166496911302"><ele>199.6</ele><time>2026-04-03T11:53:28.829Z</time></trkpt><trkpt lat="44.05793099195818" lon="11.951547970817508"><ele>199.2</ele><time>2026-04-03T11:53:29.829Z</time></trkpt><trkpt lat="44.057898766006836" lon="11.95140761443374"><ele>198.8</ele><time>2026-04-03T11:53:30.829Z</time></trkpt><trkpt lat="44.05787232490699" lon="11.951271438197518"><ele>198.4</ele><time>2026-04-03T11:53:31.829Z</time></trkpt><trkpt lat="44.05785459747208" lon="11.951141807113952"><ele>198.0</ele><time>2026-04-03T11:53:32.829Z</time></trkpt><trkpt lat="44.0578412581908" lon="11.951012642365106"><ele>198.25</ele><time>2026-04-03T11:53:33.829Z</time></trkpt><trkpt lat="44.05781431504224" lon="11.950866384289764"><ele>198.5</ele><time>2026-04-03T11:53:34.829Z</time></trkpt><trkpt lat="44.05777045528693" lon="11.950690626425597"><ele>198.75</ele><time>2026-04-03T11:53:35.829Z</time></trkpt><trkpt lat="44.057726427265564" lon="11.950479224807312"><ele>199.0</ele><time>2026-04-03T11:53:36.829Z</time></trkpt><trkpt lat="44.057687801034284" lon="11.950229295312612"><ele>199.33333333333331</ele><time>2026-04-03T11:53:37.829Z</time></trkpt><trkpt lat="44.05764683943289" lon="11.949933238370614"><ele>199.66666666666669</ele><time>2026-04-03T11:53:38.829Z</time></trkpt><trkpt lat="44.05759732414884" lon="11.949668641409126"><ele>200.0</ele><time>2026-04-03T11:53:39.829Z</time></trkpt><trkpt lat="44.057556085003185" lon="11.949430160539587"><ele>201.0</ele><time>2026-04-03T11:53:40.829Z</time></trkpt><trkpt lat="44.057517257671286" lon="11.949201786213045"><ele>202.0</ele><time>2026-04-03T11:53:41.829Z</time></trkpt><trkpt lat="44.05747690767027" lon="11.948965442855515"><ele>203.0</ele><time>2026-04-03T11:53:42.829Z</time></trkpt><trkpt lat="44.05744270727601" lon="11.948721983162821"><ele>201.33333333333334</ele><time>2026-04-03T11:53:43.829Z</time></trkpt><trkpt lat="44.05741927544412" lon="11.948481315427745"><ele>199.66666666666669</ele><time>2026-04-03T11:53:44.829Z</time></trkpt><trkpt lat="44.05742519111004" lon="11.948247721005297"><ele>198.0</ele><time>2026-04-03T11:53:45.829Z</time></trkpt><trkpt lat="44.057439386886614" lon="11.94805805968104"><ele>198.0</ele><time>2026-04-03T11:53:46.829Z</time></trkpt><trkpt lat="44.057445173910004" lon="11.947895010458243"><ele>198.0</ele><time>2026-04-03T11:53:47.829Z</time></trkpt><trkpt lat="44.057446589565714" lon="11.947733486018832"><ele>198.0</ele><time>2026-04-03T11:53:48.829Z</time></trkpt><trkpt lat="44.057452557523774" lon="11.947558448511755"><ele>198.0</ele><time>2026-04-03T11:53:49.829Z</time></trkpt><trkpt lat="44.05745284972161" lon="11.947373520104287"><ele>198.0</ele><time>2026-04-03T11:53:50.829Z</time></trkpt><trkpt lat="44.057453638508896" lon="11.94717687781378"><ele>198.0</ele><time>2026-04-03T11:53:51.829Z</time></trkpt><trkpt lat="44.05745093799079" lon="11.946963530694967"><ele>198.0</ele><time>2026-04-03T11:53:52.829Z</time></trkpt><trkpt lat="44.057451793443164" lon="11.946732473523301"><ele>199.66666666666669</ele><time>2026-04-03T11:53:53.829Z</time></trkpt><trkpt lat="44.05745626297302" lon="11.946492525658204"><ele>201.33333333333334</ele><time>2026-04-03T11:53:54.829Z</time></trkpt><trkpt lat="44.057461657988085" lon="11.94624786335851"><ele>203.0</ele><time>2026-04-03T11:53:55.829Z</time></trkpt><trkpt lat="44.05746414781129" lon="11.946002850356889"><ele>204.0</ele><time>2026-04-03T11:53:56.829Z</time></trkpt><trkpt lat="44.05746535749101" lon="11.945755309934272"><ele>205.0</ele><time>2026-04-03T11:53:57.829Z</time></trkpt><trkpt lat="44.05747042811025" lon="11.945518447173791"><ele>206.0</ele><time>2026-04-03T11:53:58.829Z</time></trkpt><trkpt lat="44.057470520475114" lon="11.945295968900533"><ele>206.0</ele><time>2026-04-03T11:53:59.829Z</time></trkpt><trkpt lat="44.057462163761585" lon="11.945107048464735"><ele>206.0</ele><time>2026-04-03T11:54:00.829Z</time></trkpt><trkpt lat="44.05742562671953" lon="11.944925279021065"><ele>206.0</ele><time>2026-04-03T11:54:01.829Z</time></trkpt><trkpt lat="44.05735168921353" lon="11.944763529091013"><ele>206.0</ele><time>2026-04-03T11:54:02.829Z</time></trkpt><trkpt lat="44.057246508109365" lon="11.944616375137025"><ele>205.0</ele><time>2026-04-03T11:54:03.829Z</time></trkpt><trkpt lat="44.05712824050283" lon="11.944485135157066"><ele>204.0</ele><time>2026-04-03T11:54:04.829Z</time></trkpt><trkpt lat="44.057038632142316" lon="11.944347249257303"><ele>203.0</ele><time>2026-04-03T11:54:05.829Z</time></trkpt><trkpt lat="44.05698159623702" lon="11.944201111278582"><ele>202.0</ele><time>2026-04-03T11:54:06.829Z</time></trkpt><trkpt lat="44.056937418379306" lon="11.944027505120133"><ele>202.0</ele><time>2026-04-03T11:54:07.829Z</time></trkpt><trkpt lat="44.05691253523252" lon="11.943813122100885"><ele>202.0</ele><time>2026-04-03T11:54:08.829Z</time></trkpt><trkpt lat="44.05689732368747" lon="11.943596658908442"><ele>202.0</ele><time>2026-04-03T11:54:09.829Z</time></trkpt><trkpt lat="44.05688210467594" lon="11.943395990410174"><ele>202.0</ele><time>2026-04-03T11:54:10.829Z</time></trkpt><trkpt lat="44.05687560279331" lon="11.943200985369742"><ele>202.0</ele><time>2026-04-03T11:54:11.829Z</time></trkpt><trkpt lat="44.05686672496602" lon="11.943008630305897"><ele>202.0</ele><time>2026-04-03T11:54:12.829Z</time></trkpt><trkpt lat="44.05686638109023" lon="11.9428147114389"><ele>202.0</ele><time>2026-04-03T11:54:13.829Z</time></trkpt><trkpt lat="44.056898788865226" lon="11.942617216823415"><ele>202.33333333333331</ele><time>2026-04-03T11:54:14.829Z</time></trkpt><trkpt lat="44.056951197011436" lon="11.942420809560035"><ele>202.66666666666669</ele><time>2026-04-03T11:54:15.829Z</time></trkpt><trkpt lat="44.05702963936601" lon="11.942237453864868"><ele>203.0</ele><time>2026-04-03T11:54:16.829Z</time></trkpt><trkpt lat="44.057126263914085" lon="11.942067593775214"><ele>203.0</ele><time>2026-04-03T11:54:17.829Z</time></trkpt><trkpt lat="44.05722350651337" lon="11.94190100214177"><ele>203.0</ele><time>2026-04-03T11:54:18.829Z</time></trkpt><trkpt lat="44.0573213665759" lon="11.941734223047812"><ele>203.0</ele><time>2026-04-03T11:54:19.829Z</time></trkpt><trkpt lat="44.057419120680485" lon="11.941569033744619"><ele>205.66666666666669</ele><time>2026-04-03T11:54:20.829Z</time></trkpt><trkpt lat="44.057515957803055" lon="11.941394150975555"><ele>208.33333333333331</ele><time>2026-04-03T11:54:21.829Z</time></trkpt><trkpt lat="44.05760761028265" lon="11.941231491031331"><ele>211.0</ele><time>2026-04-03T11:54:22.829Z</time></trkpt><trkpt lat="44.05769618382899" lon="11.941069783694244"><ele>211.0</ele><time>2026-04-03T11:54:23.829Z</time></trkpt><trkpt lat="44.057780939426344" lon="11.940900921324195"><ele>211.0</ele><time>2026-04-03T11:54:24.829Z</time></trkpt><trkpt lat="44.05785000782785" lon="11.9407145705174"><ele>211.0</ele><time>2026-04-03T11:54:25.829Z</time></trkpt><trkpt lat="44.05789595574947" lon="11.940517230762088"><ele>211.0</ele><time>2026-04-03T11:54:26.829Z</time></trkpt><trkpt lat="44.05792971888239" lon="11.940307661465665"><ele>210.33333333333331</ele><time>2026-04-03T11:54:27.829Z</time></trkpt><trkpt lat="44.05795548467601" lon="11.940085509012142"><ele>209.66666666666669</ele><time>2026-04-03T11:54:28.829Z</time></trkpt><trkpt lat="44.05797765745765" lon="11.939854315691393"><ele>209.0</ele><time>2026-04-03T11:54:29.829Z</time></trkpt><trkpt lat="44.05800004061662" lon="11.939617204198253"><ele>208.66666666666669</ele><time>2026-04-03T11:54:30.829Z</time></trkpt><trkpt lat="44.0580217097139" lon="11.93937187804314"><ele>208.33333333333331</ele><time>2026-04-03T11:54:31.829Z</time></trkpt><trkpt lat="44.05804525030547" lon="11.939123624812904"><ele>208.0</ele><time>2026-04-03T11:54:32.829Z</time></trkpt><trkpt lat="44.05807351024861" lon="11.938881631235704"><ele>207.66666666666666</ele><time>2026-04-03T11:54:33.829Z</time></trkpt><trkpt lat="44.05810347879759" lon="11.93862965545265"><ele>207.33333333333331</ele><time>2026-04-03T11:54:34.829Z</time></trkpt><trkpt lat="44.058132431531455" lon="11.93837807328777"><ele>207.0</ele><time>2026-04-03T11:54:35.829Z</time></trkpt><trkpt lat="44.05815893778396" lon="11.938133395670734"><ele>206.0</ele><time>2026-04-03T11:54:36.829Z</time></trkpt><trkpt lat="44.05818143511752" lon="11.93787918222162"><ele>205.0</ele><time>2026-04-03T11:54:37.829Z</time></trkpt><trkpt lat="44.05819268397238" lon="11.93763874870988"><ele>204.0</ele><time>2026-04-03T11:54:38.829Z</time></trkpt><trkpt lat="44.05819103619016" lon="11.937411088624803"><ele>204.0</ele><time>2026-04-03T11:54:39.829Z</time></trkpt><trkpt lat="44.05817444984241" lon="11.937178672466466"><ele>204.0</ele><time>2026-04-03T11:54:40.829Z</time></trkpt><trkpt lat="44.05815027817824" lon="11.936957591615334"><ele>204.0</ele><time>2026-04-03T11:54:41.829Z</time></trkpt><trkpt lat="44.05810107492469" lon="11.936737960266809"><ele>205.0</ele><time>2026-04-03T11:54:42.829Z</time></trkpt><trkpt lat="44.05805157992353" lon="11.93651341383143"><ele>206.0</ele><time>2026-04-03T11:54:43.829Z</time></trkpt><trkpt lat="44.057999047761726" lon="11.936288193062056"><ele>207.0</ele><time>2026-04-03T11:54:44.829Z</time></trkpt><trkpt lat="44.057945568893366" lon="11.93606318132533"><ele>208.0</ele><time>2026-04-03T11:54:45.826Z</time></trkpt><trkpt lat="44.05789225918851" lon="11.935827166266904"><ele>209.0</ele><time>2026-04-03T11:54:46.826Z</time></trkpt><trkpt lat="44.057841219619334" lon="11.935604704494967"><ele>210.0</ele><time>2026-04-03T11:54:47.826Z</time></trkpt><trkpt lat="44.057791774162176" lon="11.935383888914712"><ele>210.0</ele><time>2026-04-03T11:54:48.826Z</time></trkpt><trkpt lat="44.05773950803183" lon="11.935171120213605"><ele>210.0</ele><time>2026-04-03T11:54:49.826Z</time></trkpt><trkpt lat="44.05769448807775" lon="11.93497261051987"><ele>210.0</ele><time>2026-04-03T11:54:50.826Z</time></trkpt><trkpt lat="44.05767099735386" lon="11.934780637692327"><ele>211.0</ele><time>2026-04-03T11:54:51.825Z</time></trkpt><trkpt lat="44.057671305197445" lon="11.934576958477946"><ele>212.0</ele><time>2026-04-03T11:54:52.825Z</time></trkpt><trkpt lat="44.05769418624596" lon="11.934362218133858"><ele>213.0</ele><time>2026-04-03T11:54:53.825Z</time></trkpt><trkpt lat="44.0577294962795" lon="11.9341390075144"><ele>213.33333333333331</ele><time>2026-04-03T11:54:54.825Z</time></trkpt><trkpt lat="44.057768371518215" lon="11.933907194201023"><ele>213.66666666666666</ele><time>2026-04-03T11:54:55.826Z</time></trkpt><trkpt lat="44.05780380605312" lon="11.933684029298677"><ele>214.0</ele><time>2026-04-03T11:54:56.826Z</time></trkpt><trkpt lat="44.05784413537098" lon="11.933469835540237"><ele>214.66666666666666</ele><time>2026-04-03T11:54:57.826Z</time></trkpt><trkpt lat="44.05787796158929" lon="11.933253615950273"><ele>215.33333333333331</ele><time>2026-04-03T11:54:58.825Z</time></trkpt><trkpt lat="44.05789569821065" lon="11.933028440954224"><ele>216.0</ele><time>2026-04-03T11:54:59.825Z</time></trkpt><trkpt lat="44.05789583292333" lon="11.932796301195978"><ele>215.66666666666669</ele><time>2026-04-03T11:55:00.825Z</time></trkpt><trkpt lat="44.05788218411774" lon="11.932551900349592"><ele>215.33333333333334</ele><time>2026-04-03T11:55:01.825Z</time></trkpt><trkpt lat="44.05784606741984" lon="11.932313906091547"><ele>215.0</ele><time>2026-04-03T11:55:02.825Z</time></trkpt><trkpt lat="44.057790079775174" lon="11.932071648196965"><ele>215.0</ele><time>2026-04-03T11:55:03.825Z</time></trkpt><trkpt lat="44.05772073018328" lon="11.931837952891795"><ele>215.0</ele><time>2026-04-03T11:55:04.825Z</time></trkpt><trkpt lat="44.0576400811392" lon="11.931621113709511"><ele>215.0</ele><time>2026-04-03T11:55:05.825Z</time></trkpt><trkpt lat="44.057554028762006" lon="11.931408772166943"><ele>215.33333333333334</ele><time>2026-04-03T11:55:06.825Z</time></trkpt><trkpt lat="44.057454207497" lon="11.931206216787862"><ele>215.66666666666669</ele><time>2026-04-03T11:55:07.825Z</time></trkpt><trkpt lat="44.057349682089246" lon="11.931005872270774"><ele>216.0</ele><time>2026-04-03T11:55:08.825Z</time></trkpt><trkpt lat="44.05723841677484" lon="11.93080692985054"><ele>216.0</ele><time>2026-04-03T11:55:09.825Z</time></trkpt><trkpt lat="44.05712894456836" lon="11.93060583624957"><ele>216.0</ele><time>2026-04-03T11:55:10.825Z</time></trkpt><trkpt lat="44.057028241209885" lon="11.930421812051174"><ele>216.0</ele><time>2026-04-03T11:55:11.825Z</time></trkpt><trkpt lat="44.056930771032114" lon="11.930245406901685"><ele>216.0</ele><time>2026-04-03T11:55:12.825Z</time></trkpt><trkpt lat="44.05684953867556" lon="11.93007113356665"><ele>216.0</ele><time>2026-04-03T11:55:13.825Z</time></trkpt><trkpt lat="44.05677957095212" lon="11.929886088107322"><ele>216.0</ele><time>2026-04-03T11:55:14.825Z</time></trkpt><trkpt lat="44.05673423628274" lon="11.929680326468402"><ele>218.33333333333331</ele><time>2026-04-03T11:55:15.825Z</time></trkpt><trkpt lat="44.05670976473467" lon="11.929487112461189"><ele>220.66666666666666</ele><time>2026-04-03T11:55:16.825Z</time></trkpt><trkpt lat="44.05671405664097" lon="11.929280407615718"><ele>223.0</ele><time>2026-04-03T11:55:17.825Z</time></trkpt><trkpt lat="44.056736969373716" lon="11.929056367319205"><ele>223.0</ele><time>2026-04-03T11:55:18.825Z</time></trkpt><trkpt lat="44.05677452235646" lon="11.928831226878264"><ele>223.0</ele><time>2026-04-03T11:55:19.825Z</time></trkpt><trkpt lat="44.0568207218429" lon="11.928599229614468"><ele>223.0</ele><time>2026-04-03T11:55:20.825Z</time></trkpt><trkpt lat="44.05686708889506" lon="11.92835850248679"><ele>223.0</ele><time>2026-04-03T11:55:21.825Z</time></trkpt><trkpt lat="44.05691095714688" lon="11.928117791777327"><ele>223.0</ele><time>2026-04-03T11:55:22.825Z</time></trkpt><trkpt lat="44.05695749412705" lon="11.927882170099085"><ele>223.0</ele><time>2026-04-03T11:55:23.825Z</time></trkpt><trkpt lat="44.057003791072326" lon="11.927665126108066"><ele>222.33333333333331</ele><time>2026-04-03T11:55:24.825Z</time></trkpt><trkpt lat="44.05704857137811" lon="11.92745933390233"><ele>221.66666666666669</ele><time>2026-04-03T11:55:25.825Z</time></trkpt><trkpt lat="44.057088407969005" lon="11.927253633569691"><ele>221.0</ele><time>2026-04-03T11:55:26.825Z</time></trkpt><trkpt lat="44.057127768767344" lon="11.927057345159435"><ele>221.0</ele><time>2026-04-03T11:55:27.825Z</time></trkpt><trkpt lat="44.057155139987394" lon="11.926871338516918"><ele>221.0</ele><time>2026-04-03T11:55:28.825Z</time></trkpt><trkpt lat="44.05714966810412" lon="11.926694331678208"><ele>221.0</ele><time>2026-04-03T11:55:29.825Z</time></trkpt><trkpt lat="44.05710755649243" lon="11.926519416162916"><ele>221.0</ele><time>2026-04-03T11:55:30.825Z</time></trkpt><trkpt lat="44.05703080890566" lon="11.926341421164096"><ele>220.33333333333334</ele><time>2026-04-03T11:55:31.825Z</time></trkpt><trkpt lat="44.056931152889746" lon="11.926147439763344"><ele>219.66666666666669</ele><time>2026-04-03T11:55:32.825Z</time></trkpt><trkpt lat="44.056824155532844" lon="11.925947309763302"><ele>219.0</ele><time>2026-04-03T11:55:33.825Z</time></trkpt><trkpt lat="44.05671616752574" lon="11.925747225064464"><ele>218.33333333333331</ele><time>2026-04-03T11:55:34.825Z</time></trkpt><trkpt lat="44.056604734134254" lon="11.925535602414012"><ele>217.66666666666666</ele><time>2026-04-03T11:55:35.825Z</time></trkpt><trkpt lat="44.05649249538251" lon="11.925323724559918"><ele>217.0</ele><time>2026-04-03T11:55:36.825Z</time></trkpt><trkpt lat="44.056375226309164" lon="11.925114537979013"><ele>218.33333333333331</ele><time>2026-04-03T11:55:37.825Z</time></trkpt><trkpt lat="44.056258747604865" lon="11.924903956891159"><ele>219.66666666666669</ele><time>2026-04-03T11:55:38.825Z</time></trkpt><trkpt lat="44.05614703237954" lon="11.92468722734528"><ele>221.0</ele><time>2026-04-03T11:55:39.825Z</time></trkpt><trkpt lat="44.05604372774232" lon="11.924459018302143"><ele>221.0</ele><time>2026-04-03T11:55:40.825Z</time></trkpt><trkpt lat="44.05595022147427" lon="11.924233578497148"><ele>221.0</ele><time>2026-04-03T11:55:41.825Z</time></trkpt><trkpt lat="44.05586971983237" lon="11.923994195285596"><ele>221.0</ele><time>2026-04-03T11:55:42.825Z</time></trkpt><trkpt lat="44.05579370668614" lon="11.92375701200193"><ele>220.33333333333334</ele><time>2026-04-03T11:55:43.825Z</time></trkpt><trkpt lat="44.055726408678915" lon="11.923511017759491"><ele>219.66666666666669</ele><time>2026-04-03T11:55:44.825Z</time></trkpt><trkpt lat="44.055663177057184" lon="11.923258997887672"><ele>219.0</ele><time>2026-04-03T11:55:45.825Z</time></trkpt><trkpt lat="44.055601975979656" lon="11.92301018097082"><ele>219.0</ele><time>2026-04-03T11:55:46.825Z</time></trkpt><trkpt lat="44.05555034550903" lon="11.92275658492803"><ele>219.0</ele><time>2026-04-03T11:55:47.825Z</time></trkpt><trkpt lat="44.05550136096063" lon="11.922502438009841"><ele>219.0</ele><time>2026-04-03T11:55:48.825Z</time></trkpt><trkpt lat="44.055453028373336" lon="11.922251520033115"><ele>219.33333333333331</ele><time>2026-04-03T11:55:49.825Z</time></trkpt><trkpt lat="44.05540898689526" lon="11.922012821818806"><ele>219.66666666666666</ele><time>2026-04-03T11:55:50.825Z</time></trkpt><trkpt lat="44.05536081108483" lon="11.921783443732354"><ele>220.0</ele><time>2026-04-03T11:55:51.825Z</time></trkpt><trkpt lat="44.05531469309105" lon="11.921556780547844"><ele>220.66666666666666</ele><time>2026-04-03T11:55:52.825Z</time></trkpt><trkpt lat="44.055270444574795" lon="11.92133599850487"><ele>221.33333333333331</ele><time>2026-04-03T11:55:53.825Z</time></trkpt><trkpt lat="44.05521655328847" lon="11.92112049332691"><ele>222.0</ele><time>2026-04-03T11:55:54.825Z</time></trkpt><trkpt lat="44.05515051154109" lon="11.92091257057638"><ele>221.0</ele><time>2026-04-03T11:55:55.825Z</time></trkpt><trkpt lat="44.05505840435677" lon="11.920723671930245"><ele>220.0</ele><time>2026-04-03T11:55:56.825Z</time></trkpt><trkpt lat="44.054942849961" lon="11.92053987473615"><ele>219.0</ele><time>2026-04-03T11:55:57.825Z</time></trkpt><trkpt lat="44.05481589016537" lon="11.920358284412501"><ele>219.0</ele><time>2026-04-03T11:55:58.825Z</time></trkpt><trkpt lat="44.054696376688895" lon="11.920160452412988"><ele>219.0</ele><time>2026-04-03T11:55:59.825Z</time></trkpt><trkpt lat="44.05458836997712" lon="11.919959384728603"><ele>219.0</ele><time>2026-04-03T11:56:00.825Z</time></trkpt><trkpt lat="44.054486845853596" lon="11.919755104320439"><ele>220.33333333333331</ele><time>2026-04-03T11:56:01.825Z</time></trkpt><trkpt lat="44.05437784885806" lon="11.919561104377717"><ele>221.66666666666666</ele><time>2026-04-03T11:56:02.825Z</time></trkpt><trkpt lat="44.05426115560497" lon="11.919378048002748"><ele>223.0</ele><time>2026-04-03T11:56:03.825Z</time></trkpt><trkpt lat="44.05413274793402" lon="11.919206608660419"><ele>224.0</ele><time>2026-04-03T11:56:04.825Z</time></trkpt><trkpt lat="44.05399817070365" lon="11.919058324521556"><ele>225.0</ele><time>2026-04-03T11:56:05.825Z</time></trkpt><trkpt lat="44.053862257440095" lon="11.91892912090515"><ele>226.0</ele><time>2026-04-03T11:56:06.825Z</time></trkpt><trkpt lat="44.05373343681654" lon="11.9188134806112"><ele>226.0</ele><time>2026-04-03T11:56:07.825Z</time></trkpt><trkpt lat="44.053599366989054" lon="11.918700870747271"><ele>226.0</ele><time>2026-04-03T11:56:08.825Z</time></trkpt><trkpt lat="44.053478551585066" lon="11.918579976244963"><ele>226.0</ele><time>2026-04-03T11:56:09.825Z</time></trkpt><trkpt lat="44.05336923689961" lon="11.918443740243239"><ele>227.0</ele><time>2026-04-03T11:56:10.825Z</time></trkpt><trkpt lat="44.05326396654513" lon="11.91830383910009"><ele>228.0</ele><time>2026-04-03T11:56:11.825Z</time></trkpt><trkpt lat="44.05317018284209" lon="11.918149817616477"><ele>229.0</ele><time>2026-04-03T11:56:12.825Z</time></trkpt><trkpt lat="44.053086540986946" lon="11.917978222322533"><ele>230.0</ele><time>2026-04-03T11:56:13.824Z</time></trkpt><trkpt lat="44.053005529548095" lon="11.91780032550549"><ele>230.0</ele><time>2026-04-03T11:56:14.824Z</time></trkpt><trkpt lat="44.05291898087581" lon="11.9176184996289"><ele>230.0</ele><time>2026-04-03T11:56:15.824Z</time></trkpt><trkpt lat="44.05282725153148" lon="11.917435806045086"><ele>230.0</ele><time>2026-04-03T11:56:16.824Z</time></trkpt><trkpt lat="44.052731647552974" lon="11.917252018203895"><ele>231.0</ele><time>2026-04-03T11:56:17.824Z</time></trkpt><trkpt lat="44.05264329287451" lon="11.917060389598502"><ele>232.0</ele><time>2026-04-03T11:56:18.824Z</time></trkpt><trkpt lat="44.052555330792124" lon="11.916856396754081"><ele>233.0</ele><time>2026-04-03T11:56:19.824Z</time></trkpt><trkpt lat="44.0524650215587" lon="11.916654568980002"><ele>230.66666666666669</ele><time>2026-04-03T11:56:20.824Z</time></trkpt><trkpt lat="44.05238058918563" lon="11.916454875373022"><ele>228.33333333333331</ele><time>2026-04-03T11:56:21.824Z</time></trkpt><trkpt lat="44.05229195852736" lon="11.916250259978119"><ele>226.0</ele><time>2026-04-03T11:56:22.824Z</time></trkpt><trkpt lat="44.05219925667251" lon="11.916046130298303"><ele>228.0</ele><time>2026-04-03T11:56:23.824Z</time></trkpt><trkpt lat="44.05210360552557" lon="11.915843300037904"><ele>230.0</ele><time>2026-04-03T11:56:24.824Z</time></trkpt><trkpt lat="44.05201563858745" lon="11.915636741438579"><ele>232.0</ele><time>2026-04-03T11:56:25.824Z</time></trkpt><trkpt lat="44.051931244961395" lon="11.915434105839472"><ele>232.0</ele><time>2026-04-03T11:56:26.824Z</time></trkpt><trkpt lat="44.05184050368098" lon="11.915233412677537"><ele>232.0</ele><time>2026-04-03T11:56:27.824Z</time></trkpt><trkpt lat="44.051750323997105" lon="11.915023015993127"><ele>232.0</ele><time>2026-04-03T11:56:28.824Z</time></trkpt><trkpt lat="44.051676797033" lon="11.914798098207838"><ele>231.0</ele><time>2026-04-03T11:56:29.824Z</time></trkpt><trkpt lat="44.05161192612153" lon="11.91456530057455"><ele>230.0</ele><time>2026-04-03T11:56:30.824Z</time></trkpt><trkpt lat="44.051555534442564" lon="11.914328883094154"><ele>229.0</ele><time>2026-04-03T11:56:31.824Z</time></trkpt><trkpt lat="44.051495003276145" lon="11.914093263215179"><ele>229.0</ele><time>2026-04-03T11:56:32.824Z</time></trkpt><trkpt lat="44.051416171223195" lon="11.913870851233037"><ele>229.0</ele><time>2026-04-03T11:56:33.824Z</time></trkpt><trkpt lat="44.051320337129205" lon="11.913658287725978"><ele>229.0</ele><time>2026-04-03T11:56:34.824Z</time></trkpt><trkpt lat="44.05120618222727" lon="11.913457703709613"><ele>229.33333333333331</ele><time>2026-04-03T11:56:35.824Z</time></trkpt><trkpt lat="44.05107846546223" lon="11.913265965217395"><ele>229.66666666666669</ele><time>2026-04-03T11:56:36.824Z</time></trkpt><trkpt lat="44.05093269205428" lon="11.913080276409698"><ele>230.0</ele><time>2026-04-03T11:56:37.824Z</time></trkpt><trkpt lat="44.05077888046227" lon="11.912908015595194"><ele>230.0</ele><time>2026-04-03T11:56:38.824Z</time></trkpt><trkpt lat="44.05062808651654" lon="11.912739818425262"><ele>230.0</ele><time>2026-04-03T11:56:39.824Z</time></trkpt><trkpt lat="44.05047137912523" lon="11.912571763910226"><ele>230.0</ele><time>2026-04-03T11:56:40.824Z</time></trkpt><trkpt lat="44.05031271855257" lon="11.912405246569257"><ele>230.66666666666669</ele><time>2026-04-03T11:56:41.824Z</time></trkpt><trkpt lat="44.05016138490043" lon="11.912235475202497"><ele>231.33333333333331</ele><time>2026-04-03T11:56:42.824Z</time></trkpt><trkpt lat="44.05001118792007" lon="11.912068422611032"><ele>232.0</ele><time>2026-04-03T11:56:43.824Z</time></trkpt><trkpt lat="44.04986175235509" lon="11.911909503768502"><ele>232.0</ele><time>2026-04-03T11:56:44.824Z</time></trkpt><trkpt lat="44.04971367427574" lon="11.911751503928791"><ele>232.0</ele><time>2026-04-03T11:56:45.824Z</time></trkpt><trkpt lat="44.049570913756554" lon="11.911607641928583"><ele>232.0</ele><time>2026-04-03T11:56:46.824Z</time></trkpt><trkpt lat="44.0494383492855" lon="11.911466473083292"><ele>233.0</ele><time>2026-04-03T11:56:47.824Z</time></trkpt><trkpt lat="44.0493206163524" lon="11.911326918363285"><ele>234.0</ele><time>2026-04-03T11:56:48.824Z</time></trkpt><trkpt lat="44.04921865352765" lon="11.911189089292902"><ele>235.0</ele><time>2026-04-03T11:56:49.824Z</time></trkpt><trkpt lat="44.0491436982551" lon="11.911038035452961"><ele>236.0</ele><time>2026-04-03T11:56:50.824Z</time></trkpt><trkpt lat="44.04909260297454" lon="11.910866842975524"><ele>236.0</ele><time>2026-04-03T11:56:51.822Z</time></trkpt><trkpt lat="44.04907241975282" lon="11.910666652621224"><ele>236.0</ele><time>2026-04-03T11:56:52.822Z</time></trkpt><trkpt lat="44.049061864829746" lon="11.910452055571541"><ele>236.0</ele><time>2026-04-03T11:56:53.822Z</time></trkpt><trkpt lat="44.049024133005645" lon="11.91024915130777"><ele>237.33333333333334</ele><time>2026-04-03T11:56:54.822Z</time></trkpt><trkpt lat="44.04896161920963" lon="11.910042888676852"><ele>238.66666666666669</ele><time>2026-04-03T11:56:55.822Z</time></trkpt><trkpt lat="44.04887101165335" lon="11.909844224973941"><ele>240.0</ele><time>2026-04-03T11:56:56.822Z</time></trkpt><trkpt lat="44.04876456383276" lon="11.909641408896801"><ele>240.0</ele><time>2026-04-03T11:56:57.822Z</time></trkpt><trkpt lat="44.04865407642693" lon="11.909433733463514"><ele>240.0</ele><time>2026-04-03T11:56:58.822Z</time></trkpt><trkpt lat="44.04854524650178" lon="11.909230624843389"><ele>240.0</ele><time>2026-04-03T11:56:59.822Z</time></trkpt><trkpt lat="44.04845116749319" lon="11.909041796663054"><ele>241.0</ele><time>2026-04-03T11:57:00.822Z</time></trkpt><trkpt lat="44.0483493191746" lon="11.908888645550439"><ele>242.0</ele><time>2026-04-03T11:57:01.822Z</time></trkpt><trkpt lat="44.04822841944998" lon="11.908774701671149"><ele>243.0</ele><time>2026-04-03T11:57:02.821Z</time></trkpt><trkpt lat="44.04808804328472" lon="11.908676016164232"><ele>243.0</ele><time>2026-04-03T11:57:03.822Z</time></trkpt><trkpt lat="44.04793917716165" lon="11.908561696610878"><ele>243.0</ele><time>2026-04-03T11:57:04.822Z</time></trkpt><trkpt lat="44.04779244376978" lon="11.908415448099019"><ele>243.0</ele><time>2026-04-03T11:57:05.822Z</time></trkpt><trkpt lat="44.04765076342688" lon="11.90824583895597"><ele>245.0</ele><time>2026-04-03T11:57:06.822Z</time></trkpt><trkpt lat="44.04751626377946" lon="11.90808197506182"><ele>247.0</ele><time>2026-04-03T11:57:07.822Z</time></trkpt><trkpt lat="44.047387709435554" lon="11.907923758965454"><ele>249.0</ele><time>2026-04-03T11:57:08.822Z</time></trkpt><trkpt lat="44.04726664863611" lon="11.90777297186096"><ele>249.0</ele><time>2026-04-03T11:57:09.822Z</time></trkpt><trkpt lat="44.047143814974575" lon="11.907657437488073"><ele>249.0</ele><time>2026-04-03T11:57:10.822Z</time></trkpt><trkpt lat="44.047001321390304" lon="11.907599641002745"><ele>249.0</ele><time>2026-04-03T11:57:11.822Z</time></trkpt><trkpt lat="44.04686099360746" lon="11.907575565470076"><ele>249.0</ele><time>2026-04-03T11:57:12.822Z</time></trkpt><trkpt lat="44.046730668475355" lon="11.907516408887755"><ele>247.0</ele><time>2026-04-03T11:57:13.822Z</time></trkpt><trkpt lat="44.04660389103789" lon="11.907406036002106"><ele>245.0</ele><time>2026-04-03T11:57:14.822Z</time></trkpt><trkpt lat="44.04648835842652" lon="11.90726268460699"><ele>243.0</ele><time>2026-04-03T11:57:15.822Z</time></trkpt><trkpt lat="44.046371534629436" lon="11.907092072293386"><ele>243.0</ele><time>2026-04-03T11:57:16.822Z</time></trkpt><trkpt lat="44.04625136633779" lon="11.906922180325855"><ele>243.0</ele><time>2026-04-03T11:57:17.822Z</time></trkpt><trkpt lat="44.04612332456363" lon="11.90676265656203"><ele>243.0</ele><time>2026-04-03T11:57:18.822Z</time></trkpt><trkpt lat="44.04598379018286" lon="11.90664398557925"><ele>245.33333333333331</ele><time>2026-04-03T11:57:19.822Z</time></trkpt><trkpt lat="44.045844043747536" lon="11.906545113981926"><ele>247.66666666666666</ele><time>2026-04-03T11:57:20.822Z</time></trkpt><trkpt lat="44.04571617942942" lon="11.906431188801665"><ele>250.0</ele><time>2026-04-03T11:57:21.822Z</time></trkpt><trkpt lat="44.04559825876444" lon="11.906306987892814"><ele>250.0</ele><time>2026-04-03T11:57:22.822Z</time></trkpt><trkpt lat="44.04547489845597" lon="11.906213111929826"><ele>250.0</ele><time>2026-04-03T11:57:23.822Z</time></trkpt><trkpt lat="44.045351453319554" lon="11.90615587432279"><ele>250.0</ele><time>2026-04-03T11:57:24.822Z</time></trkpt><trkpt lat="44.04521706697734" lon="11.906128309221906"><ele>250.0</ele><time>2026-04-03T11:57:25.822Z</time></trkpt><trkpt lat="44.04508084522931" lon="11.906073718678657"><ele>250.66666666666666</ele><time>2026-04-03T11:57:26.822Z</time></trkpt><trkpt lat="44.04494034383327" lon="11.905987576807208"><ele>251.33333333333331</ele><time>2026-04-03T11:57:27.822Z</time></trkpt><trkpt lat="44.044795659367104" lon="11.905872698882764"><ele>252.0</ele><time>2026-04-03T11:57:28.822Z</time></trkpt><trkpt lat="44.044646522705946" lon="11.9057469348183"><ele>252.0</ele><time>2026-04-03T11:57:29.822Z</time></trkpt><trkpt lat="44.04449155240712" lon="11.905608764460473"><ele>252.0</ele><time>2026-04-03T11:57:30.822Z</time></trkpt><trkpt lat="44.04433401264633" lon="11.905466455802223"><ele>252.0</ele><time>2026-04-03T11:57:31.822Z</time></trkpt><trkpt lat="44.04418379171902" lon="11.905345603888414"><ele>251.0</ele><time>2026-04-03T11:57:32.822Z</time></trkpt><trkpt lat="44.04405252210842" lon="11.905236392392828"><ele>250.0</ele><time>2026-04-03T11:57:33.822Z</time></trkpt><trkpt lat="44.04394234395047" lon="11.905131767842976"><ele>249.0</ele><time>2026-04-03T11:57:34.822Z</time></trkpt><trkpt lat="44.0438482214492" lon="11.905013925916366"><ele>248.0</ele><time>2026-04-03T11:57:35.822Z</time></trkpt><trkpt lat="44.04377912464697" lon="11.9048954265963"><ele>248.0</ele><time>2026-04-03T11:57:36.822Z</time></trkpt><trkpt lat="44.04375071315212" lon="11.904759402305311"><ele>248.0</ele><time>2026-04-03T11:57:37.822Z</time></trkpt><trkpt lat="44.043764000888046" lon="11.904610968095609"><ele>248.0</ele><time>2026-04-03T11:57:38.822Z</time></trkpt><trkpt lat="44.04379333939859" lon="11.904457740757362"><ele>248.0</ele><time>2026-04-03T11:57:39.822Z</time></trkpt><trkpt lat="44.04382498818277" lon="11.904294154021173"><ele>248.0</ele><time>2026-04-03T11:57:40.822Z</time></trkpt><trkpt lat="44.04384231163334" lon="11.904124596212952"><ele>248.75</ele><time>2026-04-03T11:57:41.822Z</time></trkpt><trkpt lat="44.043814461577476" lon="11.90394681676001"><ele>249.5</ele><time>2026-04-03T11:57:42.822Z</time></trkpt><trkpt lat="44.04374810561077" lon="11.903774116458168"><ele>250.25</ele><time>2026-04-03T11:57:43.822Z</time></trkpt><trkpt lat="44.043646877871545" lon="11.903577404415785"><ele>251.0</ele><time>2026-04-03T11:57:44.822Z</time></trkpt><trkpt lat="44.04354802517317" lon="11.903371256328505"><ele>253.33333333333334</ele><time>2026-04-03T11:57:45.822Z</time></trkpt><trkpt lat="44.04346515170045" lon="11.903169563939187"><ele>255.66666666666669</ele><time>2026-04-03T11:57:46.822Z</time></trkpt><trkpt lat="44.043406636128935" lon="11.902976681889758"><ele>258.0</ele><time>2026-04-03T11:57:47.822Z</time></trkpt><trkpt lat="44.04335700107235" lon="11.902781760911058"><ele>258.0</ele><time>2026-04-03T11:57:48.822Z</time></trkpt><trkpt lat="44.04334903496971" lon="11.902597206927549"><ele>258.0</ele><time>2026-04-03T11:57:49.822Z</time></trkpt><trkpt lat="44.04333904720157" lon="11.902433109917487"><ele>258.0</ele><time>2026-04-03T11:57:50.822Z</time></trkpt><trkpt lat="44.043282579868254" lon="11.902280079102345"><ele>258.0</ele><time>2026-04-03T11:57:51.822Z</time></trkpt><trkpt lat="44.04317524771567" lon="11.902175010729874"><ele>257.0</ele><time>2026-04-03T11:57:52.822Z</time></trkpt><trkpt lat="44.043027347006266" lon="11.902112894445459"><ele>256.0</ele><time>2026-04-03T11:57:53.822Z</time></trkpt><trkpt lat="44.042887951265776" lon="11.902077508949105"><ele>255.0</ele><time>2026-04-03T11:57:54.822Z</time></trkpt><trkpt lat="44.04275515868171" lon="11.902116399133016"><ele>254.0</ele><time>2026-04-03T11:57:55.822Z</time></trkpt><trkpt lat="44.04262957627792" lon="11.902192264634966"><ele>254.0</ele><time>2026-04-03T11:57:56.822Z</time></trkpt><trkpt lat="44.042493857517336" lon="11.902235052597142"><ele>254.0</ele><time>2026-04-03T11:57:57.822Z</time></trkpt><trkpt lat="44.042361427598564" lon="11.902185087366751"><ele>254.0</ele><time>2026-04-03T11:57:58.822Z</time></trkpt><trkpt lat="44.0422332646864" lon="11.902064134299923"><ele>254.0</ele><time>2026-04-03T11:57:59.822Z</time></trkpt><trkpt lat="44.042101432531304" lon="11.901896471945978"><ele>254.33333333333334</ele><time>2026-04-03T11:58:00.822Z</time></trkpt><trkpt lat="44.041956944359555" lon="11.901725211155577"><ele>254.66666666666669</ele><time>2026-04-03T11:58:01.822Z</time></trkpt><trkpt lat="44.04180134734" lon="11.90156210442189"><ele>255.0</ele><time>2026-04-03T11:58:02.822Z</time></trkpt><trkpt lat="44.041636682495536" lon="11.901421060643175"><ele>253.0</ele><time>2026-04-03T11:58:03.822Z</time></trkpt><trkpt lat="44.041460477366726" lon="11.901301405361824"><ele>251.0</ele><time>2026-04-03T11:58:04.822Z</time></trkpt><trkpt lat="44.04128576082519" lon="11.901209084527713"><ele>249.0</ele><time>2026-04-03T11:58:05.822Z</time></trkpt><trkpt lat="44.04112457268266" lon="11.901129753362317"><ele>249.0</ele><time>2026-04-03T11:58:06.822Z</time></trkpt><trkpt lat="44.04097239359414" lon="11.901046709201296"><ele>249.0</ele><time>2026-04-03T11:58:07.822Z</time></trkpt><trkpt lat="44.04083086874154" lon="11.900936506493165"><ele>249.0</ele><time>2026-04-03T11:58:08.821Z</time></trkpt><trkpt lat="44.04068737135012" lon="11.900788280842262"><ele>248.66666666666669</ele><time>2026-04-03T11:58:09.821Z</time></trkpt><trkpt lat="44.040546858893705" lon="11.900607945955489"><ele>248.33333333333334</ele><time>2026-04-03T11:58:10.821Z</time></trkpt><trkpt lat="44.04040430293133" lon="11.90042224796073"><ele>248.0</ele><time>2026-04-03T11:58:11.821Z</time></trkpt><trkpt lat="44.04027013713229" lon="11.90023694018923"><ele>248.33333333333334</ele><time>2026-04-03T11:58:12.821Z</time></trkpt><trkpt lat="44.04013599714268" lon="11.90007503762398"><ele>248.66666666666669</ele><time>2026-04-03T11:58:13.821Z</time></trkpt><trkpt lat="44.03999110526341" lon="11.899929467695989"><ele>249.0</ele><time>2026-04-03T11:58:14.821Z</time></trkpt><trkpt lat="44.03982595116799" lon="11.89981311617761"><ele>249.0</ele><time>2026-04-03T11:58:15.821Z</time></trkpt><trkpt lat="44.03964632088866" lon="11.899719607517051"><ele>249.0</ele><time>2026-04-03T11:58:16.821Z</time></trkpt><trkpt lat="44.039461621841056" lon="11.899657002364517"><ele>249.0</ele><time>2026-04-03T11:58:17.821Z</time></trkpt><trkpt lat="44.03928694745887" lon="11.89960340638677"><ele>249.0</ele><time>2026-04-03T11:58:18.821Z</time></trkpt><trkpt lat="44.03911768882721" lon="11.899517382797026"><ele>249.0</ele><time>2026-04-03T11:58:19.821Z</time></trkpt><trkpt lat="44.03895154267206" lon="11.899389858749476"><ele>249.0</ele><time>2026-04-03T11:58:20.821Z</time></trkpt><trkpt lat="44.038792457320916" lon="11.899229568973281"><ele>248.66666666666669</ele><time>2026-04-03T11:58:21.821Z</time></trkpt><trkpt lat="44.038637359604635" lon="11.899042580861396"><ele>248.33333333333334</ele><time>2026-04-03T11:58:22.821Z</time></trkpt><trkpt lat="44.0384684108735" lon="11.898875928365879"><ele>248.0</ele><time>2026-04-03T11:58:23.821Z</time></trkpt><trkpt lat="44.03828473031295" lon="11.898741953507903"><ele>248.0</ele><time>2026-04-03T11:58:24.821Z</time></trkpt><trkpt lat="44.03809323466091" lon="11.898616733328453"><ele>248.0</ele><time>2026-04-03T11:58:25.821Z</time></trkpt><trkpt lat="44.037910119414086" lon="11.898488453055553"><ele>248.0</ele><time>2026-04-03T11:58:26.821Z</time></trkpt><trkpt lat="44.03772653392955" lon="11.898351847358752"><ele>249.0</ele><time>2026-04-03T11:58:27.821Z</time></trkpt><trkpt lat="44.03753983509035" lon="11.898242462529149"><ele>250.0</ele><time>2026-04-03T11:58:28.821Z</time></trkpt><trkpt lat="44.037350686604235" lon="11.898114623381169"><ele>251.0</ele><time>2026-04-03T11:58:29.821Z</time></trkpt><trkpt lat="44.03716914056964" lon="11.897990076578338"><ele>251.0</ele><time>2026-04-03T11:58:30.821Z</time></trkpt><trkpt lat="44.03698536794859" lon="11.897877575986262"><ele>251.0</ele><time>2026-04-03T11:58:31.821Z</time></trkpt><trkpt lat="44.03681629327586" lon="11.897749993355328"><ele>251.0</ele><time>2026-04-03T11:58:32.821Z</time></trkpt><trkpt lat="44.03664753290288" lon="11.897640014695634"><ele>253.33333333333334</ele><time>2026-04-03T11:58:33.821Z</time></trkpt><trkpt lat="44.03647722680153" lon="11.89752949028853"><ele>255.66666666666669</ele><time>2026-04-03T11:58:34.821Z</time></trkpt><trkpt lat="44.036314951378" lon="11.897421631214801"><ele>258.0</ele><time>2026-04-03T11:58:35.821Z</time></trkpt><trkpt lat="44.03615873767477" lon="11.897306130363633"><ele>258.0</ele><time>2026-04-03T11:58:36.821Z</time></trkpt><trkpt lat="44.03600376946162" lon="11.897186173881115"><ele>258.0</ele><time>2026-04-03T11:58:37.821Z</time></trkpt><trkpt lat="44.035861984008726" lon="11.897041649150655"><ele>258.0</ele><time>2026-04-03T11:58:38.821Z</time></trkpt><trkpt lat="44.035720990195955" lon="11.896884152700187"><ele>257.0</ele><time>2026-04-03T11:58:39.821Z</time></trkpt><trkpt lat="44.03560404056631" lon="11.89669762778172"><ele>256.0</ele><time>2026-04-03T11:58:40.821Z</time></trkpt><trkpt lat="44.03551167050117" lon="11.896487945038958"><ele>255.0</ele><time>2026-04-03T11:58:41.821Z</time></trkpt><trkpt lat="44.035391261227396" lon="11.896312946052285"><ele>255.0</ele><time>2026-04-03T11:58:42.821Z</time></trkpt><trkpt lat="44.035241813943" lon="11.896187576191268"><ele>255.0</ele><time>2026-04-03T11:58:43.821Z</time></trkpt><trkpt lat="44.035070045519234" lon="11.896082493437575"><ele>255.0</ele><time>2026-04-03T11:58:44.821Z</time></trkpt><trkpt lat="44.03488576951452" lon="11.895969004323923"><ele>256.0</ele><time>2026-04-03T11:58:45.821Z</time></trkpt><trkpt lat="44.03470778466954" lon="11.895872326119274"><ele>257.0</ele><time>2026-04-03T11:58:46.821Z</time></trkpt><trkpt lat="44.03452473608642" lon="11.895779283307826"><ele>258.0</ele><time>2026-04-03T11:58:47.821Z</time></trkpt><trkpt lat="44.03431715164236" lon="11.895670596084233"><ele>256.0</ele><time>2026-04-03T11:58:48.821Z</time></trkpt><trkpt lat="44.034091644332854" lon="11.895549378860997"><ele>254.0</ele><time>2026-04-03T11:58:49.821Z</time></trkpt><trkpt lat="44.0338548078102" lon="11.895396869232837"><ele>254.0</ele><time>2026-04-03T11:58:50.821Z</time></trkpt><trkpt lat="44.0336396617649" lon="11.895249368642572"><ele>254.0</ele><time>2026-04-03T11:58:51.821Z</time></trkpt><trkpt lat="44.033435268805135" lon="11.895118887662257"><ele>256.0</ele><time>2026-04-03T11:58:52.821Z</time></trkpt><trkpt lat="44.03324838400765" lon="11.894997370511462"><ele>258.0</ele><time>2026-04-03T11:58:53.821Z</time></trkpt><trkpt lat="44.03307258124836" lon="11.89488385145913"><ele>260.0</ele><time>2026-04-03T11:58:54.821Z</time></trkpt><trkpt lat="44.03290282762388" lon="11.894771601818693"><ele>260.0</ele><time>2026-04-03T11:58:55.821Z</time></trkpt><trkpt lat="44.03272507335566" lon="11.894686826895878"><ele>260.0</ele><time>2026-04-03T11:58:56.821Z</time></trkpt><trkpt lat="44.032541893993596" lon="11.89466641584094"><ele>260.0</ele><time>2026-04-03T11:58:57.818Z</time></trkpt><trkpt lat="44.032359634066026" lon="11.894677201159272"><ele>259.33333333333337</ele><time>2026-04-03T11:58:58.819Z</time></trkpt><trkpt lat="44.03217206831938" lon="11.89469429723275"><ele>258.6666666666667</ele><time>2026-04-03T11:58:59.819Z</time></trkpt><trkpt lat="44.03198203767992" lon="11.894717770840574"><ele>258.0</ele><time>2026-04-03T11:59:00.819Z</time></trkpt><trkpt lat="44.031795805402915" lon="11.894701580697111"><ele>257.6666666666667</ele><time>2026-04-03T11:59:01.819Z</time></trkpt><trkpt lat="44.03162077965865" lon="11.894624798379633"><ele>257.33333333333337</ele><time>2026-04-03T11:59:02.819Z</time></trkpt><trkpt lat="44.03144734792934" lon="11.8945282259968"><ele>257.0</ele><time>2026-04-03T11:59:03.819Z</time></trkpt><trkpt lat="44.031268899955364" lon="11.894418043870933"><ele>257.0</ele><time>2026-04-03T11:59:04.819Z</time></trkpt><trkpt lat="44.03109957107776" lon="11.89426283220262"><ele>257.0</ele><time>2026-04-03T11:59:05.819Z</time></trkpt><trkpt lat="44.030953781280616" lon="11.894094725214966"><ele>257.0</ele><time>2026-04-03T11:59:06.819Z</time></trkpt><trkpt lat="44.0307872010959" lon="11.893965051961308"><ele>258.33333333333337</ele><time>2026-04-03T11:59:07.819Z</time></trkpt><trkpt lat="44.03060658234932" lon="11.893868196747048"><ele>259.6666666666667</ele><time>2026-04-03T11:59:08.819Z</time></trkpt><trkpt lat="44.030415801144" lon="11.893791055530553"><ele>261.0</ele><time>2026-04-03T11:59:09.819Z</time></trkpt><trkpt lat="44.03020852772568" lon="11.893737171919964"><ele>261.0</ele><time>2026-04-03T11:59:10.818Z</time></trkpt><trkpt lat="44.03000597189947" lon="11.89371388113682"><ele>261.0</ele><time>2026-04-03T11:59:11.818Z</time></trkpt><trkpt lat="44.02981819919592" lon="11.893682582168111"><ele>261.0</ele><time>2026-04-03T11:59:12.818Z</time></trkpt><trkpt lat="44.02963986589574" lon="11.893675610774556"><ele>260.3333333333333</ele><time>2026-04-03T11:59:13.818Z</time></trkpt><trkpt lat="44.02947233994405" lon="11.89370669193383"><ele>259.66666666666663</ele><time>2026-04-03T11:59:14.818Z</time></trkpt><trkpt lat="44.02931524024394" lon="11.893742080879257"><ele>259.0</ele><time>2026-04-03T11:59:15.818Z</time></trkpt><trkpt lat="44.02915378589474" lon="11.893827589144642"><ele>258.66666666666663</ele><time>2026-04-03T11:59:16.818Z</time></trkpt><trkpt lat="44.02900468463014" lon="11.893894922237624"><ele>258.3333333333333</ele><time>2026-04-03T11:59:17.818Z</time></trkpt><trkpt lat="44.028855240975126" lon="11.893899102546989"><ele>258.0</ele><time>2026-04-03T11:59:18.818Z</time></trkpt><trkpt lat="44.02870397368955" lon="11.893866852467527"><ele>258.0</ele><time>2026-04-03T11:59:19.818Z</time></trkpt><trkpt lat="44.02854029708322" lon="11.893790410102147"><ele>258.0</ele><time>2026-04-03T11:59:20.818Z</time></trkpt><trkpt lat="44.02837678870852" lon="11.893701779967682"><ele>258.0</ele><time>2026-04-03T11:59:21.818Z</time></trkpt><trkpt lat="44.02821715069255" lon="11.89356995092201"><ele>257.6666666666667</ele><time>2026-04-03T11:59:22.818Z</time></trkpt><trkpt lat="44.02804485001676" lon="11.893434368321037"><ele>257.33333333333337</ele><time>2026-04-03T11:59:23.818Z</time></trkpt><trkpt lat="44.02785268114525" lon="11.893347227751736"><ele>257.0</ele><time>2026-04-03T11:59:24.818Z</time></trkpt><trkpt lat="44.027645696777654" lon="11.893255690908674"><ele>259.0</ele><time>2026-04-03T11:59:25.818Z</time></trkpt><trkpt lat="44.027447950325666" lon="11.893172124524488"><ele>261.0</ele><time>2026-04-03T11:59:26.818Z</time></trkpt><trkpt lat="44.027245990756796" lon="11.893071212259084"><ele>263.0</ele><time>2026-04-03T11:59:27.818Z</time></trkpt><trkpt lat="44.02703854866826" lon="11.89296997242655"><ele>263.0</ele><time>2026-04-03T11:59:28.818Z</time></trkpt><trkpt lat="44.02683196113858" lon="11.892882784882454"><ele>263.0</ele><time>2026-04-03T11:59:29.818Z</time></trkpt><trkpt lat="44.02663292684535" lon="11.892793954964642"><ele>263.0</ele><time>2026-04-03T11:59:30.818Z</time></trkpt><trkpt lat="44.02643465990341" lon="11.892678610650217"><ele>265.33333333333337</ele><time>2026-04-03T11:59:31.818Z</time></trkpt><trkpt lat="44.02624443351321" lon="11.892543782019054"><ele>267.6666666666667</ele><time>2026-04-03T11:59:32.818Z</time></trkpt><trkpt lat="44.02605923062142" lon="11.892386967339196"><ele>270.0</ele><time>2026-04-03T11:59:33.818Z</time></trkpt><trkpt lat="44.02587887802207" lon="11.892222656833358"><ele>267.6666666666667</ele><time>2026-04-03T11:59:34.818Z</time></trkpt><trkpt lat="44.0257032329834" lon="11.892061258255147"><ele>265.33333333333337</ele><time>2026-04-03T11:59:35.818Z</time></trkpt><trkpt lat="44.025533729793125" lon="11.89191631329857"><ele>263.0</ele><time>2026-04-03T11:59:36.818Z</time></trkpt><trkpt lat="44.02537713240198" lon="11.891785732130705"><ele>263.33333333333337</ele><time>2026-04-03T11:59:37.818Z</time></trkpt><trkpt lat="44.02523256716474" lon="11.891669941755106"><ele>263.6666666666667</ele><time>2026-04-03T11:59:38.818Z</time></trkpt><trkpt lat="44.02509995135523" lon="11.891557704203283"><ele>264.0</ele><time>2026-04-03T11:59:39.818Z</time></trkpt><trkpt lat="44.024970455663485" lon="11.89143131769958"><ele>264.0</ele><time>2026-04-03T11:59:40.818Z</time></trkpt><trkpt lat="44.02485164419299" lon="11.891286573353879"><ele>264.0</ele><time>2026-04-03T11:59:41.818Z</time></trkpt><trkpt lat="44.02474861379716" lon="11.891097285345808"><ele>264.0</ele><time>2026-04-03T11:59:42.818Z</time></trkpt><trkpt lat="44.0246645322126" lon="11.890864334038966"><ele>265.0</ele><time>2026-04-03T11:59:43.818Z</time></trkpt><trkpt lat="44.02459128567056" lon="11.890617265221787"><ele>266.0</ele><time>2026-04-03T11:59:44.818Z</time></trkpt><trkpt lat="44.02452914187398" lon="11.890353656394751"><ele>267.0</ele><time>2026-04-03T11:59:45.818Z</time></trkpt><trkpt lat="44.02446535829812" lon="11.890071207951125"><ele>268.0</ele><time>2026-04-03T11:59:46.818Z</time></trkpt><trkpt lat="44.02439666688379" lon="11.889788246125885"><ele>269.0</ele><time>2026-04-03T11:59:47.818Z</time></trkpt><trkpt lat="44.024328841201616" lon="11.88949347259806"><ele>270.0</ele><time>2026-04-03T11:59:48.818Z</time></trkpt><trkpt lat="44.02426549104983" lon="11.88920512313838"><ele>271.0</ele><time>2026-04-03T11:59:49.818Z</time></trkpt><trkpt lat="44.024204659763015" lon="11.888938169696715"><ele>272.0</ele><time>2026-04-03T11:59:50.818Z</time></trkpt><trkpt lat="44.02414309750668" lon="11.888669167406057"><ele>273.0</ele><time>2026-04-03T11:59:51.818Z</time></trkpt><trkpt lat="44.02407369174679" lon="11.88841350268721"><ele>271.0</ele><time>2026-04-03T11:59:52.818Z</time></trkpt><trkpt lat="44.02401123122057" lon="11.888155803421494"><ele>269.0</ele><time>2026-04-03T11:59:53.818Z</time></trkpt><trkpt lat="44.02394438630802" lon="11.887905207665476"><ele>267.0</ele><time>2026-04-03T11:59:54.818Z</time></trkpt><trkpt lat="44.023876930470024" lon="11.887652261275054"><ele>268.3333333333333</ele><time>2026-04-03T11:59:55.818Z</time></trkpt><trkpt lat="44.023797285806175" lon="11.887400962451984"><ele>269.66666666666663</ele><time>2026-04-03T11:59:56.818Z</time></trkpt><trkpt lat="44.02370410727587" lon="11.887168508641983"><ele>271.0</ele><time>2026-04-03T11:59:57.818Z</time></trkpt><trkpt lat="44.02360389759875" lon="11.886955289322799"><ele>274.3333333333333</ele><time>2026-04-03T11:59:58.818Z</time></trkpt><trkpt lat="44.023502404610895" lon="11.886730032696683"><ele>277.6666666666667</ele><time>2026-04-03T11:59:59.818Z</time></trkpt><trkpt lat="44.0234179323843" lon="11.886497755477714"><ele>281.0</ele><time>2026-04-03T12:00:00.818Z</time></trkpt><trkpt lat="44.023349359517184" lon="11.886240180334427"><ele>277.0</ele><time>2026-04-03T12:00:01.818Z</time></trkpt><trkpt lat="44.02329896974255" lon="11.885967262050558"><ele>273.0</ele><time>2026-04-03T12:00:02.818Z</time></trkpt><trkpt lat="44.023269109770524" lon="11.885688859962842"><ele>269.0</ele><time>2026-04-03T12:00:03.818Z</time></trkpt><trkpt lat="44.023255501476214" lon="11.885410500312222"><ele>269.0</ele><time>2026-04-03T12:00:04.818Z</time></trkpt><trkpt lat="44.02325511555673" lon="11.88513015937312"><ele>269.0</ele><time>2026-04-03T12:00:05.818Z</time></trkpt><trkpt lat="44.023247620585586" lon="11.884846319213414"><ele>269.0</ele><time>2026-04-03T12:00:06.818Z</time></trkpt><trkpt lat="44.02325613440163" lon="11.884540941507046"><ele>270.6666666666667</ele><time>2026-04-03T12:00:07.818Z</time></trkpt><trkpt lat="44.02325228726472" lon="11.884237214552885"><ele>272.3333333333333</ele><time>2026-04-03T12:00:08.818Z</time></trkpt><trkpt lat="44.023253826480875" lon="11.883930924825503"><ele>274.0</ele><time>2026-04-03T12:00:09.818Z</time></trkpt><trkpt lat="44.023257889865334" lon="11.883632593734514"><ele>274.66666666666663</ele><time>2026-04-03T12:00:10.818Z</time></trkpt><trkpt lat="44.02325846062599" lon="11.883354499159545"><ele>275.3333333333333</ele><time>2026-04-03T12:00:11.818Z</time></trkpt><trkpt lat="44.02325411213411" lon="11.883074445572486"><ele>276.0</ele><time>2026-04-03T12:00:12.818Z</time></trkpt><trkpt lat="44.02325529094022" lon="11.882793933476258"><ele>275.6666666666667</ele><time>2026-04-03T12:00:13.818Z</time></trkpt><trkpt lat="44.023267574537584" lon="11.882533165216271"><ele>275.33333333333337</ele><time>2026-04-03T12:00:14.818Z</time></trkpt><trkpt lat="44.02327129006352" lon="11.882280697217663"><ele>275.0</ele><time>2026-04-03T12:00:15.818Z</time></trkpt><trkpt lat="44.02326822213355" lon="11.88204859545147"><ele>275.0</ele><time>2026-04-03T12:00:16.818Z</time></trkpt><trkpt lat="44.023253472870095" lon="11.88182456404432"><ele>275.0</ele><time>2026-04-03T12:00:17.818Z</time></trkpt><trkpt lat="44.02323007056657" lon="11.881587707109945"><ele>275.0</ele><time>2026-04-03T12:00:18.818Z</time></trkpt><trkpt lat="44.0231813174053" lon="11.881370252461668"><ele>275.33333333333337</ele><time>2026-04-03T12:00:19.818Z</time></trkpt><trkpt lat="44.02311292126881" lon="11.881164240168365"><ele>275.6666666666667</ele><time>2026-04-03T12:00:20.818Z</time></trkpt><trkpt lat="44.02301912593842" lon="11.88096804866203"><ele>276.0</ele><time>2026-04-03T12:00:21.818Z</time></trkpt><trkpt lat="44.02292065425942" lon="11.880776211141978"><ele>277.6666666666667</ele><time>2026-04-03T12:00:22.818Z</time></trkpt><trkpt lat="44.02282603318271" lon="11.880580270565353"><ele>279.33333333333337</ele><time>2026-04-03T12:00:23.818Z</time></trkpt><trkpt lat="44.02273983479676" lon="11.880384298689048"><ele>281.0</ele><time>2026-04-03T12:00:24.818Z</time></trkpt><trkpt lat="44.02265790365973" lon="11.88019368869963"><ele>280.5</ele><time>2026-04-03T12:00:25.818Z</time></trkpt><trkpt lat="44.022576814894535" lon="11.88002632480926"><ele>280.0</ele><time>2026-04-03T12:00:26.818Z</time></trkpt><trkpt lat="44.02249987339975" lon="11.879860144646265"><ele>279.5</ele><time>2026-04-03T12:00:27.818Z</time></trkpt><trkpt lat="44.02243991244547" lon="11.879708563901467"><ele>279.0</ele><time>2026-04-03T12:00:28.818Z</time></trkpt><trkpt lat="44.02239092644036" lon="11.879577753901435"><ele>279.0</ele><time>2026-04-03T12:00:29.818Z</time></trkpt><trkpt lat="44.022349109900595" lon="11.879468627586723"><ele>279.0</ele><time>2026-04-03T12:00:30.818Z</time></trkpt><trkpt lat="44.02231106984028" lon="11.879352298231035"><ele>279.0</ele><time>2026-04-03T12:00:31.818Z</time></trkpt><trkpt lat="44.02228063735836" lon="11.87921757247163"><ele>279.0</ele><time>2026-04-03T12:00:32.818Z</time></trkpt><trkpt lat="44.022251457846586" lon="11.879059935137935"><ele>279.0</ele><time>2026-04-03T12:00:33.818Z</time></trkpt><trkpt lat="44.02221274724525" lon="11.878895238496726"><ele>278.75</ele><time>2026-04-03T12:00:34.818Z</time></trkpt><trkpt lat="44.022162403118074" lon="11.878727401411075"><ele>278.5</ele><time>2026-04-03T12:00:35.818Z</time></trkpt><trkpt lat="44.02209046718296" lon="11.878563775610143"><ele>278.25</ele><time>2026-04-03T12:00:36.818Z</time></trkpt><trkpt lat="44.02199891669871" lon="11.878395024296148"><ele>278.0</ele><time>2026-04-03T12:00:37.818Z</time></trkpt><trkpt lat="44.021894091597126" lon="11.87821006059396"><ele>278.0</ele><time>2026-04-03T12:00:38.818Z</time></trkpt><trkpt lat="44.02178537766524" lon="11.87802263444751"><ele>278.0</ele><time>2026-04-03T12:00:39.817Z</time></trkpt><trkpt lat="44.02167176150668" lon="11.87783899088368"><ele>278.0</ele><time>2026-04-03T12:00:40.817Z</time></trkpt><trkpt lat="44.0215589156385" lon="11.877651757405426"><ele>279.25</ele><time>2026-04-03T12:00:41.817Z</time></trkpt><trkpt lat="44.021453366325424" lon="11.877483151400174"><ele>280.5</ele><time>2026-04-03T12:00:42.817Z</time></trkpt><trkpt lat="44.02135640684327" lon="11.877335280889913"><ele>281.75</ele><time>2026-04-03T12:00:43.817Z</time></trkpt><trkpt lat="44.02127077208628" lon="11.877191985019417"><ele>283.0</ele><time>2026-04-03T12:00:44.817Z</time></trkpt><trkpt lat="44.02118573064989" lon="11.877071780493317"><ele>283.0</ele><time>2026-04-03T12:00:45.817Z</time></trkpt><trkpt lat="44.021122303425116" lon="11.87697152576352"><ele>283.0</ele><time>2026-04-03T12:00:46.817Z</time></trkpt><trkpt lat="44.0210811264632" lon="11.876870384352204"><ele>283.0</ele><time>2026-04-03T12:00:47.817Z</time></trkpt><trkpt lat="44.02107005672401" lon="11.876756937726647"><ele>283.0</ele><time>2026-04-03T12:00:48.817Z</time></trkpt><trkpt lat="44.021088020349545" lon="11.876624165168177"><ele>283.0</ele><time>2026-04-03T12:00:49.817Z</time></trkpt><trkpt lat="44.021133742542055" lon="11.876433740938058"><ele>285.66666666666663</ele><time>2026-04-03T12:00:50.817Z</time></trkpt><trkpt lat="44.0211943752718" lon="11.876214637946811"><ele>288.3333333333333</ele><time>2026-04-03T12:00:51.817Z</time></trkpt><trkpt lat="44.02125830647615" lon="11.876006950359852"><ele>291.0</ele><time>2026-04-03T12:00:52.817Z</time></trkpt><trkpt lat="44.02131659649895" lon="11.875804138898946"><ele>291.0</ele><time>2026-04-03T12:00:53.817Z</time></trkpt><trkpt lat="44.02137309062423" lon="11.875589641931445"><ele>291.0</ele><time>2026-04-03T12:00:54.817Z</time></trkpt><trkpt lat="44.02142129582636" lon="11.875354992797625"><ele>291.0</ele><time>2026-04-03T12:00:55.817Z</time></trkpt><trkpt lat="44.02145039560954" lon="11.87511892776333"><ele>292.3333333333333</ele><time>2026-04-03T12:00:56.817Z</time></trkpt><trkpt lat="44.02146431479153" lon="11.87487286082081"><ele>293.66666666666663</ele><time>2026-04-03T12:00:57.817Z</time></trkpt><trkpt lat="44.021478404042846" lon="11.874642647127441"><ele>295.0</ele><time>2026-04-03T12:00:58.817Z</time></trkpt><trkpt lat="44.021483288430936" lon="11.87441407277614"><ele>297.0</ele><time>2026-04-03T12:00:59.817Z</time></trkpt><trkpt lat="44.02144831410221" lon="11.874190491981937"><ele>299.0</ele><time>2026-04-03T12:01:00.817Z</time></trkpt><trkpt lat="44.02138042409111" lon="11.87397359297857"><ele>301.0</ele><time>2026-04-03T12:01:01.817Z</time></trkpt><trkpt lat="44.02130425148089" lon="11.873753485964603"><ele>301.0</ele><time>2026-04-03T12:01:02.817Z</time></trkpt><trkpt lat="44.02122763112762" lon="11.87353595072546"><ele>301.0</ele><time>2026-04-03T12:01:03.815Z</time></trkpt><trkpt lat="44.02115484612701" lon="11.873326701949447"><ele>301.0</ele><time>2026-04-03T12:01:04.815Z</time></trkpt><trkpt lat="44.02107975613557" lon="11.873132105696271"><ele>303.2</ele><time>2026-04-03T12:01:05.815Z</time></trkpt><trkpt lat="44.02102233218153" lon="11.872956670621669"><ele>305.40000000000003</ele><time>2026-04-03T12:01:06.815Z</time></trkpt><trkpt lat="44.020974688688256" lon="11.872811431715494"><ele>307.6</ele><time>2026-04-03T12:01:07.815Z</time></trkpt><trkpt lat="44.020940386425366" lon="11.872698574197907"><ele>309.8</ele><time>2026-04-03T12:01:08.815Z</time></trkpt><trkpt lat="44.020938153102406" lon="11.872555741542744"><ele>312.0</ele><time>2026-04-03T12:01:10.816Z</time></trkpt><trkpt lat="44.02100421525826" lon="11.87250015440675"><ele>312.0</ele><time>2026-04-03T12:01:12.815Z</time></trkpt><trkpt lat="44.02108259282818" lon="11.872602821812363"><ele>312.0</ele><time>2026-04-03T12:01:14.815Z</time></trkpt><trkpt lat="44.02110579149228" lon="11.872691027164413"><ele>312.0</ele><time>2026-04-03T12:01:15.815Z</time></trkpt><trkpt lat="44.02113386052022" lon="11.872792837649353"><ele>312.0</ele><time>2026-04-03T12:01:16.815Z</time></trkpt><trkpt lat="44.021184974897174" lon="11.872901376614577"><ele>312.0</ele><time>2026-04-03T12:01:17.815Z</time></trkpt><trkpt lat="44.02123465050879" lon="11.873029908353507"><ele>312.0</ele><time>2026-04-03T12:01:18.815Z</time></trkpt><trkpt lat="44.02129635403413" lon="11.873171373710589"><ele>312.0</ele><time>2026-04-03T12:01:19.815Z</time></trkpt><trkpt lat="44.02136341407977" lon="11.873300747341693"><ele>312.0</ele><time>2026-04-03T12:01:20.815Z</time></trkpt><trkpt lat="44.02143828596577" lon="11.873433814178055"><ele>312.0</ele><time>2026-04-03T12:01:21.815Z</time></trkpt><trkpt lat="44.02151984848185" lon="11.873577697668255"><ele>309.25</ele><time>2026-04-03T12:01:22.814Z</time></trkpt><trkpt lat="44.02160786167513" lon="11.873726173036157"><ele>306.5</ele><time>2026-04-03T12:01:23.814Z</time></trkpt><trkpt lat="44.021697049722675" lon="11.87387861045915"><ele>303.75</ele><time>2026-04-03T12:01:24.814Z</time></trkpt><trkpt lat="44.021792039630284" lon="11.874032931354408"><ele>301.0</ele><time>2026-04-03T12:01:25.814Z</time></trkpt><trkpt lat="44.021893867573944" lon="11.874175159403599"><ele>305.25</ele><time>2026-04-03T12:01:26.814Z</time></trkpt><trkpt lat="44.02199277791208" lon="11.874312127578296"><ele>309.5</ele><time>2026-04-03T12:01:27.814Z</time></trkpt><trkpt lat="44.02208276019372" lon="11.87445533873949"><ele>313.75</ele><time>2026-04-03T12:01:28.814Z</time></trkpt><trkpt lat="44.02217099083698" lon="11.87459735712475"><ele>318.0</ele><time>2026-04-03T12:01:29.814Z</time></trkpt><trkpt lat="44.02226122240437" lon="11.874745965568918"><ele>318.0</ele><time>2026-04-03T12:01:30.814Z</time></trkpt><trkpt lat="44.022346001591025" lon="11.874889721120127"><ele>318.0</ele><time>2026-04-03T12:01:31.814Z</time></trkpt><trkpt lat="44.02241429292227" lon="11.875023973952024"><ele>318.0</ele><time>2026-04-03T12:01:32.814Z</time></trkpt><trkpt lat="44.022469469624376" lon="11.875161053152175"><ele>318.0</ele><time>2026-04-03T12:01:33.814Z</time></trkpt><trkpt lat="44.02249746152654" lon="11.87528520663742"><ele>320.2</ele><time>2026-04-03T12:01:34.814Z</time></trkpt><trkpt lat="44.02251403656148" lon="11.875393922825591"><ele>322.4</ele><time>2026-04-03T12:01:35.814Z</time></trkpt><trkpt lat="44.02254803037458" lon="11.875473748929533"><ele>324.59999999999997</ele><time>2026-04-03T12:01:36.814Z</time></trkpt><trkpt lat="44.02266683775018" lon="11.875451888609433"><ele>326.8</ele><time>2026-04-03T12:01:38.814Z</time></trkpt><trkpt lat="44.02268750971803" lon="11.87525786412226"><ele>329.0</ele><time>2026-04-03T12:01:40.814Z</time></trkpt><trkpt lat="44.02265958987823" lon="11.875136210658646"><ele>333.0</ele><time>2026-04-03T12:01:41.814Z</time></trkpt><trkpt lat="44.02262121684059" lon="11.874998230486232"><ele>337.0</ele><time>2026-04-03T12:01:42.814Z</time></trkpt><trkpt lat="44.022578138988656" lon="11.87483820099086"><ele>341.0</ele><time>2026-04-03T12:01:43.814Z</time></trkpt><trkpt lat="44.02253198003526" lon="11.87467375850002"><ele>345.0</ele><time>2026-04-03T12:01:44.814Z</time></trkpt><trkpt lat="44.02248394441549" lon="11.874506516244741"><ele>341.25</ele><time>2026-04-03T12:01:45.814Z</time></trkpt><trkpt lat="44.022426637523786" lon="11.874338530258417"><ele>337.5</ele><time>2026-04-03T12:01:46.814Z</time></trkpt><trkpt lat="44.02234193980053" lon="11.874199569760137"><ele>333.75</ele><time>2026-04-03T12:01:47.814Z</time></trkpt><trkpt lat="44.02224560185409" lon="11.874074379709477"><ele>330.0</ele><time>2026-04-03T12:01:48.814Z</time></trkpt><trkpt lat="44.02214128919845" lon="11.873947671971699"><ele>330.0</ele><time>2026-04-03T12:01:49.814Z</time></trkpt><trkpt lat="44.022058423646044" lon="11.873790846084235"><ele>330.0</ele><time>2026-04-03T12:01:50.814Z</time></trkpt><trkpt lat="44.02198175231915" lon="11.873611499740688"><ele>330.0</ele><time>2026-04-03T12:01:51.814Z</time></trkpt><trkpt lat="44.021916872973456" lon="11.873442718547148"><ele>330.0</ele><time>2026-04-03T12:01:52.814Z</time></trkpt><trkpt lat="44.02185264444546" lon="11.873301042863773"><ele>331.6666666666667</ele><time>2026-04-03T12:01:53.814Z</time></trkpt><trkpt lat="44.02180023850752" lon="11.873181624540925"><ele>333.3333333333333</ele><time>2026-04-03T12:01:54.814Z</time></trkpt><trkpt lat="44.02176279235368" lon="11.87307338549169"><ele>335.0</ele><time>2026-04-03T12:01:55.814Z</time></trkpt><trkpt lat="44.02175526944125" lon="11.87298622902395"><ele>336.66666666666663</ele><time>2026-04-03T12:01:56.814Z</time></trkpt><trkpt lat="44.02182399318212" lon="11.87291623811001"><ele>338.3333333333333</ele><time>2026-04-03T12:01:58.814Z</time></trkpt><trkpt lat="44.02188286944094" lon="11.872970981240982"><ele>340.0</ele><time>2026-04-03T12:01:59.814Z</time></trkpt><trkpt lat="44.02193397158938" lon="11.873091428394066"><ele>340.0</ele><time>2026-04-03T12:02:00.814Z</time></trkpt><trkpt lat="44.02198739437014" lon="11.87321201940659"><ele>340.0</ele><time>2026-04-03T12:02:01.814Z</time></trkpt><trkpt lat="44.022041752762036" lon="11.87333531586991"><ele>340.0</ele><time>2026-04-03T12:02:02.814Z</time></trkpt><trkpt lat="44.022105560796064" lon="11.873452882178526"><ele>340.0</ele><time>2026-04-03T12:02:03.814Z</time></trkpt><trkpt lat="44.022178344624365" lon="11.873579289739917"><ele>340.0</ele><time>2026-04-03T12:02:04.814Z</time></trkpt><trkpt lat="44.02225928953457" lon="11.873689438019259"><ele>337.5</ele><time>2026-04-03T12:02:05.814Z</time></trkpt><trkpt lat="44.02236023031304" lon="11.873790035867913"><ele>335.0</ele><time>2026-04-03T12:02:06.814Z</time></trkpt><trkpt lat="44.02248761254937" lon="11.873874332965281"><ele>332.5</ele><time>2026-04-03T12:02:07.814Z</time></trkpt><trkpt lat="44.02261562281396" lon="11.87394751921768"><ele>330.0</ele><time>2026-04-03T12:02:08.814Z</time></trkpt><trkpt lat="44.022728254621136" lon="11.874017155464747"><ele>333.75</ele><time>2026-04-03T12:02:09.814Z</time></trkpt><trkpt lat="44.0228267728647" lon="11.874102531466672"><ele>337.5</ele><time>2026-04-03T12:02:10.814Z</time></trkpt><trkpt lat="44.022906002141596" lon="11.87421866444803"><ele>341.25</ele><time>2026-04-03T12:02:11.814Z</time></trkpt><trkpt lat="44.02296123523402" lon="11.87436543683679"><ele>345.0</ele><time>2026-04-03T12:02:12.814Z</time></trkpt><trkpt lat="44.02301365447729" lon="11.874522473738912"><ele>345.0</ele><time>2026-04-03T12:02:13.814Z</time></trkpt><trkpt lat="44.02307760190849" lon="11.874668618180662"><ele>345.0</ele><time>2026-04-03T12:02:14.814Z</time></trkpt><trkpt lat="44.0231391000769" lon="11.874797660524939"><ele>345.0</ele><time>2026-04-03T12:02:15.814Z</time></trkpt><trkpt lat="44.02322105275231" lon="11.874912785732601"><ele>345.0</ele><time>2026-04-03T12:02:16.814Z</time></trkpt><trkpt lat="44.02333108870601" lon="11.875006793939272"><ele>345.75</ele><time>2026-04-03T12:02:17.814Z</time></trkpt><trkpt lat="44.023460549372764" lon="11.875065818839339"><ele>346.5</ele><time>2026-04-03T12:02:18.814Z</time></trkpt><trkpt lat="44.02360658761947" lon="11.875105040949787"><ele>347.25</ele><time>2026-04-03T12:02:19.814Z</time></trkpt><trkpt lat="44.02375306587128" lon="11.8751574849198"><ele>348.0</ele><time>2026-04-03T12:02:20.814Z</time></trkpt><trkpt lat="44.02391154054049" lon="11.87518702292574"><ele>348.0</ele><time>2026-04-03T12:02:21.814Z</time></trkpt><trkpt lat="44.024062345635514" lon="11.875195670524633"><ele>348.0</ele><time>2026-04-03T12:02:22.814Z</time></trkpt><trkpt lat="44.024211646443156" lon="11.875191770226843"><ele>348.0</ele><time>2026-04-03T12:02:23.814Z</time></trkpt><trkpt lat="44.02436101858858" lon="11.875191382094089"><ele>351.5</ele><time>2026-04-03T12:02:24.814Z</time></trkpt><trkpt lat="44.02450417912438" lon="11.875187278930252"><ele>355.0</ele><time>2026-04-03T12:02:25.814Z</time></trkpt><trkpt lat="44.02463465899132" lon="11.875185391670819"><ele>358.5</ele><time>2026-04-03T12:02:26.814Z</time></trkpt><trkpt lat="44.02475015970134" lon="11.875157945396053"><ele>362.0</ele><time>2026-04-03T12:02:27.814Z</time></trkpt><trkpt lat="44.02485308838137" lon="11.875095079694791"><ele>367.25</ele><time>2026-04-03T12:02:28.814Z</time></trkpt><trkpt lat="44.02494359300167" lon="11.875000802302429"><ele>372.5</ele><time>2026-04-03T12:02:29.814Z</time></trkpt><trkpt lat="44.02499866217659" lon="11.874880832598421"><ele>377.75</ele><time>2026-04-03T12:02:30.814Z</time></trkpt><trkpt lat="44.0250145326094" lon="11.874727916233265"><ele>383.0</ele><time>2026-04-03T12:02:31.814Z</time></trkpt><trkpt lat="44.025003308068456" lon="11.874556692311765"><ele>387.0</ele><time>2026-04-03T12:02:32.814Z</time></trkpt><trkpt lat="44.02498582245073" lon="11.874361536755481"><ele>391.0</ele><time>2026-04-03T12:02:33.814Z</time></trkpt><trkpt lat="44.02499794573851" lon="11.874185077387747"><ele>395.0</ele><time>2026-04-03T12:02:34.814Z</time></trkpt><trkpt lat="44.02502564259047" lon="11.874019908459259"><ele>399.0</ele><time>2026-04-03T12:02:35.814Z</time></trkpt><trkpt lat="44.02505819861807" lon="11.873871140410383"><ele>400.75</ele><time>2026-04-03T12:02:36.814Z</time></trkpt><trkpt lat="44.025056241119245" lon="11.873701145143137"><ele>402.5</ele><time>2026-04-03T12:02:37.814Z</time></trkpt><trkpt lat="44.02501650664376" lon="11.873515566902576"><ele>404.25</ele><time>2026-04-03T12:02:38.814Z</time></trkpt><trkpt lat="44.02495706681247" lon="11.873326129681688"><ele>406.0</ele><time>2026-04-03T12:02:39.814Z</time></trkpt><trkpt lat="44.02489813850667" lon="11.873139574684302"><ele>400.5</ele><time>2026-04-03T12:02:40.814Z</time></trkpt><trkpt lat="44.02482930288994" lon="11.872973292846028"><ele>395.0</ele><time>2026-04-03T12:02:41.814Z</time></trkpt><trkpt lat="44.024739050484705" lon="11.87282738412347"><ele>389.5</ele><time>2026-04-03T12:02:42.814Z</time></trkpt><trkpt lat="44.02462753814494" lon="11.872713279814073"><ele>384.0</ele><time>2026-04-03T12:02:43.814Z</time></trkpt><trkpt lat="44.02449009770211" lon="11.872634914642825"><ele>384.66666666666663</ele><time>2026-04-03T12:02:44.814Z</time></trkpt><trkpt lat="44.02435088150799" lon="11.872547950715148"><ele>385.3333333333333</ele><time>2026-04-03T12:02:45.814Z</time></trkpt><trkpt lat="44.02424003132289" lon="11.872418494880462"><ele>386.0</ele><time>2026-04-03T12:02:46.814Z</time></trkpt><trkpt lat="44.024103128649024" lon="11.872297244241965"><ele>386.0</ele><time>2026-04-03T12:02:47.814Z</time></trkpt><trkpt lat="44.02395299568065" lon="11.87217561975668"><ele>386.0</ele><time>2026-04-03T12:02:48.814Z</time></trkpt><trkpt lat="44.02381236652967" lon="11.872042113457555"><ele>386.0</ele><time>2026-04-03T12:02:49.814Z</time></trkpt><trkpt lat="44.023684426596084" lon="11.871888528775898"><ele>392.75</ele><time>2026-04-03T12:02:50.814Z</time></trkpt><trkpt lat="44.02357746390192" lon="11.871732324553973"><ele>399.5</ele><time>2026-04-03T12:02:51.814Z</time></trkpt><trkpt lat="44.02348466051488" lon="11.871590921876692"><ele>406.25</ele><time>2026-04-03T12:02:52.814Z</time></trkpt><trkpt lat="44.02340247836644" lon="11.871468513863272"><ele>413.0</ele><time>2026-04-03T12:02:53.814Z</time></trkpt><trkpt lat="44.02334344188981" lon="11.871331589443054"><ele>413.0</ele><time>2026-04-03T12:02:54.814Z</time></trkpt><trkpt lat="44.02330474980509" lon="11.87119489678246"><ele>413.0</ele><time>2026-04-03T12:02:55.814Z</time></trkpt><trkpt lat="44.02329822036805" lon="11.871067979622426"><ele>413.0</ele><time>2026-04-03T12:02:56.814Z</time></trkpt><trkpt lat="44.023330700983884" lon="11.870965345006793"><ele>413.0</ele><time>2026-04-03T12:02:57.814Z</time></trkpt><trkpt lat="44.02339435988673" lon="11.870907586408503"><ele>413.0</ele><time>2026-04-03T12:02:58.814Z</time></trkpt><trkpt lat="44.023495642853575" lon="11.870889719267906"><ele>413.0</ele><time>2026-04-03T12:02:59.814Z</time></trkpt><trkpt lat="44.02362092462036" lon="11.870902531447792"><ele>413.0</ele><time>2026-04-03T12:03:00.814Z</time></trkpt><trkpt lat="44.02375606022535" lon="11.870937245065578"><ele>413.0</ele><time>2026-04-03T12:03:01.814Z</time></trkpt><trkpt lat="44.02389568153305" lon="11.870988480393539"><ele>413.0</ele><time>2026-04-03T12:03:02.814Z</time></trkpt><trkpt lat="44.024036568966494" lon="11.871065443720678"><ele>419.0</ele><time>2026-04-03T12:03:03.814Z</time></trkpt><trkpt lat="44.02417893641822" lon="11.87114859149313"><ele>425.0</ele><time>2026-04-03T12:03:04.814Z</time></trkpt><trkpt lat="44.02430959011714" lon="11.871251294973893"><ele>431.0</ele><time>2026-04-03T12:03:05.814Z</time></trkpt><trkpt lat="44.02442205846018" lon="11.871392341026855"><ele>431.0</ele><time>2026-04-03T12:03:06.814Z</time></trkpt><trkpt lat="44.02453158403497" lon="11.871542831694045"><ele>431.0</ele><time>2026-04-03T12:03:07.814Z</time></trkpt><trkpt lat="44.02466279433788" lon="11.871680655565289"><ele>431.0</ele><time>2026-04-03T12:03:08.814Z</time></trkpt><trkpt lat="44.02480613840845" lon="11.871814075644547"><ele>430.0</ele><time>2026-04-03T12:03:09.812Z</time></trkpt><trkpt lat="44.02493221200292" lon="11.87199409716642"><ele>429.0</ele><time>2026-04-03T12:03:10.812Z</time></trkpt><trkpt lat="44.02506399363311" lon="11.872180885288852"><ele>428.0</ele><time>2026-04-03T12:03:11.812Z</time></trkpt><trkpt lat="44.02522933262339" lon="11.872325644019778"><ele>428.0</ele><time>2026-04-03T12:03:12.812Z</time></trkpt><trkpt lat="44.02541061158045" lon="11.87246545551188"><ele>428.0</ele><time>2026-04-03T12:03:13.812Z</time></trkpt><trkpt lat="44.025576132269414" lon="11.8726257212216"><ele>428.0</ele><time>2026-04-03T12:03:14.812Z</time></trkpt><trkpt lat="44.0257233602903" lon="11.872818064093789"><ele>431.66666666666663</ele><time>2026-04-03T12:03:15.812Z</time></trkpt><trkpt lat="44.02586434757332" lon="11.873016490269116"><ele>435.33333333333337</ele><time>2026-04-03T12:03:16.812Z</time></trkpt><trkpt lat="44.02600778986391" lon="11.873215422454408"><ele>439.0</ele><time>2026-04-03T12:03:17.812Z</time></trkpt><trkpt lat="44.026152275176194" lon="11.873411122578828"><ele>440.6666666666667</ele><time>2026-04-03T12:03:18.812Z</time></trkpt><trkpt lat="44.026274334108614" lon="11.873592057086968"><ele>442.33333333333337</ele><time>2026-04-03T12:03:19.812Z</time></trkpt><trkpt lat="44.02638426638167" lon="11.87376174218659"><ele>444.0</ele><time>2026-04-03T12:03:20.812Z</time></trkpt><trkpt lat="44.026470291147135" lon="11.87393771784234"><ele>444.0</ele><time>2026-04-03T12:03:21.812Z</time></trkpt><trkpt lat="44.02653549957649" lon="11.874132997375732"><ele>444.0</ele><time>2026-04-03T12:03:22.812Z</time></trkpt><trkpt lat="44.02658582601478" lon="11.874343289265418"><ele>444.0</ele><time>2026-04-03T12:03:23.812Z</time></trkpt><trkpt lat="44.026619520585676" lon="11.874577673322175"><ele>447.0</ele><time>2026-04-03T12:03:24.812Z</time></trkpt><trkpt lat="44.0266614336679" lon="11.874826914151576"><ele>450.0</ele><time>2026-04-03T12:03:25.812Z</time></trkpt><trkpt lat="44.026721623666596" lon="11.875063149738311"><ele>453.0</ele><time>2026-04-03T12:03:26.812Z</time></trkpt><trkpt lat="44.026814198171444" lon="11.875273341650612"><ele>458.0</ele><time>2026-04-03T12:03:27.812Z</time></trkpt><trkpt lat="44.02691805996444" lon="11.875468534058342"><ele>463.0</ele><time>2026-04-03T12:03:28.812Z</time></trkpt><trkpt lat="44.02703540885475" lon="11.875663672255296"><ele>468.0</ele><time>2026-04-03T12:03:29.812Z</time></trkpt><trkpt lat="44.02713716485689" lon="11.875852805727252"><ele>467.66666666666663</ele><time>2026-04-03T12:03:30.812Z</time></trkpt><trkpt lat="44.02721530598228" lon="11.876037790793363"><ele>467.3333333333333</ele><time>2026-04-03T12:03:31.812Z</time></trkpt><trkpt lat="44.02727949714964" lon="11.876225946506384"><ele>467.0</ele><time>2026-04-03T12:03:32.812Z</time></trkpt><trkpt lat="44.02736562477935" lon="11.876400557040721"><ele>464.3333333333333</ele><time>2026-04-03T12:03:33.812Z</time></trkpt><trkpt lat="44.027485004677885" lon="11.876553845148688"><ele>461.66666666666663</ele><time>2026-04-03T12:03:34.812Z</time></trkpt><trkpt lat="44.02762740633413" lon="11.87667763549021"><ele>459.0</ele><time>2026-04-03T12:03:35.812Z</time></trkpt><trkpt lat="44.02779218529316" lon="11.876764136360233"><ele>457.0</ele><time>2026-04-03T12:03:36.812Z</time></trkpt><trkpt lat="44.02796778503172" lon="11.87681802070079"><ele>455.0</ele><time>2026-04-03T12:03:37.812Z</time></trkpt><trkpt lat="44.02814518963403" lon="11.876841612108194"><ele>453.0</ele><time>2026-04-03T12:03:38.812Z</time></trkpt><trkpt lat="44.028301723881064" lon="11.876840240957469"><ele>455.5</ele><time>2026-04-03T12:03:39.812Z</time></trkpt><trkpt lat="44.02844829886438" lon="11.876796152907202"><ele>458.0</ele><time>2026-04-03T12:03:40.812Z</time></trkpt><trkpt lat="44.028586561348696" lon="11.876710043795851"><ele>460.5</ele><time>2026-04-03T12:03:41.812Z</time></trkpt><trkpt lat="44.028702634008326" lon="11.876589547612776"><ele>463.0</ele><time>2026-04-03T12:03:42.812Z</time></trkpt><trkpt lat="44.028817392920466" lon="11.876486187093587"><ele>464.33333333333337</ele><time>2026-04-03T12:03:43.812Z</time></trkpt><trkpt lat="44.028959761262975" lon="11.876441282857481"><ele>465.66666666666663</ele><time>2026-04-03T12:03:44.812Z</time></trkpt><trkpt lat="44.0291269799772" lon="11.87642156169335"><ele>467.0</ele><time>2026-04-03T12:03:45.812Z</time></trkpt><trkpt lat="44.02930812933865" lon="11.876393786449578"><ele>470.66666666666663</ele><time>2026-04-03T12:03:46.812Z</time></trkpt><trkpt lat="44.02948999776796" lon="11.876352527735945"><ele>474.33333333333337</ele><time>2026-04-03T12:03:47.812Z</time></trkpt><trkpt lat="44.02965839305077" lon="11.87630735161527"><ele>478.0</ele><time>2026-04-03T12:03:48.812Z</time></trkpt><trkpt lat="44.029810874721925" lon="11.876272735777135"><ele>478.0</ele><time>2026-04-03T12:03:49.812Z</time></trkpt><trkpt lat="44.029950181545146" lon="11.876240094261638"><ele>478.0</ele><time>2026-04-03T12:03:50.812Z</time></trkpt><trkpt lat="44.0300717759157" lon="11.876182307081502"><ele>478.0</ele><time>2026-04-03T12:03:51.812Z</time></trkpt><trkpt lat="44.03016382291011" lon="11.876093333696586"><ele>478.0</ele><time>2026-04-03T12:03:52.812Z</time></trkpt><trkpt lat="44.03022963662785" lon="11.875973421797294"><ele>478.5</ele><time>2026-04-03T12:03:53.812Z</time></trkpt><trkpt lat="44.030270927300215" lon="11.875822576449657"><ele>479.0</ele><time>2026-04-03T12:03:54.812Z</time></trkpt><trkpt lat="44.030290870422384" lon="11.87564526705289"><ele>479.5</ele><time>2026-04-03T12:03:55.812Z</time></trkpt><trkpt lat="44.03028869226494" lon="11.875451838236826"><ele>480.0</ele><time>2026-04-03T12:03:56.811Z</time></trkpt><trkpt lat="44.030260038943986" lon="11.875243664988535"><ele>480.33333333333337</ele><time>2026-04-03T12:03:57.811Z</time></trkpt><trkpt lat="44.03019505168421" lon="11.875043455000503"><ele>480.6666666666667</ele><time>2026-04-03T12:03:58.811Z</time></trkpt><trkpt lat="44.0301309044143" lon="11.874849642446634"><ele>481.0</ele><time>2026-04-03T12:03:59.811Z</time></trkpt><trkpt lat="44.03009621036405" lon="11.874631730135942"><ele>481.0</ele><time>2026-04-03T12:04:00.811Z</time></trkpt><trkpt lat="44.03008805565871" lon="11.874415001146959"><ele>481.0</ele><time>2026-04-03T12:04:01.811Z</time></trkpt><trkpt lat="44.03010116271716" lon="11.874211334045357"><ele>481.0</ele><time>2026-04-03T12:04:02.811Z</time></trkpt><trkpt lat="44.03013814809624" lon="11.874037087567855"><ele>481.0</ele><time>2026-04-03T12:04:03.811Z</time></trkpt><trkpt lat="44.03020438272222" lon="11.873889110231556"><ele>481.6</ele><time>2026-04-03T12:04:04.811Z</time></trkpt><trkpt lat="44.030284721212176" lon="11.873801000859029"><ele>482.20000000000005</ele><time>2026-04-03T12:04:05.811Z</time></trkpt><trkpt lat="44.030365967414134" lon="11.873772928272283"><ele>482.79999999999995</ele><time>2026-04-03T12:04:06.811Z</time></trkpt><trkpt lat="44.030452222223985" lon="11.873802266994185"><ele>483.4</ele><time>2026-04-03T12:04:07.811Z</time></trkpt><trkpt lat="44.03054370980131" lon="11.87388563885291"><ele>484.0</ele><time>2026-04-03T12:04:08.811Z</time></trkpt><trkpt lat="44.03063516350502" lon="11.874005967148065"><ele>484.0</ele><time>2026-04-03T12:04:09.811Z</time></trkpt><trkpt lat="44.03073524368415" lon="11.874131270787498"><ele>484.0</ele><time>2026-04-03T12:04:10.811Z</time></trkpt><trkpt lat="44.03084860824498" lon="11.874267466636102"><ele>484.0</ele><time>2026-04-03T12:04:11.811Z</time></trkpt><trkpt lat="44.030981040461334" lon="11.874385098910519"><ele>484.0</ele><time>2026-04-03T12:04:12.811Z</time></trkpt><trkpt lat="44.03113291363975" lon="11.874463160801941"><ele>491.33333333333337</ele><time>2026-04-03T12:04:13.811Z</time></trkpt><trkpt lat="44.03130260627089" lon="11.874528712180686"><ele>498.66666666666663</ele><time>2026-04-03T12:04:14.811Z</time></trkpt><trkpt lat="44.03146029508895" lon="11.874636848055285"><ele>506.0</ele><time>2026-04-03T12:04:15.811Z</time></trkpt><trkpt lat="44.031619563825366" lon="11.874732593513748"><ele>507.3333333333333</ele><time>2026-04-03T12:04:16.811Z</time></trkpt><trkpt lat="44.031814497791444" lon="11.874803074550398"><ele>508.66666666666663</ele><time>2026-04-03T12:04:17.811Z</time></trkpt><trkpt lat="44.03199410653657" lon="11.874840699470226"><ele>510.0</ele><time>2026-04-03T12:04:18.811Z</time></trkpt><trkpt lat="44.03216745279838" lon="11.874850779139663"><ele>510.0</ele><time>2026-04-03T12:04:19.811Z</time></trkpt><trkpt lat="44.032320718047515" lon="11.874819068791199"><ele>510.0</ele><time>2026-04-03T12:04:20.811Z</time></trkpt><trkpt lat="44.03245052373768" lon="11.874754014103331"><ele>510.0</ele><time>2026-04-03T12:04:21.811Z</time></trkpt><trkpt lat="44.032548931533064" lon="11.874650238818058"><ele>510.0</ele><time>2026-04-03T12:04:22.811Z</time></trkpt><trkpt lat="44.03261347332601" lon="11.874502671558027"><ele>510.66666666666663</ele><time>2026-04-03T12:04:23.811Z</time></trkpt><trkpt lat="44.03265419532776" lon="11.874316237787973"><ele>511.3333333333333</ele><time>2026-04-03T12:04:24.811Z</time></trkpt><trkpt lat="44.032668826154186" lon="11.874109091748766"><ele>512.0</ele><time>2026-04-03T12:04:25.811Z</time></trkpt><trkpt lat="44.03266905532179" lon="11.8738852441433"><ele>508.66666666666663</ele><time>2026-04-03T12:04:26.811Z</time></trkpt><trkpt lat="44.032665012080734" lon="11.873646769472424"><ele>505.33333333333337</ele><time>2026-04-03T12:04:27.811Z</time></trkpt><trkpt lat="44.03266008780089" lon="11.873424781166793"><ele>502.0</ele><time>2026-04-03T12:04:28.811Z</time></trkpt><trkpt lat="44.032663682640354" lon="11.87322892196799"><ele>501.8</ele><time>2026-04-03T12:04:29.811Z</time></trkpt><trkpt lat="44.03268571181793" lon="11.873083968600774"><ele>501.6</ele><time>2026-04-03T12:04:30.811Z</time></trkpt><trkpt lat="44.03273678447082" lon="11.872969828706992"><ele>501.40000000000003</ele><time>2026-04-03T12:04:31.811Z</time></trkpt><trkpt lat="44.03281815824874" lon="11.872878938394505"><ele>501.20000000000005</ele><time>2026-04-03T12:04:32.811Z</time></trkpt><trkpt lat="44.03293669336598" lon="11.872816610238917"><ele>501.0</ele><time>2026-04-03T12:04:33.811Z</time></trkpt><trkpt lat="44.03306844910817" lon="11.87272311879864"><ele>499.66666666666663</ele><time>2026-04-03T12:04:34.811Z</time></trkpt><trkpt lat="44.03320431573948" lon="11.872561755611722"><ele>498.3333333333333</ele><time>2026-04-03T12:04:35.811Z</time></trkpt><trkpt lat="44.03333042840636" lon="11.872353453004475"><ele>497.0</ele><time>2026-04-03T12:04:36.811Z</time></trkpt><trkpt lat="44.033445873545915" lon="11.872117822312058"><ele>500.66666666666663</ele><time>2026-04-03T12:04:37.811Z</time></trkpt><trkpt lat="44.0335328262379" lon="11.871878359995986"><ele>504.33333333333337</ele><time>2026-04-03T12:04:38.811Z</time></trkpt><trkpt lat="44.03359381765037" lon="11.871654272020212"><ele>508.0</ele><time>2026-04-03T12:04:39.811Z</time></trkpt><trkpt lat="44.03363233707378" lon="11.87143178817541"><ele>508.0</ele><time>2026-04-03T12:04:40.811Z</time></trkpt><trkpt lat="44.03363467189338" lon="11.871215996262027"><ele>508.0</ele><time>2026-04-03T12:04:41.811Z</time></trkpt><trkpt lat="44.033606047197914" lon="11.87099637227149"><ele>508.0</ele><time>2026-04-03T12:04:42.811Z</time></trkpt><trkpt lat="44.03354437500179" lon="11.870781481664507"><ele>510.0</ele><time>2026-04-03T12:04:43.811Z</time></trkpt><trkpt lat="44.03347289994706" lon="11.870565729239674"><ele>512.0</ele><time>2026-04-03T12:04:44.811Z</time></trkpt><trkpt lat="44.03339514968721" lon="11.870359815779823"><ele>514.0</ele><time>2026-04-03T12:04:45.811Z</time></trkpt><trkpt lat="44.03330853314205" lon="11.870173638401083"><ele>514.3333333333334</ele><time>2026-04-03T12:04:46.811Z</time></trkpt><trkpt lat="44.03319844921822" lon="11.870015458730736"><ele>514.6666666666666</ele><time>2026-04-03T12:04:47.811Z</time></trkpt><trkpt lat="44.03306862600836" lon="11.8698871358773"><ele>515.0</ele><time>2026-04-03T12:04:48.811Z</time></trkpt><trkpt lat="44.03292233195989" lon="11.869796420805914"><ele>515.0</ele><time>2026-04-03T12:04:49.811Z</time></trkpt><trkpt lat="44.03277221936266" lon="11.869738012684376"><ele>515.0</ele><time>2026-04-03T12:04:50.811Z</time></trkpt><trkpt lat="44.0326339591615" lon="11.869710386081538"><ele>515.0</ele><time>2026-04-03T12:04:51.811Z</time></trkpt><trkpt lat="44.0325181100348" lon="11.869684577852567"><ele>515.0</ele><time>2026-04-03T12:04:52.811Z</time></trkpt><trkpt lat="44.032429353177534" lon="11.869632228702034"><ele>513.8</ele><time>2026-04-03T12:04:53.811Z</time></trkpt><trkpt lat="44.03236526742273" lon="11.869556995150457"><ele>512.6</ele><time>2026-04-03T12:04:54.811Z</time></trkpt><trkpt lat="44.032342650440185" lon="11.869444696983454"><ele>511.4</ele><time>2026-04-03T12:04:55.811Z</time></trkpt><trkpt lat="44.032353298180304" lon="11.869283174074875"><ele>510.2</ele><time>2026-04-03T12:04:56.811Z</time></trkpt><trkpt lat="44.032373628397124" lon="11.869083072861539"><ele>509.0</ele><time>2026-04-03T12:04:57.811Z</time></trkpt><trkpt lat="44.03237948787162" lon="11.868858720958888"><ele>509.0</ele><time>2026-04-03T12:04:58.811Z</time></trkpt><trkpt lat="44.03236053496706" lon="11.868605786493085"><ele>509.0</ele><time>2026-04-03T12:04:59.811Z</time></trkpt><trkpt lat="44.03231323839982" lon="11.868336037704056"><ele>509.0</ele><time>2026-04-03T12:05:00.811Z</time></trkpt><trkpt lat="44.03229910569003" lon="11.868051840262153"><ele>512.6666666666666</ele><time>2026-04-03T12:05:01.811Z</time></trkpt><trkpt lat="44.032300886191244" lon="11.867766840106231"><ele>516.3333333333334</ele><time>2026-04-03T12:05:02.811Z</time></trkpt><trkpt lat="44.032293057858844" lon="11.867531569049364"><ele>520.0</ele><time>2026-04-03T12:05:03.811Z</time></trkpt><trkpt lat="44.03223775035049" lon="11.867340757260399"><ele>524.3333333333334</ele><time>2026-04-03T12:05:04.811Z</time></trkpt><trkpt lat="44.032125021342246" lon="11.86716507333455"><ele>528.6666666666666</ele><time>2026-04-03T12:05:05.811Z</time></trkpt><trkpt lat="44.031975425678986" lon="11.866988536938445"><ele>533.0</ele><time>2026-04-03T12:05:06.811Z</time></trkpt><trkpt lat="44.031867905840315" lon="11.866814723008845"><ele>536.5</ele><time>2026-04-03T12:05:07.811Z</time></trkpt><trkpt lat="44.03180713875679" lon="11.866648545864445"><ele>540.0</ele><time>2026-04-03T12:05:08.811Z</time></trkpt><trkpt lat="44.031782005923375" lon="11.866471863995535"><ele>543.5</ele><time>2026-04-03T12:05:09.811Z</time></trkpt><trkpt lat="44.03177272954175" lon="11.866284417400898"><ele>547.0</ele><time>2026-04-03T12:05:10.811Z</time></trkpt><trkpt lat="44.03177727731428" lon="11.866098933707923"><ele>547.0</ele><time>2026-04-03T12:05:11.811Z</time></trkpt><trkpt lat="44.03179011487106" lon="11.865955703294572"><ele>547.0</ele><time>2026-04-03T12:05:12.811Z</time></trkpt><trkpt lat="44.03182715496553" lon="11.865849776638415"><ele>547.0</ele><time>2026-04-03T12:05:13.811Z</time></trkpt><trkpt lat="44.03188259357197" lon="11.865774225320727"><ele>547.0</ele><time>2026-04-03T12:05:14.811Z</time></trkpt><trkpt lat="44.031960478559434" lon="11.865762687481938"><ele>547.0</ele><time>2026-04-03T12:05:15.808Z</time></trkpt><trkpt lat="44.032043095221894" lon="11.865784720001688"><ele>547.0</ele><time>2026-04-03T12:05:16.808Z</time></trkpt><trkpt lat="44.03215292202782" lon="11.865854335531631"><ele>547.0</ele><time>2026-04-03T12:05:17.808Z</time></trkpt><trkpt lat="44.0322811831547" lon="11.86593562338928"><ele>547.0</ele><time>2026-04-03T12:05:18.809Z</time></trkpt><trkpt lat="44.03242633608443" lon="11.866001951671082"><ele>547.0</ele><time>2026-04-03T12:05:19.808Z</time></trkpt><trkpt lat="44.032574104424505" lon="11.866044131079068"><ele>547.0</ele><time>2026-04-03T12:05:20.808Z</time></trkpt><trkpt lat="44.03272644686575" lon="11.866086894336814"><ele>552.3333333333334</ele><time>2026-04-03T12:05:21.808Z</time></trkpt><trkpt lat="44.03288354681671" lon="11.866132146376106"><ele>557.6666666666666</ele><time>2026-04-03T12:05:22.808Z</time></trkpt><trkpt lat="44.03304091914943" lon="11.866173398161186"><ele>563.0</ele><time>2026-04-03T12:05:23.808Z</time></trkpt><trkpt lat="44.03320718934843" lon="11.866213740721"><ele>565.0</ele><time>2026-04-03T12:05:24.808Z</time></trkpt><trkpt lat="44.03337561252231" lon="11.866242401656848"><ele>567.0</ele><time>2026-04-03T12:05:25.808Z</time></trkpt><trkpt lat="44.0335464889474" lon="11.866231887672798"><ele>569.0</ele><time>2026-04-03T12:05:26.808Z</time></trkpt><trkpt lat="44.03371858726803" lon="11.866169975277103"><ele>569.0</ele><time>2026-04-03T12:05:27.808Z</time></trkpt><trkpt lat="44.03388071028093" lon="11.866088460736883"><ele>569.0</ele><time>2026-04-03T12:05:28.808Z</time></trkpt><trkpt lat="44.03403179687364" lon="11.86599541952608"><ele>569.0</ele><time>2026-04-03T12:05:29.808Z</time></trkpt><trkpt lat="44.03416182430269" lon="11.86587976345034"><ele>564.25</ele><time>2026-04-03T12:05:30.808Z</time></trkpt><trkpt lat="44.034271224143964" lon="11.865760345814687"><ele>559.5</ele><time>2026-04-03T12:05:31.808Z</time></trkpt><trkpt lat="44.03437790369319" lon="11.865665162186964"><ele>554.75</ele><time>2026-04-03T12:05:32.808Z</time></trkpt><trkpt lat="44.03447498173231" lon="11.865604740051843"><ele>550.0</ele><time>2026-04-03T12:05:33.808Z</time></trkpt><trkpt lat="44.034576724551165" lon="11.865583090364773"><ele>550.0</ele><time>2026-04-03T12:05:34.808Z</time></trkpt><trkpt lat="44.03469144619817" lon="11.865584001707015"><ele>550.0</ele><time>2026-04-03T12:05:35.808Z</time></trkpt><trkpt lat="44.03481872043016" lon="11.865584074950474"><ele>550.0</ele><time>2026-04-03T12:05:36.808Z</time></trkpt><trkpt lat="44.0349535365596" lon="11.865589082097317"><ele>550.0</ele><time>2026-04-03T12:05:37.808Z</time></trkpt><trkpt lat="44.03509567525327" lon="11.865599326606043"><ele>548.75</ele><time>2026-04-03T12:05:38.808Z</time></trkpt><trkpt lat="44.03523560264577" lon="11.865616219606277"><ele>547.5</ele><time>2026-04-03T12:05:39.808Z</time></trkpt><trkpt lat="44.03537072007192" lon="11.86564634177157"><ele>546.25</ele><time>2026-04-03T12:05:40.808Z</time></trkpt><trkpt lat="44.035501426492736" lon="11.865678062700674"><ele>545.0</ele><time>2026-04-03T12:05:41.808Z</time></trkpt><trkpt lat="44.03564309227944" lon="11.865681249624629"><ele>545.0</ele><time>2026-04-03T12:05:42.808Z</time></trkpt><trkpt lat="44.03578442874568" lon="11.865658020044943"><ele>545.0</ele><time>2026-04-03T12:05:43.808Z</time></trkpt><trkpt lat="44.0359159647547" lon="11.865618607893476"><ele>545.0</ele><time>2026-04-03T12:05:44.808Z</time></trkpt><trkpt lat="44.036035300425816" lon="11.865573728605845"><ele>545.0</ele><time>2026-04-03T12:05:45.808Z</time></trkpt><trkpt lat="44.036147419133506" lon="11.865504880695797"><ele>546.25</ele><time>2026-04-03T12:05:46.808Z</time></trkpt><trkpt lat="44.03624167894736" lon="11.865389084911863"><ele>547.5</ele><time>2026-04-03T12:05:47.808Z</time></trkpt><trkpt lat="44.03632629000221" lon="11.865236320557418"><ele>548.75</ele><time>2026-04-03T12:05:48.808Z</time></trkpt><trkpt lat="44.036407573264995" lon="11.8650599137542"><ele>550.0</ele><time>2026-04-03T12:05:49.808Z</time></trkpt><trkpt lat="44.03650038688396" lon="11.864909878769739"><ele>550.0</ele><time>2026-04-03T12:05:50.808Z</time></trkpt><trkpt lat="44.03659886252285" lon="11.864799188381228"><ele>550.0</ele><time>2026-04-03T12:05:51.808Z</time></trkpt><trkpt lat="44.03672059192055" lon="11.864718823575915"><ele>550.0</ele><time>2026-04-03T12:05:52.808Z</time></trkpt><trkpt lat="44.03685893570114" lon="11.8646658572342"><ele>550.0</ele><time>2026-04-03T12:05:53.808Z</time></trkpt><trkpt lat="44.037012150178754" lon="11.864617433382165"><ele>546.3333333333334</ele><time>2026-04-03T12:05:54.808Z</time></trkpt><trkpt lat="44.037167404371836" lon="11.864562827591758"><ele>542.6666666666666</ele><time>2026-04-03T12:05:55.808Z</time></trkpt><trkpt lat="44.037333002458325" lon="11.864512755808002"><ele>539.0</ele><time>2026-04-03T12:05:56.808Z</time></trkpt><trkpt lat="44.03749729894824" lon="11.864475428025965"><ele>536.0</ele><time>2026-04-03T12:05:57.808Z</time></trkpt><trkpt lat="44.03765220805477" lon="11.86443672416924"><ele>533.0</ele><time>2026-04-03T12:05:58.808Z</time></trkpt><trkpt lat="44.03780080583664" lon="11.864401035376451"><ele>530.0</ele><time>2026-04-03T12:05:59.808Z</time></trkpt><trkpt lat="44.03795348032265" lon="11.864363768794885"><ele>530.0</ele><time>2026-04-03T12:06:00.808Z</time></trkpt><trkpt lat="44.03810975045412" lon="11.864310034914372"><ele>530.0</ele><time>2026-04-03T12:06:01.808Z</time></trkpt><trkpt lat="44.03826414185794" lon="11.8642367106376"><ele>530.0</ele><time>2026-04-03T12:06:02.808Z</time></trkpt><trkpt lat="44.038403705315744" lon="11.864143884026898"><ele>532.0</ele><time>2026-04-03T12:06:03.808Z</time></trkpt><trkpt lat="44.0385356070194" lon="11.864051947218478"><ele>534.0</ele><time>2026-04-03T12:06:04.808Z</time></trkpt><trkpt lat="44.038662019745814" lon="11.863969116126286"><ele>536.0</ele><time>2026-04-03T12:06:05.808Z</time></trkpt><trkpt lat="44.03878362772698" lon="11.86390855203736"><ele>538.0</ele><time>2026-04-03T12:06:06.808Z</time></trkpt><trkpt lat="44.03889577549818" lon="11.863876917660344"><ele>538.0</ele><time>2026-04-03T12:06:07.808Z</time></trkpt><trkpt lat="44.039008176966384" lon="11.863876838476433"><ele>538.0</ele><time>2026-04-03T12:06:08.808Z</time></trkpt><trkpt lat="44.0391311225308" lon="11.863921213333088"><ele>538.0</ele><time>2026-04-03T12:06:09.808Z</time></trkpt><trkpt lat="44.039255206892676" lon="11.86400557724345"><ele>538.0</ele><time>2026-04-03T12:06:10.808Z</time></trkpt><trkpt lat="44.03938389758048" lon="11.86412384482764"><ele>535.6666666666667</ele><time>2026-04-03T12:06:11.808Z</time></trkpt><trkpt lat="44.03952434332036" lon="11.864249476024012"><ele>533.3333333333334</ele><time>2026-04-03T12:06:12.808Z</time></trkpt><trkpt lat="44.039660665448075" lon="11.86436455718171"><ele>531.0</ele><time>2026-04-03T12:06:13.808Z</time></trkpt><trkpt lat="44.039794813094375" lon="11.864477446729426"><ele>528.25</ele><time>2026-04-03T12:06:14.808Z</time></trkpt><trkpt lat="44.03991902507072" lon="11.864586749382978"><ele>525.5</ele><time>2026-04-03T12:06:15.808Z</time></trkpt><trkpt lat="44.04003080710997" lon="11.86467920097982"><ele>522.75</ele><time>2026-04-03T12:06:16.808Z</time></trkpt><trkpt lat="44.0401311230023" lon="11.864759850133067"><ele>520.0</ele><time>2026-04-03T12:06:17.808Z</time></trkpt><trkpt lat="44.04023115246115" lon="11.86482431777102"><ele>520.0</ele><time>2026-04-03T12:06:18.808Z</time></trkpt><trkpt lat="44.04032915377677" lon="11.864845716590915"><ele>520.0</ele><time>2026-04-03T12:06:19.808Z</time></trkpt><trkpt lat="44.040417244337405" lon="11.864812087720136"><ele>520.0</ele><time>2026-04-03T12:06:20.808Z</time></trkpt><trkpt lat="44.04048063054755" lon="11.864724089844968"><ele>520.0</ele><time>2026-04-03T12:06:21.808Z</time></trkpt><trkpt lat="44.04051975792157" lon="11.864588131107691"><ele>520.0</ele><time>2026-04-03T12:06:22.808Z</time></trkpt><trkpt lat="44.040544371367226" lon="11.86442682463958"><ele>522.5</ele><time>2026-04-03T12:06:23.808Z</time></trkpt><trkpt lat="44.040549021059" lon="11.864261208187129"><ele>525.0</ele><time>2026-04-03T12:06:24.808Z</time></trkpt><trkpt lat="44.04052112531952" lon="11.86409754284342"><ele>527.5</ele><time>2026-04-03T12:06:25.808Z</time></trkpt><trkpt lat="44.04048199820923" lon="11.86395146144845"><ele>530.0</ele><time>2026-04-03T12:06:26.808Z</time></trkpt><trkpt lat="44.040455468245405" lon="11.863796615595243"><ele>530.0</ele><time>2026-04-03T12:06:27.808Z</time></trkpt><trkpt lat="44.04045698522706" lon="11.863652042837272"><ele>530.0</ele><time>2026-04-03T12:06:28.808Z</time></trkpt><trkpt lat="44.040500056483566" lon="11.863505611395908"><ele>530.0</ele><time>2026-04-03T12:06:29.808Z</time></trkpt><trkpt lat="44.040578238600126" lon="11.86335829257491"><ele>530.0</ele><time>2026-04-03T12:06:30.808Z</time></trkpt><trkpt lat="44.04066316583448" lon="11.86319510093213"><ele>532.0</ele><time>2026-04-03T12:06:31.808Z</time></trkpt><trkpt lat="44.04074836215301" lon="11.863016006173952"><ele>534.0</ele><time>2026-04-03T12:06:32.808Z</time></trkpt><trkpt lat="44.04083475468342" lon="11.862837924701559"><ele>536.0</ele><time>2026-04-03T12:06:33.808Z</time></trkpt><trkpt lat="44.040913126998504" lon="11.862672904391301"><ele>531.75</ele><time>2026-04-03T12:06:34.808Z</time></trkpt><trkpt lat="44.04098898278747" lon="11.862533412412628"><ele>527.5</ele><time>2026-04-03T12:06:35.808Z</time></trkpt><trkpt lat="44.04107897760946" lon="11.862428245618634"><ele>523.25</ele><time>2026-04-03T12:06:36.808Z</time></trkpt><trkpt lat="44.04118052564868" lon="11.862372476090124"><ele>519.0</ele><time>2026-04-03T12:06:37.808Z</time></trkpt><trkpt lat="44.041296229732744" lon="11.862368460733379"><ele>519.0</ele><time>2026-04-03T12:06:38.808Z</time></trkpt><trkpt lat="44.041420976009604" lon="11.862400728151192"><ele>519.0</ele><time>2026-04-03T12:06:39.808Z</time></trkpt><trkpt lat="44.04154620669035" lon="11.862405581991998"><ele>519.0</ele><time>2026-04-03T12:06:40.808Z</time></trkpt><trkpt lat="44.04165899482354" lon="11.862377498876823"><ele>519.0</ele><time>2026-04-03T12:06:41.808Z</time></trkpt><trkpt lat="44.04175655016618" lon="11.86231673460862"><ele>515.25</ele><time>2026-04-03T12:06:42.808Z</time></trkpt><trkpt lat="44.041856391717886" lon="11.862223164734301"><ele>511.5</ele><time>2026-04-03T12:06:43.808Z</time></trkpt><trkpt lat="44.041955063838195" lon="11.862126886489623"><ele>507.75</ele><time>2026-04-03T12:06:44.808Z</time></trkpt><trkpt lat="44.04205180233031" lon="11.862041985487963"><ele>504.0</ele><time>2026-04-03T12:06:45.808Z</time></trkpt><trkpt lat="44.04214582610302" lon="11.861958986487323"><ele>504.0</ele><time>2026-04-03T12:06:46.808Z</time></trkpt><trkpt lat="44.04223109635141" lon="11.861860593226707"><ele>504.0</ele><time>2026-04-03T12:06:47.808Z</time></trkpt><trkpt lat="44.04228778330901" lon="11.86171124998571"><ele>504.0</ele><time>2026-04-03T12:06:48.808Z</time></trkpt><trkpt lat="44.04230426112468" lon="11.861545910254998"><ele>504.0</ele><time>2026-04-03T12:06:49.808Z</time></trkpt><trkpt lat="44.04229825469704" lon="11.861350549863253"><ele>507.5</ele><time>2026-04-03T12:06:50.808Z</time></trkpt><trkpt lat="44.04228032758763" lon="11.861133649857498"><ele>511.0</ele><time>2026-04-03T12:06:51.808Z</time></trkpt><trkpt lat="44.04225874011923" lon="11.860945628577939"><ele>514.5</ele><time>2026-04-03T12:06:52.808Z</time></trkpt><trkpt lat="44.04224229119543" lon="11.860746771194108"><ele>518.0</ele><time>2026-04-03T12:06:53.808Z</time></trkpt><trkpt lat="44.042235693627184" lon="11.8605550312748"><ele>518.5</ele><time>2026-04-03T12:06:54.808Z</time></trkpt><trkpt lat="44.042248766724114" lon="11.860358422498779"><ele>519.0</ele><time>2026-04-03T12:06:55.808Z</time></trkpt><trkpt lat="44.042289507223714" lon="11.860163648542876"><ele>519.5</ele><time>2026-04-03T12:06:56.808Z</time></trkpt><trkpt lat="44.04235030421599" lon="11.859973473719483"><ele>520.0</ele><time>2026-04-03T12:06:57.808Z</time></trkpt><trkpt lat="44.04242487751616" lon="11.859768079210507"><ele>512.3333333333334</ele><time>2026-04-03T12:06:58.808Z</time></trkpt><trkpt lat="44.04251050036877" lon="11.859559063961825"><ele>504.66666666666663</ele><time>2026-04-03T12:06:59.808Z</time></trkpt><trkpt lat="44.042595255994996" lon="11.859358230898888"><ele>497.0</ele><time>2026-04-03T12:07:00.808Z</time></trkpt><trkpt lat="44.042672635365406" lon="11.859165234422823"><ele>497.0</ele><time>2026-04-03T12:07:01.808Z</time></trkpt><trkpt lat="44.042753806637" lon="11.858981609499484"><ele>497.0</ele><time>2026-04-03T12:07:02.808Z</time></trkpt><trkpt lat="44.04282325083815" lon="11.858801977358159"><ele>497.0</ele><time>2026-04-03T12:07:03.808Z</time></trkpt><trkpt lat="44.04286757714616" lon="11.858615224162225"><ele>497.0</ele><time>2026-04-03T12:07:04.808Z</time></trkpt><trkpt lat="44.042901764605155" lon="11.858435332718416"><ele>496.0</ele><time>2026-04-03T12:07:05.808Z</time></trkpt><trkpt lat="44.04294460390929" lon="11.858258231291389"><ele>495.0</ele><time>2026-04-03T12:07:06.808Z</time></trkpt><trkpt lat="44.0430086971819" lon="11.858103658123222"><ele>494.0</ele><time>2026-04-03T12:07:07.808Z</time></trkpt><trkpt lat="44.04308645039754" lon="11.85797696902104"><ele>493.0</ele><time>2026-04-03T12:07:08.808Z</time></trkpt><trkpt lat="44.043183857421376" lon="11.857859960939786"><ele>493.0</ele><time>2026-04-03T12:07:09.808Z</time></trkpt><trkpt lat="44.04327419193787" lon="11.8577417807371"><ele>493.0</ele><time>2026-04-03T12:07:10.808Z</time></trkpt><trkpt lat="44.04332718817001" lon="11.857598307544906"><ele>493.0</ele><time>2026-04-03T12:07:11.808Z</time></trkpt><trkpt lat="44.043345131851794" lon="11.857423109285763"><ele>493.0</ele><time>2026-04-03T12:07:12.808Z</time></trkpt><trkpt lat="44.043334185231025" lon="11.857228953295907"><ele>488.6666666666667</ele><time>2026-04-03T12:07:13.808Z</time></trkpt><trkpt lat="44.04331775104957" lon="11.8570227151912"><ele>484.33333333333337</ele><time>2026-04-03T12:07:14.808Z</time></trkpt><trkpt lat="44.04331708594189" lon="11.85680318279421"><ele>480.0</ele><time>2026-04-03T12:07:15.808Z</time></trkpt><trkpt lat="44.043330506388" lon="11.856576782073299"><ele>479.0</ele><time>2026-04-03T12:07:16.808Z</time></trkpt><trkpt lat="44.04335330063999" lon="11.85634829129707"><ele>478.0</ele><time>2026-04-03T12:07:17.808Z</time></trkpt><trkpt lat="44.04337234501865" lon="11.8561099215191"><ele>477.0</ele><time>2026-04-03T12:07:18.808Z</time></trkpt><trkpt lat="44.04337063702694" lon="11.85587694526402"><ele>473.33333333333337</ele><time>2026-04-03T12:07:19.808Z</time></trkpt><trkpt lat="44.04337873944333" lon="11.855649784313242"><ele>469.6666666666667</ele><time>2026-04-03T12:07:20.808Z</time></trkpt><trkpt lat="44.043388099613615" lon="11.85542062300224"><ele>466.0</ele><time>2026-04-03T12:07:21.804Z</time></trkpt><trkpt lat="44.04340460439801" lon="11.855181667772836"><ele>463.33333333333337</ele><time>2026-04-03T12:07:22.804Z</time></trkpt><trkpt lat="44.043415045667764" lon="11.854941267829632"><ele>460.66666666666663</ele><time>2026-04-03T12:07:23.804Z</time></trkpt><trkpt lat="44.04341704321941" lon="11.854705860033082"><ele>458.0</ele><time>2026-04-03T12:07:24.805Z</time></trkpt><trkpt lat="44.04340520373304" lon="11.854478131745822"><ele>458.0</ele><time>2026-04-03T12:07:25.804Z</time></trkpt><trkpt lat="44.043379655239356" lon="11.854257573346704"><ele>458.0</ele><time>2026-04-03T12:07:26.804Z</time></trkpt><trkpt lat="44.043347647780685" lon="11.854047616856185"><ele>458.0</ele><time>2026-04-03T12:07:27.805Z</time></trkpt><trkpt lat="44.04332247991483" lon="11.853839940931701"><ele>458.0</ele><time>2026-04-03T12:07:28.804Z</time></trkpt><trkpt lat="44.04329870540983" lon="11.85365385346631"><ele>458.0</ele><time>2026-04-03T12:07:29.804Z</time></trkpt><trkpt lat="44.04327816139119" lon="11.853488415935551"><ele>458.0</ele><time>2026-04-03T12:07:30.804Z</time></trkpt><trkpt lat="44.043278129041866" lon="11.85332567375802"><ele>458.0</ele><time>2026-04-03T12:07:31.804Z</time></trkpt><trkpt lat="44.04330316282711" lon="11.853158113228819"><ele>456.0</ele><time>2026-04-03T12:07:32.804Z</time></trkpt><trkpt lat="44.0433410050821" lon="11.852989499294278"><ele>454.0</ele><time>2026-04-03T12:07:33.804Z</time></trkpt><trkpt lat="44.04338679038994" lon="11.852828011626876"><ele>452.0</ele><time>2026-04-03T12:07:34.804Z</time></trkpt><trkpt lat="44.043427905514285" lon="11.852676648653787"><ele>450.0</ele><time>2026-04-03T12:07:35.804Z</time></trkpt><trkpt lat="44.04344070763229" lon="11.852522911358049"><ele>448.25</ele><time>2026-04-03T12:07:36.804Z</time></trkpt><trkpt lat="44.04341082930322" lon="11.852366863513492"><ele>446.5</ele><time>2026-04-03T12:07:37.804Z</time></trkpt><trkpt lat="44.04334315729235" lon="11.8522201637392"><ele>444.75</ele><time>2026-04-03T12:07:38.804Z</time></trkpt><trkpt lat="44.04324964552106" lon="11.852122379208863"><ele>443.0</ele><time>2026-04-03T12:07:39.804Z</time></trkpt><trkpt lat="44.043143909380156" lon="11.8520502638314"><ele>438.75</ele><time>2026-04-03T12:07:40.804Z</time></trkpt><trkpt lat="44.043031036245196" lon="11.851956271459308"><ele>434.5</ele><time>2026-04-03T12:07:41.804Z</time></trkpt><trkpt lat="44.042928615304035" lon="11.851820684728336"><ele>430.25</ele><time>2026-04-03T12:07:42.804Z</time></trkpt><trkpt lat="44.04285373808995" lon="11.851659758863851"><ele>426.0</ele><time>2026-04-03T12:07:43.804Z</time></trkpt><trkpt lat="44.042776193075234" lon="11.851509733951067"><ele>426.0</ele><time>2026-04-03T12:07:44.804Z</time></trkpt><trkpt lat="44.0426778295956" lon="11.851398471762725"><ele>426.0</ele><time>2026-04-03T12:07:45.804Z</time></trkpt><trkpt lat="44.04259487817078" lon="11.851294459185654"><ele>426.0</ele><time>2026-04-03T12:07:46.804Z</time></trkpt><trkpt lat="44.04252706722524" lon="11.851190602339999"><ele>426.0</ele><time>2026-04-03T12:07:47.804Z</time></trkpt><trkpt lat="44.04248833290481" lon="11.851088732390584"><ele>426.0</ele><time>2026-04-03T12:07:48.804Z</time></trkpt><trkpt lat="44.042498231345874" lon="11.850968878259462"><ele>425.8</ele><time>2026-04-03T12:07:49.804Z</time></trkpt><trkpt lat="44.04252985815795" lon="11.850833866294685"><ele>425.6</ele><time>2026-04-03T12:07:50.804Z</time></trkpt><trkpt lat="44.04257639438589" lon="11.850677672256563"><ele>425.4</ele><time>2026-04-03T12:07:51.804Z</time></trkpt><trkpt lat="44.042623681180636" lon="11.85052419860679"><ele>425.2</ele><time>2026-04-03T12:07:52.804Z</time></trkpt><trkpt lat="44.04267804494437" lon="11.850401223823429"><ele>425.0</ele><time>2026-04-03T12:07:53.804Z</time></trkpt><trkpt lat="44.04274403445965" lon="11.85030906260656"><ele>425.0</ele><time>2026-04-03T12:07:54.804Z</time></trkpt><trkpt lat="44.042833966723386" lon="11.85026090856135"><ele>425.0</ele><time>2026-04-03T12:07:55.804Z</time></trkpt><trkpt lat="44.04294898315709" lon="11.850265294437625"><ele>425.0</ele><time>2026-04-03T12:07:56.804Z</time></trkpt><trkpt lat="44.04307410766011" lon="11.850300009080406"><ele>425.0</ele><time>2026-04-03T12:07:57.804Z</time></trkpt><trkpt lat="44.043208760927115" lon="11.850314430870093"><ele>424.25</ele><time>2026-04-03T12:07:58.804Z</time></trkpt><trkpt lat="44.043339620782035" lon="11.85027040171394"><ele>423.5</ele><time>2026-04-03T12:07:59.804Z</time></trkpt><trkpt lat="44.04346562115268" lon="11.850174690350576"><ele>422.75</ele><time>2026-04-03T12:08:00.804Z</time></trkpt><trkpt lat="44.04358905871251" lon="11.850087048947845"><ele>422.0</ele><time>2026-04-03T12:08:01.804Z</time></trkpt><trkpt lat="44.04372561640421" lon="11.850038993446244"><ele>422.0</ele><time>2026-04-03T12:08:02.804Z</time></trkpt><trkpt lat="44.04386856634461" lon="11.849998565293038"><ele>422.0</ele><time>2026-04-03T12:08:03.804Z</time></trkpt><trkpt lat="44.044009048387615" lon="11.849958224249644"><ele>422.0</ele><time>2026-04-03T12:08:04.804Z</time></trkpt><trkpt lat="44.04414208456792" lon="11.849893668407583"><ele>422.0</ele><time>2026-04-03T12:08:05.804Z</time></trkpt><trkpt lat="44.04425316119971" lon="11.84979161639564"><ele>424.5</ele><time>2026-04-03T12:08:06.804Z</time></trkpt><trkpt lat="44.04433705393041" lon="11.849660103301439"><ele>427.0</ele><time>2026-04-03T12:08:07.804Z</time></trkpt><trkpt lat="44.04441237276412" lon="11.849531243294425"><ele>429.5</ele><time>2026-04-03T12:08:08.804Z</time></trkpt><trkpt lat="44.04449752829113" lon="11.849429142357923"><ele>432.0</ele><time>2026-04-03T12:08:09.804Z</time></trkpt><trkpt lat="44.04460184464745" lon="11.849376971985087"><ele>432.0</ele><time>2026-04-03T12:08:10.804Z</time></trkpt><trkpt lat="44.044706227162074" lon="11.849364220167717"><ele>432.00000000000006</ele><time>2026-04-03T12:08:11.804Z</time></trkpt><trkpt lat="44.0448016831101" lon="11.84932463501375"><ele>432.00000000000006</ele><time>2026-04-03T12:08:12.804Z</time></trkpt><trkpt lat="44.044863889578856" lon="11.84923877145616"><ele>432.0</ele><time>2026-04-03T12:08:13.804Z</time></trkpt><trkpt lat="44.04488393843395" lon="11.849127128016027"><ele>432.0</ele><time>2026-04-03T12:08:14.804Z</time></trkpt><trkpt lat="44.04485006757429" lon="11.848979241151023"><ele>425.75</ele><time>2026-04-03T12:08:15.804Z</time></trkpt><trkpt lat="44.044773193969014" lon="11.848846973659743"><ele>419.5</ele><time>2026-04-03T12:08:16.804Z</time></trkpt><trkpt lat="44.044681223201586" lon="11.84871965280537"><ele>413.25</ele><time>2026-04-03T12:08:17.804Z</time></trkpt><trkpt lat="44.04457183011831" lon="11.848578509096948"><ele>407.0</ele><time>2026-04-03T12:08:18.804Z</time></trkpt><trkpt lat="44.044442899491806" lon="11.848460176054703"><ele>407.0</ele><time>2026-04-03T12:08:19.804Z</time></trkpt><trkpt lat="44.04429876931619" lon="11.848379674470122"><ele>407.0</ele><time>2026-04-03T12:08:20.804Z</time></trkpt><trkpt lat="44.04415703079187" lon="11.848306119007587"><ele>407.0</ele><time>2026-04-03T12:08:21.804Z</time></trkpt><trkpt lat="44.0440400033039" lon="11.848218585711798"><ele>407.0</ele><time>2026-04-03T12:08:22.803Z</time></trkpt><trkpt lat="44.04393873969905" lon="11.848108040079413"><ele>404.8</ele><time>2026-04-03T12:08:23.803Z</time></trkpt><trkpt lat="44.04386464574134" lon="11.847990266259885"><ele>402.6</ele><time>2026-04-03T12:08:24.803Z</time></trkpt><trkpt lat="44.043839550775196" lon="11.847842098933953"><ele>400.40000000000003</ele><time>2026-04-03T12:08:25.803Z</time></trkpt><trkpt lat="44.04383881644079" lon="11.84773806769552"><ele>398.20000000000005</ele><time>2026-04-03T12:08:26.803Z</time></trkpt><trkpt lat="44.04393967253303" lon="11.847630303223415"><ele>396.0</ele><time>2026-04-03T12:08:28.803Z</time></trkpt><trkpt lat="44.044047921470536" lon="11.847622268756712"><ele>396.5</ele><time>2026-04-03T12:08:29.803Z</time></trkpt><trkpt lat="44.04416409963134" lon="11.847616667860008"><ele>397.0</ele><time>2026-04-03T12:08:30.803Z</time></trkpt><trkpt lat="44.0442883177075" lon="11.847602792943272"><ele>397.5</ele><time>2026-04-03T12:08:31.803Z</time></trkpt><trkpt lat="44.04442402195177" lon="11.847579332633604"><ele>398.0</ele><time>2026-04-03T12:08:32.803Z</time></trkpt><trkpt lat="44.044556190937925" lon="11.84755653271479"><ele>398.0</ele><time>2026-04-03T12:08:33.803Z</time></trkpt><trkpt lat="44.04468235539395" lon="11.847528633820424"><ele>398.0</ele><time>2026-04-03T12:08:34.803Z</time></trkpt><trkpt lat="44.04479192992683" lon="11.847499263374512"><ele>398.0</ele><time>2026-04-03T12:08:35.803Z</time></trkpt><trkpt lat="44.04488445545407" lon="11.847454142688935"><ele>398.0</ele><time>2026-04-03T12:08:36.803Z</time></trkpt><trkpt lat="44.044952152192046" lon="11.847385109923165"><ele>398.0</ele><time>2026-04-03T12:08:37.803Z</time></trkpt><trkpt lat="44.044976725434445" lon="11.847288058314236"><ele>398.0</ele><time>2026-04-03T12:08:38.803Z</time></trkpt><trkpt lat="44.04496130752693" lon="11.847157429233235"><ele>398.0</ele><time>2026-04-03T12:08:39.803Z</time></trkpt><trkpt lat="44.04492900708965" lon="11.84700912351905"><ele>398.0</ele><time>2026-04-03T12:08:40.803Z</time></trkpt><trkpt lat="44.04490065338956" lon="11.846840963020618"><ele>398.0</ele><time>2026-04-03T12:08:41.803Z</time></trkpt><trkpt lat="44.04486933651043" lon="11.846658956166365"><ele>392.25</ele><time>2026-04-03T12:08:42.803Z</time></trkpt><trkpt lat="44.044838400167684" lon="11.84648002490131"><ele>386.5</ele><time>2026-04-03T12:08:43.803Z</time></trkpt><trkpt lat="44.04480802016518" lon="11.846306527000987"><ele>380.75</ele><time>2026-04-03T12:08:44.803Z</time></trkpt><trkpt lat="44.04478828693489" lon="11.846144154565547"><ele>375.0</ele><time>2026-04-03T12:08:45.803Z</time></trkpt><trkpt lat="44.04478878046694" lon="11.846003912575794"><ele>376.8</ele><time>2026-04-03T12:08:46.803Z</time></trkpt><trkpt lat="44.044807644767985" lon="11.845873653324508"><ele>378.6</ele><time>2026-04-03T12:08:47.803Z</time></trkpt><trkpt lat="44.04485863231716" lon="11.845776046628524"><ele>380.4</ele><time>2026-04-03T12:08:48.803Z</time></trkpt><trkpt lat="44.044931766985265" lon="11.845705849955804"><ele>382.2</ele><time>2026-04-03T12:08:49.803Z</time></trkpt><trkpt lat="44.04504429510615" lon="11.845645391669416"><ele>384.0</ele><time>2026-04-03T12:08:50.803Z</time></trkpt><trkpt lat="44.0451691348558" lon="11.845613546674736"><ele>384.0</ele><time>2026-04-03T12:08:51.803Z</time></trkpt><trkpt lat="44.04530124928168" lon="11.845608797545946"><ele>384.0</ele><time>2026-04-03T12:08:52.803Z</time></trkpt><trkpt lat="44.045427250022044" lon="11.845604433825338"><ele>384.0</ele><time>2026-04-03T12:08:53.803Z</time></trkpt><trkpt lat="44.04556478727016" lon="11.845589026671373"><ele>384.0</ele><time>2026-04-03T12:08:54.803Z</time></trkpt><trkpt lat="44.04570213570684" lon="11.84554227416314"><ele>386.0</ele><time>2026-04-03T12:08:55.803Z</time></trkpt><trkpt lat="44.04583717123113" lon="11.845456402738726"><ele>388.0</ele><time>2026-04-03T12:08:56.803Z</time></trkpt><trkpt lat="44.04596301748002" lon="11.84532634771489"><ele>390.0</ele><time>2026-04-03T12:08:57.803Z</time></trkpt><trkpt lat="44.046082853159675" lon="11.845170130047418"><ele>381.3333333333333</ele><time>2026-04-03T12:08:58.803Z</time></trkpt><trkpt lat="44.04621375707159" lon="11.845006465641902"><ele>372.66666666666663</ele><time>2026-04-03T12:08:59.803Z</time></trkpt><trkpt lat="44.046343904377906" lon="11.844852958016087"><ele>364.0</ele><time>2026-04-03T12:09:00.803Z</time></trkpt><trkpt lat="44.04646106383199" lon="11.844707383603273"><ele>364.0</ele><time>2026-04-03T12:09:01.803Z</time></trkpt><trkpt lat="44.046572535535404" lon="11.844569523109675"><ele>364.0</ele><time>2026-04-03T12:09:02.803Z</time></trkpt><trkpt lat="44.0466889805355" lon="11.844467192478241"><ele>364.0</ele><time>2026-04-03T12:09:03.803Z</time></trkpt><trkpt lat="44.04682234970331" lon="11.844403580667429"><ele>364.0</ele><time>2026-04-03T12:09:04.803Z</time></trkpt><trkpt lat="44.04694935935662" lon="11.84434520722092"><ele>366.2</ele><time>2026-04-03T12:09:05.803Z</time></trkpt><trkpt lat="44.04706382030765" lon="11.844309887188045"><ele>368.4</ele><time>2026-04-03T12:09:06.803Z</time></trkpt><trkpt lat="44.04716676557753" lon="11.844274996976688"><ele>370.6</ele><time>2026-04-03T12:09:07.803Z</time></trkpt><trkpt lat="44.04725958743458" lon="11.844282545244429"><ele>372.8</ele><time>2026-04-03T12:09:08.803Z</time></trkpt><trkpt lat="44.04734898207473" lon="11.844334011019027"><ele>375.0</ele><time>2026-04-03T12:09:09.803Z</time></trkpt><trkpt lat="44.04741408206803" lon="11.844430755521016"><ele>375.0</ele><time>2026-04-03T12:09:10.803Z</time></trkpt><trkpt lat="44.047456550230734" lon="11.844554467725716"><ele>375.0</ele><time>2026-04-03T12:09:11.803Z</time></trkpt><trkpt lat="44.047464510114445" lon="11.844682940549257"><ele>375.0</ele><time>2026-04-03T12:09:12.803Z</time></trkpt><trkpt lat="44.04745204397377" lon="11.844800272747966"><ele>375.0</ele><time>2026-04-03T12:09:13.803Z</time></trkpt><trkpt lat="44.04746062143247" lon="11.844901401771128"><ele>375.0</ele><time>2026-04-03T12:09:14.803Z</time></trkpt><trkpt lat="44.047507899410675" lon="11.84496982743786"><ele>375.0</ele><time>2026-04-03T12:09:15.803Z</time></trkpt><trkpt lat="44.047569355574275" lon="11.844949730508386"><ele>370.2</ele><time>2026-04-03T12:09:16.803Z</time></trkpt><trkpt lat="44.04763072995338" lon="11.844866580718193"><ele>365.4</ele><time>2026-04-03T12:09:17.803Z</time></trkpt><trkpt lat="44.04766068884955" lon="11.844739237085133"><ele>360.6</ele><time>2026-04-03T12:09:18.803Z</time></trkpt><trkpt lat="44.047651817679196" lon="11.844587055893903"><ele>355.8</ele><time>2026-04-03T12:09:19.803Z</time></trkpt><trkpt lat="44.04762109270386" lon="11.844416962387482"><ele>351.0</ele><time>2026-04-03T12:09:20.803Z</time></trkpt><trkpt lat="44.047591116234145" lon="11.844242974771467"><ele>350.25</ele><time>2026-04-03T12:09:21.803Z</time></trkpt><trkpt lat="44.04756511830481" lon="11.844064645150599"><ele>349.5</ele><time>2026-04-03T12:09:22.803Z</time></trkpt><trkpt lat="44.04754635378318" lon="11.843893976216476"><ele>348.75</ele><time>2026-04-03T12:09:23.803Z</time></trkpt><trkpt lat="44.047532580374124" lon="11.84373544889379"><ele>348.0</ele><time>2026-04-03T12:09:24.803Z</time></trkpt><trkpt lat="44.04754256749974" lon="11.84358362566786"><ele>343.75</ele><time>2026-04-03T12:09:25.803Z</time></trkpt><trkpt lat="44.047596082496476" lon="11.84343876574147"><ele>339.5</ele><time>2026-04-03T12:09:26.803Z</time></trkpt><trkpt lat="44.0476839845871" lon="11.843304300029914"><ele>335.25</ele><time>2026-04-03T12:09:27.801Z</time></trkpt><trkpt lat="44.047792969562245" lon="11.843178162639504"><ele>331.0</ele><time>2026-04-03T12:09:28.801Z</time></trkpt><trkpt lat="44.04790035807191" lon="11.843058755250972"><ele>331.0</ele><time>2026-04-03T12:09:29.801Z</time></trkpt><trkpt lat="44.04800256975163" lon="11.842944301195812"><ele>331.0</ele><time>2026-04-03T12:09:30.8Z</time></trkpt><trkpt lat="44.048093311520674" lon="11.842834239141236"><ele>331.0</ele><time>2026-04-03T12:09:31.801Z</time></trkpt><trkpt lat="44.048178921009075" lon="11.842746652151634"><ele>331.0</ele><time>2026-04-03T12:09:32.801Z</time></trkpt><trkpt lat="44.04826350372697" lon="11.84267666286712"><ele>330.0</ele><time>2026-04-03T12:09:33.801Z</time></trkpt><trkpt lat="44.04833486780578" lon="11.842621885267889"><ele>329.0</ele><time>2026-04-03T12:09:34.801Z</time></trkpt><trkpt lat="44.04835344249289" lon="11.84248941606673"><ele>328.0</ele><time>2026-04-03T12:09:36.801Z</time></trkpt><trkpt lat="44.04824028789504" lon="11.842456103260723"><ele>327.0</ele><time>2026-04-03T12:09:38.8Z</time></trkpt><trkpt lat="44.04815966033472" lon="11.842507448694969"><ele>326.0</ele><time>2026-04-03T12:09:39.8Z</time></trkpt><trkpt lat="44.048056953597786" lon="11.842589280019936"><ele>327.25</ele><time>2026-04-03T12:09:40.801Z</time></trkpt><trkpt lat="44.047947960734284" lon="11.842675499151056"><ele>328.5</ele><time>2026-04-03T12:09:41.801Z</time></trkpt><trkpt lat="44.04783299132077" lon="11.84276587218814"><ele>329.75</ele><time>2026-04-03T12:09:42.8Z</time></trkpt><trkpt lat="44.04773420162956" lon="11.842852031171756"><ele>331.0</ele><time>2026-04-03T12:09:43.8Z</time></trkpt><trkpt lat="44.047634632145915" lon="11.842945599732024"><ele>331.0</ele><time>2026-04-03T12:09:44.8Z</time></trkpt><trkpt lat="44.04755103204895" lon="11.843026823438379"><ele>331.0</ele><time>2026-04-03T12:09:45.8Z</time></trkpt><trkpt lat="44.04747702520697" lon="11.843083950391435"><ele>331.0</ele><time>2026-04-03T12:09:46.8Z</time></trkpt><trkpt lat="44.04741148329866" lon="11.84311245613316"><ele>331.0</ele><time>2026-04-03T12:09:47.8Z</time></trkpt><trkpt lat="44.04734419855796" lon="11.843011712652535"><ele>331.0</ele><time>2026-04-03T12:09:49.8Z</time></trkpt><trkpt lat="44.04737673844818" lon="11.84291868623175"><ele>331.0</ele><time>2026-04-03T12:09:50.8Z</time></trkpt><trkpt lat="44.04746500436954" lon="11.842840762638243"><ele>331.0</ele><time>2026-04-03T12:09:51.8Z</time></trkpt><trkpt lat="44.047569101576144" lon="11.84275657242196"><ele>331.0</ele><time>2026-04-03T12:09:52.8Z</time></trkpt><trkpt lat="44.04766756199536" lon="11.842655819575052"><ele>331.0</ele><time>2026-04-03T12:09:53.8Z</time></trkpt><trkpt lat="44.047762671167156" lon="11.842549168035239"><ele>331.0</ele><time>2026-04-03T12:09:54.8Z</time></trkpt><trkpt lat="44.04785008431366" lon="11.842445492821698"><ele>327.5</ele><time>2026-04-03T12:09:55.8Z</time></trkpt><trkpt lat="44.04792563147285" lon="11.842331113276286"><ele>324.0</ele><time>2026-04-03T12:09:56.8Z</time></trkpt><trkpt lat="44.047992849542375" lon="11.842191594779472"><ele>320.5</ele><time>2026-04-03T12:09:57.8Z</time></trkpt><trkpt lat="44.04804673899866" lon="11.842044067070411"><ele>317.0</ele><time>2026-04-03T12:09:58.8Z</time></trkpt><trkpt lat="44.04808870690214" lon="11.84187699301304"><ele>313.25</ele><time>2026-04-03T12:09:59.8Z</time></trkpt><trkpt lat="44.048130344535224" lon="11.841701508628313"><ele>309.5</ele><time>2026-04-03T12:10:00.8Z</time></trkpt><trkpt lat="44.048162758352326" lon="11.841525881159034"><ele>305.75</ele><time>2026-04-03T12:10:01.8Z</time></trkpt><trkpt lat="44.048200347828335" lon="11.8413712935913"><ele>302.0</ele><time>2026-04-03T12:10:02.8Z</time></trkpt><trkpt lat="44.04824602176547" lon="11.841218522486283"><ele>302.75</ele><time>2026-04-03T12:10:03.8Z</time></trkpt><trkpt lat="44.04831380797825" lon="11.841091620023613"><ele>303.5</ele><time>2026-04-03T12:10:04.8Z</time></trkpt><trkpt lat="44.048407494873956" lon="11.840977831700393"><ele>304.25</ele><time>2026-04-03T12:10:05.8Z</time></trkpt><trkpt lat="44.04851322705993" lon="11.840872163744192"><ele>305.0</ele><time>2026-04-03T12:10:06.8Z</time></trkpt><trkpt lat="44.0486226129232" lon="11.840743398168396"><ele>305.0</ele><time>2026-04-03T12:10:07.8Z</time></trkpt><trkpt lat="44.04871943690936" lon="11.840604775470466"><ele>305.0</ele><time>2026-04-03T12:10:08.8Z</time></trkpt><trkpt lat="44.048805345432086" lon="11.840467068214647"><ele>305.0</ele><time>2026-04-03T12:10:09.8Z</time></trkpt><trkpt lat="44.04889208118496" lon="11.840359100663274"><ele>305.0</ele><time>2026-04-03T12:10:10.8Z</time></trkpt><trkpt lat="44.0489850928455" lon="11.840281921979235"><ele>305.0</ele><time>2026-04-03T12:10:11.8Z</time></trkpt><trkpt lat="44.04909352424127" lon="11.840258454552508"><ele>305.0</ele><time>2026-04-03T12:10:12.8Z</time></trkpt><trkpt lat="44.04921128147371" lon="11.840254894488172"><ele>305.0</ele><time>2026-04-03T12:10:13.8Z</time></trkpt><trkpt lat="44.04933434306872" lon="11.840287858284208"><ele>305.0</ele><time>2026-04-03T12:10:14.8Z</time></trkpt><trkpt lat="44.04944908905936" lon="11.840362074909917"><ele>304.5</ele><time>2026-04-03T12:10:15.8Z</time></trkpt><trkpt lat="44.049537108743785" lon="11.840456267937906"><ele>304.0</ele><time>2026-04-03T12:10:16.8Z</time></trkpt><trkpt lat="44.04960909865035" lon="11.840576647857448"><ele>303.5</ele><time>2026-04-03T12:10:17.8Z</time></trkpt><trkpt lat="44.04967126571359" lon="11.840729115332504"><ele>303.0</ele><time>2026-04-03T12:10:18.8Z</time></trkpt><trkpt lat="44.04971539519424" lon="11.84089816236674"><ele>302.4</ele><time>2026-04-03T12:10:19.8Z</time></trkpt><trkpt lat="44.0497304677836" lon="11.841066757853412"><ele>301.8</ele><time>2026-04-03T12:10:20.8Z</time></trkpt><trkpt lat="44.04972335597606" lon="11.84121588194181"><ele>301.2</ele><time>2026-04-03T12:10:21.8Z</time></trkpt><trkpt lat="44.04971465619274" lon="11.841345856325447"><ele>300.6</ele><time>2026-04-03T12:10:22.8Z</time></trkpt><trkpt lat="44.04973203136745" lon="11.841473562447321"><ele>300.0</ele><time>2026-04-03T12:10:23.8Z</time></trkpt><trkpt lat="44.04979013172998" lon="11.84154841637787"><ele>300.0</ele><time>2026-04-03T12:10:24.8Z</time></trkpt><trkpt lat="44.04985380357628" lon="11.841551289090107"><ele>300.0</ele><time>2026-04-03T12:10:25.8Z</time></trkpt><trkpt lat="44.049912120611" lon="11.841487974115875"><ele>300.0</ele><time>2026-04-03T12:10:26.8Z</time></trkpt><trkpt lat="44.049952198950656" lon="11.841388192120114"><ele>300.0</ele><time>2026-04-03T12:10:27.8Z</time></trkpt><trkpt lat="44.04996996088407" lon="11.841249352052529"><ele>300.0</ele><time>2026-04-03T12:10:28.8Z</time></trkpt><trkpt lat="44.04997673976542" lon="11.84108331652088"><ele>300.0</ele><time>2026-04-03T12:10:29.8Z</time></trkpt><trkpt lat="44.04997880841387" lon="11.84091729270958"><ele>296.2</ele><time>2026-04-03T12:10:30.8Z</time></trkpt><trkpt lat="44.04997946022003" lon="11.840750524977256"><ele>292.4</ele><time>2026-04-03T12:10:31.8Z</time></trkpt><trkpt lat="44.04998682988891" lon="11.840617297592738"><ele>288.6</ele><time>2026-04-03T12:10:32.8Z</time></trkpt><trkpt lat="44.04998733657156" lon="11.840480629658547"><ele>284.8</ele><time>2026-04-03T12:10:33.8Z</time></trkpt><trkpt lat="44.04998332111344" lon="11.840344442822174"><ele>281.0</ele><time>2026-04-03T12:10:34.8Z</time></trkpt><trkpt lat="44.04996281598594" lon="11.84020182626067"><ele>283.2</ele><time>2026-04-03T12:10:35.8Z</time></trkpt><trkpt lat="44.04992285097818" lon="11.840077403553043"><ele>285.40000000000003</ele><time>2026-04-03T12:10:36.8Z</time></trkpt><trkpt lat="44.0498517126925" lon="11.839966551426569"><ele>287.6</ele><time>2026-04-03T12:10:37.8Z</time></trkpt><trkpt lat="44.04978068267436" lon="11.839853995204642"><ele>289.8</ele><time>2026-04-03T12:10:38.8Z</time></trkpt><trkpt lat="44.04969527840822" lon="11.839727848336464"><ele>292.0</ele><time>2026-04-03T12:10:39.8Z</time></trkpt><trkpt lat="44.049608217468446" lon="11.839595751759122"><ele>292.0</ele><time>2026-04-03T12:10:40.8Z</time></trkpt><trkpt lat="44.04952457708155" lon="11.839469064739818"><ele>292.0</ele><time>2026-04-03T12:10:41.8Z</time></trkpt><trkpt lat="44.04946773029892" lon="11.839356772097196"><ele>292.0</ele><time>2026-04-03T12:10:42.8Z</time></trkpt><trkpt lat="44.04944131492322" lon="11.839251345758518"><ele>292.0</ele><time>2026-04-03T12:10:43.8Z</time></trkpt><trkpt lat="44.04944642513605" lon="11.839163501770194"><ele>292.0</ele><time>2026-04-03T12:10:44.8Z</time></trkpt><trkpt lat="44.04953838134181" lon="11.839091203233258"><ele>292.0</ele><time>2026-04-03T12:10:46.8Z</time></trkpt><trkpt lat="44.049601871255454" lon="11.839155662116958"><ele>292.0</ele><time>2026-04-03T12:10:47.8Z</time></trkpt><trkpt lat="44.04965432333592" lon="11.839266789897927"><ele>292.0</ele><time>2026-04-03T12:10:48.8Z</time></trkpt><trkpt lat="44.049721185332594" lon="11.839379629868935"><ele>292.0</ele><time>2026-04-03T12:10:49.8Z</time></trkpt><trkpt lat="44.04979327960501" lon="11.83947569934259"><ele>292.0</ele><time>2026-04-03T12:10:50.8Z</time></trkpt><trkpt lat="44.04988514469534" lon="11.839522690860784"><ele>288.25</ele><time>2026-04-03T12:10:51.8Z</time></trkpt><trkpt lat="44.049998909749895" lon="11.839532449094715"><ele>284.5</ele><time>2026-04-03T12:10:52.8Z</time></trkpt><trkpt lat="44.05012980100863" lon="11.839522854262654"><ele>280.75</ele><time>2026-04-03T12:10:53.8Z</time></trkpt><trkpt lat="44.05027717538184" lon="11.839517944802695"><ele>277.0</ele><time>2026-04-03T12:10:54.8Z</time></trkpt><trkpt lat="44.050430785328416" lon="11.839502549299517"><ele>277.0</ele><time>2026-04-03T12:10:55.8Z</time></trkpt><trkpt lat="44.050577832190235" lon="11.839490760548959"><ele>277.0</ele><time>2026-04-03T12:10:56.8Z</time></trkpt><trkpt lat="44.05073195278623" lon="11.83948315781969"><ele>277.0</ele><time>2026-04-03T12:10:57.8Z</time></trkpt><trkpt lat="44.05089177374812" lon="11.839481503628937"><ele>271.0</ele><time>2026-04-03T12:10:58.8Z</time></trkpt><trkpt lat="44.0510513877297" lon="11.839490433788173"><ele>265.0</ele><time>2026-04-03T12:10:59.8Z</time></trkpt><trkpt lat="44.05120433927886" lon="11.839509046444412"><ele>259.0</ele><time>2026-04-03T12:11:00.8Z</time></trkpt><trkpt lat="44.051355471077635" lon="11.839547761966678"><ele>259.0</ele><time>2026-04-03T12:11:01.8Z</time></trkpt><trkpt lat="44.05150582539063" lon="11.839615616003842"><ele>259.0</ele><time>2026-04-03T12:11:02.8Z</time></trkpt><trkpt lat="44.05164702271119" lon="11.83970794419838"><ele>259.0</ele><time>2026-04-03T12:11:03.8Z</time></trkpt><trkpt lat="44.051804285062225" lon="11.839825421207626"><ele>258.66666666666663</ele><time>2026-04-03T12:11:04.8Z</time></trkpt><trkpt lat="44.05195950599615" lon="11.839954780642639"><ele>258.3333333333333</ele><time>2026-04-03T12:11:05.8Z</time></trkpt><trkpt lat="44.05212384859952" lon="11.840087940756874"><ele>258.0</ele><time>2026-04-03T12:11:06.8Z</time></trkpt><trkpt lat="44.05229060230328" lon="11.840225850135067"><ele>257.3333333333333</ele><time>2026-04-03T12:11:07.8Z</time></trkpt><trkpt lat="44.05246023044215" lon="11.84036065756809"><ele>256.66666666666663</ele><time>2026-04-03T12:11:08.8Z</time></trkpt><trkpt lat="44.05262348106986" lon="11.840495255938587"><ele>256.0</ele><time>2026-04-03T12:11:09.8Z</time></trkpt><trkpt lat="44.052782827974376" lon="11.840625680306879"><ele>256.0</ele><time>2026-04-03T12:11:10.8Z</time></trkpt><trkpt lat="44.05294193146449" lon="11.840757331022576"><ele>256.0</ele><time>2026-04-03T12:11:11.8Z</time></trkpt><trkpt lat="44.05310388486106" lon="11.840893662186483"><ele>256.0</ele><time>2026-04-03T12:11:12.8Z</time></trkpt><trkpt lat="44.05326813263806" lon="11.841026190486584"><ele>255.66666666666666</ele><time>2026-04-03T12:11:13.8Z</time></trkpt><trkpt lat="44.05343165424315" lon="11.841156215306484"><ele>255.33333333333331</ele><time>2026-04-03T12:11:14.8Z</time></trkpt><trkpt lat="44.05359646676089" lon="11.841296232476369"><ele>255.0</ele><time>2026-04-03T12:11:15.8Z</time></trkpt><trkpt lat="44.05375687795718" lon="11.84142472180652"><ele>255.0</ele><time>2026-04-03T12:11:16.8Z</time></trkpt><trkpt lat="44.05388582503324" lon="11.841536902472681"><ele>255.0</ele><time>2026-04-03T12:11:17.8Z</time></trkpt><trkpt lat="44.05401580872599" lon="11.84164498324224"><ele>255.0</ele><time>2026-04-03T12:11:18.8Z</time></trkpt><trkpt lat="44.054144970006234" lon="11.841747741196682"><ele>252.66666666666669</ele><time>2026-04-03T12:11:19.8Z</time></trkpt><trkpt lat="44.05427631051739" lon="11.841837170295353"><ele>250.33333333333334</ele><time>2026-04-03T12:11:20.8Z</time></trkpt><trkpt lat="44.05442104951276" lon="11.841910702890118"><ele>248.0</ele><time>2026-04-03T12:11:21.8Z</time></trkpt><trkpt lat="44.054569594189935" lon="11.8419709393525"><ele>248.0</ele><time>2026-04-03T12:11:22.8Z</time></trkpt><trkpt lat="44.054732794176964" lon="11.842009703521969"><ele>248.0</ele><time>2026-04-03T12:11:23.8Z</time></trkpt><trkpt lat="44.054900294941056" lon="11.842036602840903"><ele>248.0</ele><time>2026-04-03T12:11:24.8Z</time></trkpt><trkpt lat="44.05506706990482" lon="11.842058477274202"><ele>247.66666666666669</ele><time>2026-04-03T12:11:25.8Z</time></trkpt><trkpt lat="44.05523776754862" lon="11.842090625110156"><ele>247.33333333333331</ele><time>2026-04-03T12:11:26.8Z</time></trkpt><trkpt lat="44.05541482054666" lon="11.842125866413241"><ele>247.0</ele><time>2026-04-03T12:11:27.8Z</time></trkpt><trkpt lat="44.0555881725675" lon="11.842154110802063"><ele>247.0</ele><time>2026-04-03T12:11:28.8Z</time></trkpt><trkpt lat="44.05575395130933" lon="11.842183373125849"><ele>247.0</ele><time>2026-04-03T12:11:29.8Z</time></trkpt><trkpt lat="44.055901072707776" lon="11.842218909767796"><ele>247.0</ele><time>2026-04-03T12:11:30.8Z</time></trkpt><trkpt lat="44.05603971124961" lon="11.842259882250326"><ele>245.0</ele><time>2026-04-03T12:11:31.8Z</time></trkpt><trkpt lat="44.05616917572501" lon="11.84231986205341"><ele>243.0</ele><time>2026-04-03T12:11:32.8Z</time></trkpt><trkpt lat="44.056291124786036" lon="11.842408941631405"><ele>241.0</ele><time>2026-04-03T12:11:33.798Z</time></trkpt><trkpt lat="44.05639422662333" lon="11.842512825738943"><ele>239.0</ele><time>2026-04-03T12:11:34.797Z</time></trkpt><trkpt lat="44.0564884707392" lon="11.842629215091604"><ele>238.75</ele><time>2026-04-03T12:11:35.797Z</time></trkpt><trkpt lat="44.05658135445652" lon="11.842778434075276"><ele>238.5</ele><time>2026-04-03T12:11:36.797Z</time></trkpt><trkpt lat="44.05666886963748" lon="11.842946357993803"><ele>238.25</ele><time>2026-04-03T12:11:37.797Z</time></trkpt><trkpt lat="44.056766331136586" lon="11.843112684799397"><ele>238.0</ele><time>2026-04-03T12:11:38.797Z</time></trkpt><trkpt lat="44.05687350722237" lon="11.843265042460308"><ele>238.0</ele><time>2026-04-03T12:11:39.797Z</time></trkpt><trkpt lat="44.05698627616973" lon="11.84341544608164"><ele>238.0</ele><time>2026-04-03T12:11:40.797Z</time></trkpt><trkpt lat="44.05710650571536" lon="11.843561533074112"><ele>238.0</ele><time>2026-04-03T12:11:41.797Z</time></trkpt><trkpt lat="44.05722775270425" lon="11.843708053939997"><ele>236.5</ele><time>2026-04-03T12:11:42.797Z</time></trkpt><trkpt lat="44.057344152070634" lon="11.843839615085068"><ele>235.0</ele><time>2026-04-03T12:11:43.797Z</time></trkpt><trkpt lat="44.05746408639996" lon="11.843949102959106"><ele>233.5</ele><time>2026-04-03T12:11:44.797Z</time></trkpt><trkpt lat="44.05759306863741" lon="11.844048306794795"><ele>232.0</ele><time>2026-04-03T12:11:45.797Z</time></trkpt><trkpt lat="44.05773659870363" lon="11.844146954384797"><ele>232.0</ele><time>2026-04-03T12:11:46.797Z</time></trkpt><trkpt lat="44.057871624985346" lon="11.844239085698513"><ele>232.0</ele><time>2026-04-03T12:11:47.797Z</time></trkpt><trkpt lat="44.05799777458395" lon="11.844328098737549"><ele>232.0</ele><time>2026-04-03T12:11:48.797Z</time></trkpt><trkpt lat="44.058130718474104" lon="11.844421255979915"><ele>232.0</ele><time>2026-04-03T12:11:49.797Z</time></trkpt><trkpt lat="44.05825509112892" lon="11.844497370962404"><ele>233.2</ele><time>2026-04-03T12:11:50.797Z</time></trkpt><trkpt lat="44.058376660925184" lon="11.844558360850748"><ele>234.39999999999998</ele><time>2026-04-03T12:11:51.797Z</time></trkpt><trkpt lat="44.05849126103734" lon="11.844601332120064"><ele>235.60000000000002</ele><time>2026-04-03T12:11:52.797Z</time></trkpt><trkpt lat="44.058597873573234" lon="11.844629167149085"><ele>236.8</ele><time>2026-04-03T12:11:53.797Z</time></trkpt><trkpt lat="44.05868567277101" lon="11.844628518260476"><ele>238.0</ele><time>2026-04-03T12:11:54.797Z</time></trkpt><trkpt lat="44.058752944944786" lon="11.844618094034791"><ele>238.0</ele><time>2026-04-03T12:11:55.797Z</time></trkpt><trkpt lat="44.05885488635963" lon="11.8445303273099"><ele>238.0</ele><time>2026-04-03T12:11:58.797Z</time></trkpt><trkpt lat="44.05879697421914" lon="11.844459938734769"><ele>238.0</ele><time>2026-04-03T12:12:01.797Z</time></trkpt><trkpt lat="44.0586705654239" lon="11.844363357132432"><ele>238.0</ele><time>2026-04-03T12:12:03.797Z</time></trkpt><trkpt lat="44.05859164828581" lon="11.844293512444873"><ele>238.0</ele><time>2026-04-03T12:12:04.797Z</time></trkpt><trkpt lat="44.05852137902288" lon="11.844211728883074"><ele>234.8</ele><time>2026-04-03T12:12:05.797Z</time></trkpt><trkpt lat="44.058462804398935" lon="11.844128426869194"><ele>231.60000000000002</ele><time>2026-04-03T12:12:06.797Z</time></trkpt><trkpt lat="44.05841641890832" lon="11.844059095486564"><ele>228.39999999999998</ele><time>2026-04-03T12:12:07.797Z</time></trkpt><trkpt lat="44.058402405854316" lon="11.843958026502017"><ele>225.2</ele><time>2026-04-03T12:12:09.797Z</time></trkpt><trkpt lat="44.058531368027694" lon="11.843845510886357"><ele>222.0</ele><time>2026-04-03T12:12:11.797Z</time></trkpt><trkpt lat="44.05862294931471" lon="11.843772078747033"><ele>222.0</ele><time>2026-04-03T12:12:12.797Z</time></trkpt><trkpt lat="44.05871021843787" lon="11.843686701085693"><ele>222.0</ele><time>2026-04-03T12:12:13.797Z</time></trkpt><trkpt lat="44.05879711738585" lon="11.843615701530261"><ele>222.0</ele><time>2026-04-03T12:12:14.797Z</time></trkpt><trkpt lat="44.05885924755107" lon="11.843541934639106"><ele>222.0</ele><time>2026-04-03T12:12:15.797Z</time></trkpt><trkpt lat="44.05891688140542" lon="11.843466165754686"><ele>222.0</ele><time>2026-04-03T12:12:16.797Z</time></trkpt><trkpt lat="44.058960559796546" lon="11.843399049071902"><ele>222.0</ele><time>2026-04-03T12:12:17.797Z</time></trkpt><trkpt lat="44.05902054667236" lon="11.843297133949783"><ele>222.0</ele><time>2026-04-03T12:12:19.796Z</time></trkpt><trkpt lat="44.05907351278284" lon="11.843231153289985"><ele>222.0</ele><time>2026-04-03T12:13:22.796Z</time></trkpt><trkpt lat="44.059029993959335" lon="11.843312076986653"><ele>222.0</ele><time>2026-04-03T12:13:28.796Z</time></trkpt><trkpt lat="44.05898921176992" lon="11.843408184133986"><ele>222.0</ele><time>2026-04-03T12:13:30.796Z</time></trkpt><trkpt lat="44.05891661658397" lon="11.843538775794473"><ele>222.0</ele><time>2026-04-03T12:13:32.796Z</time></trkpt><trkpt lat="44.0588328037292" lon="11.843653343602044"><ele>222.0</ele><time>2026-04-03T12:13:33.796Z</time></trkpt><trkpt lat="44.058753777901" lon="11.843720167676773"><ele>222.0</ele><time>2026-04-03T12:13:34.796Z</time></trkpt><trkpt lat="44.05866561361422" lon="11.843773684426274"><ele>222.0</ele><time>2026-04-03T12:13:35.796Z</time></trkpt><trkpt lat="44.05859210321396" lon="11.84382552293427"><ele>222.0</ele><time>2026-04-03T12:13:36.796Z</time></trkpt><trkpt lat="44.05852303884952" lon="11.843867961939338"><ele>222.0</ele><time>2026-04-03T12:13:37.796Z</time></trkpt><trkpt lat="44.05846249421571" lon="11.843915379784793"><ele>222.0</ele><time>2026-04-03T12:13:38.796Z</time></trkpt><trkpt lat="44.05842844953736" lon="11.844061235636039"><ele>222.0</ele><time>2026-04-03T12:13:40.793Z</time></trkpt><trkpt lat="44.05847244765343" lon="11.84416268338721"><ele>222.0</ele><time>2026-04-03T12:13:41.793Z</time></trkpt><trkpt lat="44.05853503809589" lon="11.844271372247501"><ele>222.0</ele><time>2026-04-03T12:13:42.793Z</time></trkpt><trkpt lat="44.05860117280825" lon="11.844360911961804"><ele>222.0</ele><time>2026-04-03T12:13:43.793Z</time></trkpt><trkpt lat="44.05866405285724" lon="11.84442765778284"><ele>222.0</ele><time>2026-04-03T12:13:44.793Z</time></trkpt><trkpt lat="44.05872252541181" lon="11.844484421663957"><ele>222.0</ele><time>2026-04-03T12:13:45.793Z</time></trkpt><trkpt lat="44.05877534629562" lon="11.844538670301134"><ele>223.66666666666666</ele><time>2026-04-03T12:13:47.793Z</time></trkpt><trkpt lat="44.05883842391201" lon="11.844598998387976"><ele>225.33333333333331</ele><time>2026-04-03T12:14:00.792Z</time></trkpt><trkpt lat="44.058917214016226" lon="11.844636804326223"><ele>227.0</ele><time>2026-04-03T12:14:03.792Z</time></trkpt><trkpt lat="44.05898917154888" lon="11.844605933019999"><ele>228.66666666666666</ele><time>2026-04-03T12:14:04.792Z</time></trkpt><trkpt lat="44.05905958847648" lon="11.844580946217498"><ele>230.33333333333331</ele><time>2026-04-03T12:14:05.792Z</time></trkpt><trkpt lat="44.05912205825546" lon="11.844568368797622"><ele>232.0</ele><time>2026-04-03T12:14:06.792Z</time></trkpt><trkpt lat="44.05920322178952" lon="11.844549572940721"><ele>232.0</ele><time>2026-04-03T12:14:07.792Z</time></trkpt><trkpt lat="44.05930560123899" lon="11.844531831723968"><ele>232.0</ele><time>2026-04-03T12:14:08.792Z</time></trkpt><trkpt lat="44.05941333806679" lon="11.844530335133362"><ele>232.0</ele><time>2026-04-03T12:14:09.792Z</time></trkpt><trkpt lat="44.05953559425138" lon="11.84454104666692"><ele>232.0</ele><time>2026-04-03T12:14:10.792Z</time></trkpt><trkpt lat="44.05966450633309" lon="11.844563859592013"><ele>232.0</ele><time>2026-04-03T12:14:11.792Z</time></trkpt><trkpt lat="44.05979243928244" lon="11.844604471000288"><ele>232.0</ele><time>2026-04-03T12:14:12.792Z</time></trkpt><trkpt lat="44.059915040352585" lon="11.844653549461718"><ele>232.0</ele><time>2026-04-03T12:14:13.792Z</time></trkpt><trkpt lat="44.06003763045201" lon="11.844699426922263"><ele>232.0</ele><time>2026-04-03T12:14:14.792Z</time></trkpt><trkpt lat="44.06014853904831" lon="11.844743199472854"><ele>230.39999999999998</ele><time>2026-04-03T12:14:15.792Z</time></trkpt><trkpt lat="44.06024691103802" lon="11.844783519978575"><ele>228.79999999999998</ele><time>2026-04-03T12:14:16.792Z</time></trkpt><trkpt lat="44.06033636147948" lon="11.844798453482786"><ele>227.2</ele><time>2026-04-03T12:14:17.792Z</time></trkpt><trkpt lat="44.06039960519748" lon="11.844817305156887"><ele>225.6</ele><time>2026-04-03T12:14:18.792Z</time></trkpt><trkpt lat="44.060500926610686" lon="11.84486193576134"><ele>224.0</ele><time>2026-04-03T12:14:20.792Z</time></trkpt><trkpt lat="44.060611742242386" lon="11.844746890709338"><ele>224.0</ele><time>2026-04-03T12:14:22.792Z</time></trkpt><trkpt lat="44.06066766195546" lon="11.844645577870745"><ele>223.99999999999997</ele><time>2026-04-03T12:14:23.792Z</time></trkpt><trkpt lat="44.06073918487405" lon="11.844520106168615"><ele>223.99999999999997</ele><time>2026-04-03T12:14:24.792Z</time></trkpt><trkpt lat="44.06081485604757" lon="11.844397956831695"><ele>224.0</ele><time>2026-04-03T12:14:25.792Z</time></trkpt><trkpt lat="44.06089203743088" lon="11.844282394932353"><ele>224.0</ele><time>2026-04-03T12:14:26.792Z</time></trkpt><trkpt lat="44.06096470008561" lon="11.844181217092071"><ele>220.39999999999998</ele><time>2026-04-03T12:14:27.792Z</time></trkpt><trkpt lat="44.06103222651444" lon="11.844081405543855"><ele>216.79999999999998</ele><time>2026-04-03T12:14:28.792Z</time></trkpt><trkpt lat="44.061089575139114" lon="11.843976831974677"><ele>213.2</ele><time>2026-04-03T12:14:29.792Z</time></trkpt><trkpt lat="44.06113737968377" lon="11.843856395506185"><ele>209.60000000000002</ele><time>2026-04-03T12:14:30.792Z</time></trkpt><trkpt lat="44.06117111864028" lon="11.843725116530173"><ele>206.0</ele><time>2026-04-03T12:14:31.792Z</time></trkpt><trkpt lat="44.06119250405501" lon="11.843598068568474"><ele>206.0</ele><time>2026-04-03T12:14:32.792Z</time></trkpt><trkpt lat="44.06121012416703" lon="11.843473247566063"><ele>206.0</ele><time>2026-04-03T12:14:33.792Z</time></trkpt><trkpt lat="44.0612259398255" lon="11.843352613518109"><ele>206.0</ele><time>2026-04-03T12:14:34.792Z</time></trkpt><trkpt lat="44.061240252464955" lon="11.843228799640473"><ele>206.0</ele><time>2026-04-03T12:14:35.792Z</time></trkpt><trkpt lat="44.061253292678835" lon="11.84309510103697"><ele>206.0</ele><time>2026-04-03T12:14:36.792Z</time></trkpt><trkpt lat="44.06126983942488" lon="11.842957737618658"><ele>206.50000000000003</ele><time>2026-04-03T12:14:37.792Z</time></trkpt><trkpt lat="44.061274644540475" lon="11.842825298478374"><ele>207.0</ele><time>2026-04-03T12:14:38.792Z</time></trkpt><trkpt lat="44.06127928006362" lon="11.842708852802248"><ele>207.5</ele><time>2026-04-03T12:14:39.792Z</time></trkpt><trkpt lat="44.06128420431276" lon="11.842607577003532"><ele>208.0</ele><time>2026-04-03T12:14:40.792Z</time></trkpt><trkpt lat="44.06130199239349" lon="11.842510048331327"><ele>208.50000000000003</ele><time>2026-04-03T12:14:41.792Z</time></trkpt><trkpt lat="44.061306450894364" lon="11.842394841124085"><ele>209.0</ele><time>2026-04-03T12:14:42.792Z</time></trkpt><trkpt lat="44.06133538071845" lon="11.84227653304564"><ele>210.39999999999998</ele><time>2026-04-03T12:14:43.792Z</time></trkpt><trkpt lat="44.061376383410526" lon="11.842182234127794"><ele>211.8</ele><time>2026-04-03T12:14:44.792Z</time></trkpt><trkpt lat="44.06141357941472" lon="11.842096751914537"><ele>213.20000000000002</ele><time>2026-04-03T12:14:45.792Z</time></trkpt><trkpt lat="44.06145440602022" lon="11.841986467774166"><ele>214.60000000000002</ele><time>2026-04-03T12:14:47.792Z</time></trkpt><trkpt lat="44.061446312364154" lon="11.84186582988421"><ele>216.0</ele><time>2026-04-03T12:14:53.792Z</time></trkpt><trkpt lat="44.06131749023361" lon="11.841849779677151"><ele>216.0</ele><time>2026-04-03T12:14:55.792Z</time></trkpt><trkpt lat="44.06124308075615" lon="11.841842470986764"><ele>216.00000000000003</ele><time>2026-04-03T12:14:56.792Z</time></trkpt><trkpt lat="44.06115052584609" lon="11.841826168003166"><ele>216.00000000000003</ele><time>2026-04-03T12:14:57.792Z</time></trkpt><trkpt lat="44.06103902916328" lon="11.841806199857807"><ele>216.0</ele><time>2026-04-03T12:14:58.792Z</time></trkpt><trkpt lat="44.060913723972966" lon="11.841774465597508"><ele>216.0</ele><time>2026-04-03T12:14:59.792Z</time></trkpt><trkpt lat="44.06078473169678" lon="11.841742462514253"><ele>217.5</ele><time>2026-04-03T12:15:00.792Z</time></trkpt><trkpt lat="44.060644115405594" lon="11.841709295737711"><ele>219.0</ele><time>2026-04-03T12:15:01.792Z</time></trkpt><trkpt lat="44.06050139712131" lon="11.84167504750234"><ele>220.5</ele><time>2026-04-03T12:15:02.792Z</time></trkpt><trkpt lat="44.06034288897521" lon="11.841646090422207"><ele>222.0</ele><time>2026-04-03T12:15:03.792Z</time></trkpt><trkpt lat="44.06018786286288" lon="11.841620206915138"><ele>222.0</ele><time>2026-04-03T12:15:04.792Z</time></trkpt><trkpt lat="44.06003350918751" lon="11.841582044243102"><ele>222.0</ele><time>2026-04-03T12:15:05.792Z</time></trkpt><trkpt lat="44.059885032945175" lon="11.84154436434185"><ele>222.0</ele><time>2026-04-03T12:15:06.792Z</time></trkpt><trkpt lat="44.059771009129314" lon="11.841519156191103"><ele>222.0</ele><time>2026-04-03T12:15:07.792Z</time></trkpt><trkpt lat="44.059525766141505" lon="11.841384153963551"><ele>221.33333333333331</ele><time>2026-04-03T12:15:09.792Z</time></trkpt><trkpt lat="44.05940085039098" lon="11.841284627080842"><ele>220.66666666666666</ele><time>2026-04-03T12:15:10.792Z</time></trkpt><trkpt lat="44.05926469744385" lon="11.841184698941056"><ele>220.0</ele><time>2026-04-03T12:15:11.792Z</time></trkpt><trkpt lat="44.05912319294988" lon="11.841077461376006"><ele>220.25</ele><time>2026-04-03T12:15:12.792Z</time></trkpt><trkpt lat="44.0589843900945" lon="11.840968848647492"><ele>220.5</ele><time>2026-04-03T12:15:13.792Z</time></trkpt><trkpt lat="44.05885759653049" lon="11.840858091569244"><ele>220.75</ele><time>2026-04-03T12:15:14.792Z</time></trkpt><trkpt lat="44.0587365040527" lon="11.840761501525186"><ele>221.0</ele><time>2026-04-03T12:15:15.792Z</time></trkpt><trkpt lat="44.05861495727266" lon="11.840668494802355"><ele>221.0</ele><time>2026-04-03T12:15:16.792Z</time></trkpt><trkpt lat="44.058490721758076" lon="11.840567945384404"><ele>221.0</ele><time>2026-04-03T12:15:17.792Z</time></trkpt><trkpt lat="44.058362430420615" lon="11.840467895462702"><ele>221.0</ele><time>2026-04-03T12:15:18.792Z</time></trkpt><trkpt lat="44.05822666295962" lon="11.84036366575806"><ele>221.0</ele><time>2026-04-03T12:15:19.792Z</time></trkpt><trkpt lat="44.05809083758442" lon="11.840262020817768"><ele>221.0</ele><time>2026-04-03T12:15:20.792Z</time></trkpt><trkpt lat="44.05795173079136" lon="11.84015356230452"><ele>221.0</ele><time>2026-04-03T12:15:21.792Z</time></trkpt><trkpt lat="44.05780989103896" lon="11.840045787369563"><ele>221.0</ele><time>2026-04-03T12:15:22.792Z</time></trkpt><trkpt lat="44.05766695511827" lon="11.839939210526714"><ele>221.33333333333334</ele><time>2026-04-03T12:15:23.792Z</time></trkpt><trkpt lat="44.057524132231926" lon="11.839839257758099"><ele>221.66666666666669</ele><time>2026-04-03T12:15:24.792Z</time></trkpt><trkpt lat="44.05738547282711" lon="11.839732030453352"><ele>222.0</ele><time>2026-04-03T12:15:25.792Z</time></trkpt><trkpt lat="44.05724986159062" lon="11.839626098830655"><ele>222.0</ele><time>2026-04-03T12:15:26.792Z</time></trkpt><trkpt lat="44.057112211110706" lon="11.83951949655717"><ele>222.0</ele><time>2026-04-03T12:15:27.792Z</time></trkpt><trkpt lat="44.056983429098736" lon="11.839403254601464"><ele>222.0</ele><time>2026-04-03T12:15:28.792Z</time></trkpt><trkpt lat="44.05686189209896" lon="11.839294485185473"><ele>220.66666666666669</ele><time>2026-04-03T12:15:29.792Z</time></trkpt><trkpt lat="44.056742167630745" lon="11.839171542769009"><ele>219.33333333333334</ele><time>2026-04-03T12:15:30.792Z</time></trkpt><trkpt lat="44.056625021652266" lon="11.839036657051182"><ele>218.0</ele><time>2026-04-03T12:15:31.792Z</time></trkpt><trkpt lat="44.05650791874619" lon="11.838891158204438"><ele>218.0</ele><time>2026-04-03T12:15:32.792Z</time></trkpt><trkpt lat="44.05639255155631" lon="11.838726912874659"><ele>218.0</ele><time>2026-04-03T12:15:33.792Z</time></trkpt><trkpt lat="44.05627697655948" lon="11.838541877170783"><ele>218.0</ele><time>2026-04-03T12:15:34.792Z</time></trkpt><trkpt lat="44.05616452916586" lon="11.8383583080701"><ele>221.0</ele><time>2026-04-03T12:15:35.792Z</time></trkpt><trkpt lat="44.05604976376279" lon="11.83816944625134"><ele>224.0</ele><time>2026-04-03T12:15:36.792Z</time></trkpt><trkpt lat="44.0559420901173" lon="11.83796179139138"><ele>227.0</ele><time>2026-04-03T12:15:37.792Z</time></trkpt><trkpt lat="44.05583175298604" lon="11.837758710518624"><ele>224.33333333333334</ele><time>2026-04-03T12:15:38.792Z</time></trkpt><trkpt lat="44.05572700452359" lon="11.837568529876531"><ele>221.66666666666669</ele><time>2026-04-03T12:15:39.792Z</time></trkpt><trkpt lat="44.05562453562762" lon="11.83738526837964"><ele>219.0</ele><time>2026-04-03T12:15:40.792Z</time></trkpt><trkpt lat="44.055513608957845" lon="11.837215025901031"><ele>219.0</ele><time>2026-04-03T12:15:41.792Z</time></trkpt><trkpt lat="44.055393014579174" lon="11.83705342968031"><ele>219.0</ele><time>2026-04-03T12:15:42.792Z</time></trkpt><trkpt lat="44.05525617637096" lon="11.836909063405125"><ele>219.0</ele><time>2026-04-03T12:15:43.792Z</time></trkpt><trkpt lat="44.0550994684571" lon="11.836783084585996"><ele>220.33333333333331</ele><time>2026-04-03T12:15:44.792Z</time></trkpt><trkpt lat="44.054940711839976" lon="11.836653614666162"><ele>221.66666666666666</ele><time>2026-04-03T12:15:45.789Z</time></trkpt><trkpt lat="44.05477458898757" lon="11.836525915040218"><ele>223.0</ele><time>2026-04-03T12:15:46.789Z</time></trkpt><trkpt lat="44.05460818023521" lon="11.836398444084997"><ele>223.0</ele><time>2026-04-03T12:15:47.789Z</time></trkpt><trkpt lat="44.05444347641319" lon="11.836271913432215"><ele>223.0</ele><time>2026-04-03T12:15:48.79Z</time></trkpt><trkpt lat="44.05428426386986" lon="11.836144932410194"><ele>223.0</ele><time>2026-04-03T12:15:49.79Z</time></trkpt><trkpt lat="44.0541339158114" lon="11.83601923552309"><ele>222.66666666666666</ele><time>2026-04-03T12:15:50.79Z</time></trkpt><trkpt lat="44.05398678870487" lon="11.835886974922428"><ele>222.33333333333331</ele><time>2026-04-03T12:15:51.789Z</time></trkpt><trkpt lat="44.05384311544525" lon="11.83573796649035"><ele>222.0</ele><time>2026-04-03T12:15:52.789Z</time></trkpt><trkpt lat="44.05370103859885" lon="11.83558291199578"><ele>222.0</ele><time>2026-04-03T12:15:53.789Z</time></trkpt><trkpt lat="44.05355542747669" lon="11.835423427970065"><ele>222.0</ele><time>2026-04-03T12:15:54.789Z</time></trkpt><trkpt lat="44.053412082962616" lon="11.835267091063836"><ele>222.0</ele><time>2026-04-03T12:15:55.789Z</time></trkpt><trkpt lat="44.05327877618138" lon="11.835116347018348"><ele>221.5</ele><time>2026-04-03T12:15:56.789Z</time></trkpt><trkpt lat="44.05316258265667" lon="11.834982487274601"><ele>221.0</ele><time>2026-04-03T12:15:57.789Z</time></trkpt><trkpt lat="44.05306088534534" lon="11.834872363426948"><ele>220.5</ele><time>2026-04-03T12:15:58.789Z</time></trkpt><trkpt lat="44.05298083233354" lon="11.834771400515981"><ele>220.0</ele><time>2026-04-03T12:15:59.789Z</time></trkpt><trkpt lat="44.05291342154462" lon="11.834670529567706"><ele>220.0</ele><time>2026-04-03T12:16:00.789Z</time></trkpt><trkpt lat="44.052803379550724" lon="11.834395956113658"><ele>220.0</ele><time>2026-04-03T12:16:02.789Z</time></trkpt><trkpt lat="44.052741407431775" lon="11.834246281103935"><ele>220.0</ele><time>2026-04-03T12:16:03.789Z</time></trkpt><trkpt lat="44.05267607441117" lon="11.83407627914562"><ele>220.0</ele><time>2026-04-03T12:16:04.789Z</time></trkpt><trkpt lat="44.05260021442392" lon="11.83390416588979"><ele>220.0</ele><time>2026-04-03T12:16:05.789Z</time></trkpt><trkpt lat="44.05252421284293" lon="11.833724955515796"><ele>220.0</ele><time>2026-04-03T12:16:06.789Z</time></trkpt><trkpt lat="44.05244656425009" lon="11.833552690958971"><ele>220.0</ele><time>2026-04-03T12:16:07.789Z</time></trkpt><trkpt lat="44.05237436738679" lon="11.833371131092111"><ele>221.75</ele><time>2026-04-03T12:16:08.789Z</time></trkpt><trkpt lat="44.052311641990784" lon="11.833183146189727"><ele>223.5</ele><time>2026-04-03T12:16:09.789Z</time></trkpt><trkpt lat="44.05226179730891" lon="11.832994013649227"><ele>225.25</ele><time>2026-04-03T12:16:10.789Z</time></trkpt><trkpt lat="44.05221657607235" lon="11.83280027767237"><ele>227.0</ele><time>2026-04-03T12:16:11.789Z</time></trkpt><trkpt lat="44.052178255801174" lon="11.832602050935822"><ele>229.66666666666669</ele><time>2026-04-03T12:16:12.789Z</time></trkpt><trkpt lat="44.052143488345" lon="11.832401910568654"><ele>232.33333333333331</ele><time>2026-04-03T12:16:13.789Z</time></trkpt><trkpt lat="44.05211117282127" lon="11.832188565552745"><ele>235.0</ele><time>2026-04-03T12:16:14.789Z</time></trkpt><trkpt lat="44.05208050399804" lon="11.831965821778855"><ele>237.33333333333331</ele><time>2026-04-03T12:16:15.789Z</time></trkpt><trkpt lat="44.05205197233781" lon="11.831753954384125"><ele>239.66666666666669</ele><time>2026-04-03T12:16:16.789Z</time></trkpt><trkpt lat="44.05202926158975" lon="11.831518742331653"><ele>242.0</ele><time>2026-04-03T12:16:17.789Z</time></trkpt><trkpt lat="44.05200336816493" lon="11.831293265473688"><ele>242.0</ele><time>2026-04-03T12:16:18.789Z</time></trkpt><trkpt lat="44.051975303498125" lon="11.831066563414566"><ele>242.0</ele><time>2026-04-03T12:16:19.789Z</time></trkpt><trkpt lat="44.051943707869995" lon="11.830837454687728"><ele>242.0</ele><time>2026-04-03T12:16:20.789Z</time></trkpt><trkpt lat="44.05192118206739" lon="11.830598162003023"><ele>243.66666666666669</ele><time>2026-04-03T12:16:21.789Z</time></trkpt><trkpt lat="44.051883849334025" lon="11.830356327873707"><ele>245.33333333333331</ele><time>2026-04-03T12:16:22.789Z</time></trkpt><trkpt lat="44.0518509148757" lon="11.830117638001308"><ele>247.0</ele><time>2026-04-03T12:16:23.789Z</time></trkpt><trkpt lat="44.05181547778205" lon="11.829885581811594"><ele>248.0</ele><time>2026-04-03T12:16:24.789Z</time></trkpt><trkpt lat="44.05178793748298" lon="11.829641692203477"><ele>249.0</ele><time>2026-04-03T12:16:25.789Z</time></trkpt><trkpt lat="44.05174728265392" lon="11.829392498312862"><ele>250.0</ele><time>2026-04-03T12:16:26.789Z</time></trkpt><trkpt lat="44.05171184449861" lon="11.82914446617205"><ele>252.0</ele><time>2026-04-03T12:16:27.789Z</time></trkpt><trkpt lat="44.05167551522691" lon="11.828893988586378"><ele>254.0</ele><time>2026-04-03T12:16:28.789Z</time></trkpt><trkpt lat="44.05163850233747" lon="11.828636419307774"><ele>256.0</ele><time>2026-04-03T12:16:29.789Z</time></trkpt><trkpt lat="44.051604136449114" lon="11.828387646485286"><ele>256.3333333333333</ele><time>2026-04-03T12:16:30.789Z</time></trkpt><trkpt lat="44.05157203717686" lon="11.828139859288788"><ele>256.6666666666667</ele><time>2026-04-03T12:16:31.789Z</time></trkpt><trkpt lat="44.051543117795966" lon="11.827905300049443"><ele>257.0</ele><time>2026-04-03T12:16:32.789Z</time></trkpt><trkpt lat="44.05151071786142" lon="11.827698233000008"><ele>257.4</ele><time>2026-04-03T12:16:33.789Z</time></trkpt><trkpt lat="44.05148343204669" lon="11.82750821020139"><ele>257.79999999999995</ele><time>2026-04-03T12:16:34.789Z</time></trkpt><trkpt lat="44.051455116417785" lon="11.827340170145096"><ele>258.2</ele><time>2026-04-03T12:16:35.789Z</time></trkpt><trkpt lat="44.05144026806386" lon="11.827203898068193"><ele>258.59999999999997</ele><time>2026-04-03T12:16:36.789Z</time></trkpt><trkpt lat="44.05143347434931" lon="11.827091906188416"><ele>259.0</ele><time>2026-04-03T12:16:37.789Z</time></trkpt><trkpt lat="44.05145334379749" lon="11.826984278249435"><ele>259.0</ele><time>2026-04-03T12:16:38.789Z</time></trkpt><trkpt lat="44.0515009827082" lon="11.826893404912441"><ele>259.0</ele><time>2026-04-03T12:16:39.789Z</time></trkpt><trkpt lat="44.05157167973573" lon="11.826828455705233"><ele>259.0</ele><time>2026-04-03T12:16:40.789Z</time></trkpt><trkpt lat="44.051663599677966" lon="11.826779512543236"><ele>259.0</ele><time>2026-04-03T12:16:41.789Z</time></trkpt><trkpt lat="44.0517739170857" lon="11.826724931163868"><ele>259.0</ele><time>2026-04-03T12:16:42.789Z</time></trkpt><trkpt lat="44.051892884838345" lon="11.826667988013254"><ele>261.2</ele><time>2026-04-03T12:16:43.789Z</time></trkpt><trkpt lat="44.052017054638036" lon="11.826613340085352"><ele>263.4</ele><time>2026-04-03T12:16:44.789Z</time></trkpt><trkpt lat="44.05212970339935" lon="11.826559511287652"><ele>265.6</ele><time>2026-04-03T12:16:45.789Z</time></trkpt><trkpt lat="44.052232993694396" lon="11.826500875767122"><ele>267.8</ele><time>2026-04-03T12:16:46.789Z</time></trkpt><trkpt lat="44.05229978521321" lon="11.826434787639434"><ele>270.0</ele><time>2026-04-03T12:16:47.789Z</time></trkpt><trkpt lat="44.05232400542019" lon="11.826348248435284"><ele>270.0</ele><time>2026-04-03T12:16:48.789Z</time></trkpt><trkpt lat="44.052319984567234" lon="11.826238612188725"><ele>270.0</ele><time>2026-04-03T12:16:49.789Z</time></trkpt><trkpt lat="44.05229694042732" lon="11.82612296262818"><ele>270.0</ele><time>2026-04-03T12:16:50.789Z</time></trkpt><trkpt lat="44.05226474793007" lon="11.825991483627314"><ele>270.0</ele><time>2026-04-03T12:16:51.789Z</time></trkpt><trkpt lat="44.05222750046541" lon="11.825858984665253"><ele>270.0</ele><time>2026-04-03T12:16:52.789Z</time></trkpt><trkpt lat="44.052186725645825" lon="11.825713803659765"><ele>270.75</ele><time>2026-04-03T12:16:53.789Z</time></trkpt><trkpt lat="44.05214405219397" lon="11.825562020029484"><ele>271.5</ele><time>2026-04-03T12:16:54.789Z</time></trkpt><trkpt lat="44.052102944527554" lon="11.825406589420247"><ele>272.25</ele><time>2026-04-03T12:16:55.789Z</time></trkpt><trkpt lat="44.05204268465829" lon="11.825251125197942"><ele>273.0</ele><time>2026-04-03T12:16:56.789Z</time></trkpt><trkpt lat="44.051956046817246" lon="11.825109130783924"><ele>273.25</ele><time>2026-04-03T12:16:57.789Z</time></trkpt><trkpt lat="44.051853901767494" lon="11.824988261919492"><ele>273.5</ele><time>2026-04-03T12:16:58.789Z</time></trkpt><trkpt lat="44.05174561429932" lon="11.82488080477065"><ele>273.75</ele><time>2026-04-03T12:16:59.789Z</time></trkpt><trkpt lat="44.05165143361469" lon="11.82476995432817"><ele>274.0</ele><time>2026-04-03T12:17:00.789Z</time></trkpt><trkpt lat="44.0515664276942" lon="11.824621694265867"><ele>274.0</ele><time>2026-04-03T12:17:01.789Z</time></trkpt><trkpt lat="44.05148064307509" lon="11.824459811751966"><ele>274.0</ele><time>2026-04-03T12:17:02.789Z</time></trkpt><trkpt lat="44.05139482744313" lon="11.824284016143121"><ele>274.0</ele><time>2026-04-03T12:17:03.789Z</time></trkpt><trkpt lat="44.0513058994766" lon="11.824103872802532"><ele>276.5</ele><time>2026-04-03T12:17:04.789Z</time></trkpt><trkpt lat="44.05121656860529" lon="11.823928513803217"><ele>279.0</ele><time>2026-04-03T12:17:05.789Z</time></trkpt><trkpt lat="44.05113334194119" lon="11.823756869439189"><ele>281.5</ele><time>2026-04-03T12:17:06.789Z</time></trkpt><trkpt lat="44.05105200717828" lon="11.823611580394989"><ele>284.0</ele><time>2026-04-03T12:17:07.789Z</time></trkpt><trkpt lat="44.05096820919202" lon="11.823500333569063"><ele>282.59999999999997</ele><time>2026-04-03T12:17:08.789Z</time></trkpt><trkpt lat="44.05088554096524" lon="11.823406364647248"><ele>281.2</ele><time>2026-04-03T12:17:09.789Z</time></trkpt><trkpt lat="44.05080860152901" lon="11.823305471220333"><ele>279.79999999999995</ele><time>2026-04-03T12:17:10.789Z</time></trkpt><trkpt lat="44.050751912804515" lon="11.823191679186309"><ele>278.4</ele><time>2026-04-03T12:17:11.789Z</time></trkpt><trkpt lat="44.05071708578353" lon="11.823071109286584"><ele>277.0</ele><time>2026-04-03T12:17:12.789Z</time></trkpt><trkpt lat="44.05070270219559" lon="11.822939712359036"><ele>277.0</ele><time>2026-04-03T12:17:13.789Z</time></trkpt><trkpt lat="44.05071185632622" lon="11.822797422094949"><ele>277.0</ele><time>2026-04-03T12:17:14.789Z</time></trkpt><trkpt lat="44.05073637257776" lon="11.82265841165289"><ele>277.0</ele><time>2026-04-03T12:17:15.789Z</time></trkpt><trkpt lat="44.05078153077098" lon="11.822513215630268"><ele>277.0</ele><time>2026-04-03T12:17:16.789Z</time></trkpt><trkpt lat="44.05084376513735" lon="11.822354547486407"><ele>277.0</ele><time>2026-04-03T12:17:17.789Z</time></trkpt><trkpt lat="44.050910483331855" lon="11.822201407310098"><ele>281.5</ele><time>2026-04-03T12:17:18.789Z</time></trkpt><trkpt lat="44.05099360476972" lon="11.822047384263058"><ele>286.0</ele><time>2026-04-03T12:17:19.789Z</time></trkpt><trkpt lat="44.05109034204936" lon="11.821892213930862"><ele>290.5</ele><time>2026-04-03T12:17:20.789Z</time></trkpt><trkpt lat="44.05118513000015" lon="11.821747309279875"><ele>295.0</ele><time>2026-04-03T12:17:21.789Z</time></trkpt><trkpt lat="44.05127954824034" lon="11.821611406817965"><ele>295.0</ele><time>2026-04-03T12:17:22.789Z</time></trkpt><trkpt lat="44.051374633947255" lon="11.821493448772788"><ele>295.0</ele><time>2026-04-03T12:17:23.789Z</time></trkpt><trkpt lat="44.051470836164896" lon="11.821392420877574"><ele>295.0</ele><time>2026-04-03T12:17:24.789Z</time></trkpt><trkpt lat="44.05156822148823" lon="11.821326892024867"><ele>295.0</ele><time>2026-04-03T12:17:25.789Z</time></trkpt><trkpt lat="44.05163982462801" lon="11.821292937234336"><ele>295.0</ele><time>2026-04-03T12:17:26.789Z</time></trkpt><trkpt lat="44.05173232715795" lon="11.821251197343429"><ele>299.0</ele><time>2026-04-03T12:17:28.789Z</time></trkpt><trkpt lat="44.05182239135337" lon="11.821254061405764"><ele>303.0</ele><time>2026-04-03T12:17:30.789Z</time></trkpt><trkpt lat="44.051947114421814" lon="11.821252130347926"><ele>307.0</ele><time>2026-04-03T12:17:32.789Z</time></trkpt><trkpt lat="44.05201707168218" lon="11.821253865286316"><ele>311.0</ele><time>2026-04-03T12:17:33.789Z</time></trkpt><trkpt lat="44.05208422683687" lon="11.821261292118232"><ele>315.0</ele><time>2026-04-03T12:17:34.789Z</time></trkpt><trkpt lat="44.052152336218185" lon="11.821259565174788"><ele>319.0</ele><time>2026-04-03T12:17:35.789Z</time></trkpt><trkpt lat="44.05223028998956" lon="11.821235912667609"><ele>319.0</ele><time>2026-04-03T12:17:36.789Z</time></trkpt><trkpt lat="44.05230008018174" lon="11.821183200039085"><ele>319.0</ele><time>2026-04-03T12:17:37.789Z</time></trkpt><trkpt lat="44.052349845670285" lon="11.821105309472971"><ele>319.0</ele><time>2026-04-03T12:17:38.789Z</time></trkpt><trkpt lat="44.05238155522403" lon="11.820993353377794"><ele>319.0</ele><time>2026-04-03T12:17:39.789Z</time></trkpt><trkpt lat="44.052407749909804" lon="11.82086841852814"><ele>319.0</ele><time>2026-04-03T12:17:40.789Z</time></trkpt><trkpt lat="44.052437697111756" lon="11.820734405867624"><ele>319.0</ele><time>2026-04-03T12:17:41.789Z</time></trkpt><trkpt lat="44.05248148432803" lon="11.820618306534412"><ele>320.2</ele><time>2026-04-03T12:17:42.789Z</time></trkpt><trkpt lat="44.052537898202445" lon="11.8205236247175"><ele>321.4</ele><time>2026-04-03T12:17:43.789Z</time></trkpt><trkpt lat="44.05260714749203" lon="11.820433699010911"><ele>322.6</ele><time>2026-04-03T12:17:44.789Z</time></trkpt><trkpt lat="44.05268598003767" lon="11.820348133114788"><ele>323.8</ele><time>2026-04-03T12:17:45.789Z</time></trkpt><trkpt lat="44.05276950035827" lon="11.820267470024723"><ele>325.0</ele><time>2026-04-03T12:17:46.789Z</time></trkpt><trkpt lat="44.052852158477606" lon="11.820194175163111"><ele>325.16666666666663</ele><time>2026-04-03T12:17:47.789Z</time></trkpt><trkpt lat="44.052929707484175" lon="11.82013063271292"><ele>325.3333333333333</ele><time>2026-04-03T12:17:48.789Z</time></trkpt><trkpt lat="44.05300286203099" lon="11.820068952381463"><ele>325.5</ele><time>2026-04-03T12:17:49.789Z</time></trkpt><trkpt lat="44.053070296457676" lon="11.820014737857706"><ele>325.6666666666667</ele><time>2026-04-03T12:17:50.789Z</time></trkpt><trkpt lat="44.053139150909345" lon="11.81997311728429"><ele>325.83333333333337</ele><time>2026-04-03T12:17:51.786Z</time></trkpt><trkpt lat="44.05321184330718" lon="11.819949939337425"><ele>326.0</ele><time>2026-04-03T12:17:52.785Z</time></trkpt><trkpt lat="44.053289124428005" lon="11.81995091909256"><ele>326.0</ele><time>2026-04-03T12:17:53.785Z</time></trkpt><trkpt lat="44.05336231040263" lon="11.819981790095103"><ele>326.0</ele><time>2026-04-03T12:17:54.786Z</time></trkpt><trkpt lat="44.053433442752706" lon="11.82003064696915"><ele>326.0</ele><time>2026-04-03T12:17:55.785Z</time></trkpt><trkpt lat="44.05350368947149" lon="11.820076101285082"><ele>326.0</ele><time>2026-04-03T12:17:56.785Z</time></trkpt><trkpt lat="44.05357532704249" lon="11.820118658218739"><ele>326.0</ele><time>2026-04-03T12:17:57.785Z</time></trkpt><trkpt lat="44.05365141687869" lon="11.820157956321367"><ele>326.0</ele><time>2026-04-03T12:17:58.785Z</time></trkpt><trkpt lat="44.05372871688794" lon="11.820187308415793"><ele>326.0</ele><time>2026-04-03T12:17:59.785Z</time></trkpt><trkpt lat="44.05381107463043" lon="11.820208574370241"><ele>326.0</ele><time>2026-04-03T12:18:00.785Z</time></trkpt><trkpt lat="44.05389252656454" lon="11.82020564377219"><ele>326.0</ele><time>2026-04-03T12:18:01.786Z</time></trkpt><trkpt lat="44.05397029280243" lon="11.820176127807184"><ele>326.0</ele><time>2026-04-03T12:18:02.786Z</time></trkpt><trkpt lat="44.0540445118857" lon="11.820152730195808"><ele>326.0</ele><time>2026-04-03T12:18:03.785Z</time></trkpt><trkpt lat="44.05412144943959" lon="11.8201151639273"><ele>326.0</ele><time>2026-04-03T12:18:04.785Z</time></trkpt><trkpt lat="44.05419264166162" lon="11.820084507818148"><ele>327.75</ele><time>2026-04-03T12:18:05.785Z</time></trkpt><trkpt lat="44.0542832719159" lon="11.820040945067113"><ele>329.5</ele><time>2026-04-03T12:18:06.785Z</time></trkpt><trkpt lat="44.05439611290241" lon="11.819997627378466"><ele>331.25</ele><time>2026-04-03T12:18:07.785Z</time></trkpt><trkpt lat="44.05452185688995" lon="11.819966066454928"><ele>333.0</ele><time>2026-04-03T12:18:08.785Z</time></trkpt><trkpt lat="44.05464153757448" lon="11.81993284840125"><ele>333.0</ele><time>2026-04-03T12:18:09.785Z</time></trkpt><trkpt lat="44.05474942297766" lon="11.819914809378002"><ele>333.0</ele><time>2026-04-03T12:18:10.785Z</time></trkpt><trkpt lat="44.0548387228269" lon="11.819891699533924"><ele>333.0</ele><time>2026-04-03T12:18:11.785Z</time></trkpt><trkpt lat="44.05490800600857" lon="11.819860418882946"><ele>333.0</ele><time>2026-04-03T12:18:12.785Z</time></trkpt><trkpt lat="44.05499861506324" lon="11.819727212161665"><ele>333.0</ele><time>2026-04-03T12:18:14.785Z</time></trkpt><trkpt lat="44.05502237496088" lon="11.819619952958913"><ele>334.4</ele><time>2026-04-03T12:18:15.785Z</time></trkpt><trkpt lat="44.05503003656252" lon="11.81950431582765"><ele>335.79999999999995</ele><time>2026-04-03T12:18:16.785Z</time></trkpt><trkpt lat="44.055015818251775" lon="11.819381726356168"><ele>337.2</ele><time>2026-04-03T12:18:17.785Z</time></trkpt><trkpt lat="44.054980495135055" lon="11.819266670627286"><ele>338.6</ele><time>2026-04-03T12:18:18.785Z</time></trkpt><trkpt lat="44.05492753835283" lon="11.819139027586976"><ele>340.0</ele><time>2026-04-03T12:18:19.785Z</time></trkpt><trkpt lat="44.05487762024633" lon="11.819016478806748"><ele>337.0</ele><time>2026-04-03T12:18:20.785Z</time></trkpt><trkpt lat="44.054847482404924" lon="11.81889929436494"><ele>334.0</ele><time>2026-04-03T12:18:21.785Z</time></trkpt><trkpt lat="44.054821438637234" lon="11.818792769371255"><ele>331.0</ele><time>2026-04-03T12:18:22.785Z</time></trkpt><trkpt lat="44.054805713041986" lon="11.818703246411195"><ele>328.0</ele><time>2026-04-03T12:18:23.785Z</time></trkpt><trkpt lat="44.05479775590378" lon="11.818602256972985"><ele>325.0</ele><time>2026-04-03T12:18:24.785Z</time></trkpt><trkpt lat="44.05479139844696" lon="11.818497498522634"><ele>322.0</ele><time>2026-04-03T12:18:25.785Z</time></trkpt><trkpt lat="44.054793889675764" lon="11.818388196991009"><ele>322.0</ele><time>2026-04-03T12:18:26.785Z</time></trkpt><trkpt lat="44.05481472963618" lon="11.818298894111644"><ele>322.0</ele><time>2026-04-03T12:18:27.785Z</time></trkpt><trkpt lat="44.05485142292869" lon="11.818203496607733"><ele>322.0</ele><time>2026-04-03T12:18:28.785Z</time></trkpt><trkpt lat="44.05490452764812" lon="11.818111304685806"><ele>322.0</ele><time>2026-04-03T12:18:29.785Z</time></trkpt><trkpt lat="44.05498070980697" lon="11.818018676041351"><ele>322.0</ele><time>2026-04-03T12:18:30.785Z</time></trkpt><trkpt lat="44.055069666176436" lon="11.817920668126494"><ele>322.0</ele><time>2026-04-03T12:18:31.785Z</time></trkpt><trkpt lat="44.05517022622813" lon="11.817815010915073"><ele>326.0</ele><time>2026-04-03T12:18:32.785Z</time></trkpt><trkpt lat="44.05527480512251" lon="11.817700456325005"><ele>330.0</ele><time>2026-04-03T12:18:33.785Z</time></trkpt><trkpt lat="44.055366352758305" lon="11.817591234120737"><ele>334.0</ele><time>2026-04-03T12:18:34.785Z</time></trkpt><trkpt lat="44.05545166622538" lon="11.817498531169141"><ele>338.0</ele><time>2026-04-03T12:18:35.785Z</time></trkpt><trkpt lat="44.055541257694955" lon="11.817417906565673"><ele>338.0</ele><time>2026-04-03T12:18:36.785Z</time></trkpt><trkpt lat="44.05563280073269" lon="11.817368951232229"><ele>338.0</ele><time>2026-04-03T12:18:37.785Z</time></trkpt><trkpt lat="44.055738052007705" lon="11.817348724807916"><ele>338.0</ele><time>2026-04-03T12:18:38.785Z</time></trkpt><trkpt lat="44.055859982359685" lon="11.817354027008216"><ele>338.0</ele><time>2026-04-03T12:18:39.785Z</time></trkpt><trkpt lat="44.055986084006385" lon="11.817365018593174"><ele>341.25</ele><time>2026-04-03T12:18:40.785Z</time></trkpt><trkpt lat="44.056112278950586" lon="11.81736467830708"><ele>344.5</ele><time>2026-04-03T12:18:41.785Z</time></trkpt><trkpt lat="44.05623825872148" lon="11.817371467045925"><ele>347.75</ele><time>2026-04-03T12:18:42.785Z</time></trkpt><trkpt lat="44.05635632842396" lon="11.817382838725534"><ele>351.0</ele><time>2026-04-03T12:18:43.785Z</time></trkpt><trkpt lat="44.05645368634863" lon="11.81740754094663"><ele>351.0</ele><time>2026-04-03T12:18:44.785Z</time></trkpt><trkpt lat="44.05653212163964" lon="11.817445443071076"><ele>351.0</ele><time>2026-04-03T12:18:45.785Z</time></trkpt><trkpt lat="44.056608250809276" lon="11.817525949438958"><ele>351.0</ele><time>2026-04-03T12:18:46.785Z</time></trkpt><trkpt lat="44.056666769074944" lon="11.817591301425352"><ele>351.0</ele><time>2026-04-03T12:18:47.785Z</time></trkpt><trkpt lat="44.05675141014797" lon="11.817656627377302"><ele>351.0</ele><time>2026-04-03T12:18:48.785Z</time></trkpt><trkpt lat="44.05685223683171" lon="11.817686166741373"><ele>352.20000000000005</ele><time>2026-04-03T12:18:49.785Z</time></trkpt><trkpt lat="44.05695503517533" lon="11.817699101676993"><ele>353.40000000000003</ele><time>2026-04-03T12:18:50.785Z</time></trkpt><trkpt lat="44.05705217759195" lon="11.817701569496771"><ele>354.6</ele><time>2026-04-03T12:18:51.785Z</time></trkpt><trkpt lat="44.05713556891415" lon="11.817682383867423"><ele>355.8</ele><time>2026-04-03T12:18:52.785Z</time></trkpt><trkpt lat="44.057216303462084" lon="11.817620805429781"><ele>357.0</ele><time>2026-04-03T12:18:53.785Z</time></trkpt><trkpt lat="44.057293756439016" lon="11.817523863538705"><ele>357.0</ele><time>2026-04-03T12:18:54.785Z</time></trkpt><trkpt lat="44.057367368746284" lon="11.817391431158521"><ele>357.0</ele><time>2026-04-03T12:18:55.785Z</time></trkpt><trkpt lat="44.057426876132155" lon="11.817245881636138"><ele>357.0</ele><time>2026-04-03T12:18:56.785Z</time></trkpt><trkpt lat="44.057465546322796" lon="11.817088882473378"><ele>357.0</ele><time>2026-04-03T12:18:57.785Z</time></trkpt><trkpt lat="44.057478255774974" lon="11.816924783177281"><ele>358.25</ele><time>2026-04-03T12:18:58.785Z</time></trkpt><trkpt lat="44.057478232763785" lon="11.816754334057837"><ele>359.5</ele><time>2026-04-03T12:18:59.785Z</time></trkpt><trkpt lat="44.05747676080647" lon="11.81657997668748"><ele>360.75</ele><time>2026-04-03T12:19:00.785Z</time></trkpt><trkpt lat="44.05749498865142" lon="11.816420974582046"><ele>362.0</ele><time>2026-04-03T12:19:01.785Z</time></trkpt><trkpt lat="44.05753285633814" lon="11.816258637420892"><ele>362.0</ele><time>2026-04-03T12:19:02.785Z</time></trkpt><trkpt lat="44.0575727575358" lon="11.816111454424105"><ele>362.0</ele><time>2026-04-03T12:19:03.785Z</time></trkpt><trkpt lat="44.05761422432338" lon="11.815986223129213"><ele>362.0</ele><time>2026-04-03T12:19:04.785Z</time></trkpt><trkpt lat="44.057650239362" lon="11.815890249631332"><ele>362.0</ele><time>2026-04-03T12:19:05.785Z</time></trkpt><trkpt lat="44.0577001218803" lon="11.815830147741107"><ele>362.0</ele><time>2026-04-03T12:19:06.785Z</time></trkpt><trkpt lat="44.05776187239053" lon="11.81580325765838"><ele>362.0</ele><time>2026-04-03T12:19:07.785Z</time></trkpt><trkpt lat="44.05783322838329" lon="11.815817916855282"><ele>362.0</ele><time>2026-04-03T12:19:08.785Z</time></trkpt><trkpt lat="44.05789597684545" lon="11.815881079849222"><ele>362.0</ele><time>2026-04-03T12:19:09.785Z</time></trkpt><trkpt lat="44.05795131981578" lon="11.815979215606742"><ele>362.0</ele><time>2026-04-03T12:19:10.785Z</time></trkpt><trkpt lat="44.058018702565505" lon="11.816097586906443"><ele>362.0</ele><time>2026-04-03T12:19:11.785Z</time></trkpt><trkpt lat="44.0580983919751" lon="11.816222466745483"><ele>362.0</ele><time>2026-04-03T12:19:12.785Z</time></trkpt><trkpt lat="44.05818763038705" lon="11.816331885164539"><ele>366.0</ele><time>2026-04-03T12:19:13.785Z</time></trkpt><trkpt lat="44.05828804114951" lon="11.816445265125017"><ele>370.0</ele><time>2026-04-03T12:19:14.785Z</time></trkpt><trkpt lat="44.05839421717115" lon="11.816558672181442"><ele>374.0</ele><time>2026-04-03T12:19:15.785Z</time></trkpt><trkpt lat="44.058498752902324" lon="11.81666439193613"><ele>378.0</ele><time>2026-04-03T12:19:16.785Z</time></trkpt><trkpt lat="44.05860269744121" lon="11.816770445191278"><ele>381.0</ele><time>2026-04-03T12:19:17.785Z</time></trkpt><trkpt lat="44.058698964298415" lon="11.816882517263355"><ele>384.0</ele><time>2026-04-03T12:19:18.785Z</time></trkpt><trkpt lat="44.05879223184036" lon="11.816994583948663"><ele>387.0</ele><time>2026-04-03T12:19:19.785Z</time></trkpt><trkpt lat="44.05887962234967" lon="11.817103387213546"><ele>390.0</ele><time>2026-04-03T12:19:20.785Z</time></trkpt><trkpt lat="44.058975791155156" lon="11.817176082930109"><ele>390.0</ele><time>2026-04-03T12:19:21.785Z</time></trkpt><trkpt lat="44.059084294413026" lon="11.817212524269598"><ele>390.0</ele><time>2026-04-03T12:19:22.785Z</time></trkpt><trkpt lat="44.059206311007344" lon="11.817214530819365"><ele>390.0</ele><time>2026-04-03T12:19:23.785Z</time></trkpt><trkpt lat="44.05933645980746" lon="11.81719802263112"><ele>390.0</ele><time>2026-04-03T12:19:24.785Z</time></trkpt><trkpt lat="44.05947771139494" lon="11.817178410327058"><ele>392.25</ele><time>2026-04-03T12:19:25.785Z</time></trkpt><trkpt lat="44.05961700723418" lon="11.817157407542712"><ele>394.5</ele><time>2026-04-03T12:19:26.785Z</time></trkpt><trkpt lat="44.059747557172315" lon="11.817139387144024"><ele>396.75</ele><time>2026-04-03T12:19:27.785Z</time></trkpt><trkpt lat="44.059868662584535" lon="11.817122572730277"><ele>399.0</ele><time>2026-04-03T12:19:28.785Z</time></trkpt><trkpt lat="44.059983241963366" lon="11.817106720046551"><ele>400.4</ele><time>2026-04-03T12:19:29.785Z</time></trkpt><trkpt lat="44.06009531273376" lon="11.817107595669238"><ele>401.79999999999995</ele><time>2026-04-03T12:19:30.785Z</time></trkpt><trkpt lat="44.060203667018264" lon="11.817125935042112"><ele>403.20000000000005</ele><time>2026-04-03T12:19:31.785Z</time></trkpt><trkpt lat="44.06029792537188" lon="11.817175658437407"><ele>404.6</ele><time>2026-04-03T12:19:32.785Z</time></trkpt><trkpt lat="44.060378727878245" lon="11.817220122135096"><ele>406.0</ele><time>2026-04-03T12:19:33.785Z</time></trkpt><trkpt lat="44.06046456165242" lon="11.817217655917474"><ele>406.00000000000006</ele><time>2026-04-03T12:19:34.785Z</time></trkpt><trkpt lat="44.060547390144485" lon="11.817182544049391"><ele>406.0</ele><time>2026-04-03T12:19:35.784Z</time></trkpt><trkpt lat="44.0606186245385" lon="11.81711654919387"><ele>406.0</ele><time>2026-04-03T12:19:36.784Z</time></trkpt><trkpt lat="44.060670874531304" lon="11.817029042455907"><ele>406.0</ele><time>2026-04-03T12:19:37.784Z</time></trkpt><trkpt lat="44.06068474591985" lon="11.816927320565716"><ele>406.00000000000006</ele><time>2026-04-03T12:19:38.784Z</time></trkpt><trkpt lat="44.06067303848049" lon="11.816799946008423"><ele>406.0</ele><time>2026-04-03T12:19:39.784Z</time></trkpt><trkpt lat="44.060643588670246" lon="11.816660999988107"><ele>399.25</ele><time>2026-04-03T12:19:40.784Z</time></trkpt><trkpt lat="44.06061053939649" lon="11.816504384460474"><ele>392.5</ele><time>2026-04-03T12:19:41.784Z</time></trkpt><trkpt lat="44.06057121110769" lon="11.816328857864237"><ele>385.75</ele><time>2026-04-03T12:19:42.784Z</time></trkpt><trkpt lat="44.06052243873702" lon="11.816147531962143"><ele>379.0</ele><time>2026-04-03T12:19:43.784Z</time></trkpt><trkpt lat="44.060472083959944" lon="11.81596165748227"><ele>379.0</ele><time>2026-04-03T12:19:44.784Z</time></trkpt><trkpt lat="44.06041797048547" lon="11.815763788618515"><ele>379.0</ele><time>2026-04-03T12:19:45.784Z</time></trkpt><trkpt lat="44.060363258247904" lon="11.815563800657166"><ele>379.0</ele><time>2026-04-03T12:19:46.784Z</time></trkpt><trkpt lat="44.06031012665713" lon="11.815377751021598"><ele>379.0</ele><time>2026-04-03T12:19:47.784Z</time></trkpt><trkpt lat="44.06026304042253" lon="11.815208397600776"><ele>379.0</ele><time>2026-04-03T12:19:48.784Z</time></trkpt><trkpt lat="44.060219924003896" lon="11.81506632975372"><ele>379.0</ele><time>2026-04-03T12:19:49.784Z</time></trkpt><trkpt lat="44.0601840759881" lon="11.814942031517448"><ele>379.0</ele><time>2026-04-03T12:19:50.784Z</time></trkpt><trkpt lat="44.06015231354433" lon="11.81482816436983"><ele>379.0</ele><time>2026-04-03T12:19:51.784Z</time></trkpt><trkpt lat="44.06012735438898" lon="11.814713572486"><ele>379.3333333333333</ele><time>2026-04-03T12:19:52.784Z</time></trkpt><trkpt lat="44.06012605842659" lon="11.814591265627907"><ele>379.66666666666663</ele><time>2026-04-03T12:19:53.784Z</time></trkpt><trkpt lat="44.060156315620546" lon="11.814486411556567"><ele>380.0</ele><time>2026-04-03T12:19:54.784Z</time></trkpt><trkpt lat="44.06019965622518" lon="11.814407142416322"><ele>380.3333333333333</ele><time>2026-04-03T12:19:55.784Z</time></trkpt><trkpt lat="44.06026461069872" lon="11.814348519137653"><ele>380.6666666666667</ele><time>2026-04-03T12:19:56.784Z</time></trkpt><trkpt lat="44.060340550574104" lon="11.814294137570078"><ele>381.0</ele><time>2026-04-03T12:19:57.782Z</time></trkpt><trkpt lat="44.06043346927825" lon="11.814239612710947"><ele>381.0</ele><time>2026-04-03T12:19:58.782Z</time></trkpt><trkpt lat="44.06051796915869" lon="11.814194115069341"><ele>381.0</ele><time>2026-04-03T12:19:59.782Z</time></trkpt><trkpt lat="44.060594792706894" lon="11.814163513241207"><ele>381.0</ele><time>2026-04-03T12:20:00.782Z</time></trkpt><trkpt lat="44.06066476688258" lon="11.81413961407826"><ele>381.0</ele><time>2026-04-03T12:20:01.781Z</time></trkpt><trkpt lat="44.060729615889976" lon="11.814149891470395"><ele>381.0</ele><time>2026-04-03T12:20:02.781Z</time></trkpt><trkpt lat="44.060785883653374" lon="11.814191455648107"><ele>381.0</ele><time>2026-04-03T12:20:03.782Z</time></trkpt><trkpt lat="44.060849603788235" lon="11.814268093159553"><ele>386.20000000000005</ele><time>2026-04-03T12:20:04.782Z</time></trkpt><trkpt lat="44.06092190359559" lon="11.814356381971255"><ele>391.40000000000003</ele><time>2026-04-03T12:20:05.782Z</time></trkpt><trkpt lat="44.06100150262589" lon="11.814462840799807"><ele>396.6</ele><time>2026-04-03T12:20:06.781Z</time></trkpt><trkpt lat="44.06108488243328" lon="11.814574738061292"><ele>401.8</ele><time>2026-04-03T12:20:07.781Z</time></trkpt><trkpt lat="44.06117312973819" lon="11.814686471170099"><ele>407.0</ele><time>2026-04-03T12:20:08.781Z</time></trkpt><trkpt lat="44.06125289368711" lon="11.814797161618042"><ele>407.0</ele><time>2026-04-03T12:20:09.782Z</time></trkpt><trkpt lat="44.06132745380019" lon="11.814900946002332"><ele>407.0</ele><time>2026-04-03T12:20:10.781Z</time></trkpt><trkpt lat="44.06141188431214" lon="11.814998229130373"><ele>407.0</ele><time>2026-04-03T12:20:11.781Z</time></trkpt><trkpt lat="44.061513801304876" lon="11.815061869126469"><ele>407.0</ele><time>2026-04-03T12:20:12.781Z</time></trkpt><trkpt lat="44.06162610171749" lon="11.815093387193114"><ele>407.0</ele><time>2026-04-03T12:20:13.781Z</time></trkpt><trkpt lat="44.06174677683688" lon="11.815095520415428"><ele>405.25</ele><time>2026-04-03T12:20:14.781Z</time></trkpt><trkpt lat="44.06186412637765" lon="11.815115482953427"><ele>403.5</ele><time>2026-04-03T12:20:15.781Z</time></trkpt><trkpt lat="44.061981796944195" lon="11.815153471415467"><ele>401.75</ele><time>2026-04-03T12:20:16.781Z</time></trkpt><trkpt lat="44.06209132924106" lon="11.815195018217695"><ele>400.0</ele><time>2026-04-03T12:20:17.781Z</time></trkpt><trkpt lat="44.062187142778136" lon="11.815256098438073"><ele>406.5</ele><time>2026-04-03T12:20:18.781Z</time></trkpt><trkpt lat="44.06228393298076" lon="11.815325073678405"><ele>413.0</ele><time>2026-04-03T12:20:19.781Z</time></trkpt><trkpt lat="44.062386767940765" lon="11.815385473122566"><ele>419.5</ele><time>2026-04-03T12:20:20.781Z</time></trkpt><trkpt lat="44.06249666974479" lon="11.815453756435618"><ele>426.0</ele><time>2026-04-03T12:20:21.781Z</time></trkpt><trkpt lat="44.06260543561749" lon="11.81552136957279"><ele>426.0</ele><time>2026-04-03T12:20:22.781Z</time></trkpt><trkpt lat="44.06271392207481" lon="11.815599385135434"><ele>426.0</ele><time>2026-04-03T12:20:23.781Z</time></trkpt><trkpt lat="44.062816255292475" lon="11.81569707842866"><ele>426.0</ele><time>2026-04-03T12:20:24.781Z</time></trkpt><trkpt lat="44.062906943094475" lon="11.815787268295368"><ele>426.0</ele><time>2026-04-03T12:20:25.781Z</time></trkpt><trkpt lat="44.06299422978252" lon="11.815864809234279"><ele>426.0</ele><time>2026-04-03T12:20:26.781Z</time></trkpt><trkpt lat="44.06308649124178" lon="11.815909749450462"><ele>426.0</ele><time>2026-04-03T12:20:27.781Z</time></trkpt><trkpt lat="44.06317534363259" lon="11.8159381848743"><ele>426.0</ele><time>2026-04-03T12:20:28.781Z</time></trkpt><trkpt lat="44.063272391511994" lon="11.815946793352879"><ele>426.0</ele><time>2026-04-03T12:20:29.781Z</time></trkpt><trkpt lat="44.063383455036615" lon="11.815954717488525"><ele>426.0</ele><time>2026-04-03T12:20:30.781Z</time></trkpt><trkpt lat="44.06348868959362" lon="11.815953037604956"><ele>424.0</ele><time>2026-04-03T12:20:31.781Z</time></trkpt><trkpt lat="44.06359674538833" lon="11.815941580181123"><ele>422.0</ele><time>2026-04-03T12:20:32.781Z</time></trkpt><trkpt lat="44.06369639328231" lon="11.815901646181114"><ele>420.0</ele><time>2026-04-03T12:20:33.781Z</time></trkpt><trkpt lat="44.06378746301968" lon="11.815852701851467"><ele>418.0</ele><time>2026-04-03T12:20:34.781Z</time></trkpt><trkpt lat="44.06387163751277" lon="11.815780533228818"><ele>416.0</ele><time>2026-04-03T12:20:35.781Z</time></trkpt><trkpt lat="44.06394836071951" lon="11.815704330387103"><ele>415.99999999999994</ele><time>2026-04-03T12:20:36.781Z</time></trkpt><trkpt lat="44.06400897848814" lon="11.815621427263432"><ele>416.0</ele><time>2026-04-03T12:20:37.781Z</time></trkpt><trkpt lat="44.06406147720236" lon="11.815535821190915"><ele>416.0</ele><time>2026-04-03T12:20:38.781Z</time></trkpt><trkpt lat="44.06408108503808" lon="11.81543131404944"><ele>416.0</ele><time>2026-04-03T12:20:39.781Z</time></trkpt><trkpt lat="44.06407319715394" lon="11.81531879809372"><ele>415.99999999999994</ele><time>2026-04-03T12:20:40.781Z</time></trkpt><trkpt lat="44.06404094270569" lon="11.815200443544638"><ele>416.0</ele><time>2026-04-03T12:20:41.781Z</time></trkpt><trkpt lat="44.06400332159704" lon="11.815067630424366"><ele>411.5</ele><time>2026-04-03T12:20:42.781Z</time></trkpt><trkpt lat="44.06395870524396" lon="11.814918553659785"><ele>407.0</ele><time>2026-04-03T12:20:43.781Z</time></trkpt><trkpt lat="44.06390804013907" lon="11.81475590911697"><ele>402.5</ele><time>2026-04-03T12:20:44.781Z</time></trkpt><trkpt lat="44.0638554784829" lon="11.814604812979121"><ele>398.0</ele><time>2026-04-03T12:20:45.781Z</time></trkpt><trkpt lat="44.06380586066911" lon="11.814461800097954"><ele>398.0</ele><time>2026-04-03T12:20:46.781Z</time></trkpt><trkpt lat="44.063772171989214" lon="11.814323670295769"><ele>398.0</ele><time>2026-04-03T12:20:47.781Z</time></trkpt><trkpt lat="44.06375356216711" lon="11.814193192130643"><ele>398.0</ele><time>2026-04-03T12:20:48.781Z</time></trkpt><trkpt lat="44.06375952974172" lon="11.81407511324447"><ele>398.0</ele><time>2026-04-03T12:20:49.781Z</time></trkpt><trkpt lat="44.06377974051354" lon="11.813966953090329"><ele>398.0</ele><time>2026-04-03T12:20:50.781Z</time></trkpt><trkpt lat="44.06382171468586" lon="11.813863800614481"><ele>398.59999999999997</ele><time>2026-04-03T12:20:51.781Z</time></trkpt><trkpt lat="44.06385327993135" lon="11.813760022890726"><ele>399.2</ele><time>2026-04-03T12:20:52.781Z</time></trkpt><trkpt lat="44.06385363240001" lon="11.813639308374558"><ele>399.8</ele><time>2026-04-03T12:20:53.781Z</time></trkpt><trkpt lat="44.063816707342596" lon="11.813514897888307"><ele>400.4</ele><time>2026-04-03T12:20:54.781Z</time></trkpt><trkpt lat="44.06375713589127" lon="11.813387074522705"><ele>401.0</ele><time>2026-04-03T12:20:55.781Z</time></trkpt><trkpt lat="44.0636745790853" lon="11.813258712272777"><ele>402.75</ele><time>2026-04-03T12:20:56.781Z</time></trkpt><trkpt lat="44.06358525912415" lon="11.813127553729409"><ele>404.5</ele><time>2026-04-03T12:20:57.781Z</time></trkpt><trkpt lat="44.06351258641116" lon="11.812996153606461"><ele>406.25</ele><time>2026-04-03T12:20:58.781Z</time></trkpt><trkpt lat="44.06346671785532" lon="11.812842628004402"><ele>408.0</ele><time>2026-04-03T12:20:59.781Z</time></trkpt><trkpt lat="44.06343632219931" lon="11.8126698162858"><ele>410.5</ele><time>2026-04-03T12:21:00.781Z</time></trkpt><trkpt lat="44.06339718610417" lon="11.812485567737365"><ele>413.0</ele><time>2026-04-03T12:21:01.781Z</time></trkpt><trkpt lat="44.063363244574646" lon="11.812289413098604"><ele>415.5</ele><time>2026-04-03T12:21:02.781Z</time></trkpt><trkpt lat="44.063327602505716" lon="11.81210398738542"><ele>418.0</ele><time>2026-04-03T12:21:03.781Z</time></trkpt><trkpt lat="44.06328504343792" lon="11.811918900474609"><ele>413.75</ele><time>2026-04-03T12:21:04.781Z</time></trkpt><trkpt lat="44.06323390357283" lon="11.811734682523381"><ele>409.5</ele><time>2026-04-03T12:21:05.781Z</time></trkpt><trkpt lat="44.063181094316725" lon="11.811571889602876"><ele>405.25</ele><time>2026-04-03T12:21:06.781Z</time></trkpt><trkpt lat="44.06314775747506" lon="11.811427263322209"><ele>401.0</ele><time>2026-04-03T12:21:07.781Z</time></trkpt><trkpt lat="44.06313118037729" lon="11.811306995060058"><ele>400.99999999999994</ele><time>2026-04-03T12:21:08.781Z</time></trkpt><trkpt lat="44.06313403557383" lon="11.811202106967757"><ele>401.0</ele><time>2026-04-03T12:21:09.781Z</time></trkpt><trkpt lat="44.06316454702955" lon="11.81112094450619"><ele>401.0</ele><time>2026-04-03T12:21:10.781Z</time></trkpt><trkpt lat="44.06322337232239" lon="11.811062587178796"><ele>401.0</ele><time>2026-04-03T12:21:11.781Z</time></trkpt><trkpt lat="44.063302818124775" lon="11.811035016234058"><ele>400.99999999999994</ele><time>2026-04-03T12:21:12.781Z</time></trkpt><trkpt lat="44.063389601557766" lon="11.811044445367633"><ele>401.0</ele><time>2026-04-03T12:21:13.781Z</time></trkpt><trkpt lat="44.063490542572644" lon="11.811063595753463"><ele>404.4</ele><time>2026-04-03T12:21:14.781Z</time></trkpt><trkpt lat="44.06359768298022" lon="11.811064107153342"><ele>407.8</ele><time>2026-04-03T12:21:15.781Z</time></trkpt><trkpt lat="44.0636913133181" lon="11.8110256324779"><ele>411.2</ele><time>2026-04-03T12:21:16.781Z</time></trkpt><trkpt lat="44.063788158374074" lon="11.810960719782583"><ele>414.59999999999997</ele><time>2026-04-03T12:21:17.781Z</time></trkpt><trkpt lat="44.063888541988184" lon="11.810901232336503"><ele>418.0</ele><time>2026-04-03T12:21:18.781Z</time></trkpt><trkpt lat="44.063981119514764" lon="11.810860599716806"><ele>418.0</ele><time>2026-04-03T12:21:19.781Z</time></trkpt><trkpt lat="44.06407164994128" lon="11.810830465235034"><ele>418.0</ele><time>2026-04-03T12:21:20.781Z</time></trkpt><trkpt lat="44.06416828716597" lon="11.810815334104682"><ele>418.0</ele><time>2026-04-03T12:21:21.781Z</time></trkpt><trkpt lat="44.06426319253534" lon="11.810803935399305"><ele>418.0</ele><time>2026-04-03T12:21:22.781Z</time></trkpt><trkpt lat="44.06435657669528" lon="11.810779398684177"><ele>418.0</ele><time>2026-04-03T12:21:23.781Z</time></trkpt><trkpt lat="44.0644469621578" lon="11.810721546375087"><ele>421.59999999999997</ele><time>2026-04-03T12:21:24.781Z</time></trkpt><trkpt lat="44.06452886889353" lon="11.810620924724128"><ele>425.2</ele><time>2026-04-03T12:21:25.781Z</time></trkpt><trkpt lat="44.06459156737978" lon="11.810522617227067"><ele>428.8</ele><time>2026-04-03T12:21:26.781Z</time></trkpt><trkpt lat="44.064639635925495" lon="11.810426739579857"><ele>432.4</ele><time>2026-04-03T12:21:27.781Z</time></trkpt><trkpt lat="44.06465905948979" lon="11.810319487469219"><ele>436.0</ele><time>2026-04-03T12:21:28.781Z</time></trkpt><trkpt lat="44.06464672849877" lon="11.810192559440525"><ele>432.6666666666667</ele><time>2026-04-03T12:21:29.781Z</time></trkpt><trkpt lat="44.06460505050182" lon="11.810072663232132"><ele>429.33333333333337</ele><time>2026-04-03T12:21:30.781Z</time></trkpt><trkpt lat="44.0645543920404" lon="11.809965479347726"><ele>426.0</ele><time>2026-04-03T12:21:31.781Z</time></trkpt><trkpt lat="44.064505974859266" lon="11.809857164085106"><ele>422.66666666666663</ele><time>2026-04-03T12:21:32.781Z</time></trkpt><trkpt lat="44.06447585978882" lon="11.809751272396905"><ele>419.3333333333333</ele><time>2026-04-03T12:21:33.781Z</time></trkpt><trkpt lat="44.064468139069604" lon="11.809643308249665"><ele>416.0</ele><time>2026-04-03T12:21:34.781Z</time></trkpt><trkpt lat="44.06447603636492" lon="11.80950839092561"><ele>416.0</ele><time>2026-04-03T12:21:35.781Z</time></trkpt><trkpt lat="44.0644962500216" lon="11.809359223470121"><ele>416.0</ele><time>2026-04-03T12:21:36.781Z</time></trkpt><trkpt lat="44.06452123494847" lon="11.80920027682734"><ele>416.0</ele><time>2026-04-03T12:21:37.781Z</time></trkpt><trkpt lat="44.06453621988559" lon="11.809020203505826"><ele>416.0</ele><time>2026-04-03T12:21:38.781Z</time></trkpt><trkpt lat="44.06454344035009" lon="11.808834779349512"><ele>416.5</ele><time>2026-04-03T12:21:39.781Z</time></trkpt><trkpt lat="44.06453791828454" lon="11.808673432092819"><ele>417.0</ele><time>2026-04-03T12:21:40.781Z</time></trkpt><trkpt lat="44.06452171594565" lon="11.808511911380203"><ele>417.5</ele><time>2026-04-03T12:21:41.781Z</time></trkpt><trkpt lat="44.06450370840969" lon="11.808342110520458"><ele>418.0</ele><time>2026-04-03T12:21:42.781Z</time></trkpt><trkpt lat="44.064486365172584" lon="11.808179899947493"><ele>418.0</ele><time>2026-04-03T12:21:43.781Z</time></trkpt><trkpt lat="44.06447773609195" lon="11.808035972083568"><ele>418.0</ele><time>2026-04-03T12:21:44.781Z</time></trkpt><trkpt lat="44.06448894354135" lon="11.8078996722969"><ele>418.0</ele><time>2026-04-03T12:21:45.781Z</time></trkpt><trkpt lat="44.06452215703679" lon="11.807763969914024"><ele>418.0</ele><time>2026-04-03T12:21:46.781Z</time></trkpt><trkpt lat="44.064578061336164" lon="11.807624225127196"><ele>418.0</ele><time>2026-04-03T12:21:47.781Z</time></trkpt><trkpt lat="44.06463839215832" lon="11.807487970928873"><ele>418.0</ele><time>2026-04-03T12:21:48.781Z</time></trkpt><trkpt lat="44.06468927185404" lon="11.807367358839088"><ele>418.0</ele><time>2026-04-03T12:21:49.781Z</time></trkpt><trkpt lat="44.06473302313137" lon="11.807262842499679"><ele>418.0</ele><time>2026-04-03T12:21:50.781Z</time></trkpt><trkpt lat="44.0647851807721" lon="11.807177060511945"><ele>418.0</ele><time>2026-04-03T12:21:51.781Z</time></trkpt><trkpt lat="44.06485943815545" lon="11.807116531114826"><ele>418.0</ele><time>2026-04-03T12:21:52.781Z</time></trkpt><trkpt lat="44.06496025602218" lon="11.807062691225806"><ele>423.75</ele><time>2026-04-03T12:21:53.781Z</time></trkpt><trkpt lat="44.065075287997274" lon="11.807020494669311"><ele>429.5</ele><time>2026-04-03T12:21:54.781Z</time></trkpt><trkpt lat="44.065202967518374" lon="11.806984588719452"><ele>435.25</ele><time>2026-04-03T12:21:55.781Z</time></trkpt><trkpt lat="44.065330728972576" lon="11.806926093392027"><ele>441.0</ele><time>2026-04-03T12:21:56.781Z</time></trkpt><trkpt lat="44.065461036447275" lon="11.806854563046898"><ele>440.5</ele><time>2026-04-03T12:21:57.781Z</time></trkpt><trkpt lat="44.065585294743016" lon="11.806758874680074"><ele>440.0</ele><time>2026-04-03T12:21:58.781Z</time></trkpt><trkpt lat="44.065698807366225" lon="11.806644558997705"><ele>439.5</ele><time>2026-04-03T12:21:59.781Z</time></trkpt><trkpt lat="44.06580868614826" lon="11.806523427017023"><ele>439.0</ele><time>2026-04-03T12:22:00.781Z</time></trkpt><trkpt lat="44.06591149642438" lon="11.806387246089043"><ele>439.0</ele><time>2026-04-03T12:22:01.781Z</time></trkpt><trkpt lat="44.06600317281646" lon="11.806227509357257"><ele>439.0</ele><time>2026-04-03T12:22:02.781Z</time></trkpt><trkpt lat="44.066082821201846" lon="11.806054211604648"><ele>439.0</ele><time>2026-04-03T12:22:03.777Z</time></trkpt><trkpt lat="44.066156337436446" lon="11.805868981230633"><ele>439.0</ele><time>2026-04-03T12:22:04.778Z</time></trkpt><trkpt lat="44.06622822593247" lon="11.80568017721663"><ele>436.75</ele><time>2026-04-03T12:22:05.778Z</time></trkpt><trkpt lat="44.06629027260339" lon="11.805496646578348"><ele>434.5</ele><time>2026-04-03T12:22:06.777Z</time></trkpt><trkpt lat="44.06634864510332" lon="11.805319468079256"><ele>432.25</ele><time>2026-04-03T12:22:07.778Z</time></trkpt><trkpt lat="44.06639793172518" lon="11.805161171921952"><ele>430.0</ele><time>2026-04-03T12:22:08.778Z</time></trkpt><trkpt lat="44.06644332776277" lon="11.805020094119177"><ele>428.6</ele><time>2026-04-03T12:22:09.777Z</time></trkpt><trkpt lat="44.06649145110352" lon="11.804898589990968"><ele>427.2</ele><time>2026-04-03T12:22:10.777Z</time></trkpt><trkpt lat="44.066553392900445" lon="11.804808213641191"><ele>425.79999999999995</ele><time>2026-04-03T12:22:11.777Z</time></trkpt><trkpt lat="44.066629814694856" lon="11.8047447733775"><ele>424.4</ele><time>2026-04-03T12:22:12.778Z</time></trkpt><trkpt lat="44.066726500276516" lon="11.804724276947665"><ele>423.0</ele><time>2026-04-03T12:22:13.777Z</time></trkpt><trkpt lat="44.06682794848956" lon="11.804725134503773"><ele>423.8333333333333</ele><time>2026-04-03T12:22:14.777Z</time></trkpt><trkpt lat="44.066922569007176" lon="11.804729015524556"><ele>424.66666666666663</ele><time>2026-04-03T12:22:15.777Z</time></trkpt><trkpt lat="44.06700016808229" lon="11.804689301310592"><ele>425.5</ele><time>2026-04-03T12:22:16.777Z</time></trkpt><trkpt lat="44.067065586973015" lon="11.804623575198177"><ele>426.3333333333333</ele><time>2026-04-03T12:22:17.777Z</time></trkpt><trkpt lat="44.06710384583029" lon="11.8045112557464"><ele>427.16666666666663</ele><time>2026-04-03T12:22:18.777Z</time></trkpt><trkpt lat="44.06710993352526" lon="11.804370288911183"><ele>428.0</ele><time>2026-04-03T12:22:19.777Z</time></trkpt><trkpt lat="44.06710827435563" lon="11.804222634964104"><ele>428.0</ele><time>2026-04-03T12:22:20.777Z</time></trkpt><trkpt lat="44.06710693565593" lon="11.80405704456369"><ele>428.0</ele><time>2026-04-03T12:22:21.777Z</time></trkpt><trkpt lat="44.067134882515376" lon="11.803894117006282"><ele>428.0</ele><time>2026-04-03T12:22:22.777Z</time></trkpt><trkpt lat="44.067179046971525" lon="11.803723646580458"><ele>428.0</ele><time>2026-04-03T12:22:23.777Z</time></trkpt><trkpt lat="44.0672273435292" lon="11.803549646492364"><ele>426.75</ele><time>2026-04-03T12:22:24.777Z</time></trkpt><trkpt lat="44.06727789981217" lon="11.80338399330829"><ele>425.5</ele><time>2026-04-03T12:22:25.777Z</time></trkpt><trkpt lat="44.06732447595305" lon="11.803222853315"><ele>424.25</ele><time>2026-04-03T12:22:26.777Z</time></trkpt><trkpt lat="44.06737000768192" lon="11.80307255250024"><ele>423.0</ele><time>2026-04-03T12:22:27.777Z</time></trkpt><trkpt lat="44.067405643042974" lon="11.8029304473487"><ele>423.0</ele><time>2026-04-03T12:22:28.777Z</time></trkpt><trkpt lat="44.06742632556451" lon="11.802795252664476"><ele>423.0</ele><time>2026-04-03T12:22:29.777Z</time></trkpt><trkpt lat="44.067434556750726" lon="11.802656355144071"><ele>423.0</ele><time>2026-04-03T12:22:30.777Z</time></trkpt><trkpt lat="44.06742407122894" lon="11.802516137491267"><ele>423.0</ele><time>2026-04-03T12:22:31.777Z</time></trkpt><trkpt lat="44.06740288835054" lon="11.802376109092329"><ele>423.0</ele><time>2026-04-03T12:22:32.777Z</time></trkpt><trkpt lat="44.06738352707406" lon="11.802232372717349"><ele>422.59999999999997</ele><time>2026-04-03T12:22:33.777Z</time></trkpt><trkpt lat="44.06736474472675" lon="11.802087659699115"><ele>422.2</ele><time>2026-04-03T12:22:34.777Z</time></trkpt><trkpt lat="44.06734160366197" lon="11.80193457672057"><ele>421.8</ele><time>2026-04-03T12:22:35.777Z</time></trkpt><trkpt lat="44.06732217290514" lon="11.801780724491678"><ele>421.4</ele><time>2026-04-03T12:22:36.777Z</time></trkpt><trkpt lat="44.067302362449" lon="11.801626905342467"><ele>421.0</ele><time>2026-04-03T12:22:37.777Z</time></trkpt><trkpt lat="44.067294916215694" lon="11.801488742552648"><ele>421.00000000000006</ele><time>2026-04-03T12:22:38.777Z</time></trkpt><trkpt lat="44.06728962104505" lon="11.801378486213991"><ele>421.0</ele><time>2026-04-03T12:22:39.777Z</time></trkpt><trkpt lat="44.06731704954016" lon="11.801267508111037"><ele>421.0</ele><time>2026-04-03T12:22:40.777Z</time></trkpt><trkpt lat="44.06736481977006" lon="11.80119319777938"><ele>421.0</ele><time>2026-04-03T12:22:41.777Z</time></trkpt><trkpt lat="44.06743422555154" lon="11.801140972741115"><ele>421.00000000000006</ele><time>2026-04-03T12:22:42.777Z</time></trkpt><trkpt lat="44.06751934856042" lon="11.80110962904297"><ele>421.0</ele><time>2026-04-03T12:22:43.777Z</time></trkpt><trkpt lat="44.067624250512935" lon="11.801102974743069"><ele>425.75</ele><time>2026-04-03T12:22:44.777Z</time></trkpt><trkpt lat="44.06773327813179" lon="11.801103210170286"><ele>430.5</ele><time>2026-04-03T12:22:45.777Z</time></trkpt><trkpt lat="44.06785740188016" lon="11.801121198016236"><ele>435.25</ele><time>2026-04-03T12:22:46.777Z</time></trkpt><trkpt lat="44.067985139388604" lon="11.80113649337874"><ele>440.0</ele><time>2026-04-03T12:22:47.777Z</time></trkpt><trkpt lat="44.068118513005714" lon="11.801149044461276"><ele>440.0</ele><time>2026-04-03T12:22:48.777Z</time></trkpt><trkpt lat="44.06825515496576" lon="11.801166132673975"><ele>440.0</ele><time>2026-04-03T12:22:49.777Z</time></trkpt><trkpt lat="44.06838930508377" lon="11.801180335374763"><ele>440.0</ele><time>2026-04-03T12:22:50.777Z</time></trkpt><trkpt lat="44.06852520530741" lon="11.80119111067937"><ele>440.0</ele><time>2026-04-03T12:22:51.777Z</time></trkpt><trkpt lat="44.06866280021633" lon="11.801209199304258"><ele>442.75</ele><time>2026-04-03T12:22:52.777Z</time></trkpt><trkpt lat="44.068801435312494" lon="11.801228590504882"><ele>445.5</ele><time>2026-04-03T12:22:53.777Z</time></trkpt><trkpt lat="44.06893024010043" lon="11.80126296338212"><ele>448.25</ele><time>2026-04-03T12:22:54.777Z</time></trkpt><trkpt lat="44.06904636482444" lon="11.801301772928412"><ele>451.0</ele><time>2026-04-03T12:22:55.777Z</time></trkpt><trkpt lat="44.06915295052131" lon="11.801333382642145"><ele>451.83333333333337</ele><time>2026-04-03T12:22:56.777Z</time></trkpt><trkpt lat="44.06924599065647" lon="11.801350412325936"><ele>452.6666666666667</ele><time>2026-04-03T12:22:57.777Z</time></trkpt><trkpt lat="44.06932273570184" lon="11.801319943009611"><ele>453.5</ele><time>2026-04-03T12:22:58.777Z</time></trkpt><trkpt lat="44.06938207953707" lon="11.801246457613686"><ele>454.33333333333337</ele><time>2026-04-03T12:22:59.777Z</time></trkpt><trkpt lat="44.06941470943478" lon="11.80114540560612"><ele>455.1666666666667</ele><time>2026-04-03T12:23:00.777Z</time></trkpt><trkpt lat="44.069424721044996" lon="11.801026300635375"><ele>456.0</ele><time>2026-04-03T12:23:01.777Z</time></trkpt><trkpt lat="44.0693946460981" lon="11.800901834005135"><ele>453.4</ele><time>2026-04-03T12:23:02.777Z</time></trkpt><trkpt lat="44.069332901551476" lon="11.800784165751065"><ele>450.8</ele><time>2026-04-03T12:23:03.777Z</time></trkpt><trkpt lat="44.06926647570458" lon="11.800675439673988"><ele>448.19999999999993</ele><time>2026-04-03T12:23:04.777Z</time></trkpt><trkpt lat="44.06919568072527" lon="11.800563782023012"><ele>445.59999999999997</ele><time>2026-04-03T12:23:05.777Z</time></trkpt><trkpt lat="44.06913196571458" lon="11.800433068780555"><ele>443.0</ele><time>2026-04-03T12:23:06.777Z</time></trkpt><trkpt lat="44.06908324094328" lon="11.800279511760905"><ele>438.25</ele><time>2026-04-03T12:23:07.777Z</time></trkpt><trkpt lat="44.06904247423523" lon="11.800099998372868"><ele>433.5</ele><time>2026-04-03T12:23:08.777Z</time></trkpt><trkpt lat="44.069001219118675" lon="11.79990314511939"><ele>428.75</ele><time>2026-04-03T12:23:09.777Z</time></trkpt><trkpt lat="44.06896048886726" lon="11.799696647067202"><ele>424.0</ele><time>2026-04-03T12:23:10.777Z</time></trkpt><trkpt lat="44.068917059587974" lon="11.799498607150724"><ele>425.5</ele><time>2026-04-03T12:23:11.777Z</time></trkpt><trkpt lat="44.06887286358343" lon="11.799313211663385"><ele>427.0</ele><time>2026-04-03T12:23:12.777Z</time></trkpt><trkpt lat="44.06881767038617" lon="11.799130630952115"><ele>428.5</ele><time>2026-04-03T12:23:13.777Z</time></trkpt><trkpt lat="44.06874955900411" lon="11.798960351237096"><ele>430.0</ele><time>2026-04-03T12:23:14.777Z</time></trkpt><trkpt lat="44.06866943789689" lon="11.798809876820812"><ele>430.0</ele><time>2026-04-03T12:23:15.777Z</time></trkpt><trkpt lat="44.06856671817532" lon="11.798664375625714"><ele>430.0</ele><time>2026-04-03T12:23:16.777Z</time></trkpt><trkpt lat="44.06844886925677" lon="11.798539177425656"><ele>430.0</ele><time>2026-04-03T12:23:17.777Z</time></trkpt><trkpt lat="44.06833457347866" lon="11.798426879742602"><ele>430.0</ele><time>2026-04-03T12:23:18.777Z</time></trkpt><trkpt lat="44.06823032337939" lon="11.798322009653162"><ele>427.00000000000006</ele><time>2026-04-03T12:23:19.777Z</time></trkpt><trkpt lat="44.06814232587802" lon="11.798227911605661"><ele>424.0</ele><time>2026-04-03T12:23:20.777Z</time></trkpt><trkpt lat="44.068073101673356" lon="11.798137585744971"><ele>421.0</ele><time>2026-04-03T12:23:21.777Z</time></trkpt><trkpt lat="44.068035254616575" lon="11.798035817976313"><ele>418.0</ele><time>2026-04-03T12:23:22.777Z</time></trkpt><trkpt lat="44.06803029639403" lon="11.7979328916855"><ele>415.00000000000006</ele><time>2026-04-03T12:23:23.777Z</time></trkpt><trkpt lat="44.06805608550832" lon="11.797842149513558"><ele>412.0</ele><time>2026-04-03T12:23:24.777Z</time></trkpt><trkpt lat="44.068122213952435" lon="11.797764237916837"><ele>412.0</ele><time>2026-04-03T12:23:25.777Z</time></trkpt><trkpt lat="44.068207132572724" lon="11.797713021732845"><ele>412.0</ele><time>2026-04-03T12:23:26.777Z</time></trkpt><trkpt lat="44.068303784256585" lon="11.797699834071512"><ele>412.0</ele><time>2026-04-03T12:23:27.777Z</time></trkpt><trkpt lat="44.0684116887015" lon="11.797709811213902"><ele>412.0</ele><time>2026-04-03T12:23:28.777Z</time></trkpt><trkpt lat="44.06851275545719" lon="11.797717245308343"><ele>412.0</ele><time>2026-04-03T12:23:29.777Z</time></trkpt><trkpt lat="44.06861340700528" lon="11.797713485255885"><ele>416.8</ele><time>2026-04-03T12:23:30.776Z</time></trkpt><trkpt lat="44.06869537895637" lon="11.797669339186951"><ele>421.6</ele><time>2026-04-03T12:23:31.776Z</time></trkpt><trkpt lat="44.06876814065052" lon="11.79757868315907"><ele>426.40000000000003</ele><time>2026-04-03T12:23:32.776Z</time></trkpt><trkpt lat="44.06880019605747" lon="11.797454812170947"><ele>431.20000000000005</ele><time>2026-04-03T12:23:33.776Z</time></trkpt><trkpt lat="44.06880787210007" lon="11.797306535401148"><ele>436.0</ele><time>2026-04-03T12:23:34.776Z</time></trkpt><trkpt lat="44.06880401419751" lon="11.79714366552632"><ele>436.0</ele><time>2026-04-03T12:23:35.776Z</time></trkpt><trkpt lat="44.06879317817938" lon="11.796977767692123"><ele>436.0</ele><time>2026-04-03T12:23:36.776Z</time></trkpt><trkpt lat="44.068776243647356" lon="11.796809971366386"><ele>436.0</ele><time>2026-04-03T12:23:37.776Z</time></trkpt><trkpt lat="44.06874200886941" lon="11.796654769208939"><ele>436.0</ele><time>2026-04-03T12:23:38.776Z</time></trkpt><trkpt lat="44.06869289374937" lon="11.796503762467935"><ele>434.8</ele><time>2026-04-03T12:23:39.776Z</time></trkpt><trkpt lat="44.06862977807816" lon="11.796375073734374"><ele>433.6</ele><time>2026-04-03T12:23:40.776Z</time></trkpt><trkpt lat="44.06857403600709" lon="11.796260305900683"><ele>432.4</ele><time>2026-04-03T12:23:41.776Z</time></trkpt><trkpt lat="44.06854981828531" lon="11.796136244756772"><ele>431.2</ele><time>2026-04-03T12:23:42.776Z</time></trkpt><trkpt lat="44.06855933760182" lon="11.796008323625806"><ele>430.0</ele><time>2026-04-03T12:23:43.776Z</time></trkpt><trkpt lat="44.0686128789563" lon="11.79588648131526"><ele>430.0</ele><time>2026-04-03T12:23:44.776Z</time></trkpt><trkpt lat="44.068682809178384" lon="11.795779017804412"><ele>430.0</ele><time>2026-04-03T12:23:45.776Z</time></trkpt><trkpt lat="44.06877170296772" lon="11.79568298269441"><ele>430.0</ele><time>2026-04-03T12:23:46.776Z</time></trkpt><trkpt lat="44.06886509755371" lon="11.795618839491574"><ele>430.0</ele><time>2026-04-03T12:23:47.776Z</time></trkpt><trkpt lat="44.06895870910565" lon="11.795574629145195"><ele>430.0</ele><time>2026-04-03T12:23:48.776Z</time></trkpt><trkpt lat="44.069043748808966" lon="11.79551336682322"><ele>430.0</ele><time>2026-04-03T12:23:49.776Z</time></trkpt><trkpt lat="44.06910892109777" lon="11.795423326342174"><ele>430.0</ele><time>2026-04-03T12:23:50.776Z</time></trkpt><trkpt lat="44.06914336484228" lon="11.795314984624735"><ele>430.0</ele><time>2026-04-03T12:23:51.776Z</time></trkpt><trkpt lat="44.069148313896115" lon="11.795181932806933"><ele>430.0</ele><time>2026-04-03T12:23:52.776Z</time></trkpt><trkpt lat="44.06913539678235" lon="11.795035516521846"><ele>430.0</ele><time>2026-04-03T12:23:53.776Z</time></trkpt><trkpt lat="44.069115214684736" lon="11.794879820534828"><ele>428.2</ele><time>2026-04-03T12:23:54.776Z</time></trkpt><trkpt lat="44.06910888793842" lon="11.794731570749775"><ele>426.4</ele><time>2026-04-03T12:23:55.776Z</time></trkpt><trkpt lat="44.06912313698491" lon="11.79458739630611"><ele>424.6</ele><time>2026-04-03T12:23:56.776Z</time></trkpt><trkpt lat="44.0691574242324" lon="11.794453765539009"><ele>422.8</ele><time>2026-04-03T12:23:57.776Z</time></trkpt><trkpt lat="44.06921830922539" lon="11.794331938141491"><ele>421.0</ele><time>2026-04-03T12:23:58.776Z</time></trkpt><trkpt lat="44.06929855660438" lon="11.794208860305456"><ele>425.0</ele><time>2026-04-03T12:23:59.776Z</time></trkpt><trkpt lat="44.06937631600133" lon="11.794085638935217"><ele>429.0</ele><time>2026-04-03T12:24:00.776Z</time></trkpt><trkpt lat="44.06946492293507" lon="11.793987018789608"><ele>433.0</ele><time>2026-04-03T12:24:01.776Z</time></trkpt><trkpt lat="44.069555636567515" lon="11.793907561525582"><ele>437.0</ele><time>2026-04-03T12:24:02.776Z</time></trkpt><trkpt lat="44.06965503417933" lon="11.793873889222954"><ele>441.0</ele><time>2026-04-03T12:24:03.776Z</time></trkpt><trkpt lat="44.06976021404649" lon="11.793871800031038"><ele>441.0</ele><time>2026-04-03T12:24:04.776Z</time></trkpt><trkpt lat="44.06987969315727" lon="11.793895907663883"><ele>441.0</ele><time>2026-04-03T12:24:05.776Z</time></trkpt><trkpt lat="44.07000064367335" lon="11.793941493422851"><ele>441.0</ele><time>2026-04-03T12:24:06.776Z</time></trkpt><trkpt lat="44.070110629769864" lon="11.793974732726479"><ele>441.0</ele><time>2026-04-03T12:24:07.776Z</time></trkpt><trkpt lat="44.07020618914328" lon="11.793987209313647"><ele>442.0</ele><time>2026-04-03T12:24:08.776Z</time></trkpt><trkpt lat="44.0702848065055" lon="11.793956638591728"><ele>443.0</ele><time>2026-04-03T12:24:09.773Z</time></trkpt><trkpt lat="44.07035205553097" lon="11.793880500319046"><ele>444.0</ele><time>2026-04-03T12:24:10.774Z</time></trkpt><trkpt lat="44.07040281850158" lon="11.793780371818224"><ele>445.0</ele><time>2026-04-03T12:24:11.774Z</time></trkpt><trkpt lat="44.07042753713906" lon="11.793652983064316"><ele>446.0</ele><time>2026-04-03T12:24:12.774Z</time></trkpt><trkpt lat="44.070397216462155" lon="11.793526046133216"><ele>447.0</ele><time>2026-04-03T12:24:13.773Z</time></trkpt><trkpt lat="44.0703443056558" lon="11.793403689925018"><ele>447.0</ele><time>2026-04-03T12:24:14.773Z</time></trkpt><trkpt lat="44.0702755195056" lon="11.793290279968812"><ele>447.00000000000006</ele><time>2026-04-03T12:24:15.773Z</time></trkpt><trkpt lat="44.07021511885092" lon="11.793189975766209"><ele>447.00000000000006</ele><time>2026-04-03T12:24:16.773Z</time></trkpt><trkpt lat="44.07018074952886" lon="11.79307538654668"><ele>447.0</ele><time>2026-04-03T12:24:17.773Z</time></trkpt><trkpt lat="44.0701731834473" lon="11.792950660618366"><ele>447.0</ele><time>2026-04-03T12:24:18.773Z</time></trkpt><trkpt lat="44.07019530862376" lon="11.792815097752252"><ele>447.25</ele><time>2026-04-03T12:24:19.773Z</time></trkpt><trkpt lat="44.07023918425942" lon="11.792669594663295"><ele>447.5</ele><time>2026-04-03T12:24:20.773Z</time></trkpt><trkpt lat="44.070291592596796" lon="11.792510041186933"><ele>447.75</ele><time>2026-04-03T12:24:21.773Z</time></trkpt><trkpt lat="44.07034147839202" lon="11.792350046189"><ele>448.0</ele><time>2026-04-03T12:24:22.773Z</time></trkpt><trkpt lat="44.070390983140356" lon="11.792212530001349"><ele>448.0</ele><time>2026-04-03T12:24:23.773Z</time></trkpt><trkpt lat="44.07045767748909" lon="11.792089064821234"><ele>447.99999999999994</ele><time>2026-04-03T12:24:24.773Z</time></trkpt><trkpt lat="44.07054912666814" lon="11.791995735901537"><ele>447.99999999999994</ele><time>2026-04-03T12:24:25.773Z</time></trkpt><trkpt lat="44.07064302826849" lon="11.791907607125667"><ele>448.0</ele><time>2026-04-03T12:24:26.773Z</time></trkpt><trkpt lat="44.07071291385394" lon="11.791822304704878"><ele>448.0</ele><time>2026-04-03T12:24:27.773Z</time></trkpt><trkpt lat="44.070763950706386" lon="11.791724185625087"><ele>447.2</ele><time>2026-04-03T12:24:28.773Z</time></trkpt><trkpt lat="44.07078840306047" lon="11.79161750408931"><ele>446.4</ele><time>2026-04-03T12:24:29.773Z</time></trkpt><trkpt lat="44.070779401813695" lon="11.791501849570185"><ele>445.59999999999997</ele><time>2026-04-03T12:24:30.773Z</time></trkpt><trkpt lat="44.07073237197401" lon="11.79140610963465"><ele>444.79999999999995</ele><time>2026-04-03T12:24:31.773Z</time></trkpt><trkpt lat="44.07065307578119" lon="11.791324787033094"><ele>444.0</ele><time>2026-04-03T12:24:32.773Z</time></trkpt><trkpt lat="44.07054980969746" lon="11.791269366981423"><ele>444.0</ele><time>2026-04-03T12:24:33.773Z</time></trkpt><trkpt lat="44.070439564341065" lon="11.791218478778147"><ele>444.0</ele><time>2026-04-03T12:24:34.773Z</time></trkpt><trkpt lat="44.070335941120405" lon="11.791160941668757"><ele>444.0</ele><time>2026-04-03T12:24:35.773Z</time></trkpt><trkpt lat="44.070241452032526" lon="11.791077566475472"><ele>444.0</ele><time>2026-04-03T12:24:36.773Z</time></trkpt><trkpt lat="44.07017037967179" lon="11.790961237588077"><ele>444.0</ele><time>2026-04-03T12:24:37.773Z</time></trkpt><trkpt lat="44.07012117010441" lon="11.790822198449952"><ele>444.79999999999995</ele><time>2026-04-03T12:24:38.773Z</time></trkpt><trkpt lat="44.0700977928962" lon="11.790689310734894"><ele>445.59999999999997</ele><time>2026-04-03T12:24:39.773Z</time></trkpt><trkpt lat="44.070096849881274" lon="11.790557892440416"><ele>446.4</ele><time>2026-04-03T12:24:40.773Z</time></trkpt><trkpt lat="44.070122181034996" lon="11.790418487730236"><ele>447.2</ele><time>2026-04-03T12:24:41.773Z</time></trkpt><trkpt lat="44.070174035516544" lon="11.790272175119304"><ele>448.0</ele><time>2026-04-03T12:24:42.773Z</time></trkpt><trkpt lat="44.07024224091611" lon="11.790127739240987"><ele>448.5</ele><time>2026-04-03T12:24:43.773Z</time></trkpt><trkpt lat="44.07031906122193" lon="11.789999816080572"><ele>449.0</ele><time>2026-04-03T12:24:44.773Z</time></trkpt><trkpt lat="44.07040737510586" lon="11.789913318186555"><ele>449.5</ele><time>2026-04-03T12:24:45.773Z</time></trkpt><trkpt lat="44.0705123637202" lon="11.789851824954637"><ele>450.0</ele><time>2026-04-03T12:24:46.773Z</time></trkpt><trkpt lat="44.070621396261046" lon="11.789812643174661"><ele>450.0</ele><time>2026-04-03T12:24:47.773Z</time></trkpt><trkpt lat="44.0707167522961" lon="11.789762574945536"><ele>450.0</ele><time>2026-04-03T12:24:48.773Z</time></trkpt><trkpt lat="44.070784763455435" lon="11.789693614275038"><ele>450.0</ele><time>2026-04-03T12:24:49.773Z</time></trkpt><trkpt lat="44.07082673323656" lon="11.789593107834385"><ele>450.0</ele><time>2026-04-03T12:24:50.773Z</time></trkpt><trkpt lat="44.070833454077864" lon="11.789482721855155"><ele>450.0</ele><time>2026-04-03T12:24:51.773Z</time></trkpt><trkpt lat="44.07081743632444" lon="11.789371518961259"><ele>450.0</ele><time>2026-04-03T12:24:52.773Z</time></trkpt><trkpt lat="44.07076964107717" lon="11.789265628013387"><ele>453.0</ele><time>2026-04-03T12:24:53.773Z</time></trkpt><trkpt lat="44.07069801345549" lon="11.789190953847552"><ele>456.0</ele><time>2026-04-03T12:24:54.773Z</time></trkpt><trkpt lat="44.07060772074938" lon="11.789153501695099"><ele>459.0</ele><time>2026-04-03T12:24:55.773Z</time></trkpt><trkpt lat="44.07051154992902" lon="11.78913538529541"><ele>462.0</ele><time>2026-04-03T12:24:56.773Z</time></trkpt><trkpt lat="44.07040057564128" lon="11.78913146283532"><ele>465.0</ele><time>2026-04-03T12:24:57.773Z</time></trkpt><trkpt lat="44.070282984004635" lon="11.789151764326794"><ele>465.0</ele><time>2026-04-03T12:24:58.773Z</time></trkpt><trkpt lat="44.07016976787216" lon="11.789187494880778"><ele>465.0</ele><time>2026-04-03T12:24:59.773Z</time></trkpt><trkpt lat="44.07006529715299" lon="11.78921780467342"><ele>465.0</ele><time>2026-04-03T12:25:00.773Z</time></trkpt><trkpt lat="44.06997419454529" lon="11.789240120132733"><ele>465.0</ele><time>2026-04-03T12:25:01.773Z</time></trkpt><trkpt lat="44.069881915275744" lon="11.78923428585814"><ele>465.0</ele><time>2026-04-03T12:25:02.773Z</time></trkpt><trkpt lat="44.069787568182676" lon="11.789209860281058"><ele>464.0</ele><time>2026-04-03T12:25:03.773Z</time></trkpt><trkpt lat="44.06969669223066" lon="11.789150454383647"><ele>463.0</ele><time>2026-04-03T12:25:04.773Z</time></trkpt><trkpt lat="44.069624573404646" lon="11.78905891240852"><ele>462.0</ele><time>2026-04-03T12:25:05.773Z</time></trkpt><trkpt lat="44.06957478185009" lon="11.7889359569085"><ele>461.0</ele><time>2026-04-03T12:25:06.773Z</time></trkpt><trkpt lat="44.069542007455304" lon="11.788780150964392"><ele>460.0</ele><time>2026-04-03T12:25:07.773Z</time></trkpt><trkpt lat="44.069502473422396" lon="11.78860880572654"><ele>461.75</ele><time>2026-04-03T12:25:08.773Z</time></trkpt><trkpt lat="44.06944928058509" lon="11.788427179896182"><ele>463.5</ele><time>2026-04-03T12:25:09.773Z</time></trkpt><trkpt lat="44.069406118699696" lon="11.78824995640623"><ele>465.25</ele><time>2026-04-03T12:25:10.773Z</time></trkpt><trkpt lat="44.069365097729246" lon="11.788074735441375"><ele>467.0</ele><time>2026-04-03T12:25:11.773Z</time></trkpt><trkpt lat="44.06933249838999" lon="11.787891827475015"><ele>467.0</ele><time>2026-04-03T12:25:12.773Z</time></trkpt><trkpt lat="44.069305873217864" lon="11.787708923179535"><ele>467.0</ele><time>2026-04-03T12:25:13.773Z</time></trkpt><trkpt lat="44.06926976449369" lon="11.787535879428088"><ele>467.0</ele><time>2026-04-03T12:25:14.773Z</time></trkpt><trkpt lat="44.06920878196978" lon="11.787384123509446"><ele>467.0</ele><time>2026-04-03T12:25:15.773Z</time></trkpt><trkpt lat="44.06913164452816" lon="11.787236595918515"><ele>471.40000000000003</ele><time>2026-04-03T12:25:16.773Z</time></trkpt><trkpt lat="44.06904851465285" lon="11.787112380423679"><ele>475.80000000000007</ele><time>2026-04-03T12:25:17.773Z</time></trkpt><trkpt lat="44.068966797583855" lon="11.786981528786379"><ele>480.2</ele><time>2026-04-03T12:25:18.773Z</time></trkpt><trkpt lat="44.068892414456705" lon="11.786881789147188"><ele>484.6</ele><time>2026-04-03T12:25:19.773Z</time></trkpt><trkpt lat="44.06881854791859" lon="11.786815621400411"><ele>489.0</ele><time>2026-04-03T12:25:20.773Z</time></trkpt><trkpt lat="44.06874526982844" lon="11.78678723854907"><ele>489.0</ele><time>2026-04-03T12:25:21.773Z</time></trkpt><trkpt lat="44.0686657581337" lon="11.786817331665722"><ele>489.0</ele><time>2026-04-03T12:25:22.773Z</time></trkpt><trkpt lat="44.06858556576866" lon="11.786898945359187"><ele>489.0</ele><time>2026-04-03T12:25:23.773Z</time></trkpt><trkpt lat="44.06853600331557" lon="11.78698246458632"><ele>489.0</ele><time>2026-04-03T12:25:24.773Z</time></trkpt><trkpt lat="44.06852370199208" lon="11.787082459159961"><ele>489.0</ele><time>2026-04-03T12:25:25.773Z</time></trkpt><trkpt lat="44.068540888063346" lon="11.787186449232216"><ele>489.0</ele><time>2026-04-03T12:25:26.773Z</time></trkpt><trkpt lat="44.06856899544909" lon="11.787297929664701"><ele>488.8333333333333</ele><time>2026-04-03T12:25:27.773Z</time></trkpt><trkpt lat="44.06859657141832" lon="11.78739189229693"><ele>488.66666666666663</ele><time>2026-04-03T12:25:28.773Z</time></trkpt><trkpt lat="44.06861599643425" lon="11.787496643207904"><ele>488.5</ele><time>2026-04-03T12:25:29.773Z</time></trkpt><trkpt lat="44.06862460416885" lon="11.787602516227176"><ele>488.3333333333333</ele><time>2026-04-03T12:25:30.773Z</time></trkpt><trkpt lat="44.06862352111024" lon="11.787722095570563"><ele>488.16666666666663</ele><time>2026-04-03T12:25:31.773Z</time></trkpt><trkpt lat="44.06861121891768" lon="11.787860171756106"><ele>488.0</ele><time>2026-04-03T12:25:32.773Z</time></trkpt><trkpt lat="44.0685870398173" lon="11.788012747800494"><ele>488.0</ele><time>2026-04-03T12:25:33.773Z</time></trkpt><trkpt lat="44.06855411876584" lon="11.788174240474707"><ele>487.99999999999994</ele><time>2026-04-03T12:25:34.773Z</time></trkpt><trkpt lat="44.06852320352922" lon="11.788325309381358"><ele>487.99999999999994</ele><time>2026-04-03T12:25:35.773Z</time></trkpt><trkpt lat="44.06849055979233" lon="11.788465813685516"><ele>488.0</ele><time>2026-04-03T12:25:36.773Z</time></trkpt><trkpt lat="44.068451933901" lon="11.788587827370723"><ele>488.0</ele><time>2026-04-03T12:25:37.773Z</time></trkpt><trkpt lat="44.068391119598026" lon="11.788702567977255"><ele>486.79999999999995</ele><time>2026-04-03T12:25:38.773Z</time></trkpt><trkpt lat="44.06831433986536" lon="11.788804155231755"><ele>485.59999999999997</ele><time>2026-04-03T12:25:39.773Z</time></trkpt><trkpt lat="44.06822416206644" lon="11.788906042728527"><ele>484.40000000000003</ele><time>2026-04-03T12:25:40.773Z</time></trkpt><trkpt lat="44.06815210140643" lon="11.78901370256362"><ele>483.20000000000005</ele><time>2026-04-03T12:25:41.773Z</time></trkpt><trkpt lat="44.06809795981372" lon="11.78914999306873"><ele>482.0</ele><time>2026-04-03T12:25:42.773Z</time></trkpt><trkpt lat="44.0680835883271" lon="11.789308811972955"><ele>484.8</ele><time>2026-04-03T12:25:43.773Z</time></trkpt><trkpt lat="44.06809410985446" lon="11.789477081877129"><ele>487.6</ele><time>2026-04-03T12:25:44.773Z</time></trkpt><trkpt lat="44.0681087143662" lon="11.789628955804847"><ele>490.40000000000003</ele><time>2026-04-03T12:25:45.773Z</time></trkpt><trkpt lat="44.06810656880217" lon="11.789766203731723"><ele>493.20000000000005</ele><time>2026-04-03T12:25:46.773Z</time></trkpt><trkpt lat="44.06808505444021" lon="11.789889622638718"><ele>496.0</ele><time>2026-04-03T12:25:47.773Z</time></trkpt><trkpt lat="44.06803485543408" lon="11.789994669945123"><ele>496.0</ele><time>2026-04-03T12:25:48.773Z</time></trkpt><trkpt lat="44.06795575276653" lon="11.790084096195647"><ele>496.0</ele><time>2026-04-03T12:25:49.773Z</time></trkpt><trkpt lat="44.067865449196205" lon="11.790162682159918"><ele>496.0</ele><time>2026-04-03T12:25:50.773Z</time></trkpt><trkpt lat="44.06776238707509" lon="11.790243471752751"><ele>496.0</ele><time>2026-04-03T12:25:51.773Z</time></trkpt><trkpt lat="44.067643690384045" lon="11.79033493349994"><ele>494.75</ele><time>2026-04-03T12:25:52.773Z</time></trkpt><trkpt lat="44.067533188097556" lon="11.790427666812391"><ele>493.5</ele><time>2026-04-03T12:25:53.772Z</time></trkpt><trkpt lat="44.06743627673266" lon="11.790516512791902"><ele>492.25</ele><time>2026-04-03T12:25:54.772Z</time></trkpt><trkpt lat="44.06734805340375" lon="11.790598523379886"><ele>491.0</ele><time>2026-04-03T12:25:55.772Z</time></trkpt><trkpt lat="44.06724108803305" lon="11.790646270587988"><ele>493.75</ele><time>2026-04-03T12:25:56.772Z</time></trkpt><trkpt lat="44.06712517657196" lon="11.790688224281183"><ele>496.5</ele><time>2026-04-03T12:25:57.772Z</time></trkpt><trkpt lat="44.06700632951048" lon="11.790722524411251"><ele>499.25</ele><time>2026-04-03T12:25:58.772Z</time></trkpt><trkpt lat="44.06688715590583" lon="11.790754998052398"><ele>502.0</ele><time>2026-04-03T12:25:59.772Z</time></trkpt><trkpt lat="44.06679384997566" lon="11.790802600437107"><ele>502.0</ele><time>2026-04-03T12:26:00.772Z</time></trkpt><trkpt lat="44.06672419020129" lon="11.790899720705616"><ele>502.00000000000006</ele><time>2026-04-03T12:26:01.772Z</time></trkpt><trkpt lat="44.066692332694245" lon="11.791028511469287"><ele>502.00000000000006</ele><time>2026-04-03T12:26:02.772Z</time></trkpt><trkpt lat="44.06668869872247" lon="11.79118116849674"><ele>502.0</ele><time>2026-04-03T12:26:03.772Z</time></trkpt><trkpt lat="44.066709907216755" lon="11.791350675338755"><ele>502.0</ele><time>2026-04-03T12:26:04.772Z</time></trkpt><trkpt lat="44.066741293547096" lon="11.791526207787205"><ele>502.40000000000003</ele><time>2026-04-03T12:26:05.772Z</time></trkpt><trkpt lat="44.06676716600124" lon="11.791682190024375"><ele>502.80000000000007</ele><time>2026-04-03T12:26:06.772Z</time></trkpt><trkpt lat="44.06677179878676" lon="11.791834946989638"><ele>503.2</ele><time>2026-04-03T12:26:07.772Z</time></trkpt><trkpt lat="44.06675943752702" lon="11.791987617036705"><ele>503.6</ele><time>2026-04-03T12:26:08.772Z</time></trkpt><trkpt lat="44.06672009442454" lon="11.792128752826901"><ele>504.0</ele><time>2026-04-03T12:26:09.772Z</time></trkpt><trkpt lat="44.06665390601235" lon="11.79227127498422"><ele>506.5</ele><time>2026-04-03T12:26:10.772Z</time></trkpt><trkpt lat="44.066565310515756" lon="11.79241461795282"><ele>509.0</ele><time>2026-04-03T12:26:11.772Z</time></trkpt><trkpt lat="44.066478531566794" lon="11.792556984048636"><ele>511.5</ele><time>2026-04-03T12:26:12.772Z</time></trkpt><trkpt lat="44.06638397204323" lon="11.792693707192711"><ele>514.0</ele><time>2026-04-03T12:26:13.772Z</time></trkpt><trkpt lat="44.066287147723486" lon="11.79283334957055"><ele>514.0</ele><time>2026-04-03T12:26:14.772Z</time></trkpt><trkpt lat="44.066183614731386" lon="11.792949084530678"><ele>514.0</ele><time>2026-04-03T12:26:15.769Z</time></trkpt><trkpt lat="44.06607836648889" lon="11.793068203112929"><ele>514.0</ele><time>2026-04-03T12:26:16.769Z</time></trkpt><trkpt lat="44.065974374509764" lon="11.793182315801864"><ele>514.0</ele><time>2026-04-03T12:26:17.769Z</time></trkpt><trkpt lat="44.0658729557785" lon="11.793294182141398"><ele>517.25</ele><time>2026-04-03T12:26:18.769Z</time></trkpt><trkpt lat="44.06577537007881" lon="11.793428947721893"><ele>520.5</ele><time>2026-04-03T12:26:19.769Z</time></trkpt><trkpt lat="44.06568122834927" lon="11.793578978544753"><ele>523.75</ele><time>2026-04-03T12:26:20.769Z</time></trkpt><trkpt lat="44.06558720236802" lon="11.793737681776607"><ele>527.0</ele><time>2026-04-03T12:26:21.769Z</time></trkpt><trkpt lat="44.06550112614651" lon="11.793884951605598"><ele>527.25</ele><time>2026-04-03T12:26:22.769Z</time></trkpt><trkpt lat="44.06541749483756" lon="11.794027895685062"><ele>527.5</ele><time>2026-04-03T12:26:23.769Z</time></trkpt><trkpt lat="44.065348875285224" lon="11.794164631588343"><ele>527.75</ele><time>2026-04-03T12:26:24.769Z</time></trkpt><trkpt lat="44.06530348664395" lon="11.79430085195568"><ele>528.0</ele><time>2026-04-03T12:26:25.769Z</time></trkpt><trkpt lat="44.06529371679268" lon="11.794444410030739"><ele>527.0</ele><time>2026-04-03T12:26:26.769Z</time></trkpt><trkpt lat="44.06531369585938" lon="11.794585432899234"><ele>526.0</ele><time>2026-04-03T12:26:27.769Z</time></trkpt><trkpt lat="44.06533303210635" lon="11.794702330265475"><ele>525.0</ele><time>2026-04-03T12:26:28.769Z</time></trkpt><trkpt lat="44.06532019188996" lon="11.794808471382844"><ele>524.0</ele><time>2026-04-03T12:26:29.769Z</time></trkpt><trkpt lat="44.06527101402785" lon="11.7948817688843"><ele>523.0</ele><time>2026-04-03T12:26:30.769Z</time></trkpt><trkpt lat="44.06519284272348" lon="11.794921899450795"><ele>522.0</ele><time>2026-04-03T12:26:31.769Z</time></trkpt><trkpt lat="44.06510420422022" lon="11.794914295832859"><ele>522.0</ele><time>2026-04-03T12:26:32.769Z</time></trkpt><trkpt lat="44.065013185159344" lon="11.794871044238645"><ele>522.0</ele><time>2026-04-03T12:26:33.768Z</time></trkpt><trkpt lat="44.064921163645565" lon="11.794800849243774"><ele>522.0</ele><time>2026-04-03T12:26:34.768Z</time></trkpt><trkpt lat="44.064829926549" lon="11.794694990671864"><ele>522.0</ele><time>2026-04-03T12:26:35.768Z</time></trkpt><trkpt lat="44.06474403524411" lon="11.794574293857227"><ele>522.0</ele><time>2026-04-03T12:26:36.768Z</time></trkpt><trkpt lat="44.06465649205224" lon="11.794448057748578"><ele>525.6</ele><time>2026-04-03T12:26:37.768Z</time></trkpt><trkpt lat="44.06457069827163" lon="11.794326108950376"><ele>529.2</ele><time>2026-04-03T12:26:38.768Z</time></trkpt><trkpt lat="44.06450152302105" lon="11.794220071940154"><ele>532.8</ele><time>2026-04-03T12:26:39.768Z</time></trkpt><trkpt lat="44.06444904746" lon="11.794129057276507"><ele>536.4</ele><time>2026-04-03T12:26:40.768Z</time></trkpt><trkpt lat="44.064406244347175" lon="11.794021262130064"><ele>540.0</ele><time>2026-04-03T12:26:41.768Z</time></trkpt><trkpt lat="44.06437953154815" lon="11.79390900069533"><ele>540.0</ele><time>2026-04-03T12:26:42.768Z</time></trkpt><trkpt lat="44.064371721081685" lon="11.793781242473482"><ele>540.0</ele><time>2026-04-03T12:26:43.768Z</time></trkpt><trkpt lat="44.06437376994337" lon="11.793648107523378"><ele>540.0</ele><time>2026-04-03T12:26:44.768Z</time></trkpt><trkpt lat="44.06439439183186" lon="11.793515186858528"><ele>540.0</ele><time>2026-04-03T12:26:45.768Z</time></trkpt><trkpt lat="44.064420747348116" lon="11.793393515359115"><ele>540.0</ele><time>2026-04-03T12:26:46.768Z</time></trkpt><trkpt lat="44.06446095440357" lon="11.793282361428197"><ele>541.0</ele><time>2026-04-03T12:26:47.768Z</time></trkpt><trkpt lat="44.064511322431436" lon="11.793176682717506"><ele>542.0</ele><time>2026-04-03T12:26:48.768Z</time></trkpt><trkpt lat="44.064562739439594" lon="11.793061998777267"><ele>543.0</ele><time>2026-04-03T12:26:49.768Z</time></trkpt><trkpt lat="44.064600893168524" lon="11.792935476365427"><ele>544.0</ele><time>2026-04-03T12:26:50.768Z</time></trkpt><trkpt lat="44.064620245050406" lon="11.79280575107718"><ele>545.0</ele><time>2026-04-03T12:26:51.768Z</time></trkpt><trkpt lat="44.0646182993138" lon="11.792665577607139"><ele>546.6</ele><time>2026-04-03T12:26:52.768Z</time></trkpt><trkpt lat="44.06458887599444" lon="11.79252325941138"><ele>548.2</ele><time>2026-04-03T12:26:53.768Z</time></trkpt><trkpt lat="44.064542861240156" lon="11.79238451541749"><ele>549.8</ele><time>2026-04-03T12:26:54.768Z</time></trkpt><trkpt lat="44.064499069840416" lon="11.792269604071969"><ele>551.4</ele><time>2026-04-03T12:26:55.768Z</time></trkpt><trkpt lat="44.064457277365065" lon="11.792153981438574"><ele>553.0</ele><time>2026-04-03T12:26:56.768Z</time></trkpt><trkpt lat="44.0644003553873" lon="11.792034546075548"><ele>553.0</ele><time>2026-04-03T12:26:57.768Z</time></trkpt><trkpt lat="44.06433949996973" lon="11.791910001552013"><ele>553.0</ele><time>2026-04-03T12:26:58.768Z</time></trkpt><trkpt lat="44.06427823094763" lon="11.791771825395518"><ele>553.0</ele><time>2026-04-03T12:26:59.768Z</time></trkpt><trkpt lat="44.064214974535794" lon="11.791623890673362"><ele>553.0</ele><time>2026-04-03T12:27:00.768Z</time></trkpt><trkpt lat="44.06415220597887" lon="11.791467581541701"><ele>557.75</ele><time>2026-04-03T12:27:01.768Z</time></trkpt><trkpt lat="44.06408965717432" lon="11.791301142178364"><ele>562.5</ele><time>2026-04-03T12:27:02.768Z</time></trkpt><trkpt lat="44.06402960751317" lon="11.79112785413056"><ele>567.25</ele><time>2026-04-03T12:27:03.768Z</time></trkpt><trkpt lat="44.06396968445488" lon="11.790950468397648"><ele>572.0</ele><time>2026-04-03T12:27:04.768Z</time></trkpt><trkpt lat="44.063909638019055" lon="11.790771281743028"><ele>572.0</ele><time>2026-04-03T12:27:05.768Z</time></trkpt><trkpt lat="44.06385726351679" lon="11.790603347970992"><ele>572.0</ele><time>2026-04-03T12:27:06.768Z</time></trkpt><trkpt lat="44.063810829867265" lon="11.790450327993355"><ele>572.0</ele><time>2026-04-03T12:27:07.768Z</time></trkpt><trkpt lat="44.06377622399238" lon="11.790317111886804"><ele>572.0</ele><time>2026-04-03T12:27:08.768Z</time></trkpt><trkpt lat="44.063744636395526" lon="11.790171896803846"><ele>572.5</ele><time>2026-04-03T12:27:09.768Z</time></trkpt><trkpt lat="44.06373327039714" lon="11.790013340850956"><ele>573.0</ele><time>2026-04-03T12:27:10.768Z</time></trkpt><trkpt lat="44.06373708434657" lon="11.789847125372729"><ele>573.5</ele><time>2026-04-03T12:27:11.768Z</time></trkpt><trkpt lat="44.063752716125535" lon="11.789671225329972"><ele>574.0</ele><time>2026-04-03T12:27:12.768Z</time></trkpt><trkpt lat="44.06376665126889" lon="11.78949241482833"><ele>574.25</ele><time>2026-04-03T12:27:13.768Z</time></trkpt><trkpt lat="44.06377898157235" lon="11.789318860908867"><ele>574.5</ele><time>2026-04-03T12:27:14.768Z</time></trkpt><trkpt lat="44.063790661996286" lon="11.789155083321049"><ele>574.75</ele><time>2026-04-03T12:27:15.768Z</time></trkpt><trkpt lat="44.06379403339116" lon="11.789004775629966"><ele>575.0</ele><time>2026-04-03T12:27:16.768Z</time></trkpt><trkpt lat="44.06376999963366" lon="11.788857204658232"><ele>575.0</ele><time>2026-04-03T12:27:17.768Z</time></trkpt><trkpt lat="44.06371508499691" lon="11.788708915254151"><ele>575.0</ele><time>2026-04-03T12:27:18.768Z</time></trkpt><trkpt lat="44.06364526472315" lon="11.788564314877757"><ele>575.0</ele><time>2026-04-03T12:27:19.768Z</time></trkpt><trkpt lat="44.06357252212973" lon="11.788416570524516"><ele>575.0</ele><time>2026-04-03T12:27:20.768Z</time></trkpt><trkpt lat="44.06351827029804" lon="11.788264891240562"><ele>574.25</ele><time>2026-04-03T12:27:21.768Z</time></trkpt><trkpt lat="44.06348293343844" lon="11.788095951315029"><ele>573.5</ele><time>2026-04-03T12:27:22.768Z</time></trkpt><trkpt lat="44.06347394944041" lon="11.787920043167576"><ele>572.75</ele><time>2026-04-03T12:27:23.768Z</time></trkpt><trkpt lat="44.06348161508163" lon="11.787739032874477"><ele>572.0</ele><time>2026-04-03T12:27:24.768Z</time></trkpt><trkpt lat="44.06349711129296" lon="11.787544890659808"><ele>572.0</ele><time>2026-04-03T12:27:25.768Z</time></trkpt><trkpt lat="44.0635145049631" lon="11.78734532908489"><ele>572.0</ele><time>2026-04-03T12:27:26.768Z</time></trkpt><trkpt lat="44.06353372291371" lon="11.78715006716605"><ele>572.0</ele><time>2026-04-03T12:27:27.768Z</time></trkpt><trkpt lat="44.063562184896355" lon="11.786949285914977"><ele>572.0</ele><time>2026-04-03T12:27:28.768Z</time></trkpt><trkpt lat="44.063596939809685" lon="11.786763777948977"><ele>573.0</ele><time>2026-04-03T12:27:29.768Z</time></trkpt><trkpt lat="44.063629031109876" lon="11.786595356838058"><ele>574.0</ele><time>2026-04-03T12:27:30.768Z</time></trkpt><trkpt lat="44.06365434336859" lon="11.786419348606"><ele>575.0</ele><time>2026-04-03T12:27:31.768Z</time></trkpt><trkpt lat="44.06366034244492" lon="11.78623495616453"><ele>576.0</ele><time>2026-04-03T12:27:32.768Z</time></trkpt><trkpt lat="44.06365393132378" lon="11.786034377342913"><ele>576.75</ele><time>2026-04-03T12:27:33.768Z</time></trkpt><trkpt lat="44.06363855009745" lon="11.78582968486573"><ele>577.5</ele><time>2026-04-03T12:27:34.768Z</time></trkpt><trkpt lat="44.063619112437095" lon="11.785645620653073"><ele>578.25</ele><time>2026-04-03T12:27:35.768Z</time></trkpt><trkpt lat="44.06359761935533" lon="11.785476606307363"><ele>579.0</ele><time>2026-04-03T12:27:36.768Z</time></trkpt><trkpt lat="44.063590028196764" lon="11.785327559681386"><ele>579.0</ele><time>2026-04-03T12:27:37.768Z</time></trkpt><trkpt lat="44.06359300593343" lon="11.78519918084911"><ele>579.0</ele><time>2026-04-03T12:27:38.768Z</time></trkpt><trkpt lat="44.06362289637075" lon="11.78507259559007"><ele>579.0</ele><time>2026-04-03T12:27:39.768Z</time></trkpt><trkpt lat="44.06367759666319" lon="11.784955241815844"><ele>579.0</ele><time>2026-04-03T12:27:40.768Z</time></trkpt><trkpt lat="44.063763788583486" lon="11.784829237486159"><ele>579.0</ele><time>2026-04-03T12:27:41.768Z</time></trkpt><trkpt lat="44.063854377405384" lon="11.784701453991165"><ele>579.0</ele><time>2026-04-03T12:27:42.768Z</time></trkpt><trkpt lat="44.0639399467652" lon="11.784541582912173"><ele>579.0</ele><time>2026-04-03T12:27:43.768Z</time></trkpt><trkpt lat="44.06402343969897" lon="11.78437268226305"><ele>579.0</ele><time>2026-04-03T12:27:44.768Z</time></trkpt><trkpt lat="44.06409570424314" lon="11.784210138214462"><ele>579.0</ele><time>2026-04-03T12:27:45.768Z</time></trkpt><trkpt lat="44.064159787627524" lon="11.784048227535294"><ele>581.6</ele><time>2026-04-03T12:27:46.768Z</time></trkpt><trkpt lat="44.06420839511936" lon="11.783913124947995"><ele>584.2</ele><time>2026-04-03T12:27:47.768Z</time></trkpt><trkpt lat="44.06424634503552" lon="11.783777268463712"><ele>586.8000000000001</ele><time>2026-04-03T12:27:48.768Z</time></trkpt><trkpt lat="44.0642624183486" lon="11.783631020122266"><ele>589.4</ele><time>2026-04-03T12:27:49.768Z</time></trkpt><trkpt lat="44.06425265779892" lon="11.783467876089428"><ele>592.0</ele><time>2026-04-03T12:27:50.768Z</time></trkpt><trkpt lat="44.064226422860436" lon="11.783301443974384"><ele>593.5</ele><time>2026-04-03T12:27:51.768Z</time></trkpt><trkpt lat="44.06420069891367" lon="11.783125784250974"><ele>595.0</ele><time>2026-04-03T12:27:52.768Z</time></trkpt><trkpt lat="44.064179773192045" lon="11.782955586859332"><ele>596.5</ele><time>2026-04-03T12:27:53.768Z</time></trkpt><trkpt lat="44.064185935954065" lon="11.782786781162395"><ele>598.0</ele><time>2026-04-03T12:27:54.768Z</time></trkpt><trkpt lat="44.06421310274552" lon="11.782620674452367"><ele>599.5</ele><time>2026-04-03T12:27:55.768Z</time></trkpt><trkpt lat="44.06425867910226" lon="11.782449950374147"><ele>601.0</ele><time>2026-04-03T12:27:56.768Z</time></trkpt><trkpt lat="44.06430131736464" lon="11.782266424024844"><ele>602.5</ele><time>2026-04-03T12:27:57.768Z</time></trkpt><trkpt lat="44.06433939029441" lon="11.782075858931712"><ele>604.0</ele><time>2026-04-03T12:27:58.768Z</time></trkpt><trkpt lat="44.064377244979795" lon="11.78189320549555"><ele>606.25</ele><time>2026-04-03T12:27:59.768Z</time></trkpt><trkpt lat="44.0644318896374" lon="11.781723441366175"><ele>608.5</ele><time>2026-04-03T12:28:00.768Z</time></trkpt><trkpt lat="44.06450676795985" lon="11.781561888466394"><ele>610.75</ele><time>2026-04-03T12:28:01.768Z</time></trkpt><trkpt lat="44.06459048735586" lon="11.781406091428272"><ele>613.0</ele><time>2026-04-03T12:28:02.768Z</time></trkpt><trkpt lat="44.06468917355219" lon="11.781256734545735"><ele>613.0</ele><time>2026-04-03T12:28:03.768Z</time></trkpt><trkpt lat="44.064799210054936" lon="11.781119339698845"><ele>613.0</ele><time>2026-04-03T12:28:04.768Z</time></trkpt><trkpt lat="44.06491044643771" lon="11.780981675323204"><ele>613.0</ele><time>2026-04-03T12:28:05.768Z</time></trkpt><trkpt lat="44.06500562722233" lon="11.780818149321513"><ele>613.0</ele><time>2026-04-03T12:28:06.768Z</time></trkpt><trkpt lat="44.065092302192355" lon="11.780635376625138"><ele>610.3333333333334</ele><time>2026-04-03T12:28:07.768Z</time></trkpt><trkpt lat="44.065165570646776" lon="11.780435748144418"><ele>607.6666666666666</ele><time>2026-04-03T12:28:08.768Z</time></trkpt><trkpt lat="44.065245750630304" lon="11.780247613377918"><ele>605.0</ele><time>2026-04-03T12:28:09.768Z</time></trkpt><trkpt lat="44.065330421213254" lon="11.78005012970674"><ele>612.6666666666666</ele><time>2026-04-03T12:28:10.768Z</time></trkpt><trkpt lat="44.06542744687482" lon="11.779859701203229"><ele>620.3333333333334</ele><time>2026-04-03T12:28:11.768Z</time></trkpt><trkpt lat="44.06553233920975" lon="11.779682211143806"><ele>628.0</ele><time>2026-04-03T12:28:12.768Z</time></trkpt><trkpt lat="44.06564908215397" lon="11.779516443704317"><ele>628.0</ele><time>2026-04-03T12:28:13.768Z</time></trkpt><trkpt lat="44.065764201373575" lon="11.779366837935044"><ele>628.0</ele><time>2026-04-03T12:28:14.768Z</time></trkpt><trkpt lat="44.065872665884925" lon="11.77924018220749"><ele>628.0</ele><time>2026-04-03T12:28:15.768Z</time></trkpt><trkpt lat="44.06596759265187" lon="11.779127125493154"><ele>628.0</ele><time>2026-04-03T12:28:16.768Z</time></trkpt><trkpt lat="44.066056468276116" lon="11.77902712335185"><ele>627.0</ele><time>2026-04-03T12:28:17.768Z</time></trkpt><trkpt lat="44.06614995466246" lon="11.778953940640475"><ele>626.0</ele><time>2026-04-03T12:28:18.768Z</time></trkpt><trkpt lat="44.06625235951744" lon="11.77892268969146"><ele>625.0</ele><time>2026-04-03T12:28:19.768Z</time></trkpt><trkpt lat="44.066358766525646" lon="11.778938957393176"><ele>624.0</ele><time>2026-04-03T12:28:20.768Z</time></trkpt><trkpt lat="44.06647395130905" lon="11.778997044945251"><ele>623.0</ele><time>2026-04-03T12:28:21.765Z</time></trkpt><trkpt lat="44.06659988812919" lon="11.77906875392921"><ele>622.6</ele><time>2026-04-03T12:28:22.765Z</time></trkpt><trkpt lat="44.06671462407122" lon="11.77913562942"><ele>622.1999999999999</ele><time>2026-04-03T12:28:23.765Z</time></trkpt><trkpt lat="44.06681664941208" lon="11.779195738593996"><ele>621.8</ele><time>2026-04-03T12:28:24.765Z</time></trkpt><trkpt lat="44.06691102825969" lon="11.779254699726053"><ele>621.4</ele><time>2026-04-03T12:28:25.765Z</time></trkpt><trkpt lat="44.0669951559767" lon="11.77929311249867"><ele>621.0</ele><time>2026-04-03T12:28:26.765Z</time></trkpt><trkpt lat="44.06707499882277" lon="11.77931356468479"><ele>621.0</ele><time>2026-04-03T12:28:27.765Z</time></trkpt><trkpt lat="44.06716047995337" lon="11.779278125004334"><ele>621.0</ele><time>2026-04-03T12:28:29.764Z</time></trkpt><trkpt lat="44.06715411816562" lon="11.77918940659317"><ele>621.0</ele><time>2026-04-03T12:28:31.765Z</time></trkpt><trkpt lat="44.06709009785807" lon="11.779144525857152"><ele>621.0</ele><time>2026-04-03T12:28:43.764Z</time></trkpt><trkpt lat="44.06700545941547" lon="11.779145039453837"><ele>621.0</ele><time>2026-04-03T12:30:15.764Z</time></trkpt><trkpt lat="44.06690130894586" lon="11.779078529874575"><ele>621.0</ele><time>2026-04-03T12:30:17.764Z</time></trkpt><trkpt lat="44.06682938478007" lon="11.779032363653016"><ele>620.9999999999999</ele><time>2026-04-03T12:30:18.764Z</time></trkpt><trkpt lat="44.066761851692085" lon="11.778981947592028"><ele>621.0</ele><time>2026-04-03T12:30:19.764Z</time></trkpt><trkpt lat="44.06670338547582" lon="11.778935810857714"><ele>621.0</ele><time>2026-04-03T12:30:20.764Z</time></trkpt><trkpt lat="44.06664573479867" lon="11.778881552969203"><ele>621.0</ele><time>2026-04-03T12:30:21.764Z</time></trkpt><trkpt lat="44.06658437062711" lon="11.778824919206947"><ele>621.0</ele><time>2026-04-03T12:30:22.764Z</time></trkpt><trkpt lat="44.06652649939951" lon="11.778767806068416"><ele>620.9999999999999</ele><time>2026-04-03T12:30:23.764Z</time></trkpt><trkpt lat="44.06646296633882" lon="11.778703775579666"><ele>621.0</ele><time>2026-04-03T12:30:24.764Z</time></trkpt><trkpt lat="44.06639473049154" lon="11.778648119488226"><ele>621.3333333333334</ele><time>2026-04-03T12:30:25.764Z</time></trkpt><trkpt lat="44.066320847302016" lon="11.778612887759069"><ele>621.6666666666666</ele><time>2026-04-03T12:30:26.764Z</time></trkpt><trkpt lat="44.06624479467131" lon="11.778585604979684"><ele>622.0</ele><time>2026-04-03T12:30:27.762Z</time></trkpt><trkpt lat="44.06616633815251" lon="11.778574489520407"><ele>622.3333333333333</ele><time>2026-04-03T12:30:28.762Z</time></trkpt><trkpt lat="44.0660808955515" lon="11.778575117028147"><ele>622.6666666666666</ele><time>2026-04-03T12:30:29.762Z</time></trkpt><trkpt lat="44.06598944990833" lon="11.778582452125006"><ele>623.0</ele><time>2026-04-03T12:30:30.762Z</time></trkpt><trkpt lat="44.06589437254404" lon="11.778600400643349"><ele>623.0</ele><time>2026-04-03T12:30:31.762Z</time></trkpt><trkpt lat="44.06580174801128" lon="11.778624559617056"><ele>623.0</ele><time>2026-04-03T12:30:32.762Z</time></trkpt><trkpt lat="44.06571127526179" lon="11.778650205982592"><ele>623.0</ele><time>2026-04-03T12:30:33.761Z</time></trkpt><trkpt lat="44.065622855944085" lon="11.778679402761991"><ele>623.0</ele><time>2026-04-03T12:30:34.762Z</time></trkpt><trkpt lat="44.065536266615034" lon="11.77871324339882"><ele>623.0</ele><time>2026-04-03T12:30:35.762Z</time></trkpt><trkpt lat="44.0654479692206" lon="11.778744649784059"><ele>628.25</ele><time>2026-04-03T12:30:36.761Z</time></trkpt><trkpt lat="44.06527081871328" lon="11.778808804140464"><ele>633.5</ele><time>2026-04-03T12:30:38.762Z</time></trkpt><trkpt lat="44.06517683603316" lon="11.778841697547717"><ele>638.75</ele><time>2026-04-03T12:30:39.761Z</time></trkpt><trkpt lat="44.06508775512434" lon="11.778883780378294"><ele>644.0</ele><time>2026-04-03T12:30:40.762Z</time></trkpt><trkpt lat="44.065012573563976" lon="11.778928707562354"><ele>644.0</ele><time>2026-04-03T12:30:41.762Z</time></trkpt><trkpt lat="44.06495096394709" lon="11.778971119303195"><ele>644.0</ele><time>2026-04-03T12:30:42.762Z</time></trkpt><trkpt lat="44.06484429719085" lon="11.779038962684854"><ele>644.0</ele><time>2026-04-03T12:30:44.762Z</time></trkpt><trkpt lat="44.064787319392515" lon="11.779080558233225"><ele>644.0</ele><time>2026-04-03T12:30:45.762Z</time></trkpt><trkpt lat="44.0647276359146" lon="11.779123041873161"><ele>644.0</ele><time>2026-04-03T12:30:46.762Z</time></trkpt><trkpt lat="44.06463851257733" lon="11.779180197973126"><ele>644.0</ele><time>2026-04-03T12:30:48.762Z</time></trkpt><trkpt lat="44.064574058323295" lon="11.779229769000759"><ele>644.0</ele><time>2026-04-03T12:30:52.762Z</time></trkpt><trkpt lat="44.06463860107539" lon="11.779221662986135"><ele>644.0</ele><time>2026-04-03T12:31:12.761Z</time></trkpt><trkpt lat="44.064706036605614" lon="11.779152204586174"><ele>644.0</ele><time>2026-04-03T12:31:14.761Z</time></trkpt><trkpt lat="44.06479738809247" lon="11.779080598283226"><ele>644.0</ele><time>2026-04-03T12:31:16.761Z</time></trkpt><trkpt lat="44.06488495479589" lon="11.779008265103625"><ele>644.0</ele><time>2026-04-03T12:31:17.761Z</time></trkpt><trkpt lat="44.06494427492322" lon="11.778960886823516"><ele>644.0</ele><time>2026-04-03T12:31:18.761Z</time></trkpt><trkpt lat="44.065015167310584" lon="11.77891453513833"><ele>644.0</ele><time>2026-04-03T12:31:19.761Z</time></trkpt><trkpt lat="44.0650840047014" lon="11.778865148028547"><ele>644.0</ele><time>2026-04-03T12:31:20.761Z</time></trkpt><trkpt lat="44.06516089261806" lon="11.77881781449635"><ele>644.0</ele><time>2026-04-03T12:31:21.761Z</time></trkpt><trkpt lat="44.06525503853254" lon="11.778785108928142"><ele>644.0</ele><time>2026-04-03T12:31:22.761Z</time></trkpt><trkpt lat="44.06536654596314" lon="11.778758985154456"><ele>644.0</ele><time>2026-04-03T12:31:23.761Z</time></trkpt><trkpt lat="44.06547792115511" lon="11.778720152287761"><ele>644.0</ele><time>2026-04-03T12:31:24.761Z</time></trkpt><trkpt lat="44.06558780441218" lon="11.778677166891233"><ele>644.0</ele><time>2026-04-03T12:31:25.761Z</time></trkpt><trkpt lat="44.065694780573224" lon="11.778633587520016"><ele>644.0</ele><time>2026-04-03T12:31:26.761Z</time></trkpt><trkpt lat="44.06580291518249" lon="11.778599260606361"><ele>644.0</ele><time>2026-04-03T12:31:27.761Z</time></trkpt><trkpt lat="44.06591544338468" lon="11.77857656351446"><ele>638.75</ele><time>2026-04-03T12:31:28.761Z</time></trkpt><trkpt lat="44.06602346434172" lon="11.778562753110439"><ele>633.5</ele><time>2026-04-03T12:31:29.761Z</time></trkpt><trkpt lat="44.0661332645855" lon="11.77856017971672"><ele>628.25</ele><time>2026-04-03T12:31:30.761Z</time></trkpt><trkpt lat="44.06625163341638" lon="11.778575803306298"><ele>623.0</ele><time>2026-04-03T12:31:31.761Z</time></trkpt><trkpt lat="44.06647324863057" lon="11.77870187492884"><ele>623.0</ele><time>2026-04-03T12:31:33.761Z</time></trkpt><trkpt lat="44.06657128779518" lon="11.778794137704368"><ele>623.0</ele><time>2026-04-03T12:31:34.761Z</time></trkpt><trkpt lat="44.06666811482377" lon="11.778881198082361"><ele>623.0</ele><time>2026-04-03T12:31:35.761Z</time></trkpt><trkpt lat="44.06675823224429" lon="11.778953540435039"><ele>623.0</ele><time>2026-04-03T12:31:36.761Z</time></trkpt><trkpt lat="44.066842782933826" lon="11.779011301339363"><ele>623.0</ele><time>2026-04-03T12:31:37.761Z</time></trkpt><trkpt lat="44.06691660023456" lon="11.779059735809518"><ele>622.6666666666666</ele><time>2026-04-03T12:31:38.761Z</time></trkpt><trkpt lat="44.066986538022" lon="11.779116090216162"><ele>622.3333333333333</ele><time>2026-04-03T12:31:39.761Z</time></trkpt><trkpt lat="44.06704673770296" lon="11.779149205907482"><ele>622.0</ele><time>2026-04-03T12:31:40.761Z</time></trkpt><trkpt lat="44.06714037294136" lon="11.77910863086266"><ele>621.6666666666666</ele><time>2026-04-03T12:31:42.761Z</time></trkpt><trkpt lat="44.06714890456438" lon="11.778972299583613"><ele>621.3333333333334</ele><time>2026-04-03T12:31:44.761Z</time></trkpt><trkpt lat="44.06710016274437" lon="11.778862461017445"><ele>621.0</ele><time>2026-04-03T12:31:46.761Z</time></trkpt><trkpt lat="44.06704965682016" lon="11.778808076898958"><ele>621.0</ele><time>2026-04-03T12:31:47.761Z</time></trkpt><trkpt lat="44.06698934412951" lon="11.778748357032056"><ele>621.0</ele><time>2026-04-03T12:31:48.761Z</time></trkpt><trkpt lat="44.066917555147285" lon="11.77867010148623"><ele>621.0</ele><time>2026-04-03T12:31:49.761Z</time></trkpt><trkpt lat="44.06685690731516" lon="11.778585992612104"><ele>621.0</ele><time>2026-04-03T12:31:50.761Z</time></trkpt><trkpt lat="44.06679413494512" lon="11.778487274890256"><ele>621.0</ele><time>2026-04-03T12:31:51.761Z</time></trkpt><trkpt lat="44.06673301751867" lon="11.77839440960441"><ele>621.0</ele><time>2026-04-03T12:31:52.761Z</time></trkpt><trkpt lat="44.06666347285071" lon="11.77831333627393"><ele>623.3333333333334</ele><time>2026-04-03T12:31:53.761Z</time></trkpt><trkpt lat="44.0665828464364" lon="11.778257498931467"><ele>625.6666666666666</ele><time>2026-04-03T12:31:54.761Z</time></trkpt><trkpt lat="44.06650180166618" lon="11.778227188559702"><ele>628.0</ele><time>2026-04-03T12:31:55.761Z</time></trkpt><trkpt lat="44.066417971079815" lon="11.778190167471747"><ele>630.3333333333333</ele><time>2026-04-03T12:31:56.761Z</time></trkpt><trkpt lat="44.06633043279028" lon="11.778142776837143"><ele>632.6666666666666</ele><time>2026-04-03T12:31:57.761Z</time></trkpt><trkpt lat="44.06625212509635" lon="11.778090412708881"><ele>635.0</ele><time>2026-04-03T12:31:58.761Z</time></trkpt><trkpt lat="44.06618084394505" lon="11.77802105987737"><ele>635.0</ele><time>2026-04-03T12:31:59.761Z</time></trkpt><trkpt lat="44.06611553370759" lon="11.777953664910688"><ele>635.0</ele><time>2026-04-03T12:32:00.761Z</time></trkpt><trkpt lat="44.06604823088778" lon="11.777876794480079"><ele>635.0</ele><time>2026-04-03T12:32:01.761Z</time></trkpt><trkpt lat="44.06598077414058" lon="11.777805407833224"><ele>635.0</ele><time>2026-04-03T12:32:02.761Z</time></trkpt><trkpt lat="44.06591286022349" lon="11.777731344418461"><ele>635.0</ele><time>2026-04-03T12:32:03.761Z</time></trkpt><trkpt lat="44.06586536027464" lon="11.77765913504626"><ele>635.0</ele><time>2026-04-03T12:32:04.761Z</time></trkpt><trkpt lat="44.065804801009044" lon="11.77751867366796"><ele>635.0</ele><time>2026-04-03T12:32:06.761Z</time></trkpt><trkpt lat="44.06578321976827" lon="11.777433140837097"><ele>635.0</ele><time>2026-04-03T12:32:07.761Z</time></trkpt><trkpt lat="44.065741371468484" lon="11.777267215041714"><ele>635.0</ele><time>2026-04-03T12:32:09.761Z</time></trkpt><trkpt lat="44.06565370223827" lon="11.777192274558333"><ele>635.0</ele><time>2026-04-03T12:32:11.761Z</time></trkpt><trkpt lat="44.06553371599226" lon="11.777191676383001"><ele>635.0</ele><time>2026-04-03T12:32:13.761Z</time></trkpt><trkpt lat="44.0654684235956" lon="11.777199329486244"><ele>635.0</ele><time>2026-04-03T12:32:14.761Z</time></trkpt><trkpt lat="44.06534930245252" lon="11.777184128392232"><ele>635.0</ele><time>2026-04-03T12:32:16.761Z</time></trkpt><trkpt lat="44.06523713863527" lon="11.777120216882997"><ele>635.0</ele><time>2026-04-03T12:32:18.761Z</time></trkpt><trkpt lat="44.0651791882876" lon="11.777061037440172"><ele>635.0</ele><time>2026-04-03T12:32:19.761Z</time></trkpt><trkpt lat="44.0651085804058" lon="11.776968530852198"><ele>635.0</ele><time>2026-04-03T12:32:20.761Z</time></trkpt><trkpt lat="44.065024618655386" lon="11.776863907035372"><ele>633.8</ele><time>2026-04-03T12:32:21.761Z</time></trkpt><trkpt lat="44.06493927596127" lon="11.776761006754151"><ele>632.6</ele><time>2026-04-03T12:32:22.761Z</time></trkpt><trkpt lat="44.06485234829429" lon="11.776668127996972"><ele>631.4</ele><time>2026-04-03T12:32:23.761Z</time></trkpt><trkpt lat="44.064758250189186" lon="11.776596088187151"><ele>630.2</ele><time>2026-04-03T12:32:24.761Z</time></trkpt><trkpt lat="44.0646678255066" lon="11.776558110468113"><ele>629.0</ele><time>2026-04-03T12:32:25.761Z</time></trkpt><trkpt lat="44.06458741561499" lon="11.776522284267129"><ele>629.0</ele><time>2026-04-03T12:32:26.761Z</time></trkpt><trkpt lat="44.06451164577714" lon="11.776449260443625"><ele>629.0</ele><time>2026-04-03T12:32:27.761Z</time></trkpt><trkpt lat="44.06445437963802" lon="11.776348051048704"><ele>629.0</ele><time>2026-04-03T12:32:28.761Z</time></trkpt><trkpt lat="44.06439661890511" lon="11.776245896263077"><ele>629.0</ele><time>2026-04-03T12:32:29.761Z</time></trkpt><trkpt lat="44.06434246319473" lon="11.776161188194155"><ele>629.0</ele><time>2026-04-03T12:32:30.761Z</time></trkpt><trkpt lat="44.06426213758053" lon="11.776095547292448"><ele>629.0</ele><time>2026-04-03T12:32:31.761Z</time></trkpt><trkpt lat="44.06417550421356" lon="11.776058649187462"><ele>629.0</ele><time>2026-04-03T12:32:32.761Z</time></trkpt><trkpt lat="44.064099746689806" lon="11.77602591031941"><ele>629.0</ele><time>2026-04-03T12:32:33.759Z</time></trkpt><trkpt lat="44.06404050816947" lon="11.77596226980509"><ele>629.0</ele><time>2026-04-03T12:32:34.759Z</time></trkpt><trkpt lat="44.06400089343819" lon="11.775882857044763"><ele>629.0</ele><time>2026-04-03T12:32:35.759Z</time></trkpt><trkpt lat="44.06399402946241" lon="11.775777980303962"><ele>629.0</ele><time>2026-04-03T12:32:36.758Z</time></trkpt><trkpt lat="44.06400494752391" lon="11.775659794264643"><ele>630.0</ele><time>2026-04-03T12:32:37.759Z</time></trkpt><trkpt lat="44.06400320549086" lon="11.775526539398749"><ele>631.0</ele><time>2026-04-03T12:32:38.759Z</time></trkpt><trkpt lat="44.063989282145535" lon="11.775382205328444"><ele>632.0</ele><time>2026-04-03T12:32:39.759Z</time></trkpt><trkpt lat="44.063966754645776" lon="11.775239030673351"><ele>633.0</ele><time>2026-04-03T12:32:40.759Z</time></trkpt><trkpt lat="44.06394072048634" lon="11.775135686043939"><ele>634.0</ele><time>2026-04-03T12:32:41.759Z</time></trkpt><trkpt lat="44.06390511701938" lon="11.775048601048999"><ele>630.4</ele><time>2026-04-03T12:32:42.758Z</time></trkpt><trkpt lat="44.06383596013388" lon="11.774929492584315"><ele>626.8</ele><time>2026-04-03T12:32:44.758Z</time></trkpt><trkpt lat="44.06377260948377" lon="11.77481020848034"><ele>623.2</ele><time>2026-04-03T12:32:46.759Z</time></trkpt><trkpt lat="44.063706869853306" lon="11.774697611727914"><ele>619.6</ele><time>2026-04-03T12:32:48.759Z</time></trkpt><trkpt lat="44.063600537679505" lon="11.77459703409583"><ele>616.0</ele><time>2026-04-03T12:32:50.759Z</time></trkpt><trkpt lat="44.06354352298225" lon="11.774517015838816"><ele>616.0</ele><time>2026-04-03T12:32:51.759Z</time></trkpt><trkpt lat="44.06351184532463" lon="11.774417451972777"><ele>616.0</ele><time>2026-04-03T12:32:52.759Z</time></trkpt><trkpt lat="44.063487952658726" lon="11.774292537842749"><ele>616.0</ele><time>2026-04-03T12:32:53.759Z</time></trkpt><trkpt lat="44.06346342143088" lon="11.774177263050092"><ele>616.0</ele><time>2026-04-03T12:32:54.759Z</time></trkpt><trkpt lat="44.06342246794309" lon="11.774065826336022"><ele>616.0</ele><time>2026-04-03T12:32:55.759Z</time></trkpt><trkpt lat="44.063376737165505" lon="11.77396905283359"><ele>616.0</ele><time>2026-04-03T12:32:56.759Z</time></trkpt><trkpt lat="44.06333590555495" lon="11.773891865946753"><ele>613.4</ele><time>2026-04-03T12:32:57.759Z</time></trkpt><trkpt lat="44.06332374820025" lon="11.77380113275923"><ele>610.8</ele><time>2026-04-03T12:32:58.759Z</time></trkpt><trkpt lat="44.06339986603441" lon="11.773676192639313"><ele>608.1999999999999</ele><time>2026-04-03T12:33:00.759Z</time></trkpt><trkpt lat="44.06346825979836" lon="11.773661550739755"><ele>605.6</ele><time>2026-04-03T12:33:01.759Z</time></trkpt><trkpt lat="44.063559913506204" lon="11.773663583111004"><ele>603.0</ele><time>2026-04-03T12:33:02.759Z</time></trkpt><trkpt lat="44.06366655319071" lon="11.77366327483984"><ele>603.0</ele><time>2026-04-03T12:33:03.759Z</time></trkpt><trkpt lat="44.06378627125649" lon="11.773646436550733"><ele>603.0</ele><time>2026-04-03T12:33:04.759Z</time></trkpt><trkpt lat="44.06390782740902" lon="11.77362816260182"><ele>603.0</ele><time>2026-04-03T12:33:05.759Z</time></trkpt><trkpt lat="44.06402562838334" lon="11.77359527254174"><ele>603.0</ele><time>2026-04-03T12:33:06.759Z</time></trkpt><trkpt lat="44.06413800674412" lon="11.773574882845928"><ele>599.0</ele><time>2026-04-03T12:33:07.759Z</time></trkpt><trkpt lat="44.06423788813519" lon="11.773587547010601"><ele>595.0</ele><time>2026-04-03T12:33:08.759Z</time></trkpt><trkpt lat="44.064329342044665" lon="11.77360987132747"><ele>591.0</ele><time>2026-04-03T12:33:09.759Z</time></trkpt><trkpt lat="44.06440903766247" lon="11.773606856469769"><ele>587.0</ele><time>2026-04-03T12:33:10.759Z</time></trkpt><trkpt lat="44.064482487592336" lon="11.773570638500855"><ele>583.0</ele><time>2026-04-03T12:33:11.759Z</time></trkpt><trkpt lat="44.06452049849835" lon="11.773490079878309"><ele>579.0</ele><time>2026-04-03T12:33:12.759Z</time></trkpt><trkpt lat="44.064534882778034" lon="11.773377721614258"><ele>579.0</ele><time>2026-04-03T12:33:13.758Z</time></trkpt><trkpt lat="44.06453138787483" lon="11.773238956586212"><ele>579.0</ele><time>2026-04-03T12:33:14.758Z</time></trkpt><trkpt lat="44.06452127476593" lon="11.773073935587114"><ele>579.0</ele><time>2026-04-03T12:33:15.758Z</time></trkpt><trkpt lat="44.06451143968874" lon="11.772903716064281"><ele>579.0</ele><time>2026-04-03T12:33:16.758Z</time></trkpt><trkpt lat="44.06449029606948" lon="11.772731426337515"><ele>578.0</ele><time>2026-04-03T12:33:17.758Z</time></trkpt><trkpt lat="44.06447544034266" lon="11.772560968249307"><ele>577.0</ele><time>2026-04-03T12:33:18.758Z</time></trkpt><trkpt lat="44.064465240945594" lon="11.772419603976095"><ele>576.0</ele><time>2026-04-03T12:33:19.758Z</time></trkpt><trkpt lat="44.06445882185968" lon="11.772306358024895"><ele>575.0</ele><time>2026-04-03T12:33:20.758Z</time></trkpt><trkpt lat="44.06446104257725" lon="11.772201416114669"><ele>574.0</ele><time>2026-04-03T12:33:21.758Z</time></trkpt><trkpt lat="44.06446960687664" lon="11.772097428562322"><ele>574.0</ele><time>2026-04-03T12:33:22.758Z</time></trkpt><trkpt lat="44.064489009347746" lon="11.771992109203575"><ele>574.0</ele><time>2026-04-03T12:33:23.758Z</time></trkpt><trkpt lat="44.064524987832414" lon="11.771877954692075"><ele>574.0</ele><time>2026-04-03T12:33:24.758Z</time></trkpt><trkpt lat="44.06458273187494" lon="11.771784850826847"><ele>574.0</ele><time>2026-04-03T12:33:25.758Z</time></trkpt><trkpt lat="44.06465005285627" lon="11.77173244535569"><ele>574.0</ele><time>2026-04-03T12:33:26.758Z</time></trkpt><trkpt lat="44.064728807496934" lon="11.771705601450087"><ele>574.0</ele><time>2026-04-03T12:33:27.758Z</time></trkpt><trkpt lat="44.064808825270696" lon="11.771706987780147"><ele>574.1666666666667</ele><time>2026-04-03T12:33:28.758Z</time></trkpt><trkpt lat="44.06490024488749" lon="11.771721170956294"><ele>574.3333333333334</ele><time>2026-04-03T12:33:29.758Z</time></trkpt><trkpt lat="44.06498875471772" lon="11.77173408800108"><ele>574.5</ele><time>2026-04-03T12:33:30.758Z</time></trkpt><trkpt lat="44.06505344759101" lon="11.77173950128829"><ele>574.6666666666666</ele><time>2026-04-03T12:33:31.758Z</time></trkpt><trkpt lat="44.065123572614134" lon="11.771705893520044"><ele>574.8333333333333</ele><time>2026-04-03T12:33:32.758Z</time></trkpt><trkpt lat="44.0651831761882" lon="11.771652612831675"><ele>575.0</ele><time>2026-04-03T12:33:33.758Z</time></trkpt><trkpt lat="44.0652565635491" lon="11.771549547925078"><ele>571.8</ele><time>2026-04-03T12:33:35.758Z</time></trkpt><trkpt lat="44.06532663753028" lon="11.771467915872387"><ele>568.6</ele><time>2026-04-03T12:33:37.758Z</time></trkpt><trkpt lat="44.065421093745044" lon="11.771397531886175"><ele>565.4</ele><time>2026-04-03T12:33:39.758Z</time></trkpt><trkpt lat="44.06553546155909" lon="11.771384514297264"><ele>562.2</ele><time>2026-04-03T12:33:41.758Z</time></trkpt><trkpt lat="44.06564534472037" lon="11.771321549533562"><ele>559.0</ele><time>2026-04-03T12:33:43.758Z</time></trkpt><trkpt lat="44.06570315762316" lon="11.771250665562468"><ele>559.0</ele><time>2026-04-03T12:33:44.758Z</time></trkpt><trkpt lat="44.06576910599227" lon="11.771162230991713"><ele>559.0</ele><time>2026-04-03T12:33:45.758Z</time></trkpt><trkpt lat="44.06583361452936" lon="11.77108416807301"><ele>559.0</ele><time>2026-04-03T12:33:46.758Z</time></trkpt><trkpt lat="44.065872989201836" lon="11.770998741633731"><ele>559.0</ele><time>2026-04-03T12:33:47.758Z</time></trkpt><trkpt lat="44.06590093296355" lon="11.770902471229265"><ele>559.0</ele><time>2026-04-03T12:33:48.758Z</time></trkpt><trkpt lat="44.065895349278655" lon="11.770810035765049"><ele>559.0</ele><time>2026-04-03T12:33:49.758Z</time></trkpt><trkpt lat="44.06587596072251" lon="11.770721166034916"><ele>556.2</ele><time>2026-04-03T12:33:50.758Z</time></trkpt><trkpt lat="44.06586393340945" lon="11.770611107230248"><ele>553.4</ele><time>2026-04-03T12:33:51.758Z</time></trkpt><trkpt lat="44.065889737514674" lon="11.770486040690379"><ele>550.6</ele><time>2026-04-03T12:33:52.758Z</time></trkpt><trkpt lat="44.06593987811612" lon="11.770374851015443"><ele>547.8</ele><time>2026-04-03T12:33:53.758Z</time></trkpt><trkpt lat="44.06600862821254" lon="11.770285313319574"><ele>545.0</ele><time>2026-04-03T12:33:54.758Z</time></trkpt><trkpt lat="44.06607726500788" lon="11.77020017234297"><ele>545.6</ele><time>2026-04-03T12:33:55.758Z</time></trkpt><trkpt lat="44.06613222317459" lon="11.7701010662543"><ele>546.2</ele><time>2026-04-03T12:33:56.758Z</time></trkpt><trkpt lat="44.06616513362424" lon="11.7699971169569"><ele>546.8</ele><time>2026-04-03T12:33:57.758Z</time></trkpt><trkpt lat="44.0661827509162" lon="11.769885981276259"><ele>547.4</ele><time>2026-04-03T12:33:58.758Z</time></trkpt><trkpt lat="44.06619439586575" lon="11.769753209307346"><ele>548.0</ele><time>2026-04-03T12:33:59.758Z</time></trkpt><trkpt lat="44.06620860566748" lon="11.769605669928117"><ele>548.0</ele><time>2026-04-03T12:34:00.758Z</time></trkpt><trkpt lat="44.06622530693892" lon="11.769462260047089"><ele>548.0</ele><time>2026-04-03T12:34:01.758Z</time></trkpt><trkpt lat="44.06624793316885" lon="11.769347821650108"><ele>548.0</ele><time>2026-04-03T12:34:02.758Z</time></trkpt><trkpt lat="44.066283358155154" lon="11.769251299755279"><ele>548.0</ele><time>2026-04-03T12:34:03.758Z</time></trkpt><trkpt lat="44.066320152362664" lon="11.769160017360457"><ele>548.0</ele><time>2026-04-03T12:34:04.758Z</time></trkpt><trkpt lat="44.066378920219385" lon="11.769080702150392"><ele>548.0</ele><time>2026-04-03T12:34:05.758Z</time></trkpt><trkpt lat="44.06642636788384" lon="11.769014702418787"><ele>548.5714285714287</ele><time>2026-04-03T12:34:06.758Z</time></trkpt><trkpt lat="44.066478923126525" lon="11.76895475795953"><ele>549.1428571428571</ele><time>2026-04-03T12:34:07.758Z</time></trkpt><trkpt lat="44.066530974105014" lon="11.76889439457511"><ele>549.7142857142858</ele><time>2026-04-03T12:34:08.758Z</time></trkpt><trkpt lat="44.06657578658396" lon="11.768826108938043"><ele>550.2857142857143</ele><time>2026-04-03T12:34:09.758Z</time></trkpt><trkpt lat="44.06661958899769" lon="11.768752888843814"><ele>550.8571428571429</ele><time>2026-04-03T12:34:10.758Z</time></trkpt><trkpt lat="44.06665123831056" lon="11.768664287865631"><ele>551.4285714285714</ele><time>2026-04-03T12:34:11.758Z</time></trkpt><trkpt lat="44.06667857588349" lon="11.768566982787457"><ele>552.0</ele><time>2026-04-03T12:34:12.758Z</time></trkpt><trkpt lat="44.06669867169883" lon="11.76846153702058"><ele>546.8000000000001</ele><time>2026-04-03T12:34:13.758Z</time></trkpt><trkpt lat="44.06671649184401" lon="11.768348384960039"><ele>541.6</ele><time>2026-04-03T12:34:14.758Z</time></trkpt><trkpt lat="44.066739635520065" lon="11.768217261531952"><ele>536.4000000000001</ele><time>2026-04-03T12:34:15.758Z</time></trkpt><trkpt lat="44.06676035123235" lon="11.768066794964987"><ele>531.2</ele><time>2026-04-03T12:34:16.758Z</time></trkpt><trkpt lat="44.066779605738574" lon="11.767899418700647"><ele>526.0</ele><time>2026-04-03T12:34:17.758Z</time></trkpt><trkpt lat="44.06679630969066" lon="11.767740334715821"><ele>526.4</ele><time>2026-04-03T12:34:18.758Z</time></trkpt><trkpt lat="44.06681135271166" lon="11.76759688664107"><ele>526.8</ele><time>2026-04-03T12:34:19.758Z</time></trkpt><trkpt lat="44.066822789587825" lon="11.767470909782789"><ele>527.1999999999999</ele><time>2026-04-03T12:34:20.758Z</time></trkpt><trkpt lat="44.06683162830891" lon="11.76737492256101"><ele>527.6</ele><time>2026-04-03T12:34:21.758Z</time></trkpt><trkpt lat="44.066883188705496" lon="11.76721816764728"><ele>528.0</ele><time>2026-04-03T12:34:23.758Z</time></trkpt><trkpt lat="44.06692963148533" lon="11.767147474678907"><ele>528.0</ele><time>2026-04-03T12:34:24.758Z</time></trkpt><trkpt lat="44.066979627361135" lon="11.767081882888393"><ele>528.0</ele><time>2026-04-03T12:34:25.758Z</time></trkpt><trkpt lat="44.06702639705544" lon="11.76701897139443"><ele>528.0</ele><time>2026-04-03T12:34:26.758Z</time></trkpt><trkpt lat="44.06707848302154" lon="11.76696006468551"><ele>528.0</ele><time>2026-04-03T12:34:27.758Z</time></trkpt><trkpt lat="44.067136264136614" lon="11.76688314484175"><ele>528.0</ele><time>2026-04-03T12:34:28.758Z</time></trkpt><trkpt lat="44.067207548582175" lon="11.766790159565236"><ele>528.0</ele><time>2026-04-03T12:34:29.758Z</time></trkpt><trkpt lat="44.06728139956738" lon="11.766686706352246"><ele>529.1999999999999</ele><time>2026-04-03T12:34:30.758Z</time></trkpt><trkpt lat="44.06735550610821" lon="11.76657480111438"><ele>530.4</ele><time>2026-04-03T12:34:31.758Z</time></trkpt><trkpt lat="44.06741934249352" lon="11.766467467701352"><ele>531.5999999999999</ele><time>2026-04-03T12:34:32.758Z</time></trkpt><trkpt lat="44.06747665660446" lon="11.766362116223661"><ele>532.8</ele><time>2026-04-03T12:34:33.758Z</time></trkpt><trkpt lat="44.06752625856039" lon="11.76626223594293"><ele>534.0</ele><time>2026-04-03T12:34:34.758Z</time></trkpt><trkpt lat="44.06756657843013" lon="11.766172564318586"><ele>532.5</ele><time>2026-04-03T12:34:35.758Z</time></trkpt><trkpt lat="44.06760101243094" lon="11.766088350510044"><ele>531.0</ele><time>2026-04-03T12:34:36.758Z</time></trkpt><trkpt lat="44.067673183491785" lon="11.765955277590693"><ele>529.5</ele><time>2026-04-03T12:34:38.758Z</time></trkpt><trkpt lat="44.067713498917996" lon="11.765880662912382"><ele>528.0</ele><time>2026-04-03T12:34:39.756Z</time></trkpt><trkpt lat="44.06775415084238" lon="11.765804964961154"><ele>526.5</ele><time>2026-04-03T12:34:40.756Z</time></trkpt><trkpt lat="44.067807744467835" lon="11.765712234594666"><ele>525.0</ele><time>2026-04-03T12:34:41.756Z</time></trkpt><trkpt lat="44.06786621322434" lon="11.765631780005345"><ele>525.0</ele><time>2026-04-03T12:34:42.756Z</time></trkpt><trkpt lat="44.06793427020337" lon="11.76557019531413"><ele>525.0</ele><time>2026-04-03T12:34:43.756Z</time></trkpt><trkpt lat="44.06801297410456" lon="11.765515377579613"><ele>525.0</ele><time>2026-04-03T12:34:44.756Z</time></trkpt><trkpt lat="44.06809856740085" lon="11.765473657535123"><ele>525.0</ele><time>2026-04-03T12:34:45.756Z</time></trkpt><trkpt lat="44.06818382281977" lon="11.76543070119238"><ele>525.0</ele><time>2026-04-03T12:34:46.756Z</time></trkpt><trkpt lat="44.068268235576426" lon="11.765391600179118"><ele>525.0</ele><time>2026-04-03T12:34:47.756Z</time></trkpt><trkpt lat="44.0683567189357" lon="11.765349761185524"><ele>522.8</ele><time>2026-04-03T12:34:48.756Z</time></trkpt><trkpt lat="44.06843616406235" lon="11.765292820821779"><ele>520.6</ele><time>2026-04-03T12:34:49.756Z</time></trkpt><trkpt lat="44.068514286895415" lon="11.765212025674739"><ele>518.4</ele><time>2026-04-03T12:34:50.756Z</time></trkpt><trkpt lat="44.06858201818756" lon="11.765113864809024"><ele>516.2</ele><time>2026-04-03T12:34:51.756Z</time></trkpt><trkpt lat="44.0686543278939" lon="11.765008762894944"><ele>514.0</ele><time>2026-04-03T12:34:52.755Z</time></trkpt><trkpt lat="44.06872490881796" lon="11.764913307156233"><ele>514.0</ele><time>2026-04-03T12:34:53.755Z</time></trkpt><trkpt lat="44.06879891298263" lon="11.76482443831334"><ele>514.0</ele><time>2026-04-03T12:34:54.755Z</time></trkpt><trkpt lat="44.068873367881665" lon="11.764724263154411"><ele>514.0</ele><time>2026-04-03T12:34:55.755Z</time></trkpt><trkpt lat="44.06894249391659" lon="11.764623180368359"><ele>514.0</ele><time>2026-04-03T12:34:56.755Z</time></trkpt><trkpt lat="44.0690189743361" lon="11.764507184056974"><ele>514.0</ele><time>2026-04-03T12:34:57.755Z</time></trkpt><trkpt lat="44.069102654988285" lon="11.764395994351359"><ele>513.2</ele><time>2026-04-03T12:34:58.755Z</time></trkpt><trkpt lat="44.06919155510266" lon="11.764314968432139"><ele>512.4</ele><time>2026-04-03T12:34:59.755Z</time></trkpt><trkpt lat="44.069282706619965" lon="11.764251667823022"><ele>511.6</ele><time>2026-04-03T12:35:00.755Z</time></trkpt><trkpt lat="44.06936852837817" lon="11.764183573226036"><ele>510.8</ele><time>2026-04-03T12:35:01.755Z</time></trkpt><trkpt lat="44.06944096887721" lon="11.764111877246505"><ele>510.0</ele><time>2026-04-03T12:35:02.755Z</time></trkpt><trkpt lat="44.06949764440716" lon="11.764036996635923"><ele>510.0</ele><time>2026-04-03T12:35:03.755Z</time></trkpt><trkpt lat="44.06954547668588" lon="11.763963757556414"><ele>510.0</ele><time>2026-04-03T12:35:04.755Z</time></trkpt><trkpt lat="44.069574992665395" lon="11.763877300800829"><ele>510.0</ele><time>2026-04-03T12:35:05.755Z</time></trkpt><trkpt lat="44.06958486820298" lon="11.763767261441842"><ele>510.0</ele><time>2026-04-03T12:35:06.755Z</time></trkpt><trkpt lat="44.069568283035984" lon="11.763646405182946"><ele>510.0</ele><time>2026-04-03T12:35:07.755Z</time></trkpt><trkpt lat="44.069534364118525" lon="11.76351927533783"><ele>510.0</ele><time>2026-04-03T12:35:08.755Z</time></trkpt><trkpt lat="44.069501948253205" lon="11.763403201074823"><ele>511.8333333333333</ele><time>2026-04-03T12:35:09.755Z</time></trkpt><trkpt lat="44.069490967241734" lon="11.76329039824154"><ele>513.6666666666666</ele><time>2026-04-03T12:35:10.755Z</time></trkpt><trkpt lat="44.069511720442506" lon="11.763171707046771"><ele>515.5</ele><time>2026-04-03T12:35:11.755Z</time></trkpt><trkpt lat="44.06955835985867" lon="11.763077800881446"><ele>517.3333333333333</ele><time>2026-04-03T12:35:12.755Z</time></trkpt><trkpt lat="44.0696303328498" lon="11.763009644666182"><ele>519.1666666666666</ele><time>2026-04-03T12:35:13.755Z</time></trkpt><trkpt lat="44.06971064269706" lon="11.762943024320105"><ele>521.0</ele><time>2026-04-03T12:35:14.755Z</time></trkpt><trkpt lat="44.0697993363942" lon="11.762878870717177"><ele>521.0</ele><time>2026-04-03T12:35:15.755Z</time></trkpt><trkpt lat="44.06989497348958" lon="11.762805281048504"><ele>521.0</ele><time>2026-04-03T12:35:16.755Z</time></trkpt><trkpt lat="44.069990749200294" lon="11.762739373283388"><ele>521.0</ele><time>2026-04-03T12:35:17.755Z</time></trkpt><trkpt lat="44.07009316284849" lon="11.762684264455498"><ele>521.0</ele><time>2026-04-03T12:35:18.755Z</time></trkpt><trkpt lat="44.07018379255463" lon="11.762628229966237"><ele>521.0</ele><time>2026-04-03T12:35:19.755Z</time></trkpt><trkpt lat="44.07027562811728" lon="11.762589481646764"><ele>519.2</ele><time>2026-04-03T12:35:20.755Z</time></trkpt><trkpt lat="44.07036234635365" lon="11.762544668223352"><ele>517.4000000000001</ele><time>2026-04-03T12:35:21.755Z</time></trkpt><trkpt lat="44.07044792882791" lon="11.762495578169544"><ele>515.6</ele><time>2026-04-03T12:35:22.755Z</time></trkpt><trkpt lat="44.07052496655709" lon="11.762415860623927"><ele>513.8000000000001</ele><time>2026-04-03T12:35:23.755Z</time></trkpt><trkpt lat="44.07059216202421" lon="11.76231413173397"><ele>512.0</ele><time>2026-04-03T12:35:24.755Z</time></trkpt><trkpt lat="44.07063965463089" lon="11.76218275394462"><ele>512.0</ele><time>2026-04-03T12:35:25.755Z</time></trkpt><trkpt lat="44.07068230745116" lon="11.762050041647582"><ele>512.0</ele><time>2026-04-03T12:35:26.755Z</time></trkpt><trkpt lat="44.070723220586046" lon="11.76189065792021"><ele>512.0</ele><time>2026-04-03T12:35:27.755Z</time></trkpt><trkpt lat="44.070763379395714" lon="11.761747713693362"><ele>512.0</ele><time>2026-04-03T12:35:28.755Z</time></trkpt><trkpt lat="44.070810648675256" lon="11.76161500933864"><ele>512.0</ele><time>2026-04-03T12:35:29.755Z</time></trkpt><trkpt lat="44.070879557240254" lon="11.761486488052707"><ele>509.8</ele><time>2026-04-03T12:35:30.755Z</time></trkpt><trkpt lat="44.07096702512053" lon="11.761371061510625"><ele>507.6</ele><time>2026-04-03T12:35:31.755Z</time></trkpt><trkpt lat="44.07105073119025" lon="11.761277890373508"><ele>505.40000000000003</ele><time>2026-04-03T12:35:32.755Z</time></trkpt><trkpt lat="44.07113437969227" lon="11.761209042169684"><ele>503.20000000000005</ele><time>2026-04-03T12:35:33.755Z</time></trkpt><trkpt lat="44.07121935394322" lon="11.761167159344412"><ele>501.0</ele><time>2026-04-03T12:35:34.755Z</time></trkpt><trkpt lat="44.07130158339627" lon="11.761150677031997"><ele>501.0</ele><time>2026-04-03T12:35:35.755Z</time></trkpt><trkpt lat="44.071372633174875" lon="11.76115683722542"><ele>501.0</ele><time>2026-04-03T12:35:36.755Z</time></trkpt><trkpt lat="44.07145023431066" lon="11.761172111351208"><ele>501.0</ele><time>2026-04-03T12:35:37.755Z</time></trkpt><trkpt lat="44.071518099996155" lon="11.761139228316807"><ele>501.0</ele><time>2026-04-03T12:35:38.755Z</time></trkpt><trkpt lat="44.071573218557425" lon="11.761049029084548"><ele>501.0</ele><time>2026-04-03T12:35:39.755Z</time></trkpt><trkpt lat="44.07159010977935" lon="11.760940039267068"><ele>501.0</ele><time>2026-04-03T12:35:40.755Z</time></trkpt><trkpt lat="44.071616190013955" lon="11.76080787471562"><ele>501.8</ele><time>2026-04-03T12:35:41.755Z</time></trkpt><trkpt lat="44.07164670969475" lon="11.760667563684102"><ele>502.6</ele><time>2026-04-03T12:35:42.755Z</time></trkpt><trkpt lat="44.0716679044923" lon="11.760561140985628"><ele>503.4</ele><time>2026-04-03T12:35:43.755Z</time></trkpt><trkpt lat="44.07170060855903" lon="11.760461039188284"><ele>504.2</ele><time>2026-04-03T12:35:44.755Z</time></trkpt><trkpt lat="44.07175519277613" lon="11.760371635606408"><ele>505.0</ele><time>2026-04-03T12:35:45.755Z</time></trkpt><trkpt lat="44.07183776567263" lon="11.760283798608715"><ele>505.0</ele><time>2026-04-03T12:35:46.755Z</time></trkpt><trkpt lat="44.071928793727544" lon="11.760209613909348"><ele>505.0</ele><time>2026-04-03T12:35:47.755Z</time></trkpt><trkpt lat="44.07203300910711" lon="11.760164422191773"><ele>505.0</ele><time>2026-04-03T12:35:48.755Z</time></trkpt><trkpt lat="44.07214760056912" lon="11.760132856138739"><ele>505.0</ele><time>2026-04-03T12:35:49.755Z</time></trkpt><trkpt lat="44.07227675896831" lon="11.760110220550192"><ele>506.25</ele><time>2026-04-03T12:35:50.755Z</time></trkpt><trkpt lat="44.07240376985976" lon="11.76008951476973"><ele>507.5</ele><time>2026-04-03T12:35:51.755Z</time></trkpt><trkpt lat="44.07252442513898" lon="11.76005156683113"><ele>508.75</ele><time>2026-04-03T12:35:52.755Z</time></trkpt><trkpt lat="44.07264188261513" lon="11.759983603814986"><ele>510.0</ele><time>2026-04-03T12:35:53.755Z</time></trkpt><trkpt lat="44.07274077025187" lon="11.759892280565413"><ele>510.0</ele><time>2026-04-03T12:35:54.755Z</time></trkpt><trkpt lat="44.07283376703536" lon="11.759803108884318"><ele>510.0</ele><time>2026-04-03T12:35:55.755Z</time></trkpt><trkpt lat="44.072931253459714" lon="11.75974797306906"><ele>510.0</ele><time>2026-04-03T12:35:56.755Z</time></trkpt><trkpt lat="44.073046521576536" lon="11.759745249129436"><ele>510.0</ele><time>2026-04-03T12:35:57.755Z</time></trkpt><trkpt lat="44.0731573704429" lon="11.759766739825665"><ele>510.0</ele><time>2026-04-03T12:35:58.755Z</time></trkpt><trkpt lat="44.073265045935585" lon="11.759785965472947"><ele>508.25</ele><time>2026-04-03T12:35:59.755Z</time></trkpt><trkpt lat="44.07338227107512" lon="11.759763970916032"><ele>506.5</ele><time>2026-04-03T12:36:00.755Z</time></trkpt><trkpt lat="44.07349575265608" lon="11.759713516505373"><ele>504.75</ele><time>2026-04-03T12:36:01.755Z</time></trkpt><trkpt lat="44.07360642867482" lon="11.75964908696867"><ele>503.0</ele><time>2026-04-03T12:36:02.755Z</time></trkpt><trkpt lat="44.07372019174616" lon="11.759568278167835"><ele>503.0</ele><time>2026-04-03T12:36:03.755Z</time></trkpt><trkpt lat="44.073835204662615" lon="11.759483312362097"><ele>503.0</ele><time>2026-04-03T12:36:04.755Z</time></trkpt><trkpt lat="44.07395013165116" lon="11.759384784869752"><ele>503.0</ele><time>2026-04-03T12:36:05.755Z</time></trkpt><trkpt lat="44.07405927317643" lon="11.759286015032401"><ele>503.0</ele><time>2026-04-03T12:36:06.755Z</time></trkpt><trkpt lat="44.074165705649335" lon="11.75917909255265"><ele>503.2</ele><time>2026-04-03T12:36:07.755Z</time></trkpt><trkpt lat="44.07425403998195" lon="11.759072155023887"><ele>503.4</ele><time>2026-04-03T12:36:08.755Z</time></trkpt><trkpt lat="44.07432832687058" lon="11.758964959572959"><ele>503.59999999999997</ele><time>2026-04-03T12:36:09.755Z</time></trkpt><trkpt lat="44.07437171231328" lon="11.758840785354655"><ele>503.79999999999995</ele><time>2026-04-03T12:36:10.755Z</time></trkpt><trkpt lat="44.07439924460835" lon="11.758731896425047"><ele>504.0</ele><time>2026-04-03T12:36:11.755Z</time></trkpt><trkpt lat="44.07441747588396" lon="11.758645130545188"><ele>506.6</ele><time>2026-04-03T12:36:12.755Z</time></trkpt><trkpt lat="44.07448817509925" lon="11.75851351272387"><ele>509.2</ele><time>2026-04-03T12:36:14.755Z</time></trkpt><trkpt lat="44.07458624817838" lon="11.758410970260034"><ele>511.80000000000007</ele><time>2026-04-03T12:36:16.755Z</time></trkpt><trkpt lat="44.07466469066643" lon="11.758317624974403"><ele>514.4</ele><time>2026-04-03T12:36:18.755Z</time></trkpt><trkpt lat="44.07471934711379" lon="11.758199884796767"><ele>517.0</ele><time>2026-04-03T12:36:20.755Z</time></trkpt><trkpt lat="44.07473610887194" lon="11.758029970388153"><ele>517.0</ele><time>2026-04-03T12:36:22.755Z</time></trkpt><trkpt lat="44.074728407089374" lon="11.757916030180287"><ele>517.0</ele><time>2026-04-03T12:36:23.755Z</time></trkpt><trkpt lat="44.074725379013564" lon="11.757789083918476"><ele>517.0</ele><time>2026-04-03T12:36:24.755Z</time></trkpt><trkpt lat="44.07472334770102" lon="11.757662067195534"><ele>517.0</ele><time>2026-04-03T12:36:25.755Z</time></trkpt><trkpt lat="44.074728069605754" lon="11.757541177819462"><ele>517.0</ele><time>2026-04-03T12:36:26.755Z</time></trkpt><trkpt lat="44.07475887427493" lon="11.757415394038777"><ele>517.0</ele><time>2026-04-03T12:36:27.755Z</time></trkpt><trkpt lat="44.07481956206355" lon="11.757303185701245"><ele>515.0</ele><time>2026-04-03T12:36:28.755Z</time></trkpt><trkpt lat="44.07490464287245" lon="11.757180654436555"><ele>513.0</ele><time>2026-04-03T12:36:29.755Z</time></trkpt><trkpt lat="44.0749815310714" lon="11.757054135553997"><ele>511.0</ele><time>2026-04-03T12:36:30.755Z</time></trkpt><trkpt lat="44.075033954742025" lon="11.75691686349781"><ele>509.0</ele><time>2026-04-03T12:36:31.755Z</time></trkpt><trkpt lat="44.07509308556934" lon="11.75678780959034"><ele>509.0</ele><time>2026-04-03T12:36:32.755Z</time></trkpt><trkpt lat="44.07515593155366" lon="11.75665923182213"><ele>509.0</ele><time>2026-04-03T12:36:33.755Z</time></trkpt><trkpt lat="44.07522227419128" lon="11.75654278257226"><ele>509.0</ele><time>2026-04-03T12:36:34.755Z</time></trkpt><trkpt lat="44.07529573967916" lon="11.756442993175575"><ele>509.0</ele><time>2026-04-03T12:36:35.755Z</time></trkpt><trkpt lat="44.075382546593005" lon="11.756349438434059"><ele>509.0</ele><time>2026-04-03T12:36:36.755Z</time></trkpt><trkpt lat="44.07547654111925" lon="11.756256003847614"><ele>509.0</ele><time>2026-04-03T12:36:37.755Z</time></trkpt><trkpt lat="44.075565489121466" lon="11.756151398505338"><ele>509.0</ele><time>2026-04-03T12:36:38.755Z</time></trkpt><trkpt lat="44.07564688405213" lon="11.756039289410745"><ele>509.0</ele><time>2026-04-03T12:36:39.755Z</time></trkpt><trkpt lat="44.07573491818622" lon="11.755927660625465"><ele>509.0</ele><time>2026-04-03T12:36:40.755Z</time></trkpt><trkpt lat="44.07584006847934" lon="11.755820725093457"><ele>505.0</ele><time>2026-04-03T12:36:41.755Z</time></trkpt><trkpt lat="44.07594298210808" lon="11.755711710993674"><ele>501.0</ele><time>2026-04-03T12:36:42.755Z</time></trkpt><trkpt lat="44.07604357920296" lon="11.75561477743621"><ele>497.0</ele><time>2026-04-03T12:36:43.755Z</time></trkpt><trkpt lat="44.076145444860884" lon="11.755517663630263"><ele>493.0</ele><time>2026-04-03T12:36:44.755Z</time></trkpt><trkpt lat="44.07624696346053" lon="11.755437624638581"><ele>493.0</ele><time>2026-04-03T12:36:45.753Z</time></trkpt><trkpt lat="44.076358265557396" lon="11.75536447652165"><ele>492.99999999999994</ele><time>2026-04-03T12:36:46.753Z</time></trkpt><trkpt lat="44.07645371752772" lon="11.755308798107245"><ele>492.99999999999994</ele><time>2026-04-03T12:36:47.753Z</time></trkpt><trkpt lat="44.07654139172101" lon="11.755235751960798"><ele>493.0</ele><time>2026-04-03T12:36:48.753Z</time></trkpt><trkpt lat="44.07661263684684" lon="11.755135559082786"><ele>493.0</ele><time>2026-04-03T12:36:49.753Z</time></trkpt><trkpt lat="44.076653380268546" lon="11.75499847901767"><ele>492.59999999999997</ele><time>2026-04-03T12:36:50.753Z</time></trkpt><trkpt lat="44.07667292069952" lon="11.754847844468088"><ele>492.19999999999993</ele><time>2026-04-03T12:36:51.753Z</time></trkpt><trkpt lat="44.076678446038684" lon="11.754697662649784"><ele>491.8</ele><time>2026-04-03T12:36:52.753Z</time></trkpt><trkpt lat="44.07669339013876" lon="11.754561556049865"><ele>491.4</ele><time>2026-04-03T12:36:53.753Z</time></trkpt><trkpt lat="44.076722192429486" lon="11.754445995391116"><ele>491.0</ele><time>2026-04-03T12:36:54.752Z</time></trkpt><trkpt lat="44.076777214394454" lon="11.754342859007725"><ele>490.6</ele><time>2026-04-03T12:36:55.753Z</time></trkpt><trkpt lat="44.07683799258087" lon="11.75423135031151"><ele>490.20000000000005</ele><time>2026-04-03T12:36:56.753Z</time></trkpt><trkpt lat="44.07688464203841" lon="11.754103558243118"><ele>489.79999999999995</ele><time>2026-04-03T12:36:57.753Z</time></trkpt><trkpt lat="44.076913945636704" lon="11.753967569645683"><ele>489.4</ele><time>2026-04-03T12:36:58.752Z</time></trkpt><trkpt lat="44.07693028703403" lon="11.753834049207594"><ele>489.0</ele><time>2026-04-03T12:36:59.752Z</time></trkpt><trkpt lat="44.076958474417765" lon="11.753710339251038"><ele>489.0</ele><time>2026-04-03T12:37:00.752Z</time></trkpt><trkpt lat="44.07699585047366" lon="11.753583334476765"><ele>489.0</ele><time>2026-04-03T12:37:01.752Z</time></trkpt><trkpt lat="44.07704387063882" lon="11.753443292794964"><ele>489.0</ele><time>2026-04-03T12:37:02.752Z</time></trkpt><trkpt lat="44.07709678066219" lon="11.753304447571134"><ele>489.0</ele><time>2026-04-03T12:37:03.752Z</time></trkpt><trkpt lat="44.07715214592072" lon="11.753156264536456"><ele>489.0</ele><time>2026-04-03T12:37:04.752Z</time></trkpt><trkpt lat="44.077197840443304" lon="11.753016645950517"><ele>487.0</ele><time>2026-04-03T12:37:05.752Z</time></trkpt><trkpt lat="44.077244042578236" lon="11.75287009853905"><ele>485.0</ele><time>2026-04-03T12:37:06.752Z</time></trkpt><trkpt lat="44.077296538112705" lon="11.75272956942469"><ele>483.0</ele><time>2026-04-03T12:37:07.752Z</time></trkpt><trkpt lat="44.07735883199721" lon="11.752574720531895"><ele>481.0</ele><time>2026-04-03T12:37:08.752Z</time></trkpt><trkpt lat="44.07741798724074" lon="11.752433674202834"><ele>483.0</ele><time>2026-04-03T12:37:09.752Z</time></trkpt><trkpt lat="44.07744984092038" lon="11.752295789855804"><ele>485.0</ele><time>2026-04-03T12:37:10.752Z</time></trkpt><trkpt lat="44.07746006205616" lon="11.752173880752904"><ele>487.0</ele><time>2026-04-03T12:37:11.752Z</time></trkpt><trkpt lat="44.077439546461825" lon="11.752035089165172"><ele>489.0</ele><time>2026-04-03T12:37:12.752Z</time></trkpt><trkpt lat="44.07741689121823" lon="11.751908835512458"><ele>491.0</ele><time>2026-04-03T12:37:13.752Z</time></trkpt><trkpt lat="44.077397343520374" lon="11.751782309036567"><ele>490.66666666666663</ele><time>2026-04-03T12:37:14.752Z</time></trkpt><trkpt lat="44.077374489839066" lon="11.751659312447517"><ele>490.3333333333333</ele><time>2026-04-03T12:37:15.752Z</time></trkpt><trkpt lat="44.07737344622169" lon="11.751547601642237"><ele>490.0</ele><time>2026-04-03T12:37:16.752Z</time></trkpt><trkpt lat="44.077402814533784" lon="11.751437203656788"><ele>489.66666666666663</ele><time>2026-04-03T12:37:17.752Z</time></trkpt><trkpt lat="44.07745214608857" lon="11.751330708998191"><ele>489.3333333333333</ele><time>2026-04-03T12:37:18.752Z</time></trkpt><trkpt lat="44.07751514782653" lon="11.751236619144326"><ele>489.0</ele><time>2026-04-03T12:37:19.752Z</time></trkpt><trkpt lat="44.077567531487475" lon="11.751130019092399"><ele>488.0</ele><time>2026-04-03T12:37:20.752Z</time></trkpt><trkpt lat="44.07759603688684" lon="11.750994788531202"><ele>487.0</ele><time>2026-04-03T12:37:21.752Z</time></trkpt><trkpt lat="44.07760525641823" lon="11.750853977725692"><ele>486.0</ele><time>2026-04-03T12:37:22.752Z</time></trkpt><trkpt lat="44.07762221156051" lon="11.750720852218674"><ele>485.0</ele><time>2026-04-03T12:37:23.752Z</time></trkpt><trkpt lat="44.07765679997196" lon="11.75058443882373"><ele>484.0</ele><time>2026-04-03T12:37:24.752Z</time></trkpt><trkpt lat="44.07771783025544" lon="11.750449901740787"><ele>484.0</ele><time>2026-04-03T12:37:25.752Z</time></trkpt><trkpt lat="44.07778267740341" lon="11.75033278196559"><ele>484.0</ele><time>2026-04-03T12:37:26.752Z</time></trkpt><trkpt lat="44.077863180518285" lon="11.750234743417828"><ele>484.0</ele><time>2026-04-03T12:37:27.752Z</time></trkpt><trkpt lat="44.077964533115434" lon="11.75015709924268"><ele>484.0</ele><time>2026-04-03T12:37:28.752Z</time></trkpt><trkpt lat="44.07807782511175" lon="11.750104905942273"><ele>484.0</ele><time>2026-04-03T12:37:29.752Z</time></trkpt><trkpt lat="44.078184563351876" lon="11.750045318159307"><ele>481.4</ele><time>2026-04-03T12:37:30.752Z</time></trkpt><trkpt lat="44.07827799097831" lon="11.749955581600027"><ele>478.79999999999995</ele><time>2026-04-03T12:37:31.752Z</time></trkpt><trkpt lat="44.07836181246956" lon="11.749854474580886"><ele>476.20000000000005</ele><time>2026-04-03T12:37:32.752Z</time></trkpt><trkpt lat="44.078434215919806" lon="11.749735534291926"><ele>473.6</ele><time>2026-04-03T12:37:33.752Z</time></trkpt><trkpt lat="44.0785056126236" lon="11.749620059099506"><ele>471.0</ele><time>2026-04-03T12:37:34.752Z</time></trkpt><trkpt lat="44.07858141463377" lon="11.749509453609624"><ele>471.0</ele><time>2026-04-03T12:37:35.752Z</time></trkpt><trkpt lat="44.07865742202008" lon="11.749404989690587"><ele>471.0</ele><time>2026-04-03T12:37:36.752Z</time></trkpt><trkpt lat="44.07871041334562" lon="11.74928832557767"><ele>471.0</ele><time>2026-04-03T12:37:37.752Z</time></trkpt><trkpt lat="44.07874321213514" lon="11.749160472917465"><ele>471.0</ele><time>2026-04-03T12:37:38.752Z</time></trkpt><trkpt lat="44.07876034134414" lon="11.749040826885217"><ele>471.0</ele><time>2026-04-03T12:37:39.752Z</time></trkpt><trkpt lat="44.0787705802013" lon="11.748942280114486"><ele>470.6666666666667</ele><time>2026-04-03T12:37:40.752Z</time></trkpt><trkpt lat="44.0788263874946" lon="11.74883467778085"><ele>470.33333333333337</ele><time>2026-04-03T12:37:42.752Z</time></trkpt><trkpt lat="44.07892090421595" lon="11.748850528651706"><ele>470.0</ele><time>2026-04-03T12:37:44.752Z</time></trkpt><trkpt lat="44.07894802562523" lon="11.74893265440381"><ele>469.6666666666667</ele><time>2026-04-03T12:37:45.752Z</time></trkpt><trkpt lat="44.078952886700506" lon="11.74903525292249"><ele>469.33333333333337</ele><time>2026-04-03T12:37:46.752Z</time></trkpt><trkpt lat="44.07894072826202" lon="11.749131382005297"><ele>469.0</ele><time>2026-04-03T12:37:47.752Z</time></trkpt><trkpt lat="44.07892379753751" lon="11.749239038912133"><ele>469.0</ele><time>2026-04-03T12:37:48.752Z</time></trkpt><trkpt lat="44.078904999062836" lon="11.749362160474957"><ele>469.0</ele><time>2026-04-03T12:37:49.752Z</time></trkpt><trkpt lat="44.07889540616139" lon="11.749488358694812"><ele>469.0</ele><time>2026-04-03T12:37:50.752Z</time></trkpt><trkpt lat="44.078889794362176" lon="11.749618118963816"><ele>469.0</ele><time>2026-04-03T12:37:51.752Z</time></trkpt><trkpt lat="44.07889439431981" lon="11.749744286860158"><ele>469.0</ele><time>2026-04-03T12:37:52.752Z</time></trkpt><trkpt lat="44.078907785720936" lon="11.749868091804974"><ele>468.79999999999995</ele><time>2026-04-03T12:37:53.752Z</time></trkpt><trkpt lat="44.07891008909681" lon="11.749999237028154"><ele>468.59999999999997</ele><time>2026-04-03T12:37:54.752Z</time></trkpt><trkpt lat="44.078889498304406" lon="11.750135146962858"><ele>468.4</ele><time>2026-04-03T12:37:55.752Z</time></trkpt><trkpt lat="44.0788548875747" lon="11.75027447287323"><ele>468.2</ele><time>2026-04-03T12:37:56.752Z</time></trkpt><trkpt lat="44.07881614091314" lon="11.750420438073638"><ele>468.0</ele><time>2026-04-03T12:37:57.752Z</time></trkpt><trkpt lat="44.07877339010524" lon="11.750576187608834"><ele>468.0</ele><time>2026-04-03T12:37:58.752Z</time></trkpt><trkpt lat="44.07872823156589" lon="11.750726733229525"><ele>468.0</ele><time>2026-04-03T12:37:59.752Z</time></trkpt><trkpt lat="44.078670937250266" lon="11.75087908901032"><ele>468.0</ele><time>2026-04-03T12:38:00.752Z</time></trkpt><trkpt lat="44.07862983139446" lon="11.751011707232799"><ele>468.0</ele><time>2026-04-03T12:38:01.752Z</time></trkpt><trkpt lat="44.07860036857903" lon="11.751152712162694"><ele>468.59999999999997</ele><time>2026-04-03T12:38:02.752Z</time></trkpt><trkpt lat="44.078580189821835" lon="11.751292513011393"><ele>469.19999999999993</ele><time>2026-04-03T12:38:03.752Z</time></trkpt><trkpt lat="44.078571867121475" lon="11.751424668127198"><ele>469.8</ele><time>2026-04-03T12:38:04.752Z</time></trkpt><trkpt lat="44.07857338307123" lon="11.751551724172513"><ele>470.4</ele><time>2026-04-03T12:38:05.752Z</time></trkpt><trkpt lat="44.078594583124215" lon="11.751664848232872"><ele>471.0</ele><time>2026-04-03T12:38:06.752Z</time></trkpt><trkpt lat="44.07866633075552" lon="11.751774245405914"><ele>471.0</ele><time>2026-04-03T12:38:08.752Z</time></trkpt><trkpt lat="44.07875728418143" lon="11.75169133817327"><ele>471.0</ele><time>2026-04-03T12:38:10.752Z</time></trkpt><trkpt lat="44.07876099401093" lon="11.751596041651561"><ele>471.0</ele><time>2026-04-03T12:38:11.752Z</time></trkpt><trkpt lat="44.07874963307043" lon="11.751507523487279"><ele>471.0</ele><time>2026-04-03T12:38:12.752Z</time></trkpt><trkpt lat="44.07873261727143" lon="11.751420548480285"><ele>471.0</ele><time>2026-04-03T12:38:13.752Z</time></trkpt><trkpt lat="44.078752840153676" lon="11.751247569080517"><ele>471.0</ele><time>2026-04-03T12:38:15.752Z</time></trkpt><trkpt lat="44.07881738912712" lon="11.751149480368632"><ele>471.0</ele><time>2026-04-03T12:38:16.752Z</time></trkpt><trkpt lat="44.07890752415527" lon="11.751072375785851"><ele>471.0</ele><time>2026-04-03T12:38:17.752Z</time></trkpt><trkpt lat="44.079015683908466" lon="11.751027087735311"><ele>471.0</ele><time>2026-04-03T12:38:18.752Z</time></trkpt><trkpt lat="44.07912205349138" lon="11.750985462781388"><ele>471.0</ele><time>2026-04-03T12:38:19.752Z</time></trkpt><trkpt lat="44.079219268672865" lon="11.750928822548072"><ele>471.0</ele><time>2026-04-03T12:38:20.752Z</time></trkpt><trkpt lat="44.07931931446054" lon="11.750833731648765"><ele>463.25</ele><time>2026-04-03T12:38:21.752Z</time></trkpt><trkpt lat="44.07941428020252" lon="11.750713487680295"><ele>455.5</ele><time>2026-04-03T12:38:22.752Z</time></trkpt><trkpt lat="44.07950713001272" lon="11.750588478240639"><ele>447.75</ele><time>2026-04-03T12:38:23.752Z</time></trkpt><trkpt lat="44.07959450827945" lon="11.75047848627742"><ele>440.0</ele><time>2026-04-03T12:38:24.752Z</time></trkpt><trkpt lat="44.0796891452789" lon="11.750369192373482"><ele>440.0</ele><time>2026-04-03T12:38:25.752Z</time></trkpt><trkpt lat="44.07977558591711" lon="11.750256504936655"><ele>440.0</ele><time>2026-04-03T12:38:26.752Z</time></trkpt><trkpt lat="44.07985949344861" lon="11.750134488428454"><ele>440.0</ele><time>2026-04-03T12:38:27.752Z</time></trkpt><trkpt lat="44.079933996638296" lon="11.750010418858626"><ele>440.0</ele><time>2026-04-03T12:38:28.752Z</time></trkpt><trkpt lat="44.079986760043255" lon="11.749856554164639"><ele>437.75</ele><time>2026-04-03T12:38:29.752Z</time></trkpt><trkpt lat="44.08003222841404" lon="11.749680494276474"><ele>435.5</ele><time>2026-04-03T12:38:30.752Z</time></trkpt><trkpt lat="44.08007707799152" lon="11.74950659510309"><ele>433.25</ele><time>2026-04-03T12:38:31.752Z</time></trkpt><trkpt lat="44.080125576462834" lon="11.749334118838897"><ele>431.0</ele><time>2026-04-03T12:38:32.752Z</time></trkpt><trkpt lat="44.08017724905431" lon="11.74917299242585"><ele>431.0</ele><time>2026-04-03T12:38:33.752Z</time></trkpt><trkpt lat="44.08022979868059" lon="11.749020236755271"><ele>431.0</ele><time>2026-04-03T12:38:34.752Z</time></trkpt><trkpt lat="44.080287003435636" lon="11.748881968234882"><ele>431.0</ele><time>2026-04-03T12:38:35.752Z</time></trkpt><trkpt lat="44.08034724720799" lon="11.748756651559372"><ele>431.0</ele><time>2026-04-03T12:38:36.752Z</time></trkpt><trkpt lat="44.08041380805018" lon="11.748651976882824"><ele>431.0</ele><time>2026-04-03T12:38:37.752Z</time></trkpt><trkpt lat="44.08049480150431" lon="11.748573503806654"><ele>433.0</ele><time>2026-04-03T12:38:38.752Z</time></trkpt><trkpt lat="44.08059221808791" lon="11.748511884120218"><ele>435.0</ele><time>2026-04-03T12:38:39.752Z</time></trkpt><trkpt lat="44.080701148896125" lon="11.748474266850023"><ele>437.0</ele><time>2026-04-03T12:38:40.752Z</time></trkpt><trkpt lat="44.08081596973695" lon="11.74846179475238"><ele>439.0</ele><time>2026-04-03T12:38:41.752Z</time></trkpt><trkpt lat="44.08093708617279" lon="11.748449193344172"><ele>435.2</ele><time>2026-04-03T12:38:42.752Z</time></trkpt><trkpt lat="44.08105419048152" lon="11.74843270880606"><ele>431.4</ele><time>2026-04-03T12:38:43.752Z</time></trkpt><trkpt lat="44.08116570175789" lon="11.748404160123975"><ele>427.6</ele><time>2026-04-03T12:38:44.752Z</time></trkpt><trkpt lat="44.08126671801078" lon="11.74836687688903"><ele>423.8</ele><time>2026-04-03T12:38:45.752Z</time></trkpt><trkpt lat="44.08136848637602" lon="11.748332696339702"><ele>420.0</ele><time>2026-04-03T12:38:46.752Z</time></trkpt><trkpt lat="44.08146410756586" lon="11.748306100397691"><ele>420.0</ele><time>2026-04-03T12:38:47.752Z</time></trkpt><trkpt lat="44.08156677706793" lon="11.74831599510204"><ele>420.0</ele><time>2026-04-03T12:38:48.752Z</time></trkpt><trkpt lat="44.08165872696816" lon="11.74837821803387"><ele>420.0</ele><time>2026-04-03T12:38:49.752Z</time></trkpt><trkpt lat="44.081756072108554" lon="11.748467815812274"><ele>420.0</ele><time>2026-04-03T12:38:50.752Z</time></trkpt><trkpt lat="44.08185814287267" lon="11.748573754497407"><ele>420.0</ele><time>2026-04-03T12:38:51.75Z</time></trkpt><trkpt lat="44.08195604842881" lon="11.748674345463575"><ele>415.6</ele><time>2026-04-03T12:38:52.75Z</time></trkpt><trkpt lat="44.08204620191192" lon="11.748767027050734"><ele>411.2</ele><time>2026-04-03T12:38:53.75Z</time></trkpt><trkpt lat="44.082126315960664" lon="11.748852149693104"><ele>406.79999999999995</ele><time>2026-04-03T12:38:54.75Z</time></trkpt><trkpt lat="44.08220192538309" lon="11.74891848283032"><ele>402.4</ele><time>2026-04-03T12:38:55.75Z</time></trkpt><trkpt lat="44.08228831925891" lon="11.748958067085951"><ele>398.0</ele><time>2026-04-03T12:38:56.75Z</time></trkpt><trkpt lat="44.08238295342125" lon="11.748973136184151"><ele>396.66666666666663</ele><time>2026-04-03T12:38:57.75Z</time></trkpt><trkpt lat="44.08248132456734" lon="11.748970511648388"><ele>395.3333333333333</ele><time>2026-04-03T12:38:58.75Z</time></trkpt><trkpt lat="44.082563096981886" lon="11.748958786893583"><ele>394.0</ele><time>2026-04-03T12:38:59.75Z</time></trkpt><trkpt lat="44.082650122981434" lon="11.748945231871364"><ele>392.66666666666663</ele><time>2026-04-03T12:39:00.75Z</time></trkpt><trkpt lat="44.08273112634603" lon="11.74891816885542"><ele>391.3333333333333</ele><time>2026-04-03T12:39:01.75Z</time></trkpt><trkpt lat="44.08280475744199" lon="11.748852030823464"><ele>390.0</ele><time>2026-04-03T12:39:02.75Z</time></trkpt><trkpt lat="44.08286028728308" lon="11.7487595236647"><ele>390.0</ele><time>2026-04-03T12:39:03.75Z</time></trkpt><trkpt lat="44.08291424527731" lon="11.748657041277042"><ele>390.0</ele><time>2026-04-03T12:39:04.75Z</time></trkpt><trkpt lat="44.08295695987494" lon="11.7485421234318"><ele>390.0</ele><time>2026-04-03T12:39:05.75Z</time></trkpt><trkpt lat="44.083003520056" lon="11.748430764317007"><ele>390.0</ele><time>2026-04-03T12:39:06.75Z</time></trkpt><trkpt lat="44.083037254263196" lon="11.748331772697219"><ele>390.0</ele><time>2026-04-03T12:39:07.75Z</time></trkpt><trkpt lat="44.083057768715214" lon="11.748237833883843"><ele>390.0</ele><time>2026-04-03T12:39:08.75Z</time></trkpt><trkpt lat="44.083025813370334" lon="11.748088662179734"><ele>391.8</ele><time>2026-04-03T12:39:10.75Z</time></trkpt><trkpt lat="44.08296325472141" lon="11.748026117494573"><ele>393.6</ele><time>2026-04-03T12:39:11.75Z</time></trkpt><trkpt lat="44.08288658319396" lon="11.747952767724627"><ele>395.4</ele><time>2026-04-03T12:39:12.75Z</time></trkpt><trkpt lat="44.082794072969236" lon="11.747883612921665"><ele>397.2</ele><time>2026-04-03T12:39:13.75Z</time></trkpt><trkpt lat="44.08269996716252" lon="11.747813652022737"><ele>399.0</ele><time>2026-04-03T12:39:14.75Z</time></trkpt><trkpt lat="44.08260814656881" lon="11.747740755026596"><ele>399.0</ele><time>2026-04-03T12:39:15.75Z</time></trkpt><trkpt lat="44.08252555924421" lon="11.747659471300818"><ele>399.0</ele><time>2026-04-03T12:39:16.75Z</time></trkpt><trkpt lat="44.082439943580674" lon="11.747577487173944"><ele>399.0</ele><time>2026-04-03T12:39:17.75Z</time></trkpt><trkpt lat="44.0823471900413" lon="11.747497139364356"><ele>399.0</ele><time>2026-04-03T12:39:18.75Z</time></trkpt><trkpt lat="44.082248670004375" lon="11.747413858584022"><ele>399.0</ele><time>2026-04-03T12:39:19.75Z</time></trkpt><trkpt lat="44.082157927610886" lon="11.747344787730256"><ele>399.0</ele><time>2026-04-03T12:39:20.75Z</time></trkpt><trkpt lat="44.08206730101747" lon="11.747275171664626"><ele>399.0</ele><time>2026-04-03T12:39:21.75Z</time></trkpt><trkpt lat="44.08197627035192" lon="11.74720903940444"><ele>399.0</ele><time>2026-04-03T12:39:22.75Z</time></trkpt><trkpt lat="44.08187010915786" lon="11.74715356612615"><ele>399.0</ele><time>2026-04-03T12:39:23.75Z</time></trkpt><trkpt lat="44.081738970808345" lon="11.747091001711784"><ele>403.0</ele><time>2026-04-03T12:39:24.75Z</time></trkpt><trkpt lat="44.08159587495351" lon="11.747032040932456"><ele>407.0</ele><time>2026-04-03T12:39:25.75Z</time></trkpt><trkpt lat="44.08146908487372" lon="11.74697605074925"><ele>411.0</ele><time>2026-04-03T12:39:26.75Z</time></trkpt><trkpt lat="44.08135326825874" lon="11.746915676839732"><ele>415.0</ele><time>2026-04-03T12:39:27.75Z</time></trkpt><trkpt lat="44.08122791643853" lon="11.746831181256926"><ele>409.0</ele><time>2026-04-03T12:39:28.75Z</time></trkpt><trkpt lat="44.08109604201397" lon="11.746740885611443"><ele>403.0</ele><time>2026-04-03T12:39:29.75Z</time></trkpt><trkpt lat="44.08097110854678" lon="11.746675230498035"><ele>397.0</ele><time>2026-04-03T12:39:30.75Z</time></trkpt><trkpt lat="44.08084041423214" lon="11.74664074959135"><ele>391.0</ele><time>2026-04-03T12:39:31.75Z</time></trkpt><trkpt lat="44.080703401162886" lon="11.746603415842218"><ele>391.0</ele><time>2026-04-03T12:39:32.75Z</time></trkpt><trkpt lat="44.08057788232631" lon="11.746551764510139"><ele>391.0</ele><time>2026-04-03T12:39:33.75Z</time></trkpt><trkpt lat="44.080451335486245" lon="11.74648522695676"><ele>391.0</ele><time>2026-04-03T12:39:34.75Z</time></trkpt><trkpt lat="44.0803456155035" lon="11.746430290555484"><ele>391.0</ele><time>2026-04-03T12:39:35.75Z</time></trkpt><trkpt lat="44.08023603802187" lon="11.746354845087339"><ele>391.0</ele><time>2026-04-03T12:39:36.75Z</time></trkpt><trkpt lat="44.080129271147214" lon="11.746261950253551"><ele>391.0</ele><time>2026-04-03T12:39:37.75Z</time></trkpt><trkpt lat="44.08002532004538" lon="11.746157106405558"><ele>391.0</ele><time>2026-04-03T12:39:38.75Z</time></trkpt><trkpt lat="44.07991183669209" lon="11.74606451573252"><ele>391.0</ele><time>2026-04-03T12:39:39.75Z</time></trkpt><trkpt lat="44.07979087824199" lon="11.745992358299572"><ele>387.25</ele><time>2026-04-03T12:39:40.75Z</time></trkpt><trkpt lat="44.07967420463663" lon="11.745925297100937"><ele>383.5</ele><time>2026-04-03T12:39:41.75Z</time></trkpt><trkpt lat="44.07956328404237" lon="11.745845631144437"><ele>379.75</ele><time>2026-04-03T12:39:42.75Z</time></trkpt><trkpt lat="44.07945883762345" lon="11.745772444287748"><ele>376.0</ele><time>2026-04-03T12:39:43.749Z</time></trkpt><trkpt lat="44.07935102013615" lon="11.745707066184309"><ele>376.0</ele><time>2026-04-03T12:39:44.749Z</time></trkpt><trkpt lat="44.0792543983812" lon="11.745618776250641"><ele>376.0</ele><time>2026-04-03T12:39:45.749Z</time></trkpt><trkpt lat="44.07916688709356" lon="11.745534084985756"><ele>376.0</ele><time>2026-04-03T12:39:46.749Z</time></trkpt><trkpt lat="44.079084761729284" lon="11.745437291787544"><ele>376.0</ele><time>2026-04-03T12:39:47.749Z</time></trkpt><trkpt lat="44.079004102079914" lon="11.745344503357337"><ele>376.0</ele><time>2026-04-03T12:39:48.749Z</time></trkpt><trkpt lat="44.078925291313645" lon="11.745243145972319"><ele>374.16666666666663</ele><time>2026-04-03T12:39:49.749Z</time></trkpt><trkpt lat="44.07887077683275" lon="11.745157726387433"><ele>372.3333333333333</ele><time>2026-04-03T12:39:50.749Z</time></trkpt><trkpt lat="44.07882720563825" lon="11.745056875131064"><ele>370.5</ele><time>2026-04-03T12:39:51.749Z</time></trkpt><trkpt lat="44.07879583164367" lon="11.744944388043319"><ele>368.6666666666667</ele><time>2026-04-03T12:39:52.749Z</time></trkpt><trkpt lat="44.07878709946301" lon="11.744840505819356"><ele>366.83333333333337</ele><time>2026-04-03T12:39:53.749Z</time></trkpt><trkpt lat="44.078779861678676" lon="11.74474181668126"><ele>365.0</ele><time>2026-04-03T12:39:54.749Z</time></trkpt><trkpt lat="44.07875943083876" lon="11.744565390785535"><ele>365.0</ele><time>2026-04-03T12:39:56.749Z</time></trkpt><trkpt lat="44.07875282046257" lon="11.744473258242895"><ele>365.0</ele><time>2026-04-03T12:39:57.749Z</time></trkpt><trkpt lat="44.07873364575628" lon="11.744308221243667"><ele>365.0</ele><time>2026-04-03T12:39:59.749Z</time></trkpt><trkpt lat="44.078711281641155" lon="11.744177359726914"><ele>365.0</ele><time>2026-04-03T12:40:01.749Z</time></trkpt><trkpt lat="44.07870213214083" lon="11.744067560823844"><ele>365.0</ele><time>2026-04-03T12:40:03.749Z</time></trkpt><trkpt lat="44.07874571421383" lon="11.743969856627434"><ele>365.0</ele><time>2026-04-03T12:40:25.749Z</time></trkpt><trkpt lat="44.07885386609769" lon="11.743944323850464"><ele>360.5</ele><time>2026-04-03T12:40:27.749Z</time></trkpt><trkpt lat="44.07892708151623" lon="11.74394438516987"><ele>356.0</ele><time>2026-04-03T12:40:28.749Z</time></trkpt><trkpt lat="44.078999277869535" lon="11.74394081839842"><ele>351.5</ele><time>2026-04-03T12:40:29.749Z</time></trkpt><trkpt lat="44.07906317003948" lon="11.7439424088429"><ele>347.0</ele><time>2026-04-03T12:40:30.749Z</time></trkpt><trkpt lat="44.079162162907224" lon="11.74393311009439"><ele>342.5</ele><time>2026-04-03T12:40:32.749Z</time></trkpt><trkpt lat="44.07923945262131" lon="11.743912226484511"><ele>338.0</ele><time>2026-04-03T12:40:35.749Z</time></trkpt><trkpt lat="44.07923062301774" lon="11.743775642655658"><ele>337.83333333333337</ele><time>2026-04-03T12:40:47.749Z</time></trkpt><trkpt lat="44.07917552910806" lon="11.743700515030612"><ele>337.6666666666667</ele><time>2026-04-03T12:40:48.749Z</time></trkpt><trkpt lat="44.07913644179326" lon="11.743607205187022"><ele>337.5</ele><time>2026-04-03T12:40:49.749Z</time></trkpt><trkpt lat="44.079104953202076" lon="11.743503480712123"><ele>337.3333333333333</ele><time>2026-04-03T12:40:50.749Z</time></trkpt><trkpt lat="44.07906835035014" lon="11.743397844467356"><ele>337.16666666666663</ele><time>2026-04-03T12:40:51.749Z</time></trkpt><trkpt lat="44.07903390981457" lon="11.74326481937783"><ele>337.0</ele><time>2026-04-03T12:40:52.749Z</time></trkpt><trkpt lat="44.078997177512754" lon="11.74313487021361"><ele>336.8</ele><time>2026-04-03T12:40:53.749Z</time></trkpt><trkpt lat="44.07895781139312" lon="11.742996989921"><ele>336.6</ele><time>2026-04-03T12:40:54.749Z</time></trkpt><trkpt lat="44.078924058222505" lon="11.742870828924305"><ele>336.40000000000003</ele><time>2026-04-03T12:40:55.749Z</time></trkpt><trkpt lat="44.07889570880942" lon="11.742756600063755"><ele>336.20000000000005</ele><time>2026-04-03T12:40:56.749Z</time></trkpt><trkpt lat="44.07886647021882" lon="11.74264258397116"><ele>336.0</ele><time>2026-04-03T12:40:57.747Z</time></trkpt><trkpt lat="44.078838314186825" lon="11.742535851850105"><ele>336.0</ele><time>2026-04-03T12:40:58.747Z</time></trkpt><trkpt lat="44.07880916670107" lon="11.742421262839287"><ele>336.0</ele><time>2026-04-03T12:40:59.747Z</time></trkpt><trkpt lat="44.078763203456155" lon="11.742309294137755"><ele>336.0</ele><time>2026-04-03T12:41:00.747Z</time></trkpt><trkpt lat="44.078694300324834" lon="11.742196486584637"><ele>336.0</ele><time>2026-04-03T12:41:01.747Z</time></trkpt><trkpt lat="44.07861712501167" lon="11.742078761622682"><ele>336.0</ele><time>2026-04-03T12:41:02.747Z</time></trkpt><trkpt lat="44.07853801032706" lon="11.741950050740938"><ele>336.25</ele><time>2026-04-03T12:41:03.747Z</time></trkpt><trkpt lat="44.078446638388364" lon="11.741822720698352"><ele>336.5</ele><time>2026-04-03T12:41:04.747Z</time></trkpt><trkpt lat="44.07835305535567" lon="11.741690774408477"><ele>336.75</ele><time>2026-04-03T12:41:05.747Z</time></trkpt><trkpt lat="44.07824998351499" lon="11.741554733150316"><ele>337.0</ele><time>2026-04-03T12:41:06.747Z</time></trkpt><trkpt lat="44.078145493460035" lon="11.741407651968013"><ele>337.0</ele><time>2026-04-03T12:41:07.747Z</time></trkpt><trkpt lat="44.078034759611604" lon="11.741254423696706"><ele>337.0</ele><time>2026-04-03T12:41:08.747Z</time></trkpt><trkpt lat="44.07792278875309" lon="11.741097084437866"><ele>337.0</ele><time>2026-04-03T12:41:09.747Z</time></trkpt><trkpt lat="44.077814970814075" lon="11.740944521406195"><ele>337.66666666666663</ele><time>2026-04-03T12:41:10.747Z</time></trkpt><trkpt lat="44.07770630804285" lon="11.74079239198322"><ele>338.3333333333333</ele><time>2026-04-03T12:41:11.747Z</time></trkpt><trkpt lat="44.07759485911449" lon="11.740638857919643"><ele>339.0</ele><time>2026-04-03T12:41:12.747Z</time></trkpt><trkpt lat="44.07749066119993" lon="11.740480922199922"><ele>339.25</ele><time>2026-04-03T12:41:13.747Z</time></trkpt><trkpt lat="44.077388663491924" lon="11.74032535071933"><ele>339.5</ele><time>2026-04-03T12:41:14.747Z</time></trkpt><trkpt lat="44.07728968365794" lon="11.740183109561096"><ele>339.75</ele><time>2026-04-03T12:41:15.747Z</time></trkpt><trkpt lat="44.07719245570194" lon="11.740040941297723"><ele>340.0</ele><time>2026-04-03T12:41:16.747Z</time></trkpt><trkpt lat="44.07710488745851" lon="11.739894014215835"><ele>340.75</ele><time>2026-04-03T12:41:17.747Z</time></trkpt><trkpt lat="44.07701256424901" lon="11.739753898480823"><ele>341.5</ele><time>2026-04-03T12:41:18.747Z</time></trkpt><trkpt lat="44.07691076208164" lon="11.73961635096329"><ele>342.25</ele><time>2026-04-03T12:41:19.747Z</time></trkpt><trkpt lat="44.07681582628013" lon="11.739480095647659"><ele>343.0</ele><time>2026-04-03T12:41:20.747Z</time></trkpt><trkpt lat="44.07672378672793" lon="11.739346267010099"><ele>343.2</ele><time>2026-04-03T12:41:21.747Z</time></trkpt><trkpt lat="44.07662853186279" lon="11.739216937270466"><ele>343.4</ele><time>2026-04-03T12:41:22.747Z</time></trkpt><trkpt lat="44.07654031507474" lon="11.739096881044032"><ele>343.59999999999997</ele><time>2026-04-03T12:41:23.747Z</time></trkpt><trkpt lat="44.07647951287995" lon="11.739004444022866"><ele>343.79999999999995</ele><time>2026-04-03T12:41:24.747Z</time></trkpt><trkpt lat="44.076429897210275" lon="11.738926619077539"><ele>344.0</ele><time>2026-04-03T12:41:25.747Z</time></trkpt><trkpt lat="44.07638945059816" lon="11.738834498689089"><ele>344.0</ele><time>2026-04-03T12:41:27.747Z</time></trkpt><trkpt lat="44.07642256764645" lon="11.738675473666522"><ele>344.0</ele><time>2026-04-03T12:41:29.747Z</time></trkpt><trkpt lat="44.07647571688566" lon="11.738592089610691"><ele>344.0</ele><time>2026-04-03T12:41:30.747Z</time></trkpt><trkpt lat="44.076554886297636" lon="11.73852849788008"><ele>344.0</ele><time>2026-04-03T12:41:31.747Z</time></trkpt><trkpt lat="44.076644491802725" lon="11.738499385215293"><ele>344.0</ele><time>2026-04-03T12:41:32.747Z</time></trkpt><trkpt lat="44.076728187130406" lon="11.738482277717624"><ele>345.2</ele><time>2026-04-03T12:41:33.747Z</time></trkpt><trkpt lat="44.07679867284584" lon="11.738457554141752"><ele>346.4</ele><time>2026-04-03T12:41:34.747Z</time></trkpt><trkpt lat="44.076860103552306" lon="11.73840269704866"><ele>347.6</ele><time>2026-04-03T12:41:35.747Z</time></trkpt><trkpt lat="44.07688207879002" lon="11.738236164570658"><ele>348.8</ele><time>2026-04-03T12:41:37.747Z</time></trkpt><trkpt lat="44.07684333956536" lon="11.738130824005774"><ele>350.0</ele><time>2026-04-03T12:41:38.747Z</time></trkpt><trkpt lat="44.0767811889412" lon="11.73802523124286"><ele>350.0</ele><time>2026-04-03T12:41:39.747Z</time></trkpt><trkpt lat="44.0766950752865" lon="11.737925790467935"><ele>350.0</ele><time>2026-04-03T12:41:40.747Z</time></trkpt><trkpt lat="44.07661565178902" lon="11.737822517244608"><ele>350.0</ele><time>2026-04-03T12:41:41.747Z</time></trkpt><trkpt lat="44.076545217144215" lon="11.737702222873224"><ele>350.0</ele><time>2026-04-03T12:41:42.747Z</time></trkpt><trkpt lat="44.07648985127063" lon="11.73755788740252"><ele>349.0</ele><time>2026-04-03T12:41:43.747Z</time></trkpt><trkpt lat="44.07645413977798" lon="11.737404543153925"><ele>348.0</ele><time>2026-04-03T12:41:44.747Z</time></trkpt><trkpt lat="44.07641915080348" lon="11.737233750817012"><ele>347.0</ele><time>2026-04-03T12:41:45.747Z</time></trkpt><trkpt lat="44.07638334895061" lon="11.737052619131884"><ele>346.0</ele><time>2026-04-03T12:41:46.747Z</time></trkpt><trkpt lat="44.07634714712248" lon="11.73686298166374"><ele>348.0</ele><time>2026-04-03T12:41:47.747Z</time></trkpt><trkpt lat="44.07630234684135" lon="11.736671688360552"><ele>350.0</ele><time>2026-04-03T12:41:48.747Z</time></trkpt><trkpt lat="44.076257039333015" lon="11.736477123664335"><ele>352.0</ele><time>2026-04-03T12:41:49.747Z</time></trkpt><trkpt lat="44.076210336655954" lon="11.736289018909545"><ele>354.0</ele><time>2026-04-03T12:41:50.747Z</time></trkpt><trkpt lat="44.076170682911844" lon="11.736123193003422"><ele>356.0</ele><time>2026-04-03T12:41:51.747Z</time></trkpt><trkpt lat="44.07614435156153" lon="11.735977898818195"><ele>358.0</ele><time>2026-04-03T12:41:52.747Z</time></trkpt><trkpt lat="44.07614684435711" lon="11.735833068514998"><ele>360.0</ele><time>2026-04-03T12:41:53.747Z</time></trkpt><trkpt lat="44.07617323905156" lon="11.735693127422778"><ele>362.0</ele><time>2026-04-03T12:41:54.747Z</time></trkpt><trkpt lat="44.07621626354827" lon="11.735549328379388"><ele>364.0</ele><time>2026-04-03T12:41:55.747Z</time></trkpt><trkpt lat="44.07627165079005" lon="11.735410497517043"><ele>364.0</ele><time>2026-04-03T12:41:56.747Z</time></trkpt><trkpt lat="44.07632543318543" lon="11.735259977648328"><ele>364.0</ele><time>2026-04-03T12:41:57.747Z</time></trkpt><trkpt lat="44.07637391887478" lon="11.73510072161388"><ele>364.0</ele><time>2026-04-03T12:41:58.747Z</time></trkpt><trkpt lat="44.07641345986064" lon="11.734941162616005"><ele>364.0</ele><time>2026-04-03T12:41:59.747Z</time></trkpt><trkpt lat="44.07643860053827" lon="11.734790014752646"><ele>365.25</ele><time>2026-04-03T12:42:00.747Z</time></trkpt><trkpt lat="44.07645807782419" lon="11.734634603211427"><ele>366.5</ele><time>2026-04-03T12:42:01.747Z</time></trkpt><trkpt lat="44.076461206901385" lon="11.73446971369393"><ele>367.75</ele><time>2026-04-03T12:42:02.747Z</time></trkpt><trkpt lat="44.076446041461146" lon="11.734306729131907"><ele>369.0</ele><time>2026-04-03T12:42:03.747Z</time></trkpt><trkpt lat="44.07641554696607" lon="11.73414951062144"><ele>369.8333333333333</ele><time>2026-04-03T12:42:04.747Z</time></trkpt><trkpt lat="44.07637428051687" lon="11.734010719654613"><ele>370.6666666666667</ele><time>2026-04-03T12:42:05.747Z</time></trkpt><trkpt lat="44.07632210499958" lon="11.733894379863912"><ele>371.5</ele><time>2026-04-03T12:42:06.747Z</time></trkpt><trkpt lat="44.0762722404479" lon="11.733795211861352"><ele>372.33333333333337</ele><time>2026-04-03T12:42:07.747Z</time></trkpt><trkpt lat="44.07624286666633" lon="11.733709086859033"><ele>373.1666666666667</ele><time>2026-04-03T12:42:08.747Z</time></trkpt><trkpt lat="44.07624210057341" lon="11.733608898385766"><ele>374.0</ele><time>2026-04-03T12:42:09.747Z</time></trkpt><trkpt lat="44.07627048778011" lon="11.733494325034513"><ele>375.79999999999995</ele><time>2026-04-03T12:42:10.747Z</time></trkpt><trkpt lat="44.07631881751228" lon="11.733372547894843"><ele>377.59999999999997</ele><time>2026-04-03T12:42:11.747Z</time></trkpt><trkpt lat="44.07638448637298" lon="11.733239289299446"><ele>379.4</ele><time>2026-04-03T12:42:12.747Z</time></trkpt><trkpt lat="44.07644098467165" lon="11.733112613803343"><ele>381.2</ele><time>2026-04-03T12:42:13.747Z</time></trkpt><trkpt lat="44.07646964594067" lon="11.733001007142237"><ele>383.0</ele><time>2026-04-03T12:42:14.747Z</time></trkpt><trkpt lat="44.0764692571598" lon="11.732881775624914"><ele>383.0</ele><time>2026-04-03T12:42:15.747Z</time></trkpt><trkpt lat="44.076442309786266" lon="11.732749725866206"><ele>383.0</ele><time>2026-04-03T12:42:16.747Z</time></trkpt><trkpt lat="44.076402998070584" lon="11.732609469074024"><ele>383.0</ele><time>2026-04-03T12:42:17.747Z</time></trkpt><trkpt lat="44.0763715329022" lon="11.732463474149027"><ele>383.0</ele><time>2026-04-03T12:42:18.747Z</time></trkpt><trkpt lat="44.07634504831555" lon="11.732314520691018"><ele>383.0</ele><time>2026-04-03T12:42:19.747Z</time></trkpt><trkpt lat="44.07633878642302" lon="11.732182895662199"><ele>384.0</ele><time>2026-04-03T12:42:20.747Z</time></trkpt><trkpt lat="44.07636468926896" lon="11.732042226158743"><ele>385.0</ele><time>2026-04-03T12:42:21.747Z</time></trkpt><trkpt lat="44.07640764276156" lon="11.731897484406787"><ele>386.0</ele><time>2026-04-03T12:42:22.747Z</time></trkpt><trkpt lat="44.076457683553976" lon="11.731762722234542"><ele>387.0</ele><time>2026-04-03T12:42:23.747Z</time></trkpt><trkpt lat="44.0765214931879" lon="11.73164086498461"><ele>388.0</ele><time>2026-04-03T12:42:24.747Z</time></trkpt><trkpt lat="44.0765754907309" lon="11.73156616381649"><ele>394.0</ele><time>2026-04-03T12:42:25.747Z</time></trkpt><trkpt lat="44.076649700994984" lon="11.731529889059276"><ele>400.0</ele><time>2026-04-03T12:42:26.747Z</time></trkpt><trkpt lat="44.07673927253385" lon="11.731535955936096"><ele>406.0</ele><time>2026-04-03T12:42:27.747Z</time></trkpt><trkpt lat="44.076834179124376" lon="11.731571773362722"><ele>412.0</ele><time>2026-04-03T12:42:28.747Z</time></trkpt><trkpt lat="44.07693261742125" lon="11.731603389840062"><ele>418.0</ele><time>2026-04-03T12:42:29.747Z</time></trkpt><trkpt lat="44.07702955187708" lon="11.731650368995577"><ele>418.0</ele><time>2026-04-03T12:42:30.747Z</time></trkpt><trkpt lat="44.077121960897884" lon="11.731693734018494"><ele>418.0</ele><time>2026-04-03T12:42:31.747Z</time></trkpt><trkpt lat="44.077199940384645" lon="11.731698497167944"><ele>418.0</ele><time>2026-04-03T12:42:32.747Z</time></trkpt><trkpt lat="44.07730434286197" lon="11.73164143481146"><ele>418.0</ele><time>2026-04-03T12:42:34.747Z</time></trkpt><trkpt lat="44.07734086117888" lon="11.731568978570253"><ele>418.0</ele><time>2026-04-03T12:42:35.747Z</time></trkpt><trkpt lat="44.0772976420289" lon="11.731357179010091"><ele>418.0</ele><time>2026-04-03T12:42:37.747Z</time></trkpt><trkpt lat="44.0772312715886" lon="11.731215411531455"><ele>418.0</ele><time>2026-04-03T12:42:38.747Z</time></trkpt><trkpt lat="44.07716019930057" lon="11.731085380939875"><ele>418.0</ele><time>2026-04-03T12:42:39.747Z</time></trkpt><trkpt lat="44.077093657072965" lon="11.730953744227529"><ele>418.0</ele><time>2026-04-03T12:42:40.747Z</time></trkpt><trkpt lat="44.07702151623122" lon="11.73083715819418"><ele>418.4</ele><time>2026-04-03T12:42:41.746Z</time></trkpt><trkpt lat="44.07695944367358" lon="11.730724333225895"><ele>418.79999999999995</ele><time>2026-04-03T12:42:42.746Z</time></trkpt><trkpt lat="44.07692075914365" lon="11.730594522328817"><ele>419.2</ele><time>2026-04-03T12:42:43.746Z</time></trkpt><trkpt lat="44.07689892624998" lon="11.730449282772033"><ele>419.6</ele><time>2026-04-03T12:42:44.746Z</time></trkpt><trkpt lat="44.076895732590025" lon="11.730287643327083"><ele>420.0</ele><time>2026-04-03T12:42:45.746Z</time></trkpt><trkpt lat="44.07689172495139" lon="11.730139205110866"><ele>423.8</ele><time>2026-04-03T12:42:46.746Z</time></trkpt><trkpt lat="44.076883691404056" lon="11.730010916113182"><ele>427.6</ele><time>2026-04-03T12:42:47.746Z</time></trkpt><trkpt lat="44.0768247575234" lon="11.72991790885701"><ele>431.4</ele><time>2026-04-03T12:42:48.746Z</time></trkpt><trkpt lat="44.07672981677245" lon="11.729875288461324"><ele>435.2</ele><time>2026-04-03T12:42:49.746Z</time></trkpt><trkpt lat="44.07661739226381" lon="11.729864257982339"><ele>439.0</ele><time>2026-04-03T12:42:50.746Z</time></trkpt><trkpt lat="44.07648392574916" lon="11.729861726584213"><ele>441.5</ele><time>2026-04-03T12:42:51.746Z</time></trkpt><trkpt lat="44.07636343909556" lon="11.72985181914367"><ele>444.0</ele><time>2026-04-03T12:42:52.746Z</time></trkpt><trkpt lat="44.076241678902186" lon="11.729849950146619"><ele>446.5</ele><time>2026-04-03T12:42:53.746Z</time></trkpt><trkpt lat="44.07613102138163" lon="11.72985731678531"><ele>449.0</ele><time>2026-04-03T12:42:54.746Z</time></trkpt><trkpt lat="44.07602514937529" lon="11.729904453046961"><ele>449.0</ele><time>2026-04-03T12:42:55.746Z</time></trkpt><trkpt lat="44.07593341478508" lon="11.729978312218881"><ele>449.0</ele><time>2026-04-03T12:42:56.746Z</time></trkpt><trkpt lat="44.07584206234616" lon="11.730072887118919"><ele>449.0</ele><time>2026-04-03T12:42:57.746Z</time></trkpt><trkpt lat="44.075752723999166" lon="11.73015920841072"><ele>449.0</ele><time>2026-04-03T12:42:58.746Z</time></trkpt><trkpt lat="44.07567115880223" lon="11.730221962175316"><ele>449.0</ele><time>2026-04-03T12:42:59.746Z</time></trkpt><trkpt lat="44.075600832705064" lon="11.730251751362372"><ele>446.66666666666663</ele><time>2026-04-03T12:43:00.746Z</time></trkpt><trkpt lat="44.07553806546806" lon="11.730226343030369"><ele>444.3333333333333</ele><time>2026-04-03T12:43:01.746Z</time></trkpt><trkpt lat="44.075482224531456" lon="11.73016246599756"><ele>442.0</ele><time>2026-04-03T12:43:02.746Z</time></trkpt><trkpt lat="44.07544875273369" lon="11.730052519347383"><ele>439.66666666666663</ele><time>2026-04-03T12:43:03.744Z</time></trkpt><trkpt lat="44.075435276950856" lon="11.729918321613077"><ele>437.3333333333333</ele><time>2026-04-03T12:43:04.745Z</time></trkpt><trkpt lat="44.075420086241564" lon="11.729754019680497"><ele>435.0</ele><time>2026-04-03T12:43:05.745Z</time></trkpt><trkpt lat="44.075389701630655" lon="11.729591488005832"><ele>435.0</ele><time>2026-04-03T12:43:06.744Z</time></trkpt><trkpt lat="44.075334334709254" lon="11.729441394034442"><ele>435.0</ele><time>2026-04-03T12:43:07.745Z</time></trkpt><trkpt lat="44.075276943251374" lon="11.729295453976606"><ele>435.0</ele><time>2026-04-03T12:43:08.745Z</time></trkpt><trkpt lat="44.07524035880344" lon="11.729153975937212"><ele>435.0</ele><time>2026-04-03T12:43:09.744Z</time></trkpt><trkpt lat="44.07522709779426" lon="11.729019515119825"><ele>435.0</ele><time>2026-04-03T12:43:10.745Z</time></trkpt><trkpt lat="44.075211011394316" lon="11.72889059109393"><ele>439.0</ele><time>2026-04-03T12:43:11.745Z</time></trkpt><trkpt lat="44.075193093819294" lon="11.728748103272109"><ele>443.0</ele><time>2026-04-03T12:43:12.744Z</time></trkpt><trkpt lat="44.075146119826016" lon="11.728616206069187"><ele>447.0</ele><time>2026-04-03T12:43:13.745Z</time></trkpt><trkpt lat="44.07506601417759" lon="11.72850737829239"><ele>451.0</ele><time>2026-04-03T12:43:14.745Z</time></trkpt><trkpt lat="44.07499690455071" lon="11.728418492902792"><ele>455.0</ele><time>2026-04-03T12:43:15.744Z</time></trkpt><trkpt lat="44.07494003015747" lon="11.728356784070163"><ele>455.0</ele><time>2026-04-03T12:43:16.744Z</time></trkpt><trkpt lat="44.074938818392276" lon="11.7282638849449"><ele>455.0</ele><time>2026-04-03T12:43:18.744Z</time></trkpt><trkpt lat="44.075079930448545" lon="11.728292943635141"><ele>455.0</ele><time>2026-04-03T12:43:20.744Z</time></trkpt><trkpt lat="44.07518783854357" lon="11.728406532909391"><ele>455.0</ele><time>2026-04-03T12:43:22.744Z</time></trkpt><trkpt lat="44.07525754105727" lon="11.728491020739336"><ele>455.0</ele><time>2026-04-03T12:43:23.744Z</time></trkpt><trkpt lat="44.075332803320826" lon="11.728596269673467"><ele>454.99999999999994</ele><time>2026-04-03T12:43:24.744Z</time></trkpt><trkpt lat="44.07539751185155" lon="11.72869617291662"><ele>455.0</ele><time>2026-04-03T12:43:25.744Z</time></trkpt><trkpt lat="44.075444269951504" lon="11.728798179554008"><ele>455.0</ele><time>2026-04-03T12:43:26.744Z</time></trkpt><trkpt lat="44.07548146672654" lon="11.728904939790812"><ele>455.0</ele><time>2026-04-03T12:43:27.744Z</time></trkpt><trkpt lat="44.075514526218576" lon="11.728998498455177"><ele>454.99999999999994</ele><time>2026-04-03T12:43:28.744Z</time></trkpt><trkpt lat="44.075546585802094" lon="11.729080553978786"><ele>455.0</ele><time>2026-04-03T12:43:29.744Z</time></trkpt><trkpt lat="44.07563610560521" lon="11.729081693245526"><ele>455.0</ele><time>2026-04-03T12:43:31.744Z</time></trkpt><trkpt lat="44.075653658170744" lon="11.72892520273774"><ele>455.0</ele><time>2026-04-03T12:43:33.744Z</time></trkpt><trkpt lat="44.07562020671435" lon="11.728815225826112"><ele>455.0</ele><time>2026-04-03T12:43:34.744Z</time></trkpt><trkpt lat="44.07558008017362" lon="11.72869489297117"><ele>455.0</ele><time>2026-04-03T12:43:35.744Z</time></trkpt><trkpt lat="44.075537122273964" lon="11.728562471965315"><ele>455.0</ele><time>2026-04-03T12:43:36.744Z</time></trkpt><trkpt lat="44.07549887620329" lon="11.728422098655479"><ele>457.6</ele><time>2026-04-03T12:43:37.744Z</time></trkpt><trkpt lat="44.07548102423713" lon="11.728285194508592"><ele>460.2</ele><time>2026-04-03T12:43:38.744Z</time></trkpt><trkpt lat="44.07547944881653" lon="11.728145289655426"><ele>462.79999999999995</ele><time>2026-04-03T12:43:39.744Z</time></trkpt><trkpt lat="44.075500960310876" lon="11.728028712549273"><ele>465.4</ele><time>2026-04-03T12:43:40.744Z</time></trkpt><trkpt lat="44.07554460177696" lon="11.72792338196253"><ele>468.0</ele><time>2026-04-03T12:43:41.744Z</time></trkpt><trkpt lat="44.075608365087824" lon="11.727834664507819"><ele>468.0</ele><time>2026-04-03T12:43:42.744Z</time></trkpt><trkpt lat="44.075683136270975" lon="11.727743008116322"><ele>467.99999999999994</ele><time>2026-04-03T12:43:43.744Z</time></trkpt><trkpt lat="44.07575435094785" lon="11.727643768349283"><ele>467.99999999999994</ele><time>2026-04-03T12:43:44.744Z</time></trkpt><trkpt lat="44.0758152162589" lon="11.727532679236266"><ele>468.0</ele><time>2026-04-03T12:43:45.744Z</time></trkpt><trkpt lat="44.07584935674185" lon="11.727402200807502"><ele>468.0</ele><time>2026-04-03T12:43:46.744Z</time></trkpt><trkpt lat="44.0758623507293" lon="11.727246390802055"><ele>473.79999999999995</ele><time>2026-04-03T12:43:47.744Z</time></trkpt><trkpt lat="44.0758885194398" lon="11.727130578014565"><ele>479.59999999999997</ele><time>2026-04-03T12:43:48.744Z</time></trkpt><trkpt lat="44.07587105131713" lon="11.72696342394123"><ele>485.40000000000003</ele><time>2026-04-03T12:43:49.744Z</time></trkpt><trkpt lat="44.075867993348965" lon="11.726800498282381"><ele>491.20000000000005</ele><time>2026-04-03T12:43:50.744Z</time></trkpt><trkpt lat="44.07588539173052" lon="11.726637840955455"><ele>497.0</ele><time>2026-04-03T12:43:51.744Z</time></trkpt><trkpt lat="44.075896946444445" lon="11.726478091127804"><ele>497.8</ele><time>2026-04-03T12:43:52.744Z</time></trkpt><trkpt lat="44.07588983948328" lon="11.726319634536818"><ele>498.6</ele><time>2026-04-03T12:43:53.744Z</time></trkpt><trkpt lat="44.07585308980759" lon="11.726173597837837"><ele>499.40000000000003</ele><time>2026-04-03T12:43:54.744Z</time></trkpt><trkpt lat="44.07580577723877" lon="11.726038314428777"><ele>500.20000000000005</ele><time>2026-04-03T12:43:55.743Z</time></trkpt><trkpt lat="44.075769274191124" lon="11.725924945464861"><ele>501.0</ele><time>2026-04-03T12:43:56.743Z</time></trkpt><trkpt lat="44.07578473893675" lon="11.725785273062618"><ele>501.4</ele><time>2026-04-03T12:43:58.743Z</time></trkpt><trkpt lat="44.07585085652987" lon="11.725777040998706"><ele>501.8</ele><time>2026-04-03T12:43:59.743Z</time></trkpt><trkpt lat="44.07591171772762" lon="11.725828954179345"><ele>502.19999999999993</ele><time>2026-04-03T12:44:00.743Z</time></trkpt><trkpt lat="44.07595285182125" lon="11.725948198680904"><ele>502.59999999999997</ele><time>2026-04-03T12:44:01.743Z</time></trkpt><trkpt lat="44.07599763602137" lon="11.726078551062487"><ele>503.0</ele><time>2026-04-03T12:44:02.743Z</time></trkpt><trkpt lat="44.07603369368077" lon="11.726233434844843"><ele>503.0</ele><time>2026-04-03T12:44:03.743Z</time></trkpt><trkpt lat="44.07606540168676" lon="11.726401578708636"><ele>502.99999999999994</ele><time>2026-04-03T12:44:04.743Z</time></trkpt><trkpt lat="44.076104847598266" lon="11.726534760139032"><ele>502.99999999999994</ele><time>2026-04-03T12:44:05.743Z</time></trkpt><trkpt lat="44.076122362267746" lon="11.726663762112045"><ele>503.0</ele><time>2026-04-03T12:44:06.743Z</time></trkpt><trkpt lat="44.07615077596275" lon="11.726780265254746"><ele>503.0</ele><time>2026-04-03T12:44:07.743Z</time></trkpt><trkpt lat="44.0761987027812" lon="11.726845103739151"><ele>503.0</ele><time>2026-04-03T12:44:08.743Z</time></trkpt><trkpt lat="44.07627777054218" lon="11.726847013385052"><ele>503.0</ele><time>2026-04-03T12:44:09.743Z</time></trkpt><trkpt lat="44.07637452301853" lon="11.726784945919649"><ele>503.0</ele><time>2026-04-03T12:44:10.743Z</time></trkpt><trkpt lat="44.076476602625675" lon="11.726633880505581"><ele>503.0</ele><time>2026-04-03T12:44:11.743Z</time></trkpt><trkpt lat="44.07656362394099" lon="11.726498864387022"><ele>506.25</ele><time>2026-04-03T12:44:12.743Z</time></trkpt><trkpt lat="44.076650429908426" lon="11.726369377573636"><ele>509.5</ele><time>2026-04-03T12:44:13.743Z</time></trkpt><trkpt lat="44.076730940045415" lon="11.726286524214983"><ele>512.75</ele><time>2026-04-03T12:44:14.743Z</time></trkpt><trkpt lat="44.076846061224515" lon="11.726221914667537"><ele>516.0</ele><time>2026-04-03T12:44:15.743Z</time></trkpt><trkpt lat="44.076968703794044" lon="11.726156337107302"><ele>516.0</ele><time>2026-04-03T12:44:16.743Z</time></trkpt><trkpt lat="44.07707116145546" lon="11.726064115437358"><ele>516.0</ele><time>2026-04-03T12:44:17.743Z</time></trkpt><trkpt lat="44.07715507563547" lon="11.725961461319786"><ele>516.0</ele><time>2026-04-03T12:44:18.743Z</time></trkpt><trkpt lat="44.077240478632106" lon="11.725860350662927"><ele>516.0</ele><time>2026-04-03T12:44:19.743Z</time></trkpt><trkpt lat="44.07734139906939" lon="11.725778632397585"><ele>522.0</ele><time>2026-04-03T12:44:20.743Z</time></trkpt><trkpt lat="44.07745462251871" lon="11.72572477960302"><ele>528.0</ele><time>2026-04-03T12:44:21.743Z</time></trkpt><trkpt lat="44.077579594501394" lon="11.725683333554855"><ele>534.0</ele><time>2026-04-03T12:44:22.743Z</time></trkpt><trkpt lat="44.07769438824085" lon="11.725644310131495"><ele>540.0</ele><time>2026-04-03T12:44:23.743Z</time></trkpt><trkpt lat="44.077793012932005" lon="11.725631485893052"><ele>540.0</ele><time>2026-04-03T12:44:24.743Z</time></trkpt><trkpt lat="44.07788683597885" lon="11.725631749480868"><ele>540.0</ele><time>2026-04-03T12:44:25.743Z</time></trkpt><trkpt lat="44.077962226323244" lon="11.725625410529586"><ele>540.0</ele><time>2026-04-03T12:44:26.743Z</time></trkpt><trkpt lat="44.078005337546934" lon="11.725493993569028"><ele>540.0</ele><time>2026-04-03T12:44:28.743Z</time></trkpt><trkpt lat="44.07794435249403" lon="11.725395872110312"><ele>540.0</ele><time>2026-04-03T12:44:29.743Z</time></trkpt><trkpt lat="44.077830129288955" lon="11.725370129563295"><ele>540.0</ele><time>2026-04-03T12:44:30.743Z</time></trkpt><trkpt lat="44.077706197266885" lon="11.725387902358896"><ele>540.0</ele><time>2026-04-03T12:44:31.743Z</time></trkpt><trkpt lat="44.07758234513999" lon="11.725413938241296"><ele>540.0</ele><time>2026-04-03T12:44:32.743Z</time></trkpt><trkpt lat="44.077446790957296" lon="11.72540871788783"><ele>540.0</ele><time>2026-04-03T12:44:33.743Z</time></trkpt><trkpt lat="44.07731844696658" lon="11.72539255541358"><ele>540.0</ele><time>2026-04-03T12:44:34.743Z</time></trkpt><trkpt lat="44.07719301628272" lon="11.72536111649852"><ele>540.0</ele><time>2026-04-03T12:44:35.743Z</time></trkpt><trkpt lat="44.077077629194406" lon="11.725340651533477"><ele>540.0</ele><time>2026-04-03T12:44:36.743Z</time></trkpt><trkpt lat="44.076972055879864" lon="11.725356408575687"><ele>540.0</ele><time>2026-04-03T12:44:37.743Z</time></trkpt><trkpt lat="44.076874155900725" lon="11.725390776429672"><ele>540.0</ele><time>2026-04-03T12:44:38.743Z</time></trkpt><trkpt lat="44.07677987380236" lon="11.72540421376422"><ele>540.0</ele><time>2026-04-03T12:44:39.743Z</time></trkpt><trkpt lat="44.076679413158125" lon="11.725385209637226"><ele>540.0</ele><time>2026-04-03T12:44:40.743Z</time></trkpt><trkpt lat="44.07657294953455" lon="11.72530264599826"><ele>540.0</ele><time>2026-04-03T12:44:41.743Z</time></trkpt><trkpt lat="44.076474150252885" lon="11.72520489173737"><ele>540.0</ele><time>2026-04-03T12:44:42.743Z</time></trkpt><trkpt lat="44.07640039373761" lon="11.725104949407248"><ele>541.2</ele><time>2026-04-03T12:44:43.743Z</time></trkpt><trkpt lat="44.076344554744544" lon="11.724970344173155"><ele>542.4</ele><time>2026-04-03T12:44:44.743Z</time></trkpt><trkpt lat="44.07631604703889" lon="11.724813561763176"><ele>543.6</ele><time>2026-04-03T12:44:45.743Z</time></trkpt><trkpt lat="44.07630260697491" lon="11.7246612891048"><ele>544.8</ele><time>2026-04-03T12:44:46.743Z</time></trkpt><trkpt lat="44.07629022145286" lon="11.724520229003051"><ele>546.0</ele><time>2026-04-03T12:44:47.743Z</time></trkpt><trkpt lat="44.07630135931544" lon="11.7243666627047"><ele>549.6</ele><time>2026-04-03T12:44:48.743Z</time></trkpt><trkpt lat="44.076304671260914" lon="11.72421835648402"><ele>553.2</ele><time>2026-04-03T12:44:49.743Z</time></trkpt><trkpt lat="44.07627824624545" lon="11.724081302284011"><ele>556.8</ele><time>2026-04-03T12:44:50.743Z</time></trkpt><trkpt lat="44.0762226282613" lon="11.723974915091132"><ele>560.4</ele><time>2026-04-03T12:44:51.743Z</time></trkpt><trkpt lat="44.07614401887239" lon="11.723911474893274"><ele>564.0</ele><time>2026-04-03T12:44:52.743Z</time></trkpt><trkpt lat="44.07606352955211" lon="11.723864584113809"><ele>564.0</ele><time>2026-04-03T12:44:53.743Z</time></trkpt><trkpt lat="44.07595455956529" lon="11.723863250479608"><ele>564.0</ele><time>2026-04-03T12:44:54.743Z</time></trkpt><trkpt lat="44.075867612797005" lon="11.723859074832761"><ele>564.0</ele><time>2026-04-03T12:44:55.743Z</time></trkpt><trkpt lat="44.07579559498541" lon="11.72380958350972"><ele>564.0</ele><time>2026-04-03T12:44:56.743Z</time></trkpt><trkpt lat="44.07575165662343" lon="11.723703314902536"><ele>564.0</ele><time>2026-04-03T12:44:57.743Z</time></trkpt><trkpt lat="44.075709145934965" lon="11.723571386164059"><ele>560.25</ele><time>2026-04-03T12:44:58.743Z</time></trkpt><trkpt lat="44.075666984680495" lon="11.72342948748218"><ele>556.5</ele><time>2026-04-03T12:44:59.743Z</time></trkpt><trkpt lat="44.075620285693304" lon="11.723257341419247"><ele>552.75</ele><time>2026-04-03T12:45:00.743Z</time></trkpt><trkpt lat="44.07558498844527" lon="11.723092685628332"><ele>549.0</ele><time>2026-04-03T12:45:01.743Z</time></trkpt><trkpt lat="44.075559774043" lon="11.722914270208603"><ele>552.5</ele><time>2026-04-03T12:45:02.743Z</time></trkpt><trkpt lat="44.07552983548332" lon="11.722723042503828"><ele>556.0</ele><time>2026-04-03T12:45:03.743Z</time></trkpt><trkpt lat="44.075514605944974" lon="11.72252932936401"><ele>559.5</ele><time>2026-04-03T12:45:04.743Z</time></trkpt><trkpt lat="44.075498489808844" lon="11.7223410536833"><ele>563.0</ele><time>2026-04-03T12:45:05.743Z</time></trkpt><trkpt lat="44.07549103960074" lon="11.722182788534742"><ele>563.0</ele><time>2026-04-03T12:45:06.743Z</time></trkpt><trkpt lat="44.07548455337888" lon="11.722017999133046"><ele>563.0</ele><time>2026-04-03T12:45:07.743Z</time></trkpt><trkpt lat="44.075485708420864" lon="11.721853327194651"><ele>563.0</ele><time>2026-04-03T12:45:08.743Z</time></trkpt><trkpt lat="44.075467023048226" lon="11.721694800219796"><ele>563.0</ele><time>2026-04-03T12:45:09.742Z</time></trkpt><trkpt lat="44.075434860741154" lon="11.721546310954785"><ele>567.5</ele><time>2026-04-03T12:45:10.742Z</time></trkpt><trkpt lat="44.075387005035154" lon="11.721386998134005"><ele>572.0</ele><time>2026-04-03T12:45:11.742Z</time></trkpt><trkpt lat="44.075322534106874" lon="11.721212718519784"><ele>576.5</ele><time>2026-04-03T12:45:12.742Z</time></trkpt><trkpt lat="44.07524102181002" lon="11.721062467640508"><ele>581.0</ele><time>2026-04-03T12:45:13.742Z</time></trkpt><trkpt lat="44.07516684079399" lon="11.720925403554434"><ele>583.5</ele><time>2026-04-03T12:45:14.741Z</time></trkpt><trkpt lat="44.075082038311" lon="11.720807321184854"><ele>586.0</ele><time>2026-04-03T12:45:15.742Z</time></trkpt><trkpt lat="44.07502346652741" lon="11.720668683371338"><ele>588.5</ele><time>2026-04-03T12:45:16.742Z</time></trkpt><trkpt lat="44.07499365157087" lon="11.720524501934952"><ele>591.0</ele><time>2026-04-03T12:45:17.742Z</time></trkpt><trkpt lat="44.074998230856664" lon="11.720366281203344"><ele>589.75</ele><time>2026-04-03T12:45:18.741Z</time></trkpt><trkpt lat="44.07502499301506" lon="11.720209801885451"><ele>588.5</ele><time>2026-04-03T12:45:19.741Z</time></trkpt><trkpt lat="44.07504942511562" lon="11.720052521707045"><ele>587.25</ele><time>2026-04-03T12:45:20.741Z</time></trkpt><trkpt lat="44.07504336186111" lon="11.719878231666922"><ele>586.0</ele><time>2026-04-03T12:45:21.741Z</time></trkpt><trkpt lat="44.074995311346676" lon="11.719722620091067"><ele>587.0</ele><time>2026-04-03T12:45:22.742Z</time></trkpt><trkpt lat="44.074932302276416" lon="11.719534596963207"><ele>588.0</ele><time>2026-04-03T12:45:23.742Z</time></trkpt><trkpt lat="44.074868121402716" lon="11.719363989210827"><ele>589.0</ele><time>2026-04-03T12:45:24.742Z</time></trkpt><trkpt lat="44.07481650883763" lon="11.719176746251225"><ele>590.0</ele><time>2026-04-03T12:45:25.742Z</time></trkpt><trkpt lat="44.07475635709242" lon="11.719010847482947"><ele>590.5</ele><time>2026-04-03T12:45:26.742Z</time></trkpt><trkpt lat="44.074692972331235" lon="11.718819635542257"><ele>591.0</ele><time>2026-04-03T12:45:27.742Z</time></trkpt><trkpt lat="44.074616588504846" lon="11.718651887229122"><ele>591.5</ele><time>2026-04-03T12:45:28.742Z</time></trkpt><trkpt lat="44.074532074081695" lon="11.718497732482254"><ele>592.0</ele><time>2026-04-03T12:45:29.742Z</time></trkpt><trkpt lat="44.07445090725198" lon="11.718340019202547"><ele>590.0</ele><time>2026-04-03T12:45:30.742Z</time></trkpt><trkpt lat="44.07438937251307" lon="11.7181845277188"><ele>588.0</ele><time>2026-04-03T12:45:31.742Z</time></trkpt><trkpt lat="44.07434965880187" lon="11.718014626607115"><ele>586.0</ele><time>2026-04-03T12:45:32.742Z</time></trkpt><trkpt lat="44.07432251867042" lon="11.717830238032828"><ele>584.0</ele><time>2026-04-03T12:45:33.742Z</time></trkpt><trkpt lat="44.07432771897538" lon="11.717639951337459"><ele>581.5</ele><time>2026-04-03T12:45:34.742Z</time></trkpt><trkpt lat="44.07433674731012" lon="11.717450304236522"><ele>579.0</ele><time>2026-04-03T12:45:35.742Z</time></trkpt><trkpt lat="44.074354396750785" lon="11.717290414016338"><ele>576.5</ele><time>2026-04-03T12:45:36.742Z</time></trkpt><trkpt lat="44.07440369517959" lon="11.717124899409406"><ele>574.0</ele><time>2026-04-03T12:45:37.742Z</time></trkpt><trkpt lat="44.07449602073072" lon="11.716972079205117"><ele>571.25</ele><time>2026-04-03T12:45:38.742Z</time></trkpt><trkpt lat="44.074615936656215" lon="11.716844937761667"><ele>568.5</ele><time>2026-04-03T12:45:39.742Z</time></trkpt><trkpt lat="44.074716180144144" lon="11.716727081148353"><ele>565.75</ele><time>2026-04-03T12:45:40.742Z</time></trkpt><trkpt lat="44.07478939916086" lon="11.716632331255411"><ele>563.0</ele><time>2026-04-03T12:45:41.742Z</time></trkpt><trkpt lat="44.07483505292292" lon="11.716511625612007"><ele>563.0</ele><time>2026-04-03T12:45:42.742Z</time></trkpt><trkpt lat="44.07487425097149" lon="11.716406945300141"><ele>563.0</ele><time>2026-04-03T12:45:43.742Z</time></trkpt><trkpt lat="44.074916187660584" lon="11.716339797452672"><ele>563.0</ele><time>2026-04-03T12:45:44.742Z</time></trkpt><trkpt lat="44.07503065672767" lon="11.716363793302495"><ele>563.0</ele><time>2026-04-03T12:45:46.742Z</time></trkpt><trkpt lat="44.075073473851866" lon="11.71648391300534"><ele>563.0</ele><time>2026-04-03T12:45:47.742Z</time></trkpt><trkpt lat="44.075074528894326" lon="11.716603678722338"><ele>563.0</ele><time>2026-04-03T12:45:48.742Z</time></trkpt><trkpt lat="44.07504272932626" lon="11.716729995418465"><ele>565.1999999999999</ele><time>2026-04-03T12:45:49.742Z</time></trkpt><trkpt lat="44.07497656312093" lon="11.716848995738607"><ele>567.4</ele><time>2026-04-03T12:45:50.742Z</time></trkpt><trkpt lat="44.074900574965795" lon="11.716959335836693"><ele>569.5999999999999</ele><time>2026-04-03T12:45:51.742Z</time></trkpt><trkpt lat="44.07484231242294" lon="11.71706634880628"><ele>571.8</ele><time>2026-04-03T12:45:52.742Z</time></trkpt><trkpt lat="44.07479219932375" lon="11.717204177034327"><ele>574.0</ele><time>2026-04-03T12:45:53.742Z</time></trkpt><trkpt lat="44.07476915996856" lon="11.717356486398112"><ele>574.0</ele><time>2026-04-03T12:45:54.742Z</time></trkpt><trkpt lat="44.07477525147217" lon="11.717506203565005"><ele>574.0</ele><time>2026-04-03T12:45:55.742Z</time></trkpt><trkpt lat="44.0747978850872" lon="11.717644740310762"><ele>574.0</ele><time>2026-04-03T12:45:56.742Z</time></trkpt><trkpt lat="44.074827284071446" lon="11.717765913692178"><ele>574.0</ele><time>2026-04-03T12:45:57.742Z</time></trkpt><trkpt lat="44.07486650548329" lon="11.717874644459544"><ele>574.0</ele><time>2026-04-03T12:45:58.742Z</time></trkpt><trkpt lat="44.07493322365854" lon="11.717984277832693"><ele>569.5</ele><time>2026-04-03T12:45:59.742Z</time></trkpt><trkpt lat="44.07502195732193" lon="11.718057439727145"><ele>565.0</ele><time>2026-04-03T12:46:00.742Z</time></trkpt><trkpt lat="44.07513082463708" lon="11.7181150600537"><ele>560.5</ele><time>2026-04-03T12:46:01.742Z</time></trkpt><trkpt lat="44.07526831430729" lon="11.718126802300743"><ele>556.0</ele><time>2026-04-03T12:46:02.742Z</time></trkpt><trkpt lat="44.07540958129484" lon="11.718123277177126"><ele>556.0</ele><time>2026-04-03T12:46:03.742Z</time></trkpt><trkpt lat="44.07553040536672" lon="11.718096343208916"><ele>556.0</ele><time>2026-04-03T12:46:04.742Z</time></trkpt><trkpt lat="44.07566040616935" lon="11.718073752497165"><ele>556.0</ele><time>2026-04-03T12:46:05.742Z</time></trkpt><trkpt lat="44.075767339214536" lon="11.718058969568258"><ele>556.0</ele><time>2026-04-03T12:46:06.742Z</time></trkpt><trkpt lat="44.07586909648227" lon="11.71807685017112"><ele>551.3333333333334</ele><time>2026-04-03T12:46:07.742Z</time></trkpt><trkpt lat="44.07596341616664" lon="11.718128462264788"><ele>546.6666666666667</ele><time>2026-04-03T12:46:08.742Z</time></trkpt><trkpt lat="44.07604291978187" lon="11.7182169808192"><ele>542.0</ele><time>2026-04-03T12:46:09.742Z</time></trkpt><trkpt lat="44.07611188087295" lon="11.718318075073276"><ele>537.3333333333334</ele><time>2026-04-03T12:46:10.741Z</time></trkpt><trkpt lat="44.07617703048347" lon="11.718352503600473"><ele>532.6666666666666</ele><time>2026-04-03T12:46:11.741Z</time></trkpt><trkpt lat="44.076241821467214" lon="11.718328731222885"><ele>528.0</ele><time>2026-04-03T12:46:12.741Z</time></trkpt><trkpt lat="44.07629307674475" lon="11.718250502794444"><ele>528.0</ele><time>2026-04-03T12:46:13.741Z</time></trkpt><trkpt lat="44.07630005441964" lon="11.718150556538637"><ele>528.0</ele><time>2026-04-03T12:46:14.741Z</time></trkpt><trkpt lat="44.07623469927775" lon="11.718056462984054"><ele>528.0</ele><time>2026-04-03T12:46:15.741Z</time></trkpt><trkpt lat="44.07613166371641" lon="11.717978439537635"><ele>528.0</ele><time>2026-04-03T12:46:16.741Z</time></trkpt><trkpt lat="44.07601951779771" lon="11.717904932907064"><ele>528.0</ele><time>2026-04-03T12:46:17.741Z</time></trkpt><trkpt lat="44.07591388100405" lon="11.717851166875164"><ele>528.0</ele><time>2026-04-03T12:46:18.741Z</time></trkpt><trkpt lat="44.075818650057215" lon="11.717821624748733"><ele>528.0</ele><time>2026-04-03T12:46:19.741Z</time></trkpt><trkpt lat="44.07570967344825" lon="11.717796028557931"><ele>528.0</ele><time>2026-04-03T12:46:20.741Z</time></trkpt><trkpt lat="44.07560892090526" lon="11.717769009334097"><ele>528.0</ele><time>2026-04-03T12:46:21.741Z</time></trkpt><trkpt lat="44.07553406528296" lon="11.717688650680303"><ele>528.0</ele><time>2026-04-03T12:46:22.741Z</time></trkpt><trkpt lat="44.07548493396495" lon="11.71759327075218"><ele>531.0</ele><time>2026-04-03T12:46:23.741Z</time></trkpt><trkpt lat="44.07545677263191" lon="11.717458828619868"><ele>534.0</ele><time>2026-04-03T12:46:24.741Z</time></trkpt><trkpt lat="44.0754704148905" lon="11.717276328980772"><ele>537.0</ele><time>2026-04-03T12:46:25.741Z</time></trkpt><trkpt lat="44.07552168825689" lon="11.717109634833358"><ele>540.0</ele><time>2026-04-03T12:46:26.741Z</time></trkpt><trkpt lat="44.07557930706342" lon="11.716950846409535"><ele>541.25</ele><time>2026-04-03T12:46:27.741Z</time></trkpt><trkpt lat="44.07566781978121" lon="11.716797143329051"><ele>542.5</ele><time>2026-04-03T12:46:28.741Z</time></trkpt><trkpt lat="44.075761015269514" lon="11.716651780700696"><ele>543.75</ele><time>2026-04-03T12:46:29.741Z</time></trkpt><trkpt lat="44.075854287486365" lon="11.716497813700865"><ele>545.0</ele><time>2026-04-03T12:46:30.741Z</time></trkpt><trkpt lat="44.07594154453455" lon="11.716358512265606"><ele>536.25</ele><time>2026-04-03T12:46:31.741Z</time></trkpt><trkpt lat="44.07602089742012" lon="11.716212743785512"><ele>527.5</ele><time>2026-04-03T12:46:32.741Z</time></trkpt><trkpt lat="44.07609273107608" lon="11.716055316389326"><ele>518.75</ele><time>2026-04-03T12:46:33.741Z</time></trkpt><trkpt lat="44.07618080764921" lon="11.715897674313979"><ele>510.0</ele><time>2026-04-03T12:46:34.741Z</time></trkpt><trkpt lat="44.07626526956627" lon="11.715756416095404"><ele>510.0</ele><time>2026-04-03T12:46:35.741Z</time></trkpt><trkpt lat="44.07636657454944" lon="11.715645656666148"><ele>510.0</ele><time>2026-04-03T12:46:36.741Z</time></trkpt><trkpt lat="44.076464072792014" lon="11.715556809557226"><ele>510.0</ele><time>2026-04-03T12:46:37.741Z</time></trkpt><trkpt lat="44.076555899773936" lon="11.715492949136124"><ele>510.0</ele><time>2026-04-03T12:46:38.741Z</time></trkpt><trkpt lat="44.07660620676748" lon="11.715416922296216"><ele>510.0</ele><time>2026-04-03T12:46:39.741Z</time></trkpt><trkpt lat="44.07659300764123" lon="11.715273588193323"><ele>510.0</ele><time>2026-04-03T12:46:41.741Z</time></trkpt><trkpt lat="44.07652841856444" lon="11.715229912445098"><ele>510.0</ele><time>2026-04-03T12:46:42.741Z</time></trkpt><trkpt lat="44.076438429237015" lon="11.715220234123574"><ele>510.0</ele><time>2026-04-03T12:46:43.741Z</time></trkpt><trkpt lat="44.07632987663238" lon="11.715239559206376"><ele>510.0</ele><time>2026-04-03T12:46:44.741Z</time></trkpt><trkpt lat="44.07622998645887" lon="11.715252980048035"><ele>510.0</ele><time>2026-04-03T12:46:45.741Z</time></trkpt><trkpt lat="44.07612249748347" lon="11.715225638046897"><ele>510.75</ele><time>2026-04-03T12:46:46.741Z</time></trkpt><trkpt lat="44.07601571178376" lon="11.715151939371449"><ele>511.5</ele><time>2026-04-03T12:46:47.741Z</time></trkpt><trkpt lat="44.07591997726024" lon="11.715052658091661"><ele>512.25</ele><time>2026-04-03T12:46:48.741Z</time></trkpt><trkpt lat="44.075821906138614" lon="11.714929581105757"><ele>513.0</ele><time>2026-04-03T12:46:49.741Z</time></trkpt><trkpt lat="44.075734296449724" lon="11.714828200603652"><ele>513.0</ele><time>2026-04-03T12:46:50.741Z</time></trkpt><trkpt lat="44.075647116888746" lon="11.71472419815442"><ele>513.0</ele><time>2026-04-03T12:46:51.741Z</time></trkpt><trkpt lat="44.07555655945258" lon="11.714615066293774"><ele>513.0</ele><time>2026-04-03T12:46:52.741Z</time></trkpt><trkpt lat="44.07544174326008" lon="11.714528171682447"><ele>513.0</ele><time>2026-04-03T12:46:53.741Z</time></trkpt><trkpt lat="44.07532951014233" lon="11.714458006619944"><ele>512.8</ele><time>2026-04-03T12:46:54.741Z</time></trkpt><trkpt lat="44.07523353846827" lon="11.71439957065413"><ele>512.5999999999999</ele><time>2026-04-03T12:46:55.741Z</time></trkpt><trkpt lat="44.075133939678224" lon="11.714359607166317"><ele>512.4000000000001</ele><time>2026-04-03T12:46:56.741Z</time></trkpt><trkpt lat="44.07501680428492" lon="11.71437819925811"><ele>512.2</ele><time>2026-04-03T12:46:57.741Z</time></trkpt><trkpt lat="44.07493010458648" lon="11.714388408102284"><ele>512.0</ele><time>2026-04-03T12:46:58.741Z</time></trkpt><trkpt lat="44.07484158281072" lon="11.714401504203897"><ele>511.99999999999994</ele><time>2026-04-03T12:46:59.741Z</time></trkpt><trkpt lat="44.07475792050027" lon="11.71439094837425"><ele>512.0</ele><time>2026-04-03T12:47:00.741Z</time></trkpt><trkpt lat="44.07469350623834" lon="11.714351967635631"><ele>512.0</ele><time>2026-04-03T12:47:01.741Z</time></trkpt><trkpt lat="44.0746585691049" lon="11.7142720023128"><ele>512.0</ele><time>2026-04-03T12:47:02.741Z</time></trkpt><trkpt lat="44.07465245647617" lon="11.714155412659515"><ele>511.99999999999994</ele><time>2026-04-03T12:47:03.741Z</time></trkpt><trkpt lat="44.07469415157157" lon="11.714049945414581"><ele>512.0</ele><time>2026-04-03T12:47:04.741Z</time></trkpt><trkpt lat="44.074768290082986" lon="11.713948827686169"><ele>512.0</ele><time>2026-04-03T12:47:05.741Z</time></trkpt><trkpt lat="44.07486084318654" lon="11.71386165548837"><ele>512.0</ele><time>2026-04-03T12:47:06.741Z</time></trkpt><trkpt lat="44.07497435879689" lon="11.713775828174967"><ele>512.0</ele><time>2026-04-03T12:47:07.741Z</time></trkpt><trkpt lat="44.07509229177951" lon="11.713701020973492"><ele>512.0</ele><time>2026-04-03T12:47:08.741Z</time></trkpt><trkpt lat="44.07521755671295" lon="11.713631216817289"><ele>507.75</ele><time>2026-04-03T12:47:09.741Z</time></trkpt><trkpt lat="44.07533567394509" lon="11.713559395215071"><ele>503.5</ele><time>2026-04-03T12:47:10.741Z</time></trkpt><trkpt lat="44.0754514842615" lon="11.713500317129954"><ele>499.25</ele><time>2026-04-03T12:47:11.741Z</time></trkpt><trkpt lat="44.075569140608984" lon="11.713442981875945"><ele>495.0</ele><time>2026-04-03T12:47:12.741Z</time></trkpt><trkpt lat="44.07567635103812" lon="11.713377589369728"><ele>487.5</ele><time>2026-04-03T12:47:13.741Z</time></trkpt><trkpt lat="44.07577059481368" lon="11.713270973106175"><ele>480.0</ele><time>2026-04-03T12:47:14.741Z</time></trkpt><trkpt lat="44.07584447668538" lon="11.713123918344674"><ele>472.5</ele><time>2026-04-03T12:47:15.739Z</time></trkpt><trkpt lat="44.075889975883726" lon="11.712965811879759"><ele>465.0</ele><time>2026-04-03T12:47:16.739Z</time></trkpt><trkpt lat="44.0759379260462" lon="11.71280785586672"><ele>469.75</ele><time>2026-04-03T12:47:17.739Z</time></trkpt><trkpt lat="44.076012706472405" lon="11.712666514942194"><ele>474.5</ele><time>2026-04-03T12:47:18.739Z</time></trkpt><trkpt lat="44.0761117351122" lon="11.712544172068403"><ele>479.25</ele><time>2026-04-03T12:47:19.739Z</time></trkpt><trkpt lat="44.076234209463664" lon="11.712427722057985"><ele>484.0</ele><time>2026-04-03T12:47:20.739Z</time></trkpt><trkpt lat="44.076364951495506" lon="11.71230503225877"><ele>484.0</ele><time>2026-04-03T12:47:21.739Z</time></trkpt><trkpt lat="44.07649484244232" lon="11.712193395180604"><ele>484.0</ele><time>2026-04-03T12:47:22.739Z</time></trkpt><trkpt lat="44.07662512463162" lon="11.71208420309391"><ele>484.0</ele><time>2026-04-03T12:47:23.739Z</time></trkpt><trkpt lat="44.07675107962644" lon="11.711985887256688"><ele>484.0</ele><time>2026-04-03T12:47:24.738Z</time></trkpt><trkpt lat="44.07688628263325" lon="11.711894867985256"><ele>480.75</ele><time>2026-04-03T12:47:25.738Z</time></trkpt><trkpt lat="44.07702709614531" lon="11.711809812297185"><ele>477.5</ele><time>2026-04-03T12:47:26.738Z</time></trkpt><trkpt lat="44.07715677508579" lon="11.711738785255516"><ele>474.25</ele><time>2026-04-03T12:47:27.738Z</time></trkpt><trkpt lat="44.077278180805884" lon="11.711663974706388"><ele>471.0</ele><time>2026-04-03T12:47:28.738Z</time></trkpt><trkpt lat="44.07737891037068" lon="11.711579280269858"><ele>463.75</ele><time>2026-04-03T12:47:29.738Z</time></trkpt><trkpt lat="44.07745316480784" lon="11.711472632084206"><ele>456.5</ele><time>2026-04-03T12:47:30.738Z</time></trkpt><trkpt lat="44.07751359256011" lon="11.711351034455387"><ele>449.25</ele><time>2026-04-03T12:47:31.738Z</time></trkpt><trkpt lat="44.077546376615004" lon="11.711193580430741"><ele>442.0</ele><time>2026-04-03T12:47:32.738Z</time></trkpt><trkpt lat="44.077571305232546" lon="11.711012765158562"><ele>442.0</ele><time>2026-04-03T12:47:33.738Z</time></trkpt><trkpt lat="44.07758620440332" lon="11.71080859523852"><ele>442.0</ele><time>2026-04-03T12:47:34.738Z</time></trkpt><trkpt lat="44.077589102302866" lon="11.710608800455628"><ele>442.0</ele><time>2026-04-03T12:47:35.738Z</time></trkpt><trkpt lat="44.07759975827617" lon="11.710405697544555"><ele>442.0</ele><time>2026-04-03T12:47:36.738Z</time></trkpt><trkpt lat="44.077601861235344" lon="11.710216974843446"><ele>441.75</ele><time>2026-04-03T12:47:37.738Z</time></trkpt><trkpt lat="44.07760707905302" lon="11.710031720130209"><ele>441.5</ele><time>2026-04-03T12:47:38.738Z</time></trkpt><trkpt lat="44.07762624385227" lon="11.709853641971726"><ele>441.25</ele><time>2026-04-03T12:47:39.738Z</time></trkpt><trkpt lat="44.077668578433695" lon="11.70968399874747"><ele>441.0</ele><time>2026-04-03T12:47:40.738Z</time></trkpt><trkpt lat="44.0777206647482" lon="11.70953825940727"><ele>441.0</ele><time>2026-04-03T12:47:41.738Z</time></trkpt><trkpt lat="44.07779102243524" lon="11.709412424948608"><ele>441.0</ele><time>2026-04-03T12:47:42.738Z</time></trkpt><trkpt lat="44.07787244470906" lon="11.709276137711699"><ele>441.0</ele><time>2026-04-03T12:47:43.738Z</time></trkpt><trkpt lat="44.07795962546005" lon="11.709136428099768"><ele>441.0</ele><time>2026-04-03T12:47:44.738Z</time></trkpt><trkpt lat="44.078040364799236" lon="11.708986722925143"><ele>441.0</ele><time>2026-04-03T12:47:45.738Z</time></trkpt><trkpt lat="44.07811163684822" lon="11.708832042755645"><ele>441.0</ele><time>2026-04-03T12:47:46.738Z</time></trkpt><trkpt lat="44.078160731234995" lon="11.708688830186126"><ele>441.0</ele><time>2026-04-03T12:47:47.738Z</time></trkpt><trkpt lat="44.07819944858705" lon="11.70856077632668"><ele>441.0</ele><time>2026-04-03T12:47:48.738Z</time></trkpt><trkpt lat="44.07823844172218" lon="11.708460880879855"><ele>441.0</ele><time>2026-04-03T12:47:49.738Z</time></trkpt><trkpt lat="44.07828920695105" lon="11.708406496881695"><ele>435.8</ele><time>2026-04-03T12:47:50.738Z</time></trkpt><trkpt lat="44.07839450839877" lon="11.708458893770095"><ele>430.6</ele><time>2026-04-03T12:47:52.738Z</time></trkpt><trkpt lat="44.078432035523875" lon="11.70857746499984"><ele>425.4</ele><time>2026-04-03T12:47:53.738Z</time></trkpt><trkpt lat="44.078469198079205" lon="11.708723918645951"><ele>420.2</ele><time>2026-04-03T12:47:54.738Z</time></trkpt><trkpt lat="44.0784987103793" lon="11.708892559812073"><ele>415.0</ele><time>2026-04-03T12:47:55.738Z</time></trkpt><trkpt lat="44.078533404990864" lon="11.709059116106026"><ele>414.0</ele><time>2026-04-03T12:47:56.738Z</time></trkpt><trkpt lat="44.078584614222315" lon="11.709200031785993"><ele>413.0</ele><time>2026-04-03T12:47:57.738Z</time></trkpt><trkpt lat="44.07865474464827" lon="11.709321212013366"><ele>412.0</ele><time>2026-04-03T12:47:58.738Z</time></trkpt><trkpt lat="44.078764174744514" lon="11.709413203135398"><ele>411.0</ele><time>2026-04-03T12:47:59.738Z</time></trkpt><trkpt lat="44.07889327194908" lon="11.70946690209195"><ele>410.25</ele><time>2026-04-03T12:48:00.738Z</time></trkpt><trkpt lat="44.0790428966567" lon="11.709491812018273"><ele>409.5</ele><time>2026-04-03T12:48:01.738Z</time></trkpt><trkpt lat="44.079185916678284" lon="11.709515084999337"><ele>408.75</ele><time>2026-04-03T12:48:02.738Z</time></trkpt><trkpt lat="44.0793198681286" lon="11.70957052019082"><ele>408.0</ele><time>2026-04-03T12:48:03.738Z</time></trkpt><trkpt lat="44.0794380680743" lon="11.709655298707892"><ele>404.0</ele><time>2026-04-03T12:48:04.738Z</time></trkpt><trkpt lat="44.07952744446773" lon="11.709782294610664"><ele>400.0</ele><time>2026-04-03T12:48:05.738Z</time></trkpt><trkpt lat="44.07960956708354" lon="11.709905099228035"><ele>396.0</ele><time>2026-04-03T12:48:06.738Z</time></trkpt><trkpt lat="44.079702618753586" lon="11.709987087403048"><ele>392.0</ele><time>2026-04-03T12:48:07.738Z</time></trkpt><trkpt lat="44.07979796344686" lon="11.71002568173208"><ele>392.0</ele><time>2026-04-03T12:48:08.738Z</time></trkpt><trkpt lat="44.07989203648443" lon="11.710014662962083"><ele>392.0</ele><time>2026-04-03T12:48:09.738Z</time></trkpt><trkpt lat="44.079975176912534" lon="11.709962849046343"><ele>392.0</ele><time>2026-04-03T12:48:10.738Z</time></trkpt><trkpt lat="44.080045179803314" lon="11.709871707923769"><ele>392.0</ele><time>2026-04-03T12:48:11.738Z</time></trkpt><trkpt lat="44.08007867257251" lon="11.709760063855509"><ele>392.0</ele><time>2026-04-03T12:48:12.738Z</time></trkpt><trkpt lat="44.08009248209382" lon="11.709626663070457"><ele>390.49999999999994</ele><time>2026-04-03T12:48:13.738Z</time></trkpt><trkpt lat="44.080097614379106" lon="11.7094950811381"><ele>389.0</ele><time>2026-04-03T12:48:14.738Z</time></trkpt><trkpt lat="44.08011013431081" lon="11.709378324450933"><ele>387.5</ele><time>2026-04-03T12:48:15.738Z</time></trkpt><trkpt lat="44.0801433454368" lon="11.709273557304092"><ele>386.0</ele><time>2026-04-03T12:48:16.738Z</time></trkpt><trkpt lat="44.08018792061625" lon="11.70919836266373"><ele>384.5</ele><time>2026-04-03T12:48:17.738Z</time></trkpt><trkpt lat="44.08024276406178" lon="11.70914145389454"><ele>383.0</ele><time>2026-04-03T12:48:18.738Z</time></trkpt><trkpt lat="44.08036426160512" lon="11.709085408953987"><ele>383.0</ele><time>2026-04-03T12:48:20.738Z</time></trkpt><trkpt lat="44.08043232500945" lon="11.709112804063967"><ele>383.0</ele><time>2026-04-03T12:48:21.738Z</time></trkpt><trkpt lat="44.08050564246782" lon="11.709178431932324"><ele>383.0</ele><time>2026-04-03T12:48:22.738Z</time></trkpt><trkpt lat="44.08059645349867" lon="11.709228033478919"><ele>383.0</ele><time>2026-04-03T12:48:23.738Z</time></trkpt><trkpt lat="44.08070083924203" lon="11.70925739533553"><ele>383.0</ele><time>2026-04-03T12:48:24.738Z</time></trkpt><trkpt lat="44.08081369725375" lon="11.70927760576078"><ele>382.4</ele><time>2026-04-03T12:48:25.738Z</time></trkpt><trkpt lat="44.08091735094839" lon="11.709276870885446"><ele>381.79999999999995</ele><time>2026-04-03T12:48:26.738Z</time></trkpt><trkpt lat="44.081023793471864" lon="11.709276830700198"><ele>381.2</ele><time>2026-04-03T12:48:27.738Z</time></trkpt><trkpt lat="44.08111619814848" lon="11.70925665897858"><ele>380.6</ele><time>2026-04-03T12:48:28.738Z</time></trkpt><trkpt lat="44.08121206410313" lon="11.709256261866583"><ele>380.0</ele><time>2026-04-03T12:48:29.738Z</time></trkpt><trkpt lat="44.08131427324201" lon="11.709296824196764"><ele>380.0</ele><time>2026-04-03T12:48:30.738Z</time></trkpt><trkpt lat="44.08141951910429" lon="11.709369338277867"><ele>380.0</ele><time>2026-04-03T12:48:31.738Z</time></trkpt><trkpt lat="44.081515514783824" lon="11.709483895015921"><ele>380.0</ele><time>2026-04-03T12:48:32.738Z</time></trkpt><trkpt lat="44.081616398884954" lon="11.709641288649875"><ele>380.0</ele><time>2026-04-03T12:48:33.738Z</time></trkpt><trkpt lat="44.0817147856754" lon="11.709810065140724"><ele>379.33333333333337</ele><time>2026-04-03T12:48:34.738Z</time></trkpt><trkpt lat="44.08181076872077" lon="11.70996775337718"><ele>378.6666666666667</ele><time>2026-04-03T12:48:35.738Z</time></trkpt><trkpt lat="44.08191089853983" lon="11.710128008759067"><ele>378.0</ele><time>2026-04-03T12:48:36.738Z</time></trkpt><trkpt lat="44.082017623714115" lon="11.710293738778873"><ele>376.75</ele><time>2026-04-03T12:48:37.738Z</time></trkpt><trkpt lat="44.082122614251205" lon="11.710457975848598"><ele>375.5</ele><time>2026-04-03T12:48:38.738Z</time></trkpt><trkpt lat="44.08221374937275" lon="11.710614110646102"><ele>374.25</ele><time>2026-04-03T12:48:39.738Z</time></trkpt><trkpt lat="44.08229345552636" lon="11.710764605544453"><ele>373.0</ele><time>2026-04-03T12:48:40.738Z</time></trkpt><trkpt lat="44.08234996063572" lon="11.710921860295887"><ele>372.4</ele><time>2026-04-03T12:48:41.738Z</time></trkpt><trkpt lat="44.08238285784091" lon="11.711082855345287"><ele>371.79999999999995</ele><time>2026-04-03T12:48:42.738Z</time></trkpt><trkpt lat="44.08240720131121" lon="11.711242033012425"><ele>371.2</ele><time>2026-04-03T12:48:43.738Z</time></trkpt><trkpt lat="44.082425762169095" lon="11.711391725630518"><ele>370.6</ele><time>2026-04-03T12:48:44.738Z</time></trkpt><trkpt lat="44.08244767196787" lon="11.711515125893197"><ele>370.0</ele><time>2026-04-03T12:48:45.738Z</time></trkpt><trkpt lat="44.082471839395566" lon="11.711617944793765"><ele>371.8333333333333</ele><time>2026-04-03T12:48:46.738Z</time></trkpt><trkpt lat="44.08248869721399" lon="11.711712195740489"><ele>373.66666666666663</ele><time>2026-04-03T12:48:47.738Z</time></trkpt><trkpt lat="44.08251851464629" lon="11.711844144792776"><ele>375.5</ele><time>2026-04-03T12:48:49.738Z</time></trkpt><trkpt lat="44.082548747916704" lon="11.71192246155831"><ele>377.3333333333333</ele><time>2026-04-03T12:48:54.738Z</time></trkpt><trkpt lat="44.08260342263209" lon="11.71198220450173"><ele>379.1666666666667</ele><time>2026-04-03T12:50:20.736Z</time></trkpt><trkpt lat="44.08265587099723" lon="11.712138882054358"><ele>381.0</ele><time>2026-04-03T12:50:22.736Z</time></trkpt><trkpt lat="44.08267738477115" lon="11.712257464106546"><ele>381.0</ele><time>2026-04-03T12:50:23.736Z</time></trkpt><trkpt lat="44.08270391588889" lon="11.712389676069543"><ele>381.0</ele><time>2026-04-03T12:50:24.735Z</time></trkpt><trkpt lat="44.082734784316166" lon="11.712539504114872"><ele>381.0</ele><time>2026-04-03T12:50:25.735Z</time></trkpt><trkpt lat="44.082770347273694" lon="11.712712089663817"><ele>381.0</ele><time>2026-04-03T12:50:26.735Z</time></trkpt><trkpt lat="44.08281357514048" lon="11.712884908464094"><ele>378.25</ele><time>2026-04-03T12:50:27.735Z</time></trkpt><trkpt lat="44.08285484357608" lon="11.713065670125513"><ele>375.5</ele><time>2026-04-03T12:50:28.735Z</time></trkpt><trkpt lat="44.08290112865094" lon="11.713250991013002"><ele>372.75</ele><time>2026-04-03T12:50:29.735Z</time></trkpt><trkpt lat="44.08295215096196" lon="11.713425848102432"><ele>370.0</ele><time>2026-04-03T12:50:30.735Z</time></trkpt><trkpt lat="44.08301263782426" lon="11.713587406340823"><ele>369.25</ele><time>2026-04-03T12:50:31.735Z</time></trkpt><trkpt lat="44.08306601598005" lon="11.713742736120668"><ele>368.5</ele><time>2026-04-03T12:50:32.735Z</time></trkpt><trkpt lat="44.08312151279262" lon="11.71389060992403"><ele>367.75</ele><time>2026-04-03T12:50:33.735Z</time></trkpt><trkpt lat="44.08318403077113" lon="11.714041765810983"><ele>367.0</ele><time>2026-04-03T12:50:34.735Z</time></trkpt><trkpt lat="44.08323602936803" lon="11.714207234349225"><ele>368.5</ele><time>2026-04-03T12:50:35.735Z</time></trkpt><trkpt lat="44.08329678552329" lon="11.71437374937415"><ele>370.0</ele><time>2026-04-03T12:50:36.735Z</time></trkpt><trkpt lat="44.08337155288018" lon="11.714539859354476"><ele>371.5</ele><time>2026-04-03T12:50:37.735Z</time></trkpt><trkpt lat="44.08345534970815" lon="11.714697982879919"><ele>373.0</ele><time>2026-04-03T12:50:38.735Z</time></trkpt><trkpt lat="44.08354352699614" lon="11.714862365174266"><ele>373.0</ele><time>2026-04-03T12:50:39.735Z</time></trkpt><trkpt lat="44.0836233734098" lon="11.715034224778513"><ele>373.0</ele><time>2026-04-03T12:50:40.735Z</time></trkpt><trkpt lat="44.08370236266956" lon="11.715200175500616"><ele>373.0</ele><time>2026-04-03T12:50:41.735Z</time></trkpt><trkpt lat="44.08377479102186" lon="11.715347784192703"><ele>373.0</ele><time>2026-04-03T12:50:42.735Z</time></trkpt><trkpt lat="44.08383322264132" lon="11.715504131463291"><ele>370.5</ele><time>2026-04-03T12:50:43.735Z</time></trkpt><trkpt lat="44.08388446524462" lon="11.715682222364038"><ele>368.0</ele><time>2026-04-03T12:50:44.735Z</time></trkpt><trkpt lat="44.0839323012624" lon="11.715875722585396"><ele>365.5</ele><time>2026-04-03T12:50:45.735Z</time></trkpt><trkpt lat="44.08399375020169" lon="11.716075870643134"><ele>363.0</ele><time>2026-04-03T12:50:46.735Z</time></trkpt><trkpt lat="44.08405382864295" lon="11.716272023071216"><ele>363.5</ele><time>2026-04-03T12:50:47.735Z</time></trkpt><trkpt lat="44.08410932442982" lon="11.716451182515767"><ele>364.0</ele><time>2026-04-03T12:50:48.735Z</time></trkpt><trkpt lat="44.084162254914084" lon="11.716622707157821"><ele>364.5</ele><time>2026-04-03T12:50:49.735Z</time></trkpt><trkpt lat="44.084220029378535" lon="11.716780254744636"><ele>365.0</ele><time>2026-04-03T12:50:50.735Z</time></trkpt><trkpt lat="44.08429516167097" lon="11.716928804035426"><ele>365.0</ele><time>2026-04-03T12:50:51.735Z</time></trkpt><trkpt lat="44.08437338942715" lon="11.717059651666633"><ele>365.0</ele><time>2026-04-03T12:50:52.735Z</time></trkpt><trkpt lat="44.084462137430855" lon="11.717179658925422"><ele>365.0</ele><time>2026-04-03T12:50:53.735Z</time></trkpt><trkpt lat="44.084566869955864" lon="11.717270007521643"><ele>365.0</ele><time>2026-04-03T12:50:54.735Z</time></trkpt><trkpt lat="44.08469799063067" lon="11.717339695676118"><ele>365.0</ele><time>2026-04-03T12:50:55.735Z</time></trkpt><trkpt lat="44.08483809060659" lon="11.717395354981498"><ele>365.0</ele><time>2026-04-03T12:50:56.735Z</time></trkpt><trkpt lat="44.08498876694424" lon="11.717441905496951"><ele>365.0</ele><time>2026-04-03T12:50:57.735Z</time></trkpt><trkpt lat="44.0851525376157" lon="11.717479251441592"><ele>368.0</ele><time>2026-04-03T12:50:58.735Z</time></trkpt><trkpt lat="44.0853217156867" lon="11.71750994011526"><ele>371.0</ele><time>2026-04-03T12:50:59.735Z</time></trkpt><trkpt lat="44.08548437232646" lon="11.717537763371084"><ele>374.0</ele><time>2026-04-03T12:51:00.735Z</time></trkpt><trkpt lat="44.08564880226627" lon="11.717568910813938"><ele>376.33333333333337</ele><time>2026-04-03T12:51:01.735Z</time></trkpt><trkpt lat="44.08580984371973" lon="11.717599351328127"><ele>378.6666666666667</ele><time>2026-04-03T12:51:02.735Z</time></trkpt><trkpt lat="44.08597248738559" lon="11.717633523870985"><ele>381.0</ele><time>2026-04-03T12:51:03.735Z</time></trkpt><trkpt lat="44.08613094220739" lon="11.717667992663827"><ele>381.0</ele><time>2026-04-03T12:51:04.735Z</time></trkpt><trkpt lat="44.08629143619084" lon="11.717716419626143"><ele>381.0</ele><time>2026-04-03T12:51:05.735Z</time></trkpt><trkpt lat="44.08645079594577" lon="11.717777051445395"><ele>381.0</ele><time>2026-04-03T12:51:06.735Z</time></trkpt><trkpt lat="44.08662314218126" lon="11.71783009884307"><ele>374.0</ele><time>2026-04-03T12:51:07.735Z</time></trkpt><trkpt lat="44.0868059240165" lon="11.71785282253838"><ele>367.0</ele><time>2026-04-03T12:51:08.735Z</time></trkpt><trkpt lat="44.08699467333449" lon="11.717855747211074"><ele>360.0</ele><time>2026-04-03T12:51:09.735Z</time></trkpt><trkpt lat="44.087190611206985" lon="11.71786027522914"><ele>360.0</ele><time>2026-04-03T12:51:10.735Z</time></trkpt><trkpt lat="44.087389702646966" lon="11.717871751895805"><ele>360.0</ele><time>2026-04-03T12:51:11.735Z</time></trkpt><trkpt lat="44.08758857459099" lon="11.71788488940284"><ele>360.0</ele><time>2026-04-03T12:51:12.735Z</time></trkpt><trkpt lat="44.087796015984964" lon="11.717890795946433"><ele>359.3333333333333</ele><time>2026-04-03T12:51:13.735Z</time></trkpt><trkpt lat="44.08800063856108" lon="11.71790474984604"><ele>358.66666666666663</ele><time>2026-04-03T12:51:14.735Z</time></trkpt><trkpt lat="44.08819916761348" lon="11.717923023912437"><ele>358.0</ele><time>2026-04-03T12:51:15.735Z</time></trkpt><trkpt lat="44.08839736441471" lon="11.717942549945244"><ele>358.0</ele><time>2026-04-03T12:51:16.735Z</time></trkpt><trkpt lat="44.08859355069919" lon="11.717972179087598"><ele>358.0</ele><time>2026-04-03T12:51:17.735Z</time></trkpt><trkpt lat="44.08880043840915" lon="11.718008509410707"><ele>358.0</ele><time>2026-04-03T12:51:18.735Z</time></trkpt><trkpt lat="44.0890061813817" lon="11.71804666652548"><ele>358.66666666666663</ele><time>2026-04-03T12:51:19.735Z</time></trkpt><trkpt lat="44.089209170449855" lon="11.718087242279362"><ele>359.3333333333333</ele><time>2026-04-03T12:51:20.735Z</time></trkpt><trkpt lat="44.08941754542978" lon="11.718131097094984"><ele>360.0</ele><time>2026-04-03T12:51:21.735Z</time></trkpt><trkpt lat="44.089624314722926" lon="11.718171770530606"><ele>360.0</ele><time>2026-04-03T12:51:22.735Z</time></trkpt><trkpt lat="44.089832459028884" lon="11.718202173070967"><ele>360.0</ele><time>2026-04-03T12:51:23.735Z</time></trkpt><trkpt lat="44.090036472477514" lon="11.718226560409358"><ele>360.0</ele><time>2026-04-03T12:51:24.735Z</time></trkpt><trkpt lat="44.090238687156294" lon="11.718235330073783"><ele>359.3333333333333</ele><time>2026-04-03T12:51:25.735Z</time></trkpt><trkpt lat="44.09041997410413" lon="11.718243219777328"><ele>358.66666666666663</ele><time>2026-04-03T12:51:26.735Z</time></trkpt><trkpt lat="44.09059576456011" lon="11.718241880332915"><ele>358.0</ele><time>2026-04-03T12:51:27.734Z</time></trkpt><trkpt lat="44.09075317528802" lon="11.718220735841106"><ele>357.75</ele><time>2026-04-03T12:51:28.735Z</time></trkpt><trkpt lat="44.09090680584279" lon="11.718157727474942"><ele>357.5</ele><time>2026-04-03T12:51:29.735Z</time></trkpt><trkpt lat="44.09104405673744" lon="11.718071659834"><ele>357.25</ele><time>2026-04-03T12:51:30.734Z</time></trkpt><trkpt lat="44.09116993097857" lon="11.718026127574213"><ele>357.0</ele><time>2026-04-03T12:51:31.734Z</time></trkpt><trkpt lat="44.09128917176992" lon="11.718013337560365"><ele>357.0</ele><time>2026-04-03T12:51:32.734Z</time></trkpt><trkpt lat="44.0913976626495" lon="11.718040736174391"><ele>357.0</ele><time>2026-04-03T12:51:33.734Z</time></trkpt><trkpt lat="44.091495500876015" lon="11.718087602110765"><ele>357.0</ele><time>2026-04-03T12:51:34.734Z</time></trkpt><trkpt lat="44.09158683120935" lon="11.7181502691074"><ele>357.0</ele><time>2026-04-03T12:51:35.734Z</time></trkpt><trkpt lat="44.091691017982335" lon="11.71823637937124"><ele>357.0</ele><time>2026-04-03T12:51:36.734Z</time></trkpt><trkpt lat="44.091821733215156" lon="11.718315246458381"><ele>357.3333333333333</ele><time>2026-04-03T12:51:37.734Z</time></trkpt><trkpt lat="44.091964586141074" lon="11.718385490061081"><ele>357.66666666666663</ele><time>2026-04-03T12:51:38.734Z</time></trkpt><trkpt lat="44.09213561618663" lon="11.718426804677527"><ele>358.0</ele><time>2026-04-03T12:51:39.734Z</time></trkpt><trkpt lat="44.092324723064046" lon="11.718450092567869"><ele>361.0</ele><time>2026-04-03T12:51:40.734Z</time></trkpt><trkpt lat="44.092504491047066" lon="11.71847312257597"><ele>364.0</ele><time>2026-04-03T12:51:41.734Z</time></trkpt><trkpt lat="44.09268254818774" lon="11.718492519153823"><ele>367.0</ele><time>2026-04-03T12:51:42.734Z</time></trkpt><trkpt lat="44.09286352295401" lon="11.718511680285125"><ele>367.0</ele><time>2026-04-03T12:51:43.734Z</time></trkpt><trkpt lat="44.09304296285937" lon="11.718541788782693"><ele>367.0</ele><time>2026-04-03T12:51:44.734Z</time></trkpt><trkpt lat="44.093228735805475" lon="11.718574082693996"><ele>367.0</ele><time>2026-04-03T12:51:45.734Z</time></trkpt><trkpt lat="44.0934214850926" lon="11.718595940264498"><ele>360.0</ele><time>2026-04-03T12:51:46.734Z</time></trkpt><trkpt lat="44.09361861504885" lon="11.718611684837315"><ele>353.0</ele><time>2026-04-03T12:51:47.734Z</time></trkpt><trkpt lat="44.09380829395274" lon="11.718611215108611"><ele>346.0</ele><time>2026-04-03T12:51:48.734Z</time></trkpt><trkpt lat="44.09398239188841" lon="11.71858975959724"><ele>346.3333333333333</ele><time>2026-04-03T12:51:49.734Z</time></trkpt><trkpt lat="44.09414794551933" lon="11.718566735711876"><ele>346.6666666666667</ele><time>2026-04-03T12:51:50.734Z</time></trkpt><trkpt lat="44.09431552502335" lon="11.718563640085705"><ele>347.0</ele><time>2026-04-03T12:51:51.734Z</time></trkpt><trkpt lat="44.09448889852916" lon="11.71859327482189"><ele>347.0</ele><time>2026-04-03T12:51:52.734Z</time></trkpt><trkpt lat="44.09467031032976" lon="11.71861941028327"><ele>347.0</ele><time>2026-04-03T12:51:53.734Z</time></trkpt><trkpt lat="44.094855520209656" lon="11.718617604423734"><ele>347.0</ele><time>2026-04-03T12:51:54.734Z</time></trkpt><trkpt lat="44.09504036036024" lon="11.718598929541157"><ele>347.6666666666667</ele><time>2026-04-03T12:51:55.734Z</time></trkpt><trkpt lat="44.09522001185464" lon="11.718598554061659"><ele>348.3333333333333</ele><time>2026-04-03T12:51:56.734Z</time></trkpt><trkpt lat="44.09538047056171" lon="11.718611979429271"><ele>349.0</ele><time>2026-04-03T12:51:57.734Z</time></trkpt><trkpt lat="44.095529231728605" lon="11.718641241062471"><ele>349.0</ele><time>2026-04-03T12:51:58.734Z</time></trkpt><trkpt lat="44.09565469519267" lon="11.718673146071804"><ele>349.0</ele><time>2026-04-03T12:51:59.734Z</time></trkpt><trkpt lat="44.095792675823915" lon="11.718667287446465"><ele>349.0</ele><time>2026-04-03T12:52:00.734Z</time></trkpt><trkpt lat="44.09592537735438" lon="11.718609749134039"><ele>349.0</ele><time>2026-04-03T12:52:01.734Z</time></trkpt><trkpt lat="44.09607805923491" lon="11.71852540586977"><ele>358.0</ele><time>2026-04-03T12:52:02.734Z</time></trkpt><trkpt lat="44.096244874631694" lon="11.718438718861789"><ele>367.0</ele><time>2026-04-03T12:52:03.734Z</time></trkpt><trkpt lat="44.096410122656" lon="11.718399022858225"><ele>376.0</ele><time>2026-04-03T12:52:04.734Z</time></trkpt><trkpt lat="44.09658565849079" lon="11.718383332218801"><ele>372.0</ele><time>2026-04-03T12:52:05.734Z</time></trkpt><trkpt lat="44.096766381154005" lon="11.718389651438224"><ele>368.0</ele><time>2026-04-03T12:52:06.734Z</time></trkpt><trkpt lat="44.09695454011" lon="11.718418585571873"><ele>364.0</ele><time>2026-04-03T12:52:07.734Z</time></trkpt><trkpt lat="44.09713111242447" lon="11.71845180152201"><ele>364.0</ele><time>2026-04-03T12:52:08.734Z</time></trkpt><trkpt lat="44.097298279653195" lon="11.718490295911206"><ele>364.0</ele><time>2026-04-03T12:52:09.734Z</time></trkpt><trkpt lat="44.09744868216845" lon="11.7185259345525"><ele>364.0</ele><time>2026-04-03T12:52:10.734Z</time></trkpt><trkpt lat="44.09758669139056" lon="11.718546043458149"><ele>365.0</ele><time>2026-04-03T12:52:11.734Z</time></trkpt><trkpt lat="44.09772866409285" lon="11.718528428548877"><ele>366.0</ele><time>2026-04-03T12:52:12.734Z</time></trkpt><trkpt lat="44.097858737390936" lon="11.718497133948448"><ele>367.0</ele><time>2026-04-03T12:52:13.734Z</time></trkpt><trkpt lat="44.09800125290932" lon="11.718475065329594"><ele>368.0</ele><time>2026-04-03T12:52:14.734Z</time></trkpt><trkpt lat="44.0981400907665" lon="11.718491455068197"><ele>369.0</ele><time>2026-04-03T12:52:15.734Z</time></trkpt><trkpt lat="44.0982818093963" lon="11.718564114700355"><ele>370.0</ele><time>2026-04-03T12:52:16.734Z</time></trkpt><trkpt lat="44.09841576426836" lon="11.718644955105836"><ele>371.0</ele><time>2026-04-03T12:52:17.734Z</time></trkpt><trkpt lat="44.098541700740995" lon="11.718716846930285"><ele>372.0</ele><time>2026-04-03T12:52:18.734Z</time></trkpt><trkpt lat="44.09865301472276" lon="11.718784605224155"><ele>368.5</ele><time>2026-04-03T12:52:19.734Z</time></trkpt><trkpt lat="44.09877664296388" lon="11.71880791434768"><ele>365.0</ele><time>2026-04-03T12:52:20.734Z</time></trkpt><trkpt lat="44.098912933980856" lon="11.71878631667538"><ele>361.5</ele><time>2026-04-03T12:52:21.734Z</time></trkpt><trkpt lat="44.099047096110766" lon="11.718746599009357"><ele>358.0</ele><time>2026-04-03T12:52:22.734Z</time></trkpt><trkpt lat="44.099169439135366" lon="11.718703061331498"><ele>358.0</ele><time>2026-04-03T12:52:23.734Z</time></trkpt><trkpt lat="44.09928402830084" lon="11.718688016314507"><ele>358.0</ele><time>2026-04-03T12:52:24.734Z</time></trkpt><trkpt lat="44.09940248290464" lon="11.718705542844054"><ele>358.0</ele><time>2026-04-03T12:52:25.734Z</time></trkpt><trkpt lat="44.09951929225352" lon="11.718758819593505"><ele>358.0</ele><time>2026-04-03T12:52:26.734Z</time></trkpt><trkpt lat="44.09961467114881" lon="11.71884274287963"><ele>358.0</ele><time>2026-04-03T12:52:27.734Z</time></trkpt><trkpt lat="44.099690647044845" lon="11.718945944157431"><ele>358.0</ele><time>2026-04-03T12:52:28.734Z</time></trkpt><trkpt lat="44.09976775152851" lon="11.71902163020913"><ele>358.0</ele><time>2026-04-03T12:52:29.734Z</time></trkpt><trkpt lat="44.09985119754602" lon="11.719055077115451"><ele>358.0</ele><time>2026-04-03T12:52:30.734Z</time></trkpt><trkpt lat="44.099955071672966" lon="11.719039621709555"><ele>358.0</ele><time>2026-04-03T12:52:31.734Z</time></trkpt><trkpt lat="44.10007629646823" lon="11.719007548121072"><ele>360.25</ele><time>2026-04-03T12:52:32.734Z</time></trkpt><trkpt lat="44.10021513703537" lon="11.719013055065687"><ele>362.5</ele><time>2026-04-03T12:52:33.734Z</time></trkpt><trkpt lat="44.100353868391096" lon="11.719062840277287"><ele>364.75</ele><time>2026-04-03T12:52:34.734Z</time></trkpt><trkpt lat="44.10050239287662" lon="11.719118712078007"><ele>367.0</ele><time>2026-04-03T12:52:35.734Z</time></trkpt><trkpt lat="44.1006458075933" lon="11.71918954890064"><ele>364.0</ele><time>2026-04-03T12:52:36.734Z</time></trkpt><trkpt lat="44.10077256791936" lon="11.719291795876806"><ele>361.0</ele><time>2026-04-03T12:52:37.734Z</time></trkpt><trkpt lat="44.100891720518895" lon="11.71942427191478"><ele>358.0</ele><time>2026-04-03T12:52:38.734Z</time></trkpt><trkpt lat="44.101007766303354" lon="11.719548117602102"><ele>355.0</ele><time>2026-04-03T12:52:39.734Z</time></trkpt><trkpt lat="44.10114231132017" lon="11.719637351625334"><ele>355.0</ele><time>2026-04-03T12:52:40.733Z</time></trkpt><trkpt lat="44.101292077567116" lon="11.719686094781935"><ele>355.0</ele><time>2026-04-03T12:52:41.733Z</time></trkpt><trkpt lat="44.101437274676925" lon="11.719752017980879"><ele>355.0</ele><time>2026-04-03T12:52:42.733Z</time></trkpt><trkpt lat="44.10157152430023" lon="11.719856945714929"><ele>352.0</ele><time>2026-04-03T12:52:43.733Z</time></trkpt><trkpt lat="44.101689396871926" lon="11.719984901196922"><ele>349.0</ele><time>2026-04-03T12:52:44.733Z</time></trkpt><trkpt lat="44.101788267580474" lon="11.720089829606307"><ele>346.0</ele><time>2026-04-03T12:52:45.733Z</time></trkpt><trkpt lat="44.10187985621688" lon="11.720176252126981"><ele>343.0</ele><time>2026-04-03T12:52:46.733Z</time></trkpt><trkpt lat="44.10198193120745" lon="11.720242819060823"><ele>343.0</ele><time>2026-04-03T12:52:47.733Z</time></trkpt><trkpt lat="44.10208134564919" lon="11.720283025808387"><ele>343.0</ele><time>2026-04-03T12:52:48.733Z</time></trkpt><trkpt lat="44.10220013740265" lon="11.72027254002792"><ele>343.0</ele><time>2026-04-03T12:52:49.733Z</time></trkpt><trkpt lat="44.102310057117045" lon="11.720226617690905"><ele>343.0</ele><time>2026-04-03T12:52:50.733Z</time></trkpt><trkpt lat="44.10241069647465" lon="11.720147756567954"><ele>353.5</ele><time>2026-04-03T12:52:51.733Z</time></trkpt><trkpt lat="44.10250891164467" lon="11.720048568131306"><ele>364.0</ele><time>2026-04-03T12:52:52.733Z</time></trkpt><trkpt lat="44.1025972165718" lon="11.719927443839822"><ele>374.5</ele><time>2026-04-03T12:52:53.733Z</time></trkpt><trkpt lat="44.102682365275534" lon="11.719800245910111"><ele>385.0</ele><time>2026-04-03T12:52:54.733Z</time></trkpt><trkpt lat="44.102769542319365" lon="11.71968988397982"><ele>385.0</ele><time>2026-04-03T12:52:55.733Z</time></trkpt><trkpt lat="44.10286559245811" lon="11.719639917090564"><ele>385.0</ele><time>2026-04-03T12:52:56.733Z</time></trkpt><trkpt lat="44.10298487248567" lon="11.719649429553181"><ele>385.0</ele><time>2026-04-03T12:52:57.733Z</time></trkpt><trkpt lat="44.10310279648486" lon="11.719687545618342"><ele>385.0</ele><time>2026-04-03T12:52:58.733Z</time></trkpt><trkpt lat="44.10323277984186" lon="11.71972356504952"><ele>384.25</ele><time>2026-04-03T12:52:59.733Z</time></trkpt><trkpt lat="44.10336767046477" lon="11.719720292761334"><ele>383.5</ele><time>2026-04-03T12:53:00.733Z</time></trkpt><trkpt lat="44.103486922076115" lon="11.719680441384208"><ele>382.75</ele><time>2026-04-03T12:53:01.733Z</time></trkpt><trkpt lat="44.103601809762694" lon="11.719613448100834"><ele>382.0</ele><time>2026-04-03T12:53:02.733Z</time></trkpt><trkpt lat="44.10372192918622" lon="11.719525254135938"><ele>382.0</ele><time>2026-04-03T12:53:03.733Z</time></trkpt><trkpt lat="44.103836044312416" lon="11.719431270298125"><ele>382.0</ele><time>2026-04-03T12:53:04.733Z</time></trkpt><trkpt lat="44.10393251933826" lon="11.719372169918177"><ele>382.0</ele><time>2026-04-03T12:53:05.733Z</time></trkpt><trkpt lat="44.1040283767066" lon="11.719344431423957"><ele>382.0</ele><time>2026-04-03T12:53:06.733Z</time></trkpt><trkpt lat="44.10413196098531" lon="11.719366628441033"><ele>382.0</ele><time>2026-04-03T12:53:07.733Z</time></trkpt><trkpt lat="44.10430357826711" lon="11.719526306990712"><ele>384.5</ele><time>2026-04-03T12:53:09.733Z</time></trkpt><trkpt lat="44.10436831761951" lon="11.719598559691315"><ele>387.0</ele><time>2026-04-03T12:53:10.733Z</time></trkpt><trkpt lat="44.104439439980574" lon="11.719647973521925"><ele>389.5</ele><time>2026-04-03T12:53:12.733Z</time></trkpt><trkpt lat="44.10450402340245" lon="11.71966935914592"><ele>392.0</ele><time>2026-04-03T12:53:15.733Z</time></trkpt><trkpt lat="44.10454951656223" lon="11.719553344395925"><ele>394.50000000000006</ele><time>2026-04-03T12:53:17.733Z</time></trkpt><trkpt lat="44.10456271251926" lon="11.719449641318413"><ele>397.0</ele><time>2026-04-03T12:53:18.733Z</time></trkpt><trkpt lat="44.10456717377117" lon="11.719330435869194"><ele>400.0</ele><time>2026-04-03T12:53:19.733Z</time></trkpt><trkpt lat="44.10454490591511" lon="11.719226385668051"><ele>403.0</ele><time>2026-04-03T12:53:20.733Z</time></trkpt><trkpt lat="44.1044812141579" lon="11.719138148776674"><ele>406.0</ele><time>2026-04-03T12:53:21.733Z</time></trkpt><trkpt lat="44.10438950686465" lon="11.719056794187443"><ele>409.0</ele><time>2026-04-03T12:53:22.733Z</time></trkpt><trkpt lat="44.10428321570814" lon="11.718978909881955"><ele>412.0</ele><time>2026-04-03T12:53:23.733Z</time></trkpt><trkpt lat="44.10416893484645" lon="11.71891235425272"><ele>412.6</ele><time>2026-04-03T12:53:24.733Z</time></trkpt><trkpt lat="44.10406770465036" lon="11.718864962931384"><ele>413.20000000000005</ele><time>2026-04-03T12:53:25.733Z</time></trkpt><trkpt lat="44.10397774262366" lon="11.718875789789614"><ele>413.8</ele><time>2026-04-03T12:53:26.733Z</time></trkpt><trkpt lat="44.10389236175903" lon="11.718930391197963"><ele>414.4</ele><time>2026-04-03T12:53:27.733Z</time></trkpt><trkpt lat="44.10381185628639" lon="11.718985826661864"><ele>415.0</ele><time>2026-04-03T12:53:28.733Z</time></trkpt><trkpt lat="44.10374319506071" lon="11.71898049871039"><ele>415.0</ele><time>2026-04-03T12:53:29.733Z</time></trkpt><trkpt lat="44.103684152341316" lon="11.718827268095568"><ele>415.0</ele><time>2026-04-03T12:53:31.733Z</time></trkpt><trkpt lat="44.10370604517055" lon="11.71874111227105"><ele>415.0</ele><time>2026-04-03T12:53:32.733Z</time></trkpt><trkpt lat="44.10376421094971" lon="11.718666616926994"><ele>415.0</ele><time>2026-04-03T12:53:33.731Z</time></trkpt><trkpt lat="44.10384455233055" lon="11.718595883382168"><ele>415.0</ele><time>2026-04-03T12:53:34.731Z</time></trkpt><trkpt lat="44.10394618425152" lon="11.718509538225922"><ele>420.0</ele><time>2026-04-03T12:53:35.731Z</time></trkpt><trkpt lat="44.10405158518816" lon="11.718417990393055"><ele>425.0</ele><time>2026-04-03T12:53:36.731Z</time></trkpt><trkpt lat="44.10415549730568" lon="11.718332043478668"><ele>430.0</ele><time>2026-04-03T12:53:37.73Z</time></trkpt><trkpt lat="44.1042549286173" lon="11.718266795485148"><ele>435.0</ele><time>2026-04-03T12:53:38.73Z</time></trkpt><trkpt lat="44.104366447572644" lon="11.71825665977307"><ele>435.0</ele><time>2026-04-03T12:53:39.731Z</time></trkpt><trkpt lat="44.10448718520667" lon="11.71831097643655"><ele>435.0</ele><time>2026-04-03T12:53:40.73Z</time></trkpt><trkpt lat="44.104608823640746" lon="11.718407545065258"><ele>435.0</ele><time>2026-04-03T12:53:41.73Z</time></trkpt><trkpt lat="44.10472009017815" lon="11.718517548625528"><ele>435.0</ele><time>2026-04-03T12:53:42.731Z</time></trkpt><trkpt lat="44.10481439177851" lon="11.718594694964464"><ele>434.3333333333333</ele><time>2026-04-03T12:53:43.731Z</time></trkpt><trkpt lat="44.104892471128075" lon="11.71862753390736"><ele>433.66666666666663</ele><time>2026-04-03T12:53:44.731Z</time></trkpt><trkpt lat="44.10496711505035" lon="11.718614831659174"><ele>433.0</ele><time>2026-04-03T12:53:45.731Z</time></trkpt><trkpt lat="44.10503513798197" lon="11.718543430775465"><ele>432.3333333333333</ele><time>2026-04-03T12:53:46.731Z</time></trkpt><trkpt lat="44.1050402229777" lon="11.718405461182336"><ele>431.66666666666663</ele><time>2026-04-03T12:53:47.731Z</time></trkpt><trkpt lat="44.10500585775403" lon="11.718305250649726"><ele>431.0</ele><time>2026-04-03T12:53:48.731Z</time></trkpt><trkpt lat="44.10494895425092" lon="11.718241675374935"><ele>431.66666666666663</ele><time>2026-04-03T12:53:49.731Z</time></trkpt><trkpt lat="44.10489025146874" lon="11.718181022583398"><ele>432.3333333333333</ele><time>2026-04-03T12:53:50.731Z</time></trkpt><trkpt lat="44.104826830279386" lon="11.718134970093763"><ele>433.0</ele><time>2026-04-03T12:53:51.731Z</time></trkpt><trkpt lat="44.104745069198664" lon="11.718077128725067"><ele>433.66666666666663</ele><time>2026-04-03T12:53:53.731Z</time></trkpt><trkpt lat="44.10466669237574" lon="11.718012088318284"><ele>434.3333333333333</ele><time>2026-04-03T12:53:55.731Z</time></trkpt><trkpt lat="44.10460515890865" lon="11.717893110454886"><ele>435.0</ele><time>2026-04-03T12:53:57.731Z</time></trkpt><trkpt lat="44.10464006107865" lon="11.717734761823984"><ele>435.0</ele><time>2026-04-03T12:53:59.731Z</time></trkpt><trkpt lat="44.10474321929527" lon="11.71771599041593"><ele>435.0</ele><time>2026-04-03T12:54:01.731Z</time></trkpt><trkpt lat="44.10480400968149" lon="11.717759535536578"><ele>435.0</ele><time>2026-04-03T12:54:02.731Z</time></trkpt><trkpt lat="44.10487749045557" lon="11.71785322666325"><ele>435.0</ele><time>2026-04-03T12:54:04.731Z</time></trkpt><trkpt lat="44.104933424177055" lon="11.717901983557793"><ele>435.0</ele><time>2026-04-03T12:54:06.731Z</time></trkpt><trkpt lat="44.1049997998277" lon="11.717956768447111"><ele>435.0</ele><time>2026-04-03T12:54:08.731Z</time></trkpt><trkpt lat="44.10508049454192" lon="11.717995522143886"><ele>436.5</ele><time>2026-04-03T12:54:10.731Z</time></trkpt><trkpt lat="44.105158404732826" lon="11.718046674174746"><ele>438.0</ele><time>2026-04-03T12:54:12.731Z</time></trkpt><trkpt lat="44.105217685416314" lon="11.718124918013835"><ele>439.5</ele><time>2026-04-03T12:54:14.731Z</time></trkpt><trkpt lat="44.10526590701424" lon="11.718231360671991"><ele>441.0</ele><time>2026-04-03T12:54:16.731Z</time></trkpt><trkpt lat="44.10533075087532" lon="11.71831181852787"><ele>442.5</ele><time>2026-04-03T12:54:18.731Z</time></trkpt><trkpt lat="44.105409496852104" lon="11.71833983940585"><ele>444.0</ele><time>2026-04-03T12:54:20.731Z</time></trkpt><trkpt lat="44.105486619377615" lon="11.71827305640136"><ele>444.0</ele><time>2026-04-03T12:54:22.731Z</time></trkpt><trkpt lat="44.105520561671625" lon="11.718143972233065"><ele>444.0</ele><time>2026-04-03T12:54:24.731Z</time></trkpt><trkpt lat="44.10551900043399" lon="11.718006287915067"><ele>444.0</ele><time>2026-04-03T12:54:26.731Z</time></trkpt><trkpt lat="44.105503554343" lon="11.71787475439773"><ele>444.0</ele><time>2026-04-03T12:54:28.731Z</time></trkpt><trkpt lat="44.10547068472401" lon="11.717731532433266"><ele>444.0</ele><time>2026-04-03T12:54:30.731Z</time></trkpt><trkpt lat="44.105432047870266" lon="11.717623691591125"><ele>447.5</ele><time>2026-04-03T12:54:31.731Z</time></trkpt><trkpt lat="44.105374029102016" lon="11.717503056433165"><ele>451.0</ele><time>2026-04-03T12:54:32.731Z</time></trkpt><trkpt lat="44.10529767408036" lon="11.717349668638617"><ele>454.5</ele><time>2026-04-03T12:54:33.73Z</time></trkpt><trkpt lat="44.105228473964615" lon="11.71719604062358"><ele>458.0</ele><time>2026-04-03T12:54:34.73Z</time></trkpt><trkpt lat="44.10516711921714" lon="11.717056981445532"><ele>457.99999999999994</ele><time>2026-04-03T12:54:35.73Z</time></trkpt><trkpt lat="44.10511509636959" lon="11.716935329149262"><ele>458.0</ele><time>2026-04-03T12:54:36.73Z</time></trkpt><trkpt lat="44.10507366341291" lon="11.716835834582815"><ele>458.0</ele><time>2026-04-03T12:54:37.73Z</time></trkpt><trkpt lat="44.10504300773121" lon="11.716757336061253"><ele>458.0</ele><time>2026-04-03T12:54:38.73Z</time></trkpt><trkpt lat="44.10499606224325" lon="11.716659824149325"><ele>457.99999999999994</ele><time>2026-04-03T12:54:40.73Z</time></trkpt><trkpt lat="44.10495524245608" lon="11.71656199237531"><ele>458.0</ele><time>2026-04-03T12:54:43.73Z</time></trkpt><trkpt lat="44.10495256308729" lon="11.716465087461836"><ele>462.79999999999995</ele><time>2026-04-03T12:54:59.73Z</time></trkpt><trkpt lat="44.10489700369914" lon="11.716349339424818"><ele>467.59999999999997</ele><time>2026-04-03T12:55:01.73Z</time></trkpt><trkpt lat="44.104847180075964" lon="11.716244300760705"><ele>472.40000000000003</ele><time>2026-04-03T12:55:02.73Z</time></trkpt><trkpt lat="44.10479089649043" lon="11.7161139558041"><ele>477.20000000000005</ele><time>2026-04-03T12:55:03.73Z</time></trkpt><trkpt lat="44.10472403283448" lon="11.715950342196034"><ele>482.0</ele><time>2026-04-03T12:55:04.73Z</time></trkpt><trkpt lat="44.10465879660509" lon="11.715784132130826"><ele>482.0</ele><time>2026-04-03T12:55:05.73Z</time></trkpt><trkpt lat="44.104605178355264" lon="11.715610682676385"><ele>482.0</ele><time>2026-04-03T12:55:06.73Z</time></trkpt><trkpt lat="44.10456475810105" lon="11.715440888767043"><ele>482.0</ele><time>2026-04-03T12:55:07.73Z</time></trkpt><trkpt lat="44.10454387416668" lon="11.715261625143347"><ele>482.0</ele><time>2026-04-03T12:55:08.73Z</time></trkpt><trkpt lat="44.10455061919349" lon="11.71507867601546"><ele>482.75</ele><time>2026-04-03T12:55:09.73Z</time></trkpt><trkpt lat="44.104570958436696" lon="11.714896253451027"><ele>483.5</ele><time>2026-04-03T12:55:10.73Z</time></trkpt><trkpt lat="44.10458337891443" lon="11.714727829672725"><ele>484.25</ele><time>2026-04-03T12:55:11.73Z</time></trkpt><trkpt lat="44.104567923253796" lon="11.714565226632356"><ele>485.0</ele><time>2026-04-03T12:55:12.73Z</time></trkpt><trkpt lat="44.10452730991736" lon="11.714412822055628"><ele>484.0</ele><time>2026-04-03T12:55:13.73Z</time></trkpt><trkpt lat="44.10447723572778" lon="11.71425661902467"><ele>483.0</ele><time>2026-04-03T12:55:14.73Z</time></trkpt><trkpt lat="44.10444089379966" lon="11.714095471178794"><ele>482.0</ele><time>2026-04-03T12:55:15.73Z</time></trkpt><trkpt lat="44.104431027240786" lon="11.713929928733094"><ele>481.0</ele><time>2026-04-03T12:55:16.73Z</time></trkpt><trkpt lat="44.104453127894665" lon="11.713780828670082"><ele>481.0</ele><time>2026-04-03T12:55:17.73Z</time></trkpt><trkpt lat="44.10448760700926" lon="11.713634915218577"><ele>481.0</ele><time>2026-04-03T12:55:18.73Z</time></trkpt><trkpt lat="44.1045006094408" lon="11.713496285850244"><ele>481.0</ele><time>2026-04-03T12:55:19.73Z</time></trkpt><trkpt lat="44.10447606863115" lon="11.71335958696616"><ele>481.0</ele><time>2026-04-03T12:55:20.73Z</time></trkpt><trkpt lat="44.10441506047734" lon="11.713231128799519"><ele>481.0</ele><time>2026-04-03T12:55:21.73Z</time></trkpt><trkpt lat="44.10432165995398" lon="11.713107920508635"><ele>479.75</ele><time>2026-04-03T12:55:22.73Z</time></trkpt><trkpt lat="44.10421237404619" lon="11.71298707326302"><ele>478.5</ele><time>2026-04-03T12:55:23.73Z</time></trkpt><trkpt lat="44.104084946017565" lon="11.712872717140547"><ele>477.25</ele><time>2026-04-03T12:55:24.73Z</time></trkpt><trkpt lat="44.103950119112284" lon="11.712761296483079"><ele>476.0</ele><time>2026-04-03T12:55:25.73Z</time></trkpt><trkpt lat="44.103814443096574" lon="11.712643829869156"><ele>479.75</ele><time>2026-04-03T12:55:26.73Z</time></trkpt><trkpt lat="44.10368499487896" lon="11.712513881518863"><ele>483.5</ele><time>2026-04-03T12:55:27.73Z</time></trkpt><trkpt lat="44.10356896637303" lon="11.712390813153858"><ele>487.25</ele><time>2026-04-03T12:55:28.73Z</time></trkpt><trkpt lat="44.103477448114816" lon="11.71227167233144"><ele>491.0</ele><time>2026-04-03T12:55:29.73Z</time></trkpt><trkpt lat="44.103409190077876" lon="11.712143626842506"><ele>491.0</ele><time>2026-04-03T12:55:30.73Z</time></trkpt><trkpt lat="44.103367867711654" lon="11.711993341886377"><ele>491.0</ele><time>2026-04-03T12:55:31.73Z</time></trkpt><trkpt lat="44.10337245030902" lon="11.711818155410082"><ele>491.0</ele><time>2026-04-03T12:55:32.73Z</time></trkpt><trkpt lat="44.103383962677924" lon="11.711634464558017"><ele>491.0</ele><time>2026-04-03T12:55:33.73Z</time></trkpt><trkpt lat="44.10338609229512" lon="11.71145248428609"><ele>493.25</ele><time>2026-04-03T12:55:34.73Z</time></trkpt><trkpt lat="44.10336633777509" lon="11.711278149934811"><ele>495.5</ele><time>2026-04-03T12:55:35.73Z</time></trkpt><trkpt lat="44.103319754615974" lon="11.711134294309328"><ele>497.75</ele><time>2026-04-03T12:55:36.73Z</time></trkpt><trkpt lat="44.103238437684325" lon="11.711021843622689"><ele>500.0</ele><time>2026-04-03T12:55:37.73Z</time></trkpt><trkpt lat="44.103138761003386" lon="11.710921572944997"><ele>500.0</ele><time>2026-04-03T12:55:38.73Z</time></trkpt><trkpt lat="44.10305193536403" lon="11.710801298866967"><ele>500.0</ele><time>2026-04-03T12:55:39.727Z</time></trkpt><trkpt lat="44.102976431233415" lon="11.710665165310193"><ele>500.0</ele><time>2026-04-03T12:55:40.727Z</time></trkpt><trkpt lat="44.10294222505047" lon="11.710498076470696"><ele>500.0</ele><time>2026-04-03T12:55:41.727Z</time></trkpt><trkpt lat="44.10291687262534" lon="11.710309945799166"><ele>498.25</ele><time>2026-04-03T12:55:42.727Z</time></trkpt><trkpt lat="44.102882677137266" lon="11.71012375623794"><ele>496.5</ele><time>2026-04-03T12:55:43.728Z</time></trkpt><trkpt lat="44.102836758561835" lon="11.709951247516097"><ele>494.75</ele><time>2026-04-03T12:55:44.728Z</time></trkpt><trkpt lat="44.10277378558846" lon="11.70978724563451"><ele>493.0</ele><time>2026-04-03T12:55:45.728Z</time></trkpt><trkpt lat="44.10270434521534" lon="11.709625110415852"><ele>493.0</ele><time>2026-04-03T12:55:46.728Z</time></trkpt><trkpt lat="44.10262798917466" lon="11.709460980833773"><ele>493.0</ele><time>2026-04-03T12:55:47.728Z</time></trkpt><trkpt lat="44.102560784797625" lon="11.709287267013098"><ele>493.0</ele><time>2026-04-03T12:55:48.727Z</time></trkpt><trkpt lat="44.10250369482306" lon="11.709113871508096"><ele>493.0</ele><time>2026-04-03T12:55:49.728Z</time></trkpt><trkpt lat="44.102476387182556" lon="11.708933046592891"><ele>495.0</ele><time>2026-04-03T12:55:50.728Z</time></trkpt><trkpt lat="44.10247346853904" lon="11.708761315945337"><ele>497.0</ele><time>2026-04-03T12:55:51.727Z</time></trkpt><trkpt lat="44.10245674503502" lon="11.708591018234326"><ele>499.0</ele><time>2026-04-03T12:55:52.727Z</time></trkpt><trkpt lat="44.10239735120008" lon="11.708435317567863"><ele>501.0</ele><time>2026-04-03T12:55:53.727Z</time></trkpt><trkpt lat="44.10231422421914" lon="11.708285146156642"><ele>501.0</ele><time>2026-04-03T12:55:54.727Z</time></trkpt><trkpt lat="44.10223278049517" lon="11.708130383950765"><ele>501.0</ele><time>2026-04-03T12:55:55.727Z</time></trkpt><trkpt lat="44.102158926876335" lon="11.707973880276326"><ele>501.0</ele><time>2026-04-03T12:55:56.727Z</time></trkpt><trkpt lat="44.10209738727368" lon="11.707818515159367"><ele>501.0</ele><time>2026-04-03T12:55:57.727Z</time></trkpt><trkpt lat="44.10205492981999" lon="11.707660797521905"><ele>496.0</ele><time>2026-04-03T12:55:58.727Z</time></trkpt><trkpt lat="44.10203818126905" lon="11.707484967864913"><ele>491.0</ele><time>2026-04-03T12:55:59.727Z</time></trkpt><trkpt lat="44.10206388068804" lon="11.70728879180056"><ele>486.0</ele><time>2026-04-03T12:56:00.727Z</time></trkpt><trkpt lat="44.10210976202085" lon="11.707088531646695"><ele>481.0</ele><time>2026-04-03T12:56:01.727Z</time></trkpt><trkpt lat="44.10217314630602" lon="11.706892415816274"><ele>480.33333333333337</ele><time>2026-04-03T12:56:02.727Z</time></trkpt><trkpt lat="44.10223855662075" lon="11.706678884201535"><ele>479.66666666666663</ele><time>2026-04-03T12:56:03.727Z</time></trkpt><trkpt lat="44.102298769495725" lon="11.706462431799778"><ele>479.0</ele><time>2026-04-03T12:56:04.727Z</time></trkpt><trkpt lat="44.1023542054127" lon="11.706265962990253"><ele>479.0</ele><time>2026-04-03T12:56:05.727Z</time></trkpt><trkpt lat="44.10240149590575" lon="11.706088150367332"><ele>479.0</ele><time>2026-04-03T12:56:06.727Z</time></trkpt><trkpt lat="44.10243334023971" lon="11.705939619529753"><ele>479.0</ele><time>2026-04-03T12:56:07.727Z</time></trkpt><trkpt lat="44.10247836048707" lon="11.705821864566268"><ele>479.0</ele><time>2026-04-03T12:56:08.727Z</time></trkpt><trkpt lat="44.10253309841103" lon="11.705746842110516"><ele>479.0</ele><time>2026-04-03T12:56:09.727Z</time></trkpt><trkpt lat="44.102610660931646" lon="11.705722434690209"><ele>477.2</ele><time>2026-04-03T12:56:10.727Z</time></trkpt><trkpt lat="44.10268729883655" lon="11.705758639088032"><ele>475.4</ele><time>2026-04-03T12:56:11.727Z</time></trkpt><trkpt lat="44.10273771701009" lon="11.705851933330061"><ele>473.6</ele><time>2026-04-03T12:56:12.727Z</time></trkpt><trkpt lat="44.1027663768476" lon="11.705993450275274"><ele>471.8</ele><time>2026-04-03T12:56:13.727Z</time></trkpt><trkpt lat="44.10280274522149" lon="11.706164007321789"><ele>470.0</ele><time>2026-04-03T12:56:14.727Z</time></trkpt><trkpt lat="44.10287175346083" lon="11.706295055075843"><ele>469.25</ele><time>2026-04-03T12:56:15.727Z</time></trkpt><trkpt lat="44.10296287345681" lon="11.706369416504813"><ele>468.5</ele><time>2026-04-03T12:56:16.727Z</time></trkpt><trkpt lat="44.10308345002147" lon="11.706388925188579"><ele>467.75</ele><time>2026-04-03T12:56:17.727Z</time></trkpt><trkpt lat="44.103220179437066" lon="11.706367016996527"><ele>467.0</ele><time>2026-04-03T12:56:18.727Z</time></trkpt><trkpt lat="44.103375489516765" lon="11.706302254925001"><ele>471.66666666666663</ele><time>2026-04-03T12:56:19.727Z</time></trkpt><trkpt lat="44.10353351902664" lon="11.706198689428488"><ele>476.33333333333337</ele><time>2026-04-03T12:56:20.727Z</time></trkpt><trkpt lat="44.10369277225749" lon="11.706037834354232"><ele>481.0</ele><time>2026-04-03T12:56:21.727Z</time></trkpt><trkpt lat="44.10384218289372" lon="11.705855234431267"><ele>483.33333333333337</ele><time>2026-04-03T12:56:22.727Z</time></trkpt><trkpt lat="44.103994763607034" lon="11.705667032395908"><ele>485.66666666666663</ele><time>2026-04-03T12:56:23.727Z</time></trkpt><trkpt lat="44.104153406324066" lon="11.70548839173061"><ele>488.0</ele><time>2026-04-03T12:56:24.727Z</time></trkpt><trkpt lat="44.10431252863257" lon="11.705318156977151"><ele>493.66666666666663</ele><time>2026-04-03T12:56:25.727Z</time></trkpt><trkpt lat="44.10447555820702" lon="11.7051602163438"><ele>499.33333333333337</ele><time>2026-04-03T12:56:26.727Z</time></trkpt><trkpt lat="44.104625004835434" lon="11.705003326822878"><ele>505.0</ele><time>2026-04-03T12:56:27.727Z</time></trkpt><trkpt lat="44.1047569786955" lon="11.704875854587582"><ele>505.0</ele><time>2026-04-03T12:56:28.727Z</time></trkpt><trkpt lat="44.104876520743005" lon="11.70477431922899"><ele>505.0</ele><time>2026-04-03T12:56:29.727Z</time></trkpt><trkpt lat="44.104992397884" lon="11.704671426669378"><ele>505.0</ele><time>2026-04-03T12:56:30.727Z</time></trkpt><trkpt lat="44.10505706397557" lon="11.704558064681803"><ele>505.0</ele><time>2026-04-03T12:56:31.727Z</time></trkpt><trkpt lat="44.10507356974655" lon="11.704425854222464"><ele>507.0</ele><time>2026-04-03T12:56:32.727Z</time></trkpt><trkpt lat="44.10503320917402" lon="11.704281477134298"><ele>509.0</ele><time>2026-04-03T12:56:33.727Z</time></trkpt><trkpt lat="44.10495808690392" lon="11.70411226811927"><ele>511.0</ele><time>2026-04-03T12:56:34.727Z</time></trkpt><trkpt lat="44.10486692042442" lon="11.703912834607825"><ele>513.0</ele><time>2026-04-03T12:56:35.727Z</time></trkpt><trkpt lat="44.10478480175475" lon="11.70370503599408"><ele>515.3333333333334</ele><time>2026-04-03T12:56:36.727Z</time></trkpt><trkpt lat="44.10471865824861" lon="11.703490491912962"><ele>517.6666666666667</ele><time>2026-04-03T12:56:37.727Z</time></trkpt><trkpt lat="44.10467746505134" lon="11.703255583036144"><ele>520.0</ele><time>2026-04-03T12:56:38.727Z</time></trkpt><trkpt lat="44.10464464518172" lon="11.703010296463646"><ele>520.0</ele><time>2026-04-03T12:56:39.727Z</time></trkpt><trkpt lat="44.10457827861621" lon="11.702796963274574"><ele>520.0</ele><time>2026-04-03T12:56:40.727Z</time></trkpt><trkpt lat="44.10447440570547" lon="11.702615382502234"><ele>520.0</ele><time>2026-04-03T12:56:41.727Z</time></trkpt><trkpt lat="44.104339093558615" lon="11.702468423552101"><ele>521.6666666666667</ele><time>2026-04-03T12:56:42.727Z</time></trkpt><trkpt lat="44.10421258655171" lon="11.702330740878143"><ele>523.3333333333334</ele><time>2026-04-03T12:56:43.727Z</time></trkpt><trkpt lat="44.10411542947274" lon="11.702165533426605"><ele>525.0</ele><time>2026-04-03T12:56:44.727Z</time></trkpt><trkpt lat="44.10404598179087" lon="11.701952361358318"><ele>531.3333333333334</ele><time>2026-04-03T12:56:45.727Z</time></trkpt><trkpt lat="44.10398683339231" lon="11.701709773676404"><ele>537.6666666666667</ele><time>2026-04-03T12:56:46.727Z</time></trkpt><trkpt lat="44.103933027115914" lon="11.701458547496962"><ele>544.0</ele><time>2026-04-03T12:56:47.727Z</time></trkpt><trkpt lat="44.103888275886874" lon="11.701211156990613"><ele>548.3333333333334</ele><time>2026-04-03T12:56:48.727Z</time></trkpt><trkpt lat="44.10385931093257" lon="11.700971565851077"><ele>552.6666666666666</ele><time>2026-04-03T12:56:49.727Z</time></trkpt><trkpt lat="44.10380928456324" lon="11.700731091378813"><ele>557.0</ele><time>2026-04-03T12:56:50.727Z</time></trkpt><trkpt lat="44.10371663997445" lon="11.700494532118457"><ele>557.0</ele><time>2026-04-03T12:56:51.727Z</time></trkpt><trkpt lat="44.10359550087897" lon="11.700272950905024"><ele>557.0</ele><time>2026-04-03T12:56:52.727Z</time></trkpt><trkpt lat="44.103471041746516" lon="11.70008007790053"><ele>557.0</ele><time>2026-04-03T12:56:53.727Z</time></trkpt><trkpt lat="44.103371477901945" lon="11.69992077451859"><ele>559.8000000000001</ele><time>2026-04-03T12:56:54.727Z</time></trkpt><trkpt lat="44.103286986256286" lon="11.699780753189467"><ele>562.6</ele><time>2026-04-03T12:56:55.727Z</time></trkpt><trkpt lat="44.10320745892023" lon="11.699661927781262"><ele>565.4000000000001</ele><time>2026-04-03T12:56:56.727Z</time></trkpt><trkpt lat="44.103122809896284" lon="11.699593275532013"><ele>568.2</ele><time>2026-04-03T12:56:57.727Z</time></trkpt><trkpt lat="44.103040638326746" lon="11.69955296360271"><ele>571.0</ele><time>2026-04-03T12:56:58.727Z</time></trkpt><trkpt lat="44.10297200089989" lon="11.699524243643838"><ele>571.8</ele><time>2026-04-03T12:56:59.727Z</time></trkpt><trkpt lat="44.10289426874815" lon="11.699477573015818"><ele>572.6</ele><time>2026-04-03T12:57:01.727Z</time></trkpt><trkpt lat="44.10281803647411" lon="11.699537928428835"><ele>573.4</ele><time>2026-04-03T12:58:05.725Z</time></trkpt><trkpt lat="44.10270551659015" lon="11.69948850985303"><ele>574.2</ele><time>2026-04-03T12:58:07.725Z</time></trkpt><trkpt lat="44.102623240657216" lon="11.69942868077024"><ele>575.0</ele><time>2026-04-03T12:58:08.725Z</time></trkpt><trkpt lat="44.10254011893957" lon="11.699362164407924"><ele>575.0</ele><time>2026-04-03T12:58:09.725Z</time></trkpt><trkpt lat="44.10244617473217" lon="11.699268908031621"><ele>575.0</ele><time>2026-04-03T12:58:10.725Z</time></trkpt><trkpt lat="44.10235114875717" lon="11.699170355377078"><ele>575.0</ele><time>2026-04-03T12:58:11.725Z</time></trkpt><trkpt lat="44.102264358374335" lon="11.699067015532147"><ele>575.0</ele><time>2026-04-03T12:58:12.725Z</time></trkpt><trkpt lat="44.102184179339964" lon="11.698966845295974"><ele>576.4</ele><time>2026-04-03T12:58:13.725Z</time></trkpt><trkpt lat="44.10210913109608" lon="11.698865179766408"><ele>577.8</ele><time>2026-04-03T12:58:14.725Z</time></trkpt><trkpt lat="44.10202884386178" lon="11.698770558221156"><ele>579.2</ele><time>2026-04-03T12:58:15.725Z</time></trkpt><trkpt lat="44.101952554840246" lon="11.698676528769692"><ele>580.6</ele><time>2026-04-03T12:58:16.725Z</time></trkpt><trkpt lat="44.101885647943085" lon="11.69858237599985"><ele>582.0</ele><time>2026-04-03T12:58:17.725Z</time></trkpt><trkpt lat="44.10183511619632" lon="11.698474046912347"><ele>582.0</ele><time>2026-04-03T12:58:18.725Z</time></trkpt><trkpt lat="44.10180164373142" lon="11.69836321868379"><ele>582.0</ele><time>2026-04-03T12:58:19.725Z</time></trkpt><trkpt lat="44.101793708479164" lon="11.698235127048672"><ele>582.0</ele><time>2026-04-03T12:58:20.725Z</time></trkpt><trkpt lat="44.10180286619907" lon="11.698104696594049"><ele>582.0</ele><time>2026-04-03T12:58:21.725Z</time></trkpt><trkpt lat="44.10182783647069" lon="11.69796410145433"><ele>582.0</ele><time>2026-04-03T12:58:22.725Z</time></trkpt><trkpt lat="44.101830852487964" lon="11.697834930176326"><ele>582.2</ele><time>2026-04-03T12:58:23.725Z</time></trkpt><trkpt lat="44.10181981467858" lon="11.697714879741026"><ele>582.4000000000001</ele><time>2026-04-03T12:58:24.725Z</time></trkpt><trkpt lat="44.10176623404313" lon="11.697608640733813"><ele>582.5999999999999</ele><time>2026-04-03T12:58:25.725Z</time></trkpt><trkpt lat="44.10167720283914" lon="11.697515169538908"><ele>582.8</ele><time>2026-04-03T12:58:26.725Z</time></trkpt><trkpt lat="44.10157379271771" lon="11.697407841762494"><ele>583.0</ele><time>2026-04-03T12:58:27.725Z</time></trkpt><trkpt lat="44.10148070619132" lon="11.69727238559593"><ele>583.0</ele><time>2026-04-03T12:58:28.725Z</time></trkpt><trkpt lat="44.10139840845192" lon="11.697121003456463"><ele>583.0</ele><time>2026-04-03T12:58:29.725Z</time></trkpt><trkpt lat="44.10131922919442" lon="11.696969882400271"><ele>583.0</ele><time>2026-04-03T12:58:30.725Z</time></trkpt><trkpt lat="44.10123770775401" lon="11.696823531218959"><ele>583.0</ele><time>2026-04-03T12:58:31.725Z</time></trkpt><trkpt lat="44.10115941950256" lon="11.696674143973242"><ele>578.0</ele><time>2026-04-03T12:58:32.725Z</time></trkpt><trkpt lat="44.10108469318373" lon="11.696539200759563"><ele>573.0</ele><time>2026-04-03T12:58:33.725Z</time></trkpt><trkpt lat="44.1010206580865" lon="11.696410771421998"><ele>568.0</ele><time>2026-04-03T12:58:34.725Z</time></trkpt><trkpt lat="44.100982254044695" lon="11.696286248318037"><ele>563.0</ele><time>2026-04-03T12:58:35.725Z</time></trkpt><trkpt lat="44.100975422388174" lon="11.696148307015678"><ele>558.0</ele><time>2026-04-03T12:58:36.725Z</time></trkpt><trkpt lat="44.10102125601209" lon="11.696010263627892"><ele>551.6666666666666</ele><time>2026-04-03T12:58:37.725Z</time></trkpt><trkpt lat="44.10110232795779" lon="11.695859470599654"><ele>545.3333333333333</ele><time>2026-04-03T12:58:38.725Z</time></trkpt><trkpt lat="44.101190765327495" lon="11.69568571531054"><ele>539.0</ele><time>2026-04-03T12:58:39.725Z</time></trkpt><trkpt lat="44.101266125288014" lon="11.695466412722453"><ele>534.3333333333333</ele><time>2026-04-03T12:58:40.725Z</time></trkpt><trkpt lat="44.101330625749796" lon="11.695233991519295"><ele>529.6666666666666</ele><time>2026-04-03T12:58:41.725Z</time></trkpt><trkpt lat="44.101379097633426" lon="11.694984063147015"><ele>525.0</ele><time>2026-04-03T12:58:42.725Z</time></trkpt><trkpt lat="44.101422629905805" lon="11.6947277512307"><ele>525.0</ele><time>2026-04-03T12:58:43.725Z</time></trkpt><trkpt lat="44.101461127404576" lon="11.694482304182394"><ele>525.0</ele><time>2026-04-03T12:58:44.725Z</time></trkpt><trkpt lat="44.10148154464942" lon="11.69424480869755"><ele>525.0</ele><time>2026-04-03T12:58:45.725Z</time></trkpt><trkpt lat="44.101499295545544" lon="11.69400923217584"><ele>522.6666666666666</ele><time>2026-04-03T12:58:46.725Z</time></trkpt><trkpt lat="44.10150777244078" lon="11.693765068627705"><ele>520.3333333333333</ele><time>2026-04-03T12:58:47.725Z</time></trkpt><trkpt lat="44.101511871902424" lon="11.693519714705184"><ele>518.0</ele><time>2026-04-03T12:58:48.725Z</time></trkpt><trkpt lat="44.1015149636203" lon="11.693288266071164"><ele>515.3333333333333</ele><time>2026-04-03T12:58:49.725Z</time></trkpt><trkpt lat="44.10151864766225" lon="11.693060634731443"><ele>512.6666666666666</ele><time>2026-04-03T12:58:50.725Z</time></trkpt><trkpt lat="44.10153648463315" lon="11.69284349998435"><ele>510.0</ele><time>2026-04-03T12:58:51.725Z</time></trkpt><trkpt lat="44.1015527149553" lon="11.6926225708541"><ele>508.33333333333337</ele><time>2026-04-03T12:58:52.725Z</time></trkpt><trkpt lat="44.10157325282742" lon="11.692392628778547"><ele>506.6666666666667</ele><time>2026-04-03T12:58:53.725Z</time></trkpt><trkpt lat="44.10160323971853" lon="11.692157542810017"><ele>505.0</ele><time>2026-04-03T12:58:54.725Z</time></trkpt><trkpt lat="44.10163350940368" lon="11.69190802949677"><ele>511.0</ele><time>2026-04-03T12:58:55.725Z</time></trkpt><trkpt lat="44.10167483105454" lon="11.691652862039993"><ele>517.0</ele><time>2026-04-03T12:58:56.724Z</time></trkpt><trkpt lat="44.10170989472943" lon="11.691402571238438"><ele>523.0</ele><time>2026-04-03T12:58:57.724Z</time></trkpt><trkpt lat="44.10175814101703" lon="11.691163333919185"><ele>522.3333333333334</ele><time>2026-04-03T12:58:58.724Z</time></trkpt><trkpt lat="44.10180992518801" lon="11.69092966077016"><ele>521.6666666666666</ele><time>2026-04-03T12:58:59.724Z</time></trkpt><trkpt lat="44.1018565772906" lon="11.690707865800674"><ele>521.0</ele><time>2026-04-03T12:59:00.724Z</time></trkpt><trkpt lat="44.10188984586779" lon="11.690483781979522"><ele>521.0</ele><time>2026-04-03T12:59:01.724Z</time></trkpt><trkpt lat="44.101907336858154" lon="11.690263858432187"><ele>521.0</ele><time>2026-04-03T12:59:02.724Z</time></trkpt><trkpt lat="44.101907009391155" lon="11.69006172524965"><ele>521.0</ele><time>2026-04-03T12:59:03.724Z</time></trkpt><trkpt lat="44.10190969432904" lon="11.689875766292245"><ele>521.0</ele><time>2026-04-03T12:59:04.724Z</time></trkpt><trkpt lat="44.10193363037191" lon="11.68970141846914"><ele>519.0</ele><time>2026-04-03T12:59:05.724Z</time></trkpt><trkpt lat="44.10198910059377" lon="11.68952585361363"><ele>517.0</ele><time>2026-04-03T12:59:06.724Z</time></trkpt><trkpt lat="44.10205145036489" lon="11.689355056983056"><ele>515.0</ele><time>2026-04-03T12:59:07.724Z</time></trkpt><trkpt lat="44.10212359015534" lon="11.68919710977748"><ele>513.0</ele><time>2026-04-03T12:59:08.724Z</time></trkpt><trkpt lat="44.10222030357532" lon="11.68905537432259"><ele>513.5</ele><time>2026-04-03T12:59:09.724Z</time></trkpt><trkpt lat="44.102328475030895" lon="11.688938106614168"><ele>514.0</ele><time>2026-04-03T12:59:10.724Z</time></trkpt><trkpt lat="44.10243578182072" lon="11.68885233801974"><ele>514.5</ele><time>2026-04-03T12:59:11.724Z</time></trkpt><trkpt lat="44.10254462022996" lon="11.68880421595888"><ele>515.0</ele><time>2026-04-03T12:59:12.724Z</time></trkpt><trkpt lat="44.102655127350666" lon="11.688797822232006"><ele>515.0</ele><time>2026-04-03T12:59:13.724Z</time></trkpt><trkpt lat="44.10278096374259" lon="11.688831124429695"><ele>515.0</ele><time>2026-04-03T12:59:14.724Z</time></trkpt><trkpt lat="44.10291277465469" lon="11.688862087920493"><ele>515.0</ele><time>2026-04-03T12:59:15.724Z</time></trkpt><trkpt lat="44.103039578730474" lon="11.688849546589992"><ele>515.0</ele><time>2026-04-03T12:59:16.724Z</time></trkpt><trkpt lat="44.1031564168911" lon="11.6888078291385"><ele>514.25</ele><time>2026-04-03T12:59:17.724Z</time></trkpt><trkpt lat="44.10325340278659" lon="11.688729348036738"><ele>513.5</ele><time>2026-04-03T12:59:18.724Z</time></trkpt><trkpt lat="44.10331270875641" lon="11.688591726029637"><ele>512.75</ele><time>2026-04-03T12:59:19.724Z</time></trkpt><trkpt lat="44.10333124470322" lon="11.688418282960702"><ele>512.0</ele><time>2026-04-03T12:59:20.724Z</time></trkpt><trkpt lat="44.10331440966857" lon="11.68822691995559"><ele>509.0</ele><time>2026-04-03T12:59:21.724Z</time></trkpt><trkpt lat="44.10327746755359" lon="11.68801189072298"><ele>506.0</ele><time>2026-04-03T12:59:22.724Z</time></trkpt><trkpt lat="44.10323256019773" lon="11.687803933185016"><ele>503.0</ele><time>2026-04-03T12:59:23.724Z</time></trkpt><trkpt lat="44.10319440510371" lon="11.68759708136279"><ele>497.75</ele><time>2026-04-03T12:59:24.724Z</time></trkpt><trkpt lat="44.1031646669579" lon="11.687394025427079"><ele>492.5</ele><time>2026-04-03T12:59:25.724Z</time></trkpt><trkpt lat="44.103150125930355" lon="11.687191285174388"><ele>487.25</ele><time>2026-04-03T12:59:26.724Z</time></trkpt><trkpt lat="44.1031560603421" lon="11.68698633874911"><ele>482.0</ele><time>2026-04-03T12:59:27.724Z</time></trkpt><trkpt lat="44.103193143848294" lon="11.686772028049786"><ele>483.66666666666663</ele><time>2026-04-03T12:59:28.724Z</time></trkpt><trkpt lat="44.1032454898597" lon="11.686553490648182"><ele>485.33333333333337</ele><time>2026-04-03T12:59:29.724Z</time></trkpt><trkpt lat="44.10328856603329" lon="11.68632119620616"><ele>487.0</ele><time>2026-04-03T12:59:30.724Z</time></trkpt><trkpt lat="44.103306587282304" lon="11.686084092467892"><ele>487.0</ele><time>2026-04-03T12:59:31.724Z</time></trkpt><trkpt lat="44.10330648950339" lon="11.685837752683774"><ele>487.0</ele><time>2026-04-03T12:59:32.724Z</time></trkpt><trkpt lat="44.10330557130728" lon="11.685581616605623"><ele>487.0</ele><time>2026-04-03T12:59:33.724Z</time></trkpt><trkpt lat="44.103302620726055" lon="11.685328484755637"><ele>485.6666666666667</ele><time>2026-04-03T12:59:34.724Z</time></trkpt><trkpt lat="44.10329492021958" lon="11.685075382774974"><ele>484.33333333333337</ele><time>2026-04-03T12:59:35.724Z</time></trkpt><trkpt lat="44.10328853495096" lon="11.684820626405962"><ele>483.0</ele><time>2026-04-03T12:59:36.724Z</time></trkpt><trkpt lat="44.1032767785518" lon="11.684563091198614"><ele>483.66666666666663</ele><time>2026-04-03T12:59:37.724Z</time></trkpt><trkpt lat="44.103270521958905" lon="11.68429614053736"><ele>484.3333333333333</ele><time>2026-04-03T12:59:38.724Z</time></trkpt><trkpt lat="44.10326338916534" lon="11.684024780732758"><ele>485.0</ele><time>2026-04-03T12:59:39.724Z</time></trkpt><trkpt lat="44.1032574565804" lon="11.68375326860556"><ele>484.66666666666663</ele><time>2026-04-03T12:59:40.724Z</time></trkpt><trkpt lat="44.10325352503008" lon="11.683487642504414"><ele>484.33333333333337</ele><time>2026-04-03T12:59:41.724Z</time></trkpt><trkpt lat="44.10324827359504" lon="11.683229695506535"><ele>484.0</ele><time>2026-04-03T12:59:42.724Z</time></trkpt><trkpt lat="44.103240259556344" lon="11.682971836348543"><ele>473.0</ele><time>2026-04-03T12:59:43.724Z</time></trkpt><trkpt lat="44.10323029036191" lon="11.682720859089203"><ele>462.0</ele><time>2026-04-03T12:59:44.724Z</time></trkpt><trkpt lat="44.10321902122047" lon="11.682487606806186"><ele>451.0</ele><time>2026-04-03T12:59:45.724Z</time></trkpt><trkpt lat="44.10320304578084" lon="11.682257750200193"><ele>451.0</ele><time>2026-04-03T12:59:46.724Z</time></trkpt><trkpt lat="44.103169578270006" lon="11.682016646131746"><ele>451.0</ele><time>2026-04-03T12:59:47.724Z</time></trkpt><trkpt lat="44.10311183176691" lon="11.681777464103972"><ele>451.0</ele><time>2026-04-03T12:59:48.724Z</time></trkpt><trkpt lat="44.103036250470986" lon="11.681535715304435"><ele>451.0</ele><time>2026-04-03T12:59:49.724Z</time></trkpt><trkpt lat="44.102953335027806" lon="11.68130506998489"><ele>451.0</ele><time>2026-04-03T12:59:50.724Z</time></trkpt><trkpt lat="44.102872025158305" lon="11.681087347237202"><ele>451.0</ele><time>2026-04-03T12:59:51.722Z</time></trkpt><trkpt lat="44.10278889894272" lon="11.680876993933483"><ele>451.0</ele><time>2026-04-03T12:59:52.721Z</time></trkpt><trkpt lat="44.10271231361093" lon="11.680677476090185"><ele>451.0</ele><time>2026-04-03T12:59:53.721Z</time></trkpt><trkpt lat="44.10264684785964" lon="11.680470996885637"><ele>451.0</ele><time>2026-04-03T12:59:54.722Z</time></trkpt><trkpt lat="44.10260107559733" lon="11.680238552040565"><ele>451.33333333333337</ele><time>2026-04-03T12:59:55.722Z</time></trkpt><trkpt lat="44.10256690724152" lon="11.679990307134108"><ele>451.66666666666663</ele><time>2026-04-03T12:59:56.722Z</time></trkpt><trkpt lat="44.10253265129797" lon="11.679728252296268"><ele>452.0</ele><time>2026-04-03T12:59:57.721Z</time></trkpt><trkpt lat="44.10247849839015" lon="11.679460161190779"><ele>445.66666666666663</ele><time>2026-04-03T12:59:58.722Z</time></trkpt><trkpt lat="44.102400876892695" lon="11.679209750976305"><ele>439.33333333333337</ele><time>2026-04-03T12:59:59.722Z</time></trkpt><trkpt lat="44.10230105190204" lon="11.678981873683515"><ele>433.0</ele><time>2026-04-03T13:00:00.722Z</time></trkpt><trkpt lat="44.10220026946425" lon="11.678762798336551"><ele>437.0</ele><time>2026-04-03T13:00:01.722Z</time></trkpt><trkpt lat="44.102109395623536" lon="11.678544111222688"><ele>441.0</ele><time>2026-04-03T13:00:02.722Z</time></trkpt><trkpt lat="44.10203263622703" lon="11.678332180718716"><ele>445.0</ele><time>2026-04-03T13:00:03.721Z</time></trkpt><trkpt lat="44.101964999955364" lon="11.678132862030534"><ele>445.0</ele><time>2026-04-03T13:00:04.721Z</time></trkpt><trkpt lat="44.101914138681906" lon="11.677928497380657"><ele>445.0</ele><time>2026-04-03T13:00:05.721Z</time></trkpt><trkpt lat="44.10187703995221" lon="11.67773200887473"><ele>445.0</ele><time>2026-04-03T13:00:06.721Z</time></trkpt><trkpt lat="44.1018290660061" lon="11.677559302823974"><ele>445.0</ele><time>2026-04-03T13:00:07.721Z</time></trkpt><trkpt lat="44.101767495150845" lon="11.67737851947562"><ele>445.33333333333337</ele><time>2026-04-03T13:00:08.721Z</time></trkpt><trkpt lat="44.10171003999122" lon="11.677175882947022"><ele>445.66666666666663</ele><time>2026-04-03T13:00:09.721Z</time></trkpt><trkpt lat="44.10166219835924" lon="11.67694028934311"><ele>446.0</ele><time>2026-04-03T13:00:10.721Z</time></trkpt><trkpt lat="44.10162381941527" lon="11.676676683777806"><ele>446.0</ele><time>2026-04-03T13:00:11.721Z</time></trkpt><trkpt lat="44.101601175912975" lon="11.676396389666081"><ele>446.0</ele><time>2026-04-03T13:00:12.721Z</time></trkpt><trkpt lat="44.10158348382211" lon="11.676102427961494"><ele>446.0</ele><time>2026-04-03T13:00:13.721Z</time></trkpt><trkpt lat="44.10157097651394" lon="11.675799430627706"><ele>437.0</ele><time>2026-04-03T13:00:14.721Z</time></trkpt><trkpt lat="44.10155771837893" lon="11.675499808220781"><ele>428.0</ele><time>2026-04-03T13:00:15.721Z</time></trkpt><trkpt lat="44.10154843048831" lon="11.675206729561703"><ele>419.0</ele><time>2026-04-03T13:00:16.721Z</time></trkpt><trkpt lat="44.10153739950653" lon="11.67492048580802"><ele>418.0</ele><time>2026-04-03T13:00:17.721Z</time></trkpt><trkpt lat="44.101527957666306" lon="11.674630061751396"><ele>417.0</ele><time>2026-04-03T13:00:18.721Z</time></trkpt><trkpt lat="44.10151740014029" lon="11.674339713323365"><ele>416.0</ele><time>2026-04-03T13:00:19.721Z</time></trkpt><trkpt lat="44.10151036387502" lon="11.67403697198473"><ele>415.3333333333333</ele><time>2026-04-03T13:00:20.721Z</time></trkpt><trkpt lat="44.101502699961" lon="11.67373145212911"><ele>414.66666666666663</ele><time>2026-04-03T13:00:21.721Z</time></trkpt><trkpt lat="44.10150036013929" lon="11.67343556924839"><ele>414.0</ele><time>2026-04-03T13:00:22.721Z</time></trkpt><trkpt lat="44.10149235703695" lon="11.673142439229668"><ele>412.66666666666663</ele><time>2026-04-03T13:00:23.721Z</time></trkpt><trkpt lat="44.10148382096066" lon="11.672864890250434"><ele>411.3333333333333</ele><time>2026-04-03T13:00:24.721Z</time></trkpt><trkpt lat="44.10147532984135" lon="11.672598004330972"><ele>410.0</ele><time>2026-04-03T13:00:25.721Z</time></trkpt><trkpt lat="44.10147294301343" lon="11.672334001996347"><ele>408.3333333333333</ele><time>2026-04-03T13:00:26.721Z</time></trkpt><trkpt lat="44.10146616209706" lon="11.672074980441069"><ele>406.66666666666663</ele><time>2026-04-03T13:00:27.721Z</time></trkpt><trkpt lat="44.10145763533689" lon="11.671828980805099"><ele>405.0</ele><time>2026-04-03T13:00:28.721Z</time></trkpt><trkpt lat="44.1014511715447" lon="11.671594903915603"><ele>404.0</ele><time>2026-04-03T13:00:29.721Z</time></trkpt><trkpt lat="44.10144724148619" lon="11.671375109387183"><ele>403.0</ele><time>2026-04-03T13:00:30.721Z</time></trkpt><trkpt lat="44.10143824011626" lon="11.671165344150898"><ele>402.0</ele><time>2026-04-03T13:00:31.721Z</time></trkpt><trkpt lat="44.10141187738777" lon="11.67096632381709"><ele>401.25</ele><time>2026-04-03T13:00:32.721Z</time></trkpt><trkpt lat="44.10136303426589" lon="11.670776979105298"><ele>400.5</ele><time>2026-04-03T13:00:33.721Z</time></trkpt><trkpt lat="44.101285233827944" lon="11.67059465450299"><ele>399.75</ele><time>2026-04-03T13:00:34.721Z</time></trkpt><trkpt lat="44.101185113275356" lon="11.670435288187482"><ele>399.0</ele><time>2026-04-03T13:00:35.721Z</time></trkpt><trkpt lat="44.1010781942218" lon="11.670312475060951"><ele>399.2</ele><time>2026-04-03T13:00:36.721Z</time></trkpt><trkpt lat="44.10097599739877" lon="11.670207846492115"><ele>399.4</ele><time>2026-04-03T13:00:37.721Z</time></trkpt><trkpt lat="44.100894139164055" lon="11.670098729496237"><ele>399.6</ele><time>2026-04-03T13:00:38.721Z</time></trkpt><trkpt lat="44.10084674903499" lon="11.669969692159805"><ele>399.8</ele><time>2026-04-03T13:00:39.721Z</time></trkpt><trkpt lat="44.100839860225" lon="11.669824596154971"><ele>400.0</ele><time>2026-04-03T13:00:40.721Z</time></trkpt><trkpt lat="44.10087793297767" lon="11.66966581364718"><ele>400.0</ele><time>2026-04-03T13:00:41.721Z</time></trkpt><trkpt lat="44.10092987141288" lon="11.669495073091355"><ele>400.0</ele><time>2026-04-03T13:00:42.721Z</time></trkpt><trkpt lat="44.10097683269727" lon="11.669331297828807"><ele>400.0</ele><time>2026-04-03T13:00:43.721Z</time></trkpt><trkpt lat="44.10102485222769" lon="11.669167091064141"><ele>400.0</ele><time>2026-04-03T13:00:44.721Z</time></trkpt><trkpt lat="44.101068057226755" lon="11.669001293557411"><ele>397.75</ele><time>2026-04-03T13:00:45.721Z</time></trkpt><trkpt lat="44.10110807487441" lon="11.668848013872463"><ele>395.5</ele><time>2026-04-03T13:00:46.721Z</time></trkpt><trkpt lat="44.1011503233101" lon="11.668700372254214"><ele>393.25</ele><time>2026-04-03T13:00:47.721Z</time></trkpt><trkpt lat="44.101191737777754" lon="11.66855749244166"><ele>391.0</ele><time>2026-04-03T13:00:48.721Z</time></trkpt><trkpt lat="44.10123418137311" lon="11.668417005096435"><ele>389.50000000000006</ele><time>2026-04-03T13:00:49.721Z</time></trkpt><trkpt lat="44.10126234967136" lon="11.668289599443318"><ele>388.0</ele><time>2026-04-03T13:00:50.721Z</time></trkpt><trkpt lat="44.10125956233927" lon="11.668170275657587"><ele>386.5</ele><time>2026-04-03T13:00:51.721Z</time></trkpt><trkpt lat="44.101215024662245" lon="11.66807556519029"><ele>385.0</ele><time>2026-04-03T13:00:52.721Z</time></trkpt><trkpt lat="44.101138404566505" lon="11.668037175594339"><ele>383.5</ele><time>2026-04-03T13:00:53.721Z</time></trkpt><trkpt lat="44.10104493130625" lon="11.668066340750363"><ele>382.0</ele><time>2026-04-03T13:00:54.721Z</time></trkpt><trkpt lat="44.10096209434898" lon="11.668152935939261"><ele>382.0</ele><time>2026-04-03T13:00:55.721Z</time></trkpt><trkpt lat="44.10087894151031" lon="11.66826998273693"><ele>382.0</ele><time>2026-04-03T13:00:56.721Z</time></trkpt><trkpt lat="44.10079397078808" lon="11.668407730774115"><ele>382.0</ele><time>2026-04-03T13:00:57.721Z</time></trkpt><trkpt lat="44.1007127395485" lon="11.668548775310132"><ele>382.0</ele><time>2026-04-03T13:00:58.721Z</time></trkpt><trkpt lat="44.100627288685025" lon="11.668702631871982"><ele>378.66666666666663</ele><time>2026-04-03T13:00:59.721Z</time></trkpt><trkpt lat="44.100540770818775" lon="11.668862271255534"><ele>375.3333333333333</ele><time>2026-04-03T13:01:00.721Z</time></trkpt><trkpt lat="44.10045251394961" lon="11.669018175530663"><ele>372.0</ele><time>2026-04-03T13:01:01.721Z</time></trkpt><trkpt lat="44.10035195665668" lon="11.669199491694728"><ele>372.0</ele><time>2026-04-03T13:01:02.721Z</time></trkpt><trkpt lat="44.100241049133324" lon="11.669395353250373"><ele>372.0</ele><time>2026-04-03T13:01:03.721Z</time></trkpt><trkpt lat="44.10012073886502" lon="11.669598796920575"><ele>372.0</ele><time>2026-04-03T13:01:04.72Z</time></trkpt><trkpt lat="44.09998927528681" lon="11.669803178391772"><ele>370.6666666666667</ele><time>2026-04-03T13:01:05.72Z</time></trkpt><trkpt lat="44.0998495897371" lon="11.670007029705218"><ele>369.33333333333337</ele><time>2026-04-03T13:01:06.72Z</time></trkpt><trkpt lat="44.09971904741325" lon="11.67020950293471"><ele>368.0</ele><time>2026-04-03T13:01:07.72Z</time></trkpt><trkpt lat="44.09959192008022" lon="11.670401119166737"><ele>368.0</ele><time>2026-04-03T13:01:08.72Z</time></trkpt><trkpt lat="44.099464050164435" lon="11.670576962790252"><ele>368.0</ele><time>2026-04-03T13:01:09.72Z</time></trkpt><trkpt lat="44.09932957608498" lon="11.67072828359374"><ele>368.0</ele><time>2026-04-03T13:01:10.72Z</time></trkpt><trkpt lat="44.09919249661583" lon="11.670849913381232"><ele>365.5</ele><time>2026-04-03T13:01:11.72Z</time></trkpt><trkpt lat="44.099055037215855" lon="11.67093974811267"><ele>363.0</ele><time>2026-04-03T13:01:12.72Z</time></trkpt><trkpt lat="44.09892405311696" lon="11.671009830335377"><ele>360.5</ele><time>2026-04-03T13:01:13.72Z</time></trkpt><trkpt lat="44.098811796984876" lon="11.671055303619058"><ele>358.0</ele><time>2026-04-03T13:01:14.72Z</time></trkpt><trkpt lat="44.09870488761226" lon="11.671077839586237"><ele>358.0</ele><time>2026-04-03T13:01:15.72Z</time></trkpt><trkpt lat="44.098598890752925" lon="11.671070185800929"><ele>358.0</ele><time>2026-04-03T13:01:16.72Z</time></trkpt><trkpt lat="44.09851093049887" lon="11.671014664834852"><ele>358.0</ele><time>2026-04-03T13:01:17.72Z</time></trkpt><trkpt lat="44.09841512411315" lon="11.670883275305162"><ele>358.0</ele><time>2026-04-03T13:01:18.72Z</time></trkpt><trkpt lat="44.098333785991464" lon="11.670702237874654"><ele>358.0</ele><time>2026-04-03T13:01:19.72Z</time></trkpt><trkpt lat="44.09828833409656" lon="11.670510242548616"><ele>358.0</ele><time>2026-04-03T13:01:20.72Z</time></trkpt><trkpt lat="44.09828008801162" lon="11.670309415847521"><ele>358.0</ele><time>2026-04-03T13:01:21.72Z</time></trkpt><trkpt lat="44.098313342761784" lon="11.670091721597158"><ele>358.0</ele><time>2026-04-03T13:01:22.72Z</time></trkpt><trkpt lat="44.09837798061928" lon="11.669873699072367"><ele>356.0</ele><time>2026-04-03T13:01:23.72Z</time></trkpt><trkpt lat="44.098460079769914" lon="11.66966518846918"><ele>354.0</ele><time>2026-04-03T13:01:24.72Z</time></trkpt><trkpt lat="44.098559636530254" lon="11.669474438362766"><ele>352.0</ele><time>2026-04-03T13:01:25.72Z</time></trkpt><trkpt lat="44.098680226953185" lon="11.669290900530099"><ele>348.66666666666663</ele><time>2026-04-03T13:01:26.72Z</time></trkpt><trkpt lat="44.09881433191583" lon="11.66912030032406"><ele>345.3333333333333</ele><time>2026-04-03T13:01:27.72Z</time></trkpt><trkpt lat="44.098944353395034" lon="11.66895534998948"><ele>342.0</ele><time>2026-04-03T13:01:28.72Z</time></trkpt><trkpt lat="44.09906110592022" lon="11.668772712289256"><ele>343.0</ele><time>2026-04-03T13:01:29.72Z</time></trkpt><trkpt lat="44.09916379425569" lon="11.668574628916144"><ele>344.0</ele><time>2026-04-03T13:01:30.72Z</time></trkpt><trkpt lat="44.09924364084126" lon="11.668361917940672"><ele>345.0</ele><time>2026-04-03T13:01:31.72Z</time></trkpt><trkpt lat="44.099295007201285" lon="11.668124443343482"><ele>345.0</ele><time>2026-04-03T13:01:32.72Z</time></trkpt><trkpt lat="44.0993143481544" lon="11.667875999725252"><ele>345.0</ele><time>2026-04-03T13:01:33.72Z</time></trkpt><trkpt lat="44.099308530805395" lon="11.667629797341792"><ele>345.0</ele><time>2026-04-03T13:01:34.72Z</time></trkpt><trkpt lat="44.099296848957756" lon="11.667406587758618"><ele>343.25</ele><time>2026-04-03T13:01:35.72Z</time></trkpt><trkpt lat="44.099290132207464" lon="11.667202260556413"><ele>341.5</ele><time>2026-04-03T13:01:36.72Z</time></trkpt><trkpt lat="44.09928779786191" lon="11.66702845639091"><ele>339.75</ele><time>2026-04-03T13:01:37.72Z</time></trkpt><trkpt lat="44.09929678809033" lon="11.666858606376366"><ele>338.0</ele><time>2026-04-03T13:01:38.72Z</time></trkpt><trkpt lat="44.099337525102804" lon="11.666722786977093"><ele>335.75</ele><time>2026-04-03T13:01:39.72Z</time></trkpt><trkpt lat="44.09940357604614" lon="11.6666232272255"><ele>333.5</ele><time>2026-04-03T13:01:40.72Z</time></trkpt><trkpt lat="44.09949330734598" lon="11.666569706391938"><ele>331.25</ele><time>2026-04-03T13:01:41.72Z</time></trkpt><trkpt lat="44.09961296828666" lon="11.66655206687587"><ele>329.0</ele><time>2026-04-03T13:01:42.72Z</time></trkpt><trkpt lat="44.099756605633885" lon="11.666542164310778"><ele>329.0</ele><time>2026-04-03T13:01:43.72Z</time></trkpt><trkpt lat="44.09991525285223" lon="11.66652839246145"><ele>329.0</ele><time>2026-04-03T13:01:44.72Z</time></trkpt><trkpt lat="44.10008707706496" lon="11.666502407523343"><ele>329.0</ele><time>2026-04-03T13:01:45.72Z</time></trkpt><trkpt lat="44.100267146439684" lon="11.666460117427919"><ele>332.33333333333337</ele><time>2026-04-03T13:01:46.72Z</time></trkpt><trkpt lat="44.100450949376274" lon="11.6664157693496"><ele>335.6666666666667</ele><time>2026-04-03T13:01:47.72Z</time></trkpt><trkpt lat="44.1006317382874" lon="11.666381222199558"><ele>339.0</ele><time>2026-04-03T13:01:48.72Z</time></trkpt><trkpt lat="44.100820760450155" lon="11.666355466464761"><ele>341.3333333333333</ele><time>2026-04-03T13:01:49.72Z</time></trkpt><trkpt lat="44.101013522969396" lon="11.666338671163734"><ele>343.66666666666663</ele><time>2026-04-03T13:01:50.72Z</time></trkpt><trkpt lat="44.101207750195925" lon="11.666346211958208"><ele>346.0</ele><time>2026-04-03T13:01:51.72Z</time></trkpt><trkpt lat="44.10139550610479" lon="11.66637311189291"><ele>346.0</ele><time>2026-04-03T13:01:52.72Z</time></trkpt><trkpt lat="44.10157377417769" lon="11.666404856523606"><ele>346.0</ele><time>2026-04-03T13:01:53.72Z</time></trkpt><trkpt lat="44.10173223073433" lon="11.666449066948775"><ele>346.0</ele><time>2026-04-03T13:01:54.72Z</time></trkpt><trkpt lat="44.101878053809" lon="11.666447030341487"><ele>342.5</ele><time>2026-04-03T13:01:55.72Z</time></trkpt><trkpt lat="44.10201956993177" lon="11.666400770307419"><ele>339.0</ele><time>2026-04-03T13:01:56.72Z</time></trkpt><trkpt lat="44.10214965211113" lon="11.666326644408883"><ele>335.5</ele><time>2026-04-03T13:01:57.718Z</time></trkpt><trkpt lat="44.102281940832114" lon="11.666292348477807"><ele>332.0</ele><time>2026-04-03T13:01:58.718Z</time></trkpt><trkpt lat="44.10241816789504" lon="11.666302803358137"><ele>329.5</ele><time>2026-04-03T13:01:59.718Z</time></trkpt><trkpt lat="44.102565410347005" lon="11.666343968876792"><ele>327.0</ele><time>2026-04-03T13:02:00.718Z</time></trkpt><trkpt lat="44.10269639910026" lon="11.666429310364336"><ele>324.5</ele><time>2026-04-03T13:02:01.718Z</time></trkpt><trkpt lat="44.10282302548325" lon="11.666540699878933"><ele>322.0</ele><time>2026-04-03T13:02:02.718Z</time></trkpt><trkpt lat="44.102942181935205" lon="11.666677575937523"><ele>322.0</ele><time>2026-04-03T13:02:03.718Z</time></trkpt><trkpt lat="44.10306134003685" lon="11.666794694095747"><ele>322.0</ele><time>2026-04-03T13:02:04.719Z</time></trkpt><trkpt lat="44.10319999158162" lon="11.66687483951403"><ele>322.0</ele><time>2026-04-03T13:02:05.719Z</time></trkpt><trkpt lat="44.10334565849028" lon="11.666914260839977"><ele>322.0</ele><time>2026-04-03T13:02:06.718Z</time></trkpt><trkpt lat="44.103494684179175" lon="11.666897669027586"><ele>315.0</ele><time>2026-04-03T13:02:07.718Z</time></trkpt><trkpt lat="44.10365291445975" lon="11.66683754068872"><ele>308.0</ele><time>2026-04-03T13:02:08.718Z</time></trkpt><trkpt lat="44.10382067431243" lon="11.666737552224632"><ele>301.0</ele><time>2026-04-03T13:02:09.718Z</time></trkpt><trkpt lat="44.103995783440396" lon="11.666642356468225"><ele>302.66666666666663</ele><time>2026-04-03T13:02:10.718Z</time></trkpt><trkpt lat="44.10418138217196" lon="11.666557469359633"><ele>304.3333333333333</ele><time>2026-04-03T13:02:11.718Z</time></trkpt><trkpt lat="44.104366416782504" lon="11.666483004959419"><ele>306.0</ele><time>2026-04-03T13:02:12.718Z</time></trkpt><trkpt lat="44.10455690208648" lon="11.666411579425652"><ele>306.0</ele><time>2026-04-03T13:02:13.718Z</time></trkpt><trkpt lat="44.10474179516738" lon="11.666343722305939"><ele>306.0</ele><time>2026-04-03T13:02:14.718Z</time></trkpt><trkpt lat="44.10491520371549" lon="11.666275396987354"><ele>306.0</ele><time>2026-04-03T13:02:15.718Z</time></trkpt><trkpt lat="44.10507225967922" lon="11.666217937470195"><ele>306.75</ele><time>2026-04-03T13:02:16.718Z</time></trkpt><trkpt lat="44.10521093854478" lon="11.666169129890413"><ele>307.5</ele><time>2026-04-03T13:02:17.718Z</time></trkpt><trkpt lat="44.10533818787373" lon="11.666140310859769"><ele>308.25</ele><time>2026-04-03T13:02:18.718Z</time></trkpt><trkpt lat="44.10545149058518" lon="11.666143041941814"><ele>309.0</ele><time>2026-04-03T13:02:19.718Z</time></trkpt><trkpt lat="44.105573026885104" lon="11.666205815424838"><ele>309.0</ele><time>2026-04-03T13:02:20.718Z</time></trkpt><trkpt lat="44.10569742942195" lon="11.666306697347382"><ele>309.0</ele><time>2026-04-03T13:02:21.718Z</time></trkpt><trkpt lat="44.10583832801894" lon="11.666431242789242"><ele>309.0</ele><time>2026-04-03T13:02:22.718Z</time></trkpt><trkpt lat="44.10597975375216" lon="11.666561323911777"><ele>311.25</ele><time>2026-04-03T13:02:23.718Z</time></trkpt><trkpt lat="44.10611479845927" lon="11.666693682668154"><ele>313.5</ele><time>2026-04-03T13:02:24.718Z</time></trkpt><trkpt lat="44.106233152971114" lon="11.666818096569955"><ele>315.75</ele><time>2026-04-03T13:02:25.718Z</time></trkpt><trkpt lat="44.10632929544586" lon="11.666921341628782"><ele>318.0</ele><time>2026-04-03T13:02:26.718Z</time></trkpt><trkpt lat="44.10642183001514" lon="11.667000275854235"><ele>318.0</ele><time>2026-04-03T13:02:27.718Z</time></trkpt><trkpt lat="44.10650293767552" lon="11.66703772120311"><ele>318.0</ele><time>2026-04-03T13:02:28.718Z</time></trkpt><trkpt lat="44.10658364494827" lon="11.667010337255544"><ele>318.0</ele><time>2026-04-03T13:02:29.718Z</time></trkpt><trkpt lat="44.106646527227525" lon="11.666914787865672"><ele>318.0</ele><time>2026-04-03T13:02:30.718Z</time></trkpt><trkpt lat="44.10670768845376" lon="11.666737340540115"><ele>318.0</ele><time>2026-04-03T13:02:31.718Z</time></trkpt><trkpt lat="44.10677076037913" lon="11.66651807746549"><ele>300.3333333333333</ele><time>2026-04-03T13:02:32.718Z</time></trkpt><trkpt lat="44.10682602766416" lon="11.666296203276884"><ele>282.66666666666663</ele><time>2026-04-03T13:02:33.718Z</time></trkpt><trkpt lat="44.1068887838581" lon="11.666085749029214"><ele>265.0</ele><time>2026-04-03T13:02:34.718Z</time></trkpt><trkpt lat="44.106937249958214" lon="11.665900336899103"><ele>263.6</ele><time>2026-04-03T13:02:35.718Z</time></trkpt><trkpt lat="44.10697946997724" lon="11.6657387903587"><ele>262.2</ele><time>2026-04-03T13:02:36.718Z</time></trkpt><trkpt lat="44.10702544406202" lon="11.665595141371474"><ele>260.8</ele><time>2026-04-03T13:02:37.718Z</time></trkpt><trkpt lat="44.10706877675101" lon="11.665460189750032"><ele>259.4</ele><time>2026-04-03T13:02:38.718Z</time></trkpt><trkpt lat="44.1070992585623" lon="11.665366062693707"><ele>258.0</ele><time>2026-04-03T13:02:39.718Z</time></trkpt><trkpt lat="44.10713718012502" lon="11.665272449140465"><ele>257.75</ele><time>2026-04-03T13:02:41.718Z</time></trkpt><trkpt lat="44.10716704552231" lon="11.665160517218284"><ele>257.5</ele><time>2026-04-03T13:02:44.718Z</time></trkpt><trkpt lat="44.107056560156884" lon="11.665012257560916"><ele>257.25</ele><time>2026-04-03T13:02:46.718Z</time></trkpt><trkpt lat="44.10696804703721" lon="11.66493656610567"><ele>257.0</ele><time>2026-04-03T13:02:47.718Z</time></trkpt><trkpt lat="44.10685844817802" lon="11.66485043241501"><ele>257.0</ele><time>2026-04-03T13:02:48.718Z</time></trkpt><trkpt lat="44.1067415416833" lon="11.664748062865664"><ele>257.0</ele><time>2026-04-03T13:02:49.718Z</time></trkpt><trkpt lat="44.1066207494368" lon="11.66464698158377"><ele>257.0</ele><time>2026-04-03T13:02:50.718Z</time></trkpt><trkpt lat="44.106490427817086" lon="11.664538020911134"><ele>257.0</ele><time>2026-04-03T13:02:51.718Z</time></trkpt><trkpt lat="44.106357144174254" lon="11.664423762859464"><ele>258.33333333333337</ele><time>2026-04-03T13:02:52.718Z</time></trkpt><trkpt lat="44.10621943860289" lon="11.664311759532556"><ele>259.6666666666667</ele><time>2026-04-03T13:02:53.718Z</time></trkpt><trkpt lat="44.10608587833026" lon="11.66419769914293"><ele>261.0</ele><time>2026-04-03T13:02:54.718Z</time></trkpt><trkpt lat="44.10595207276255" lon="11.664080135638125"><ele>261.0</ele><time>2026-04-03T13:02:55.718Z</time></trkpt><trkpt lat="44.10581895557961" lon="11.66395483233011"><ele>261.0</ele><time>2026-04-03T13:02:56.718Z</time></trkpt><trkpt lat="44.10568860484881" lon="11.663828336955007"><ele>261.0</ele><time>2026-04-03T13:02:57.718Z</time></trkpt><trkpt lat="44.105558987442585" lon="11.663709827430035"><ele>261.5</ele><time>2026-04-03T13:02:58.718Z</time></trkpt><trkpt lat="44.10543743603091" lon="11.663591708147944"><ele>262.0</ele><time>2026-04-03T13:02:59.718Z</time></trkpt><trkpt lat="44.1053191956757" lon="11.663474693134674"><ele>262.5</ele><time>2026-04-03T13:03:00.718Z</time></trkpt><trkpt lat="44.10520078771374" lon="11.663353623839917"><ele>263.0</ele><time>2026-04-03T13:03:01.718Z</time></trkpt><trkpt lat="44.105090116160454" lon="11.663238229298889"><ele>263.0</ele><time>2026-04-03T13:03:02.718Z</time></trkpt><trkpt lat="44.10498498764133" lon="11.663119643533847"><ele>263.0</ele><time>2026-04-03T13:03:03.718Z</time></trkpt><trkpt lat="44.10488691040956" lon="11.663005919443782"><ele>263.0</ele><time>2026-04-03T13:03:04.718Z</time></trkpt><trkpt lat="44.10478530367228" lon="11.662897010680737"><ele>263.0</ele><time>2026-04-03T13:03:05.718Z</time></trkpt><trkpt lat="44.104682520983154" lon="11.662776786006805"><ele>263.25</ele><time>2026-04-03T13:03:06.718Z</time></trkpt><trkpt lat="44.10458497374308" lon="11.662656132052035"><ele>263.5</ele><time>2026-04-03T13:03:07.718Z</time></trkpt><trkpt lat="44.104483066181984" lon="11.662547233073868"><ele>263.75</ele><time>2026-04-03T13:03:08.718Z</time></trkpt><trkpt lat="44.10438382243601" lon="11.662437711167945"><ele>264.0</ele><time>2026-04-03T13:03:09.718Z</time></trkpt><trkpt lat="44.10429113394981" lon="11.662328871982412"><ele>264.0</ele><time>2026-04-03T13:03:10.718Z</time></trkpt><trkpt lat="44.104204863419326" lon="11.66223065190489"><ele>264.0</ele><time>2026-04-03T13:03:11.718Z</time></trkpt><trkpt lat="44.104125438122885" lon="11.66211972936107"><ele>264.0</ele><time>2026-04-03T13:03:12.718Z</time></trkpt><trkpt lat="44.10404897569534" lon="11.661995605301795"><ele>264.0</ele><time>2026-04-03T13:03:13.718Z</time></trkpt><trkpt lat="44.10398305345893" lon="11.661861356097347"><ele>266.0</ele><time>2026-04-03T13:03:14.718Z</time></trkpt><trkpt lat="44.10391400416215" lon="11.661722735634743"><ele>268.0</ele><time>2026-04-03T13:03:15.718Z</time></trkpt><trkpt lat="44.103853349568574" lon="11.661570493334176"><ele>270.0</ele><time>2026-04-03T13:03:16.718Z</time></trkpt><trkpt lat="44.10378620459394" lon="11.661425784270705"><ele>272.0</ele><time>2026-04-03T13:03:17.718Z</time></trkpt><trkpt lat="44.10372203913695" lon="11.661274890846476"><ele>271.75</ele><time>2026-04-03T13:03:18.718Z</time></trkpt><trkpt lat="44.10366640776438" lon="11.661106823560718"><ele>271.5</ele><time>2026-04-03T13:03:19.718Z</time></trkpt><trkpt lat="44.103602792621" lon="11.660951073508675"><ele>271.25</ele><time>2026-04-03T13:03:20.718Z</time></trkpt><trkpt lat="44.10354664514892" lon="11.660801445639557"><ele>271.0</ele><time>2026-04-03T13:03:21.718Z</time></trkpt><trkpt lat="44.10348580474464" lon="11.660658813362817"><ele>271.0</ele><time>2026-04-03T13:03:22.718Z</time></trkpt><trkpt lat="44.103425667039296" lon="11.660517264698885"><ele>271.0</ele><time>2026-04-03T13:03:23.718Z</time></trkpt><trkpt lat="44.10336594806101" lon="11.660376687651587"><ele>271.0</ele><time>2026-04-03T13:03:24.718Z</time></trkpt><trkpt lat="44.103298165403814" lon="11.660225383033048"><ele>271.0</ele><time>2026-04-03T13:03:25.718Z</time></trkpt><trkpt lat="44.10323120026508" lon="11.660064861278768"><ele>270.25</ele><time>2026-04-03T13:03:26.718Z</time></trkpt><trkpt lat="44.10315635493642" lon="11.659895679914829"><ele>269.5</ele><time>2026-04-03T13:03:27.718Z</time></trkpt><trkpt lat="44.10308197097372" lon="11.659727204553441"><ele>268.75</ele><time>2026-04-03T13:03:28.718Z</time></trkpt><trkpt lat="44.10300511011213" lon="11.659564211910531"><ele>268.0</ele><time>2026-04-03T13:03:29.718Z</time></trkpt><trkpt lat="44.102923139087935" lon="11.659384730757193"><ele>267.66666666666663</ele><time>2026-04-03T13:03:30.718Z</time></trkpt><trkpt lat="44.10283490810461" lon="11.659202172507497"><ele>267.3333333333333</ele><time>2026-04-03T13:03:31.718Z</time></trkpt><trkpt lat="44.10274695256011" lon="11.659015058482991"><ele>267.0</ele><time>2026-04-03T13:03:32.718Z</time></trkpt><trkpt lat="44.10266034800595" lon="11.658831463606335"><ele>267.0</ele><time>2026-04-03T13:03:33.718Z</time></trkpt><trkpt lat="44.10257604144577" lon="11.658646458439511"><ele>267.0</ele><time>2026-04-03T13:03:34.718Z</time></trkpt><trkpt lat="44.10249163859001" lon="11.658458915760264"><ele>267.0</ele><time>2026-04-03T13:03:35.718Z</time></trkpt><trkpt lat="44.10240413789801" lon="11.658264366759568"><ele>267.3333333333333</ele><time>2026-04-03T13:03:36.718Z</time></trkpt><trkpt lat="44.1023215819966" lon="11.658079102823656"><ele>267.66666666666663</ele><time>2026-04-03T13:03:37.718Z</time></trkpt><trkpt lat="44.10224367368994" lon="11.657900641390812"><ele>268.0</ele><time>2026-04-03T13:03:38.718Z</time></trkpt><trkpt lat="44.10216168108637" lon="11.657721700371274"><ele>268.0</ele><time>2026-04-03T13:03:39.718Z</time></trkpt><trkpt lat="44.102080226258025" lon="11.657543428541155"><ele>268.0</ele><time>2026-04-03T13:03:40.718Z</time></trkpt><trkpt lat="44.10199554025918" lon="11.657360717448231"><ele>268.0</ele><time>2026-04-03T13:03:41.718Z</time></trkpt><trkpt lat="44.101911877511405" lon="11.657170980086317"><ele>268.0</ele><time>2026-04-03T13:03:42.718Z</time></trkpt><trkpt lat="44.101825963374786" lon="11.656978493466374"><ele>268.0</ele><time>2026-04-03T13:03:43.718Z</time></trkpt><trkpt lat="44.10173485379467" lon="11.65677592621675"><ele>268.0</ele><time>2026-04-03T13:03:44.718Z</time></trkpt><trkpt lat="44.101643467171506" lon="11.656567381347969"><ele>269.3333333333333</ele><time>2026-04-03T13:03:45.718Z</time></trkpt><trkpt lat="44.10155150033285" lon="11.656362120182456"><ele>270.6666666666667</ele><time>2026-04-03T13:03:46.718Z</time></trkpt><trkpt lat="44.101450567451245" lon="11.656150221042996"><ele>272.0</ele><time>2026-04-03T13:03:47.718Z</time></trkpt><trkpt lat="44.10134077124317" lon="11.655922430270387"><ele>272.0</ele><time>2026-04-03T13:03:48.718Z</time></trkpt><trkpt lat="44.101225612794295" lon="11.655674261092887"><ele>272.0</ele><time>2026-04-03T13:03:49.718Z</time></trkpt><trkpt lat="44.10110223492027" lon="11.65540094984153"><ele>272.0</ele><time>2026-04-03T13:03:50.718Z</time></trkpt><trkpt lat="44.100973183629065" lon="11.65511978119739"><ele>272.0</ele><time>2026-04-03T13:03:51.718Z</time></trkpt><trkpt lat="44.10083410418905" lon="11.654818488048488"><ele>272.0</ele><time>2026-04-03T13:03:52.718Z</time></trkpt><trkpt lat="44.100693965727096" lon="11.65449895871035"><ele>275.5</ele><time>2026-04-03T13:03:53.718Z</time></trkpt><trkpt lat="44.10056138090196" lon="11.654183889194082"><ele>279.0</ele><time>2026-04-03T13:03:54.718Z</time></trkpt><trkpt lat="44.10043071521523" lon="11.65385872963753"><ele>275.0</ele><time>2026-04-03T13:03:55.718Z</time></trkpt><trkpt lat="44.100291012811816" lon="11.653538534297335"><ele>271.0</ele><time>2026-04-03T13:03:56.718Z</time></trkpt><trkpt lat="44.100147857357534" lon="11.653225535221347"><ele>271.0</ele><time>2026-04-03T13:03:57.718Z</time></trkpt><trkpt lat="44.100009183834196" lon="11.652917244739967"><ele>271.0</ele><time>2026-04-03T13:03:58.718Z</time></trkpt><trkpt lat="44.09987381408068" lon="11.652607960142573"><ele>273.5</ele><time>2026-04-03T13:03:59.718Z</time></trkpt><trkpt lat="44.09973568441044" lon="11.652299653006128"><ele>276.0</ele><time>2026-04-03T13:04:00.718Z</time></trkpt><trkpt lat="44.099600611198476" lon="11.651992261578382"><ele>273.0</ele><time>2026-04-03T13:04:01.718Z</time></trkpt><trkpt lat="44.099465138777866" lon="11.651688079330373"><ele>270.0</ele><time>2026-04-03T13:04:02.718Z</time></trkpt><trkpt lat="44.09933434914466" lon="11.65138598841934"><ele>269.5</ele><time>2026-04-03T13:04:03.715Z</time></trkpt><trkpt lat="44.099213153871254" lon="11.651080873199946"><ele>269.0</ele><time>2026-04-03T13:04:04.715Z</time></trkpt><trkpt lat="44.0991067488465" lon="11.65076777198871"><ele>274.0</ele><time>2026-04-03T13:04:05.715Z</time></trkpt><trkpt lat="44.09901354220346" lon="11.650447932927218"><ele>279.0</ele><time>2026-04-03T13:04:06.714Z</time></trkpt><trkpt lat="44.098921001907" lon="11.650128563161424"><ele>279.0</ele><time>2026-04-03T13:04:07.715Z</time></trkpt><trkpt lat="44.098825740631774" lon="11.649815066922429"><ele>279.0</ele><time>2026-04-03T13:04:08.715Z</time></trkpt><trkpt lat="44.09873261954048" lon="11.649506764625688"><ele>277.5</ele><time>2026-04-03T13:04:09.715Z</time></trkpt><trkpt lat="44.09864484452658" lon="11.649200239547701"><ele>276.0</ele><time>2026-04-03T13:04:10.714Z</time></trkpt><trkpt lat="44.098560339931126" lon="11.648897479749431"><ele>275.3333333333333</ele><time>2026-04-03T13:04:11.714Z</time></trkpt><trkpt lat="44.09847784209097" lon="11.648604957306624"><ele>274.66666666666663</ele><time>2026-04-03T13:04:12.714Z</time></trkpt><trkpt lat="44.09839927169565" lon="11.648327484373075"><ele>274.0</ele><time>2026-04-03T13:04:13.714Z</time></trkpt><trkpt lat="44.09832757377306" lon="11.648064000868814"><ele>274.0</ele><time>2026-04-03T13:04:14.714Z</time></trkpt><trkpt lat="44.09825782832495" lon="11.647815468712004"><ele>274.0</ele><time>2026-04-03T13:04:15.715Z</time></trkpt><trkpt lat="44.098183836642065" lon="11.647583618781862"><ele>274.0</ele><time>2026-04-03T13:04:16.714Z</time></trkpt><trkpt lat="44.09810353134404" lon="11.647367410067979"><ele>274.66666666666663</ele><time>2026-04-03T13:04:17.714Z</time></trkpt><trkpt lat="44.0979940584541" lon="11.647159940382144"><ele>275.3333333333333</ele><time>2026-04-03T13:04:18.714Z</time></trkpt><trkpt lat="44.0978672414292" lon="11.646951598240005"><ele>276.0</ele><time>2026-04-03T13:04:19.714Z</time></trkpt><trkpt lat="44.097722844086675" lon="11.646732839572786"><ele>276.0</ele><time>2026-04-03T13:04:20.714Z</time></trkpt><trkpt lat="44.09757574290926" lon="11.646506521420516"><ele>276.0</ele><time>2026-04-03T13:04:21.714Z</time></trkpt><trkpt lat="44.09741556349943" lon="11.646276384799444"><ele>276.0</ele><time>2026-04-03T13:04:22.714Z</time></trkpt><trkpt lat="44.097254279964794" lon="11.646046646989165"><ele>278.0</ele><time>2026-04-03T13:04:23.714Z</time></trkpt><trkpt lat="44.09709873085962" lon="11.645807869876542"><ele>280.0</ele><time>2026-04-03T13:04:24.714Z</time></trkpt><trkpt lat="44.09695629858994" lon="11.64556759085263"><ele>280.0</ele><time>2026-04-03T13:04:25.714Z</time></trkpt><trkpt lat="44.096833859769546" lon="11.64530929735431"><ele>280.0</ele><time>2026-04-03T13:04:26.714Z</time></trkpt><trkpt lat="44.09673343576059" lon="11.645035798819482"><ele>280.0</ele><time>2026-04-03T13:04:27.714Z</time></trkpt><trkpt lat="44.0966483998144" lon="11.644745037713744"><ele>279.3333333333333</ele><time>2026-04-03T13:04:28.714Z</time></trkpt><trkpt lat="44.0965678224717" lon="11.644452451630373"><ele>278.6666666666667</ele><time>2026-04-03T13:04:29.714Z</time></trkpt><trkpt lat="44.096477052484104" lon="11.644172278579084"><ele>278.0</ele><time>2026-04-03T13:04:30.714Z</time></trkpt><trkpt lat="44.09638091581118" lon="11.643915790339346"><ele>278.0</ele><time>2026-04-03T13:04:31.714Z</time></trkpt><trkpt lat="44.096277897369085" lon="11.643675436330557"><ele>278.0</ele><time>2026-04-03T13:04:32.714Z</time></trkpt><trkpt lat="44.09617627724223" lon="11.643437034749105"><ele>278.0</ele><time>2026-04-03T13:04:33.714Z</time></trkpt><trkpt lat="44.096077847573056" lon="11.643200890283435"><ele>278.0</ele><time>2026-04-03T13:04:34.714Z</time></trkpt><trkpt lat="44.095981077007785" lon="11.642967949554901"><ele>278.0</ele><time>2026-04-03T13:04:35.714Z</time></trkpt><trkpt lat="44.095883077294204" lon="11.642739972250656"><ele>278.0</ele><time>2026-04-03T13:04:36.714Z</time></trkpt><trkpt lat="44.09578364437591" lon="11.642516429888111"><ele>279.0</ele><time>2026-04-03T13:04:37.714Z</time></trkpt><trkpt lat="44.09568933698741" lon="11.642289642227745"><ele>280.0</ele><time>2026-04-03T13:04:38.714Z</time></trkpt><trkpt lat="44.09559305840797" lon="11.642071132620885"><ele>281.0</ele><time>2026-04-03T13:04:39.714Z</time></trkpt><trkpt lat="44.095506197000404" lon="11.641845334936162"><ele>281.0</ele><time>2026-04-03T13:04:40.714Z</time></trkpt><trkpt lat="44.095416157510925" lon="11.641638089802651"><ele>281.0</ele><time>2026-04-03T13:04:41.714Z</time></trkpt><trkpt lat="44.09533556453237" lon="11.641434320027878"><ele>281.0</ele><time>2026-04-03T13:04:42.714Z</time></trkpt><trkpt lat="44.09525488650591" lon="11.6412341426851"><ele>280.6666666666667</ele><time>2026-04-03T13:04:43.714Z</time></trkpt><trkpt lat="44.0951735842089" lon="11.641037753538157"><ele>280.3333333333333</ele><time>2026-04-03T13:04:44.714Z</time></trkpt><trkpt lat="44.09508957944504" lon="11.640841957142701"><ele>280.0</ele><time>2026-04-03T13:04:45.714Z</time></trkpt><trkpt lat="44.09500931497041" lon="11.640652135445055"><ele>280.0</ele><time>2026-04-03T13:04:46.714Z</time></trkpt><trkpt lat="44.094934671258976" lon="11.6404691793768"><ele>280.0</ele><time>2026-04-03T13:04:47.714Z</time></trkpt><trkpt lat="44.09485995504412" lon="11.640289142417515"><ele>280.0</ele><time>2026-04-03T13:04:48.714Z</time></trkpt><trkpt lat="44.09478995948983" lon="11.640111060958658"><ele>280.0</ele><time>2026-04-03T13:04:49.714Z</time></trkpt><trkpt lat="44.0947242980327" lon="11.639933991487572"><ele>280.0</ele><time>2026-04-03T13:04:50.714Z</time></trkpt><trkpt lat="44.094660593040174" lon="11.6397507016368"><ele>280.0</ele><time>2026-04-03T13:04:51.714Z</time></trkpt><trkpt lat="44.0946005135377" lon="11.63956384123017"><ele>280.0</ele><time>2026-04-03T13:04:52.714Z</time></trkpt><trkpt lat="44.094544232883834" lon="11.639373558805245"><ele>280.0</ele><time>2026-04-03T13:04:53.714Z</time></trkpt><trkpt lat="44.09448730228973" lon="11.63918404410841"><ele>279.25</ele><time>2026-04-03T13:04:54.714Z</time></trkpt><trkpt lat="44.094432618506424" lon="11.638997132313508"><ele>278.5</ele><time>2026-04-03T13:04:55.714Z</time></trkpt><trkpt lat="44.09437708310481" lon="11.638816059877708"><ele>277.75</ele><time>2026-04-03T13:04:56.714Z</time></trkpt><trkpt lat="44.09431717626544" lon="11.638654500828732"><ele>277.0</ele><time>2026-04-03T13:04:57.714Z</time></trkpt><trkpt lat="44.094235407285765" lon="11.638508158693321"><ele>277.0</ele><time>2026-04-03T13:04:58.714Z</time></trkpt><trkpt lat="44.09413704560549" lon="11.638384524166018"><ele>277.0</ele><time>2026-04-03T13:04:59.714Z</time></trkpt><trkpt lat="44.09402016482478" lon="11.638280897107764"><ele>277.0</ele><time>2026-04-03T13:05:00.714Z</time></trkpt><trkpt lat="44.09388354395084" lon="11.638206243151794"><ele>277.0</ele><time>2026-04-03T13:05:01.714Z</time></trkpt><trkpt lat="44.09374385130872" lon="11.63813317131299"><ele>276.3333333333333</ele><time>2026-04-03T13:05:02.714Z</time></trkpt><trkpt lat="44.093601703459065" lon="11.638048556585382"><ele>275.6666666666667</ele><time>2026-04-03T13:05:03.714Z</time></trkpt><trkpt lat="44.093464625359545" lon="11.637955893660347"><ele>275.0</ele><time>2026-04-03T13:05:04.714Z</time></trkpt><trkpt lat="44.09333275830883" lon="11.63785341983083"><ele>276.6666666666667</ele><time>2026-04-03T13:05:05.714Z</time></trkpt><trkpt lat="44.0932016694111" lon="11.63774924061082"><ele>278.3333333333333</ele><time>2026-04-03T13:05:06.714Z</time></trkpt><trkpt lat="44.093067078300834" lon="11.637631368797491"><ele>280.0</ele><time>2026-04-03T13:05:07.714Z</time></trkpt><trkpt lat="44.09292443339724" lon="11.637494574593806"><ele>280.0</ele><time>2026-04-03T13:05:08.714Z</time></trkpt><trkpt lat="44.092799122640955" lon="11.637354061403384"><ele>280.0</ele><time>2026-04-03T13:05:09.714Z</time></trkpt><trkpt lat="44.092689793694426" lon="11.637221126152765"><ele>280.0</ele><time>2026-04-03T13:05:10.714Z</time></trkpt><trkpt lat="44.092590699195554" lon="11.637088093697523"><ele>280.0</ele><time>2026-04-03T13:05:11.714Z</time></trkpt><trkpt lat="44.092491251829365" lon="11.636955627333181"><ele>281.25</ele><time>2026-04-03T13:05:12.714Z</time></trkpt><trkpt lat="44.092383751877364" lon="11.636827089937471"><ele>282.5</ele><time>2026-04-03T13:05:13.714Z</time></trkpt><trkpt lat="44.092273811271234" lon="11.636688642725767"><ele>283.75</ele><time>2026-04-03T13:05:14.714Z</time></trkpt><trkpt lat="44.09216097831665" lon="11.63654155338158"><ele>285.0</ele><time>2026-04-03T13:05:15.714Z</time></trkpt><trkpt lat="44.0920450363348" lon="11.636397597136462"><ele>285.0</ele><time>2026-04-03T13:05:16.714Z</time></trkpt><trkpt lat="44.09192744993852" lon="11.636255914668183"><ele>285.0</ele><time>2026-04-03T13:05:17.714Z</time></trkpt><trkpt lat="44.09180328449801" lon="11.63612577619014"><ele>285.0</ele><time>2026-04-03T13:05:18.714Z</time></trkpt><trkpt lat="44.09166822962363" lon="11.636005757846226"><ele>285.6666666666667</ele><time>2026-04-03T13:05:19.714Z</time></trkpt><trkpt lat="44.091526243289465" lon="11.635887316636662"><ele>286.33333333333337</ele><time>2026-04-03T13:05:20.714Z</time></trkpt><trkpt lat="44.091379553318276" lon="11.635766262674936"><ele>287.0</ele><time>2026-04-03T13:05:21.714Z</time></trkpt><trkpt lat="44.09122669207177" lon="11.635645651126046"><ele>287.0</ele><time>2026-04-03T13:05:22.714Z</time></trkpt><trkpt lat="44.09107134558462" lon="11.635528120886477"><ele>287.0</ele><time>2026-04-03T13:05:23.714Z</time></trkpt><trkpt lat="44.09091684169851" lon="11.635411793318124"><ele>287.0</ele><time>2026-04-03T13:05:24.714Z</time></trkpt><trkpt lat="44.090763894024185" lon="11.635290359145866"><ele>287.0</ele><time>2026-04-03T13:05:25.714Z</time></trkpt><trkpt lat="44.09060991456904" lon="11.635167223810233"><ele>287.0</ele><time>2026-04-03T13:05:26.714Z</time></trkpt><trkpt lat="44.09045259970151" lon="11.635039661155638"><ele>287.0</ele><time>2026-04-03T13:05:27.714Z</time></trkpt><trkpt lat="44.09029820507281" lon="11.634913353084631"><ele>287.0</ele><time>2026-04-03T13:05:28.714Z</time></trkpt><trkpt lat="44.0901422642611" lon="11.634787390295076"><ele>287.0</ele><time>2026-04-03T13:05:29.714Z</time></trkpt><trkpt lat="44.08999204845946" lon="11.634656841239956"><ele>287.0</ele><time>2026-04-03T13:05:30.714Z</time></trkpt><trkpt lat="44.08984669445891" lon="11.634520952177732"><ele>287.6666666666667</ele><time>2026-04-03T13:05:31.714Z</time></trkpt><trkpt lat="44.08970792146067" lon="11.634378530062719"><ele>288.3333333333333</ele><time>2026-04-03T13:05:32.714Z</time></trkpt><trkpt lat="44.089574930858085" lon="11.634234928912347"><ele>289.0</ele><time>2026-04-03T13:05:33.714Z</time></trkpt><trkpt lat="44.08944694376545" lon="11.634086598501382"><ele>289.0</ele><time>2026-04-03T13:05:34.714Z</time></trkpt><trkpt lat="44.08932629058691" lon="11.633924763438998"><ele>289.0</ele><time>2026-04-03T13:05:35.714Z</time></trkpt><trkpt lat="44.08922370904235" lon="11.633735790130242"><ele>289.0</ele><time>2026-04-03T13:05:36.714Z</time></trkpt><trkpt lat="44.08913068382128" lon="11.633527944906655"><ele>288.0</ele><time>2026-04-03T13:05:37.714Z</time></trkpt><trkpt lat="44.089047376709736" lon="11.63332264904789"><ele>287.0</ele><time>2026-04-03T13:05:38.714Z</time></trkpt><trkpt lat="44.0889731574361" lon="11.633123085602486"><ele>286.0</ele><time>2026-04-03T13:05:39.714Z</time></trkpt><trkpt lat="44.088897049643094" lon="11.632926452769915"><ele>287.0</ele><time>2026-04-03T13:05:40.714Z</time></trkpt><trkpt lat="44.08882187933609" lon="11.632734098331042"><ele>288.0</ele><time>2026-04-03T13:05:41.714Z</time></trkpt><trkpt lat="44.08874414519276" lon="11.632551117354444"><ele>289.0</ele><time>2026-04-03T13:05:42.714Z</time></trkpt><trkpt lat="44.08867146249569" lon="11.632376740801668"><ele>289.0</ele><time>2026-04-03T13:05:43.714Z</time></trkpt><trkpt lat="44.08861101838535" lon="11.632195709490675"><ele>289.0</ele><time>2026-04-03T13:05:44.714Z</time></trkpt><trkpt lat="44.08855011958616" lon="11.632029474069917"><ele>289.0</ele><time>2026-04-03T13:05:45.714Z</time></trkpt><trkpt lat="44.08849901869205" lon="11.631858345241534"><ele>289.0</ele><time>2026-04-03T13:05:46.714Z</time></trkpt><trkpt lat="44.088466508568516" lon="11.631686863812128"><ele>289.0</ele><time>2026-04-03T13:05:47.714Z</time></trkpt><trkpt lat="44.088448460113796" lon="11.631523518407082"><ele>289.0</ele><time>2026-04-03T13:05:48.714Z</time></trkpt><trkpt lat="44.08845180733253" lon="11.631354157048216"><ele>289.0</ele><time>2026-04-03T13:05:49.714Z</time></trkpt><trkpt lat="44.08847056881041" lon="11.631180558062827"><ele>289.0</ele><time>2026-04-03T13:05:50.714Z</time></trkpt><trkpt lat="44.088493272915535" lon="11.631006297060887"><ele>289.5</ele><time>2026-04-03T13:05:51.714Z</time></trkpt><trkpt lat="44.08851318304223" lon="11.630829414320992"><ele>290.0</ele><time>2026-04-03T13:05:52.714Z</time></trkpt><trkpt lat="44.08853121772471" lon="11.63065371210183"><ele>290.5</ele><time>2026-04-03T13:05:53.714Z</time></trkpt><trkpt lat="44.088545454961434" lon="11.630473171654021"><ele>291.0</ele><time>2026-04-03T13:05:54.714Z</time></trkpt><trkpt lat="44.08855800824973" lon="11.630290345975823"><ele>291.75</ele><time>2026-04-03T13:05:55.714Z</time></trkpt><trkpt lat="44.088557485618956" lon="11.63009978095979"><ele>292.5</ele><time>2026-04-03T13:05:56.714Z</time></trkpt><trkpt lat="44.088545152885615" lon="11.629901567401994"><ele>293.25</ele><time>2026-04-03T13:05:57.714Z</time></trkpt><trkpt lat="44.08851714282554" lon="11.629703006480375"><ele>294.0</ele><time>2026-04-03T13:05:58.714Z</time></trkpt><trkpt lat="44.08845780096867" lon="11.629516052513374"><ele>292.0</ele><time>2026-04-03T13:05:59.714Z</time></trkpt><trkpt lat="44.08837513470425" lon="11.629354001238786"><ele>290.0</ele><time>2026-04-03T13:06:00.714Z</time></trkpt><trkpt lat="44.08828192180494" lon="11.629186541460637"><ele>288.0</ele><time>2026-04-03T13:06:01.714Z</time></trkpt><trkpt lat="44.08819241428668" lon="11.629010442944615"><ele>288.0</ele><time>2026-04-03T13:06:02.714Z</time></trkpt><trkpt lat="44.08810865856421" lon="11.628819164371087"><ele>288.0</ele><time>2026-04-03T13:06:03.714Z</time></trkpt><trkpt lat="44.08803040335006" lon="11.628629763971057"><ele>288.0</ele><time>2026-04-03T13:06:04.714Z</time></trkpt><trkpt lat="44.08795189880507" lon="11.628441183863917"><ele>293.0</ele><time>2026-04-03T13:06:05.714Z</time></trkpt><trkpt lat="44.08787160663809" lon="11.628253770498866"><ele>298.0</ele><time>2026-04-03T13:06:06.714Z</time></trkpt><trkpt lat="44.08778984367143" lon="11.628079494487825"><ele>303.0</ele><time>2026-04-03T13:06:07.714Z</time></trkpt><trkpt lat="44.08769704964361" lon="11.627922428421325"><ele>302.75</ele><time>2026-04-03T13:06:08.714Z</time></trkpt><trkpt lat="44.0875996981271" lon="11.627778689853583"><ele>302.5</ele><time>2026-04-03T13:06:09.712Z</time></trkpt><trkpt lat="44.08750075875772" lon="11.627640009967285"><ele>302.25</ele><time>2026-04-03T13:06:10.711Z</time></trkpt><trkpt lat="44.08740420285751" lon="11.627499692561042"><ele>302.0</ele><time>2026-04-03T13:06:11.711Z</time></trkpt><trkpt lat="44.087300903413364" lon="11.627371655622397"><ele>302.0</ele><time>2026-04-03T13:06:12.711Z</time></trkpt><trkpt lat="44.087191328187934" lon="11.627257302972193"><ele>302.0</ele><time>2026-04-03T13:06:13.711Z</time></trkpt><trkpt lat="44.08707525275957" lon="11.627152252466832"><ele>302.0</ele><time>2026-04-03T13:06:14.711Z</time></trkpt><trkpt lat="44.08694946969663" lon="11.627058754204034"><ele>302.0</ele><time>2026-04-03T13:06:15.711Z</time></trkpt><trkpt lat="44.08681722201199" lon="11.626970079009784"><ele>304.0</ele><time>2026-04-03T13:06:16.712Z</time></trkpt><trkpt lat="44.08668582014103" lon="11.626868097045756"><ele>306.0</ele><time>2026-04-03T13:06:17.712Z</time></trkpt><trkpt lat="44.086545101621915" lon="11.626767955965484"><ele>308.0</ele><time>2026-04-03T13:06:18.711Z</time></trkpt><trkpt lat="44.08639448229515" lon="11.626679625924028"><ele>308.0</ele><time>2026-04-03T13:06:19.711Z</time></trkpt><trkpt lat="44.08624634707075" lon="11.626576862035867"><ele>308.0</ele><time>2026-04-03T13:06:20.711Z</time></trkpt><trkpt lat="44.08609764530506" lon="11.626462428688237"><ele>308.0</ele><time>2026-04-03T13:06:21.711Z</time></trkpt><trkpt lat="44.08595396270101" lon="11.626362066805665"><ele>308.0</ele><time>2026-04-03T13:06:22.711Z</time></trkpt><trkpt lat="44.08581489124157" lon="11.62626554118954"><ele>308.0</ele><time>2026-04-03T13:06:23.711Z</time></trkpt><trkpt lat="44.085686797514754" lon="11.626173856255509"><ele>308.0</ele><time>2026-04-03T13:06:24.711Z</time></trkpt><trkpt lat="44.085561272636184" lon="11.626089521066623"><ele>308.0</ele><time>2026-04-03T13:06:25.711Z</time></trkpt><trkpt lat="44.08544115823852" lon="11.626003151633366"><ele>309.0</ele><time>2026-04-03T13:06:26.711Z</time></trkpt><trkpt lat="44.08531918040859" lon="11.62591668804567"><ele>310.0</ele><time>2026-04-03T13:06:27.711Z</time></trkpt><trkpt lat="44.08519577451525" lon="11.625824393311682"><ele>311.0</ele><time>2026-04-03T13:06:28.711Z</time></trkpt><trkpt lat="44.08506623948287" lon="11.625735176970215"><ele>312.0</ele><time>2026-04-03T13:06:29.711Z</time></trkpt><trkpt lat="44.08493859778909" lon="11.62564571263663"><ele>312.75</ele><time>2026-04-03T13:06:30.711Z</time></trkpt><trkpt lat="44.084811060292324" lon="11.625549061028087"><ele>313.5</ele><time>2026-04-03T13:06:31.711Z</time></trkpt><trkpt lat="44.08468099078259" lon="11.625445672548217"><ele>314.25</ele><time>2026-04-03T13:06:32.711Z</time></trkpt><trkpt lat="44.084547513589314" lon="11.625340079521452"><ele>315.0</ele><time>2026-04-03T13:06:33.711Z</time></trkpt><trkpt lat="44.084412951054624" lon="11.625231767696844"><ele>315.0</ele><time>2026-04-03T13:06:34.711Z</time></trkpt><trkpt lat="44.08428856400092" lon="11.625116973866747"><ele>315.0</ele><time>2026-04-03T13:06:35.711Z</time></trkpt><trkpt lat="44.08417045014133" lon="11.624984647453035"><ele>315.0</ele><time>2026-04-03T13:06:36.711Z</time></trkpt><trkpt lat="44.084058099600135" lon="11.624840186373119"><ele>313.3333333333333</ele><time>2026-04-03T13:06:37.711Z</time></trkpt><trkpt lat="44.08395399534804" lon="11.624684459249952"><ele>311.66666666666663</ele><time>2026-04-03T13:06:38.711Z</time></trkpt><trkpt lat="44.08385628354729" lon="11.624516990614525"><ele>310.0</ele><time>2026-04-03T13:06:39.711Z</time></trkpt><trkpt lat="44.083758040123264" lon="11.624348246946209"><ele>310.0</ele><time>2026-04-03T13:06:40.711Z</time></trkpt><trkpt lat="44.08365887234513" lon="11.624180416481792"><ele>310.0</ele><time>2026-04-03T13:06:41.711Z</time></trkpt><trkpt lat="44.083557231271925" lon="11.624012232583077"><ele>310.0</ele><time>2026-04-03T13:06:42.711Z</time></trkpt><trkpt lat="44.0834506420898" lon="11.623831901181724"><ele>310.0</ele><time>2026-04-03T13:06:43.711Z</time></trkpt><trkpt lat="44.08334447575364" lon="11.623658517792226"><ele>310.0</ele><time>2026-04-03T13:06:44.711Z</time></trkpt><trkpt lat="44.08324199160365" lon="11.623488036868595"><ele>310.0</ele><time>2026-04-03T13:06:45.711Z</time></trkpt><trkpt lat="44.08313760856591" lon="11.623327504536988"><ele>308.75</ele><time>2026-04-03T13:06:46.711Z</time></trkpt><trkpt lat="44.08303896288201" lon="11.623175346842917"><ele>307.5</ele><time>2026-04-03T13:06:47.711Z</time></trkpt><trkpt lat="44.082951215903876" lon="11.623031578278367"><ele>306.25</ele><time>2026-04-03T13:06:48.711Z</time></trkpt><trkpt lat="44.08287741960869" lon="11.622887840074286"><ele>305.0</ele><time>2026-04-03T13:06:49.711Z</time></trkpt><trkpt lat="44.082821780875335" lon="11.6227435690366"><ele>307.6</ele><time>2026-04-03T13:06:50.711Z</time></trkpt><trkpt lat="44.08278694094241" lon="11.62259586355267"><ele>310.2</ele><time>2026-04-03T13:06:51.711Z</time></trkpt><trkpt lat="44.082769670279184" lon="11.622450240855596"><ele>312.8</ele><time>2026-04-03T13:06:52.711Z</time></trkpt><trkpt lat="44.08276441360125" lon="11.622307312431406"><ele>315.4</ele><time>2026-04-03T13:06:53.711Z</time></trkpt><trkpt lat="44.08275995299903" lon="11.622168054895267"><ele>318.0</ele><time>2026-04-03T13:06:54.711Z</time></trkpt><trkpt lat="44.082737643965" lon="11.622037197935072"><ele>318.2</ele><time>2026-04-03T13:06:55.711Z</time></trkpt><trkpt lat="44.08268874225857" lon="11.621915801019275"><ele>318.4</ele><time>2026-04-03T13:06:56.711Z</time></trkpt><trkpt lat="44.08262345576653" lon="11.621805025789591"><ele>318.59999999999997</ele><time>2026-04-03T13:06:57.711Z</time></trkpt><trkpt lat="44.08254786023592" lon="11.621698030335878"><ele>318.8</ele><time>2026-04-03T13:06:58.711Z</time></trkpt><trkpt lat="44.082461353821444" lon="11.621595767570202"><ele>319.0</ele><time>2026-04-03T13:06:59.711Z</time></trkpt><trkpt lat="44.08237604817455" lon="11.621480912218685"><ele>319.0</ele><time>2026-04-03T13:07:00.711Z</time></trkpt><trkpt lat="44.082280484494774" lon="11.621371169348828"><ele>319.0</ele><time>2026-04-03T13:07:01.711Z</time></trkpt><trkpt lat="44.08218442906687" lon="11.621256770668285"><ele>319.0</ele><time>2026-04-03T13:07:02.711Z</time></trkpt><trkpt lat="44.08208238789672" lon="11.62113570488453"><ele>319.0</ele><time>2026-04-03T13:07:03.711Z</time></trkpt><trkpt lat="44.08198294055134" lon="11.621001436934916"><ele>319.0</ele><time>2026-04-03T13:07:04.711Z</time></trkpt><trkpt lat="44.08187252459083" lon="11.620863609192963"><ele>319.0</ele><time>2026-04-03T13:07:05.711Z</time></trkpt><trkpt lat="44.081762181593284" lon="11.620725690668976"><ele>319.0</ele><time>2026-04-03T13:07:06.711Z</time></trkpt><trkpt lat="44.08165146175014" lon="11.620586253973864"><ele>319.0</ele><time>2026-04-03T13:07:07.711Z</time></trkpt><trkpt lat="44.08153960749935" lon="11.620445192287978"><ele>320.66666666666663</ele><time>2026-04-03T13:07:08.711Z</time></trkpt><trkpt lat="44.08142292572223" lon="11.620302137128466"><ele>322.3333333333333</ele><time>2026-04-03T13:07:09.711Z</time></trkpt><trkpt lat="44.08131273583815" lon="11.620165039961938"><ele>324.0</ele><time>2026-04-03T13:07:10.711Z</time></trkpt><trkpt lat="44.08120015042248" lon="11.620031862547988"><ele>324.0</ele><time>2026-04-03T13:07:11.711Z</time></trkpt><trkpt lat="44.08110454222585" lon="11.619918047017247"><ele>324.0</ele><time>2026-04-03T13:07:12.711Z</time></trkpt><trkpt lat="44.08101456748463" lon="11.619812942517436"><ele>324.0</ele><time>2026-04-03T13:07:13.711Z</time></trkpt><trkpt lat="44.08092047079749" lon="11.619715440463635"><ele>324.0</ele><time>2026-04-03T13:07:14.711Z</time></trkpt><trkpt lat="44.080815430481245" lon="11.61961197952832"><ele>324.0</ele><time>2026-04-03T13:07:15.711Z</time></trkpt><trkpt lat="44.08070673297886" lon="11.619495636276117"><ele>324.0</ele><time>2026-04-03T13:07:16.711Z</time></trkpt><trkpt lat="44.080588428184655" lon="11.619370585233042"><ele>324.0</ele><time>2026-04-03T13:07:17.711Z</time></trkpt><trkpt lat="44.08047486113131" lon="11.619257470380354"><ele>324.0</ele><time>2026-04-03T13:07:18.711Z</time></trkpt><trkpt lat="44.08036715058153" lon="11.619150389557243"><ele>324.0</ele><time>2026-04-03T13:07:19.711Z</time></trkpt><trkpt lat="44.08026594714232" lon="11.619047932297526"><ele>324.0</ele><time>2026-04-03T13:07:20.711Z</time></trkpt><trkpt lat="44.08016950451518" lon="11.618955678300122"><ele>324.0</ele><time>2026-04-03T13:07:21.711Z</time></trkpt><trkpt lat="44.08007936575009" lon="11.618868902996306"><ele>324.0</ele><time>2026-04-03T13:07:22.711Z</time></trkpt><trkpt lat="44.07998803467506" lon="11.618785474069595"><ele>323.6</ele><time>2026-04-03T13:07:23.711Z</time></trkpt><trkpt lat="44.07990105607964" lon="11.61870431538326"><ele>323.2</ele><time>2026-04-03T13:07:24.711Z</time></trkpt><trkpt lat="44.07981894287406" lon="11.618625815659353"><ele>322.8</ele><time>2026-04-03T13:07:25.711Z</time></trkpt><trkpt lat="44.07973988926402" lon="11.618540543425853"><ele>322.40000000000003</ele><time>2026-04-03T13:07:26.711Z</time></trkpt><trkpt lat="44.079659596485065" lon="11.61846351361481"><ele>322.0</ele><time>2026-04-03T13:07:27.711Z</time></trkpt><trkpt lat="44.07958153645231" lon="11.618392590533803"><ele>322.0</ele><time>2026-04-03T13:07:28.711Z</time></trkpt><trkpt lat="44.07950452172348" lon="11.618327499629443"><ele>322.0</ele><time>2026-04-03T13:07:29.711Z</time></trkpt><trkpt lat="44.07943264016942" lon="11.618259804616976"><ele>322.0</ele><time>2026-04-03T13:07:30.711Z</time></trkpt><trkpt lat="44.079374094919054" lon="11.618186369045171"><ele>322.0</ele><time>2026-04-03T13:07:31.711Z</time></trkpt><trkpt lat="44.07931681420248" lon="11.618116102256561"><ele>322.0</ele><time>2026-04-03T13:07:32.711Z</time></trkpt><trkpt lat="44.07926808377109" lon="11.618046633508428"><ele>322.0</ele><time>2026-04-03T13:07:33.711Z</time></trkpt><trkpt lat="44.07922449987268" lon="11.617980710536735"><ele>322.0</ele><time>2026-04-03T13:07:34.711Z</time></trkpt><trkpt lat="44.079138404881746" lon="11.61786532468401"><ele>322.0</ele><time>2026-04-03T13:07:36.711Z</time></trkpt><trkpt lat="44.079064780144115" lon="11.6177387531797"><ele>323.0</ele><time>2026-04-03T13:07:38.711Z</time></trkpt><trkpt lat="44.079007339698606" lon="11.617681328214335"><ele>323.0</ele><time>2026-04-03T13:07:40.711Z</time></trkpt></trkseg><trkseg><trkpt lat="44.07888704919169" lon="11.617643447356416"><ele>323.0</ele><time>2026-04-03T13:18:32.705Z</time></trkpt><trkpt lat="44.07896294264021" lon="11.617635407210578"><ele>323.0</ele><time>2026-04-03T13:19:30.705Z</time></trkpt><trkpt lat="44.078932768422234" lon="11.617470616655812"><ele>323.0</ele><time>2026-04-03T13:21:35.705Z</time></trkpt><trkpt lat="44.07889240471788" lon="11.617351948004284"><ele>323.0</ele><time>2026-04-03T13:21:36.705Z</time></trkpt><trkpt lat="44.07882943747864" lon="11.617245077289049"><ele>323.0</ele><time>2026-04-03T13:21:37.706Z</time></trkpt><trkpt lat="44.07877737409015" lon="11.617136484372296"><ele>323.0</ele><time>2026-04-03T13:21:38.706Z</time></trkpt><trkpt lat="44.07872655453908" lon="11.617021887718511"><ele>323.0</ele><time>2026-04-03T13:21:39.705Z</time></trkpt><trkpt lat="44.078675089522804" lon="11.616894952263078"><ele>323.0</ele><time>2026-04-03T13:21:40.705Z</time></trkpt><trkpt lat="44.0786233403286" lon="11.616761797644129"><ele>323.0</ele><time>2026-04-03T13:21:41.705Z</time></trkpt><trkpt lat="44.078569830627195" lon="11.616616121669791"><ele>323.0</ele><time>2026-04-03T13:21:42.705Z</time></trkpt><trkpt lat="44.07851511337365" lon="11.616478437926496"><ele>323.0</ele><time>2026-04-03T13:21:43.705Z</time></trkpt><trkpt lat="44.07845834825721" lon="11.616337481672455"><ele>323.0</ele><time>2026-04-03T13:21:44.705Z</time></trkpt><trkpt lat="44.07842524619408" lon="11.61620287320761"><ele>323.0</ele><time>2026-04-03T13:21:45.705Z</time></trkpt><trkpt lat="44.078394305723805" lon="11.616067793863627"><ele>323.0</ele><time>2026-04-03T13:21:46.705Z</time></trkpt><trkpt lat="44.07836097598853" lon="11.615948453802462"><ele>323.0</ele><time>2026-04-03T13:21:47.705Z</time></trkpt><trkpt lat="44.07832222480175" lon="11.61582208930946"><ele>323.1666666666667</ele><time>2026-04-03T13:21:48.705Z</time></trkpt><trkpt lat="44.078281884079" lon="11.615710062730628"><ele>323.33333333333337</ele><time>2026-04-03T13:21:49.705Z</time></trkpt><trkpt lat="44.078240924773496" lon="11.615592582097042"><ele>323.5</ele><time>2026-04-03T13:21:50.705Z</time></trkpt><trkpt lat="44.07821354365098" lon="11.61547980148873"><ele>323.6666666666667</ele><time>2026-04-03T13:21:51.705Z</time></trkpt><trkpt lat="44.078180616860664" lon="11.615366455470188"><ele>323.8333333333333</ele><time>2026-04-03T13:21:52.705Z</time></trkpt><trkpt lat="44.078132714616444" lon="11.615271884322247"><ele>324.0</ele><time>2026-04-03T13:21:53.705Z</time></trkpt><trkpt lat="44.078075201526296" lon="11.61521280874112"><ele>322.8333333333333</ele><time>2026-04-03T13:21:54.705Z</time></trkpt><trkpt lat="44.07803078222083" lon="11.615145729649273"><ele>321.6666666666667</ele><time>2026-04-03T13:21:55.705Z</time></trkpt><trkpt lat="44.07801833474606" lon="11.615035462049564"><ele>320.5</ele><time>2026-04-03T13:21:56.705Z</time></trkpt><trkpt lat="44.07797515424684" lon="11.61494646444771"><ele>319.33333333333337</ele><time>2026-04-03T13:21:57.705Z</time></trkpt><trkpt lat="44.07793568731718" lon="11.614845575940324"><ele>318.1666666666667</ele><time>2026-04-03T13:21:58.705Z</time></trkpt><trkpt lat="44.07789997937345" lon="11.614735100736542"><ele>317.0</ele><time>2026-04-03T13:21:59.705Z</time></trkpt><trkpt lat="44.07786195055846" lon="11.614626974457071"><ele>317.0</ele><time>2026-04-03T13:22:00.705Z</time></trkpt><trkpt lat="44.07783272725565" lon="11.614520214804026"><ele>317.0</ele><time>2026-04-03T13:22:01.705Z</time></trkpt><trkpt lat="44.07781218476549" lon="11.614410189810648"><ele>317.0</ele><time>2026-04-03T13:22:02.705Z</time></trkpt><trkpt lat="44.07779569287426" lon="11.614311119157945"><ele>317.0</ele><time>2026-04-03T13:22:03.705Z</time></trkpt><trkpt lat="44.0777738941989" lon="11.614156519037811"><ele>317.0</ele><time>2026-04-03T13:22:05.705Z</time></trkpt><trkpt lat="44.07776932423665" lon="11.61403784662987"><ele>317.0</ele><time>2026-04-03T13:22:07.705Z</time></trkpt><trkpt lat="44.077831578955355" lon="11.613990687056747"><ele>317.0</ele><time>2026-04-03T13:22:09.705Z</time></trkpt><trkpt lat="44.07791477696147" lon="11.614138642203232"><ele>317.0</ele><time>2026-04-03T13:22:11.705Z</time></trkpt><trkpt lat="44.0779529803653" lon="11.614274999132862"><ele>317.0</ele><time>2026-04-03T13:22:12.705Z</time></trkpt><trkpt lat="44.07800818292149" lon="11.6144205258763"><ele>317.0</ele><time>2026-04-03T13:22:13.705Z</time></trkpt><trkpt lat="44.07807741504504" lon="11.61454348145635"><ele>317.0</ele><time>2026-04-03T13:22:14.705Z</time></trkpt><trkpt lat="44.078152738724846" lon="11.614638590125885"><ele>317.0</ele><time>2026-04-03T13:22:15.705Z</time></trkpt><trkpt lat="44.07823522428099" lon="11.614702971546528"><ele>317.0</ele><time>2026-04-03T13:22:16.705Z</time></trkpt><trkpt lat="44.07831636485646" lon="11.614758312479351"><ele>317.0</ele><time>2026-04-03T13:22:17.705Z</time></trkpt><trkpt lat="44.07841985641184" lon="11.614802879938694"><ele>317.0</ele><time>2026-04-03T13:22:18.705Z</time></trkpt><trkpt lat="44.07851805023465" lon="11.614833322721921"><ele>319.25</ele><time>2026-04-03T13:22:19.705Z</time></trkpt><trkpt lat="44.078624668445016" lon="11.614839364745235"><ele>321.5</ele><time>2026-04-03T13:22:20.705Z</time></trkpt><trkpt lat="44.0787267264984" lon="11.614815986288244"><ele>323.75</ele><time>2026-04-03T13:22:21.705Z</time></trkpt><trkpt lat="44.07883744085034" lon="11.614749429386842"><ele>326.0</ele><time>2026-04-03T13:22:22.705Z</time></trkpt><trkpt lat="44.07896164710287" lon="11.61464429968567"><ele>326.0</ele><time>2026-04-03T13:22:23.705Z</time></trkpt><trkpt lat="44.079082542135296" lon="11.614575026505461"><ele>326.0</ele><time>2026-04-03T13:22:24.705Z</time></trkpt><trkpt lat="44.07921287545901" lon="11.614531389861696"><ele>326.0</ele><time>2026-04-03T13:22:25.705Z</time></trkpt><trkpt lat="44.07935559084361" lon="11.614495848529836"><ele>326.0</ele><time>2026-04-03T13:22:26.705Z</time></trkpt><trkpt lat="44.07949165368976" lon="11.614446449819937"><ele>330.0</ele><time>2026-04-03T13:22:27.705Z</time></trkpt><trkpt lat="44.07963058656803" lon="11.614407410172285"><ele>334.0</ele><time>2026-04-03T13:22:28.705Z</time></trkpt><trkpt lat="44.07976258821016" lon="11.614342095431093"><ele>338.0</ele><time>2026-04-03T13:22:29.705Z</time></trkpt><trkpt lat="44.079892291467665" lon="11.61425951207007"><ele>342.0</ele><time>2026-04-03T13:22:30.705Z</time></trkpt><trkpt lat="44.08002195450598" lon="11.61417843698829"><ele>342.0</ele><time>2026-04-03T13:22:31.705Z</time></trkpt><trkpt lat="44.0801303589975" lon="11.61410810038068"><ele>342.0</ele><time>2026-04-03T13:22:32.705Z</time></trkpt><trkpt lat="44.08022846577342" lon="11.614025280543963"><ele>342.0</ele><time>2026-04-03T13:22:33.705Z</time></trkpt><trkpt lat="44.08030685059528" lon="11.61392480684931"><ele>342.0</ele><time>2026-04-03T13:22:34.705Z</time></trkpt><trkpt lat="44.08036445383909" lon="11.613774436292552"><ele>346.0</ele><time>2026-04-03T13:22:35.705Z</time></trkpt><trkpt lat="44.08042874100084" lon="11.613625017615936"><ele>350.0</ele><time>2026-04-03T13:22:36.705Z</time></trkpt><trkpt lat="44.080510215270714" lon="11.61346996188312"><ele>354.0</ele><time>2026-04-03T13:22:37.705Z</time></trkpt><trkpt lat="44.08060644321536" lon="11.61333013815833"><ele>358.0</ele><time>2026-04-03T13:22:38.705Z</time></trkpt><trkpt lat="44.080695316729674" lon="11.613205785470372"><ele>358.0</ele><time>2026-04-03T13:22:39.705Z</time></trkpt><trkpt lat="44.080748060839156" lon="11.613080231031944"><ele>358.0</ele><time>2026-04-03T13:22:40.705Z</time></trkpt><trkpt lat="44.0807556140874" lon="11.612907260215115"><ele>358.0</ele><time>2026-04-03T13:22:41.705Z</time></trkpt><trkpt lat="44.08076336804274" lon="11.612707780088575"><ele>358.0</ele><time>2026-04-03T13:22:42.705Z</time></trkpt><trkpt lat="44.08078957344848" lon="11.612496978991693"><ele>358.0</ele><time>2026-04-03T13:22:43.705Z</time></trkpt><trkpt lat="44.08082125918556" lon="11.612276734232514"><ele>358.0</ele><time>2026-04-03T13:22:44.705Z</time></trkpt><trkpt lat="44.0808561021078" lon="11.612064648134412"><ele>358.0</ele><time>2026-04-03T13:22:45.705Z</time></trkpt><trkpt lat="44.080902414597254" lon="11.611862446143551"><ele>361.25</ele><time>2026-04-03T13:22:46.705Z</time></trkpt><trkpt lat="44.080961620369976" lon="11.611666876028853"><ele>364.5</ele><time>2026-04-03T13:22:47.705Z</time></trkpt><trkpt lat="44.08102769099347" lon="11.611500195475717"><ele>367.75</ele><time>2026-04-03T13:22:48.705Z</time></trkpt><trkpt lat="44.081111309509154" lon="11.611381901701446"><ele>371.0</ele><time>2026-04-03T13:22:49.705Z</time></trkpt><trkpt lat="44.08121671814578" lon="11.611294466678268"><ele>371.0</ele><time>2026-04-03T13:22:50.705Z</time></trkpt><trkpt lat="44.08133936411853" lon="11.611249362296345"><ele>371.0</ele><time>2026-04-03T13:22:51.705Z</time></trkpt><trkpt lat="44.081443442937" lon="11.6112338337386"><ele>371.0</ele><time>2026-04-03T13:22:52.705Z</time></trkpt><trkpt lat="44.08154496159905" lon="11.611215779015987"><ele>371.0</ele><time>2026-04-03T13:22:53.705Z</time></trkpt><trkpt lat="44.081606170358114" lon="11.61114259198946"><ele>371.0</ele><time>2026-04-03T13:22:54.705Z</time></trkpt><trkpt lat="44.08161755683588" lon="11.611045749297523"><ele>375.0</ele><time>2026-04-03T13:22:55.705Z</time></trkpt><trkpt lat="44.08158928385065" lon="11.610919044397196"><ele>379.0</ele><time>2026-04-03T13:22:56.705Z</time></trkpt><trkpt lat="44.08155908523079" lon="11.610758411371112"><ele>383.0</ele><time>2026-04-03T13:22:57.705Z</time></trkpt><trkpt lat="44.08154327613639" lon="11.610586629253286"><ele>387.0</ele><time>2026-04-03T13:22:58.705Z</time></trkpt><trkpt lat="44.08155922867896" lon="11.610401747834722"><ele>384.25</ele><time>2026-04-03T13:22:59.705Z</time></trkpt><trkpt lat="44.081585843627884" lon="11.610221928161963"><ele>381.5</ele><time>2026-04-03T13:23:00.705Z</time></trkpt><trkpt lat="44.081629665470864" lon="11.61003191645203"><ele>378.75</ele><time>2026-04-03T13:23:01.705Z</time></trkpt><trkpt lat="44.0816768126216" lon="11.60987020169163"><ele>376.0</ele><time>2026-04-03T13:23:02.705Z</time></trkpt><trkpt lat="44.08175764116153" lon="11.60970741470155"><ele>376.0</ele><time>2026-04-03T13:23:03.705Z</time></trkpt><trkpt lat="44.08185558068348" lon="11.60956736093014"><ele>376.0</ele><time>2026-04-03T13:23:04.705Z</time></trkpt><trkpt lat="44.0819677876995" lon="11.60945350558256"><ele>376.0</ele><time>2026-04-03T13:23:05.705Z</time></trkpt><trkpt lat="44.08210771031714" lon="11.6093909424729"><ele>376.0</ele><time>2026-04-03T13:23:06.705Z</time></trkpt><trkpt lat="44.08224962915958" lon="11.609361413214918"><ele>378.5</ele><time>2026-04-03T13:23:07.705Z</time></trkpt><trkpt lat="44.08239251874299" lon="11.609377139779138"><ele>381.0</ele><time>2026-04-03T13:23:08.705Z</time></trkpt><trkpt lat="44.08252162687029" lon="11.6093668393748"><ele>383.5</ele><time>2026-04-03T13:23:09.705Z</time></trkpt><trkpt lat="44.082644264533755" lon="11.609299141880278"><ele>386.0</ele><time>2026-04-03T13:23:10.705Z</time></trkpt><trkpt lat="44.082773874443696" lon="11.609192763754946"><ele>386.0</ele><time>2026-04-03T13:23:11.705Z</time></trkpt><trkpt lat="44.0829178125241" lon="11.609082525105153"><ele>386.0</ele><time>2026-04-03T13:23:12.705Z</time></trkpt><trkpt lat="44.083067057370315" lon="11.608976124128167"><ele>386.0</ele><time>2026-04-03T13:23:13.705Z</time></trkpt><trkpt lat="44.08321408634871" lon="11.60888715418672"><ele>385.25</ele><time>2026-04-03T13:23:14.705Z</time></trkpt><trkpt lat="44.083354680263355" lon="11.608807163059423"><ele>384.5</ele><time>2026-04-03T13:23:15.705Z</time></trkpt><trkpt lat="44.08348603135746" lon="11.608740051175754"><ele>383.75</ele><time>2026-04-03T13:23:16.705Z</time></trkpt><trkpt lat="44.08361569031693" lon="11.60868274543815"><ele>383.0</ele><time>2026-04-03T13:23:17.705Z</time></trkpt><trkpt lat="44.08373756081344" lon="11.608648632616582"><ele>383.0</ele><time>2026-04-03T13:23:18.705Z</time></trkpt><trkpt lat="44.08386080588472" lon="11.608651550652318"><ele>383.0</ele><time>2026-04-03T13:23:19.705Z</time></trkpt><trkpt lat="44.08397838454435" lon="11.608697313982269"><ele>383.0</ele><time>2026-04-03T13:23:20.705Z</time></trkpt><trkpt lat="44.084088236594425" lon="11.608792615148825"><ele>383.0</ele><time>2026-04-03T13:23:21.705Z</time></trkpt><trkpt lat="44.08419243538576" lon="11.608898089944603"><ele>384.79999999999995</ele><time>2026-04-03T13:23:22.705Z</time></trkpt><trkpt lat="44.08428995105646" lon="11.608997769653127"><ele>386.6</ele><time>2026-04-03T13:23:23.705Z</time></trkpt><trkpt lat="44.08438501173239" lon="11.609075060762038"><ele>388.4</ele><time>2026-04-03T13:23:24.705Z</time></trkpt><trkpt lat="44.08448721123553" lon="11.60910784153739"><ele>390.20000000000005</ele><time>2026-04-03T13:23:25.705Z</time></trkpt><trkpt lat="44.08459714312686" lon="11.609078631083884"><ele>392.0</ele><time>2026-04-03T13:23:26.705Z</time></trkpt><trkpt lat="44.08470643540037" lon="11.608986109481723"><ele>392.0</ele><time>2026-04-03T13:23:27.705Z</time></trkpt><trkpt lat="44.08482903405403" lon="11.60884309575441"><ele>392.0</ele><time>2026-04-03T13:23:28.705Z</time></trkpt><trkpt lat="44.0849399465508" lon="11.608654426649249"><ele>392.0</ele><time>2026-04-03T13:23:29.705Z</time></trkpt><trkpt lat="44.085035013039025" lon="11.60844922959068"><ele>398.3333333333333</ele><time>2026-04-03T13:23:30.705Z</time></trkpt><trkpt lat="44.08513188828463" lon="11.608247530265455"><ele>404.66666666666663</ele><time>2026-04-03T13:23:31.705Z</time></trkpt><trkpt lat="44.08521842492742" lon="11.608070864707555"><ele>411.0</ele><time>2026-04-03T13:23:32.704Z</time></trkpt><trkpt lat="44.085308470181296" lon="11.607915959929574"><ele>411.5</ele><time>2026-04-03T13:23:33.704Z</time></trkpt><trkpt lat="44.08540231835046" lon="11.607791568465103"><ele>412.0</ele><time>2026-04-03T13:23:34.704Z</time></trkpt><trkpt lat="44.08551203011828" lon="11.607702936542925"><ele>412.5</ele><time>2026-04-03T13:23:35.704Z</time></trkpt><trkpt lat="44.08564090139832" lon="11.607648169416274"><ele>413.0</ele><time>2026-04-03T13:23:36.704Z</time></trkpt><trkpt lat="44.085783624350505" lon="11.607633727644627"><ele>413.5</ele><time>2026-04-03T13:23:37.704Z</time></trkpt><trkpt lat="44.08591991014087" lon="11.60763598917113"><ele>414.0</ele><time>2026-04-03T13:23:38.704Z</time></trkpt><trkpt lat="44.08602175110435" lon="11.607589901040633"><ele>414.5</ele><time>2026-04-03T13:23:39.704Z</time></trkpt><trkpt lat="44.086094282970016" lon="11.607463112653175"><ele>415.0</ele><time>2026-04-03T13:23:40.704Z</time></trkpt><trkpt lat="44.08615364446155" lon="11.607287671397978"><ele>415.0</ele><time>2026-04-03T13:23:41.704Z</time></trkpt><trkpt lat="44.086204508698394" lon="11.607068839134827"><ele>415.0</ele><time>2026-04-03T13:23:42.702Z</time></trkpt><trkpt lat="44.086246514500665" lon="11.606843111723261"><ele>415.0</ele><time>2026-04-03T13:23:43.703Z</time></trkpt><trkpt lat="44.08629057988439" lon="11.606609974349537"><ele>416.6666666666667</ele><time>2026-04-03T13:23:44.703Z</time></trkpt><trkpt lat="44.08633089583011" lon="11.606369885550079"><ele>418.33333333333337</ele><time>2026-04-03T13:23:45.703Z</time></trkpt><trkpt lat="44.08634629639713" lon="11.606155190105257"><ele>420.0</ele><time>2026-04-03T13:23:46.703Z</time></trkpt><trkpt lat="44.08633957725241" lon="11.605944884784238"><ele>422.66666666666663</ele><time>2026-04-03T13:23:47.703Z</time></trkpt><trkpt lat="44.08630016628615" lon="11.605739590001454"><ele>425.3333333333333</ele><time>2026-04-03T13:23:48.702Z</time></trkpt><trkpt lat="44.086236835235574" lon="11.605548703222583"><ele>428.0</ele><time>2026-04-03T13:23:49.702Z</time></trkpt><trkpt lat="44.08613954215613" lon="11.605363216270424"><ele>430.25</ele><time>2026-04-03T13:23:50.702Z</time></trkpt><trkpt lat="44.0860340614354" lon="11.605210648824375"><ele>432.5</ele><time>2026-04-03T13:23:51.702Z</time></trkpt><trkpt lat="44.08592851903066" lon="11.605080162651781"><ele>434.75</ele><time>2026-04-03T13:23:52.702Z</time></trkpt><trkpt lat="44.08584947112914" lon="11.604959292829426"><ele>437.0</ele><time>2026-04-03T13:23:53.702Z</time></trkpt><trkpt lat="44.0857982409747" lon="11.604821633942215"><ele>437.0</ele><time>2026-04-03T13:23:54.703Z</time></trkpt><trkpt lat="44.08578079019165" lon="11.60463693281949"><ele>437.0</ele><time>2026-04-03T13:23:55.702Z</time></trkpt><trkpt lat="44.08576452459972" lon="11.604420013402425"><ele>437.0</ele><time>2026-04-03T13:23:56.702Z</time></trkpt><trkpt lat="44.08574463132006" lon="11.604203378342497"><ele>437.0</ele><time>2026-04-03T13:23:57.702Z</time></trkpt><trkpt lat="44.085721258933056" lon="11.603996715225783"><ele>439.25</ele><time>2026-04-03T13:23:58.702Z</time></trkpt><trkpt lat="44.08567687793811" lon="11.603825049099779"><ele>441.5</ele><time>2026-04-03T13:23:59.702Z</time></trkpt><trkpt lat="44.085596145180375" lon="11.603696921759473"><ele>443.75</ele><time>2026-04-03T13:24:00.702Z</time></trkpt><trkpt lat="44.0855034670496" lon="11.60359666205671"><ele>446.0</ele><time>2026-04-03T13:24:01.702Z</time></trkpt><trkpt lat="44.08541828503908" lon="11.603483684230302"><ele>446.0</ele><time>2026-04-03T13:24:02.702Z</time></trkpt><trkpt lat="44.08536828231229" lon="11.603328798530352"><ele>446.0</ele><time>2026-04-03T13:24:03.702Z</time></trkpt><trkpt lat="44.08533672488857" lon="11.603130197000228"><ele>446.0</ele><time>2026-04-03T13:24:04.702Z</time></trkpt><trkpt lat="44.08532861886493" lon="11.602918324706781"><ele>446.0</ele><time>2026-04-03T13:24:05.702Z</time></trkpt><trkpt lat="44.085346169817505" lon="11.60272030948202"><ele>449.0</ele><time>2026-04-03T13:24:06.702Z</time></trkpt><trkpt lat="44.085401631450964" lon="11.6025236922942"><ele>452.0</ele><time>2026-04-03T13:24:07.702Z</time></trkpt><trkpt lat="44.085483913856955" lon="11.602333906256476"><ele>455.0</ele><time>2026-04-03T13:24:08.702Z</time></trkpt><trkpt lat="44.085579157024284" lon="11.602148192367238"><ele>460.66666666666663</ele><time>2026-04-03T13:24:09.702Z</time></trkpt><trkpt lat="44.085655446052535" lon="11.601943528420623"><ele>466.33333333333337</ele><time>2026-04-03T13:24:10.702Z</time></trkpt><trkpt lat="44.08571486948948" lon="11.60172843648072"><ele>472.0</ele><time>2026-04-03T13:24:11.702Z</time></trkpt><trkpt lat="44.08574709370619" lon="11.601510093708644"><ele>472.0</ele><time>2026-04-03T13:24:12.702Z</time></trkpt><trkpt lat="44.08575445367288" lon="11.601284089862213"><ele>472.0</ele><time>2026-04-03T13:24:13.702Z</time></trkpt><trkpt lat="44.08573339452009" lon="11.601044683194768"><ele>472.0</ele><time>2026-04-03T13:24:14.702Z</time></trkpt><trkpt lat="44.08568477760961" lon="11.600799876669555"><ele>472.0</ele><time>2026-04-03T13:24:15.702Z</time></trkpt><trkpt lat="44.08564302442623" lon="11.600582177386022"><ele>472.0</ele><time>2026-04-03T13:24:16.702Z</time></trkpt><trkpt lat="44.085606073751705" lon="11.60037777921223"><ele>472.0</ele><time>2026-04-03T13:24:17.702Z</time></trkpt><trkpt lat="44.08557684896384" lon="11.60019028395395"><ele>472.0</ele><time>2026-04-03T13:24:18.702Z</time></trkpt><trkpt lat="44.08555292875407" lon="11.600025271686519"><ele>472.00000000000006</ele><time>2026-04-03T13:24:19.702Z</time></trkpt><trkpt lat="44.085555499092884" lon="11.599871404208741"><ele>472.00000000000006</ele><time>2026-04-03T13:24:20.702Z</time></trkpt><trkpt lat="44.08559160817463" lon="11.59974612601819"><ele>472.0</ele><time>2026-04-03T13:24:21.702Z</time></trkpt><trkpt lat="44.0856570931493" lon="11.599629348547289"><ele>472.0</ele><time>2026-04-03T13:24:22.702Z</time></trkpt><trkpt lat="44.085735598712304" lon="11.599528918033014"><ele>471.8</ele><time>2026-04-03T13:24:23.702Z</time></trkpt><trkpt lat="44.085808113355846" lon="11.599448135361927"><ele>471.6</ele><time>2026-04-03T13:24:24.702Z</time></trkpt><trkpt lat="44.08588468247891" lon="11.59937487222575"><ele>471.40000000000003</ele><time>2026-04-03T13:24:25.702Z</time></trkpt><trkpt lat="44.08597676577865" lon="11.59930139845439"><ele>471.20000000000005</ele><time>2026-04-03T13:24:26.702Z</time></trkpt><trkpt lat="44.086091760977695" lon="11.59923008283987"><ele>471.0</ele><time>2026-04-03T13:24:27.702Z</time></trkpt><trkpt lat="44.08623840814431" lon="11.59918161083395"><ele>471.0</ele><time>2026-04-03T13:24:28.702Z</time></trkpt><trkpt lat="44.08638766298447" lon="11.599152475966529"><ele>471.0</ele><time>2026-04-03T13:24:29.702Z</time></trkpt><trkpt lat="44.08653156296614" lon="11.599098385399968"><ele>471.0</ele><time>2026-04-03T13:24:30.702Z</time></trkpt><trkpt lat="44.08666250827718" lon="11.599019572179996"><ele>471.0</ele><time>2026-04-03T13:24:31.702Z</time></trkpt><trkpt lat="44.086794950784004" lon="11.59892886514617"><ele>477.0</ele><time>2026-04-03T13:24:32.702Z</time></trkpt><trkpt lat="44.086930107355684" lon="11.59882594351986"><ele>483.0</ele><time>2026-04-03T13:24:33.702Z</time></trkpt><trkpt lat="44.08707078911536" lon="11.598705900218096"><ele>489.0</ele><time>2026-04-03T13:24:34.702Z</time></trkpt><trkpt lat="44.08720395054543" lon="11.598588552095679"><ele>489.0</ele><time>2026-04-03T13:24:35.702Z</time></trkpt><trkpt lat="44.08733587192694" lon="11.59846101438212"><ele>489.0</ele><time>2026-04-03T13:24:36.702Z</time></trkpt><trkpt lat="44.087445647735706" lon="11.598314717758322"><ele>489.0</ele><time>2026-04-03T13:24:37.702Z</time></trkpt><trkpt lat="44.08754156290507" lon="11.598170987258632"><ele>489.4</ele><time>2026-04-03T13:24:38.702Z</time></trkpt><trkpt lat="44.08761800690524" lon="11.598053468510086"><ele>489.79999999999995</ele><time>2026-04-03T13:24:39.702Z</time></trkpt><trkpt lat="44.087701645154205" lon="11.597971801900881"><ele>490.20000000000005</ele><time>2026-04-03T13:24:40.702Z</time></trkpt><trkpt lat="44.08777636636327" lon="11.59796454369206"><ele>490.6</ele><time>2026-04-03T13:24:41.702Z</time></trkpt><trkpt lat="44.08785016447314" lon="11.598037797148773"><ele>491.0</ele><time>2026-04-03T13:24:42.702Z</time></trkpt><trkpt lat="44.08792336893195" lon="11.598138263111473"><ele>491.0</ele><time>2026-04-03T13:24:43.702Z</time></trkpt><trkpt lat="44.08802020656127" lon="11.598198756638189"><ele>491.0</ele><time>2026-04-03T13:24:44.702Z</time></trkpt><trkpt lat="44.08813542799738" lon="11.598217418186657"><ele>491.0</ele><time>2026-04-03T13:24:45.702Z</time></trkpt><trkpt lat="44.08828329654082" lon="11.598172739211828"><ele>491.0</ele><time>2026-04-03T13:24:46.702Z</time></trkpt><trkpt lat="44.088438637124966" lon="11.59803000227828"><ele>494.0</ele><time>2026-04-03T13:24:47.702Z</time></trkpt><trkpt lat="44.088580330831185" lon="11.597814971083228"><ele>497.0</ele><time>2026-04-03T13:24:48.702Z</time></trkpt><trkpt lat="44.08871215594786" lon="11.59755269520531"><ele>500.0</ele><time>2026-04-03T13:24:49.702Z</time></trkpt><trkpt lat="44.088833776178035" lon="11.59731631773999"><ele>500.0</ele><time>2026-04-03T13:24:50.702Z</time></trkpt><trkpt lat="44.0889527920988" lon="11.597157015580349"><ele>500.0</ele><time>2026-04-03T13:24:51.702Z</time></trkpt><trkpt lat="44.08904523960643" lon="11.59703165079952"><ele>500.0</ele><time>2026-04-03T13:24:52.702Z</time></trkpt><trkpt lat="44.08910743851876" lon="11.596930575514198"><ele>500.0</ele><time>2026-04-03T13:24:53.702Z</time></trkpt><trkpt lat="44.08912599058721" lon="11.596829829473865"><ele>500.0</ele><time>2026-04-03T13:24:54.702Z</time></trkpt><trkpt lat="44.089092433918346" lon="11.5967547900013"><ele>500.0</ele><time>2026-04-03T13:24:55.702Z</time></trkpt><trkpt lat="44.08902278626723" lon="11.596737731175079"><ele>500.0</ele><time>2026-04-03T13:24:56.702Z</time></trkpt><trkpt lat="44.08892552135861" lon="11.596805881560199"><ele>500.0</ele><time>2026-04-03T13:24:57.702Z</time></trkpt><trkpt lat="44.088805540553764" lon="11.596911334009345"><ele>500.0</ele><time>2026-04-03T13:24:58.702Z</time></trkpt><trkpt lat="44.088672369966204" lon="11.597076297706971"><ele>500.0</ele><time>2026-04-03T13:24:59.702Z</time></trkpt><trkpt lat="44.08854438478467" lon="11.597230445122653"><ele>500.0</ele><time>2026-04-03T13:25:00.702Z</time></trkpt><trkpt lat="44.08846253180893" lon="11.597283916692948"><ele>500.0</ele><time>2026-04-03T13:25:01.702Z</time></trkpt><trkpt lat="44.0883813540014" lon="11.597281633664934"><ele>500.0</ele><time>2026-04-03T13:25:02.702Z</time></trkpt><trkpt lat="44.088278094688654" lon="11.597200370350063"><ele>499.66666666666663</ele><time>2026-04-03T13:25:03.702Z</time></trkpt><trkpt lat="44.088176036757844" lon="11.597063824548401"><ele>499.33333333333337</ele><time>2026-04-03T13:25:04.702Z</time></trkpt><trkpt lat="44.088044490866146" lon="11.596928261612222"><ele>499.0</ele><time>2026-04-03T13:25:05.702Z</time></trkpt><trkpt lat="44.08786524437303" lon="11.596864137438354"><ele>512.3333333333334</ele><time>2026-04-03T13:25:06.702Z</time></trkpt><trkpt lat="44.08768636375851" lon="11.596839471718553"><ele>525.6666666666666</ele><time>2026-04-03T13:25:07.702Z</time></trkpt><trkpt lat="44.08751568464485" lon="11.596869215904027"><ele>539.0</ele><time>2026-04-03T13:25:08.702Z</time></trkpt><trkpt lat="44.08734428742278" lon="11.596950285268639"><ele>534.3333333333333</ele><time>2026-04-03T13:25:09.702Z</time></trkpt><trkpt lat="44.08718810932954" lon="11.597095875931526"><ele>529.6666666666666</ele><time>2026-04-03T13:25:10.702Z</time></trkpt><trkpt lat="44.08704439107636" lon="11.597260471823796"><ele>525.0</ele><time>2026-04-03T13:25:11.702Z</time></trkpt><trkpt lat="44.08693288258354" lon="11.597397373225448"><ele>525.0</ele><time>2026-04-03T13:25:12.702Z</time></trkpt><trkpt lat="44.08683631978585" lon="11.597477278252965"><ele>525.0</ele><time>2026-04-03T13:25:13.702Z</time></trkpt><trkpt lat="44.08671843114247" lon="11.597511927631205"><ele>525.0</ele><time>2026-04-03T13:25:14.702Z</time></trkpt><trkpt lat="44.08659374727976" lon="11.59752468988273"><ele>525.0</ele><time>2026-04-03T13:25:15.702Z</time></trkpt><trkpt lat="44.08641900717098" lon="11.597531907511812"><ele>532.3333333333334</ele><time>2026-04-03T13:25:16.702Z</time></trkpt><trkpt lat="44.08624137374798" lon="11.597580283329783"><ele>539.6666666666667</ele><time>2026-04-03T13:25:17.702Z</time></trkpt><trkpt lat="44.086092362388065" lon="11.597697574992736"><ele>547.0</ele><time>2026-04-03T13:25:18.702Z</time></trkpt><trkpt lat="44.085965165005895" lon="11.597822624917319"><ele>544.0</ele><time>2026-04-03T13:25:19.702Z</time></trkpt><trkpt lat="44.08586276656261" lon="11.597918155290172"><ele>541.0</ele><time>2026-04-03T13:25:20.702Z</time></trkpt><trkpt lat="44.08577111589328" lon="11.597921705544035"><ele>538.0</ele><time>2026-04-03T13:25:21.702Z</time></trkpt><trkpt lat="44.08565352869583" lon="11.597891360736329"><ele>535.0</ele><time>2026-04-03T13:25:22.702Z</time></trkpt><trkpt lat="44.08550126611592" lon="11.597823630935467"><ele>535.0</ele><time>2026-04-03T13:25:23.702Z</time></trkpt><trkpt lat="44.08535231501735" lon="11.597798993636454"><ele>535.0</ele><time>2026-04-03T13:25:24.702Z</time></trkpt><trkpt lat="44.08525043613956" lon="11.597786698270214"><ele>535.0</ele><time>2026-04-03T13:25:25.702Z</time></trkpt><trkpt lat="44.08517709108158" lon="11.59771341592219"><ele>535.0</ele><time>2026-04-03T13:25:26.702Z</time></trkpt><trkpt lat="44.08509466306608" lon="11.597579169325499"><ele>535.0</ele><time>2026-04-03T13:25:27.702Z</time></trkpt><trkpt lat="44.08498904510323" lon="11.597460117263688"><ele>535.0</ele><time>2026-04-03T13:25:28.702Z</time></trkpt><trkpt lat="44.08490471100656" lon="11.597251555176696"><ele>535.0</ele><time>2026-04-03T13:25:29.702Z</time></trkpt><trkpt lat="44.08482658883689" lon="11.59705718361208"><ele>527.0</ele><time>2026-04-03T13:25:30.701Z</time></trkpt><trkpt lat="44.08476156840608" lon="11.596825665915095"><ele>519.0</ele><time>2026-04-03T13:25:31.701Z</time></trkpt><trkpt lat="44.08474850063415" lon="11.596561141727719"><ele>511.0</ele><time>2026-04-03T13:25:32.701Z</time></trkpt><trkpt lat="44.08473797170722" lon="11.596304824807612"><ele>516.0</ele><time>2026-04-03T13:25:33.701Z</time></trkpt><trkpt lat="44.08467547857436" lon="11.596083452944434"><ele>521.0</ele><time>2026-04-03T13:25:34.701Z</time></trkpt><trkpt lat="44.0846114198897" lon="11.59590186585382"><ele>526.0</ele><time>2026-04-03T13:25:35.701Z</time></trkpt><trkpt lat="44.084613326778474" lon="11.595712711844074"><ele>526.0</ele><time>2026-04-03T13:25:36.701Z</time></trkpt><trkpt lat="44.0846426506939" lon="11.595511001009788"><ele>526.0</ele><time>2026-04-03T13:25:37.701Z</time></trkpt><trkpt lat="44.0846849620066" lon="11.595339705651362"><ele>526.0</ele><time>2026-04-03T13:25:38.701Z</time></trkpt><trkpt lat="44.08469438373622" lon="11.595152903995803"><ele>526.0</ele><time>2026-04-03T13:25:39.701Z</time></trkpt><trkpt lat="44.08462821087408" lon="11.594990625120333"><ele>528.6666666666667</ele><time>2026-04-03T13:25:40.701Z</time></trkpt><trkpt lat="44.08454970476964" lon="11.594923182722551"><ele>531.3333333333334</ele><time>2026-04-03T13:25:41.701Z</time></trkpt><trkpt lat="44.084459974826494" lon="11.59488053782176"><ele>534.0</ele><time>2026-04-03T13:25:43.701Z</time></trkpt><trkpt lat="44.08442039883077" lon="11.594953022576181"><ele>536.6666666666666</ele><time>2026-04-03T13:25:50.7Z</time></trkpt><trkpt lat="44.0843605838568" lon="11.595016077716426"><ele>539.3333333333333</ele><time>2026-04-03T13:27:16.698Z</time></trkpt><trkpt lat="44.084296096472876" lon="11.595008451748258"><ele>542.0</ele><time>2026-04-03T13:27:17.698Z</time></trkpt><trkpt lat="44.08423049783396" lon="11.594986496588005"><ele>542.0</ele><time>2026-04-03T13:27:18.698Z</time></trkpt><trkpt lat="44.08417926157985" lon="11.594917846724458"><ele>542.0</ele><time>2026-04-03T13:27:19.698Z</time></trkpt><trkpt lat="44.084165909842675" lon="11.59481761690536"><ele>542.0</ele><time>2026-04-03T13:27:20.698Z</time></trkpt><trkpt lat="44.08420428206478" lon="11.594644160352189"><ele>542.0</ele><time>2026-04-03T13:27:21.698Z</time></trkpt><trkpt lat="44.084292307023084" lon="11.594485659192062"><ele>542.0</ele><time>2026-04-03T13:27:22.698Z</time></trkpt><trkpt lat="44.08439328873069" lon="11.594361346685243"><ele>545.1666666666666</ele><time>2026-04-03T13:27:23.698Z</time></trkpt><trkpt lat="44.08447920478529" lon="11.594251894768458"><ele>548.3333333333333</ele><time>2026-04-03T13:27:24.698Z</time></trkpt><trkpt lat="44.08452815776758" lon="11.594155866974742"><ele>551.5</ele><time>2026-04-03T13:27:25.698Z</time></trkpt><trkpt lat="44.08455491439293" lon="11.594063343902477"><ele>554.6666666666666</ele><time>2026-04-03T13:27:26.698Z</time></trkpt><trkpt lat="44.08452209359334" lon="11.593973192255328"><ele>557.8333333333334</ele><time>2026-04-03T13:27:27.698Z</time></trkpt><trkpt lat="44.08444268954657" lon="11.593879844499822"><ele>561.0</ele><time>2026-04-03T13:27:28.698Z</time></trkpt><trkpt lat="44.08431745599665" lon="11.59381085239682"><ele>561.0</ele><time>2026-04-03T13:27:29.698Z</time></trkpt><trkpt lat="44.0841735311988" lon="11.593772525474128"><ele>561.0</ele><time>2026-04-03T13:27:30.698Z</time></trkpt><trkpt lat="44.084044950905046" lon="11.593767778582357"><ele>561.0</ele><time>2026-04-03T13:27:31.698Z</time></trkpt><trkpt lat="44.0839185574993" lon="11.593735857897016"><ele>561.0</ele><time>2026-04-03T13:27:32.698Z</time></trkpt><trkpt lat="44.08380599377319" lon="11.593686636732677"><ele>561.75</ele><time>2026-04-03T13:27:33.698Z</time></trkpt><trkpt lat="44.08371979655328" lon="11.593615742940882"><ele>562.5</ele><time>2026-04-03T13:27:34.698Z</time></trkpt><trkpt lat="44.08366756227522" lon="11.593501335616248"><ele>563.25</ele><time>2026-04-03T13:27:35.698Z</time></trkpt><trkpt lat="44.08363401352636" lon="11.593335533601584"><ele>564.0</ele><time>2026-04-03T13:27:36.698Z</time></trkpt><trkpt lat="44.08361677509523" lon="11.593134992313635"><ele>564.0</ele><time>2026-04-03T13:27:37.698Z</time></trkpt><trkpt lat="44.08355744149728" lon="11.592978241281301"><ele>564.0</ele><time>2026-04-03T13:27:38.698Z</time></trkpt><trkpt lat="44.08349630107423" lon="11.592873072570663"><ele>564.0</ele><time>2026-04-03T13:27:39.698Z</time></trkpt><trkpt lat="44.083383729168496" lon="11.592847207659617"><ele>564.0</ele><time>2026-04-03T13:27:40.698Z</time></trkpt><trkpt lat="44.08324055863073" lon="11.59288947163068"><ele>564.0</ele><time>2026-04-03T13:27:41.698Z</time></trkpt><trkpt lat="44.0830840869287" lon="11.592935899976741"><ele>564.0</ele><time>2026-04-03T13:27:42.698Z</time></trkpt><trkpt lat="44.08296273598214" lon="11.592908305161389"><ele>564.0</ele><time>2026-04-03T13:27:43.698Z</time></trkpt><trkpt lat="44.0828759669792" lon="11.592818077023253"><ele>564.0</ele><time>2026-04-03T13:27:44.698Z</time></trkpt><trkpt lat="44.08282853229899" lon="11.592670987629964"><ele>564.0</ele><time>2026-04-03T13:27:45.698Z</time></trkpt><trkpt lat="44.08282500343465" lon="11.59250690965711"><ele>564.0</ele><time>2026-04-03T13:27:46.698Z</time></trkpt><trkpt lat="44.082861775314704" lon="11.592354733640908"><ele>564.0</ele><time>2026-04-03T13:27:47.698Z</time></trkpt><trkpt lat="44.082938471422864" lon="11.592196267021999"><ele>564.0</ele><time>2026-04-03T13:27:48.698Z</time></trkpt><trkpt lat="44.082985753163214" lon="11.592036995056839"><ele>566.0</ele><time>2026-04-03T13:27:49.698Z</time></trkpt><trkpt lat="44.08300856943471" lon="11.591853231205784"><ele>568.0</ele><time>2026-04-03T13:27:50.698Z</time></trkpt><trkpt lat="44.08296542016359" lon="11.591613677479513"><ele>570.0</ele><time>2026-04-03T13:27:51.698Z</time></trkpt><trkpt lat="44.082925267643205" lon="11.591405993350984"><ele>570.0</ele><time>2026-04-03T13:27:52.698Z</time></trkpt><trkpt lat="44.08292642289511" lon="11.59124125405097"><ele>570.0</ele><time>2026-04-03T13:27:53.698Z</time></trkpt><trkpt lat="44.08297982401994" lon="11.591073574380928"><ele>570.0</ele><time>2026-04-03T13:27:54.697Z</time></trkpt><trkpt lat="44.083005703353884" lon="11.59090585499197"><ele>570.0</ele><time>2026-04-03T13:27:55.697Z</time></trkpt><trkpt lat="44.08298180083883" lon="11.59072578283352"><ele>571.5</ele><time>2026-04-03T13:27:56.697Z</time></trkpt><trkpt lat="44.08290085088326" lon="11.590583459513551"><ele>573.0</ele><time>2026-04-03T13:27:57.697Z</time></trkpt><trkpt lat="44.0828615796284" lon="11.590453693429726"><ele>574.5</ele><time>2026-04-03T13:27:58.697Z</time></trkpt><trkpt lat="44.08285208589866" lon="11.590302342421024"><ele>576.0</ele><time>2026-04-03T13:27:59.697Z</time></trkpt><trkpt lat="44.082885286444096" lon="11.590147710767077"><ele>577.6666666666666</ele><time>2026-04-03T13:28:00.696Z</time></trkpt><trkpt lat="44.082992646284474" lon="11.58998576817131"><ele>579.3333333333333</ele><time>2026-04-03T13:28:01.697Z</time></trkpt><trkpt lat="44.08312628762238" lon="11.589817576198856"><ele>581.0</ele><time>2026-04-03T13:28:02.697Z</time></trkpt><trkpt lat="44.0832323038427" lon="11.589642278258863"><ele>586.3333333333333</ele><time>2026-04-03T13:28:03.697Z</time></trkpt><trkpt lat="44.083273065179036" lon="11.589437589434622"><ele>591.6666666666666</ele><time>2026-04-03T13:28:04.697Z</time></trkpt><trkpt lat="44.08328088461485" lon="11.589217587109879"><ele>597.0</ele><time>2026-04-03T13:28:05.697Z</time></trkpt><trkpt lat="44.08330231576435" lon="11.589022663976982"><ele>597.0</ele><time>2026-04-03T13:28:06.696Z</time></trkpt><trkpt lat="44.08334630030065" lon="11.588862081952804"><ele>597.0</ele><time>2026-04-03T13:28:07.697Z</time></trkpt><trkpt lat="44.08340940722007" lon="11.588753266050169"><ele>597.0</ele><time>2026-04-03T13:28:08.697Z</time></trkpt><trkpt lat="44.08349558601027" lon="11.58870542305742"><ele>597.0</ele><time>2026-04-03T13:28:09.697Z</time></trkpt><trkpt lat="44.08356569913429" lon="11.588719681533044"><ele>597.0</ele><time>2026-04-03T13:28:10.697Z</time></trkpt><trkpt lat="44.08363092902617" lon="11.588816995007507"><ele>597.0</ele><time>2026-04-03T13:28:11.697Z</time></trkpt><trkpt lat="44.08364198548929" lon="11.588962949136242"><ele>597.0</ele><time>2026-04-03T13:28:12.697Z</time></trkpt><trkpt lat="44.083617184912654" lon="11.589154810833966"><ele>597.0</ele><time>2026-04-03T13:28:13.697Z</time></trkpt><trkpt lat="44.083598212162386" lon="11.589395590644866"><ele>597.0</ele><time>2026-04-03T13:28:14.697Z</time></trkpt><trkpt lat="44.08361155977084" lon="11.589650245333774"><ele>598.3333333333334</ele><time>2026-04-03T13:28:15.697Z</time></trkpt><trkpt lat="44.08365849058786" lon="11.589931471583235"><ele>599.6666666666667</ele><time>2026-04-03T13:28:16.697Z</time></trkpt><trkpt lat="44.08372132758756" lon="11.590234747713758"><ele>601.0</ele><time>2026-04-03T13:28:17.697Z</time></trkpt><trkpt lat="44.0837777118999" lon="11.590498720735612"><ele>601.0</ele><time>2026-04-03T13:28:18.697Z</time></trkpt><trkpt lat="44.08381166253258" lon="11.590718998696554"><ele>601.0</ele><time>2026-04-03T13:28:19.697Z</time></trkpt><trkpt lat="44.08382974065159" lon="11.590919308755979"><ele>601.0</ele><time>2026-04-03T13:28:20.697Z</time></trkpt><trkpt lat="44.08385530265459" lon="11.591062402950154"><ele>601.0</ele><time>2026-04-03T13:28:21.697Z</time></trkpt><trkpt lat="44.08390611975674" lon="11.5911346989124"><ele>601.0</ele><time>2026-04-03T13:28:22.697Z</time></trkpt><trkpt lat="44.08398321607274" lon="11.59113446807461"><ele>601.0</ele><time>2026-04-03T13:28:23.697Z</time></trkpt><trkpt lat="44.08405734252591" lon="11.59105825491641"><ele>601.0</ele><time>2026-04-03T13:28:24.697Z</time></trkpt><trkpt lat="44.08410747407289" lon="11.590894288595726"><ele>601.0</ele><time>2026-04-03T13:28:25.697Z</time></trkpt><trkpt lat="44.08418005969761" lon="11.590688352405998"><ele>607.0</ele><time>2026-04-03T13:28:26.697Z</time></trkpt><trkpt lat="44.08425159780552" lon="11.590449897774198"><ele>613.0</ele><time>2026-04-03T13:28:27.697Z</time></trkpt><trkpt lat="44.084288745196204" lon="11.590202805690023"><ele>619.0</ele><time>2026-04-03T13:28:28.697Z</time></trkpt><trkpt lat="44.08428389928487" lon="11.589945797830778"><ele>619.5</ele><time>2026-04-03T13:28:29.697Z</time></trkpt><trkpt lat="44.08425387275848" lon="11.589724392842177"><ele>620.0</ele><time>2026-04-03T13:28:30.697Z</time></trkpt><trkpt lat="44.08423413524766" lon="11.589542164781038"><ele>620.5</ele><time>2026-04-03T13:28:31.697Z</time></trkpt><trkpt lat="44.08425289769951" lon="11.589359915272315"><ele>621.0</ele><time>2026-04-03T13:28:32.697Z</time></trkpt><trkpt lat="44.0843166461069" lon="11.589156784678845"><ele>621.0</ele><time>2026-04-03T13:28:33.697Z</time></trkpt><trkpt lat="44.08440346934256" lon="11.588911144993148"><ele>621.0</ele><time>2026-04-03T13:28:34.697Z</time></trkpt><trkpt lat="44.084485269361814" lon="11.588681211873539"><ele>621.0</ele><time>2026-04-03T13:28:35.697Z</time></trkpt><trkpt lat="44.08454738167622" lon="11.588483908603116"><ele>619.75</ele><time>2026-04-03T13:28:36.697Z</time></trkpt><trkpt lat="44.08460027931613" lon="11.588328036369397"><ele>618.5</ele><time>2026-04-03T13:28:37.697Z</time></trkpt><trkpt lat="44.084660007670635" lon="11.588205472793964"><ele>617.25</ele><time>2026-04-03T13:28:38.697Z</time></trkpt><trkpt lat="44.08474315977368" lon="11.588105474226808"><ele>616.0</ele><time>2026-04-03T13:28:39.697Z</time></trkpt><trkpt lat="44.08486050379917" lon="11.588037080034235"><ele>620.2</ele><time>2026-04-03T13:28:40.697Z</time></trkpt><trkpt lat="44.08497890942125" lon="11.588010606811638"><ele>624.4000000000001</ele><time>2026-04-03T13:28:41.697Z</time></trkpt><trkpt lat="44.085078670791596" lon="11.58803281379197"><ele>628.6</ele><time>2026-04-03T13:28:42.697Z</time></trkpt><trkpt lat="44.08514461512407" lon="11.5881146007252"><ele>632.8000000000001</ele><time>2026-04-03T13:28:43.697Z</time></trkpt><trkpt lat="44.085160513157064" lon="11.588225765042102"><ele>637.0</ele><time>2026-04-03T13:28:44.697Z</time></trkpt><trkpt lat="44.085126514231554" lon="11.588330854724529"><ele>637.0</ele><time>2026-04-03T13:28:45.697Z</time></trkpt><trkpt lat="44.085052879178185" lon="11.588448005963656"><ele>637.0</ele><time>2026-04-03T13:28:46.697Z</time></trkpt><trkpt lat="44.08497192423549" lon="11.58861916505059"><ele>637.0</ele><time>2026-04-03T13:28:47.697Z</time></trkpt><trkpt lat="44.084931791105134" lon="11.588801349722921"><ele>637.0</ele><time>2026-04-03T13:28:48.697Z</time></trkpt><trkpt lat="44.08492554925333" lon="11.589001648545846"><ele>638.0</ele><time>2026-04-03T13:28:49.697Z</time></trkpt><trkpt lat="44.08495853070144" lon="11.589223912749329"><ele>639.0</ele><time>2026-04-03T13:28:50.697Z</time></trkpt><trkpt lat="44.08502557761124" lon="11.589409678334755"><ele>640.0</ele><time>2026-04-03T13:28:51.697Z</time></trkpt><trkpt lat="44.085119587767664" lon="11.589553435860198"><ele>640.0</ele><time>2026-04-03T13:28:52.697Z</time></trkpt><trkpt lat="44.08524856084073" lon="11.589668311694455"><ele>640.0</ele><time>2026-04-03T13:28:53.697Z</time></trkpt><trkpt lat="44.08540005684988" lon="11.58975218697697"><ele>640.0</ele><time>2026-04-03T13:28:54.697Z</time></trkpt><trkpt lat="44.08554708184232" lon="11.589818531910623"><ele>640.0</ele><time>2026-04-03T13:28:55.697Z</time></trkpt><trkpt lat="44.085677267329444" lon="11.589916287639339"><ele>640.0</ele><time>2026-04-03T13:28:56.697Z</time></trkpt><trkpt lat="44.08576780084176" lon="11.590039547591568"><ele>640.0</ele><time>2026-04-03T13:28:57.697Z</time></trkpt><trkpt lat="44.08581910008244" lon="11.590193981650186"><ele>640.0</ele><time>2026-04-03T13:28:58.697Z</time></trkpt><trkpt lat="44.085829098492084" lon="11.590369462729008"><ele>644.75</ele><time>2026-04-03T13:28:59.697Z</time></trkpt><trkpt lat="44.08580035963364" lon="11.590580515173018"><ele>649.5</ele><time>2026-04-03T13:29:00.697Z</time></trkpt><trkpt lat="44.08576871041734" lon="11.590796867400082"><ele>654.25</ele><time>2026-04-03T13:29:01.697Z</time></trkpt><trkpt lat="44.08576618257697" lon="11.590967784954982"><ele>659.0</ele><time>2026-04-03T13:29:02.697Z</time></trkpt><trkpt lat="44.08581157320843" lon="11.59109123978443"><ele>659.0</ele><time>2026-04-03T13:29:03.697Z</time></trkpt><trkpt lat="44.085904535960914" lon="11.591148798703934"><ele>659.0</ele><time>2026-04-03T13:29:04.697Z</time></trkpt><trkpt lat="44.08602249316508" lon="11.59115476311849"><ele>659.0</ele><time>2026-04-03T13:29:05.697Z</time></trkpt><trkpt lat="44.08614294632852" lon="11.591069140303054"><ele>659.0</ele><time>2026-04-03T13:29:06.697Z</time></trkpt><trkpt lat="44.086246583587666" lon="11.590905002985624"><ele>659.0</ele><time>2026-04-03T13:29:07.697Z</time></trkpt><trkpt lat="44.08631681707385" lon="11.590690620828484"><ele>659.0</ele><time>2026-04-03T13:29:08.697Z</time></trkpt><trkpt lat="44.086348258413835" lon="11.590445653398284"><ele>659.0</ele><time>2026-04-03T13:29:09.697Z</time></trkpt><trkpt lat="44.08632788589867" lon="11.590197956111558"><ele>659.0</ele><time>2026-04-03T13:29:10.697Z</time></trkpt><trkpt lat="44.086259644658334" lon="11.589942380415001"><ele>659.0</ele><time>2026-04-03T13:29:11.697Z</time></trkpt><trkpt lat="44.08618649638458" lon="11.589692540376252"><ele>659.0</ele><time>2026-04-03T13:29:12.697Z</time></trkpt><trkpt lat="44.0861366260023" lon="11.589456861662399"><ele>659.0</ele><time>2026-04-03T13:29:13.697Z</time></trkpt><trkpt lat="44.08611171783309" lon="11.589233160793409"><ele>659.0</ele><time>2026-04-03T13:29:14.697Z</time></trkpt><trkpt lat="44.08612132758359" lon="11.58902421955174"><ele>659.0</ele><time>2026-04-03T13:29:15.697Z</time></trkpt><trkpt lat="44.086170660446754" lon="11.588801683575102"><ele>657.0</ele><time>2026-04-03T13:29:16.697Z</time></trkpt><trkpt lat="44.08624186165" lon="11.58858758998641"><ele>655.0</ele><time>2026-04-03T13:29:17.697Z</time></trkpt><trkpt lat="44.086339473660644" lon="11.588394909521606"><ele>653.0</ele><time>2026-04-03T13:29:18.697Z</time></trkpt><trkpt lat="44.08644084157238" lon="11.588222779614993"><ele>653.0</ele><time>2026-04-03T13:29:19.697Z</time></trkpt><trkpt lat="44.08654712548989" lon="11.588084926353456"><ele>653.0</ele><time>2026-04-03T13:29:20.697Z</time></trkpt><trkpt lat="44.08665116191774" lon="11.587978968991296"><ele>653.0</ele><time>2026-04-03T13:29:21.697Z</time></trkpt><trkpt lat="44.0867770584048" lon="11.58792065864095"><ele>653.0</ele><time>2026-04-03T13:29:22.697Z</time></trkpt><trkpt lat="44.08690116181418" lon="11.58785839678207"><ele>655.25</ele><time>2026-04-03T13:29:23.697Z</time></trkpt><trkpt lat="44.0869980421391" lon="11.5877444540053"><ele>657.5</ele><time>2026-04-03T13:29:24.697Z</time></trkpt><trkpt lat="44.087044606395224" lon="11.587578973425718"><ele>659.75</ele><time>2026-04-03T13:29:25.697Z</time></trkpt><trkpt lat="44.08704934705947" lon="11.587388456751627"><ele>662.0</ele><time>2026-04-03T13:29:26.697Z</time></trkpt><trkpt lat="44.08704504277822" lon="11.587202069226779"><ele>662.0</ele><time>2026-04-03T13:29:27.697Z</time></trkpt><trkpt lat="44.08707784520465" lon="11.587029520623854"><ele>662.0</ele><time>2026-04-03T13:29:28.697Z</time></trkpt><trkpt lat="44.08715806483447" lon="11.58686344792575"><ele>662.0</ele><time>2026-04-03T13:29:29.697Z</time></trkpt><trkpt lat="44.087289638727874" lon="11.586703250513475"><ele>662.0</ele><time>2026-04-03T13:29:30.697Z</time></trkpt><trkpt lat="44.08744310531754" lon="11.586563224772487"><ele>666.6666666666666</ele><time>2026-04-03T13:29:31.697Z</time></trkpt><trkpt lat="44.087601073380824" lon="11.586470174762999"><ele>671.3333333333334</ele><time>2026-04-03T13:29:32.697Z</time></trkpt><trkpt lat="44.08777310502736" lon="11.586423708220916"><ele>676.0</ele><time>2026-04-03T13:29:33.697Z</time></trkpt><trkpt lat="44.08796491430257" lon="11.586407331727873"><ele>676.0</ele><time>2026-04-03T13:29:34.697Z</time></trkpt><trkpt lat="44.088152624729695" lon="11.586386938713558"><ele>676.0</ele><time>2026-04-03T13:29:35.697Z</time></trkpt><trkpt lat="44.08833186105574" lon="11.586337610166044"><ele>676.0</ele><time>2026-04-03T13:29:36.697Z</time></trkpt><trkpt lat="44.0884774344207" lon="11.586245714891128"><ele>677.0</ele><time>2026-04-03T13:29:37.697Z</time></trkpt><trkpt lat="44.08858413072352" lon="11.586110649267505"><ele>678.0</ele><time>2026-04-03T13:29:38.697Z</time></trkpt><trkpt lat="44.0886439315863" lon="11.585939733337094"><ele>679.0</ele><time>2026-04-03T13:29:39.697Z</time></trkpt><trkpt lat="44.08865921938383" lon="11.585721454001314"><ele>680.0</ele><time>2026-04-03T13:29:40.697Z</time></trkpt><trkpt lat="44.08867651469754" lon="11.585515392679817"><ele>680.0</ele><time>2026-04-03T13:29:41.697Z</time></trkpt><trkpt lat="44.088725703646894" lon="11.58532435794701"><ele>680.0</ele><time>2026-04-03T13:29:42.697Z</time></trkpt><trkpt lat="44.088804216156106" lon="11.585132610898887"><ele>680.0</ele><time>2026-04-03T13:29:43.697Z</time></trkpt><trkpt lat="44.08888609534935" lon="11.584969081282559"><ele>680.0</ele><time>2026-04-03T13:29:44.697Z</time></trkpt><trkpt lat="44.088961383813256" lon="11.584796590302105"><ele>680.0</ele><time>2026-04-03T13:29:45.697Z</time></trkpt><trkpt lat="44.089048717527355" lon="11.584645494760537"><ele>680.0</ele><time>2026-04-03T13:29:46.697Z</time></trkpt><trkpt lat="44.08914899211883" lon="11.58454074003253"><ele>680.0</ele><time>2026-04-03T13:29:47.697Z</time></trkpt><trkpt lat="44.08925181106787" lon="11.584501293088152"><ele>680.0</ele><time>2026-04-03T13:29:48.697Z</time></trkpt><trkpt lat="44.089376038592114" lon="11.584529458498906"><ele>687.0</ele><time>2026-04-03T13:29:49.697Z</time></trkpt><trkpt lat="44.089535814364666" lon="11.584585908037475"><ele>694.0</ele><time>2026-04-03T13:29:50.697Z</time></trkpt><trkpt lat="44.089724279574874" lon="11.584639490997688"><ele>701.0</ele><time>2026-04-03T13:29:51.697Z</time></trkpt><trkpt lat="44.089897593180524" lon="11.584691804199213"><ele>702.25</ele><time>2026-04-03T13:29:52.696Z</time></trkpt><trkpt lat="44.09004405363946" lon="11.584700928759485"><ele>703.5</ele><time>2026-04-03T13:29:53.696Z</time></trkpt><trkpt lat="44.09018149994342" lon="11.584660869648351"><ele>704.75</ele><time>2026-04-03T13:29:54.696Z</time></trkpt><trkpt lat="44.090292080286595" lon="11.584560259739973"><ele>706.0</ele><time>2026-04-03T13:29:55.696Z</time></trkpt><trkpt lat="44.09038382037554" lon="11.584394865522313"><ele>699.0</ele><time>2026-04-03T13:29:56.696Z</time></trkpt><trkpt lat="44.090467139668725" lon="11.584175399924343"><ele>692.0</ele><time>2026-04-03T13:29:57.696Z</time></trkpt><trkpt lat="44.09058525940754" lon="11.583952109045912"><ele>685.0</ele><time>2026-04-03T13:29:58.696Z</time></trkpt><trkpt lat="44.09073027206678" lon="11.583747416268812"><ele>686.6666666666667</ele><time>2026-04-03T13:29:59.696Z</time></trkpt><trkpt lat="44.09089261528586" lon="11.583585578398667"><ele>688.3333333333334</ele><time>2026-04-03T13:30:00.694Z</time></trkpt><trkpt lat="44.09106556046639" lon="11.583447425976022"><ele>690.0</ele><time>2026-04-03T13:30:01.694Z</time></trkpt><trkpt lat="44.0912383981638" lon="11.583353680728093"><ele>690.0</ele><time>2026-04-03T13:30:02.694Z</time></trkpt><trkpt lat="44.09139936770341" lon="11.5832799879964"><ele>690.0</ele><time>2026-04-03T13:30:03.693Z</time></trkpt><trkpt lat="44.09153666996757" lon="11.583180671883142"><ele>690.0</ele><time>2026-04-03T13:30:04.694Z</time></trkpt><trkpt lat="44.091641279656685" lon="11.583032971525755"><ele>690.75</ele><time>2026-04-03T13:30:05.694Z</time></trkpt><trkpt lat="44.09170701478515" lon="11.58283566257717"><ele>691.5</ele><time>2026-04-03T13:30:06.693Z</time></trkpt><trkpt lat="44.091723946799426" lon="11.582634101200217"><ele>692.25</ele><time>2026-04-03T13:30:07.694Z</time></trkpt><trkpt lat="44.09175713286767" lon="11.582508711909723"><ele>693.0</ele><time>2026-04-03T13:30:08.694Z</time></trkpt><trkpt lat="44.091828949478405" lon="11.582442396612016"><ele>693.0</ele><time>2026-04-03T13:30:09.694Z</time></trkpt><trkpt lat="44.09192779513535" lon="11.582436213569201"><ele>693.0</ele><time>2026-04-03T13:30:10.694Z</time></trkpt><trkpt lat="44.09202540143606" lon="11.582489097369661"><ele>693.0</ele><time>2026-04-03T13:30:11.694Z</time></trkpt><trkpt lat="44.092130912441" lon="11.582618626104402"><ele>693.0</ele><time>2026-04-03T13:30:12.694Z</time></trkpt><trkpt lat="44.09224523801115" lon="11.582718751411404"><ele>693.0</ele><time>2026-04-03T13:30:13.693Z</time></trkpt><trkpt lat="44.092364122569116" lon="11.582752170564165"><ele>693.0</ele><time>2026-04-03T13:30:14.693Z</time></trkpt><trkpt lat="44.09250765321059" lon="11.582700314138465"><ele>693.0</ele><time>2026-04-03T13:30:15.693Z</time></trkpt><trkpt lat="44.09265678609016" lon="11.582578143135958"><ele>693.0</ele><time>2026-04-03T13:30:16.693Z</time></trkpt><trkpt lat="44.092813170355" lon="11.582411131290725"><ele>694.5</ele><time>2026-04-03T13:30:17.693Z</time></trkpt><trkpt lat="44.09300855308169" lon="11.582244857588353"><ele>696.0</ele><time>2026-04-03T13:30:18.693Z</time></trkpt><trkpt lat="44.093215646635976" lon="11.582102564331295"><ele>693.0</ele><time>2026-04-03T13:30:19.693Z</time></trkpt><trkpt lat="44.09339851020265" lon="11.581959533222545"><ele>690.0</ele><time>2026-04-03T13:30:20.693Z</time></trkpt><trkpt lat="44.09356043730527" lon="11.581840376076538"><ele>687.0</ele><time>2026-04-03T13:30:21.693Z</time></trkpt><trkpt lat="44.093706728852524" lon="11.58174093242499"><ele>687.0</ele><time>2026-04-03T13:30:22.693Z</time></trkpt><trkpt lat="44.09386361428178" lon="11.581696352290034"><ele>687.0</ele><time>2026-04-03T13:30:23.693Z</time></trkpt><trkpt lat="44.09401944013065" lon="11.581703176823178"><ele>687.0</ele><time>2026-04-03T13:30:24.693Z</time></trkpt><trkpt lat="44.09416736975532" lon="11.581733880798648"><ele>688.25</ele><time>2026-04-03T13:30:25.693Z</time></trkpt><trkpt lat="44.09429906128448" lon="11.581725972624543"><ele>689.5</ele><time>2026-04-03T13:30:26.693Z</time></trkpt><trkpt lat="44.09442770420378" lon="11.581663918030673"><ele>690.75</ele><time>2026-04-03T13:30:27.693Z</time></trkpt><trkpt lat="44.09453999790594" lon="11.581568952072667"><ele>692.0</ele><time>2026-04-03T13:30:28.693Z</time></trkpt><trkpt lat="44.09462059624968" lon="11.581413853001798"><ele>692.0</ele><time>2026-04-03T13:30:29.693Z</time></trkpt><trkpt lat="44.094665470109454" lon="11.581210669121688"><ele>692.0</ele><time>2026-04-03T13:30:30.693Z</time></trkpt><trkpt lat="44.09466806854548" lon="11.58096341003251"><ele>692.0</ele><time>2026-04-03T13:30:31.693Z</time></trkpt><trkpt lat="44.09465707681057" lon="11.580716560791085"><ele>689.3333333333333</ele><time>2026-04-03T13:30:32.693Z</time></trkpt><trkpt lat="44.09466367118463" lon="11.580475995158466"><ele>686.6666666666666</ele><time>2026-04-03T13:30:33.693Z</time></trkpt><trkpt lat="44.09472080190672" lon="11.580258908948466"><ele>684.0</ele><time>2026-04-03T13:30:34.693Z</time></trkpt><trkpt lat="44.09478142666883" lon="11.580006492924221"><ele>682.0</ele><time>2026-04-03T13:30:35.693Z</time></trkpt><trkpt lat="44.0948165576885" lon="11.579722048595556"><ele>680.0</ele><time>2026-04-03T13:30:36.693Z</time></trkpt><trkpt lat="44.09484805638897" lon="11.579436443840281"><ele>678.0</ele><time>2026-04-03T13:30:37.693Z</time></trkpt><trkpt lat="44.094885046862764" lon="11.579139592530966"><ele>684.3333333333334</ele><time>2026-04-03T13:30:38.693Z</time></trkpt><trkpt lat="44.09493940032705" lon="11.578883894916762"><ele>690.6666666666667</ele><time>2026-04-03T13:30:39.693Z</time></trkpt><trkpt lat="44.09499267106062" lon="11.578643731740929"><ele>697.0</ele><time>2026-04-03T13:30:40.693Z</time></trkpt><trkpt lat="44.0950459349176" lon="11.578436632622514"><ele>697.0</ele><time>2026-04-03T13:30:41.693Z</time></trkpt><trkpt lat="44.09510295855501" lon="11.578256807772767"><ele>697.0</ele><time>2026-04-03T13:30:42.693Z</time></trkpt><trkpt lat="44.095179879592926" lon="11.578108425034422"><ele>697.0</ele><time>2026-04-03T13:30:43.693Z</time></trkpt><trkpt lat="44.09527240074653" lon="11.578000906473795"><ele>697.0</ele><time>2026-04-03T13:30:44.693Z</time></trkpt><trkpt lat="44.095379530367055" lon="11.577946639180551"><ele>697.0</ele><time>2026-04-03T13:30:45.693Z</time></trkpt><trkpt lat="44.09549942222318" lon="11.577951214268303"><ele>697.0</ele><time>2026-04-03T13:30:46.693Z</time></trkpt><trkpt lat="44.09563107774196" lon="11.578014133593026"><ele>697.0</ele><time>2026-04-03T13:30:47.693Z</time></trkpt><trkpt lat="44.09578146312852" lon="11.578122910383005"><ele>697.0</ele><time>2026-04-03T13:30:48.693Z</time></trkpt><trkpt lat="44.09594520966092" lon="11.578225572943497"><ele>700.0</ele><time>2026-04-03T13:30:49.693Z</time></trkpt><trkpt lat="44.096116507940046" lon="11.578276220771125"><ele>703.0</ele><time>2026-04-03T13:30:50.693Z</time></trkpt><trkpt lat="44.09627866005429" lon="11.578298462479994"><ele>706.0</ele><time>2026-04-03T13:30:51.693Z</time></trkpt><trkpt lat="44.09643825712633" lon="11.57831313207584"><ele>703.75</ele><time>2026-04-03T13:30:52.693Z</time></trkpt><trkpt lat="44.09659214997371" lon="11.578323576218148"><ele>701.5</ele><time>2026-04-03T13:30:53.693Z</time></trkpt><trkpt lat="44.0967292992636" lon="11.578304844837268"><ele>699.25</ele><time>2026-04-03T13:30:54.693Z</time></trkpt><trkpt lat="44.096846034850834" lon="11.57825320529732"><ele>697.0</ele><time>2026-04-03T13:30:55.693Z</time></trkpt><trkpt lat="44.0969203515955" lon="11.57815041872381"><ele>697.0</ele><time>2026-04-03T13:30:56.693Z</time></trkpt><trkpt lat="44.096942564798674" lon="11.578016653329271"><ele>697.0</ele><time>2026-04-03T13:30:57.693Z</time></trkpt><trkpt lat="44.0969072125208" lon="11.577842103309242"><ele>697.0</ele><time>2026-04-03T13:30:58.693Z</time></trkpt><trkpt lat="44.0968194862046" lon="11.577630849238798"><ele>697.0</ele><time>2026-04-03T13:30:59.693Z</time></trkpt><trkpt lat="44.096699945009476" lon="11.577410246482492"><ele>695.0</ele><time>2026-04-03T13:31:00.693Z</time></trkpt><trkpt lat="44.096590218291965" lon="11.577203677626672"><ele>693.0</ele><time>2026-04-03T13:31:01.693Z</time></trkpt><trkpt lat="44.0965019748022" lon="11.577013472644065"><ele>691.0</ele><time>2026-04-03T13:31:02.693Z</time></trkpt><trkpt lat="44.09644003781142" lon="11.576829718185627"><ele>685.5</ele><time>2026-04-03T13:31:03.693Z</time></trkpt><trkpt lat="44.09638725406511" lon="11.576659158285226"><ele>680.0</ele><time>2026-04-03T13:31:04.693Z</time></trkpt><trkpt lat="44.096342474125315" lon="11.576494242995455"><ele>674.5</ele><time>2026-04-03T13:31:05.693Z</time></trkpt><trkpt lat="44.096297380189554" lon="11.576323834244445"><ele>669.0</ele><time>2026-04-03T13:31:06.693Z</time></trkpt><trkpt lat="44.09625961856039" lon="11.576174505730933"><ele>668.0</ele><time>2026-04-03T13:31:07.693Z</time></trkpt><trkpt lat="44.09622582864227" lon="11.576034238005041"><ele>667.0</ele><time>2026-04-03T13:31:08.693Z</time></trkpt><trkpt lat="44.096207420564696" lon="11.57589234785357"><ele>666.0</ele><time>2026-04-03T13:31:09.693Z</time></trkpt><trkpt lat="44.09621764024147" lon="11.575716122121786"><ele>665.0</ele><time>2026-04-03T13:31:10.693Z</time></trkpt><trkpt lat="44.096254853153866" lon="11.575551780466343"><ele>665.0</ele><time>2026-04-03T13:31:11.693Z</time></trkpt><trkpt lat="44.096328268032494" lon="11.57541788805401"><ele>665.0</ele><time>2026-04-03T13:31:12.693Z</time></trkpt><trkpt lat="44.09643036450827" lon="11.575302553529012"><ele>665.0</ele><time>2026-04-03T13:31:13.693Z</time></trkpt><trkpt lat="44.096555831721865" lon="11.575218712711473"><ele>665.0</ele><time>2026-04-03T13:31:14.693Z</time></trkpt><trkpt lat="44.09668490495837" lon="11.575112074902588"><ele>664.25</ele><time>2026-04-03T13:31:15.693Z</time></trkpt><trkpt lat="44.09675573909799" lon="11.574996526675655"><ele>663.5</ele><time>2026-04-03T13:31:16.693Z</time></trkpt><trkpt lat="44.096773930420476" lon="11.574820120074484"><ele>662.75</ele><time>2026-04-03T13:31:17.693Z</time></trkpt><trkpt lat="44.0968067926944" lon="11.574612407754072"><ele>662.0</ele><time>2026-04-03T13:31:18.693Z</time></trkpt><trkpt lat="44.096840664857304" lon="11.574388986033894"><ele>662.0</ele><time>2026-04-03T13:31:19.693Z</time></trkpt><trkpt lat="44.0968938963945" lon="11.574182137552057"><ele>662.0</ele><time>2026-04-03T13:31:20.693Z</time></trkpt><trkpt lat="44.096938053883136" lon="11.573978887026405"><ele>662.0</ele><time>2026-04-03T13:31:21.693Z</time></trkpt><trkpt lat="44.09694692055701" lon="11.573776967396284"><ele>661.5</ele><time>2026-04-03T13:31:22.693Z</time></trkpt><trkpt lat="44.0969117543624" lon="11.573590582937488"><ele>661.0</ele><time>2026-04-03T13:31:23.693Z</time></trkpt><trkpt lat="44.09682794132811" lon="11.573444705972125"><ele>660.5</ele><time>2026-04-03T13:31:24.693Z</time></trkpt><trkpt lat="44.09670837329812" lon="11.573353285338463"><ele>660.0</ele><time>2026-04-03T13:31:25.693Z</time></trkpt><trkpt lat="44.09659234912026" lon="11.573289028699516"><ele>654.75</ele><time>2026-04-03T13:31:26.693Z</time></trkpt><trkpt lat="44.09650240045095" lon="11.573208955185084"><ele>649.5</ele><time>2026-04-03T13:31:27.693Z</time></trkpt><trkpt lat="44.09644809329309" lon="11.573068318105824"><ele>644.25</ele><time>2026-04-03T13:31:28.693Z</time></trkpt><trkpt lat="44.09643111352566" lon="11.572909955144008"><ele>639.0</ele><time>2026-04-03T13:31:29.693Z</time></trkpt><trkpt lat="44.09645307847304" lon="11.572743848010571"><ele>637.25</ele><time>2026-04-03T13:31:30.693Z</time></trkpt><trkpt lat="44.09651654957259" lon="11.572551880561937"><ele>635.5</ele><time>2026-04-03T13:31:31.693Z</time></trkpt><trkpt lat="44.09657038406417" lon="11.572362712859077"><ele>633.75</ele><time>2026-04-03T13:31:32.693Z</time></trkpt><trkpt lat="44.096616768070696" lon="11.572174104927745"><ele>632.0</ele><time>2026-04-03T13:31:33.693Z</time></trkpt><trkpt lat="44.096671375573045" lon="11.571998370675324"><ele>635.0</ele><time>2026-04-03T13:31:34.693Z</time></trkpt><trkpt lat="44.09673253243568" lon="11.571861867024454"><ele>638.0</ele><time>2026-04-03T13:31:35.693Z</time></trkpt><trkpt lat="44.0968145980058" lon="11.571774119614695"><ele>641.0</ele><time>2026-04-03T13:31:36.693Z</time></trkpt><trkpt lat="44.09691530062892" lon="11.571757055221466"><ele>644.0</ele><time>2026-04-03T13:31:37.693Z</time></trkpt><trkpt lat="44.0970246758841" lon="11.571807302499225"><ele>647.0</ele><time>2026-04-03T13:31:38.693Z</time></trkpt><trkpt lat="44.09713903212232" lon="11.571903962901668"><ele>647.0</ele><time>2026-04-03T13:31:39.693Z</time></trkpt><trkpt lat="44.097252995641036" lon="11.572010437358395"><ele>647.0</ele><time>2026-04-03T13:31:40.693Z</time></trkpt><trkpt lat="44.097399501203746" lon="11.572064707805032"><ele>647.0</ele><time>2026-04-03T13:31:41.693Z</time></trkpt><trkpt lat="44.09754523645808" lon="11.572061735773055"><ele>647.0</ele><time>2026-04-03T13:31:42.693Z</time></trkpt><trkpt lat="44.097674633210275" lon="11.57197633643008"><ele>647.0</ele><time>2026-04-03T13:31:43.693Z</time></trkpt><trkpt lat="44.09776716464323" lon="11.57183069318105"><ele>647.0</ele><time>2026-04-03T13:31:44.693Z</time></trkpt><trkpt lat="44.097830025710834" lon="11.57166458949714"><ele>647.0</ele><time>2026-04-03T13:31:45.693Z</time></trkpt><trkpt lat="44.09788819583892" lon="11.571538213173035"><ele>647.0</ele><time>2026-04-03T13:31:46.693Z</time></trkpt><trkpt lat="44.097962106850545" lon="11.57145552441012"><ele>647.0</ele><time>2026-04-03T13:31:47.693Z</time></trkpt><trkpt lat="44.09803636305814" lon="11.57144295193402"><ele>647.0</ele><time>2026-04-03T13:31:48.693Z</time></trkpt><trkpt lat="44.09811254432877" lon="11.571499379537867"><ele>647.0</ele><time>2026-04-03T13:31:49.693Z</time></trkpt><trkpt lat="44.09820038386948" lon="11.571640089719988"><ele>647.0</ele><time>2026-04-03T13:31:50.693Z</time></trkpt><trkpt lat="44.09828195945644" lon="11.571827356083539"><ele>648.6666666666666</ele><time>2026-04-03T13:31:51.693Z</time></trkpt><trkpt lat="44.098383316952024" lon="11.57202223051145"><ele>650.3333333333334</ele><time>2026-04-03T13:31:52.693Z</time></trkpt><trkpt lat="44.09848492894125" lon="11.57221648888414"><ele>652.0</ele><time>2026-04-03T13:31:53.693Z</time></trkpt><trkpt lat="44.0986110887182" lon="11.57239981027076"><ele>652.0</ele><time>2026-04-03T13:31:54.693Z</time></trkpt><trkpt lat="44.09874183847805" lon="11.572547463395296"><ele>652.0</ele><time>2026-04-03T13:31:55.693Z</time></trkpt><trkpt lat="44.098876111437434" lon="11.572677122500423"><ele>652.0</ele><time>2026-04-03T13:31:56.693Z</time></trkpt><trkpt lat="44.09899498146066" lon="11.572770873781616"><ele>648.0</ele><time>2026-04-03T13:31:57.693Z</time></trkpt><trkpt lat="44.099100052606985" lon="11.572827621005615"><ele>644.0</ele><time>2026-04-03T13:31:58.693Z</time></trkpt><trkpt lat="44.09920557378988" lon="11.57283666482557"><ele>640.0</ele><time>2026-04-03T13:31:59.693Z</time></trkpt><trkpt lat="44.099295202384965" lon="11.572792395444479"><ele>636.0</ele><time>2026-04-03T13:32:00.693Z</time></trkpt><trkpt lat="44.0993439692657" lon="11.572675176356642"><ele>632.0</ele><time>2026-04-03T13:32:01.693Z</time></trkpt><trkpt lat="44.09935328005287" lon="11.57250374698708"><ele>632.0</ele><time>2026-04-03T13:32:02.693Z</time></trkpt><trkpt lat="44.099334093850395" lon="11.572298888540237"><ele>632.0</ele><time>2026-04-03T13:32:03.693Z</time></trkpt><trkpt lat="44.09933686621671" lon="11.572027614609924"><ele>632.0</ele><time>2026-04-03T13:32:04.693Z</time></trkpt><trkpt lat="44.099387297549505" lon="11.571763120990388"><ele>627.3333333333333</ele><time>2026-04-03T13:32:05.693Z</time></trkpt><trkpt lat="44.099433806324534" lon="11.57150967963081"><ele>622.6666666666666</ele><time>2026-04-03T13:32:06.69Z</time></trkpt><trkpt lat="44.09945804301479" lon="11.571249921994545"><ele>618.0</ele><time>2026-04-03T13:32:07.69Z</time></trkpt><trkpt lat="44.09945622378528" lon="11.57100349221213"><ele>615.3333333333334</ele><time>2026-04-03T13:32:08.69Z</time></trkpt><trkpt lat="44.099421961009774" lon="11.570752152594602"><ele>612.6666666666667</ele><time>2026-04-03T13:32:09.69Z</time></trkpt><trkpt lat="44.099362244953014" lon="11.570514606683432"><ele>610.0</ele><time>2026-04-03T13:32:10.69Z</time></trkpt><trkpt lat="44.099299454644346" lon="11.570300243191113"><ele>608.5</ele><time>2026-04-03T13:32:11.69Z</time></trkpt><trkpt lat="44.09925958279418" lon="11.570122663874429"><ele>607.0</ele><time>2026-04-03T13:32:12.69Z</time></trkpt><trkpt lat="44.09925144905694" lon="11.56996119660833"><ele>605.5</ele><time>2026-04-03T13:32:13.69Z</time></trkpt><trkpt lat="44.099285247946945" lon="11.569798678306574"><ele>604.0</ele><time>2026-04-03T13:32:14.69Z</time></trkpt><trkpt lat="44.09934977434715" lon="11.569666421881285"><ele>604.0</ele><time>2026-04-03T13:32:15.69Z</time></trkpt><trkpt lat="44.099429527133516" lon="11.569585190931152"><ele>604.0</ele><time>2026-04-03T13:32:16.69Z</time></trkpt><trkpt lat="44.09954867279498" lon="11.569549157941005"><ele>604.0</ele><time>2026-04-03T13:32:17.69Z</time></trkpt><trkpt lat="44.0996834381633" lon="11.569569586423878"><ele>604.0</ele><time>2026-04-03T13:32:18.69Z</time></trkpt><trkpt lat="44.099819678064364" lon="11.569651605414164"><ele>604.6666666666667</ele><time>2026-04-03T13:32:19.69Z</time></trkpt><trkpt lat="44.099941915768994" lon="11.5697859590266"><ele>605.3333333333334</ele><time>2026-04-03T13:32:20.69Z</time></trkpt><trkpt lat="44.100056293047004" lon="11.569933669099118"><ele>606.0</ele><time>2026-04-03T13:32:21.69Z</time></trkpt><trkpt lat="44.10020149577001" lon="11.570044441858023"><ele>606.0</ele><time>2026-04-03T13:32:22.69Z</time></trkpt><trkpt lat="44.100366690513184" lon="11.570118788063917"><ele>606.0</ele><time>2026-04-03T13:32:23.69Z</time></trkpt><trkpt lat="44.10052569763393" lon="11.570141409728606"><ele>606.0</ele><time>2026-04-03T13:32:24.69Z</time></trkpt><trkpt lat="44.10069514458337" lon="11.570122524699347"><ele>600.6666666666666</ele><time>2026-04-03T13:32:25.69Z</time></trkpt><trkpt lat="44.10084119360087" lon="11.570089905479938"><ele>595.3333333333333</ele><time>2026-04-03T13:32:26.69Z</time></trkpt><trkpt lat="44.10099039093261" lon="11.570079544833396"><ele>590.0</ele><time>2026-04-03T13:32:27.69Z</time></trkpt><trkpt lat="44.10114830431403" lon="11.5701359197443"><ele>590.0</ele><time>2026-04-03T13:32:28.69Z</time></trkpt><trkpt lat="44.10129911158497" lon="11.5701901349548"><ele>590.0</ele><time>2026-04-03T13:32:29.69Z</time></trkpt><trkpt lat="44.10146274018776" lon="11.570213732012682"><ele>590.0</ele><time>2026-04-03T13:32:30.69Z</time></trkpt><trkpt lat="44.101619127117445" lon="11.57026693499367"><ele>595.6666666666666</ele><time>2026-04-03T13:32:31.69Z</time></trkpt><trkpt lat="44.10178349322508" lon="11.570364829907042"><ele>601.3333333333334</ele><time>2026-04-03T13:32:32.69Z</time></trkpt><trkpt lat="44.10194911750221" lon="11.570476989110778"><ele>607.0</ele><time>2026-04-03T13:32:33.69Z</time></trkpt><trkpt lat="44.10210805073921" lon="11.57058801900205"><ele>607.0</ele><time>2026-04-03T13:32:34.69Z</time></trkpt><trkpt lat="44.10225674961332" lon="11.570700197160653"><ele>607.0</ele><time>2026-04-03T13:32:35.69Z</time></trkpt><trkpt lat="44.10238768685799" lon="11.570827920136667"><ele>607.0</ele><time>2026-04-03T13:32:36.69Z</time></trkpt><trkpt lat="44.10248905679539" lon="11.570964037220907"><ele>606.0</ele><time>2026-04-03T13:32:37.69Z</time></trkpt><trkpt lat="44.10257654380835" lon="11.571091306548107"><ele>605.0</ele><time>2026-04-03T13:32:38.69Z</time></trkpt><trkpt lat="44.10266303809005" lon="11.571186017481718"><ele>604.0</ele><time>2026-04-03T13:32:39.69Z</time></trkpt><trkpt lat="44.10275690119334" lon="11.571213430049955"><ele>603.0</ele><time>2026-04-03T13:32:40.69Z</time></trkpt><trkpt lat="44.102840878227916" lon="11.571163728416893"><ele>602.0</ele><time>2026-04-03T13:32:41.69Z</time></trkpt><trkpt lat="44.1028880741108" lon="11.571064293398257"><ele>598.25</ele><time>2026-04-03T13:32:42.69Z</time></trkpt><trkpt lat="44.102875263920986" lon="11.57091637604484"><ele>594.5</ele><time>2026-04-03T13:32:43.69Z</time></trkpt><trkpt lat="44.102830194097116" lon="11.570727485346277"><ele>590.75</ele><time>2026-04-03T13:32:44.69Z</time></trkpt><trkpt lat="44.10272587449893" lon="11.570541780430544"><ele>587.0</ele><time>2026-04-03T13:32:45.69Z</time></trkpt><trkpt lat="44.10260319315304" lon="11.570326623099845"><ele>585.6666666666666</ele><time>2026-04-03T13:32:46.69Z</time></trkpt><trkpt lat="44.10249458189642" lon="11.570093007778265"><ele>584.3333333333334</ele><time>2026-04-03T13:32:47.69Z</time></trkpt><trkpt lat="44.102392510112395" lon="11.569861209445742"><ele>583.0</ele><time>2026-04-03T13:32:48.69Z</time></trkpt><trkpt lat="44.10227840588105" lon="11.569656423354536"><ele>578.3333333333334</ele><time>2026-04-03T13:32:49.69Z</time></trkpt><trkpt lat="44.102169788482975" lon="11.569456376138412"><ele>573.6666666666666</ele><time>2026-04-03T13:32:50.69Z</time></trkpt><trkpt lat="44.10203273847622" lon="11.56926556183488"><ele>569.0</ele><time>2026-04-03T13:32:51.69Z</time></trkpt><trkpt lat="44.10185263944715" lon="11.569100242388014"><ele>569.0</ele><time>2026-04-03T13:32:52.69Z</time></trkpt><trkpt lat="44.10165809297909" lon="11.568925477936467"><ele>569.0</ele><time>2026-04-03T13:32:53.69Z</time></trkpt><trkpt lat="44.10146335908021" lon="11.568762788972043"><ele>566.0</ele><time>2026-04-03T13:32:54.69Z</time></trkpt><trkpt lat="44.10128151353669" lon="11.568601093019675"><ele>563.0</ele><time>2026-04-03T13:32:55.69Z</time></trkpt><trkpt lat="44.10111620078375" lon="11.568427674347571"><ele>560.0</ele><time>2026-04-03T13:32:56.69Z</time></trkpt><trkpt lat="44.10093548424638" lon="11.568237186931578"><ele>556.0</ele><time>2026-04-03T13:32:57.69Z</time></trkpt><trkpt lat="44.10071851467229" lon="11.568036814692684"><ele>552.0</ele><time>2026-04-03T13:32:58.69Z</time></trkpt><trkpt lat="44.100496942690675" lon="11.56785357282622"><ele>552.0</ele><time>2026-04-03T13:32:59.69Z</time></trkpt><trkpt lat="44.100306082426314" lon="11.56770410911246"><ele>552.0</ele><time>2026-04-03T13:33:00.69Z</time></trkpt><trkpt lat="44.100150969302156" lon="11.567583041203346"><ele>552.0</ele><time>2026-04-03T13:33:01.69Z</time></trkpt><trkpt lat="44.100007501914455" lon="11.56746840617565"><ele>552.5</ele><time>2026-04-03T13:33:02.69Z</time></trkpt><trkpt lat="44.09989167180323" lon="11.567368174919979"><ele>553.0</ele><time>2026-04-03T13:33:03.69Z</time></trkpt><trkpt lat="44.09980891611159" lon="11.567219252818697"><ele>553.5</ele><time>2026-04-03T13:33:04.69Z</time></trkpt><trkpt lat="44.09975238674259" lon="11.567036238828113"><ele>554.0</ele><time>2026-04-03T13:33:05.69Z</time></trkpt><trkpt lat="44.09971694602812" lon="11.566786725431884"><ele>551.0</ele><time>2026-04-03T13:33:06.69Z</time></trkpt><trkpt lat="44.09967448500055" lon="11.566497895137482"><ele>548.0</ele><time>2026-04-03T13:33:07.69Z</time></trkpt><trkpt lat="44.099610362570694" lon="11.56620022049451"><ele>545.0</ele><time>2026-04-03T13:33:08.69Z</time></trkpt><trkpt lat="44.09953033891932" lon="11.565935023045288"><ele>543.3333333333333</ele><time>2026-04-03T13:33:09.69Z</time></trkpt><trkpt lat="44.099444307308836" lon="11.56570638053529"><ele>541.6666666666666</ele><time>2026-04-03T13:33:10.69Z</time></trkpt><trkpt lat="44.09936763711745" lon="11.565511813052023"><ele>540.0</ele><time>2026-04-03T13:33:11.69Z</time></trkpt><trkpt lat="44.099308151174185" lon="11.565337556122643"><ele>538.5</ele><time>2026-04-03T13:33:12.69Z</time></trkpt><trkpt lat="44.099277777200406" lon="11.565180543471586"><ele>537.0</ele><time>2026-04-03T13:33:13.69Z</time></trkpt><trkpt lat="44.099275591322005" lon="11.565034530939982"><ele>535.5</ele><time>2026-04-03T13:33:14.689Z</time></trkpt><trkpt lat="44.09932484852" lon="11.564871733619256"><ele>534.0</ele><time>2026-04-03T13:33:15.689Z</time></trkpt><trkpt lat="44.09942790727133" lon="11.564680632736142"><ele>531.3333333333334</ele><time>2026-04-03T13:33:16.689Z</time></trkpt><trkpt lat="44.099545557524465" lon="11.564473161937304"><ele>528.6666666666667</ele><time>2026-04-03T13:33:17.689Z</time></trkpt><trkpt lat="44.0996610602195" lon="11.56428359171204"><ele>526.0</ele><time>2026-04-03T13:33:18.689Z</time></trkpt><trkpt lat="44.099757868013775" lon="11.564105564600542"><ele>526.0</ele><time>2026-04-03T13:33:19.689Z</time></trkpt><trkpt lat="44.099824975929465" lon="11.5639139313874"><ele>526.0</ele><time>2026-04-03T13:33:20.689Z</time></trkpt><trkpt lat="44.09986140922248" lon="11.563705018049903"><ele>526.0</ele><time>2026-04-03T13:33:21.689Z</time></trkpt><trkpt lat="44.099897933763025" lon="11.563498761287569"><ele>525.75</ele><time>2026-04-03T13:33:22.689Z</time></trkpt><trkpt lat="44.09992348474804" lon="11.56329678034085"><ele>525.5</ele><time>2026-04-03T13:33:23.689Z</time></trkpt><trkpt lat="44.09994887126182" lon="11.563122322213195"><ele>525.25</ele><time>2026-04-03T13:33:24.689Z</time></trkpt><trkpt lat="44.09998449573627" lon="11.562958665267724"><ele>525.0</ele><time>2026-04-03T13:33:25.689Z</time></trkpt><trkpt lat="44.10002660182116" lon="11.562806415604564"><ele>525.0</ele><time>2026-04-03T13:33:26.689Z</time></trkpt><trkpt lat="44.10008996661307" lon="11.5626526636317"><ele>525.0</ele><time>2026-04-03T13:33:27.689Z</time></trkpt><trkpt lat="44.10016340339103" lon="11.562479384646869"><ele>525.0</ele><time>2026-04-03T13:33:28.689Z</time></trkpt><trkpt lat="44.10024125386115" lon="11.562315159642345"><ele>525.0</ele><time>2026-04-03T13:33:29.689Z</time></trkpt><trkpt lat="44.100318451610036" lon="11.562154714483267"><ele>523.25</ele><time>2026-04-03T13:33:30.689Z</time></trkpt><trkpt lat="44.10039064868225" lon="11.562000041437297"><ele>521.5</ele><time>2026-04-03T13:33:31.689Z</time></trkpt><trkpt lat="44.10046429434313" lon="11.561846867904379"><ele>519.75</ele><time>2026-04-03T13:33:32.689Z</time></trkpt><trkpt lat="44.100546925143554" lon="11.56169092863355"><ele>518.0</ele><time>2026-04-03T13:33:33.689Z</time></trkpt><trkpt lat="44.100639634024944" lon="11.5615373249807"><ele>518.0</ele><time>2026-04-03T13:33:34.689Z</time></trkpt><trkpt lat="44.10074489091926" lon="11.561388893746555"><ele>518.0</ele><time>2026-04-03T13:33:35.689Z</time></trkpt><trkpt lat="44.10085959011471" lon="11.561238280313923"><ele>518.0</ele><time>2026-04-03T13:33:36.689Z</time></trkpt><trkpt lat="44.10098133227316" lon="11.561075929528608"><ele>516.6666666666666</ele><time>2026-04-03T13:33:37.689Z</time></trkpt><trkpt lat="44.1010998642965" lon="11.560911187776838"><ele>515.3333333333334</ele><time>2026-04-03T13:33:38.689Z</time></trkpt><trkpt lat="44.10121471193802" lon="11.560743590575107"><ele>514.0</ele><time>2026-04-03T13:33:39.689Z</time></trkpt><trkpt lat="44.1013212293168" lon="11.56060197518584"><ele>514.0</ele><time>2026-04-03T13:33:40.689Z</time></trkpt><trkpt lat="44.10142094573852" lon="11.560483129023691"><ele>514.0</ele><time>2026-04-03T13:33:41.689Z</time></trkpt><trkpt lat="44.1015287625059" lon="11.56040357200062"><ele>514.0</ele><time>2026-04-03T13:33:42.689Z</time></trkpt><trkpt lat="44.101665385572126" lon="11.560356166722887"><ele>514.0</ele><time>2026-04-03T13:33:43.689Z</time></trkpt><trkpt lat="44.10182691917392" lon="11.560349473215828"><ele>510.0</ele><time>2026-04-03T13:33:44.689Z</time></trkpt><trkpt lat="44.10199025094772" lon="11.560357040985744"><ele>506.0</ele><time>2026-04-03T13:33:45.689Z</time></trkpt><trkpt lat="44.102143517450976" lon="11.560348128436694"><ele>502.0</ele><time>2026-04-03T13:33:46.689Z</time></trkpt><trkpt lat="44.10227856603606" lon="11.560294188093616"><ele>502.0</ele><time>2026-04-03T13:33:47.689Z</time></trkpt><trkpt lat="44.102411409676684" lon="11.560199831434321"><ele>502.0</ele><time>2026-04-03T13:33:48.689Z</time></trkpt><trkpt lat="44.10254041796939" lon="11.560002734190864"><ele>502.0</ele><time>2026-04-03T13:33:49.689Z</time></trkpt><trkpt lat="44.102639444917955" lon="11.559730176145575"><ele>501.33333333333337</ele><time>2026-04-03T13:33:50.689Z</time></trkpt><trkpt lat="44.102710829990315" lon="11.559417845696709"><ele>500.66666666666663</ele><time>2026-04-03T13:33:51.689Z</time></trkpt><trkpt lat="44.10280126964524" lon="11.55915192003261"><ele>500.0</ele><time>2026-04-03T13:33:52.689Z</time></trkpt><trkpt lat="44.10291636497913" lon="11.55892421356397"><ele>500.0</ele><time>2026-04-03T13:33:53.689Z</time></trkpt><trkpt lat="44.103045961980584" lon="11.558748746897136"><ele>500.0</ele><time>2026-04-03T13:33:54.689Z</time></trkpt><trkpt lat="44.10318884264587" lon="11.558595229182087"><ele>500.0</ele><time>2026-04-03T13:33:55.689Z</time></trkpt><trkpt lat="44.10334698415268" lon="11.558453364273591"><ele>499.66666666666663</ele><time>2026-04-03T13:33:56.689Z</time></trkpt><trkpt lat="44.10353147746853" lon="11.5583381148389"><ele>499.33333333333337</ele><time>2026-04-03T13:33:57.689Z</time></trkpt><trkpt lat="44.103739537844014" lon="11.558240792093411"><ele>499.0</ele><time>2026-04-03T13:33:58.689Z</time></trkpt><trkpt lat="44.103934272271076" lon="11.558120174295293"><ele>496.6666666666667</ele><time>2026-04-03T13:33:59.689Z</time></trkpt><trkpt lat="44.10410466454011" lon="11.557981526804454"><ele>494.33333333333337</ele><time>2026-04-03T13:34:00.689Z</time></trkpt><trkpt lat="44.10426282181067" lon="11.557837154322783"><ele>492.0</ele><time>2026-04-03T13:34:01.689Z</time></trkpt><trkpt lat="44.10440481142942" lon="11.55769233948543"><ele>492.0</ele><time>2026-04-03T13:34:02.689Z</time></trkpt><trkpt lat="44.10451192694527" lon="11.557526134924048"><ele>492.0</ele><time>2026-04-03T13:34:03.689Z</time></trkpt><trkpt lat="44.104599449061425" lon="11.557347855186594"><ele>492.0</ele><time>2026-04-03T13:34:04.689Z</time></trkpt><trkpt lat="44.104656629040825" lon="11.557178479218642"><ele>491.8</ele><time>2026-04-03T13:34:05.689Z</time></trkpt><trkpt lat="44.10470315139768" lon="11.557024092669172"><ele>491.6</ele><time>2026-04-03T13:34:06.689Z</time></trkpt><trkpt lat="44.104760500568304" lon="11.556899781728887"><ele>491.40000000000003</ele><time>2026-04-03T13:34:07.689Z</time></trkpt><trkpt lat="44.10483387554353" lon="11.556792627068978"><ele>491.20000000000005</ele><time>2026-04-03T13:34:08.689Z</time></trkpt><trkpt lat="44.104919689570366" lon="11.556724141515451"><ele>491.0</ele><time>2026-04-03T13:34:09.689Z</time></trkpt><trkpt lat="44.105029016808714" lon="11.55669843601594"><ele>491.0</ele><time>2026-04-03T13:34:10.689Z</time></trkpt><trkpt lat="44.105133163902956" lon="11.556680748105007"><ele>491.0</ele><time>2026-04-03T13:34:11.689Z</time></trkpt><trkpt lat="44.10524077853357" lon="11.556648315358169"><ele>491.0</ele><time>2026-04-03T13:34:12.686Z</time></trkpt><trkpt lat="44.105352047193676" lon="11.556568486373665"><ele>491.0</ele><time>2026-04-03T13:34:13.686Z</time></trkpt><trkpt lat="44.10545745271527" lon="11.556462058862492"><ele>491.0</ele><time>2026-04-03T13:34:14.686Z</time></trkpt><trkpt lat="44.10556707387295" lon="11.556379025415556"><ele>491.0</ele><time>2026-04-03T13:34:15.686Z</time></trkpt><trkpt lat="44.10570158003791" lon="11.556309000369842"><ele>491.0</ele><time>2026-04-03T13:34:16.686Z</time></trkpt><trkpt lat="44.10586280110588" lon="11.556226614609425"><ele>491.0</ele><time>2026-04-03T13:34:17.686Z</time></trkpt><trkpt lat="44.10606134858289" lon="11.556104399912103"><ele>487.0</ele><time>2026-04-03T13:34:18.686Z</time></trkpt><trkpt lat="44.10626635278695" lon="11.555985012791371"><ele>483.0</ele><time>2026-04-03T13:34:19.686Z</time></trkpt><trkpt lat="44.10646419949034" lon="11.555902603958966"><ele>479.0</ele><time>2026-04-03T13:34:20.686Z</time></trkpt><trkpt lat="44.10665521422386" lon="11.555830327840852"><ele>479.0</ele><time>2026-04-03T13:34:21.686Z</time></trkpt><trkpt lat="44.10683852666408" lon="11.555755494181597"><ele>479.0</ele><time>2026-04-03T13:34:22.686Z</time></trkpt><trkpt lat="44.10700714377838" lon="11.555686175240178"><ele>479.0</ele><time>2026-04-03T13:34:23.686Z</time></trkpt><trkpt lat="44.107155719370496" lon="11.55561985146268"><ele>479.0</ele><time>2026-04-03T13:34:24.686Z</time></trkpt><trkpt lat="44.10729053546934" lon="11.555524509761161"><ele>479.0</ele><time>2026-04-03T13:34:25.686Z</time></trkpt><trkpt lat="44.107395360591546" lon="11.555388016770687"><ele>479.0</ele><time>2026-04-03T13:34:26.686Z</time></trkpt><trkpt lat="44.107455282297174" lon="11.555212475500506"><ele>479.0</ele><time>2026-04-03T13:34:27.686Z</time></trkpt><trkpt lat="44.10746256755958" lon="11.555009222178057"><ele>474.0</ele><time>2026-04-03T13:34:28.686Z</time></trkpt><trkpt lat="44.1074100760259" lon="11.554765582882938"><ele>469.0</ele><time>2026-04-03T13:34:29.686Z</time></trkpt><trkpt lat="44.10730790044044" lon="11.554505404221223"><ele>464.0</ele><time>2026-04-03T13:34:30.686Z</time></trkpt><trkpt lat="44.10720984151984" lon="11.5542490857257"><ele>463.66666666666663</ele><time>2026-04-03T13:34:31.686Z</time></trkpt><trkpt lat="44.10713708631198" lon="11.554013540233695"><ele>463.33333333333337</ele><time>2026-04-03T13:34:32.685Z</time></trkpt><trkpt lat="44.10709475832914" lon="11.553799383014413"><ele>463.0</ele><time>2026-04-03T13:34:33.685Z</time></trkpt><trkpt lat="44.1070682347432" lon="11.553589380085763"><ele>462.25</ele><time>2026-04-03T13:34:34.685Z</time></trkpt><trkpt lat="44.10706294562628" lon="11.55340087640591"><ele>461.5</ele><time>2026-04-03T13:34:35.685Z</time></trkpt><trkpt lat="44.107089732514794" lon="11.553226989307817"><ele>460.75</ele><time>2026-04-03T13:34:36.685Z</time></trkpt><trkpt lat="44.10715476975793" lon="11.553042018838992"><ele>460.0</ele><time>2026-04-03T13:34:37.685Z</time></trkpt><trkpt lat="44.10724163097635" lon="11.552869851542198"><ele>460.0</ele><time>2026-04-03T13:34:38.685Z</time></trkpt><trkpt lat="44.107353442804936" lon="11.55272460921987"><ele>460.0</ele><time>2026-04-03T13:34:39.685Z</time></trkpt><trkpt lat="44.107492351442545" lon="11.5525800382899"><ele>460.0</ele><time>2026-04-03T13:34:40.685Z</time></trkpt><trkpt lat="44.10765463737689" lon="11.552421438715829"><ele>459.0</ele><time>2026-04-03T13:34:41.685Z</time></trkpt><trkpt lat="44.107824154033814" lon="11.552249342746048"><ele>458.0</ele><time>2026-04-03T13:34:42.685Z</time></trkpt><trkpt lat="44.107979802928035" lon="11.552085286866797"><ele>457.0</ele><time>2026-04-03T13:34:43.685Z</time></trkpt><trkpt lat="44.1081383807288" lon="11.551939077077664"><ele>456.0</ele><time>2026-04-03T13:34:44.685Z</time></trkpt><trkpt lat="44.108276069296366" lon="11.55183259580353"><ele>455.0</ele><time>2026-04-03T13:34:45.685Z</time></trkpt><trkpt lat="44.10841123841844" lon="11.551757801439493"><ele>454.0</ele><time>2026-04-03T13:34:46.685Z</time></trkpt><trkpt lat="44.10854984285839" lon="11.551738465881288"><ele>453.0</ele><time>2026-04-03T13:34:47.685Z</time></trkpt><trkpt lat="44.108696268110066" lon="11.551763299740898"><ele>453.0</ele><time>2026-04-03T13:34:48.685Z</time></trkpt><trkpt lat="44.108835801818344" lon="11.551767479536489"><ele>453.0</ele><time>2026-04-03T13:34:49.685Z</time></trkpt><trkpt lat="44.10896734209717" lon="11.551722254400008"><ele>453.0</ele><time>2026-04-03T13:34:50.685Z</time></trkpt><trkpt lat="44.10907064221134" lon="11.551617292767592"><ele>453.0</ele><time>2026-04-03T13:34:51.685Z</time></trkpt><trkpt lat="44.10915124920721" lon="11.55146284939289"><ele>451.25</ele><time>2026-04-03T13:34:52.685Z</time></trkpt><trkpt lat="44.109233558167276" lon="11.551314110380355"><ele>449.5</ele><time>2026-04-03T13:34:53.685Z</time></trkpt><trkpt lat="44.109355101202816" lon="11.55120689442867"><ele>447.75</ele><time>2026-04-03T13:34:54.685Z</time></trkpt><trkpt lat="44.10948490977755" lon="11.551157730369482"><ele>446.0</ele><time>2026-04-03T13:34:55.685Z</time></trkpt><trkpt lat="44.10965044297915" lon="11.55114882781664"><ele>446.0</ele><time>2026-04-03T13:34:56.685Z</time></trkpt><trkpt lat="44.10982099436242" lon="11.551127081382548"><ele>446.0</ele><time>2026-04-03T13:34:57.685Z</time></trkpt><trkpt lat="44.10998340149966" lon="11.551058188587024"><ele>446.0</ele><time>2026-04-03T13:34:58.685Z</time></trkpt><trkpt lat="44.11012813546472" lon="11.550926689595888"><ele>448.3333333333333</ele><time>2026-04-03T13:34:59.685Z</time></trkpt><trkpt lat="44.110253242104854" lon="11.550771621384184"><ele>450.66666666666663</ele><time>2026-04-03T13:35:00.685Z</time></trkpt><trkpt lat="44.110402634729724" lon="11.550648816574965"><ele>453.0</ele><time>2026-04-03T13:35:01.685Z</time></trkpt><trkpt lat="44.110562792716706" lon="11.550544959706558"><ele>453.0</ele><time>2026-04-03T13:35:02.685Z</time></trkpt><trkpt lat="44.11072058215896" lon="11.55046474662292"><ele>453.0</ele><time>2026-04-03T13:35:03.685Z</time></trkpt><trkpt lat="44.11088416956862" lon="11.550411822106017"><ele>453.0</ele><time>2026-04-03T13:35:04.685Z</time></trkpt><trkpt lat="44.111049277101415" lon="11.55037332752571"><ele>448.66666666666663</ele><time>2026-04-03T13:35:05.685Z</time></trkpt><trkpt lat="44.111206743726086" lon="11.550346685621653"><ele>444.3333333333333</ele><time>2026-04-03T13:35:06.685Z</time></trkpt><trkpt lat="44.111359485148455" lon="11.550324046631513"><ele>440.0</ele><time>2026-04-03T13:35:07.685Z</time></trkpt><trkpt lat="44.11150619048764" lon="11.55031157185324"><ele>439.25</ele><time>2026-04-03T13:35:08.685Z</time></trkpt><trkpt lat="44.11164610410712" lon="11.550294875353492"><ele>438.5</ele><time>2026-04-03T13:35:09.685Z</time></trkpt><trkpt lat="44.11179082649872" lon="11.550281419416024"><ele>437.75</ele><time>2026-04-03T13:35:10.685Z</time></trkpt><trkpt lat="44.11192871360938" lon="11.550266525625798"><ele>437.0</ele><time>2026-04-03T13:35:11.685Z</time></trkpt><trkpt lat="44.11205911666488" lon="11.550235860678843"><ele>437.0</ele><time>2026-04-03T13:35:12.685Z</time></trkpt><trkpt lat="44.11216930264529" lon="11.55019130847259"><ele>437.00000000000006</ele><time>2026-04-03T13:35:13.685Z</time></trkpt><trkpt lat="44.11226512691821" lon="11.55012094969904"><ele>437.00000000000006</ele><time>2026-04-03T13:35:14.685Z</time></trkpt><trkpt lat="44.112340735067846" lon="11.550044372311495"><ele>437.0</ele><time>2026-04-03T13:35:15.685Z</time></trkpt><trkpt lat="44.11239636981877" lon="11.549934602999036"><ele>437.0</ele><time>2026-04-03T13:35:16.685Z</time></trkpt><trkpt lat="44.11243429494957" lon="11.549798544627317"><ele>436.49999999999994</ele><time>2026-04-03T13:35:17.685Z</time></trkpt><trkpt lat="44.11245626727696" lon="11.549663744734621"><ele>436.0</ele><time>2026-04-03T13:35:18.685Z</time></trkpt><trkpt lat="44.11247652704692" lon="11.549539082738512"><ele>435.5</ele><time>2026-04-03T13:35:19.685Z</time></trkpt><trkpt lat="44.1124937668907" lon="11.54942405495462"><ele>435.0</ele><time>2026-04-03T13:35:20.685Z</time></trkpt><trkpt lat="44.11251048231347" lon="11.549309599928009"><ele>434.49999999999994</ele><time>2026-04-03T13:35:21.685Z</time></trkpt><trkpt lat="44.11252991751202" lon="11.549201836247091"><ele>434.0</ele><time>2026-04-03T13:35:22.685Z</time></trkpt><trkpt lat="44.11255254675208" lon="11.549110381323965"><ele>433.99999999999994</ele><time>2026-04-03T13:35:23.685Z</time></trkpt><trkpt lat="44.11258330423632" lon="11.548955831944179"><ele>434.0</ele><time>2026-04-03T13:35:25.685Z</time></trkpt><trkpt lat="44.112598211238385" lon="11.54883067473889"><ele>434.0</ele><time>2026-04-03T13:35:27.685Z</time></trkpt><trkpt lat="44.11261240955637" lon="11.548742235995997"><ele>434.0</ele><time>2026-04-03T13:35:29.685Z</time></trkpt><trkpt lat="44.11262766596942" lon="11.548629221881724"><ele>433.99999999999994</ele><time>2026-04-03T13:35:32.685Z</time></trkpt><trkpt lat="44.11263400224748" lon="11.548531933791832"><ele>434.0</ele><time>2026-04-03T13:35:35.685Z</time></trkpt><trkpt lat="44.112619022117194" lon="11.548441137695676"><ele>433.49999999999994</ele><time>2026-04-03T13:35:51.685Z</time></trkpt><trkpt lat="44.11262704862747" lon="11.548340400014588"><ele>433.0</ele><time>2026-04-03T13:35:55.685Z</time></trkpt><trkpt lat="44.11256085621997" lon="11.548342841566033"><ele>432.5</ele><time>2026-04-03T13:36:02.685Z</time></trkpt><trkpt lat="44.112474683117355" lon="11.548439195780594"><ele>432.0</ele><time>2026-04-03T13:36:39.683Z</time></trkpt><trkpt lat="44.112534977765065" lon="11.548390515129311"><ele>431.49999999999994</ele><time>2026-04-03T13:36:55.682Z</time></trkpt><trkpt lat="44.11248313654089" lon="11.548445963120653"><ele>431.0</ele><time>2026-04-03T13:37:45.682Z</time></trkpt><trkpt lat="44.11242739608321" lon="11.548383355587841"><ele>430.99999999999994</ele><time>2026-04-03T13:37:51.682Z</time></trkpt><trkpt lat="44.11235621795588" lon="11.548400005273642"><ele>431.0</ele><time>2026-04-03T13:37:53.682Z</time></trkpt><trkpt lat="44.112354085810445" lon="11.548297519515257"><ele>431.0</ele><time>2026-04-03T13:37:54.682Z</time></trkpt><trkpt lat="44.112397031520736" lon="11.548177474390037"><ele>431.0</ele><time>2026-04-03T13:37:55.682Z</time></trkpt><trkpt lat="44.112426287132195" lon="11.548081972810397"><ele>430.99999999999994</ele><time>2026-04-03T13:37:56.682Z</time></trkpt><trkpt lat="44.11246209687541" lon="11.547988194202995"><ele>431.0</ele><time>2026-04-03T13:37:57.682Z</time></trkpt><trkpt lat="44.11249678147484" lon="11.547902207700238"><ele>430.99999999999994</ele><time>2026-04-03T13:37:58.682Z</time></trkpt><trkpt lat="44.11255093152009" lon="11.547836971672886"><ele>431.0</ele><time>2026-04-03T13:37:59.682Z</time></trkpt><trkpt lat="44.11263732130618" lon="11.54780766228502"><ele>431.0</ele><time>2026-04-03T13:38:00.682Z</time></trkpt><trkpt lat="44.11272195084959" lon="11.547815764309831"><ele>431.0</ele><time>2026-04-03T13:38:01.682Z</time></trkpt><trkpt lat="44.11281025453105" lon="11.547844943882065"><ele>430.99999999999994</ele><time>2026-04-03T13:38:02.682Z</time></trkpt><trkpt lat="44.11290582586826" lon="11.547872309674274"><ele>431.0</ele><time>2026-04-03T13:38:03.682Z</time></trkpt><trkpt lat="44.11299919291452" lon="11.547908062310885"><ele>430.99999999999994</ele><time>2026-04-03T13:38:04.682Z</time></trkpt><trkpt lat="44.11308536103563" lon="11.547920350077625"><ele>431.0</ele><time>2026-04-03T13:38:05.682Z</time></trkpt><trkpt lat="44.11315962625847" lon="11.547940151115313"><ele>431.0</ele><time>2026-04-03T13:38:06.682Z</time></trkpt><trkpt lat="44.1132264263965" lon="11.547960384405533"><ele>431.0</ele><time>2026-04-03T13:38:07.682Z</time></trkpt><trkpt lat="44.113321687268794" lon="11.54801711446531"><ele>430.99999999999994</ele><time>2026-04-03T13:38:09.682Z</time></trkpt><trkpt lat="44.11341146571378" lon="11.548021033708217"><ele>431.0</ele><time>2026-04-03T13:38:11.682Z</time></trkpt><trkpt lat="44.113436424615244" lon="11.547907117743842"><ele>430.4</ele><time>2026-04-03T13:38:13.682Z</time></trkpt><trkpt lat="44.11342633773897" lon="11.547803801963896"><ele>429.8</ele><time>2026-04-03T13:38:14.682Z</time></trkpt><trkpt lat="44.11342488872265" lon="11.547693784921945"><ele>429.19999999999993</ele><time>2026-04-03T13:38:15.682Z</time></trkpt><trkpt lat="44.113435104733504" lon="11.547558692905447"><ele>428.59999999999997</ele><time>2026-04-03T13:38:16.682Z</time></trkpt><trkpt lat="44.113433534995934" lon="11.54742570199955"><ele>428.0</ele><time>2026-04-03T13:38:17.682Z</time></trkpt><trkpt lat="44.11344697169787" lon="11.547280706123884"><ele>428.0</ele><time>2026-04-03T13:38:18.682Z</time></trkpt><trkpt lat="44.113473762875394" lon="11.547149877330508"><ele>427.99999999999994</ele><time>2026-04-03T13:38:19.682Z</time></trkpt><trkpt lat="44.11350908445808" lon="11.547009521461664"><ele>427.99999999999994</ele><time>2026-04-03T13:38:20.682Z</time></trkpt><trkpt lat="44.113581074593235" lon="11.546894286520763"><ele>428.0</ele><time>2026-04-03T13:38:21.682Z</time></trkpt><trkpt lat="44.113664061858955" lon="11.546764685472791"><ele>428.0</ele><time>2026-04-03T13:38:22.682Z</time></trkpt><trkpt lat="44.11375795359219" lon="11.546643644193855"><ele>428.75</ele><time>2026-04-03T13:38:23.682Z</time></trkpt><trkpt lat="44.11385109355177" lon="11.546515995742075"><ele>429.5</ele><time>2026-04-03T13:38:24.679Z</time></trkpt><trkpt lat="44.11394594311112" lon="11.546396394717766"><ele>430.25</ele><time>2026-04-03T13:38:25.68Z</time></trkpt><trkpt lat="44.11403844217779" lon="11.546276642138352"><ele>431.0</ele><time>2026-04-03T13:38:26.68Z</time></trkpt><trkpt lat="44.11412542529274" lon="11.546161141043186"><ele>432.8</ele><time>2026-04-03T13:38:27.679Z</time></trkpt><trkpt lat="44.11417445091927" lon="11.546056757812414"><ele>434.6</ele><time>2026-04-03T13:38:28.68Z</time></trkpt><trkpt lat="44.11420981774638" lon="11.54594287455381"><ele>436.4</ele><time>2026-04-03T13:38:29.68Z</time></trkpt><trkpt lat="44.11423475893602" lon="11.545819257813456"><ele>438.2</ele><time>2026-04-03T13:38:30.68Z</time></trkpt><trkpt lat="44.114266129379274" lon="11.545668749831131"><ele>440.0</ele><time>2026-04-03T13:38:31.68Z</time></trkpt><trkpt lat="44.114291048081135" lon="11.545505381207171"><ele>439.25</ele><time>2026-04-03T13:38:32.68Z</time></trkpt><trkpt lat="44.114316985927225" lon="11.545330265394226"><ele>438.5</ele><time>2026-04-03T13:38:33.679Z</time></trkpt><trkpt lat="44.114347362724104" lon="11.545149065760121"><ele>437.75</ele><time>2026-04-03T13:38:34.679Z</time></trkpt><trkpt lat="44.114377138094326" lon="11.544961378799488"><ele>437.0</ele><time>2026-04-03T13:38:35.679Z</time></trkpt><trkpt lat="44.114401060188" lon="11.544769434328188"><ele>437.0</ele><time>2026-04-03T13:38:36.68Z</time></trkpt><trkpt lat="44.11442549501777" lon="11.544581873950786"><ele>437.0</ele><time>2026-04-03T13:38:37.679Z</time></trkpt><trkpt lat="44.11445979860314" lon="11.544393635172865"><ele>437.0</ele><time>2026-04-03T13:38:38.679Z</time></trkpt><trkpt lat="44.11450561322432" lon="11.54419973193707"><ele>437.0</ele><time>2026-04-03T13:38:39.679Z</time></trkpt><trkpt lat="44.11456901214559" lon="11.544013988979541"><ele>439.0</ele><time>2026-04-03T13:38:40.679Z</time></trkpt><trkpt lat="44.11464543473886" lon="11.543833850188392"><ele>441.0</ele><time>2026-04-03T13:38:41.679Z</time></trkpt><trkpt lat="44.11472745587027" lon="11.543650946643687"><ele>443.0</ele><time>2026-04-03T13:38:42.679Z</time></trkpt><trkpt lat="44.1148134961761" lon="11.54347203588857"><ele>444.0</ele><time>2026-04-03T13:38:43.679Z</time></trkpt><trkpt lat="44.11488951807399" lon="11.543286223350947"><ele>445.0</ele><time>2026-04-03T13:38:44.679Z</time></trkpt><trkpt lat="44.11495401113543" lon="11.54308934963814"><ele>446.0</ele><time>2026-04-03T13:38:45.679Z</time></trkpt><trkpt lat="44.11501086074758" lon="11.542882124641071"><ele>447.3333333333333</ele><time>2026-04-03T13:38:46.679Z</time></trkpt><trkpt lat="44.115061474320434" lon="11.542670030329752"><ele>448.66666666666663</ele><time>2026-04-03T13:38:47.679Z</time></trkpt><trkpt lat="44.11510071529808" lon="11.542455499813988"><ele>450.0</ele><time>2026-04-03T13:38:48.679Z</time></trkpt><trkpt lat="44.11513625828622" lon="11.542248296781962"><ele>450.0</ele><time>2026-04-03T13:38:49.679Z</time></trkpt><trkpt lat="44.11517958382502" lon="11.542062961227689"><ele>450.0</ele><time>2026-04-03T13:38:50.679Z</time></trkpt><trkpt lat="44.11523985677865" lon="11.541903418811621"><ele>450.0</ele><time>2026-04-03T13:38:51.679Z</time></trkpt><trkpt lat="44.11532922797747" lon="11.541764161537547"><ele>450.0</ele><time>2026-04-03T13:38:52.679Z</time></trkpt><trkpt lat="44.11544914972044" lon="11.541647031760105"><ele>450.75</ele><time>2026-04-03T13:38:53.679Z</time></trkpt><trkpt lat="44.11556603295596" lon="11.541526759404999"><ele>451.5</ele><time>2026-04-03T13:38:54.679Z</time></trkpt><trkpt lat="44.11564936228569" lon="11.54139111820376"><ele>452.25</ele><time>2026-04-03T13:38:55.679Z</time></trkpt><trkpt lat="44.115748759217524" lon="11.541240381404918"><ele>453.0</ele><time>2026-04-03T13:38:56.679Z</time></trkpt><trkpt lat="44.115835959650504" lon="11.541058240212426"><ele>455.66666666666663</ele><time>2026-04-03T13:38:57.679Z</time></trkpt><trkpt lat="44.11590069727969" lon="11.540846666889541"><ele>458.3333333333333</ele><time>2026-04-03T13:38:58.679Z</time></trkpt><trkpt lat="44.11595585243242" lon="11.54063477926286"><ele>461.0</ele><time>2026-04-03T13:38:59.679Z</time></trkpt><trkpt lat="44.1160117500441" lon="11.540422399282454"><ele>459.3333333333333</ele><time>2026-04-03T13:39:00.679Z</time></trkpt><trkpt lat="44.11607690969392" lon="11.540217471510758"><ele>457.66666666666663</ele><time>2026-04-03T13:39:01.679Z</time></trkpt><trkpt lat="44.116159902438575" lon="11.540023128560495"><ele>456.0</ele><time>2026-04-03T13:39:02.679Z</time></trkpt><trkpt lat="44.11625671290088" lon="11.53983545948116"><ele>456.0</ele><time>2026-04-03T13:39:03.679Z</time></trkpt><trkpt lat="44.11635971844572" lon="11.539633786297895"><ele>456.0</ele><time>2026-04-03T13:39:04.679Z</time></trkpt><trkpt lat="44.1164645128883" lon="11.539423700728868"><ele>456.0</ele><time>2026-04-03T13:39:05.679Z</time></trkpt><trkpt lat="44.11657664096349" lon="11.539209071072595"><ele>457.33333333333337</ele><time>2026-04-03T13:39:06.679Z</time></trkpt><trkpt lat="44.11669385206077" lon="11.53900091843536"><ele>458.6666666666667</ele><time>2026-04-03T13:39:07.679Z</time></trkpt><trkpt lat="44.11680069454548" lon="11.53878266041096"><ele>460.0</ele><time>2026-04-03T13:39:08.679Z</time></trkpt><trkpt lat="44.11688909646532" lon="11.53855202723967"><ele>460.0</ele><time>2026-04-03T13:39:09.679Z</time></trkpt><trkpt lat="44.11695832956345" lon="11.538308558482962"><ele>460.0</ele><time>2026-04-03T13:39:10.679Z</time></trkpt><trkpt lat="44.1170116412675" lon="11.538066665703631"><ele>460.0</ele><time>2026-04-03T13:39:11.679Z</time></trkpt><trkpt lat="44.117056854564034" lon="11.537823124117036"><ele>462.0</ele><time>2026-04-03T13:39:12.679Z</time></trkpt><trkpt lat="44.11710667266136" lon="11.537586633662682"><ele>464.0</ele><time>2026-04-03T13:39:13.679Z</time></trkpt><trkpt lat="44.117150980889186" lon="11.537345601953582"><ele>466.0</ele><time>2026-04-03T13:39:14.679Z</time></trkpt><trkpt lat="44.117196287477874" lon="11.5371052789174"><ele>465.0</ele><time>2026-04-03T13:39:15.679Z</time></trkpt><trkpt lat="44.11724235174503" lon="11.536873684630542"><ele>464.0</ele><time>2026-04-03T13:39:16.679Z</time></trkpt><trkpt lat="44.11727455942963" lon="11.536635350823355"><ele>463.0</ele><time>2026-04-03T13:39:17.679Z</time></trkpt><trkpt lat="44.117286756033316" lon="11.536386441798205"><ele>464.33333333333337</ele><time>2026-04-03T13:39:18.679Z</time></trkpt><trkpt lat="44.11727551967168" lon="11.536131650375001"><ele>465.66666666666663</ele><time>2026-04-03T13:39:19.679Z</time></trkpt><trkpt lat="44.11725210699966" lon="11.535876703998305"><ele>467.0</ele><time>2026-04-03T13:39:20.679Z</time></trkpt><trkpt lat="44.11722579604307" lon="11.535613343223542"><ele>469.0</ele><time>2026-04-03T13:39:21.679Z</time></trkpt><trkpt lat="44.11719272617555" lon="11.535355824123455"><ele>471.0</ele><time>2026-04-03T13:39:22.679Z</time></trkpt><trkpt lat="44.1171575185054" lon="11.535099916470543"><ele>473.0</ele><time>2026-04-03T13:39:23.679Z</time></trkpt><trkpt lat="44.11712496929179" lon="11.534846020394172"><ele>473.0</ele><time>2026-04-03T13:39:24.679Z</time></trkpt><trkpt lat="44.11709146419303" lon="11.534612844794436"><ele>473.0</ele><time>2026-04-03T13:39:25.679Z</time></trkpt><trkpt lat="44.11706032942809" lon="11.534395623141418"><ele>473.0</ele><time>2026-04-03T13:39:26.679Z</time></trkpt><trkpt lat="44.1170462181109" lon="11.534207922721137"><ele>473.75</ele><time>2026-04-03T13:39:27.679Z</time></trkpt><trkpt lat="44.11707010500356" lon="11.534033127247818"><ele>474.5</ele><time>2026-04-03T13:39:28.679Z</time></trkpt><trkpt lat="44.11712003988929" lon="11.533862320417898"><ele>475.25</ele><time>2026-04-03T13:39:29.679Z</time></trkpt><trkpt lat="44.11720232620087" lon="11.533716108963478"><ele>476.0</ele><time>2026-04-03T13:39:30.679Z</time></trkpt><trkpt lat="44.11730895228521" lon="11.533576967220839"><ele>479.66666666666663</ele><time>2026-04-03T13:39:31.679Z</time></trkpt><trkpt lat="44.117436943943204" lon="11.533429262606923"><ele>483.33333333333337</ele><time>2026-04-03T13:39:32.679Z</time></trkpt><trkpt lat="44.11758459085659" lon="11.533274413194874"><ele>487.0</ele><time>2026-04-03T13:39:33.679Z</time></trkpt><trkpt lat="44.11772929954642" lon="11.533111146066576"><ele>487.0</ele><time>2026-04-03T13:39:34.679Z</time></trkpt><trkpt lat="44.117889669134165" lon="11.532952639160342"><ele>487.0</ele><time>2026-04-03T13:39:35.679Z</time></trkpt><trkpt lat="44.11803706520505" lon="11.53279282081096"><ele>487.0</ele><time>2026-04-03T13:39:36.679Z</time></trkpt><trkpt lat="44.118184664048805" lon="11.532648584896133"><ele>491.0</ele><time>2026-04-03T13:39:37.679Z</time></trkpt><trkpt lat="44.11833138172773" lon="11.532498124998428"><ele>495.0</ele><time>2026-04-03T13:39:38.679Z</time></trkpt><trkpt lat="44.11847977242272" lon="11.532348852301846"><ele>499.0</ele><time>2026-04-03T13:39:39.679Z</time></trkpt><trkpt lat="44.11863175046799" lon="11.532204516042967"><ele>499.0</ele><time>2026-04-03T13:39:40.679Z</time></trkpt><trkpt lat="44.1187894531104" lon="11.532090558680528"><ele>499.0</ele><time>2026-04-03T13:39:41.679Z</time></trkpt><trkpt lat="44.118942420693564" lon="11.531989672256865"><ele>499.0</ele><time>2026-04-03T13:39:42.679Z</time></trkpt><trkpt lat="44.119085091791355" lon="11.531859073603043"><ele>500.33333333333337</ele><time>2026-04-03T13:39:43.679Z</time></trkpt><trkpt lat="44.11920191439108" lon="11.53168224327448"><ele>501.66666666666663</ele><time>2026-04-03T13:39:44.679Z</time></trkpt><trkpt lat="44.11930514023379" lon="11.531479232321061"><ele>503.0</ele><time>2026-04-03T13:39:45.679Z</time></trkpt><trkpt lat="44.119410003032854" lon="11.531254557800882"><ele>499.3333333333333</ele><time>2026-04-03T13:39:46.679Z</time></trkpt><trkpt lat="44.119525938198635" lon="11.531038236564912"><ele>495.66666666666663</ele><time>2026-04-03T13:39:47.679Z</time></trkpt><trkpt lat="44.11965916185149" lon="11.53083483055938"><ele>492.0</ele><time>2026-04-03T13:39:48.679Z</time></trkpt><trkpt lat="44.11979386256847" lon="11.530633059305062"><ele>498.66666666666663</ele><time>2026-04-03T13:39:49.679Z</time></trkpt><trkpt lat="44.119920334269054" lon="11.530421429928353"><ele>505.3333333333333</ele><time>2026-04-03T13:39:50.679Z</time></trkpt><trkpt lat="44.120029185906326" lon="11.530191865009462"><ele>512.0</ele><time>2026-04-03T13:39:51.679Z</time></trkpt><trkpt lat="44.12011146349871" lon="11.52994751322761"><ele>512.0</ele><time>2026-04-03T13:39:52.679Z</time></trkpt><trkpt lat="44.12018405480914" lon="11.52969880288329"><ele>512.0</ele><time>2026-04-03T13:39:53.679Z</time></trkpt><trkpt lat="44.12025360467866" lon="11.52945435793921"><ele>512.0</ele><time>2026-04-03T13:39:54.679Z</time></trkpt><trkpt lat="44.120322023272585" lon="11.529220128709428"><ele>510.66666666666663</ele><time>2026-04-03T13:39:55.679Z</time></trkpt><trkpt lat="44.12039128027738" lon="11.529002419627124"><ele>509.33333333333337</ele><time>2026-04-03T13:39:56.679Z</time></trkpt><trkpt lat="44.12047209557391" lon="11.528815758912872"><ele>508.0</ele><time>2026-04-03T13:39:57.679Z</time></trkpt><trkpt lat="44.120579020813054" lon="11.528651121381273"><ele>505.0</ele><time>2026-04-03T13:39:58.679Z</time></trkpt><trkpt lat="44.120702494954045" lon="11.52850236816584"><ele>502.0</ele><time>2026-04-03T13:39:59.679Z</time></trkpt><trkpt lat="44.1208316700826" lon="11.528370880324125"><ele>499.0</ele><time>2026-04-03T13:40:00.679Z</time></trkpt><trkpt lat="44.12095576974479" lon="11.528275344900774"><ele>505.0</ele><time>2026-04-03T13:40:01.679Z</time></trkpt><trkpt lat="44.121075242173056" lon="11.528222056176164"><ele>511.0</ele><time>2026-04-03T13:40:02.679Z</time></trkpt><trkpt lat="44.12118268370119" lon="11.528226568693645"><ele>517.0</ele><time>2026-04-03T13:40:03.679Z</time></trkpt><trkpt lat="44.121286364749764" lon="11.528286783610724"><ele>523.0</ele><time>2026-04-03T13:40:04.678Z</time></trkpt><trkpt lat="44.12136608456568" lon="11.528399923501642"><ele>523.0</ele><time>2026-04-03T13:40:05.678Z</time></trkpt><trkpt lat="44.1214238735158" lon="11.528553531501231"><ele>523.0</ele><time>2026-04-03T13:40:06.678Z</time></trkpt><trkpt lat="44.121485255113285" lon="11.528720575129608"><ele>523.0</ele><time>2026-04-03T13:40:07.678Z</time></trkpt><trkpt lat="44.12156497563441" lon="11.528889373270053"><ele>523.0</ele><time>2026-04-03T13:40:08.678Z</time></trkpt><trkpt lat="44.12167021734245" lon="11.529039800672487"><ele>530.3333333333334</ele><time>2026-04-03T13:40:09.678Z</time></trkpt><trkpt lat="44.12179827394912" lon="11.529159879660165"><ele>537.6666666666666</ele><time>2026-04-03T13:40:10.678Z</time></trkpt><trkpt lat="44.12194188691693" lon="11.529267640805589"><ele>545.0</ele><time>2026-04-03T13:40:11.678Z</time></trkpt><trkpt lat="44.12208919337651" lon="11.529374138851907"><ele>545.0</ele><time>2026-04-03T13:40:12.678Z</time></trkpt><trkpt lat="44.1222299057787" lon="11.529482754618982"><ele>545.0</ele><time>2026-04-03T13:40:13.678Z</time></trkpt><trkpt lat="44.122373275128545" lon="11.529591067795103"><ele>545.0</ele><time>2026-04-03T13:40:14.678Z</time></trkpt><trkpt lat="44.12251184335217" lon="11.529670398136346"><ele>547.5</ele><time>2026-04-03T13:40:15.678Z</time></trkpt><trkpt lat="44.12264304724646" lon="11.529731820318737"><ele>550.0</ele><time>2026-04-03T13:40:16.678Z</time></trkpt><trkpt lat="44.12275936824324" lon="11.52978011470358"><ele>552.5</ele><time>2026-04-03T13:40:17.678Z</time></trkpt><trkpt lat="44.12286063679833" lon="11.529776059736838"><ele>555.0</ele><time>2026-04-03T13:40:18.678Z</time></trkpt><trkpt lat="44.12295264102876" lon="11.529706026871315"><ele>555.0</ele><time>2026-04-03T13:40:19.678Z</time></trkpt><trkpt lat="44.1230275944103" lon="11.529587099522274"><ele>555.0</ele><time>2026-04-03T13:40:20.678Z</time></trkpt><trkpt lat="44.12307857855569" lon="11.529411261086354"><ele>555.0</ele><time>2026-04-03T13:40:21.678Z</time></trkpt><trkpt lat="44.123108766384405" lon="11.529230737910632"><ele>555.0</ele><time>2026-04-03T13:40:22.678Z</time></trkpt><trkpt lat="44.1231243498553" lon="11.529053190630819"><ele>551.75</ele><time>2026-04-03T13:40:23.678Z</time></trkpt><trkpt lat="44.1231148541125" lon="11.528888723433642"><ele>548.5</ele><time>2026-04-03T13:40:24.678Z</time></trkpt><trkpt lat="44.12307286188069" lon="11.528740886555534"><ele>545.25</ele><time>2026-04-03T13:40:25.678Z</time></trkpt><trkpt lat="44.122992859351854" lon="11.528630111810998"><ele>542.0</ele><time>2026-04-03T13:40:26.678Z</time></trkpt><trkpt lat="44.122876195366906" lon="11.528553695195885"><ele>542.0</ele><time>2026-04-03T13:40:27.678Z</time></trkpt><trkpt lat="44.1227457104429" lon="11.528495068972665"><ele>542.0</ele><time>2026-04-03T13:40:28.678Z</time></trkpt><trkpt lat="44.122625156089995" lon="11.528412234461141"><ele>542.0</ele><time>2026-04-03T13:40:29.678Z</time></trkpt><trkpt lat="44.122537911578505" lon="11.528314928975924"><ele>542.0</ele><time>2026-04-03T13:40:30.676Z</time></trkpt><trkpt lat="44.122494597924785" lon="11.5281874800459"><ele>542.0</ele><time>2026-04-03T13:40:31.676Z</time></trkpt><trkpt lat="44.12249731496151" lon="11.528031183870318"><ele>542.0</ele><time>2026-04-03T13:40:32.676Z</time></trkpt><trkpt lat="44.1225407459443" lon="11.527868754864333"><ele>542.0</ele><time>2026-04-03T13:40:33.676Z</time></trkpt><trkpt lat="44.122607930443465" lon="11.527704125133454"><ele>542.0</ele><time>2026-04-03T13:40:34.675Z</time></trkpt><trkpt lat="44.12269956713329" lon="11.527548779854994"><ele>541.3333333333333</ele><time>2026-04-03T13:40:35.675Z</time></trkpt><trkpt lat="44.12281698006059" lon="11.527405963104789"><ele>540.6666666666666</ele><time>2026-04-03T13:40:36.676Z</time></trkpt><trkpt lat="44.12293046883951" lon="11.527271903027195"><ele>540.0</ele><time>2026-04-03T13:40:37.675Z</time></trkpt><trkpt lat="44.12304518967511" lon="11.527130090814754"><ele>534.3333333333334</ele><time>2026-04-03T13:40:38.675Z</time></trkpt><trkpt lat="44.12315400259178" lon="11.526974527776298"><ele>528.6666666666667</ele><time>2026-04-03T13:40:39.675Z</time></trkpt><trkpt lat="44.12323660998492" lon="11.526792725624206"><ele>523.0</ele><time>2026-04-03T13:40:40.675Z</time></trkpt><trkpt lat="44.12328855262718" lon="11.526585457459777"><ele>528.75</ele><time>2026-04-03T13:40:41.675Z</time></trkpt><trkpt lat="44.123326267924774" lon="11.52637342318726"><ele>534.5</ele><time>2026-04-03T13:40:42.675Z</time></trkpt><trkpt lat="44.123375961945364" lon="11.526179797787142"><ele>540.25</ele><time>2026-04-03T13:40:43.675Z</time></trkpt><trkpt lat="44.123454897054884" lon="11.526042917238625"><ele>546.0</ele><time>2026-04-03T13:40:44.675Z</time></trkpt><trkpt lat="44.123557004111255" lon="11.525958945162715"><ele>546.0</ele><time>2026-04-03T13:40:45.675Z</time></trkpt><trkpt lat="44.123679785442654" lon="11.525911142366258"><ele>546.0</ele><time>2026-04-03T13:40:46.675Z</time></trkpt><trkpt lat="44.12382163231631" lon="11.525883205950924"><ele>546.0</ele><time>2026-04-03T13:40:47.675Z</time></trkpt><trkpt lat="44.123964611760805" lon="11.525842790584338"><ele>546.0</ele><time>2026-04-03T13:40:48.675Z</time></trkpt><trkpt lat="44.12408996199544" lon="11.525770516728096"><ele>549.75</ele><time>2026-04-03T13:40:49.675Z</time></trkpt><trkpt lat="44.124182288591285" lon="11.525647619479498"><ele>553.5</ele><time>2026-04-03T13:40:50.675Z</time></trkpt><trkpt lat="44.124231898273464" lon="11.525475808653054"><ele>557.25</ele><time>2026-04-03T13:40:51.675Z</time></trkpt><trkpt lat="44.124234542636806" lon="11.525309797241546"><ele>561.0</ele><time>2026-04-03T13:40:52.675Z</time></trkpt><trkpt lat="44.12419392370003" lon="11.525152968185742"><ele>561.0</ele><time>2026-04-03T13:40:53.675Z</time></trkpt><trkpt lat="44.1241302919961" lon="11.525012107039013"><ele>561.0</ele><time>2026-04-03T13:40:54.675Z</time></trkpt><trkpt lat="44.124102105878215" lon="11.524873961698994"><ele>561.0</ele><time>2026-04-03T13:40:55.675Z</time></trkpt><trkpt lat="44.12412181232331" lon="11.524721746190096"><ele>561.0</ele><time>2026-04-03T13:40:56.675Z</time></trkpt><trkpt lat="44.12418221875418" lon="11.524559541927884"><ele>559.3333333333334</ele><time>2026-04-03T13:40:57.675Z</time></trkpt><trkpt lat="44.124272426925664" lon="11.524399342996482"><ele>557.6666666666667</ele><time>2026-04-03T13:40:58.675Z</time></trkpt><trkpt lat="44.12435962626602" lon="11.524225300499912"><ele>556.0</ele><time>2026-04-03T13:40:59.675Z</time></trkpt><trkpt lat="44.12442694299555" lon="11.524024997659868"><ele>556.0</ele><time>2026-04-03T13:41:00.675Z</time></trkpt><trkpt lat="44.12447889614299" lon="11.523806789561784"><ele>556.0</ele><time>2026-04-03T13:41:01.675Z</time></trkpt><trkpt lat="44.12451807348325" lon="11.523583702328773"><ele>556.0</ele><time>2026-04-03T13:41:02.675Z</time></trkpt><trkpt lat="44.124552369844565" lon="11.52337159344923"><ele>553.25</ele><time>2026-04-03T13:41:03.675Z</time></trkpt><trkpt lat="44.1245995862472" lon="11.52318661113936"><ele>550.5</ele><time>2026-04-03T13:41:04.675Z</time></trkpt><trkpt lat="44.12469252242123" lon="11.523038737213382"><ele>547.75</ele><time>2026-04-03T13:41:05.675Z</time></trkpt><trkpt lat="44.124811876609904" lon="11.522904341227948"><ele>545.0</ele><time>2026-04-03T13:41:06.675Z</time></trkpt><trkpt lat="44.124930657598924" lon="11.522749392390283"><ele>553.0</ele><time>2026-04-03T13:41:07.675Z</time></trkpt><trkpt lat="44.12504147388264" lon="11.522568753307413"><ele>561.0</ele><time>2026-04-03T13:41:08.675Z</time></trkpt><trkpt lat="44.125149191770525" lon="11.522379978984283"><ele>569.0</ele><time>2026-04-03T13:41:09.675Z</time></trkpt><trkpt lat="44.12525377057422" lon="11.52219486302389"><ele>562.6666666666666</ele><time>2026-04-03T13:41:10.675Z</time></trkpt><trkpt lat="44.1253572708273" lon="11.522026233561007"><ele>556.3333333333334</ele><time>2026-04-03T13:41:11.675Z</time></trkpt><trkpt lat="44.12547708598365" lon="11.521874413738226"><ele>550.0</ele><time>2026-04-03T13:41:12.675Z</time></trkpt><trkpt lat="44.12560854731403" lon="11.521749888547847"><ele>561.6666666666667</ele><time>2026-04-03T13:41:13.675Z</time></trkpt><trkpt lat="44.12574877878665" lon="11.521627360107658"><ele>573.3333333333334</ele><time>2026-04-03T13:41:14.675Z</time></trkpt><trkpt lat="44.125862735503645" lon="11.521473011797186"><ele>585.0</ele><time>2026-04-03T13:41:15.675Z</time></trkpt><trkpt lat="44.12595118354562" lon="11.521295956470613"><ele>581.75</ele><time>2026-04-03T13:41:16.675Z</time></trkpt><trkpt lat="44.12600925638337" lon="11.521109558146797"><ele>578.5</ele><time>2026-04-03T13:41:17.675Z</time></trkpt><trkpt lat="44.12602810363891" lon="11.520902563901767"><ele>575.25</ele><time>2026-04-03T13:41:18.675Z</time></trkpt><trkpt lat="44.12603811048874" lon="11.520689933437867"><ele>572.0</ele><time>2026-04-03T13:41:19.675Z</time></trkpt><trkpt lat="44.12606429416967" lon="11.520479005020677"><ele>569.3333333333333</ele><time>2026-04-03T13:41:20.675Z</time></trkpt><trkpt lat="44.12611845877294" lon="11.52027475692335"><ele>566.6666666666666</ele><time>2026-04-03T13:41:21.675Z</time></trkpt><trkpt lat="44.12619860151435" lon="11.520067946229775"><ele>564.0</ele><time>2026-04-03T13:41:22.675Z</time></trkpt><trkpt lat="44.126292926648134" lon="11.519855404377347"><ele>564.0</ele><time>2026-04-03T13:41:23.675Z</time></trkpt><trkpt lat="44.126399337701194" lon="11.519655955087053"><ele>564.0</ele><time>2026-04-03T13:41:24.675Z</time></trkpt><trkpt lat="44.12651128243945" lon="11.519487073413265"><ele>564.0</ele><time>2026-04-03T13:41:25.675Z</time></trkpt><trkpt lat="44.12660554972038" lon="11.519356510875149"><ele>566.0</ele><time>2026-04-03T13:41:26.675Z</time></trkpt><trkpt lat="44.12670730838955" lon="11.519266691893176"><ele>568.0</ele><time>2026-04-03T13:41:27.675Z</time></trkpt><trkpt lat="44.126812675279226" lon="11.51921458538236"><ele>570.0</ele><time>2026-04-03T13:41:28.675Z</time></trkpt><trkpt lat="44.126944622321695" lon="11.519216444755422"><ele>572.0</ele><time>2026-04-03T13:41:29.675Z</time></trkpt><trkpt lat="44.12708069854877" lon="11.519228761518054"><ele>572.0</ele><time>2026-04-03T13:41:30.675Z</time></trkpt><trkpt lat="44.127223820850666" lon="11.51918594019765"><ele>572.0</ele><time>2026-04-03T13:41:31.675Z</time></trkpt><trkpt lat="44.12737116075215" lon="11.51911599415487"><ele>572.0</ele><time>2026-04-03T13:41:32.675Z</time></trkpt><trkpt lat="44.127507946559405" lon="11.519051243563831"><ele>572.0</ele><time>2026-04-03T13:41:33.675Z</time></trkpt><trkpt lat="44.127646224777564" lon="11.519011217662923"><ele>575.0</ele><time>2026-04-03T13:41:34.675Z</time></trkpt><trkpt lat="44.12778182293925" lon="11.519000336323789"><ele>578.0</ele><time>2026-04-03T13:41:35.675Z</time></trkpt><trkpt lat="44.12789676134584" lon="11.519029861358451"><ele>581.0</ele><time>2026-04-03T13:41:36.675Z</time></trkpt><trkpt lat="44.12799474596659" lon="11.519104110591183"><ele>584.0</ele><time>2026-04-03T13:41:37.675Z</time></trkpt><trkpt lat="44.12808867720112" lon="11.519189687906346"><ele>584.0</ele><time>2026-04-03T13:41:38.675Z</time></trkpt><trkpt lat="44.1281836724414" lon="11.519247276999097"><ele>584.0</ele><time>2026-04-03T13:41:39.675Z</time></trkpt><trkpt lat="44.12827677076034" lon="11.519269254546426"><ele>584.0</ele><time>2026-04-03T13:41:40.675Z</time></trkpt><trkpt lat="44.12836657120502" lon="11.519271051049639"><ele>584.0</ele><time>2026-04-03T13:41:41.675Z</time></trkpt><trkpt lat="44.1284600014915" lon="11.519261627119775"><ele>584.0</ele><time>2026-04-03T13:41:42.675Z</time></trkpt><trkpt lat="44.12854922884722" lon="11.519243939730575"><ele>584.1666666666666</ele><time>2026-04-03T13:41:43.675Z</time></trkpt><trkpt lat="44.128632547133286" lon="11.519227345639774"><ele>584.3333333333333</ele><time>2026-04-03T13:41:44.675Z</time></trkpt><trkpt lat="44.12871199463548" lon="11.519199282463498"><ele>584.5</ele><time>2026-04-03T13:41:45.675Z</time></trkpt><trkpt lat="44.128790615765816" lon="11.519158468122074"><ele>584.6666666666666</ele><time>2026-04-03T13:41:46.675Z</time></trkpt><trkpt lat="44.128866382161654" lon="11.519090547404987"><ele>584.8333333333334</ele><time>2026-04-03T13:41:47.675Z</time></trkpt><trkpt lat="44.12893063969745" lon="11.51901408245724"><ele>585.0</ele><time>2026-04-03T13:41:48.675Z</time></trkpt><trkpt lat="44.128989903333014" lon="11.518946546147237"><ele>585.0</ele><time>2026-04-03T13:41:49.675Z</time></trkpt><trkpt lat="44.12904494466073" lon="11.518891512097605"><ele>585.0</ele><time>2026-04-03T13:41:50.675Z</time></trkpt><trkpt lat="44.12915388220855" lon="11.518818386493393"><ele>585.0</ele><time>2026-04-03T13:41:52.675Z</time></trkpt><trkpt lat="44.12923778367042" lon="11.518809220716248"><ele>585.0</ele><time>2026-04-03T13:41:54.675Z</time></trkpt><trkpt lat="44.1293189807588" lon="11.518851184881107"><ele>585.0</ele><time>2026-04-03T13:41:56.675Z</time></trkpt><trkpt lat="44.12944833823188" lon="11.518899796690823"><ele>585.0</ele><time>2026-04-03T13:41:58.675Z</time></trkpt><trkpt lat="44.12952732436804" lon="11.518883537343068"><ele>585.0</ele><time>2026-04-03T13:41:59.675Z</time></trkpt><trkpt lat="44.12959132133781" lon="11.518824158904371"><ele>585.0</ele><time>2026-04-03T13:42:00.675Z</time></trkpt><trkpt lat="44.12963742865048" lon="11.518710982886162"><ele>585.0</ele><time>2026-04-03T13:42:01.675Z</time></trkpt><trkpt lat="44.129663017597615" lon="11.518551742649064"><ele>585.0</ele><time>2026-04-03T13:42:02.675Z</time></trkpt><trkpt lat="44.12968832194446" lon="11.518406226683487"><ele>585.0</ele><time>2026-04-03T13:42:03.675Z</time></trkpt><trkpt lat="44.129719800248886" lon="11.518277043710162"><ele>585.0</ele><time>2026-04-03T13:42:04.675Z</time></trkpt><trkpt lat="44.12972486198911" lon="11.518159860770904"><ele>585.0</ele><time>2026-04-03T13:42:05.675Z</time></trkpt><trkpt lat="44.12969299782261" lon="11.518059384179141"><ele>585.0</ele><time>2026-04-03T13:42:06.675Z</time></trkpt><trkpt lat="44.129623313208256" lon="11.518002131001431"><ele>585.0</ele><time>2026-04-03T13:42:07.675Z</time></trkpt><trkpt lat="44.12951090666467" lon="11.517975872655825"><ele>585.0</ele><time>2026-04-03T13:42:08.675Z</time></trkpt><trkpt lat="44.12939245306465" lon="11.517963603092925"><ele>585.0</ele><time>2026-04-03T13:42:09.675Z</time></trkpt><trkpt lat="44.12926964755079" lon="11.517934135349405"><ele>585.0</ele><time>2026-04-03T13:42:10.675Z</time></trkpt><trkpt lat="44.129135672448285" lon="11.517875479193435"><ele>585.0</ele><time>2026-04-03T13:42:11.675Z</time></trkpt><trkpt lat="44.12900912527037" lon="11.51781485124809"><ele>582.8</ele><time>2026-04-03T13:42:12.675Z</time></trkpt><trkpt lat="44.12888978332043" lon="11.51774602970284"><ele>580.6</ele><time>2026-04-03T13:42:13.675Z</time></trkpt><trkpt lat="44.12879123929345" lon="11.517664464878095"><ele>578.4</ele><time>2026-04-03T13:42:14.675Z</time></trkpt><trkpt lat="44.12871853711655" lon="11.517575287854822"><ele>576.2</ele><time>2026-04-03T13:42:15.675Z</time></trkpt><trkpt lat="44.12868476089269" lon="11.517477383816683"><ele>574.0</ele><time>2026-04-03T13:42:16.675Z</time></trkpt><trkpt lat="44.12870000132908" lon="11.517364016434733"><ele>574.0</ele><time>2026-04-03T13:42:17.675Z</time></trkpt><trkpt lat="44.12876059801317" lon="11.517260655251864"><ele>574.0</ele><time>2026-04-03T13:42:18.675Z</time></trkpt><trkpt lat="44.12884270702915" lon="11.517156523442917"><ele>574.0</ele><time>2026-04-03T13:42:19.675Z</time></trkpt><trkpt lat="44.12893864841262" lon="11.51701934143684"><ele>574.0</ele><time>2026-04-03T13:42:20.675Z</time></trkpt><trkpt lat="44.129021539298435" lon="11.516880483534395"><ele>582.25</ele><time>2026-04-03T13:42:21.675Z</time></trkpt><trkpt lat="44.129097690994044" lon="11.516731456983049"><ele>590.5</ele><time>2026-04-03T13:42:22.675Z</time></trkpt><trkpt lat="44.12915649412887" lon="11.516574736465405"><ele>598.75</ele><time>2026-04-03T13:42:23.675Z</time></trkpt><trkpt lat="44.12919087611142" lon="11.51640561713994"><ele>607.0</ele><time>2026-04-03T13:42:24.675Z</time></trkpt><trkpt lat="44.12920175288446" lon="11.51622686530239"><ele>607.0</ele><time>2026-04-03T13:42:25.675Z</time></trkpt><trkpt lat="44.12919648171185" lon="11.516037613385826"><ele>607.0</ele><time>2026-04-03T13:42:26.675Z</time></trkpt><trkpt lat="44.129191131986225" lon="11.515863451164805"><ele>607.0</ele><time>2026-04-03T13:42:27.675Z</time></trkpt><trkpt lat="44.12920195237035" lon="11.515702159535364"><ele>607.0</ele><time>2026-04-03T13:42:28.675Z</time></trkpt><trkpt lat="44.12924157827889" lon="11.515549457087653"><ele>607.5</ele><time>2026-04-03T13:42:29.675Z</time></trkpt><trkpt lat="44.12930375256335" lon="11.515400810305168"><ele>608.0</ele><time>2026-04-03T13:42:30.675Z</time></trkpt><trkpt lat="44.1293729279882" lon="11.515247734142282"><ele>608.5</ele><time>2026-04-03T13:42:31.675Z</time></trkpt><trkpt lat="44.12944492352417" lon="11.515092130969705"><ele>609.0</ele><time>2026-04-03T13:42:32.675Z</time></trkpt><trkpt lat="44.12949183758319" lon="11.514925735413769"><ele>609.0</ele><time>2026-04-03T13:42:33.675Z</time></trkpt><trkpt lat="44.129500973238756" lon="11.514759775204611"><ele>609.0</ele><time>2026-04-03T13:42:34.675Z</time></trkpt><trkpt lat="44.129480811104834" lon="11.514610508583068"><ele>609.0</ele><time>2026-04-03T13:42:35.675Z</time></trkpt><trkpt lat="44.129411497408874" lon="11.514487603892638"><ele>609.0</ele><time>2026-04-03T13:42:36.672Z</time></trkpt><trkpt lat="44.12929425207218" lon="11.514406305983922"><ele>606.5</ele><time>2026-04-03T13:42:37.672Z</time></trkpt><trkpt lat="44.12916330141911" lon="11.514364239064108"><ele>604.0</ele><time>2026-04-03T13:42:38.672Z</time></trkpt><trkpt lat="44.12902985819064" lon="11.514327424467039"><ele>601.5</ele><time>2026-04-03T13:42:39.672Z</time></trkpt><trkpt lat="44.12891846086441" lon="11.514283764427349"><ele>599.0</ele><time>2026-04-03T13:42:40.672Z</time></trkpt><trkpt lat="44.12883249648856" lon="11.51422478490198"><ele>599.0</ele><time>2026-04-03T13:42:41.672Z</time></trkpt><trkpt lat="44.12877624022585" lon="11.514130079108552"><ele>599.0</ele><time>2026-04-03T13:42:42.672Z</time></trkpt><trkpt lat="44.1287699989416" lon="11.514013993999088"><ele>599.0</ele><time>2026-04-03T13:42:43.672Z</time></trkpt><trkpt lat="44.12880549563606" lon="11.513890973655661"><ele>599.0</ele><time>2026-04-03T13:42:44.672Z</time></trkpt><trkpt lat="44.12883824888622" lon="11.513748509118862"><ele>599.0</ele><time>2026-04-03T13:42:45.672Z</time></trkpt><trkpt lat="44.12881617876534" lon="11.51360574412393"><ele>599.6</ele><time>2026-04-03T13:42:46.672Z</time></trkpt><trkpt lat="44.12876431925313" lon="11.51346244309443"><ele>600.2</ele><time>2026-04-03T13:42:47.672Z</time></trkpt><trkpt lat="44.12874108711989" lon="11.51332846524738"><ele>600.8000000000001</ele><time>2026-04-03T13:42:48.672Z</time></trkpt><trkpt lat="44.12876020044496" lon="11.513182519559436"><ele>601.4</ele><time>2026-04-03T13:42:49.671Z</time></trkpt><trkpt lat="44.12881692986311" lon="11.513022361517526"><ele>602.0</ele><time>2026-04-03T13:42:50.671Z</time></trkpt><trkpt lat="44.128896780302334" lon="11.51287593259653"><ele>600.5</ele><time>2026-04-03T13:42:51.671Z</time></trkpt><trkpt lat="44.12899257446658" lon="11.512744886503166"><ele>599.0</ele><time>2026-04-03T13:42:52.671Z</time></trkpt><trkpt lat="44.129103774912956" lon="11.512638053798716"><ele>597.5</ele><time>2026-04-03T13:42:53.671Z</time></trkpt><trkpt lat="44.12923037012266" lon="11.512551061623764"><ele>596.0</ele><time>2026-04-03T13:42:54.671Z</time></trkpt><trkpt lat="44.12937166060758" lon="11.512485166227556"><ele>603.0</ele><time>2026-04-03T13:42:55.671Z</time></trkpt><trkpt lat="44.12950914103539" lon="11.512442352290373"><ele>610.0</ele><time>2026-04-03T13:42:56.671Z</time></trkpt><trkpt lat="44.12964158895014" lon="11.512384622394778"><ele>617.0</ele><time>2026-04-03T13:42:57.671Z</time></trkpt><trkpt lat="44.1297678541075" lon="11.512297545740148"><ele>624.0</ele><time>2026-04-03T13:42:58.671Z</time></trkpt><trkpt lat="44.12988618087972" lon="11.512194394647269"><ele>627.0</ele><time>2026-04-03T13:42:59.671Z</time></trkpt><trkpt lat="44.1300046828029" lon="11.512065904913834"><ele>630.0</ele><time>2026-04-03T13:43:00.671Z</time></trkpt><trkpt lat="44.130124941268726" lon="11.511922645511195"><ele>633.0</ele><time>2026-04-03T13:43:01.671Z</time></trkpt><trkpt lat="44.13024357211226" lon="11.511777959208727"><ele>633.0</ele><time>2026-04-03T13:43:02.671Z</time></trkpt><trkpt lat="44.130357413900725" lon="11.51162330548397"><ele>633.0</ele><time>2026-04-03T13:43:03.671Z</time></trkpt><trkpt lat="44.13046200338045" lon="11.511447230270944"><ele>633.0</ele><time>2026-04-03T13:43:04.671Z</time></trkpt><trkpt lat="44.13055282223087" lon="11.51125306812096"><ele>628.3333333333334</ele><time>2026-04-03T13:43:05.671Z</time></trkpt><trkpt lat="44.13064454746246" lon="11.511058706327193"><ele>623.6666666666667</ele><time>2026-04-03T13:43:06.671Z</time></trkpt><trkpt lat="44.13074856830432" lon="11.510873775839274"><ele>619.0</ele><time>2026-04-03T13:43:07.671Z</time></trkpt><trkpt lat="44.13085049432856" lon="11.510697330296232"><ele>623.0</ele><time>2026-04-03T13:43:08.671Z</time></trkpt><trkpt lat="44.13093867127412" lon="11.510538933421698"><ele>627.0</ele><time>2026-04-03T13:43:09.671Z</time></trkpt><trkpt lat="44.131019755035055" lon="11.510406267151922"><ele>631.0</ele><time>2026-04-03T13:43:10.671Z</time></trkpt><trkpt lat="44.131104327789515" lon="11.510308472067052"><ele>635.0</ele><time>2026-04-03T13:43:11.671Z</time></trkpt><trkpt lat="44.13119708463535" lon="11.510244338978477"><ele>635.0</ele><time>2026-04-03T13:43:12.671Z</time></trkpt><trkpt lat="44.13131065715514" lon="11.51021427046395"><ele>635.0</ele><time>2026-04-03T13:43:13.671Z</time></trkpt><trkpt lat="44.13143036100028" lon="11.510214791347586"><ele>635.0</ele><time>2026-04-03T13:43:14.671Z</time></trkpt><trkpt lat="44.131553788917266" lon="11.510193591348793"><ele>635.0</ele><time>2026-04-03T13:43:15.671Z</time></trkpt><trkpt lat="44.13168040986186" lon="11.510118738364987"><ele>641.0</ele><time>2026-04-03T13:43:16.671Z</time></trkpt><trkpt lat="44.13178492588846" lon="11.509977780721243"><ele>647.0</ele><time>2026-04-03T13:43:17.671Z</time></trkpt><trkpt lat="44.13187439894977" lon="11.509825577033777"><ele>653.0</ele><time>2026-04-03T13:43:18.671Z</time></trkpt><trkpt lat="44.13195061443884" lon="11.509691594663275"><ele>659.0</ele><time>2026-04-03T13:43:19.671Z</time></trkpt><trkpt lat="44.13204943851653" lon="11.50962589311122"><ele>659.0</ele><time>2026-04-03T13:43:20.671Z</time></trkpt><trkpt lat="44.132172322139034" lon="11.509596386278103"><ele>659.0</ele><time>2026-04-03T13:43:21.671Z</time></trkpt><trkpt lat="44.13228748930818" lon="11.509596645812572"><ele>659.0</ele><time>2026-04-03T13:43:22.671Z</time></trkpt><trkpt lat="44.1323985295115" lon="11.509622867542843"><ele>659.0</ele><time>2026-04-03T13:43:23.671Z</time></trkpt><trkpt lat="44.13250154960032" lon="11.509692890434646"><ele>662.75</ele><time>2026-04-03T13:43:24.671Z</time></trkpt><trkpt lat="44.13260126953181" lon="11.509795813739157"><ele>666.5</ele><time>2026-04-03T13:43:25.671Z</time></trkpt><trkpt lat="44.13270689075076" lon="11.509885057952916"><ele>670.25</ele><time>2026-04-03T13:43:26.671Z</time></trkpt><trkpt lat="44.132821069002915" lon="11.50997668522335"><ele>674.0</ele><time>2026-04-03T13:43:27.671Z</time></trkpt><trkpt lat="44.13292161097301" lon="11.510091551154586"><ele>674.0</ele><time>2026-04-03T13:43:28.671Z</time></trkpt><trkpt lat="44.132990678897485" lon="11.510238356124967"><ele>674.0</ele><time>2026-04-03T13:43:29.671Z</time></trkpt><trkpt lat="44.133059574030746" lon="11.510384156441985"><ele>674.0</ele><time>2026-04-03T13:43:30.671Z</time></trkpt><trkpt lat="44.13315747300644" lon="11.510507040249074"><ele>674.0</ele><time>2026-04-03T13:43:31.671Z</time></trkpt><trkpt lat="44.13327476909368" lon="11.510587845361382"><ele>678.25</ele><time>2026-04-03T13:43:32.671Z</time></trkpt><trkpt lat="44.1334099768165" lon="11.51066000399761"><ele>682.5</ele><time>2026-04-03T13:43:33.671Z</time></trkpt><trkpt lat="44.133537070766224" lon="11.510759905186418"><ele>686.75</ele><time>2026-04-03T13:43:34.671Z</time></trkpt><trkpt lat="44.133665388049806" lon="11.510874330257556"><ele>691.0</ele><time>2026-04-03T13:43:35.671Z</time></trkpt><trkpt lat="44.133774168208404" lon="11.510980289791698"><ele>691.0</ele><time>2026-04-03T13:43:36.671Z</time></trkpt><trkpt lat="44.13388818354855" lon="11.511052410578786"><ele>691.0</ele><time>2026-04-03T13:43:37.671Z</time></trkpt><trkpt lat="44.133999995387704" lon="11.511064648993615"><ele>691.0</ele><time>2026-04-03T13:43:38.671Z</time></trkpt><trkpt lat="44.13412166266388" lon="11.511009076135739"><ele>691.0</ele><time>2026-04-03T13:43:39.671Z</time></trkpt><trkpt lat="44.134232840585504" lon="11.510896544825092"><ele>689.6666666666667</ele><time>2026-04-03T13:43:40.671Z</time></trkpt><trkpt lat="44.13434743764521" lon="11.51077231715581"><ele>688.3333333333334</ele><time>2026-04-03T13:43:41.671Z</time></trkpt><trkpt lat="44.134458217204944" lon="11.510628174994485"><ele>687.0</ele><time>2026-04-03T13:43:42.671Z</time></trkpt><trkpt lat="44.13455216028018" lon="11.510449713983832"><ele>687.0</ele><time>2026-04-03T13:43:43.671Z</time></trkpt><trkpt lat="44.13464032506011" lon="11.51028288543977"><ele>687.0</ele><time>2026-04-03T13:43:44.671Z</time></trkpt><trkpt lat="44.134738650442735" lon="11.5101431237592"><ele>687.0</ele><time>2026-04-03T13:43:45.671Z</time></trkpt><trkpt lat="44.134850426628894" lon="11.510029914109277"><ele>687.0</ele><time>2026-04-03T13:43:46.671Z</time></trkpt><trkpt lat="44.13498338447744" lon="11.509947974913315"><ele>687.0</ele><time>2026-04-03T13:43:47.671Z</time></trkpt><trkpt lat="44.135121026716625" lon="11.509858113777364"><ele>687.0</ele><time>2026-04-03T13:43:48.671Z</time></trkpt><trkpt lat="44.1352471883316" lon="11.509765156886603"><ele>687.0</ele><time>2026-04-03T13:43:49.671Z</time></trkpt><trkpt lat="44.13536045147766" lon="11.509694990632223"><ele>687.0</ele><time>2026-04-03T13:43:50.671Z</time></trkpt><trkpt lat="44.13546021504806" lon="11.50964873570367"><ele>687.0</ele><time>2026-04-03T13:43:51.671Z</time></trkpt><trkpt lat="44.13555939403374" lon="11.50964275413724"><ele>687.0</ele><time>2026-04-03T13:43:52.671Z</time></trkpt><trkpt lat="44.13566335995172" lon="11.509683950006524"><ele>687.0</ele><time>2026-04-03T13:43:53.671Z</time></trkpt><trkpt lat="44.135775056915364" lon="11.509731569477202"><ele>687.0</ele><time>2026-04-03T13:43:54.671Z</time></trkpt><trkpt lat="44.13588054547143" lon="11.509803358306312"><ele>687.0</ele><time>2026-04-03T13:43:55.671Z</time></trkpt><trkpt lat="44.13596875488174" lon="11.509885012031567"><ele>689.75</ele><time>2026-04-03T13:43:56.671Z</time></trkpt><trkpt lat="44.13604218681415" lon="11.510006912582524"><ele>692.5</ele><time>2026-04-03T13:43:57.671Z</time></trkpt><trkpt lat="44.13610055769382" lon="11.510158962046685"><ele>695.25</ele><time>2026-04-03T13:43:58.671Z</time></trkpt><trkpt lat="44.1361794635499" lon="11.510314098947934"><ele>698.0</ele><time>2026-04-03T13:43:59.671Z</time></trkpt><trkpt lat="44.13627583236744" lon="11.510458080756925"><ele>700.6666666666666</ele><time>2026-04-03T13:44:00.671Z</time></trkpt><trkpt lat="44.13638773678367" lon="11.510608139396348"><ele>703.3333333333334</ele><time>2026-04-03T13:44:01.671Z</time></trkpt><trkpt lat="44.13651251235501" lon="11.510762498228761"><ele>706.0</ele><time>2026-04-03T13:44:02.671Z</time></trkpt><trkpt lat="44.136642989133065" lon="11.510913759893295"><ele>706.0</ele><time>2026-04-03T13:44:03.671Z</time></trkpt><trkpt lat="44.136754596040205" lon="11.511051352368485"><ele>706.0</ele><time>2026-04-03T13:44:04.671Z</time></trkpt><trkpt lat="44.13686429274631" lon="11.511186213835556"><ele>706.0</ele><time>2026-04-03T13:44:05.671Z</time></trkpt><trkpt lat="44.13696746600406" lon="11.511341912559597"><ele>706.0</ele><time>2026-04-03T13:44:06.671Z</time></trkpt><trkpt lat="44.13706052090238" lon="11.51152703340339"><ele>712.3333333333334</ele><time>2026-04-03T13:44:07.671Z</time></trkpt><trkpt lat="44.13714900013722" lon="11.511721659921205"><ele>718.6666666666666</ele><time>2026-04-03T13:44:08.671Z</time></trkpt><trkpt lat="44.137233069486754" lon="11.51192760330171"><ele>725.0</ele><time>2026-04-03T13:44:09.671Z</time></trkpt><trkpt lat="44.13730729591952" lon="11.512147180242456"><ele>722.3333333333333</ele><time>2026-04-03T13:44:10.671Z</time></trkpt><trkpt lat="44.137380131717755" lon="11.512369360588965"><ele>719.6666666666666</ele><time>2026-04-03T13:44:11.671Z</time></trkpt><trkpt lat="44.13744566644212" lon="11.512564147359809"><ele>717.0</ele><time>2026-04-03T13:44:12.671Z</time></trkpt><trkpt lat="44.13750507091621" lon="11.512748983487555"><ele>722.5</ele><time>2026-04-03T13:44:13.671Z</time></trkpt><trkpt lat="44.13757274113232" lon="11.512921396912281"><ele>728.0</ele><time>2026-04-03T13:44:14.671Z</time></trkpt><trkpt lat="44.137634374174425" lon="11.513072101217643"><ele>733.5</ele><time>2026-04-03T13:44:15.671Z</time></trkpt><trkpt lat="44.137727193712756" lon="11.513178808184694"><ele>739.0</ele><time>2026-04-03T13:44:16.671Z</time></trkpt><trkpt lat="44.13783022095788" lon="11.513243919189536"><ele>739.0</ele><time>2026-04-03T13:44:17.671Z</time></trkpt><trkpt lat="44.13794632603691" lon="11.513258520417581"><ele>739.0</ele><time>2026-04-03T13:44:18.671Z</time></trkpt><trkpt lat="44.1380872525099" lon="11.513270009024144"><ele>739.0</ele><time>2026-04-03T13:44:19.671Z</time></trkpt><trkpt lat="44.13818622701247" lon="11.513339800673652"><ele>739.0</ele><time>2026-04-03T13:44:20.671Z</time></trkpt><trkpt lat="44.13824644717099" lon="11.513463009067506"><ele>738.6</ele><time>2026-04-03T13:44:21.671Z</time></trkpt><trkpt lat="44.13827773365245" lon="11.51362577127961"><ele>738.2</ele><time>2026-04-03T13:44:22.671Z</time></trkpt><trkpt lat="44.13831228078239" lon="11.51378917911515"><ele>737.8000000000001</ele><time>2026-04-03T13:44:23.671Z</time></trkpt><trkpt lat="44.13835344085758" lon="11.513917362992776"><ele>737.4000000000001</ele><time>2026-04-03T13:44:24.671Z</time></trkpt><trkpt lat="44.13839545001118" lon="11.514039233482501"><ele>737.0</ele><time>2026-04-03T13:44:25.671Z</time></trkpt><trkpt lat="44.138432370351524" lon="11.514200158619559"><ele>737.0</ele><time>2026-04-03T13:44:26.671Z</time></trkpt><trkpt lat="44.13852719104436" lon="11.514324905990238"><ele>737.0</ele><time>2026-04-03T13:44:27.671Z</time></trkpt><trkpt lat="44.138615783796276" lon="11.51445383436501"><ele>737.0</ele><time>2026-04-03T13:44:28.671Z</time></trkpt><trkpt lat="44.13871892423568" lon="11.514555513803426"><ele>737.0</ele><time>2026-04-03T13:44:29.671Z</time></trkpt><trkpt lat="44.13883589596537" lon="11.514613781624428"><ele>735.5</ele><time>2026-04-03T13:44:30.671Z</time></trkpt><trkpt lat="44.138964633045205" lon="11.514605423112073"><ele>734.0</ele><time>2026-04-03T13:44:31.671Z</time></trkpt><trkpt lat="44.139058762338266" lon="11.514534409292349"><ele>732.5</ele><time>2026-04-03T13:44:32.671Z</time></trkpt><trkpt lat="44.1391343790395" lon="11.514429552673588"><ele>731.0</ele><time>2026-04-03T13:44:33.671Z</time></trkpt><trkpt lat="44.13917377227387" lon="11.51426865306157"><ele>731.0</ele><time>2026-04-03T13:44:34.671Z</time></trkpt><trkpt lat="44.13918725892143" lon="11.51408747839559"><ele>731.0</ele><time>2026-04-03T13:44:35.671Z</time></trkpt><trkpt lat="44.13917545363274" lon="11.513901029066949"><ele>731.0</ele><time>2026-04-03T13:44:36.671Z</time></trkpt><trkpt lat="44.139153237750264" lon="11.51370550604016"><ele>731.0</ele><time>2026-04-03T13:44:37.671Z</time></trkpt><trkpt lat="44.139116067010335" lon="11.513488281441761"><ele>731.0</ele><time>2026-04-03T13:44:38.671Z</time></trkpt><trkpt lat="44.13909253779973" lon="11.513302102902085"><ele>731.0</ele><time>2026-04-03T13:44:39.671Z</time></trkpt><trkpt lat="44.13908531977905" lon="11.513118162500499"><ele>731.0</ele><time>2026-04-03T13:44:40.671Z</time></trkpt><trkpt lat="44.1390791899459" lon="11.512952901660892"><ele>731.0</ele><time>2026-04-03T13:44:41.669Z</time></trkpt><trkpt lat="44.139104124107796" lon="11.512788626600193"><ele>731.0</ele><time>2026-04-03T13:44:42.669Z</time></trkpt><trkpt lat="44.13915644781186" lon="11.512651386892113"><ele>731.0</ele><time>2026-04-03T13:44:43.669Z</time></trkpt><trkpt lat="44.13924320751885" lon="11.512544104366091"><ele>731.0</ele><time>2026-04-03T13:44:44.668Z</time></trkpt><trkpt lat="44.1393417262817" lon="11.512437516665512"><ele>731.0</ele><time>2026-04-03T13:44:45.668Z</time></trkpt><trkpt lat="44.139445361341686" lon="11.512322480322347"><ele>731.0</ele><time>2026-04-03T13:44:46.668Z</time></trkpt><trkpt lat="44.13954933279692" lon="11.512192095030633"><ele>731.0</ele><time>2026-04-03T13:44:47.668Z</time></trkpt><trkpt lat="44.13965427680641" lon="11.512064023818317"><ele>731.0</ele><time>2026-04-03T13:44:48.668Z</time></trkpt><trkpt lat="44.13974364639528" lon="11.511983524776179"><ele>731.0</ele><time>2026-04-03T13:44:49.668Z</time></trkpt><trkpt lat="44.13983346418706" lon="11.511964251583045"><ele>736.3333333333333</ele><time>2026-04-03T13:44:50.668Z</time></trkpt><trkpt lat="44.139938044755304" lon="11.5119784634181"><ele>741.6666666666666</ele><time>2026-04-03T13:44:51.668Z</time></trkpt><trkpt lat="44.140005386407914" lon="11.511920670799492"><ele>747.0</ele><time>2026-04-03T13:44:52.668Z</time></trkpt><trkpt lat="44.140050145814286" lon="11.511822958750912"><ele>752.3333333333334</ele><time>2026-04-03T13:44:53.668Z</time></trkpt><trkpt lat="44.140030667493235" lon="11.511710441660993"><ele>757.6666666666667</ele><time>2026-04-03T13:44:54.668Z</time></trkpt><trkpt lat="44.139983054309575" lon="11.51161457432781"><ele>763.0</ele><time>2026-04-03T13:44:55.668Z</time></trkpt><trkpt lat="44.13990574598099" lon="11.511542229562094"><ele>758.0</ele><time>2026-04-03T13:44:56.668Z</time></trkpt><trkpt lat="44.13979952597553" lon="11.511494839530583"><ele>753.0</ele><time>2026-04-03T13:44:57.668Z</time></trkpt><trkpt lat="44.13967887179487" lon="11.511458095485855"><ele>748.0</ele><time>2026-04-03T13:44:58.668Z</time></trkpt><trkpt lat="44.139546994697334" lon="11.511450671911977"><ele>743.0</ele><time>2026-04-03T13:44:59.668Z</time></trkpt><trkpt lat="44.1394128802676" lon="11.511448729882176"><ele>743.0</ele><time>2026-04-03T13:45:00.668Z</time></trkpt><trkpt lat="44.13927914447901" lon="11.511469748807588"><ele>743.0</ele><time>2026-04-03T13:45:01.668Z</time></trkpt><trkpt lat="44.1391662952156" lon="11.511446728297265"><ele>743.0</ele><time>2026-04-03T13:45:02.668Z</time></trkpt><trkpt lat="44.13907969139136" lon="11.511400754712366"><ele>743.0</ele><time>2026-04-03T13:45:03.668Z</time></trkpt><trkpt lat="44.139022706749216" lon="11.511310621402144"><ele>743.0</ele><time>2026-04-03T13:45:04.668Z</time></trkpt><trkpt lat="44.138988808409344" lon="11.511186678226384"><ele>738.0</ele><time>2026-04-03T13:45:05.668Z</time></trkpt><trkpt lat="44.13895217226383" lon="11.511030896568052"><ele>733.0</ele><time>2026-04-03T13:45:06.668Z</time></trkpt><trkpt lat="44.138908920653755" lon="11.510861870264156"><ele>728.0</ele><time>2026-04-03T13:45:07.668Z</time></trkpt><trkpt lat="44.138872004895155" lon="11.51069158826165"><ele>723.0</ele><time>2026-04-03T13:45:08.668Z</time></trkpt><trkpt lat="44.13887396875709" lon="11.51053130900308"><ele>723.75</ele><time>2026-04-03T13:45:09.668Z</time></trkpt><trkpt lat="44.1389144725572" lon="11.510380030866111"><ele>724.5</ele><time>2026-04-03T13:45:10.668Z</time></trkpt><trkpt lat="44.13898948369831" lon="11.510228147205156"><ele>725.25</ele><time>2026-04-03T13:45:11.668Z</time></trkpt><trkpt lat="44.13906942139797" lon="11.510071636719081"><ele>726.0</ele><time>2026-04-03T13:45:12.667Z</time></trkpt><trkpt lat="44.139151156437855" lon="11.509897543993077"><ele>732.75</ele><time>2026-04-03T13:45:13.667Z</time></trkpt><trkpt lat="44.139221130259955" lon="11.509717955115507"><ele>739.5</ele><time>2026-04-03T13:45:14.667Z</time></trkpt><trkpt lat="44.13928949051131" lon="11.50956102147408"><ele>746.25</ele><time>2026-04-03T13:45:15.667Z</time></trkpt><trkpt lat="44.139358492888526" lon="11.509429543566696"><ele>753.0</ele><time>2026-04-03T13:45:16.667Z</time></trkpt><trkpt lat="44.139447873065514" lon="11.509331141402104"><ele>753.0</ele><time>2026-04-03T13:45:17.667Z</time></trkpt><trkpt lat="44.139566488946876" lon="11.509268116022895"><ele>753.0</ele><time>2026-04-03T13:45:18.667Z</time></trkpt><trkpt lat="44.13971108528305" lon="11.509240286828526"><ele>753.0</ele><time>2026-04-03T13:45:19.667Z</time></trkpt><trkpt lat="44.13985941241306" lon="11.509190415672498"><ele>753.0</ele><time>2026-04-03T13:45:20.667Z</time></trkpt><trkpt lat="44.14000785024725" lon="11.509105812272848"><ele>753.0</ele><time>2026-04-03T13:45:21.667Z</time></trkpt><trkpt lat="44.140133027180816" lon="11.508984697546428"><ele>753.0</ele><time>2026-04-03T13:45:22.667Z</time></trkpt><trkpt lat="44.14025465157026" lon="11.508870429256557"><ele>753.0</ele><time>2026-04-03T13:45:23.667Z</time></trkpt><trkpt lat="44.140373239468815" lon="11.508774395185027"><ele>753.0</ele><time>2026-04-03T13:45:24.667Z</time></trkpt><trkpt lat="44.14049534986839" lon="11.50873978559242"><ele>757.0</ele><time>2026-04-03T13:45:25.667Z</time></trkpt><trkpt lat="44.14060509541364" lon="11.508757876475263"><ele>761.0</ele><time>2026-04-03T13:45:26.667Z</time></trkpt><trkpt lat="44.140684992341626" lon="11.50881154683355"><ele>765.0</ele><time>2026-04-03T13:45:27.667Z</time></trkpt><trkpt lat="44.14071679566532" lon="11.508902390999188"><ele>769.0</ele><time>2026-04-03T13:45:28.667Z</time></trkpt><trkpt lat="44.14070712932332" lon="11.509004661017485"><ele>773.0</ele><time>2026-04-03T13:45:29.667Z</time></trkpt><trkpt lat="44.14065041170605" lon="11.50909925373442"><ele>777.0</ele><time>2026-04-03T13:45:30.667Z</time></trkpt><trkpt lat="44.1405605057089" lon="11.509153709964343"><ele>777.0</ele><time>2026-04-03T13:45:31.667Z</time></trkpt><trkpt lat="44.1404489636063" lon="11.509164679167256"><ele>777.0</ele><time>2026-04-03T13:45:32.667Z</time></trkpt><trkpt lat="44.140339979826805" lon="11.509168978707125"><ele>777.0</ele><time>2026-04-03T13:45:33.667Z</time></trkpt><trkpt lat="44.14025406362799" lon="11.509227053628198"><ele>777.0</ele><time>2026-04-03T13:45:34.667Z</time></trkpt><trkpt lat="44.14021062220722" lon="11.50931783276319"><ele>777.0</ele><time>2026-04-03T13:45:35.667Z</time></trkpt><trkpt lat="44.14022439785057" lon="11.50941619385311"><ele>777.0</ele><time>2026-04-03T13:45:36.667Z</time></trkpt><trkpt lat="44.14028743363846" lon="11.509507840129306"><ele>777.0</ele><time>2026-04-03T13:45:37.667Z</time></trkpt><trkpt lat="44.14037730320696" lon="11.509538146250167"><ele>777.0</ele><time>2026-04-03T13:45:38.667Z</time></trkpt><trkpt lat="44.14047570695351" lon="11.509495237206348"><ele>777.0</ele><time>2026-04-03T13:45:39.667Z</time></trkpt><trkpt lat="44.14058870352808" lon="11.50940146371414"><ele>777.0</ele><time>2026-04-03T13:45:40.667Z</time></trkpt><trkpt lat="44.14071733091527" lon="11.509297295898117"><ele>782.6666666666667</ele><time>2026-04-03T13:45:41.667Z</time></trkpt><trkpt lat="44.14084877439288" lon="11.509192463523966"><ele>788.3333333333334</ele><time>2026-04-03T13:45:42.667Z</time></trkpt><trkpt lat="44.14097773794407" lon="11.509080027477927"><ele>794.0</ele><time>2026-04-03T13:45:43.667Z</time></trkpt><trkpt lat="44.14110702434345" lon="11.508974168971987"><ele>794.0</ele><time>2026-04-03T13:45:44.667Z</time></trkpt><trkpt lat="44.14123342380286" lon="11.50889940364584"><ele>794.0</ele><time>2026-04-03T13:45:45.667Z</time></trkpt><trkpt lat="44.1413520567632" lon="11.508868988971866"><ele>794.0</ele><time>2026-04-03T13:45:46.667Z</time></trkpt><trkpt lat="44.141460468294966" lon="11.508814114922602"><ele>794.0</ele><time>2026-04-03T13:45:47.667Z</time></trkpt><trkpt lat="44.14153926902865" lon="11.508702456491903"><ele>789.75</ele><time>2026-04-03T13:45:48.667Z</time></trkpt><trkpt lat="44.14157772987937" lon="11.508571175506324"><ele>785.5</ele><time>2026-04-03T13:45:49.667Z</time></trkpt><trkpt lat="44.14157480448296" lon="11.508428261323996"><ele>781.25</ele><time>2026-04-03T13:45:50.667Z</time></trkpt><trkpt lat="44.14153165920423" lon="11.508249374518453"><ele>777.0</ele><time>2026-04-03T13:45:51.667Z</time></trkpt><trkpt lat="44.14146655126797" lon="11.508041367902338"><ele>778.6666666666667</ele><time>2026-04-03T13:45:52.667Z</time></trkpt><trkpt lat="44.141397425736145" lon="11.507826483937375"><ele>780.3333333333334</ele><time>2026-04-03T13:45:53.667Z</time></trkpt><trkpt lat="44.14134409770594" lon="11.507603381059617"><ele>782.0</ele><time>2026-04-03T13:45:54.667Z</time></trkpt><trkpt lat="44.14130675624652" lon="11.507379315471233"><ele>782.0</ele><time>2026-04-03T13:45:55.667Z</time></trkpt><trkpt lat="44.14129132700972" lon="11.507177567531697"><ele>782.0</ele><time>2026-04-03T13:45:56.667Z</time></trkpt><trkpt lat="44.141287999436756" lon="11.506990186726068"><ele>782.0</ele><time>2026-04-03T13:45:57.667Z</time></trkpt><trkpt lat="44.14129273538026" lon="11.506824038551496"><ele>782.0</ele><time>2026-04-03T13:45:58.667Z</time></trkpt><trkpt lat="44.141316593698356" lon="11.506665969280832"><ele>783.75</ele><time>2026-04-03T13:45:59.667Z</time></trkpt><trkpt lat="44.141379531405214" lon="11.506514498613372"><ele>785.5</ele><time>2026-04-03T13:46:00.667Z</time></trkpt><trkpt lat="44.14147210781612" lon="11.506380074367067"><ele>787.25</ele><time>2026-04-03T13:46:01.667Z</time></trkpt><trkpt lat="44.14158645089369" lon="11.5062751556449"><ele>789.0</ele><time>2026-04-03T13:46:02.667Z</time></trkpt><trkpt lat="44.141711795200465" lon="11.50620124272438"><ele>793.2</ele><time>2026-04-03T13:46:03.667Z</time></trkpt><trkpt lat="44.141826446587835" lon="11.506155458092195"><ele>797.4000000000001</ele><time>2026-04-03T13:46:04.667Z</time></trkpt><trkpt lat="44.14192037756874" lon="11.50609107580983"><ele>801.6</ele><time>2026-04-03T13:46:05.667Z</time></trkpt><trkpt lat="44.1419855226623" lon="11.505989899790018"><ele>805.8</ele><time>2026-04-03T13:46:06.667Z</time></trkpt><trkpt lat="44.142007422460885" lon="11.505854746242504"><ele>810.0</ele><time>2026-04-03T13:46:07.667Z</time></trkpt><trkpt lat="44.1420205538729" lon="11.505687394458253"><ele>810.0</ele><time>2026-04-03T13:46:08.667Z</time></trkpt><trkpt lat="44.14205175265472" lon="11.505497295092823"><ele>810.0</ele><time>2026-04-03T13:46:09.667Z</time></trkpt><trkpt lat="44.14212481547956" lon="11.505342636622727"><ele>810.0</ele><time>2026-04-03T13:46:10.667Z</time></trkpt><trkpt lat="44.14215983619142" lon="11.505183950234713"><ele>810.0</ele><time>2026-04-03T13:46:11.667Z</time></trkpt><trkpt lat="44.142160016989905" lon="11.505033559887275"><ele>810.0</ele><time>2026-04-03T13:46:12.667Z</time></trkpt><trkpt lat="44.14209794712171" lon="11.504923337749803"><ele>810.0</ele><time>2026-04-03T13:46:13.667Z</time></trkpt><trkpt lat="44.14200736896894" lon="11.504830303073305"><ele>810.0</ele><time>2026-04-03T13:46:14.667Z</time></trkpt><trkpt lat="44.14196420195255" lon="11.504723657669963"><ele>810.0</ele><time>2026-04-03T13:46:15.667Z</time></trkpt><trkpt lat="44.14197539729056" lon="11.504598082028728"><ele>810.0</ele><time>2026-04-03T13:46:16.667Z</time></trkpt><trkpt lat="44.142036280744676" lon="11.504455791914486"><ele>808.8</ele><time>2026-04-03T13:46:17.667Z</time></trkpt><trkpt lat="44.14211848794278" lon="11.504345535443626"><ele>807.6</ele><time>2026-04-03T13:46:18.667Z</time></trkpt><trkpt lat="44.14220733416758" lon="11.504292928197179"><ele>806.4000000000001</ele><time>2026-04-03T13:46:19.667Z</time></trkpt><trkpt lat="44.14230027635445" lon="11.50429489980251"><ele>805.2</ele><time>2026-04-03T13:46:20.667Z</time></trkpt><trkpt lat="44.14238838504731" lon="11.504336183171423"><ele>804.0</ele><time>2026-04-03T13:46:21.667Z</time></trkpt><trkpt lat="44.14247664269043" lon="11.504338207816168"><ele>809.5</ele><time>2026-04-03T13:46:22.667Z</time></trkpt><trkpt lat="44.142553010962985" lon="11.50425930371321"><ele>815.0</ele><time>2026-04-03T13:46:23.667Z</time></trkpt><trkpt lat="44.14260418041951" lon="11.504183161649657"><ele>820.5</ele><time>2026-04-03T13:46:24.667Z</time></trkpt><trkpt lat="44.14261376679436" lon="11.504080418080669"><ele>826.0</ele><time>2026-04-03T13:46:26.667Z</time></trkpt><trkpt lat="44.14260337524462" lon="11.503971760404715"><ele>831.5</ele><time>2026-04-03T13:46:29.667Z</time></trkpt><trkpt lat="44.14258722840748" lon="11.503835254092794"><ele>837.0</ele><time>2026-04-03T13:46:32.667Z</time></trkpt><trkpt lat="44.14256355109083" lon="11.503661108316296"><ele>838.2</ele><time>2026-04-03T13:46:34.667Z</time></trkpt><trkpt lat="44.14255406544144" lon="11.503542296068687"><ele>839.4000000000001</ele><time>2026-04-03T13:46:35.667Z</time></trkpt><trkpt lat="44.142548593210705" lon="11.503403257816533"><ele>840.5999999999999</ele><time>2026-04-03T13:46:36.667Z</time></trkpt><trkpt lat="44.14251950742694" lon="11.503263101058355"><ele>841.8</ele><time>2026-04-03T13:46:37.667Z</time></trkpt><trkpt lat="44.1424649616388" lon="11.50315839557409"><ele>843.0</ele><time>2026-04-03T13:46:38.667Z</time></trkpt><trkpt lat="44.142386977305" lon="11.503058872628158"><ele>844.0</ele><time>2026-04-03T13:46:39.667Z</time></trkpt><trkpt lat="44.14231914697074" lon="11.502955859006503"><ele>845.0</ele><time>2026-04-03T13:46:40.667Z</time></trkpt><trkpt lat="44.14228630225918" lon="11.50283564042509"><ele>846.0</ele><time>2026-04-03T13:46:41.667Z</time></trkpt><trkpt lat="44.14229742359377" lon="11.502716934631216"><ele>847.0</ele><time>2026-04-03T13:46:42.667Z</time></trkpt><trkpt lat="44.14236351912728" lon="11.502609801752344"><ele>848.0</ele><time>2026-04-03T13:46:43.667Z</time></trkpt><trkpt lat="44.14246182801591" lon="11.502521172532688"><ele>848.0</ele><time>2026-04-03T13:46:44.667Z</time></trkpt><trkpt lat="44.14255639475715" lon="11.502412719465035"><ele>848.0</ele><time>2026-04-03T13:46:45.667Z</time></trkpt><trkpt lat="44.14261452990447" lon="11.502276799810906"><ele>848.0</ele><time>2026-04-03T13:46:46.667Z</time></trkpt><trkpt lat="44.14262361435467" lon="11.502124851203067"><ele>848.0</ele><time>2026-04-03T13:46:47.665Z</time></trkpt><trkpt lat="44.14258702997628" lon="11.501971954659362"><ele>848.8</ele><time>2026-04-03T13:46:48.665Z</time></trkpt><trkpt lat="44.14252238279092" lon="11.501815290036598"><ele>849.5999999999999</ele><time>2026-04-03T13:46:49.665Z</time></trkpt><trkpt lat="44.14246071777417" lon="11.501675295770001"><ele>850.4000000000001</ele><time>2026-04-03T13:46:50.664Z</time></trkpt><trkpt lat="44.142425811540434" lon="11.501546213933391"><ele>851.2</ele><time>2026-04-03T13:46:51.664Z</time></trkpt><trkpt lat="44.1424379158973" lon="11.501409737176822"><ele>852.0</ele><time>2026-04-03T13:46:52.664Z</time></trkpt><trkpt lat="44.14248875140408" lon="11.501280928011342"><ele>852.0</ele><time>2026-04-03T13:46:53.665Z</time></trkpt><trkpt lat="44.14257908801237" lon="11.501183564098051"><ele>852.0</ele><time>2026-04-03T13:46:54.664Z</time></trkpt><trkpt lat="44.14268426080266" lon="11.501084950662275"><ele>852.0</ele><time>2026-04-03T13:46:55.664Z</time></trkpt><trkpt lat="44.142758922586296" lon="11.500961102225874"><ele>852.0</ele><time>2026-04-03T13:46:56.664Z</time></trkpt><trkpt lat="44.142791138283265" lon="11.500805586005503"><ele>852.0</ele><time>2026-04-03T13:46:57.664Z</time></trkpt><trkpt lat="44.14277675086384" lon="11.500653532020515"><ele>852.0</ele><time>2026-04-03T13:46:58.664Z</time></trkpt><trkpt lat="44.14276820431944" lon="11.500483464642612"><ele>852.0</ele><time>2026-04-03T13:46:59.665Z</time></trkpt><trkpt lat="44.14281030488573" lon="11.500315021272678"><ele>852.0</ele><time>2026-04-03T13:47:00.664Z</time></trkpt><trkpt lat="44.14284902496458" lon="11.500129894612238"><ele>852.75</ele><time>2026-04-03T13:47:01.664Z</time></trkpt><trkpt lat="44.14286144771922" lon="11.499932176432754"><ele>853.5</ele><time>2026-04-03T13:47:02.664Z</time></trkpt><trkpt lat="44.142834643273" lon="11.499774906934192"><ele>854.25</ele><time>2026-04-03T13:47:03.664Z</time></trkpt><trkpt lat="44.14276669803735" lon="11.499652277484685"><ele>855.0</ele><time>2026-04-03T13:47:04.664Z</time></trkpt><trkpt lat="44.142700974934186" lon="11.499547340000108"><ele>858.1666666666666</ele><time>2026-04-03T13:47:05.664Z</time></trkpt><trkpt lat="44.142662003237405" lon="11.499439407477444"><ele>861.3333333333333</ele><time>2026-04-03T13:47:06.664Z</time></trkpt><trkpt lat="44.14267409733184" lon="11.499343135586223"><ele>864.5</ele><time>2026-04-03T13:47:07.664Z</time></trkpt><trkpt lat="44.142722315456986" lon="11.499275263738731"><ele>867.6666666666666</ele><time>2026-04-03T13:47:08.664Z</time></trkpt><trkpt lat="44.1427985351001" lon="11.499258684660962"><ele>870.8333333333333</ele><time>2026-04-03T13:47:09.664Z</time></trkpt><trkpt lat="44.142873604655506" lon="11.499304346205994"><ele>874.0</ele><time>2026-04-03T13:47:10.664Z</time></trkpt><trkpt lat="44.14292936071422" lon="11.499401260557308"><ele>874.0</ele><time>2026-04-03T13:47:11.664Z</time></trkpt><trkpt lat="44.14298223828843" lon="11.49952507752578"><ele>874.0</ele><time>2026-04-03T13:47:12.664Z</time></trkpt><trkpt lat="44.143047498196474" lon="11.499655847353994"><ele>874.0</ele><time>2026-04-03T13:47:13.664Z</time></trkpt><trkpt lat="44.143106450437045" lon="11.499794995599906"><ele>874.0</ele><time>2026-04-03T13:47:14.664Z</time></trkpt><trkpt lat="44.143157716125664" lon="11.499947494347822"><ele>876.5</ele><time>2026-04-03T13:47:15.664Z</time></trkpt><trkpt lat="44.14319077136321" lon="11.50011535451399"><ele>879.0</ele><time>2026-04-03T13:47:16.664Z</time></trkpt><trkpt lat="44.143199784961936" lon="11.500287042187091"><ele>881.5</ele><time>2026-04-03T13:47:17.664Z</time></trkpt><trkpt lat="44.14323242623104" lon="11.500453257300641"><ele>884.0</ele><time>2026-04-03T13:47:18.664Z</time></trkpt><trkpt lat="44.14331051261132" lon="11.500589780373312"><ele>884.0</ele><time>2026-04-03T13:47:19.664Z</time></trkpt><trkpt lat="44.14340710322275" lon="11.500690695305645"><ele>884.0000000000001</ele><time>2026-04-03T13:47:20.664Z</time></trkpt><trkpt lat="44.14352504723489" lon="11.500727737022272"><ele>884.0000000000001</ele><time>2026-04-03T13:47:21.664Z</time></trkpt><trkpt lat="44.14362712804186" lon="11.50068736963709"><ele>884.0</ele><time>2026-04-03T13:47:22.664Z</time></trkpt><trkpt lat="44.14370857794296" lon="11.500609564726357"><ele>884.0</ele><time>2026-04-03T13:47:23.664Z</time></trkpt><trkpt lat="44.1437754454674" lon="11.500490015007102"><ele>885.0</ele><time>2026-04-03T13:47:24.664Z</time></trkpt><trkpt lat="44.14381201830782" lon="11.500345840508025"><ele>886.0</ele><time>2026-04-03T13:47:25.664Z</time></trkpt><trkpt lat="44.14380848124011" lon="11.500187511588795"><ele>887.0</ele><time>2026-04-03T13:47:26.664Z</time></trkpt><trkpt lat="44.14379945457773" lon="11.50001495014497"><ele>888.0</ele><time>2026-04-03T13:47:27.664Z</time></trkpt><trkpt lat="44.1438029978836" lon="11.499831033740554"><ele>888.0</ele><time>2026-04-03T13:47:28.664Z</time></trkpt><trkpt lat="44.14380045566899" lon="11.499625228591473"><ele>888.0</ele><time>2026-04-03T13:47:29.664Z</time></trkpt><trkpt lat="44.14380504766303" lon="11.499414735925486"><ele>888.0</ele><time>2026-04-03T13:47:30.664Z</time></trkpt><trkpt lat="44.143818166001765" lon="11.499218631596852"><ele>888.0</ele><time>2026-04-03T13:47:31.664Z</time></trkpt><trkpt lat="44.143845796162736" lon="11.499022857681721"><ele>889.5</ele><time>2026-04-03T13:47:32.664Z</time></trkpt><trkpt lat="44.14388730686317" lon="11.498835258074207"><ele>891.0</ele><time>2026-04-03T13:47:33.664Z</time></trkpt><trkpt lat="44.143936699661985" lon="11.498666785385383"><ele>892.5</ele><time>2026-04-03T13:47:34.664Z</time></trkpt><trkpt lat="44.14399647156675" lon="11.49852431751262"><ele>894.0</ele><time>2026-04-03T13:47:35.664Z</time></trkpt><trkpt lat="44.14409030052943" lon="11.498392271618837"><ele>894.0</ele><time>2026-04-03T13:47:36.664Z</time></trkpt><trkpt lat="44.14420951203674" lon="11.498280438119611"><ele>894.0</ele><time>2026-04-03T13:47:37.664Z</time></trkpt><trkpt lat="44.14434773580617" lon="11.498179538427957"><ele>894.0</ele><time>2026-04-03T13:47:38.663Z</time></trkpt><trkpt lat="44.1444866837072" lon="11.498075168533322"><ele>894.0</ele><time>2026-04-03T13:47:39.663Z</time></trkpt><trkpt lat="44.1446299914939" lon="11.497954876076456"><ele>894.0</ele><time>2026-04-03T13:47:40.663Z</time></trkpt><trkpt lat="44.1447653852969" lon="11.497803207467884"><ele>894.0</ele><time>2026-04-03T13:47:41.663Z</time></trkpt><trkpt lat="44.14489167124761" lon="11.497646708096331"><ele>891.3333333333333</ele><time>2026-04-03T13:47:42.663Z</time></trkpt><trkpt lat="44.14501388910884" lon="11.497476361702287"><ele>888.6666666666666</ele><time>2026-04-03T13:47:43.663Z</time></trkpt><trkpt lat="44.14513120635062" lon="11.49731600427727"><ele>886.0</ele><time>2026-04-03T13:47:44.663Z</time></trkpt><trkpt lat="44.14524186339749" lon="11.497163519936402"><ele>893.3333333333333</ele><time>2026-04-03T13:47:45.663Z</time></trkpt><trkpt lat="44.14535762516987" lon="11.497028308703383"><ele>900.6666666666667</ele><time>2026-04-03T13:47:46.663Z</time></trkpt><trkpt lat="44.145482976175884" lon="11.496914686695957"><ele>908.0</ele><time>2026-04-03T13:47:47.663Z</time></trkpt><trkpt lat="44.145628201637685" lon="11.496821909911182"><ele>901.6666666666667</ele><time>2026-04-03T13:47:48.663Z</time></trkpt><trkpt lat="44.14577720486552" lon="11.496761002707547"><ele>895.3333333333333</ele><time>2026-04-03T13:47:49.663Z</time></trkpt><trkpt lat="44.145927432108365" lon="11.496721812874073"><ele>889.0</ele><time>2026-04-03T13:47:50.663Z</time></trkpt><trkpt lat="44.14607486756549" lon="11.496675169689182"><ele>889.0</ele><time>2026-04-03T13:47:51.663Z</time></trkpt><trkpt lat="44.14619903521743" lon="11.49659003478159"><ele>889.0</ele><time>2026-04-03T13:47:52.663Z</time></trkpt><trkpt lat="44.14630903915204" lon="11.496497736324248"><ele>889.0</ele><time>2026-04-03T13:47:53.663Z</time></trkpt><trkpt lat="44.146417885498536" lon="11.496431055486285"><ele>889.0</ele><time>2026-04-03T13:47:54.663Z</time></trkpt><trkpt lat="44.146543637701406" lon="11.496413272909004"><ele>886.0</ele><time>2026-04-03T13:47:55.663Z</time></trkpt><trkpt lat="44.14668004469159" lon="11.496448759645153"><ele>883.0</ele><time>2026-04-03T13:47:56.663Z</time></trkpt><trkpt lat="44.146815207424936" lon="11.49652412002486"><ele>880.0</ele><time>2026-04-03T13:47:57.663Z</time></trkpt><trkpt lat="44.14693779014973" lon="11.496619059573105"><ele>877.0</ele><time>2026-04-03T13:47:58.663Z</time></trkpt><trkpt lat="44.14705408919002" lon="11.496706464041786"><ele>877.0</ele><time>2026-04-03T13:47:59.663Z</time></trkpt><trkpt lat="44.147173914884405" lon="11.49672693460846"><ele>877.0</ele><time>2026-04-03T13:48:00.663Z</time></trkpt><trkpt lat="44.14730743681645" lon="11.496748060797591"><ele>877.0</ele><time>2026-04-03T13:48:01.663Z</time></trkpt><trkpt lat="44.14744253401049" lon="11.49680830516466"><ele>877.0</ele><time>2026-04-03T13:48:02.663Z</time></trkpt><trkpt lat="44.147559575164756" lon="11.49692129424928"><ele>877.0</ele><time>2026-04-03T13:48:03.663Z</time></trkpt><trkpt lat="44.147648704943215" lon="11.497064974379512"><ele>877.0</ele><time>2026-04-03T13:48:04.663Z</time></trkpt><trkpt lat="44.147710475229005" lon="11.497216599026046"><ele>877.0</ele><time>2026-04-03T13:48:05.663Z</time></trkpt><trkpt lat="44.14772292726805" lon="11.497397034835203"><ele>877.0</ele><time>2026-04-03T13:48:06.663Z</time></trkpt><trkpt lat="44.14771015262145" lon="11.497595796050305"><ele>874.75</ele><time>2026-04-03T13:48:07.663Z</time></trkpt><trkpt lat="44.14767890286025" lon="11.49778850708826"><ele>872.5</ele><time>2026-04-03T13:48:08.663Z</time></trkpt><trkpt lat="44.14765261900688" lon="11.497970552814882"><ele>870.25</ele><time>2026-04-03T13:48:09.663Z</time></trkpt><trkpt lat="44.147652391387446" lon="11.498130748411622"><ele>868.0</ele><time>2026-04-03T13:48:10.663Z</time></trkpt><trkpt lat="44.14769230124641" lon="11.498258244975881"><ele>866.75</ele><time>2026-04-03T13:48:11.663Z</time></trkpt><trkpt lat="44.14777321444219" lon="11.498341603326718"><ele>865.5</ele><time>2026-04-03T13:48:12.663Z</time></trkpt><trkpt lat="44.14788470141289" lon="11.498372234062874"><ele>864.25</ele><time>2026-04-03T13:48:13.663Z</time></trkpt><trkpt lat="44.148017913679745" lon="11.498380484760238"><ele>863.0</ele><time>2026-04-03T13:48:14.663Z</time></trkpt><trkpt lat="44.14816622984854" lon="11.498418097241471"><ele>863.75</ele><time>2026-04-03T13:48:15.663Z</time></trkpt><trkpt lat="44.148307186931355" lon="11.498486137808538"><ele>864.5</ele><time>2026-04-03T13:48:16.663Z</time></trkpt><trkpt lat="44.148443015053196" lon="11.498518139603355"><ele>865.25</ele><time>2026-04-03T13:48:17.663Z</time></trkpt><trkpt lat="44.14856618606842" lon="11.49848527521347"><ele>866.0</ele><time>2026-04-03T13:48:18.663Z</time></trkpt><trkpt lat="44.14867256737379" lon="11.49838905077446"><ele>866.0</ele><time>2026-04-03T13:48:19.663Z</time></trkpt><trkpt lat="44.148785936701486" lon="11.498283943869604"><ele>866.0</ele><time>2026-04-03T13:48:20.663Z</time></trkpt><trkpt lat="44.14891581427432" lon="11.49821930809171"><ele>866.0</ele><time>2026-04-03T13:48:21.663Z</time></trkpt><trkpt lat="44.149025384959316" lon="11.498147711183725"><ele>866.0</ele><time>2026-04-03T13:48:22.663Z</time></trkpt><trkpt lat="44.149099503150254" lon="11.498048326865067"><ele>868.0</ele><time>2026-04-03T13:48:23.663Z</time></trkpt><trkpt lat="44.14912883354979" lon="11.497916639116005"><ele>870.0</ele><time>2026-04-03T13:48:24.663Z</time></trkpt><trkpt lat="44.14911015087712" lon="11.497769267069708"><ele>872.0</ele><time>2026-04-03T13:48:25.663Z</time></trkpt><trkpt lat="44.149051010502404" lon="11.49761473843948"><ele>874.0</ele><time>2026-04-03T13:48:26.663Z</time></trkpt><trkpt lat="44.14897476552414" lon="11.497444733805146"><ele>874.0</ele><time>2026-04-03T13:48:27.663Z</time></trkpt><trkpt lat="44.14889835287621" lon="11.497254831003383"><ele>874.0</ele><time>2026-04-03T13:48:28.663Z</time></trkpt><trkpt lat="44.14880592200287" lon="11.497063583393341"><ele>874.0</ele><time>2026-04-03T13:48:29.663Z</time></trkpt><trkpt lat="44.14870087495374" lon="11.496883228104405"><ele>868.0</ele><time>2026-04-03T13:48:30.663Z</time></trkpt><trkpt lat="44.14859265219814" lon="11.496716474012155"><ele>862.0</ele><time>2026-04-03T13:48:31.663Z</time></trkpt><trkpt lat="44.14848939482831" lon="11.496553775245593"><ele>856.0</ele><time>2026-04-03T13:48:32.663Z</time></trkpt><trkpt lat="44.148397041322404" lon="11.496395731280215"><ele>853.0</ele><time>2026-04-03T13:48:33.663Z</time></trkpt><trkpt lat="44.148317923558224" lon="11.49623740476156"><ele>850.0</ele><time>2026-04-03T13:48:34.663Z</time></trkpt><trkpt lat="44.148256330273036" lon="11.496059520264307"><ele>847.0</ele><time>2026-04-03T13:48:35.663Z</time></trkpt><trkpt lat="44.14821926218572" lon="11.495861930099952"><ele>844.0</ele><time>2026-04-03T13:48:36.663Z</time></trkpt><trkpt lat="44.14819630044324" lon="11.495642027336434"><ele>852.0</ele><time>2026-04-03T13:48:37.663Z</time></trkpt><trkpt lat="44.14818213173609" lon="11.495409757169671"><ele>860.0</ele><time>2026-04-03T13:48:38.663Z</time></trkpt><trkpt lat="44.14816871627604" lon="11.49517252655617"><ele>868.0</ele><time>2026-04-03T13:48:39.663Z</time></trkpt><trkpt lat="44.14815639483929" lon="11.494945023626423"><ele>868.0</ele><time>2026-04-03T13:48:40.663Z</time></trkpt><trkpt lat="44.14813713821114" lon="11.494723580132245"><ele>868.0</ele><time>2026-04-03T13:48:41.663Z</time></trkpt><trkpt lat="44.1481240130645" lon="11.494506936619683"><ele>868.0</ele><time>2026-04-03T13:48:42.663Z</time></trkpt><trkpt lat="44.14810197946301" lon="11.494293899092677"><ele>867.0</ele><time>2026-04-03T13:48:43.663Z</time></trkpt><trkpt lat="44.148063747196574" lon="11.494089796490327"><ele>866.0</ele><time>2026-04-03T13:48:44.663Z</time></trkpt><trkpt lat="44.148017425978125" lon="11.493875194211606"><ele>865.0</ele><time>2026-04-03T13:48:45.663Z</time></trkpt><trkpt lat="44.14798825792199" lon="11.493659618978295"><ele>863.6666666666666</ele><time>2026-04-03T13:48:46.663Z</time></trkpt><trkpt lat="44.14797523448518" lon="11.493425855368244"><ele>862.3333333333333</ele><time>2026-04-03T13:48:47.663Z</time></trkpt><trkpt lat="44.147989930035415" lon="11.49319627476267"><ele>861.0</ele><time>2026-04-03T13:48:48.663Z</time></trkpt><trkpt lat="44.14801560914991" lon="11.4929508578902"><ele>858.0</ele><time>2026-04-03T13:48:49.663Z</time></trkpt><trkpt lat="44.14803309551181" lon="11.492718440699383"><ele>855.0</ele><time>2026-04-03T13:48:50.663Z</time></trkpt><trkpt lat="44.14803201957501" lon="11.49249258457823"><ele>852.0</ele><time>2026-04-03T13:48:51.663Z</time></trkpt><trkpt lat="44.14803840076114" lon="11.492274602645693"><ele>849.0</ele><time>2026-04-03T13:48:52.663Z</time></trkpt><trkpt lat="44.14804378704242" lon="11.492073952644027"><ele>846.0</ele><time>2026-04-03T13:48:53.66Z</time></trkpt><trkpt lat="44.1480885229948" lon="11.491877022030973"><ele>843.0</ele><time>2026-04-03T13:48:54.661Z</time></trkpt><trkpt lat="44.14815471462954" lon="11.491680808241503"><ele>840.0</ele><time>2026-04-03T13:48:55.661Z</time></trkpt><trkpt lat="44.14823705319819" lon="11.491476819661017"><ele>831.3333333333333</ele><time>2026-04-03T13:48:56.66Z</time></trkpt><trkpt lat="44.1483008231768" lon="11.491256854107327"><ele>822.6666666666666</ele><time>2026-04-03T13:48:57.66Z</time></trkpt><trkpt lat="44.14834714172646" lon="11.491044319276947"><ele>814.0</ele><time>2026-04-03T13:48:58.66Z</time></trkpt><trkpt lat="44.14839939749626" lon="11.490829964576859"><ele>814.0</ele><time>2026-04-03T13:48:59.66Z</time></trkpt><trkpt lat="44.14845077895807" lon="11.490628830014103"><ele>814.0</ele><time>2026-04-03T13:49:00.661Z</time></trkpt><trkpt lat="44.14849172606759" lon="11.490450394732305"><ele>814.0</ele><time>2026-04-03T13:49:01.661Z</time></trkpt><trkpt lat="44.148521330080214" lon="11.49027803383419"><ele>814.0</ele><time>2026-04-03T13:49:02.661Z</time></trkpt><trkpt lat="44.14851580517139" lon="11.49010457085856"><ele>812.75</ele><time>2026-04-03T13:49:03.66Z</time></trkpt><trkpt lat="44.14847572948998" lon="11.48994427530436"><ele>811.5</ele><time>2026-04-03T13:49:04.66Z</time></trkpt><trkpt lat="44.14839609135555" lon="11.489789318471066"><ele>810.25</ele><time>2026-04-03T13:49:05.66Z</time></trkpt><trkpt lat="44.1482864460356" lon="11.489650577297226"><ele>809.0</ele><time>2026-04-03T13:49:06.66Z</time></trkpt><trkpt lat="44.14815360591191" lon="11.489534261630213"><ele>806.5</ele><time>2026-04-03T13:49:07.66Z</time></trkpt><trkpt lat="44.14800937391603" lon="11.489449034112665"><ele>804.0</ele><time>2026-04-03T13:49:08.66Z</time></trkpt><trkpt lat="44.14786685155601" lon="11.489385240199171"><ele>801.5</ele><time>2026-04-03T13:49:09.66Z</time></trkpt><trkpt lat="44.14774012001551" lon="11.489329047764507"><ele>799.0</ele><time>2026-04-03T13:49:10.66Z</time></trkpt><trkpt lat="44.14763257029726" lon="11.489273575017982"><ele>799.0</ele><time>2026-04-03T13:49:11.66Z</time></trkpt><trkpt lat="44.147541718587206" lon="11.489218212499111"><ele>799.0</ele><time>2026-04-03T13:49:12.66Z</time></trkpt><trkpt lat="44.14747812901799" lon="11.489129734859828"><ele>799.0</ele><time>2026-04-03T13:49:13.66Z</time></trkpt><trkpt lat="44.14745700368343" lon="11.489001011488462"><ele>799.0</ele><time>2026-04-03T13:49:14.66Z</time></trkpt><trkpt lat="44.14748763579433" lon="11.488883999582049"><ele>799.0</ele><time>2026-04-03T13:49:15.66Z</time></trkpt><trkpt lat="44.14756004236956" lon="11.488790534337578"><ele>799.0</ele><time>2026-04-03T13:49:16.66Z</time></trkpt><trkpt lat="44.147670433928795" lon="11.488751690260614"><ele>799.0</ele><time>2026-04-03T13:49:17.66Z</time></trkpt><trkpt lat="44.14779536515266" lon="11.48877577708941"><ele>799.0</ele><time>2026-04-03T13:49:18.66Z</time></trkpt><trkpt lat="44.14792418544142" lon="11.488835230316232"><ele>799.0</ele><time>2026-04-03T13:49:19.66Z</time></trkpt><trkpt lat="44.14803953021157" lon="11.488898263743957"><ele>799.0</ele><time>2026-04-03T13:49:20.66Z</time></trkpt><trkpt lat="44.14814186699436" lon="11.488937458613346"><ele>799.0</ele><time>2026-04-03T13:49:21.66Z</time></trkpt><trkpt lat="44.14823277242311" lon="11.488935427984579"><ele>799.0</ele><time>2026-04-03T13:49:22.66Z</time></trkpt><trkpt lat="44.14829686403479" lon="11.488867786801269"><ele>799.0</ele><time>2026-04-03T13:49:23.66Z</time></trkpt><trkpt lat="44.14831737476131" lon="11.488746716507283"><ele>799.0</ele><time>2026-04-03T13:49:24.66Z</time></trkpt><trkpt lat="44.14828666631485" lon="11.48860258591769"><ele>795.5</ele><time>2026-04-03T13:49:25.66Z</time></trkpt><trkpt lat="44.148205680747466" lon="11.488469356766954"><ele>792.0</ele><time>2026-04-03T13:49:26.66Z</time></trkpt><trkpt lat="44.14808906401845" lon="11.488384143440834"><ele>788.5</ele><time>2026-04-03T13:49:27.66Z</time></trkpt><trkpt lat="44.147955784736766" lon="11.488324721067364"><ele>785.0</ele><time>2026-04-03T13:49:28.66Z</time></trkpt><trkpt lat="44.14782086469734" lon="11.488266552187586"><ele>785.0</ele><time>2026-04-03T13:49:29.66Z</time></trkpt><trkpt lat="44.147693842097716" lon="11.488209080276597"><ele>785.0</ele><time>2026-04-03T13:49:30.66Z</time></trkpt><trkpt lat="44.14756232801647" lon="11.488189062598945"><ele>785.0</ele><time>2026-04-03T13:49:31.66Z</time></trkpt><trkpt lat="44.14743984947354" lon="11.488213840193216"><ele>785.0</ele><time>2026-04-03T13:49:32.66Z</time></trkpt><trkpt lat="44.14732472297556" lon="11.488249122138654"><ele>783.0000000000001</ele><time>2026-04-03T13:49:33.66Z</time></trkpt><trkpt lat="44.147221039116005" lon="11.488257325415915"><ele>781.0</ele><time>2026-04-03T13:49:34.66Z</time></trkpt><trkpt lat="44.147131040133" lon="11.488210761038808"><ele>779.0</ele><time>2026-04-03T13:49:35.66Z</time></trkpt><trkpt lat="44.14708804956014" lon="11.488128487399548"><ele>777.0</ele><time>2026-04-03T13:49:36.66Z</time></trkpt><trkpt lat="44.14709045622879" lon="11.488018647008415"><ele>775.0000000000001</ele><time>2026-04-03T13:49:37.66Z</time></trkpt><trkpt lat="44.147146126426996" lon="11.487919648815597"><ele>773.0</ele><time>2026-04-03T13:49:38.66Z</time></trkpt><trkpt lat="44.147245963611965" lon="11.487844142828022"><ele>771.25</ele><time>2026-04-03T13:49:39.66Z</time></trkpt><trkpt lat="44.14737053959894" lon="11.487803527550607"><ele>769.5</ele><time>2026-04-03T13:49:40.66Z</time></trkpt><trkpt lat="44.14750783336134" lon="11.487785855490788"><ele>767.75</ele><time>2026-04-03T13:49:41.66Z</time></trkpt><trkpt lat="44.14764364018315" lon="11.487762503380125"><ele>766.0</ele><time>2026-04-03T13:49:42.66Z</time></trkpt><trkpt lat="44.147764718407856" lon="11.487707295010871"><ele>766.0</ele><time>2026-04-03T13:49:43.66Z</time></trkpt><trkpt lat="44.14788505345005" lon="11.487638374051903"><ele>766.0</ele><time>2026-04-03T13:49:44.66Z</time></trkpt><trkpt lat="44.14798977150749" lon="11.48755374691375"><ele>766.0</ele><time>2026-04-03T13:49:45.66Z</time></trkpt><trkpt lat="44.14810395417099" lon="11.487489047181791"><ele>766.0</ele><time>2026-04-03T13:49:46.66Z</time></trkpt><trkpt lat="44.14821623504462" lon="11.48746986073531"><ele>766.75</ele><time>2026-04-03T13:49:47.66Z</time></trkpt><trkpt lat="44.14830952204089" lon="11.487503784682017"><ele>767.5</ele><time>2026-04-03T13:49:48.66Z</time></trkpt><trkpt lat="44.148394494316015" lon="11.487602949037667"><ele>768.25</ele><time>2026-04-03T13:49:49.66Z</time></trkpt><trkpt lat="44.14846688459766" lon="11.48775811708909"><ele>769.0</ele><time>2026-04-03T13:49:50.66Z</time></trkpt><trkpt lat="44.148548203371" lon="11.487906857921542"><ele>774.3333333333333</ele><time>2026-04-03T13:49:51.66Z</time></trkpt><trkpt lat="44.14865515446502" lon="11.488037568359262"><ele>779.6666666666667</ele><time>2026-04-03T13:49:52.66Z</time></trkpt><trkpt lat="44.14878870690714" lon="11.488133204042096"><ele>785.0</ele><time>2026-04-03T13:49:53.66Z</time></trkpt><trkpt lat="44.148940721132405" lon="11.48819909530708"><ele>779.0</ele><time>2026-04-03T13:49:54.66Z</time></trkpt><trkpt lat="44.149099626777584" lon="11.488234494217009"><ele>773.0</ele><time>2026-04-03T13:49:55.66Z</time></trkpt><trkpt lat="44.14925993655987" lon="11.488272860051561"><ele>767.0</ele><time>2026-04-03T13:49:56.66Z</time></trkpt><trkpt lat="44.14941663884406" lon="11.488313071024969"><ele>767.0</ele><time>2026-04-03T13:49:57.66Z</time></trkpt><trkpt lat="44.14957786957306" lon="11.488324140130782"><ele>767.0</ele><time>2026-04-03T13:49:58.66Z</time></trkpt><trkpt lat="44.14973845350688" lon="11.488306172126887"><ele>767.0</ele><time>2026-04-03T13:49:59.66Z</time></trkpt><trkpt lat="44.149891075551444" lon="11.48826204931707"><ele>762.75</ele><time>2026-04-03T13:50:00.66Z</time></trkpt><trkpt lat="44.15003819494977" lon="11.488204242231127"><ele>758.5</ele><time>2026-04-03T13:50:01.66Z</time></trkpt><trkpt lat="44.15018547997711" lon="11.48813747761853"><ele>754.25</ele><time>2026-04-03T13:50:02.66Z</time></trkpt><trkpt lat="44.15031070855531" lon="11.488091125820093"><ele>750.0</ele><time>2026-04-03T13:50:03.66Z</time></trkpt><trkpt lat="44.15041685453944" lon="11.488032013179692"><ele>750.0</ele><time>2026-04-03T13:50:04.66Z</time></trkpt><trkpt lat="44.150504072586884" lon="11.48794647069094"><ele>750.0</ele><time>2026-04-03T13:50:05.66Z</time></trkpt><trkpt lat="44.15055313297508" lon="11.487819772740703"><ele>750.0</ele><time>2026-04-03T13:50:06.66Z</time></trkpt><trkpt lat="44.150568558457756" lon="11.48765738824845"><ele>750.0</ele><time>2026-04-03T13:50:07.66Z</time></trkpt><trkpt lat="44.15054452058328" lon="11.487490689688922"><ele>750.0</ele><time>2026-04-03T13:50:08.66Z</time></trkpt><trkpt lat="44.15049498968424" lon="11.487318401355392"><ele>749.75</ele><time>2026-04-03T13:50:09.66Z</time></trkpt><trkpt lat="44.15041740478164" lon="11.487155053840423"><ele>749.5</ele><time>2026-04-03T13:50:10.66Z</time></trkpt><trkpt lat="44.15032274322743" lon="11.487016228954388"><ele>749.25</ele><time>2026-04-03T13:50:11.66Z</time></trkpt><trkpt lat="44.15021786809916" lon="11.486913843624702"><ele>749.0</ele><time>2026-04-03T13:50:12.66Z</time></trkpt><trkpt lat="44.150123140039724" lon="11.486798540113924"><ele>746.8000000000001</ele><time>2026-04-03T13:50:13.66Z</time></trkpt><trkpt lat="44.15005871442233" lon="11.486663384134978"><ele>744.6</ele><time>2026-04-03T13:50:14.66Z</time></trkpt><trkpt lat="44.150030460206864" lon="11.48652552290039"><ele>742.4</ele><time>2026-04-03T13:50:15.66Z</time></trkpt><trkpt lat="44.15003306127397" lon="11.486378039983995"><ele>740.2</ele><time>2026-04-03T13:50:16.66Z</time></trkpt><trkpt lat="44.15008326341222" lon="11.486246337827202"><ele>738.0</ele><time>2026-04-03T13:50:17.66Z</time></trkpt><trkpt lat="44.150156772609364" lon="11.486129715984362"><ele>735.75</ele><time>2026-04-03T13:50:18.66Z</time></trkpt><trkpt lat="44.150259188693326" lon="11.486068393429996"><ele>733.5</ele><time>2026-04-03T13:50:19.66Z</time></trkpt><trkpt lat="44.15038347293821" lon="11.486045390401586"><ele>731.25</ele><time>2026-04-03T13:50:20.66Z</time></trkpt><trkpt lat="44.15051125714615" lon="11.486075740793504"><ele>729.0</ele><time>2026-04-03T13:50:21.66Z</time></trkpt><trkpt lat="44.15061795147812" lon="11.48615075395033"><ele>729.8000000000001</ele><time>2026-04-03T13:50:22.66Z</time></trkpt><trkpt lat="44.15072438750142" lon="11.486211487725576"><ele>730.6</ele><time>2026-04-03T13:50:23.66Z</time></trkpt><trkpt lat="44.150821942314245" lon="11.486218180735497"><ele>731.4</ele><time>2026-04-03T13:50:24.66Z</time></trkpt><trkpt lat="44.15090744536754" lon="11.486156079730268"><ele>732.2</ele><time>2026-04-03T13:50:25.66Z</time></trkpt><trkpt lat="44.15095692827438" lon="11.486043105235135"><ele>733.0</ele><time>2026-04-03T13:50:26.66Z</time></trkpt><trkpt lat="44.15094529391014" lon="11.4858999762725"><ele>733.0</ele><time>2026-04-03T13:50:27.66Z</time></trkpt><trkpt lat="44.15089345259092" lon="11.485738151427563"><ele>733.0</ele><time>2026-04-03T13:50:28.66Z</time></trkpt><trkpt lat="44.150812839978165" lon="11.485570844324291"><ele>733.0</ele><time>2026-04-03T13:50:29.66Z</time></trkpt><trkpt lat="44.150734569537356" lon="11.485416582841102"><ele>733.0</ele><time>2026-04-03T13:50:30.66Z</time></trkpt><trkpt lat="44.150644733098225" lon="11.485292810022585"><ele>730.0</ele><time>2026-04-03T13:50:31.66Z</time></trkpt><trkpt lat="44.15054975741114" lon="11.485190687897738"><ele>727.0</ele><time>2026-04-03T13:50:32.66Z</time></trkpt><trkpt lat="44.150446801128744" lon="11.485136077224684"><ele>724.0</ele><time>2026-04-03T13:50:33.66Z</time></trkpt><trkpt lat="44.150336273428145" lon="11.485141260148678"><ele>721.0</ele><time>2026-04-03T13:50:34.66Z</time></trkpt><trkpt lat="44.150233209538236" lon="11.485184131428321"><ele>718.0</ele><time>2026-04-03T13:50:35.66Z</time></trkpt><trkpt lat="44.150126611969334" lon="11.485192431837454"><ele>718.0</ele><time>2026-04-03T13:50:36.66Z</time></trkpt><trkpt lat="44.150034580787484" lon="11.485142939200655"><ele>718.0</ele><time>2026-04-03T13:50:37.66Z</time></trkpt><trkpt lat="44.14998593122759" lon="11.485058522878985"><ele>718.0</ele><time>2026-04-03T13:50:38.66Z</time></trkpt><trkpt lat="44.14998380676362" lon="11.48496618301998"><ele>718.0</ele><time>2026-04-03T13:50:39.66Z</time></trkpt><trkpt lat="44.15001617963762" lon="11.48483967298461"><ele>718.0</ele><time>2026-04-03T13:50:40.66Z</time></trkpt><trkpt lat="44.15008360671553" lon="11.484709208398353"><ele>714.5</ele><time>2026-04-03T13:50:41.66Z</time></trkpt><trkpt lat="44.15017281430337" lon="11.484577378670553"><ele>711.0</ele><time>2026-04-03T13:50:42.66Z</time></trkpt><trkpt lat="44.15028051476093" lon="11.484445552441125"><ele>707.5</ele><time>2026-04-03T13:50:43.66Z</time></trkpt><trkpt lat="44.15039061258347" lon="11.484341965067475"><ele>704.0</ele><time>2026-04-03T13:50:44.66Z</time></trkpt><trkpt lat="44.150500572216785" lon="11.48427873474102"><ele>704.0</ele><time>2026-04-03T13:50:45.66Z</time></trkpt><trkpt lat="44.15061524431084" lon="11.484266728511198"><ele>704.0</ele><time>2026-04-03T13:50:46.66Z</time></trkpt><trkpt lat="44.150745655998705" lon="11.484309137680318"><ele>704.0</ele><time>2026-04-03T13:50:47.66Z</time></trkpt><trkpt lat="44.15088732801669" lon="11.484380696004674"><ele>704.0</ele><time>2026-04-03T13:50:48.66Z</time></trkpt><trkpt lat="44.15102549843256" lon="11.484455054700076"><ele>706.0</ele><time>2026-04-03T13:50:49.66Z</time></trkpt><trkpt lat="44.15116127245158" lon="11.484530255663632"><ele>708.0</ele><time>2026-04-03T13:50:50.66Z</time></trkpt><trkpt lat="44.15129103679327" lon="11.484601481183839"><ele>710.0</ele><time>2026-04-03T13:50:51.66Z</time></trkpt><trkpt lat="44.15141436224257" lon="11.484662372369401"><ele>712.0</ele><time>2026-04-03T13:50:52.66Z</time></trkpt><trkpt lat="44.151524777828094" lon="11.484692996348306"><ele>711.4000000000001</ele><time>2026-04-03T13:50:53.66Z</time></trkpt><trkpt lat="44.15163400257825" lon="11.48467774544071"><ele>710.8000000000001</ele><time>2026-04-03T13:50:54.66Z</time></trkpt><trkpt lat="44.15172817170548" lon="11.48459109346133"><ele>710.2</ele><time>2026-04-03T13:50:55.66Z</time></trkpt><trkpt lat="44.151782266169995" lon="11.484464193069183"><ele>709.6</ele><time>2026-04-03T13:50:56.66Z</time></trkpt><trkpt lat="44.15179260536591" lon="11.484305582360703"><ele>709.0</ele><time>2026-04-03T13:50:57.659Z</time></trkpt><trkpt lat="44.15175770141551" lon="11.484158107595626"><ele>709.75</ele><time>2026-04-03T13:50:58.659Z</time></trkpt><trkpt lat="44.151674764689446" lon="11.484056749745363"><ele>710.5</ele><time>2026-04-03T13:50:59.657Z</time></trkpt><trkpt lat="44.15155983123981" lon="11.483994538835235"><ele>711.25</ele><time>2026-04-03T13:51:00.657Z</time></trkpt><trkpt lat="44.151437941835525" lon="11.48396396243054"><ele>712.0</ele><time>2026-04-03T13:51:01.657Z</time></trkpt><trkpt lat="44.15132849130348" lon="11.483927476370202"><ele>712.0</ele><time>2026-04-03T13:51:02.657Z</time></trkpt><trkpt lat="44.15124584616472" lon="11.483862782503587"><ele>712.0</ele><time>2026-04-03T13:51:03.657Z</time></trkpt><trkpt lat="44.15119593536113" lon="11.483760010119278"><ele>712.0</ele><time>2026-04-03T13:51:04.657Z</time></trkpt><trkpt lat="44.15119901154679" lon="11.483641539450105"><ele>712.0</ele><time>2026-04-03T13:51:05.656Z</time></trkpt><trkpt lat="44.15124694089671" lon="11.483493074442281"><ele>712.0</ele><time>2026-04-03T13:51:06.657Z</time></trkpt><trkpt lat="44.1513390872186" lon="11.483357403188496"><ele>706.3333333333334</ele><time>2026-04-03T13:51:07.657Z</time></trkpt><trkpt lat="44.15145955527481" lon="11.483245786859657"><ele>700.6666666666666</ele><time>2026-04-03T13:51:08.656Z</time></trkpt><trkpt lat="44.151597473587294" lon="11.483147759569807"><ele>695.0</ele><time>2026-04-03T13:51:09.657Z</time></trkpt><trkpt lat="44.151745847954814" lon="11.483058112269944"><ele>695.0</ele><time>2026-04-03T13:51:10.657Z</time></trkpt><trkpt lat="44.15190558795471" lon="11.482994201844015"><ele>695.0</ele><time>2026-04-03T13:51:11.657Z</time></trkpt><trkpt lat="44.152073035933384" lon="11.482944426898165"><ele>695.0</ele><time>2026-04-03T13:51:12.657Z</time></trkpt><trkpt lat="44.1522413613349" lon="11.482893546970184"><ele>691.6666666666666</ele><time>2026-04-03T13:51:13.657Z</time></trkpt><trkpt lat="44.15240606685439" lon="11.48284111544407"><ele>688.3333333333334</ele><time>2026-04-03T13:51:14.657Z</time></trkpt><trkpt lat="44.15257269429493" lon="11.482790010061677"><ele>685.0</ele><time>2026-04-03T13:51:15.657Z</time></trkpt><trkpt lat="44.15273168862672" lon="11.482746645201017"><ele>685.0</ele><time>2026-04-03T13:51:16.657Z</time></trkpt><trkpt lat="44.152885746377514" lon="11.482690056489552"><ele>685.0</ele><time>2026-04-03T13:51:17.657Z</time></trkpt><trkpt lat="44.15304268336045" lon="11.482635135161145"><ele>685.0</ele><time>2026-04-03T13:51:18.657Z</time></trkpt><trkpt lat="44.153192660926464" lon="11.482589781229931"><ele>685.6666666666667</ele><time>2026-04-03T13:51:19.657Z</time></trkpt><trkpt lat="44.15334198353079" lon="11.48254197417578"><ele>686.3333333333334</ele><time>2026-04-03T13:51:20.657Z</time></trkpt><trkpt lat="44.15348775962566" lon="11.482456881951615"><ele>687.0</ele><time>2026-04-03T13:51:21.657Z</time></trkpt><trkpt lat="44.15362305072535" lon="11.482356275010533"><ele>687.0</ele><time>2026-04-03T13:51:22.657Z</time></trkpt><trkpt lat="44.15375492402835" lon="11.48224227825048"><ele>687.0</ele><time>2026-04-03T13:51:23.657Z</time></trkpt><trkpt lat="44.153878362074906" lon="11.482139494652335"><ele>687.0</ele><time>2026-04-03T13:51:24.657Z</time></trkpt><trkpt lat="44.15399048023305" lon="11.482046773504868"><ele>687.0</ele><time>2026-04-03T13:51:25.657Z</time></trkpt><trkpt lat="44.15409836218948" lon="11.48195490969324"><ele>684.2</ele><time>2026-04-03T13:51:26.657Z</time></trkpt><trkpt lat="44.15417576612464" lon="11.481852979207662"><ele>681.4000000000001</ele><time>2026-04-03T13:51:27.657Z</time></trkpt><trkpt lat="44.15421837095412" lon="11.48173637173149"><ele>678.5999999999999</ele><time>2026-04-03T13:51:28.657Z</time></trkpt><trkpt lat="44.15420824950832" lon="11.481602574150628"><ele>675.8</ele><time>2026-04-03T13:51:29.657Z</time></trkpt><trkpt lat="44.15415488969006" lon="11.481462650246666"><ele>673.0</ele><time>2026-04-03T13:51:30.657Z</time></trkpt><trkpt lat="44.15405981116408" lon="11.481361151132427"><ele>674.0</ele><time>2026-04-03T13:51:31.657Z</time></trkpt><trkpt lat="44.15396129667638" lon="11.48124726069479"><ele>675.0</ele><time>2026-04-03T13:51:32.657Z</time></trkpt><trkpt lat="44.153892070171935" lon="11.481123794806493"><ele>676.0</ele><time>2026-04-03T13:51:33.657Z</time></trkpt><trkpt lat="44.15385950999934" lon="11.480945402701806"><ele>677.0</ele><time>2026-04-03T13:51:34.657Z</time></trkpt><trkpt lat="44.15383514019791" lon="11.480730779284503"><ele>677.0</ele><time>2026-04-03T13:51:35.657Z</time></trkpt><trkpt lat="44.15377783713789" lon="11.48053606749306"><ele>677.0</ele><time>2026-04-03T13:51:36.657Z</time></trkpt><trkpt lat="44.15370774992458" lon="11.48034052695022"><ele>677.0</ele><time>2026-04-03T13:51:37.657Z</time></trkpt><trkpt lat="44.1536344388707" lon="11.480129335951109"><ele>673.6666666666666</ele><time>2026-04-03T13:51:38.657Z</time></trkpt><trkpt lat="44.153560509005594" lon="11.479914354974076"><ele>670.3333333333334</ele><time>2026-04-03T13:51:39.657Z</time></trkpt><trkpt lat="44.15348382904639" lon="11.479700605058705"><ele>667.0</ele><time>2026-04-03T13:51:40.657Z</time></trkpt><trkpt lat="44.1534100015408" lon="11.479489873424285"><ele>664.0</ele><time>2026-04-03T13:51:41.657Z</time></trkpt><trkpt lat="44.15335195282622" lon="11.479287651471678"><ele>661.0</ele><time>2026-04-03T13:51:42.657Z</time></trkpt><trkpt lat="44.153310988549926" lon="11.47909960553706"><ele>658.0</ele><time>2026-04-03T13:51:43.657Z</time></trkpt><trkpt lat="44.15330689979604" lon="11.478895307971738"><ele>655.0</ele><time>2026-04-03T13:51:44.657Z</time></trkpt><trkpt lat="44.15333728552681" lon="11.478686081467714"><ele>652.0</ele><time>2026-04-03T13:51:45.657Z</time></trkpt><trkpt lat="44.15338556161371" lon="11.478481774036066"><ele>649.0</ele><time>2026-04-03T13:51:46.657Z</time></trkpt><trkpt lat="44.15342562010781" lon="11.478257872252776"><ele>646.0</ele><time>2026-04-03T13:51:47.657Z</time></trkpt><trkpt lat="44.153448347527416" lon="11.478019226904191"><ele>644.3333333333334</ele><time>2026-04-03T13:51:48.657Z</time></trkpt><trkpt lat="44.15345936450613" lon="11.477754667446858"><ele>642.6666666666666</ele><time>2026-04-03T13:51:49.657Z</time></trkpt><trkpt lat="44.15346639357889" lon="11.47750023349357"><ele>641.0</ele><time>2026-04-03T13:51:50.657Z</time></trkpt><trkpt lat="44.15347441745626" lon="11.477242763328803"><ele>640.3333333333333</ele><time>2026-04-03T13:51:51.657Z</time></trkpt><trkpt lat="44.15349022217418" lon="11.47700526984271"><ele>639.6666666666666</ele><time>2026-04-03T13:51:52.657Z</time></trkpt><trkpt lat="44.15349459169462" lon="11.476772120313688"><ele>639.0</ele><time>2026-04-03T13:51:53.657Z</time></trkpt><trkpt lat="44.153507016129886" lon="11.47655309378602"><ele>639.0</ele><time>2026-04-03T13:51:54.657Z</time></trkpt><trkpt lat="44.15351936863395" lon="11.476367564670884"><ele>639.0</ele><time>2026-04-03T13:51:55.657Z</time></trkpt><trkpt lat="44.153526991400916" lon="11.476195710174519"><ele>639.0</ele><time>2026-04-03T13:51:56.657Z</time></trkpt><trkpt lat="44.15350911444726" lon="11.476040562708913"><ele>639.0</ele><time>2026-04-03T13:51:57.657Z</time></trkpt><trkpt lat="44.15345567169933" lon="11.47589186772597"><ele>638.25</ele><time>2026-04-03T13:51:58.657Z</time></trkpt><trkpt lat="44.1533816152706" lon="11.475777092712788"><ele>637.5</ele><time>2026-04-03T13:51:59.657Z</time></trkpt><trkpt lat="44.15328856805207" lon="11.475686871591959"><ele>636.75</ele><time>2026-04-03T13:52:00.657Z</time></trkpt><trkpt lat="44.15318386691026" lon="11.47564519718085"><ele>636.0</ele><time>2026-04-03T13:52:01.657Z</time></trkpt><trkpt lat="44.15306823125226" lon="11.475666937013582"><ele>632.0</ele><time>2026-04-03T13:52:02.657Z</time></trkpt><trkpt lat="44.15294693706795" lon="11.47571220584126"><ele>628.0</ele><time>2026-04-03T13:52:03.657Z</time></trkpt><trkpt lat="44.15283921856581" lon="11.475792095968897"><ele>624.0</ele><time>2026-04-03T13:52:04.657Z</time></trkpt><trkpt lat="44.15275359499587" lon="11.475891825782321"><ele>620.0</ele><time>2026-04-03T13:52:05.657Z</time></trkpt><trkpt lat="44.15269737167151" lon="11.476019264095493"><ele>620.0</ele><time>2026-04-03T13:52:06.657Z</time></trkpt><trkpt lat="44.152676649340684" lon="11.47616509488879"><ele>620.0</ele><time>2026-04-03T13:52:07.657Z</time></trkpt><trkpt lat="44.152689607447826" lon="11.476331026018373"><ele>620.0</ele><time>2026-04-03T13:52:08.657Z</time></trkpt><trkpt lat="44.15273549488944" lon="11.47652502941321"><ele>620.0</ele><time>2026-04-03T13:52:09.657Z</time></trkpt><trkpt lat="44.15279222033447" lon="11.476705876118537"><ele>619.5</ele><time>2026-04-03T13:52:10.657Z</time></trkpt><trkpt lat="44.15284238255528" lon="11.476902331008901"><ele>619.0</ele><time>2026-04-03T13:52:11.657Z</time></trkpt><trkpt lat="44.15288878743851" lon="11.47709079783503"><ele>618.5</ele><time>2026-04-03T13:52:12.657Z</time></trkpt><trkpt lat="44.15293120861979" lon="11.477258494271283"><ele>618.0</ele><time>2026-04-03T13:52:13.657Z</time></trkpt><trkpt lat="44.15293094707598" lon="11.477438285335241"><ele>618.0</ele><time>2026-04-03T13:52:14.657Z</time></trkpt><trkpt lat="44.152875283475936" lon="11.477642260601032"><ele>618.0</ele><time>2026-04-03T13:52:15.657Z</time></trkpt><trkpt lat="44.15281440540574" lon="11.477842924346396"><ele>618.0</ele><time>2026-04-03T13:52:16.657Z</time></trkpt><trkpt lat="44.152750282722074" lon="11.478051358626203"><ele>618.0</ele><time>2026-04-03T13:52:17.657Z</time></trkpt><trkpt lat="44.15269502224766" lon="11.478261658368739"><ele>618.0</ele><time>2026-04-03T13:52:18.657Z</time></trkpt><trkpt lat="44.1526380969541" lon="11.478478402603006"><ele>618.0</ele><time>2026-04-03T13:52:19.657Z</time></trkpt><trkpt lat="44.152582328167995" lon="11.478686465537367"><ele>617.5</ele><time>2026-04-03T13:52:20.657Z</time></trkpt><trkpt lat="44.15253170469318" lon="11.478886128715914"><ele>617.0</ele><time>2026-04-03T13:52:21.657Z</time></trkpt><trkpt lat="44.152482347738975" lon="11.479051692507642"><ele>616.5</ele><time>2026-04-03T13:52:22.657Z</time></trkpt><trkpt lat="44.15243198043113" lon="11.479198064460029"><ele>616.0</ele><time>2026-04-03T13:52:23.657Z</time></trkpt><trkpt lat="44.15236810215733" lon="11.47930827186111"><ele>616.0</ele><time>2026-04-03T13:52:24.657Z</time></trkpt><trkpt lat="44.152272408536085" lon="11.479386586084933"><ele>616.0</ele><time>2026-04-03T13:52:25.657Z</time></trkpt><trkpt lat="44.15214541030664" lon="11.479428644719723"><ele>616.0</ele><time>2026-04-03T13:52:26.657Z</time></trkpt><trkpt lat="44.15201697733863" lon="11.479437029617232"><ele>616.0</ele><time>2026-04-03T13:52:27.657Z</time></trkpt><trkpt lat="44.151886273785735" lon="11.479394908564739"><ele>616.0</ele><time>2026-04-03T13:52:28.657Z</time></trkpt><trkpt lat="44.15175911412153" lon="11.479292623202932"><ele>616.0</ele><time>2026-04-03T13:52:29.657Z</time></trkpt><trkpt lat="44.1516163780012" lon="11.479194735608559"><ele>616.0</ele><time>2026-04-03T13:52:30.657Z</time></trkpt><trkpt lat="44.15145511424779" lon="11.479121833793947"><ele>614.3333333333334</ele><time>2026-04-03T13:52:31.657Z</time></trkpt><trkpt lat="44.151284257140766" lon="11.479067967408957"><ele>612.6666666666666</ele><time>2026-04-03T13:52:32.657Z</time></trkpt><trkpt lat="44.15110796217576" lon="11.479027612861351"><ele>611.0</ele><time>2026-04-03T13:52:33.657Z</time></trkpt><trkpt lat="44.1509353806315" lon="11.478992941159246"><ele>611.0</ele><time>2026-04-03T13:52:34.657Z</time></trkpt><trkpt lat="44.15077756196558" lon="11.478962550783585"><ele>611.0</ele><time>2026-04-03T13:52:35.656Z</time></trkpt><trkpt lat="44.15063119772084" lon="11.478947847734872"><ele>611.0</ele><time>2026-04-03T13:52:36.656Z</time></trkpt><trkpt lat="44.150498080613836" lon="11.478966703334693"><ele>611.0</ele><time>2026-04-03T13:52:37.656Z</time></trkpt><trkpt lat="44.15036002342151" lon="11.479042710398252"><ele>608.0</ele><time>2026-04-03T13:52:38.656Z</time></trkpt><trkpt lat="44.150221966608534" lon="11.479143851443023"><ele>605.0</ele><time>2026-04-03T13:52:39.656Z</time></trkpt><trkpt lat="44.15007718304005" lon="11.479271954955912"><ele>602.0</ele><time>2026-04-03T13:52:40.656Z</time></trkpt><trkpt lat="44.14993665693861" lon="11.479403565112976"><ele>602.6666666666666</ele><time>2026-04-03T13:52:41.656Z</time></trkpt><trkpt lat="44.14978118252704" lon="11.479528754856931"><ele>603.3333333333334</ele><time>2026-04-03T13:52:42.656Z</time></trkpt><trkpt lat="44.149616348231625" lon="11.479634631993909"><ele>604.0</ele><time>2026-04-03T13:52:43.656Z</time></trkpt><trkpt lat="44.149450567109064" lon="11.479724846402107"><ele>604.0</ele><time>2026-04-03T13:52:44.656Z</time></trkpt><trkpt lat="44.149282657203045" lon="11.479793724782413"><ele>604.0</ele><time>2026-04-03T13:52:45.656Z</time></trkpt><trkpt lat="44.14911707723269" lon="11.479849394218435"><ele>604.0</ele><time>2026-04-03T13:52:46.656Z</time></trkpt><trkpt lat="44.148953076440144" lon="11.479902463437393"><ele>600.0</ele><time>2026-04-03T13:52:47.656Z</time></trkpt><trkpt lat="44.148811065028156" lon="11.479970460998622"><ele>596.0</ele><time>2026-04-03T13:52:48.656Z</time></trkpt><trkpt lat="44.14869314340533" lon="11.480052351308402"><ele>592.0</ele><time>2026-04-03T13:52:49.656Z</time></trkpt><trkpt lat="44.14860201379844" lon="11.480129033867312"><ele>588.0</ele><time>2026-04-03T13:52:50.656Z</time></trkpt><trkpt lat="44.14852390263028" lon="11.480185994959147"><ele>588.0</ele><time>2026-04-03T13:52:51.656Z</time></trkpt><trkpt lat="44.14844641321266" lon="11.480190065451904"><ele>588.0</ele><time>2026-04-03T13:52:52.656Z</time></trkpt><trkpt lat="44.148374231583595" lon="11.480158503305264"><ele>588.0</ele><time>2026-04-03T13:52:53.656Z</time></trkpt><trkpt lat="44.14833514249814" lon="11.480085730410252"><ele>588.0</ele><time>2026-04-03T13:52:54.656Z</time></trkpt><trkpt lat="44.14833994526015" lon="11.47998733598263"><ele>588.0</ele><time>2026-04-03T13:52:55.656Z</time></trkpt><trkpt lat="44.14839091971529" lon="11.479879437465232"><ele>588.0</ele><time>2026-04-03T13:52:56.656Z</time></trkpt><trkpt lat="44.14847964253952" lon="11.479781532242663"><ele>588.0</ele><time>2026-04-03T13:52:57.656Z</time></trkpt><trkpt lat="44.14859678354533" lon="11.479685013027224"><ele>588.0</ele><time>2026-04-03T13:52:58.656Z</time></trkpt><trkpt lat="44.14872389486263" lon="11.479581345923144"><ele>588.0</ele><time>2026-04-03T13:52:59.656Z</time></trkpt><trkpt lat="44.148863933344785" lon="11.4794554503847"><ele>588.3333333333334</ele><time>2026-04-03T13:53:00.656Z</time></trkpt><trkpt lat="44.1490153580086" lon="11.479317880746379"><ele>588.6666666666667</ele><time>2026-04-03T13:53:01.656Z</time></trkpt><trkpt lat="44.149158586647935" lon="11.479165654919758"><ele>589.0</ele><time>2026-04-03T13:53:02.656Z</time></trkpt><trkpt lat="44.14928953698646" lon="11.478997299421513"><ele>589.0</ele><time>2026-04-03T13:53:03.656Z</time></trkpt><trkpt lat="44.149417205681786" lon="11.478813082398739"><ele>589.0</ele><time>2026-04-03T13:53:04.656Z</time></trkpt><trkpt lat="44.149549982738" lon="11.47863938256932"><ele>589.0</ele><time>2026-04-03T13:53:05.653Z</time></trkpt><trkpt lat="44.14968591997139" lon="11.47848159790336"><ele>586.0</ele><time>2026-04-03T13:53:06.653Z</time></trkpt><trkpt lat="44.14981813694666" lon="11.478308497274925"><ele>583.0</ele><time>2026-04-03T13:53:07.653Z</time></trkpt><trkpt lat="44.14994537970496" lon="11.47813170484045"><ele>580.0</ele><time>2026-04-03T13:53:08.654Z</time></trkpt><trkpt lat="44.15008404402841" lon="11.477973983651344"><ele>574.3333333333334</ele><time>2026-04-03T13:53:09.653Z</time></trkpt><trkpt lat="44.15022229263086" lon="11.477833193240581"><ele>568.6666666666666</ele><time>2026-04-03T13:53:10.653Z</time></trkpt><trkpt lat="44.15034610869977" lon="11.477712184737566"><ele>563.0</ele><time>2026-04-03T13:53:11.653Z</time></trkpt><trkpt lat="44.150465571600456" lon="11.477612373571564"><ele>563.0</ele><time>2026-04-03T13:53:12.653Z</time></trkpt><trkpt lat="44.150593068815084" lon="11.477532129727894"><ele>563.0</ele><time>2026-04-03T13:53:13.653Z</time></trkpt><trkpt lat="44.150727738337594" lon="11.477485707116285"><ele>563.0</ele><time>2026-04-03T13:53:14.654Z</time></trkpt><trkpt lat="44.1508663378841" lon="11.47744492966024"><ele>563.0</ele><time>2026-04-03T13:53:15.653Z</time></trkpt><trkpt lat="44.15101113942267" lon="11.477405516580697"><ele>566.6666666666666</ele><time>2026-04-03T13:53:16.653Z</time></trkpt><trkpt lat="44.15115083603222" lon="11.477316825743179"><ele>570.3333333333334</ele><time>2026-04-03T13:53:17.653Z</time></trkpt><trkpt lat="44.15127537731127" lon="11.477182797623014"><ele>574.0</ele><time>2026-04-03T13:53:18.653Z</time></trkpt><trkpt lat="44.15139484828619" lon="11.4770471749217"><ele>575.6666666666667</ele><time>2026-04-03T13:53:19.653Z</time></trkpt><trkpt lat="44.151500780131734" lon="11.47688814555965"><ele>577.3333333333334</ele><time>2026-04-03T13:53:20.653Z</time></trkpt><trkpt lat="44.15157909761054" lon="11.47671670147605"><ele>579.0</ele><time>2026-04-03T13:53:21.653Z</time></trkpt><trkpt lat="44.15161287794342" lon="11.476514687344208"><ele>579.0</ele><time>2026-04-03T13:53:22.653Z</time></trkpt><trkpt lat="44.151607206507364" lon="11.476275926328206"><ele>579.0</ele><time>2026-04-03T13:53:23.653Z</time></trkpt><trkpt lat="44.151588320044006" lon="11.476014155240808"><ele>579.0</ele><time>2026-04-03T13:53:24.653Z</time></trkpt><trkpt lat="44.15156794086902" lon="11.475739247099924"><ele>577.0</ele><time>2026-04-03T13:53:25.653Z</time></trkpt><trkpt lat="44.151544046340426" lon="11.475446883139565"><ele>575.0</ele><time>2026-04-03T13:53:26.653Z</time></trkpt><trkpt lat="44.15152175157581" lon="11.475161346964788"><ele>573.0</ele><time>2026-04-03T13:53:27.653Z</time></trkpt><trkpt lat="44.15149793406346" lon="11.474895532976525"><ele>558.0</ele><time>2026-04-03T13:53:28.653Z</time></trkpt><trkpt lat="44.151467763255134" lon="11.474639723633"><ele>543.0</ele><time>2026-04-03T13:53:29.653Z</time></trkpt><trkpt lat="44.15142031121003" lon="11.474387618841691"><ele>528.0</ele><time>2026-04-03T13:53:30.653Z</time></trkpt><trkpt lat="44.151362158950256" lon="11.474129280730601"><ele>528.0</ele><time>2026-04-03T13:53:31.653Z</time></trkpt><trkpt lat="44.15131242108981" lon="11.473873758201773"><ele>528.0</ele><time>2026-04-03T13:53:32.653Z</time></trkpt><trkpt lat="44.15126674847803" lon="11.473612829981228"><ele>528.0</ele><time>2026-04-03T13:53:33.653Z</time></trkpt><trkpt lat="44.15122787054499" lon="11.473369529919374"><ele>530.3333333333334</ele><time>2026-04-03T13:53:34.653Z</time></trkpt><trkpt lat="44.1511949568914" lon="11.473131050636667"><ele>532.6666666666667</ele><time>2026-04-03T13:53:35.653Z</time></trkpt><trkpt lat="44.1511515982819" lon="11.472888983376606"><ele>535.0</ele><time>2026-04-03T13:53:36.653Z</time></trkpt><trkpt lat="44.15108747848894" lon="11.472657471290235"><ele>538.6666666666667</ele><time>2026-04-03T13:53:37.653Z</time></trkpt><trkpt lat="44.15102292327352" lon="11.47245707148047"><ele>542.3333333333334</ele><time>2026-04-03T13:53:38.653Z</time></trkpt><trkpt lat="44.15093616430917" lon="11.472275667545697"><ele>546.0</ele><time>2026-04-03T13:53:39.652Z</time></trkpt><trkpt lat="44.15084134894633" lon="11.472135388152608"><ele>547.0</ele><time>2026-04-03T13:53:40.652Z</time></trkpt><trkpt lat="44.150758709783794" lon="11.472016770000137"><ele>548.0</ele><time>2026-04-03T13:53:41.652Z</time></trkpt><trkpt lat="44.150695561678816" lon="11.471896384240381"><ele>549.0</ele><time>2026-04-03T13:53:42.652Z</time></trkpt><trkpt lat="44.15065505070837" lon="11.471771850824709"><ele>550.0</ele><time>2026-04-03T13:53:43.651Z</time></trkpt><trkpt lat="44.15064096785055" lon="11.471642028911596"><ele>551.0</ele><time>2026-04-03T13:53:44.651Z</time></trkpt><trkpt lat="44.15064919306361" lon="11.47151097490536"><ele>548.5</ele><time>2026-04-03T13:53:45.651Z</time></trkpt><trkpt lat="44.15069406964424" lon="11.471375920542426"><ele>546.0</ele><time>2026-04-03T13:53:46.651Z</time></trkpt><trkpt lat="44.15076248718041" lon="11.471229381862686"><ele>543.5</ele><time>2026-04-03T13:53:47.651Z</time></trkpt><trkpt lat="44.15085513556997" lon="11.471071144016449"><ele>541.0</ele><time>2026-04-03T13:53:48.651Z</time></trkpt><trkpt lat="44.150952831030274" lon="11.470896176934188"><ele>541.0</ele><time>2026-04-03T13:53:49.651Z</time></trkpt><trkpt lat="44.15107084512811" lon="11.47070915024235"><ele>541.0</ele><time>2026-04-03T13:53:50.651Z</time></trkpt><trkpt lat="44.151180152093346" lon="11.470519083799331"><ele>541.0</ele><time>2026-04-03T13:53:51.651Z</time></trkpt><trkpt lat="44.1512965748876" lon="11.470327170224236"><ele>541.75</ele><time>2026-04-03T13:53:52.651Z</time></trkpt><trkpt lat="44.15139650919781" lon="11.4701508119701"><ele>542.5</ele><time>2026-04-03T13:53:53.651Z</time></trkpt><trkpt lat="44.15148498154126" lon="11.469998001858716"><ele>543.25</ele><time>2026-04-03T13:53:54.651Z</time></trkpt><trkpt lat="44.15156490162418" lon="11.469879633831331"><ele>544.0</ele><time>2026-04-03T13:53:55.651Z</time></trkpt><trkpt lat="44.151653984860744" lon="11.469796159404012"><ele>544.0</ele><time>2026-04-03T13:53:56.651Z</time></trkpt><trkpt lat="44.15174877555285" lon="11.469765013358849"><ele>544.0</ele><time>2026-04-03T13:53:57.651Z</time></trkpt><trkpt lat="44.15183995593858" lon="11.469799582161897"><ele>544.0</ele><time>2026-04-03T13:53:58.651Z</time></trkpt><trkpt lat="44.15192704767007" lon="11.469883943434773"><ele>544.0</ele><time>2026-04-03T13:53:59.651Z</time></trkpt><trkpt lat="44.151998330034935" lon="11.4700151056827"><ele>544.0</ele><time>2026-04-03T13:54:00.651Z</time></trkpt><trkpt lat="44.152050508903514" lon="11.470189896279967"><ele>544.0</ele><time>2026-04-03T13:54:01.651Z</time></trkpt><trkpt lat="44.15209327134627" lon="11.470395462315478"><ele>544.0</ele><time>2026-04-03T13:54:02.651Z</time></trkpt><trkpt lat="44.15214195571231" lon="11.470601781336198"><ele>544.0</ele><time>2026-04-03T13:54:03.651Z</time></trkpt><trkpt lat="44.15220331043175" lon="11.470802453516468"><ele>542.6666666666667</ele><time>2026-04-03T13:54:04.651Z</time></trkpt><trkpt lat="44.1523039304216" lon="11.47098362492577"><ele>541.3333333333334</ele><time>2026-04-03T13:54:05.651Z</time></trkpt><trkpt lat="44.1524490690793" lon="11.471106502894822"><ele>540.0</ele><time>2026-04-03T13:54:06.651Z</time></trkpt><trkpt lat="44.15263081996291" lon="11.471194558983296"><ele>540.0</ele><time>2026-04-03T13:54:07.651Z</time></trkpt><trkpt lat="44.152827244142415" lon="11.47125489621908"><ele>540.0</ele><time>2026-04-03T13:54:08.651Z</time></trkpt><trkpt lat="44.15302019024451" lon="11.471302665679973"><ele>540.0</ele><time>2026-04-03T13:54:09.651Z</time></trkpt><trkpt lat="44.15319560324237" lon="11.471383314232199"><ele>540.6666666666666</ele><time>2026-04-03T13:54:10.651Z</time></trkpt><trkpt lat="44.153374962230885" lon="11.471485189341719"><ele>541.3333333333333</ele><time>2026-04-03T13:54:11.651Z</time></trkpt><trkpt lat="44.15355489941687" lon="11.471599497524577"><ele>542.0</ele><time>2026-04-03T13:54:12.651Z</time></trkpt><trkpt lat="44.15372099087686" lon="11.471719966276753"><ele>542.0</ele><time>2026-04-03T13:54:13.651Z</time></trkpt><trkpt lat="44.153865316400335" lon="11.471843714418034"><ele>542.0</ele><time>2026-04-03T13:54:14.651Z</time></trkpt><trkpt lat="44.15398375268926" lon="11.471982859902235"><ele>542.0</ele><time>2026-04-03T13:54:15.651Z</time></trkpt><trkpt lat="44.154106998681804" lon="11.472109854441676"><ele>544.0</ele><time>2026-04-03T13:54:16.651Z</time></trkpt><trkpt lat="44.154258608229874" lon="11.472181494812736"><ele>546.0</ele><time>2026-04-03T13:54:17.651Z</time></trkpt><trkpt lat="44.15442979500358" lon="11.472203746226501"><ele>548.0</ele><time>2026-04-03T13:54:18.651Z</time></trkpt><trkpt lat="44.15459890775783" lon="11.472210506542922"><ele>548.0</ele><time>2026-04-03T13:54:19.651Z</time></trkpt><trkpt lat="44.15476703157435" lon="11.47218883514963"><ele>548.0</ele><time>2026-04-03T13:54:20.651Z</time></trkpt><trkpt lat="44.15491750843121" lon="11.472135994462906"><ele>548.0</ele><time>2026-04-03T13:54:21.651Z</time></trkpt><trkpt lat="44.15505854456231" lon="11.472027177269666"><ele>543.0</ele><time>2026-04-03T13:54:22.651Z</time></trkpt><trkpt lat="44.155180782233124" lon="11.471891298337404"><ele>538.0</ele><time>2026-04-03T13:54:23.651Z</time></trkpt><trkpt lat="44.15528349711451" lon="11.471748679107206"><ele>533.0</ele><time>2026-04-03T13:54:24.651Z</time></trkpt><trkpt lat="44.15537543694959" lon="11.47164567669619"><ele>528.0</ele><time>2026-04-03T13:54:25.651Z</time></trkpt><trkpt lat="44.155475948683936" lon="11.471597401207722"><ele>528.0</ele><time>2026-04-03T13:54:26.651Z</time></trkpt><trkpt lat="44.15557516533951" lon="11.471614706426156"><ele>528.0</ele><time>2026-04-03T13:54:27.651Z</time></trkpt><trkpt lat="44.15565074477805" lon="11.47169376394947"><ele>528.0</ele><time>2026-04-03T13:54:28.651Z</time></trkpt><trkpt lat="44.15570886188305" lon="11.471839473221884"><ele>528.0</ele><time>2026-04-03T13:54:29.651Z</time></trkpt><trkpt lat="44.15574304673925" lon="11.471999793161503"><ele>528.0</ele><time>2026-04-03T13:54:30.651Z</time></trkpt><trkpt lat="44.15580068075125" lon="11.472146838656457"><ele>529.75</ele><time>2026-04-03T13:54:31.651Z</time></trkpt><trkpt lat="44.15589303068009" lon="11.472277547987268"><ele>531.5</ele><time>2026-04-03T13:54:32.651Z</time></trkpt><trkpt lat="44.15602894866464" lon="11.47238296281422"><ele>533.25</ele><time>2026-04-03T13:54:33.651Z</time></trkpt><trkpt lat="44.15616235093855" lon="11.47247100543782"><ele>535.0</ele><time>2026-04-03T13:54:34.651Z</time></trkpt><trkpt lat="44.156273025974336" lon="11.472567225788287"><ele>535.0</ele><time>2026-04-03T13:54:35.651Z</time></trkpt><trkpt lat="44.15636594861721" lon="11.472668137912486"><ele>535.0</ele><time>2026-04-03T13:54:36.651Z</time></trkpt><trkpt lat="44.15643042299234" lon="11.47279130955698"><ele>535.0</ele><time>2026-04-03T13:54:37.651Z</time></trkpt><trkpt lat="44.1564651714615" lon="11.472948320547115"><ele>535.0</ele><time>2026-04-03T13:54:38.651Z</time></trkpt><trkpt lat="44.15646842489264" lon="11.473111897758912"><ele>536.25</ele><time>2026-04-03T13:54:39.651Z</time></trkpt><trkpt lat="44.156446519922845" lon="11.473285062976473"><ele>537.5</ele><time>2026-04-03T13:54:40.651Z</time></trkpt><trkpt lat="44.15641800014341" lon="11.473452870510528"><ele>538.75</ele><time>2026-04-03T13:54:41.651Z</time></trkpt><trkpt lat="44.15639921890689" lon="11.473614844357835"><ele>540.0</ele><time>2026-04-03T13:54:42.651Z</time></trkpt><trkpt lat="44.15639522582784" lon="11.473756453025134"><ele>540.0</ele><time>2026-04-03T13:54:43.651Z</time></trkpt><trkpt lat="44.15641103838657" lon="11.47389225125836"><ele>540.0</ele><time>2026-04-03T13:54:44.651Z</time></trkpt><trkpt lat="44.156427138843945" lon="11.474042902154041"><ele>540.0</ele><time>2026-04-03T13:54:45.651Z</time></trkpt><trkpt lat="44.156436876254745" lon="11.47419557644026"><ele>540.0</ele><time>2026-04-03T13:54:46.651Z</time></trkpt><trkpt lat="44.156453099094186" lon="11.474355104512421"><ele>540.0</ele><time>2026-04-03T13:54:47.651Z</time></trkpt><trkpt lat="44.156482441995976" lon="11.474536820328783"><ele>541.5</ele><time>2026-04-03T13:54:48.651Z</time></trkpt><trkpt lat="44.156524751898004" lon="11.4747224250339"><ele>543.0</ele><time>2026-04-03T13:54:49.651Z</time></trkpt><trkpt lat="44.15657700986287" lon="11.47490982658508"><ele>544.5</ele><time>2026-04-03T13:54:50.651Z</time></trkpt><trkpt lat="44.15664930007629" lon="11.475090728626302"><ele>546.0</ele><time>2026-04-03T13:54:51.651Z</time></trkpt><trkpt lat="44.15674441755684" lon="11.475247619943698"><ele>540.0</ele><time>2026-04-03T13:54:52.651Z</time></trkpt><trkpt lat="44.1568579130241" lon="11.475385527702226"><ele>534.0</ele><time>2026-04-03T13:54:53.651Z</time></trkpt><trkpt lat="44.156978388447726" lon="11.475540085615226"><ele>528.0</ele><time>2026-04-03T13:54:54.651Z</time></trkpt><trkpt lat="44.15708064056671" lon="11.475725127628392"><ele>528.0</ele><time>2026-04-03T13:54:55.651Z</time></trkpt><trkpt lat="44.157172567837314" lon="11.475895929182048"><ele>528.0</ele><time>2026-04-03T13:54:56.651Z</time></trkpt><trkpt lat="44.15728008816735" lon="11.47604453164283"><ele>528.0</ele><time>2026-04-03T13:54:57.651Z</time></trkpt><trkpt lat="44.15739888545335" lon="11.47615740414925"><ele>528.0</ele><time>2026-04-03T13:54:58.651Z</time></trkpt><trkpt lat="44.15753295136695" lon="11.476252125597515"><ele>525.5</ele><time>2026-04-03T13:54:59.651Z</time></trkpt><trkpt lat="44.15766816441478" lon="11.47634119464682"><ele>523.0</ele><time>2026-04-03T13:55:00.651Z</time></trkpt><trkpt lat="44.157784248845665" lon="11.47642454237574"><ele>520.5</ele><time>2026-04-03T13:55:01.651Z</time></trkpt><trkpt lat="44.15788062632858" lon="11.476494473889417"><ele>518.0</ele><time>2026-04-03T13:55:02.651Z</time></trkpt><trkpt lat="44.157979279906044" lon="11.476518243850999"><ele>518.0</ele><time>2026-04-03T13:55:03.651Z</time></trkpt><trkpt lat="44.15806836731487" lon="11.476481364813269"><ele>518.0</ele><time>2026-04-03T13:55:04.651Z</time></trkpt><trkpt lat="44.15812781472392" lon="11.476374737072426"><ele>518.0</ele><time>2026-04-03T13:55:05.651Z</time></trkpt><trkpt lat="44.1581582797101" lon="11.476232645140957"><ele>518.0</ele><time>2026-04-03T13:55:06.651Z</time></trkpt><trkpt lat="44.15813225922859" lon="11.47610547212484"><ele>518.0</ele><time>2026-04-03T13:55:07.651Z</time></trkpt><trkpt lat="44.158054898967414" lon="11.476005446791067"><ele>514.5</ele><time>2026-04-03T13:55:08.651Z</time></trkpt><trkpt lat="44.1579472033945" lon="11.475934639304798"><ele>511.0</ele><time>2026-04-03T13:55:09.651Z</time></trkpt><trkpt lat="44.157824346600435" lon="11.475886586350553"><ele>507.5</ele><time>2026-04-03T13:55:10.651Z</time></trkpt><trkpt lat="44.157700931614244" lon="11.475833100289258"><ele>504.0</ele><time>2026-04-03T13:55:11.649Z</time></trkpt><trkpt lat="44.15756927854977" lon="11.475749642921892"><ele>504.0</ele><time>2026-04-03T13:55:12.649Z</time></trkpt><trkpt lat="44.15744452969994" lon="11.475656957554211"><ele>504.0</ele><time>2026-04-03T13:55:13.649Z</time></trkpt><trkpt lat="44.15733729033094" lon="11.475542466379501"><ele>504.0</ele><time>2026-04-03T13:55:14.649Z</time></trkpt><trkpt lat="44.157253402160386" lon="11.475402697337817"><ele>504.0</ele><time>2026-04-03T13:55:15.649Z</time></trkpt><trkpt lat="44.15720707195571" lon="11.475223896661785"><ele>506.33333333333337</ele><time>2026-04-03T13:55:16.649Z</time></trkpt><trkpt lat="44.15719338525722" lon="11.475002058546098"><ele>508.6666666666667</ele><time>2026-04-03T13:55:17.649Z</time></trkpt><trkpt lat="44.157196503769455" lon="11.474761066628394"><ele>511.0</ele><time>2026-04-03T13:55:18.649Z</time></trkpt><trkpt lat="44.15720431786014" lon="11.474517924189163"><ele>511.0</ele><time>2026-04-03T13:55:19.649Z</time></trkpt><trkpt lat="44.15721920134717" lon="11.474280656433416"><ele>511.0</ele><time>2026-04-03T13:55:20.649Z</time></trkpt><trkpt lat="44.15723609284125" lon="11.474054631508045"><ele>511.0</ele><time>2026-04-03T13:55:21.649Z</time></trkpt><trkpt lat="44.15724690177059" lon="11.473845813393678"><ele>510.5</ele><time>2026-04-03T13:55:22.649Z</time></trkpt><trkpt lat="44.15723349811116" lon="11.473664447422754"><ele>510.0</ele><time>2026-04-03T13:55:23.649Z</time></trkpt><trkpt lat="44.15718763868218" lon="11.473513280912986"><ele>509.5</ele><time>2026-04-03T13:55:24.648Z</time></trkpt><trkpt lat="44.157157171186086" lon="11.473366417492985"><ele>509.0</ele><time>2026-04-03T13:55:25.648Z</time></trkpt><trkpt lat="44.15715437728059" lon="11.47322358131222"><ele>509.0</ele><time>2026-04-03T13:55:26.648Z</time></trkpt><trkpt lat="44.15719390599723" lon="11.473071522515975"><ele>509.0</ele><time>2026-04-03T13:55:27.648Z</time></trkpt><trkpt lat="44.1572710917414" lon="11.472911090401587"><ele>509.0</ele><time>2026-04-03T13:55:28.648Z</time></trkpt><trkpt lat="44.15735534721396" lon="11.47275142565034"><ele>509.0</ele><time>2026-04-03T13:55:29.648Z</time></trkpt><trkpt lat="44.15743370069332" lon="11.472590688760778"><ele>501.5</ele><time>2026-04-03T13:55:30.648Z</time></trkpt><trkpt lat="44.15749911384856" lon="11.472414630362088"><ele>494.0</ele><time>2026-04-03T13:55:31.648Z</time></trkpt><trkpt lat="44.15753823272598" lon="11.472225780027177"><ele>486.5</ele><time>2026-04-03T13:55:32.648Z</time></trkpt><trkpt lat="44.157555761354885" lon="11.472029854685848"><ele>479.0</ele><time>2026-04-03T13:55:33.648Z</time></trkpt><trkpt lat="44.15754949897558" lon="11.471841849096933"><ele>477.75</ele><time>2026-04-03T13:55:34.648Z</time></trkpt><trkpt lat="44.15752720027031" lon="11.471663228370637"><ele>476.5</ele><time>2026-04-03T13:55:35.648Z</time></trkpt><trkpt lat="44.15747678272778" lon="11.471506729145334"><ele>475.25</ele><time>2026-04-03T13:55:36.648Z</time></trkpt><trkpt lat="44.15739221319386" lon="11.47136790707903"><ele>474.0</ele><time>2026-04-03T13:55:37.648Z</time></trkpt><trkpt lat="44.157268433419" lon="11.47124111241889"><ele>473.0</ele><time>2026-04-03T13:55:38.648Z</time></trkpt><trkpt lat="44.15712347985977" lon="11.471128082499314"><ele>472.0</ele><time>2026-04-03T13:55:39.648Z</time></trkpt><trkpt lat="44.15697443569416" lon="11.471010586253279"><ele>471.0</ele><time>2026-04-03T13:55:40.648Z</time></trkpt><trkpt lat="44.15682312355235" lon="11.470882639908448"><ele>471.0</ele><time>2026-04-03T13:55:41.648Z</time></trkpt><trkpt lat="44.156668251446526" lon="11.470748261579251"><ele>471.0</ele><time>2026-04-03T13:55:42.648Z</time></trkpt><trkpt lat="44.1565150558493" lon="11.470606867362958"><ele>471.0</ele><time>2026-04-03T13:55:43.648Z</time></trkpt><trkpt lat="44.15637047119967" lon="11.470463916718682"><ele>471.33333333333337</ele><time>2026-04-03T13:55:44.648Z</time></trkpt><trkpt lat="44.156237256917954" lon="11.470305858338206"><ele>471.6666666666667</ele><time>2026-04-03T13:55:45.648Z</time></trkpt><trkpt lat="44.15612570799919" lon="11.470131503452441"><ele>472.0</ele><time>2026-04-03T13:55:46.648Z</time></trkpt><trkpt lat="44.156028842893484" lon="11.469941167978284"><ele>472.0</ele><time>2026-04-03T13:55:47.648Z</time></trkpt><trkpt lat="44.15593501208577" lon="11.46974746891248"><ele>472.0</ele><time>2026-04-03T13:55:48.648Z</time></trkpt><trkpt lat="44.155830674017864" lon="11.469566216587905"><ele>472.0</ele><time>2026-04-03T13:55:49.648Z</time></trkpt><trkpt lat="44.15572850575669" lon="11.469400130548738"><ele>470.25</ele><time>2026-04-03T13:55:50.648Z</time></trkpt><trkpt lat="44.15564449311689" lon="11.469253493854495"><ele>468.5</ele><time>2026-04-03T13:55:51.648Z</time></trkpt><trkpt lat="44.15557528245317" lon="11.469103241927352"><ele>466.75</ele><time>2026-04-03T13:55:52.648Z</time></trkpt><trkpt lat="44.15553017950643" lon="11.46895376939341"><ele>465.0</ele><time>2026-04-03T13:55:53.648Z</time></trkpt><trkpt lat="44.15551299232063" lon="11.468797621811824"><ele>461.0</ele><time>2026-04-03T13:55:54.648Z</time></trkpt><trkpt lat="44.15554161407178" lon="11.468638843993302"><ele>457.0</ele><time>2026-04-03T13:55:55.648Z</time></trkpt><trkpt lat="44.15560875737315" lon="11.468501499337613"><ele>453.0</ele><time>2026-04-03T13:55:56.648Z</time></trkpt><trkpt lat="44.155710906698815" lon="11.46837461004083"><ele>449.0</ele><time>2026-04-03T13:55:57.648Z</time></trkpt><trkpt lat="44.15583325725363" lon="11.46830167576061"><ele>447.0</ele><time>2026-04-03T13:55:58.648Z</time></trkpt><trkpt lat="44.15596335035922" lon="11.468284612281128"><ele>445.0</ele><time>2026-04-03T13:55:59.648Z</time></trkpt><trkpt lat="44.15609676159189" lon="11.468317217844183"><ele>443.0</ele><time>2026-04-03T13:56:00.648Z</time></trkpt><trkpt lat="44.15622515957892" lon="11.468398509875097"><ele>441.0</ele><time>2026-04-03T13:56:01.648Z</time></trkpt><trkpt lat="44.15635216927704" lon="11.468513780696878"><ele>441.0</ele><time>2026-04-03T13:56:02.648Z</time></trkpt><trkpt lat="44.15648030684572" lon="11.468648749282822"><ele>441.0</ele><time>2026-04-03T13:56:03.648Z</time></trkpt><trkpt lat="44.15659472560465" lon="11.46879735452701"><ele>441.0</ele><time>2026-04-03T13:56:04.648Z</time></trkpt><trkpt lat="44.1566815332925" lon="11.468950020080975"><ele>440.6</ele><time>2026-04-03T13:56:05.648Z</time></trkpt><trkpt lat="44.15673825089903" lon="11.469111644566604"><ele>440.20000000000005</ele><time>2026-04-03T13:56:06.648Z</time></trkpt><trkpt lat="44.15677295419026" lon="11.469260306455753"><ele>439.79999999999995</ele><time>2026-04-03T13:56:07.648Z</time></trkpt><trkpt lat="44.156813031939485" lon="11.469393854548972"><ele>439.4</ele><time>2026-04-03T13:56:08.648Z</time></trkpt><trkpt lat="44.1568783083855" lon="11.469478114716466"><ele>439.0</ele><time>2026-04-03T13:56:09.648Z</time></trkpt><trkpt lat="44.15694834175272" lon="11.469519937227702"><ele>439.0</ele><time>2026-04-03T13:56:10.648Z</time></trkpt><trkpt lat="44.157032662702704" lon="11.469507493982528"><ele>439.0</ele><time>2026-04-03T13:56:11.648Z</time></trkpt><trkpt lat="44.15709990673619" lon="11.46943232155208"><ele>439.0</ele><time>2026-04-03T13:56:12.648Z</time></trkpt><trkpt lat="44.157116960532264" lon="11.469309511948055"><ele>439.0</ele><time>2026-04-03T13:56:13.648Z</time></trkpt><trkpt lat="44.15709824190143" lon="11.469151078932585"><ele>439.0</ele><time>2026-04-03T13:56:14.648Z</time></trkpt><trkpt lat="44.15703637535376" lon="11.468983596810613"><ele>439.0</ele><time>2026-04-03T13:56:15.648Z</time></trkpt><trkpt lat="44.15696336382444" lon="11.468810996227246"><ele>439.0</ele><time>2026-04-03T13:56:16.648Z</time></trkpt><trkpt lat="44.15688347130178" lon="11.46861682225813"><ele>439.0</ele><time>2026-04-03T13:56:17.648Z</time></trkpt><trkpt lat="44.15680432669188" lon="11.468408474874288"><ele>435.33333333333337</ele><time>2026-04-03T13:56:18.648Z</time></trkpt><trkpt lat="44.1567219514266" lon="11.468204816736483"><ele>431.66666666666663</ele><time>2026-04-03T13:56:19.648Z</time></trkpt><trkpt lat="44.15663440118236" lon="11.467999592821425"><ele>428.0</ele><time>2026-04-03T13:56:20.648Z</time></trkpt><trkpt lat="44.15654842048275" lon="11.467790426990838"><ele>427.66666666666663</ele><time>2026-04-03T13:56:21.648Z</time></trkpt><trkpt lat="44.1564617987514" lon="11.467591313998247"><ele>427.33333333333337</ele><time>2026-04-03T13:56:22.648Z</time></trkpt><trkpt lat="44.15637766401682" lon="11.467387361999034"><ele>427.0</ele><time>2026-04-03T13:56:23.648Z</time></trkpt><trkpt lat="44.15629445427507" lon="11.467203134979652"><ele>424.5</ele><time>2026-04-03T13:56:24.648Z</time></trkpt><trkpt lat="44.15621168000589" lon="11.467038586491903"><ele>422.0</ele><time>2026-04-03T13:56:25.648Z</time></trkpt><trkpt lat="44.156141412080295" lon="11.466889566744253"><ele>419.5</ele><time>2026-04-03T13:56:26.648Z</time></trkpt><trkpt lat="44.156093676757244" lon="11.466746382380295"><ele>417.0</ele><time>2026-04-03T13:56:27.648Z</time></trkpt><trkpt lat="44.156075443632716" lon="11.466594625721388"><ele>417.0</ele><time>2026-04-03T13:56:28.648Z</time></trkpt><trkpt lat="44.156090984914684" lon="11.466450457097485"><ele>417.0</ele><time>2026-04-03T13:56:29.648Z</time></trkpt><trkpt lat="44.15614588395057" lon="11.466328151118109"><ele>417.0</ele><time>2026-04-03T13:56:30.648Z</time></trkpt><trkpt lat="44.15623147088811" lon="11.466238101802324"><ele>417.0</ele><time>2026-04-03T13:56:31.648Z</time></trkpt><trkpt lat="44.15633487560756" lon="11.466198124739229"><ele>417.0</ele><time>2026-04-03T13:56:32.648Z</time></trkpt><trkpt lat="44.15644766121202" lon="11.466181275528768"><ele>413.0</ele><time>2026-04-03T13:56:33.648Z</time></trkpt><trkpt lat="44.1565603409626" lon="11.466231637065691"><ele>409.0</ele><time>2026-04-03T13:56:34.648Z</time></trkpt><trkpt lat="44.156666424614215" lon="11.46633835008196"><ele>405.0</ele><time>2026-04-03T13:56:35.648Z</time></trkpt><trkpt lat="44.15676064104396" lon="11.466490444230123"><ele>401.0</ele><time>2026-04-03T13:56:36.648Z</time></trkpt><trkpt lat="44.15685461700067" lon="11.466667569106704"><ele>401.0</ele><time>2026-04-03T13:56:37.648Z</time></trkpt><trkpt lat="44.15695074830937" lon="11.46682933523072"><ele>401.0</ele><time>2026-04-03T13:56:38.648Z</time></trkpt><trkpt lat="44.15703617808209" lon="11.466977469762409"><ele>401.0</ele><time>2026-04-03T13:56:39.648Z</time></trkpt><trkpt lat="44.15712819874665" lon="11.467080498945926"><ele>401.0</ele><time>2026-04-03T13:56:40.648Z</time></trkpt><trkpt lat="44.15722593175595" lon="11.467121951967469"><ele>401.0</ele><time>2026-04-03T13:56:41.648Z</time></trkpt><trkpt lat="44.157329400262654" lon="11.467096607469674"><ele>401.0</ele><time>2026-04-03T13:56:42.648Z</time></trkpt><trkpt lat="44.15739999112168" lon="11.467001003667026"><ele>401.0</ele><time>2026-04-03T13:56:43.648Z</time></trkpt><trkpt lat="44.157427242063456" lon="11.466854747810027"><ele>401.0</ele><time>2026-04-03T13:56:44.648Z</time></trkpt><trkpt lat="44.15740489164345" lon="11.466672766955226"><ele>401.0</ele><time>2026-04-03T13:56:45.648Z</time></trkpt><trkpt lat="44.15735471445594" lon="11.466465045244266"><ele>398.66666666666663</ele><time>2026-04-03T13:56:46.648Z</time></trkpt><trkpt lat="44.15729472596027" lon="11.466251355878411"><ele>396.33333333333337</ele><time>2026-04-03T13:56:47.648Z</time></trkpt><trkpt lat="44.15723364412673" lon="11.466059141142095"><ele>394.0</ele><time>2026-04-03T13:56:48.648Z</time></trkpt><trkpt lat="44.15714224553201" lon="11.46589231413698"><ele>394.0</ele><time>2026-04-03T13:56:49.648Z</time></trkpt><trkpt lat="44.157031713928404" lon="11.4657546009483"><ele>394.0</ele><time>2026-04-03T13:56:50.648Z</time></trkpt><trkpt lat="44.15693596570744" lon="11.465630710703717"><ele>394.0</ele><time>2026-04-03T13:56:51.648Z</time></trkpt><trkpt lat="44.15688052549944" lon="11.46551540596717"><ele>394.0</ele><time>2026-04-03T13:56:52.648Z</time></trkpt><trkpt lat="44.15686192289898" lon="11.465404369237994"><ele>391.0</ele><time>2026-04-03T13:56:53.648Z</time></trkpt><trkpt lat="44.1568862956903" lon="11.465314356079512"><ele>388.0</ele><time>2026-04-03T13:56:54.648Z</time></trkpt><trkpt lat="44.156953224612394" lon="11.465267285827334"><ele>385.0</ele><time>2026-04-03T13:56:55.648Z</time></trkpt><trkpt lat="44.15705093385145" lon="11.46527423574232"><ele>382.0</ele><time>2026-04-03T13:56:56.648Z</time></trkpt><trkpt lat="44.157174597816" lon="11.465342315291256"><ele>379.0</ele><time>2026-04-03T13:56:57.648Z</time></trkpt><trkpt lat="44.1572967409619" lon="11.465436278633772"><ele>379.3333333333333</ele><time>2026-04-03T13:56:58.647Z</time></trkpt><trkpt lat="44.15743100173373" lon="11.465543028266943"><ele>379.6666666666667</ele><time>2026-04-03T13:56:59.647Z</time></trkpt><trkpt lat="44.15755892049131" lon="11.46567625308583"><ele>380.0</ele><time>2026-04-03T13:57:00.647Z</time></trkpt><trkpt lat="44.157673854102036" lon="11.465840079893086"><ele>380.0</ele><time>2026-04-03T13:57:01.647Z</time></trkpt><trkpt lat="44.15778084043954" lon="11.466013489299009"><ele>380.0</ele><time>2026-04-03T13:57:02.647Z</time></trkpt><trkpt lat="44.157885597636756" lon="11.466181345102333"><ele>380.0</ele><time>2026-04-03T13:57:03.647Z</time></trkpt><trkpt lat="44.158003612856014" lon="11.46631764085695"><ele>382.0</ele><time>2026-04-03T13:57:04.647Z</time></trkpt><trkpt lat="44.158127595657255" lon="11.466413981558242"><ele>384.0</ele><time>2026-04-03T13:57:05.647Z</time></trkpt><trkpt lat="44.15825497286831" lon="11.466497346797029"><ele>386.0</ele><time>2026-04-03T13:57:06.647Z</time></trkpt><trkpt lat="44.15837408895729" lon="11.466554291113201"><ele>388.0</ele><time>2026-04-03T13:57:07.647Z</time></trkpt><trkpt lat="44.15848261717777" lon="11.46656358655313"><ele>384.0</ele><time>2026-04-03T13:57:08.647Z</time></trkpt><trkpt lat="44.15858564375281" lon="11.466510356416478"><ele>380.0</ele><time>2026-04-03T13:57:09.647Z</time></trkpt><trkpt lat="44.158656330038525" lon="11.466399796683618"><ele>376.0</ele><time>2026-04-03T13:57:10.647Z</time></trkpt><trkpt lat="44.15870346534533" lon="11.466243159684307"><ele>372.0</ele><time>2026-04-03T13:57:11.647Z</time></trkpt><trkpt lat="44.15872720078769" lon="11.46606057039842"><ele>370.75</ele><time>2026-04-03T13:57:12.647Z</time></trkpt><trkpt lat="44.15871548677725" lon="11.46586829384751"><ele>369.5</ele><time>2026-04-03T13:57:13.647Z</time></trkpt><trkpt lat="44.158665242631486" lon="11.465676581323777"><ele>368.25</ele><time>2026-04-03T13:57:14.647Z</time></trkpt><trkpt lat="44.15858160806317" lon="11.465495513372634"><ele>367.0</ele><time>2026-04-03T13:57:15.647Z</time></trkpt><trkpt lat="44.15846561275861" lon="11.46533851979731"><ele>367.0</ele><time>2026-04-03T13:57:16.647Z</time></trkpt><trkpt lat="44.15832936286673" lon="11.465189578423093"><ele>367.0</ele><time>2026-04-03T13:57:17.646Z</time></trkpt><trkpt lat="44.158190677635766" lon="11.46502575143663"><ele>367.0</ele><time>2026-04-03T13:57:18.645Z</time></trkpt><trkpt lat="44.15805465804143" lon="11.464855571391265"><ele>367.0</ele><time>2026-04-03T13:57:19.645Z</time></trkpt><trkpt lat="44.15791334357643" lon="11.46468788163081"><ele>367.0</ele><time>2026-04-03T13:57:20.645Z</time></trkpt><trkpt lat="44.15777311347592" lon="11.464542096263173"><ele>367.0</ele><time>2026-04-03T13:57:21.646Z</time></trkpt><trkpt lat="44.157635682009975" lon="11.464403867444226"><ele>366.66666666666663</ele><time>2026-04-03T13:57:22.646Z</time></trkpt><trkpt lat="44.15750218042341" lon="11.46427508210288"><ele>366.3333333333333</ele><time>2026-04-03T13:57:23.646Z</time></trkpt><trkpt lat="44.15737994906611" lon="11.46414796106618"><ele>366.0</ele><time>2026-04-03T13:57:24.645Z</time></trkpt><trkpt lat="44.15726300079663" lon="11.46402660070548"><ele>366.0</ele><time>2026-04-03T13:57:25.645Z</time></trkpt><trkpt lat="44.157155327081284" lon="11.463900046148904"><ele>366.0</ele><time>2026-04-03T13:57:26.646Z</time></trkpt><trkpt lat="44.1570792375371" lon="11.463766414731301"><ele>366.0</ele><time>2026-04-03T13:57:27.646Z</time></trkpt><trkpt lat="44.15702498485937" lon="11.463631839005364"><ele>366.0</ele><time>2026-04-03T13:57:28.646Z</time></trkpt><trkpt lat="44.156994743340974" lon="11.463474358602882"><ele>364.25</ele><time>2026-04-03T13:57:29.645Z</time></trkpt><trkpt lat="44.15699102830126" lon="11.463291921480312"><ele>362.5</ele><time>2026-04-03T13:57:30.645Z</time></trkpt><trkpt lat="44.15700251334825" lon="11.463085193430096"><ele>360.75</ele><time>2026-04-03T13:57:31.645Z</time></trkpt><trkpt lat="44.157013985735794" lon="11.462877904524769"><ele>359.0</ele><time>2026-04-03T13:57:32.645Z</time></trkpt><trkpt lat="44.157033870096015" lon="11.462667816218884"><ele>357.75</ele><time>2026-04-03T13:57:33.645Z</time></trkpt><trkpt lat="44.15705658649655" lon="11.46246293261855"><ele>356.5</ele><time>2026-04-03T13:57:34.645Z</time></trkpt><trkpt lat="44.157072681987266" lon="11.46227117294029"><ele>355.25</ele><time>2026-04-03T13:57:35.645Z</time></trkpt><trkpt lat="44.157097619737925" lon="11.46209508206035"><ele>354.0</ele><time>2026-04-03T13:57:36.645Z</time></trkpt><trkpt lat="44.157103782754575" lon="11.46194985649563"><ele>352.25</ele><time>2026-04-03T13:57:37.645Z</time></trkpt><trkpt lat="44.15707839154656" lon="11.461816352076628"><ele>350.5</ele><time>2026-04-03T13:57:38.645Z</time></trkpt><trkpt lat="44.15701111356243" lon="11.461677689499853"><ele>348.75</ele><time>2026-04-03T13:57:39.645Z</time></trkpt><trkpt lat="44.15690956000143" lon="11.461574550459405"><ele>347.0</ele><time>2026-04-03T13:57:40.645Z</time></trkpt><trkpt lat="44.15679332460656" lon="11.461507059216455"><ele>347.0</ele><time>2026-04-03T13:57:41.645Z</time></trkpt><trkpt lat="44.156709819328206" lon="11.461422745393184"><ele>347.0</ele><time>2026-04-03T13:57:42.645Z</time></trkpt><trkpt lat="44.156644997356764" lon="11.46133008019873"><ele>347.0</ele><time>2026-04-03T13:57:43.645Z</time></trkpt><trkpt lat="44.156599181582365" lon="11.46121862337414"><ele>347.0</ele><time>2026-04-03T13:57:44.645Z</time></trkpt><trkpt lat="44.15659126342226" lon="11.461092288382677"><ele>347.0</ele><time>2026-04-03T13:57:45.645Z</time></trkpt><trkpt lat="44.15661973458437" lon="11.460968376796165"><ele>342.5</ele><time>2026-04-03T13:57:46.645Z</time></trkpt><trkpt lat="44.156655653604226" lon="11.46082719975429"><ele>338.0</ele><time>2026-04-03T13:57:47.645Z</time></trkpt><trkpt lat="44.15665560264781" lon="11.46064770682925"><ele>333.5</ele><time>2026-04-03T13:57:48.645Z</time></trkpt><trkpt lat="44.15664326003352" lon="11.460451896709403"><ele>329.0</ele><time>2026-04-03T13:57:49.645Z</time></trkpt><trkpt lat="44.156602375113835" lon="11.460245679145364"><ele>330.6666666666667</ele><time>2026-04-03T13:57:50.645Z</time></trkpt><trkpt lat="44.15651370632331" lon="11.460058399483382"><ele>332.3333333333333</ele><time>2026-04-03T13:57:51.645Z</time></trkpt><trkpt lat="44.15640673623563" lon="11.45988862548008"><ele>334.0</ele><time>2026-04-03T13:57:52.645Z</time></trkpt><trkpt lat="44.15629701667789" lon="11.45973177075602"><ele>326.3333333333333</ele><time>2026-04-03T13:57:53.645Z</time></trkpt><trkpt lat="44.15617974163607" lon="11.459608405051096"><ele>318.6666666666667</ele><time>2026-04-03T13:57:54.645Z</time></trkpt><trkpt lat="44.156039612426184" lon="11.459509492417606"><ele>311.0</ele><time>2026-04-03T13:57:55.645Z</time></trkpt><trkpt lat="44.155877316233266" lon="11.459440865098465"><ele>311.0</ele><time>2026-04-03T13:57:56.645Z</time></trkpt><trkpt lat="44.15571034466286" lon="11.459377714778526"><ele>311.0</ele><time>2026-04-03T13:57:57.645Z</time></trkpt><trkpt lat="44.15555122588305" lon="11.459311135227976"><ele>311.0</ele><time>2026-04-03T13:57:58.645Z</time></trkpt><trkpt lat="44.15539844644624" lon="11.459248537795705"><ele>311.33333333333337</ele><time>2026-04-03T13:57:59.645Z</time></trkpt><trkpt lat="44.15524863854167" lon="11.459210461539294"><ele>311.6666666666667</ele><time>2026-04-03T13:58:00.645Z</time></trkpt><trkpt lat="44.155090681050446" lon="11.459196088963337"><ele>312.0</ele><time>2026-04-03T13:58:01.645Z</time></trkpt><trkpt lat="44.1549281686281" lon="11.459218049931081"><ele>312.3333333333333</ele><time>2026-04-03T13:58:02.645Z</time></trkpt><trkpt lat="44.15476000272346" lon="11.459271066438578"><ele>312.66666666666663</ele><time>2026-04-03T13:58:03.645Z</time></trkpt><trkpt lat="44.15459637513297" lon="11.459311752491704"><ele>313.0</ele><time>2026-04-03T13:58:04.645Z</time></trkpt><trkpt lat="44.154444426503474" lon="11.45935267809935"><ele>313.0</ele><time>2026-04-03T13:58:05.645Z</time></trkpt><trkpt lat="44.154298712892036" lon="11.459369247637875"><ele>313.0</ele><time>2026-04-03T13:58:06.645Z</time></trkpt><trkpt lat="44.154171838118096" lon="11.459350365218532"><ele>313.0</ele><time>2026-04-03T13:58:07.645Z</time></trkpt><trkpt lat="44.15406295303701" lon="11.459284753084638"><ele>313.0</ele><time>2026-04-03T13:58:08.645Z</time></trkpt><trkpt lat="44.15397561492238" lon="11.459169466592996"><ele>312.75</ele><time>2026-04-03T13:58:09.645Z</time></trkpt><trkpt lat="44.15390792103014" lon="11.459014537433909"><ele>312.5</ele><time>2026-04-03T13:58:10.645Z</time></trkpt><trkpt lat="44.15386290830374" lon="11.458832245789248"><ele>312.25</ele><time>2026-04-03T13:58:11.645Z</time></trkpt><trkpt lat="44.153829025049845" lon="11.458625228688188"><ele>312.0</ele><time>2026-04-03T13:58:12.645Z</time></trkpt><trkpt lat="44.15378922844125" lon="11.458410529358499"><ele>312.0</ele><time>2026-04-03T13:58:13.645Z</time></trkpt><trkpt lat="44.153753720667055" lon="11.458224408165524"><ele>312.0</ele><time>2026-04-03T13:58:14.645Z</time></trkpt><trkpt lat="44.15372668762345" lon="11.458080376191242"><ele>312.0</ele><time>2026-04-03T13:58:15.645Z</time></trkpt><trkpt lat="44.1537021994667" lon="11.457958995099006"><ele>312.0</ele><time>2026-04-03T13:58:16.645Z</time></trkpt><trkpt lat="44.15368117406985" lon="11.45784219153243"><ele>312.0</ele><time>2026-04-03T13:58:17.645Z</time></trkpt><trkpt lat="44.153639131052266" lon="11.457729786673312"><ele>309.8333333333333</ele><time>2026-04-03T13:58:18.645Z</time></trkpt><trkpt lat="44.15358520638803" lon="11.457626067522867"><ele>307.6666666666667</ele><time>2026-04-03T13:58:19.645Z</time></trkpt><trkpt lat="44.153527344704514" lon="11.457544031214006"><ele>305.5</ele><time>2026-04-03T13:58:20.645Z</time></trkpt><trkpt lat="44.15346617293088" lon="11.457454938080915"><ele>303.33333333333337</ele><time>2026-04-03T13:58:22.645Z</time></trkpt><trkpt lat="44.15350685315885" lon="11.457377342874652"><ele>301.1666666666667</ele><time>2026-04-03T13:58:26.645Z</time></trkpt><trkpt lat="44.15357188817726" lon="11.457439348287895"><ele>299.0</ele><time>2026-04-03T13:58:28.645Z</time></trkpt><trkpt lat="44.153625842209905" lon="11.45756361950455"><ele>299.0</ele><time>2026-04-03T13:58:29.645Z</time></trkpt><trkpt lat="44.15368856324289" lon="11.457673682835747"><ele>299.0</ele><time>2026-04-03T13:58:30.645Z</time></trkpt><trkpt lat="44.153760437857414" lon="11.457772796486044"><ele>299.0</ele><time>2026-04-03T13:58:31.645Z</time></trkpt><trkpt lat="44.15385675887229" lon="11.457860419724351"><ele>299.0</ele><time>2026-04-03T13:58:32.645Z</time></trkpt><trkpt lat="44.153965170721094" lon="11.457936429236138"><ele>299.0</ele><time>2026-04-03T13:58:33.645Z</time></trkpt><trkpt lat="44.15409660672614" lon="11.457997615172532"><ele>298.6666666666667</ele><time>2026-04-03T13:58:34.645Z</time></trkpt><trkpt lat="44.15424133205267" lon="11.45805348452376"><ele>298.3333333333333</ele><time>2026-04-03T13:58:35.645Z</time></trkpt><trkpt lat="44.154394939558784" lon="11.458101919162269"><ele>298.0</ele><time>2026-04-03T13:58:36.645Z</time></trkpt><trkpt lat="44.154570130432" lon="11.458148683974356"><ele>298.0</ele><time>2026-04-03T13:58:37.645Z</time></trkpt><trkpt lat="44.15475401471911" lon="11.458183471186471"><ele>298.0</ele><time>2026-04-03T13:58:38.645Z</time></trkpt><trkpt lat="44.15493853578061" lon="11.45821268309791"><ele>298.0</ele><time>2026-04-03T13:58:39.645Z</time></trkpt><trkpt lat="44.15511827990129" lon="11.458252939279026"><ele>297.3333333333333</ele><time>2026-04-03T13:58:40.645Z</time></trkpt><trkpt lat="44.155291043551856" lon="11.458287460923168"><ele>296.6666666666667</ele><time>2026-04-03T13:58:41.645Z</time></trkpt><trkpt lat="44.15546077186224" lon="11.45831994520086"><ele>296.0</ele><time>2026-04-03T13:58:42.645Z</time></trkpt><trkpt lat="44.15562982400465" lon="11.458349700800355"><ele>294.33333333333337</ele><time>2026-04-03T13:58:43.645Z</time></trkpt><trkpt lat="44.155791897565834" lon="11.458378126342971"><ele>292.6666666666667</ele><time>2026-04-03T13:58:44.645Z</time></trkpt><trkpt lat="44.155954149417475" lon="11.458405224843704"><ele>291.0</ele><time>2026-04-03T13:58:45.645Z</time></trkpt><trkpt lat="44.15610594351536" lon="11.458424576678947"><ele>291.0</ele><time>2026-04-03T13:58:46.645Z</time></trkpt><trkpt lat="44.15624797678073" lon="11.458439697138777"><ele>291.0</ele><time>2026-04-03T13:58:47.645Z</time></trkpt><trkpt lat="44.15638086840596" lon="11.458454173628576"><ele>291.0</ele><time>2026-04-03T13:58:48.645Z</time></trkpt><trkpt lat="44.15651800412805" lon="11.458476737361641"><ele>291.0</ele><time>2026-04-03T13:58:49.645Z</time></trkpt><trkpt lat="44.15664396867033" lon="11.458534339945235"><ele>288.6666666666667</ele><time>2026-04-03T13:58:50.645Z</time></trkpt><trkpt lat="44.15677079466452" lon="11.458623607130738"><ele>286.33333333333337</ele><time>2026-04-03T13:58:51.645Z</time></trkpt><trkpt lat="44.15689675582845" lon="11.458737232106474"><ele>284.0</ele><time>2026-04-03T13:58:52.645Z</time></trkpt><trkpt lat="44.15701748562463" lon="11.458879883331862"><ele>288.25</ele><time>2026-04-03T13:58:53.645Z</time></trkpt><trkpt lat="44.1571174678257" lon="11.459025768968687"><ele>292.5</ele><time>2026-04-03T13:58:54.645Z</time></trkpt><trkpt lat="44.157195908272335" lon="11.459188031422972"><ele>296.75</ele><time>2026-04-03T13:58:55.645Z</time></trkpt><trkpt lat="44.15726379765509" lon="11.459387152668402"><ele>301.0</ele><time>2026-04-03T13:58:56.645Z</time></trkpt><trkpt lat="44.157319902925366" lon="11.459595155793377"><ele>296.75</ele><time>2026-04-03T13:58:57.645Z</time></trkpt><trkpt lat="44.15737199270211" lon="11.45979855831598"><ele>292.5</ele><time>2026-04-03T13:58:58.645Z</time></trkpt><trkpt lat="44.157424151971426" lon="11.459984734173627"><ele>288.25</ele><time>2026-04-03T13:58:59.645Z</time></trkpt><trkpt lat="44.157488592533156" lon="11.460162825086323"><ele>284.0</ele><time>2026-04-03T13:59:00.645Z</time></trkpt><trkpt lat="44.157565727268675" lon="11.460302435996546"><ele>284.0</ele><time>2026-04-03T13:59:01.645Z</time></trkpt><trkpt lat="44.15764143238626" lon="11.460429165118569"><ele>284.0</ele><time>2026-04-03T13:59:02.645Z</time></trkpt><trkpt lat="44.157737695840716" lon="11.460509448412239"><ele>284.0</ele><time>2026-04-03T13:59:03.645Z</time></trkpt><trkpt lat="44.1578326532461" lon="11.460530263996311"><ele>284.0</ele><time>2026-04-03T13:59:04.645Z</time></trkpt><trkpt lat="44.15794455969297" lon="11.460495803230442"><ele>284.0</ele><time>2026-04-03T13:59:05.645Z</time></trkpt><trkpt lat="44.15805888737839" lon="11.460417839138419"><ele>284.0</ele><time>2026-04-03T13:59:06.645Z</time></trkpt><trkpt lat="44.158167153394714" lon="11.460381801555666"><ele>284.0</ele><time>2026-04-03T13:59:07.644Z</time></trkpt><trkpt lat="44.15827004450325" lon="11.460409469902809"><ele>284.0</ele><time>2026-04-03T13:59:08.644Z</time></trkpt><trkpt lat="44.158364002225596" lon="11.460493856230402"><ele>284.0</ele><time>2026-04-03T13:59:09.644Z</time></trkpt><trkpt lat="44.158445531180035" lon="11.460625834827496"><ele>283.33333333333337</ele><time>2026-04-03T13:59:10.644Z</time></trkpt><trkpt lat="44.15853111353295" lon="11.460775709597293"><ele>282.6666666666667</ele><time>2026-04-03T13:59:11.644Z</time></trkpt><trkpt lat="44.15863898367071" lon="11.460930989810553"><ele>282.0</ele><time>2026-04-03T13:59:12.644Z</time></trkpt><trkpt lat="44.15876746178138" lon="11.461075662525342"><ele>282.0</ele><time>2026-04-03T13:59:13.644Z</time></trkpt><trkpt lat="44.1589098919013" lon="11.461199459566677"><ele>282.0</ele><time>2026-04-03T13:59:14.644Z</time></trkpt><trkpt lat="44.159045390141515" lon="11.461304594195923"><ele>282.0</ele><time>2026-04-03T13:59:15.644Z</time></trkpt><trkpt lat="44.15917295530055" lon="11.461398199181792"><ele>282.5</ele><time>2026-04-03T13:59:16.644Z</time></trkpt><trkpt lat="44.15929162188236" lon="11.461483702576425"><ele>283.0</ele><time>2026-04-03T13:59:17.644Z</time></trkpt><trkpt lat="44.15940604823407" lon="11.46157162525427"><ele>283.5</ele><time>2026-04-03T13:59:18.644Z</time></trkpt><trkpt lat="44.159510383350856" lon="11.461655800030487"><ele>284.0</ele><time>2026-04-03T13:59:19.644Z</time></trkpt><trkpt lat="44.159614358759626" lon="11.461737652754216"><ele>284.0</ele><time>2026-04-03T13:59:20.644Z</time></trkpt><trkpt lat="44.15971313378019" lon="11.461807210831836"><ele>284.0</ele><time>2026-04-03T13:59:21.644Z</time></trkpt><trkpt lat="44.159801034590785" lon="11.461869793004622"><ele>284.0</ele><time>2026-04-03T13:59:22.644Z</time></trkpt><trkpt lat="44.159877670962715" lon="11.461926521648985"><ele>284.0</ele><time>2026-04-03T13:59:23.643Z</time></trkpt><trkpt lat="44.15994004018668" lon="11.461974131434026"><ele>284.0</ele><time>2026-04-03T13:59:24.642Z</time></trkpt><trkpt lat="44.15999877829269" lon="11.46202023591659"><ele>284.0</ele><time>2026-04-03T13:59:25.642Z</time></trkpt><trkpt lat="44.160072524550905" lon="11.46207388800544"><ele>284.59999999999997</ele><time>2026-04-03T13:59:27.643Z</time></trkpt><trkpt lat="44.16015428775405" lon="11.462110045846575"><ele>285.2</ele><time>2026-04-03T14:02:18.639Z</time></trkpt><trkpt lat="44.160235136004566" lon="11.462138045235767"><ele>285.79999999999995</ele><time>2026-04-03T14:02:19.639Z</time></trkpt><trkpt lat="44.160331628197305" lon="11.462174845957"><ele>286.4</ele><time>2026-04-03T14:02:20.639Z</time></trkpt><trkpt lat="44.16044902886316" lon="11.462215801844694"><ele>287.0</ele><time>2026-04-03T14:02:21.639Z</time></trkpt><trkpt lat="44.1605646748188" lon="11.462260090539916"><ele>287.0</ele><time>2026-04-03T14:02:22.639Z</time></trkpt><trkpt lat="44.160695169124715" lon="11.462315707250276"><ele>287.0</ele><time>2026-04-03T14:02:23.639Z</time></trkpt><trkpt lat="44.160841827581606" lon="11.462372702947553"><ele>287.0</ele><time>2026-04-03T14:02:24.639Z</time></trkpt><trkpt lat="44.16100003295386" lon="11.462438673653024"><ele>287.0</ele><time>2026-04-03T14:02:25.639Z</time></trkpt><trkpt lat="44.16115198711182" lon="11.462503402153853"><ele>287.0</ele><time>2026-04-03T14:02:26.639Z</time></trkpt><trkpt lat="44.161296006539565" lon="11.4625699813844"><ele>287.0</ele><time>2026-04-03T14:02:27.638Z</time></trkpt><trkpt lat="44.16144134531547" lon="11.462650824878098"><ele>285.0</ele><time>2026-04-03T14:02:28.638Z</time></trkpt><trkpt lat="44.16159142657644" lon="11.462731685023149"><ele>283.0</ele><time>2026-04-03T14:02:29.638Z</time></trkpt><trkpt lat="44.16172917942177" lon="11.462817927718776"><ele>281.0</ele><time>2026-04-03T14:02:30.638Z</time></trkpt><trkpt lat="44.16186426959471" lon="11.46290607593461"><ele>281.5</ele><time>2026-04-03T14:02:31.638Z</time></trkpt><trkpt lat="44.16199449441366" lon="11.463004021095985"><ele>282.0</ele><time>2026-04-03T14:02:32.638Z</time></trkpt><trkpt lat="44.16212208108001" lon="11.463114357172584"><ele>282.5</ele><time>2026-04-03T14:02:33.638Z</time></trkpt><trkpt lat="44.16224983498141" lon="11.463222301648308"><ele>283.0</ele><time>2026-04-03T14:02:34.638Z</time></trkpt><trkpt lat="44.16237280023746" lon="11.463322096593762"><ele>283.0</ele><time>2026-04-03T14:02:35.638Z</time></trkpt><trkpt lat="44.16248295070781" lon="11.463415682987453"><ele>283.0</ele><time>2026-04-03T14:02:36.638Z</time></trkpt><trkpt lat="44.16256979024452" lon="11.463523385335408"><ele>283.0</ele><time>2026-04-03T14:02:37.638Z</time></trkpt><trkpt lat="44.16264197660645" lon="11.463671227453096"><ele>283.0</ele><time>2026-04-03T14:02:38.638Z</time></trkpt><trkpt lat="44.16269153003511" lon="11.463842783441665"><ele>282.5</ele><time>2026-04-03T14:02:39.638Z</time></trkpt><trkpt lat="44.16271614866251" lon="11.464033614437971"><ele>282.0</ele><time>2026-04-03T14:02:40.638Z</time></trkpt><trkpt lat="44.16271268872934" lon="11.4642250194516"><ele>281.5</ele><time>2026-04-03T14:02:41.638Z</time></trkpt><trkpt lat="44.16270742029834" lon="11.464426214318417"><ele>281.0</ele><time>2026-04-03T14:02:42.638Z</time></trkpt><trkpt lat="44.16270832239541" lon="11.46463853179761"><ele>277.33333333333337</ele><time>2026-04-03T14:02:43.638Z</time></trkpt><trkpt lat="44.16274177945738" lon="11.464854517654338"><ele>273.6666666666667</ele><time>2026-04-03T14:02:44.638Z</time></trkpt><trkpt lat="44.16280900038119" lon="11.465061737107634"><ele>270.0</ele><time>2026-04-03T14:02:45.638Z</time></trkpt><trkpt lat="44.16289367660757" lon="11.465253310097783"><ele>268.0</ele><time>2026-04-03T14:02:46.638Z</time></trkpt><trkpt lat="44.16300169175527" lon="11.465446960042987"><ele>266.0</ele><time>2026-04-03T14:02:47.638Z</time></trkpt><trkpt lat="44.16311632170885" lon="11.465649170594938"><ele>264.0</ele><time>2026-04-03T14:02:48.638Z</time></trkpt><trkpt lat="44.1632429373869" lon="11.465860964081509"><ele>266.6666666666667</ele><time>2026-04-03T14:02:49.638Z</time></trkpt><trkpt lat="44.16337952621419" lon="11.466074037435911"><ele>269.33333333333337</ele><time>2026-04-03T14:02:50.638Z</time></trkpt><trkpt lat="44.16351716559935" lon="11.466295835979473"><ele>272.0</ele><time>2026-04-03T14:02:51.638Z</time></trkpt><trkpt lat="44.16365868701972" lon="11.466528260111145"><ele>272.0</ele><time>2026-04-03T14:02:52.638Z</time></trkpt><trkpt lat="44.16379508885867" lon="11.466750505153014"><ele>272.0</ele><time>2026-04-03T14:02:53.638Z</time></trkpt><trkpt lat="44.16392270143886" lon="11.46696185821573"><ele>272.0</ele><time>2026-04-03T14:02:54.638Z</time></trkpt><trkpt lat="44.16405387714522" lon="11.467157023086973"><ele>272.6666666666667</ele><time>2026-04-03T14:02:55.638Z</time></trkpt><trkpt lat="44.16418965071075" lon="11.467335345381148"><ele>273.3333333333333</ele><time>2026-04-03T14:02:56.638Z</time></trkpt><trkpt lat="44.16432261876772" lon="11.467495056992957"><ele>274.0</ele><time>2026-04-03T14:02:57.638Z</time></trkpt><trkpt lat="44.16444303023166" lon="11.467627067874806"><ele>274.0</ele><time>2026-04-03T14:02:58.638Z</time></trkpt><trkpt lat="44.164546316502516" lon="11.467724389803292"><ele>274.0</ele><time>2026-04-03T14:02:59.638Z</time></trkpt><trkpt lat="44.16462063059691" lon="11.467799277915956"><ele>274.0</ele><time>2026-04-03T14:03:00.638Z</time></trkpt><trkpt lat="44.1646769754516" lon="11.467852515146598"><ele>274.0</ele><time>2026-04-03T14:03:01.638Z</time></trkpt><trkpt lat="44.16474790881724" lon="11.467926748566544"><ele>274.0</ele><time>2026-04-03T14:03:03.638Z</time></trkpt><trkpt lat="44.164819276040475" lon="11.467964220010202"><ele>274.0</ele><time>2026-04-03T14:03:44.637Z</time></trkpt><trkpt lat="44.16489113970664" lon="11.468038614129602"><ele>274.16666666666663</ele><time>2026-04-03T14:03:46.636Z</time></trkpt><trkpt lat="44.16494871361638" lon="11.468095727916838"><ele>274.3333333333333</ele><time>2026-04-03T14:03:47.636Z</time></trkpt><trkpt lat="44.16501956467724" lon="11.468164516732264"><ele>274.5</ele><time>2026-04-03T14:03:48.636Z</time></trkpt><trkpt lat="44.16508736569014" lon="11.468233698703456"><ele>274.6666666666667</ele><time>2026-04-03T14:03:49.636Z</time></trkpt><trkpt lat="44.16513152717927" lon="11.468327244425236"><ele>274.83333333333337</ele><time>2026-04-03T14:03:50.636Z</time></trkpt><trkpt lat="44.16514695275739" lon="11.468429918425652"><ele>275.0</ele><time>2026-04-03T14:03:51.636Z</time></trkpt><trkpt lat="44.1651278994323" lon="11.468541252273898"><ele>275.0</ele><time>2026-04-03T14:03:52.636Z</time></trkpt><trkpt lat="44.165094034526625" lon="11.468667106169724"><ele>275.0</ele><time>2026-04-03T14:03:53.636Z</time></trkpt><trkpt lat="44.165055552384146" lon="11.468808143803926"><ele>275.0</ele><time>2026-04-03T14:03:54.636Z</time></trkpt><trkpt lat="44.165020657103554" lon="11.468968224044463"><ele>275.0</ele><time>2026-04-03T14:03:55.636Z</time></trkpt><trkpt lat="44.16498911333748" lon="11.46912065001202"><ele>275.0</ele><time>2026-04-03T14:03:56.636Z</time></trkpt><trkpt lat="44.16494587387681" lon="11.46928666922329"><ele>276.0</ele><time>2026-04-03T14:03:57.636Z</time></trkpt><trkpt lat="44.16491293973707" lon="11.469464498461313"><ele>277.0</ele><time>2026-04-03T14:03:58.636Z</time></trkpt><trkpt lat="44.164887660456756" lon="11.469651447839597"><ele>278.0</ele><time>2026-04-03T14:03:59.636Z</time></trkpt><trkpt lat="44.16486601623016" lon="11.469851125376668"><ele>279.0</ele><time>2026-04-03T14:04:00.636Z</time></trkpt><trkpt lat="44.164836967870166" lon="11.470057334460991"><ele>279.0</ele><time>2026-04-03T14:04:01.636Z</time></trkpt><trkpt lat="44.16479422080024" lon="11.470255944545658"><ele>279.0</ele><time>2026-04-03T14:04:02.636Z</time></trkpt><trkpt lat="44.16474925283749" lon="11.470444650936324"><ele>279.0</ele><time>2026-04-03T14:04:03.636Z</time></trkpt><trkpt lat="44.164690455211286" lon="11.470649029050467"><ele>279.0</ele><time>2026-04-03T14:04:04.636Z</time></trkpt><trkpt lat="44.16461687638599" lon="11.47086624359064"><ele>279.6666666666667</ele><time>2026-04-03T14:04:05.636Z</time></trkpt><trkpt lat="44.164537140135465" lon="11.471092050122822"><ele>280.33333333333337</ele><time>2026-04-03T14:04:06.636Z</time></trkpt><trkpt lat="44.16445542501241" lon="11.471324829869346"><ele>281.0</ele><time>2026-04-03T14:04:07.636Z</time></trkpt><trkpt lat="44.1643724197226" lon="11.471563850889272"><ele>281.0</ele><time>2026-04-03T14:04:08.636Z</time></trkpt><trkpt lat="44.16430340156151" lon="11.47180000033968"><ele>281.0</ele><time>2026-04-03T14:04:09.636Z</time></trkpt><trkpt lat="44.164238426727216" lon="11.472027421093598"><ele>281.0</ele><time>2026-04-03T14:04:10.636Z</time></trkpt><trkpt lat="44.164177316010694" lon="11.472245976826253"><ele>280.6666666666667</ele><time>2026-04-03T14:04:11.636Z</time></trkpt><trkpt lat="44.16412944524962" lon="11.47247913700777"><ele>280.3333333333333</ele><time>2026-04-03T14:04:12.636Z</time></trkpt><trkpt lat="44.16410022636919" lon="11.472701738120419"><ele>280.0</ele><time>2026-04-03T14:04:13.636Z</time></trkpt><trkpt lat="44.1640908529626" lon="11.47293160124411"><ele>280.0</ele><time>2026-04-03T14:04:14.636Z</time></trkpt><trkpt lat="44.16410469283847" lon="11.473172051058182"><ele>280.0</ele><time>2026-04-03T14:04:15.636Z</time></trkpt><trkpt lat="44.16413041047279" lon="11.473415027821453"><ele>280.0</ele><time>2026-04-03T14:04:16.636Z</time></trkpt><trkpt lat="44.16416173052847" lon="11.473638556716388"><ele>280.0</ele><time>2026-04-03T14:04:17.636Z</time></trkpt><trkpt lat="44.16420433354283" lon="11.473853117629835"><ele>280.0</ele><time>2026-04-03T14:04:18.636Z</time></trkpt><trkpt lat="44.16425629189809" lon="11.474044165666667"><ele>280.0</ele><time>2026-04-03T14:04:19.636Z</time></trkpt><trkpt lat="44.164329008996674" lon="11.474223241748964"><ele>280.0</ele><time>2026-04-03T14:04:20.636Z</time></trkpt><trkpt lat="44.16442469625729" lon="11.474403008125027"><ele>280.0</ele><time>2026-04-03T14:04:21.636Z</time></trkpt><trkpt lat="44.16454160183609" lon="11.474578802630631"><ele>280.0</ele><time>2026-04-03T14:04:22.636Z</time></trkpt><trkpt lat="44.1646646915277" lon="11.474739135718064"><ele>279.3333333333333</ele><time>2026-04-03T14:04:23.636Z</time></trkpt><trkpt lat="44.16478511312916" lon="11.474877444016233"><ele>278.6666666666667</ele><time>2026-04-03T14:04:24.636Z</time></trkpt><trkpt lat="44.16491741574899" lon="11.474979833720171"><ele>278.0</ele><time>2026-04-03T14:04:25.636Z</time></trkpt><trkpt lat="44.16506368865804" lon="11.475054711619485"><ele>278.0</ele><time>2026-04-03T14:04:26.636Z</time></trkpt><trkpt lat="44.165224117081294" lon="11.475091366794436"><ele>278.0</ele><time>2026-04-03T14:04:27.636Z</time></trkpt><trkpt lat="44.16539095182112" lon="11.475079251962034"><ele>278.0</ele><time>2026-04-03T14:04:28.636Z</time></trkpt><trkpt lat="44.16556753955707" lon="11.475016944392822"><ele>280.33333333333337</ele><time>2026-04-03T14:04:29.636Z</time></trkpt><trkpt lat="44.16575192225647" lon="11.474918771337348"><ele>282.6666666666667</ele><time>2026-04-03T14:04:30.636Z</time></trkpt><trkpt lat="44.16594250248006" lon="11.474877802092966"><ele>285.0</ele><time>2026-04-03T14:04:31.636Z</time></trkpt><trkpt lat="44.16611032911063" lon="11.47485842433764"><ele>285.0</ele><time>2026-04-03T14:04:32.636Z</time></trkpt><trkpt lat="44.16625996104151" lon="11.474775221777747"><ele>285.0</ele><time>2026-04-03T14:04:33.636Z</time></trkpt><trkpt lat="44.16640122067322" lon="11.47464895459164"><ele>285.0</ele><time>2026-04-03T14:04:34.636Z</time></trkpt><trkpt lat="44.16653790208532" lon="11.474539452629685"><ele>284.75</ele><time>2026-04-03T14:04:35.636Z</time></trkpt><trkpt lat="44.166665758277105" lon="11.474502145912059"><ele>284.5</ele><time>2026-04-03T14:04:36.636Z</time></trkpt><trkpt lat="44.166769847804716" lon="11.474524318538586"><ele>284.25</ele><time>2026-04-03T14:04:37.636Z</time></trkpt><trkpt lat="44.16685028488398" lon="11.474617286264632"><ele>284.0</ele><time>2026-04-03T14:04:38.636Z</time></trkpt><trkpt lat="44.166908477474564" lon="11.474747446164873"><ele>284.0</ele><time>2026-04-03T14:04:39.636Z</time></trkpt><trkpt lat="44.16694261184434" lon="11.474911484498119"><ele>284.0</ele><time>2026-04-03T14:04:40.636Z</time></trkpt><trkpt lat="44.16693565218372" lon="11.475081046045394"><ele>284.0</ele><time>2026-04-03T14:04:41.636Z</time></trkpt><trkpt lat="44.16689685025959" lon="11.475254659331654"><ele>284.0</ele><time>2026-04-03T14:04:42.636Z</time></trkpt><trkpt lat="44.16686260827442" lon="11.475444763374599"><ele>287.0</ele><time>2026-04-03T14:04:43.636Z</time></trkpt><trkpt lat="44.16685598181535" lon="11.47565623436459"><ele>290.0</ele><time>2026-04-03T14:04:44.636Z</time></trkpt><trkpt lat="44.16688405795371" lon="11.47586865090596"><ele>293.0</ele><time>2026-04-03T14:04:45.636Z</time></trkpt><trkpt lat="44.16695941129333" lon="11.476086907577136"><ele>298.0</ele><time>2026-04-03T14:04:46.636Z</time></trkpt><trkpt lat="44.16706082193486" lon="11.476293503417637"><ele>303.0</ele><time>2026-04-03T14:04:47.636Z</time></trkpt><trkpt lat="44.16718298378472" lon="11.476514677276583"><ele>308.0</ele><time>2026-04-03T14:04:48.636Z</time></trkpt><trkpt lat="44.16730019957131" lon="11.476744787236415"><ele>303.0</ele><time>2026-04-03T14:04:49.636Z</time></trkpt><trkpt lat="44.1674119250287" lon="11.476972134933924"><ele>298.0</ele><time>2026-04-03T14:04:50.636Z</time></trkpt><trkpt lat="44.167519779661426" lon="11.477189983211431"><ele>293.0</ele><time>2026-04-03T14:04:51.636Z</time></trkpt><trkpt lat="44.167626702094374" lon="11.477394943339448"><ele>293.0</ele><time>2026-04-03T14:04:52.636Z</time></trkpt><trkpt lat="44.167722170275425" lon="11.477601280502604"><ele>293.0</ele><time>2026-04-03T14:04:53.636Z</time></trkpt><trkpt lat="44.167812548987584" lon="11.477793215080695"><ele>293.0</ele><time>2026-04-03T14:04:54.636Z</time></trkpt><trkpt lat="44.16790922130277" lon="11.477958292961219"><ele>292.5</ele><time>2026-04-03T14:04:55.636Z</time></trkpt><trkpt lat="44.16801614429499" lon="11.478076046503897"><ele>292.0</ele><time>2026-04-03T14:04:56.636Z</time></trkpt><trkpt lat="44.1681320877369" lon="11.478141290297822"><ele>291.5</ele><time>2026-04-03T14:04:57.636Z</time></trkpt><trkpt lat="44.168266949209354" lon="11.478150585892005"><ele>291.0</ele><time>2026-04-03T14:04:58.636Z</time></trkpt><trkpt lat="44.168407273855486" lon="11.478110200500085"><ele>291.0</ele><time>2026-04-03T14:04:59.636Z</time></trkpt><trkpt lat="44.16853750737749" lon="11.478068461419737"><ele>291.0</ele><time>2026-04-03T14:05:00.636Z</time></trkpt><trkpt lat="44.16865998460806" lon="11.478036795777554"><ele>291.0</ele><time>2026-04-03T14:05:01.636Z</time></trkpt><trkpt lat="44.16875874337663" lon="11.478047245307149"><ele>291.0</ele><time>2026-04-03T14:05:02.636Z</time></trkpt><trkpt lat="44.168830657540965" lon="11.478112124845746"><ele>291.0</ele><time>2026-04-03T14:05:03.636Z</time></trkpt><trkpt lat="44.168873911962166" lon="11.478245567281302"><ele>291.0</ele><time>2026-04-03T14:05:04.636Z</time></trkpt><trkpt lat="44.168900030771965" lon="11.478424919851138"><ele>291.0</ele><time>2026-04-03T14:05:05.636Z</time></trkpt><trkpt lat="44.16891267716103" lon="11.478640097843869"><ele>291.0</ele><time>2026-04-03T14:05:06.636Z</time></trkpt><trkpt lat="44.168904870312296" lon="11.478870495498283"><ele>293.6666666666667</ele><time>2026-04-03T14:05:07.636Z</time></trkpt><trkpt lat="44.1688848932358" lon="11.479097277075343"><ele>296.33333333333337</ele><time>2026-04-03T14:05:08.636Z</time></trkpt><trkpt lat="44.168869866817914" lon="11.479336188405766"><ele>299.0</ele><time>2026-04-03T14:05:09.636Z</time></trkpt><trkpt lat="44.16888185410651" lon="11.479582609032619"><ele>303.6666666666667</ele><time>2026-04-03T14:05:10.636Z</time></trkpt><trkpt lat="44.16891810606407" lon="11.479838900306785"><ele>308.3333333333333</ele><time>2026-04-03T14:05:11.636Z</time></trkpt><trkpt lat="44.16895996205979" lon="11.480097193219596"><ele>313.0</ele><time>2026-04-03T14:05:12.636Z</time></trkpt><trkpt lat="44.169008538170516" lon="11.480348325704048"><ele>303.66666666666663</ele><time>2026-04-03T14:05:13.635Z</time></trkpt><trkpt lat="44.1690517081462" lon="11.480584441282277"><ele>294.3333333333333</ele><time>2026-04-03T14:05:14.635Z</time></trkpt><trkpt lat="44.16909170548909" lon="11.480830302058433"><ele>285.0</ele><time>2026-04-03T14:05:15.635Z</time></trkpt><trkpt lat="44.16911115414366" lon="11.48106282089993"><ele>288.6666666666667</ele><time>2026-04-03T14:05:16.635Z</time></trkpt><trkpt lat="44.16913244988826" lon="11.481284966050595"><ele>292.33333333333337</ele><time>2026-04-03T14:05:17.635Z</time></trkpt><trkpt lat="44.16917453394776" lon="11.481500894059765"><ele>296.0</ele><time>2026-04-03T14:05:18.635Z</time></trkpt><trkpt lat="44.16924253195136" lon="11.48172016739422"><ele>296.0</ele><time>2026-04-03T14:05:19.635Z</time></trkpt><trkpt lat="44.1693394557176" lon="11.481937403551077"><ele>296.0</ele><time>2026-04-03T14:05:20.635Z</time></trkpt><trkpt lat="44.16945587026865" lon="11.482128286965091"><ele>296.0</ele><time>2026-04-03T14:05:21.635Z</time></trkpt><trkpt lat="44.1695928749182" lon="11.482288001570318"><ele>302.6666666666667</ele><time>2026-04-03T14:05:22.635Z</time></trkpt><trkpt lat="44.16974169043505" lon="11.482448122849316"><ele>309.3333333333333</ele><time>2026-04-03T14:05:23.635Z</time></trkpt><trkpt lat="44.16988297169724" lon="11.482621355246446"><ele>316.0</ele><time>2026-04-03T14:05:24.635Z</time></trkpt><trkpt lat="44.17001317674581" lon="11.482816205458937"><ele>311.3333333333333</ele><time>2026-04-03T14:05:25.635Z</time></trkpt><trkpt lat="44.170125580786795" lon="11.483012801335775"><ele>306.6666666666667</ele><time>2026-04-03T14:05:26.635Z</time></trkpt><trkpt lat="44.1702331712466" lon="11.483226265558258"><ele>302.0</ele><time>2026-04-03T14:05:27.635Z</time></trkpt><trkpt lat="44.17034262846646" lon="11.483449281162104"><ele>302.0</ele><time>2026-04-03T14:05:28.635Z</time></trkpt><trkpt lat="44.17044157684479" lon="11.483662059118236"><ele>302.0</ele><time>2026-04-03T14:05:29.635Z</time></trkpt><trkpt lat="44.170526295830136" lon="11.483866745915071"><ele>302.0</ele><time>2026-04-03T14:05:30.635Z</time></trkpt><trkpt lat="44.17060342689518" lon="11.484062229272649"><ele>303.25</ele><time>2026-04-03T14:05:31.635Z</time></trkpt><trkpt lat="44.170664394390485" lon="11.484253009381653"><ele>304.5</ele><time>2026-04-03T14:05:32.635Z</time></trkpt><trkpt lat="44.17070391560301" lon="11.484434898188017"><ele>305.75</ele><time>2026-04-03T14:05:33.635Z</time></trkpt><trkpt lat="44.17074539732134" lon="11.48459824364475"><ele>307.0</ele><time>2026-04-03T14:05:34.635Z</time></trkpt><trkpt lat="44.170810634652845" lon="11.48472512197047"><ele>307.0</ele><time>2026-04-03T14:05:35.635Z</time></trkpt><trkpt lat="44.17089252762807" lon="11.484808854499391"><ele>307.0</ele><time>2026-04-03T14:05:36.635Z</time></trkpt><trkpt lat="44.170992063002195" lon="11.484853740833827"><ele>307.0</ele><time>2026-04-03T14:05:37.635Z</time></trkpt><trkpt lat="44.17112520023693" lon="11.484848442433165"><ele>307.0</ele><time>2026-04-03T14:05:38.635Z</time></trkpt><trkpt lat="44.17128048569819" lon="11.484852991738142"><ele>307.0</ele><time>2026-04-03T14:05:39.635Z</time></trkpt><trkpt lat="44.17143703470988" lon="11.48487897376689"><ele>307.0</ele><time>2026-04-03T14:05:40.633Z</time></trkpt><trkpt lat="44.17160617278149" lon="11.484957047113793"><ele>307.0</ele><time>2026-04-03T14:05:41.633Z</time></trkpt><trkpt lat="44.171776228638564" lon="11.485068720281454"><ele>299.0</ele><time>2026-04-03T14:05:42.633Z</time></trkpt><trkpt lat="44.17196029263363" lon="11.485186359035318"><ele>291.0</ele><time>2026-04-03T14:05:43.632Z</time></trkpt><trkpt lat="44.17214503873675" lon="11.485292136054314"><ele>283.0</ele><time>2026-04-03T14:05:44.633Z</time></trkpt><trkpt lat="44.17232608494477" lon="11.485385508766399"><ele>292.0</ele><time>2026-04-03T14:05:45.633Z</time></trkpt><trkpt lat="44.17250274256903" lon="11.485462664174673"><ele>301.0</ele><time>2026-04-03T14:05:46.633Z</time></trkpt><trkpt lat="44.172677941899906" lon="11.485531673840663"><ele>310.0</ele><time>2026-04-03T14:05:47.633Z</time></trkpt><trkpt lat="44.17285979649148" lon="11.485583913176397"><ele>310.0</ele><time>2026-04-03T14:05:48.633Z</time></trkpt><trkpt lat="44.17304528611127" lon="11.485627312641052"><ele>310.0</ele><time>2026-04-03T14:05:49.633Z</time></trkpt><trkpt lat="44.173240466094555" lon="11.485650714250454"><ele>310.0</ele><time>2026-04-03T14:05:50.633Z</time></trkpt><trkpt lat="44.17343252863666" lon="11.485671150172259"><ele>304.66666666666663</ele><time>2026-04-03T14:05:51.633Z</time></trkpt><trkpt lat="44.1736110774869" lon="11.485692394516539"><ele>299.3333333333333</ele><time>2026-04-03T14:05:52.633Z</time></trkpt><trkpt lat="44.17377580582042" lon="11.485713193782612"><ele>294.0</ele><time>2026-04-03T14:05:53.632Z</time></trkpt><trkpt lat="44.17393350503707" lon="11.485738945013734"><ele>289.75</ele><time>2026-04-03T14:05:54.632Z</time></trkpt><trkpt lat="44.17407932787625" lon="11.485789795359567"><ele>285.5</ele><time>2026-04-03T14:05:55.632Z</time></trkpt><trkpt lat="44.17421909371679" lon="11.485852765071051"><ele>281.25</ele><time>2026-04-03T14:05:56.632Z</time></trkpt><trkpt lat="44.17435793035866" lon="11.485927740287016"><ele>277.0</ele><time>2026-04-03T14:05:57.632Z</time></trkpt><trkpt lat="44.174496919983966" lon="11.486012052525037"><ele>277.0</ele><time>2026-04-03T14:05:58.632Z</time></trkpt><trkpt lat="44.17462439286455" lon="11.48612016388864"><ele>277.0</ele><time>2026-04-03T14:05:59.632Z</time></trkpt><trkpt lat="44.17473670823292" lon="11.486236569804632"><ele>277.0</ele><time>2026-04-03T14:06:00.632Z</time></trkpt><trkpt lat="44.17482521924637" lon="11.48636361414394"><ele>277.0</ele><time>2026-04-03T14:06:01.632Z</time></trkpt><trkpt lat="44.17488868837377" lon="11.486506961760796"><ele>277.25</ele><time>2026-04-03T14:06:02.632Z</time></trkpt><trkpt lat="44.174931386261704" lon="11.48668590789108"><ele>277.5</ele><time>2026-04-03T14:06:03.632Z</time></trkpt><trkpt lat="44.17497945474427" lon="11.486877457402185"><ele>277.75</ele><time>2026-04-03T14:06:04.632Z</time></trkpt><trkpt lat="44.175042831203356" lon="11.487049493222047"><ele>278.0</ele><time>2026-04-03T14:06:05.632Z</time></trkpt><trkpt lat="44.17512691138792" lon="11.487213528960591"><ele>278.75</ele><time>2026-04-03T14:06:06.632Z</time></trkpt><trkpt lat="44.17523569299847" lon="11.487345417131815"><ele>279.5</ele><time>2026-04-03T14:06:07.632Z</time></trkpt><trkpt lat="44.175359473673865" lon="11.487453848029382"><ele>280.25</ele><time>2026-04-03T14:06:08.632Z</time></trkpt><trkpt lat="44.17547547826281" lon="11.487527100324856"><ele>281.0</ele><time>2026-04-03T14:06:09.632Z</time></trkpt><trkpt lat="44.175607941904" lon="11.487556664371134"><ele>282.0</ele><time>2026-04-03T14:06:10.632Z</time></trkpt><trkpt lat="44.17575907341583" lon="11.487532355464984"><ele>283.0</ele><time>2026-04-03T14:06:11.632Z</time></trkpt><trkpt lat="44.17589124133615" lon="11.487458817608777"><ele>284.0</ele><time>2026-04-03T14:06:12.632Z</time></trkpt><trkpt lat="44.176020245657625" lon="11.4873461666453"><ele>285.0</ele><time>2026-04-03T14:06:13.632Z</time></trkpt><trkpt lat="44.17612145014187" lon="11.487233294728656"><ele>285.0</ele><time>2026-04-03T14:06:14.632Z</time></trkpt><trkpt lat="44.17622064159536" lon="11.487127658079286"><ele>285.0</ele><time>2026-04-03T14:06:15.632Z</time></trkpt><trkpt lat="44.17631667712169" lon="11.487032667959339"><ele>285.0</ele><time>2026-04-03T14:06:16.632Z</time></trkpt><trkpt lat="44.176438563325746" lon="11.486984662508114"><ele>285.0</ele><time>2026-04-03T14:06:17.632Z</time></trkpt><trkpt lat="44.17657380824593" lon="11.486977380521129"><ele>282.6666666666667</ele><time>2026-04-03T14:06:18.632Z</time></trkpt><trkpt lat="44.176714260585655" lon="11.487010693940944"><ele>280.33333333333337</ele><time>2026-04-03T14:06:19.632Z</time></trkpt><trkpt lat="44.17686383833989" lon="11.487075613101325"><ele>278.0</ele><time>2026-04-03T14:06:20.632Z</time></trkpt><trkpt lat="44.17701093551063" lon="11.487166584517752"><ele>278.33333333333337</ele><time>2026-04-03T14:06:21.632Z</time></trkpt><trkpt lat="44.17715054264753" lon="11.487267062202077"><ele>278.6666666666667</ele><time>2026-04-03T14:06:22.632Z</time></trkpt><trkpt lat="44.17728401456919" lon="11.487383487476272"><ele>279.0</ele><time>2026-04-03T14:06:23.632Z</time></trkpt><trkpt lat="44.1774032434321" lon="11.487518083950222"><ele>279.0</ele><time>2026-04-03T14:06:24.632Z</time></trkpt><trkpt lat="44.177506304039596" lon="11.487666150809542"><ele>279.0</ele><time>2026-04-03T14:06:25.632Z</time></trkpt><trkpt lat="44.177579264924226" lon="11.48783397229029"><ele>279.0</ele><time>2026-04-03T14:06:26.632Z</time></trkpt><trkpt lat="44.177634607550836" lon="11.488029302096447"><ele>279.0</ele><time>2026-04-03T14:06:27.632Z</time></trkpt><trkpt lat="44.17767812168136" lon="11.488244445000724"><ele>281.0</ele><time>2026-04-03T14:06:28.632Z</time></trkpt><trkpt lat="44.17772641480543" lon="11.48847239309739"><ele>283.0</ele><time>2026-04-03T14:06:29.632Z</time></trkpt><trkpt lat="44.177773186554525" lon="11.488707755753731"><ele>285.0</ele><time>2026-04-03T14:06:30.632Z</time></trkpt><trkpt lat="44.17782252363914" lon="11.48893449321638"><ele>286.3333333333333</ele><time>2026-04-03T14:06:31.632Z</time></trkpt><trkpt lat="44.17786184443872" lon="11.489146790883474"><ele>287.66666666666663</ele><time>2026-04-03T14:06:32.632Z</time></trkpt><trkpt lat="44.17789152368326" lon="11.489351765472577"><ele>289.0</ele><time>2026-04-03T14:06:33.632Z</time></trkpt><trkpt lat="44.177887847294585" lon="11.489562543488114"><ele>287.66666666666663</ele><time>2026-04-03T14:06:34.632Z</time></trkpt><trkpt lat="44.177857021282875" lon="11.48977583371557"><ele>286.3333333333333</ele><time>2026-04-03T14:06:35.632Z</time></trkpt><trkpt lat="44.177823714142406" lon="11.48999583203995"><ele>285.0</ele><time>2026-04-03T14:06:36.632Z</time></trkpt><trkpt lat="44.17778977302864" lon="11.490216726297854"><ele>285.0</ele><time>2026-04-03T14:06:37.632Z</time></trkpt><trkpt lat="44.17777444829608" lon="11.490422289787071"><ele>285.0</ele><time>2026-04-03T14:06:38.632Z</time></trkpt><trkpt lat="44.17774100693005" lon="11.490617413465227"><ele>285.0</ele><time>2026-04-03T14:06:39.632Z</time></trkpt><trkpt lat="44.17768353426043" lon="11.490793210535681"><ele>285.0</ele><time>2026-04-03T14:06:40.632Z</time></trkpt><trkpt lat="44.17761512123751" lon="11.490946360143143"><ele>284.0</ele><time>2026-04-03T14:06:41.632Z</time></trkpt><trkpt lat="44.177543238651964" lon="11.49105579231039"><ele>283.0</ele><time>2026-04-03T14:06:42.632Z</time></trkpt><trkpt lat="44.177456121919846" lon="11.491145639310666"><ele>282.0</ele><time>2026-04-03T14:06:43.632Z</time></trkpt><trkpt lat="44.17735361259686" lon="11.49123081077394"><ele>281.0</ele><time>2026-04-03T14:06:44.632Z</time></trkpt><trkpt lat="44.17725338848226" lon="11.49133753586038"><ele>284.5</ele><time>2026-04-03T14:06:45.632Z</time></trkpt><trkpt lat="44.17717551043051" lon="11.491474453135755"><ele>288.0</ele><time>2026-04-03T14:06:46.632Z</time></trkpt><trkpt lat="44.1771027688893" lon="11.491633863162262"><ele>291.5</ele><time>2026-04-03T14:06:47.632Z</time></trkpt><trkpt lat="44.17702566288705" lon="11.4917966389989"><ele>295.0</ele><time>2026-04-03T14:06:48.632Z</time></trkpt><trkpt lat="44.17694394992298" lon="11.491935311618136"><ele>295.0</ele><time>2026-04-03T14:06:49.632Z</time></trkpt><trkpt lat="44.17684383402962" lon="11.492029896176813"><ele>295.0</ele><time>2026-04-03T14:06:50.632Z</time></trkpt><trkpt lat="44.17673193715315" lon="11.492100178419378"><ele>295.0</ele><time>2026-04-03T14:06:51.632Z</time></trkpt><trkpt lat="44.176629692008" lon="11.4921970994916"><ele>295.0</ele><time>2026-04-03T14:06:52.632Z</time></trkpt><trkpt lat="44.176555892641694" lon="11.492327149258417"><ele>291.75</ele><time>2026-04-03T14:06:53.632Z</time></trkpt><trkpt lat="44.17651018247401" lon="11.492487688938278"><ele>288.5</ele><time>2026-04-03T14:06:54.632Z</time></trkpt><trkpt lat="44.176515245096205" lon="11.492670727436202"><ele>285.25</ele><time>2026-04-03T14:06:55.632Z</time></trkpt><trkpt lat="44.17656135827437" lon="11.492855566935418"><ele>282.0</ele><time>2026-04-03T14:06:56.632Z</time></trkpt><trkpt lat="44.17663034799913" lon="11.493045937927388"><ele>281.0</ele><time>2026-04-03T14:06:57.632Z</time></trkpt><trkpt lat="44.17668718726359" lon="11.493250822310591"><ele>280.0</ele><time>2026-04-03T14:06:58.632Z</time></trkpt><trkpt lat="44.17670686877598" lon="11.49347400236554"><ele>279.0</ele><time>2026-04-03T14:06:59.632Z</time></trkpt><trkpt lat="44.17669927074179" lon="11.493705833289102"><ele>281.3333333333333</ele><time>2026-04-03T14:07:00.632Z</time></trkpt><trkpt lat="44.17671454557468" lon="11.49394138014656"><ele>283.66666666666663</ele><time>2026-04-03T14:07:01.632Z</time></trkpt><trkpt lat="44.17678727224874" lon="11.494161933396095"><ele>286.0</ele><time>2026-04-03T14:07:02.632Z</time></trkpt><trkpt lat="44.17688231950653" lon="11.494351057000355"><ele>286.0</ele><time>2026-04-03T14:07:03.632Z</time></trkpt><trkpt lat="44.176964169127174" lon="11.494523581444826"><ele>286.0</ele><time>2026-04-03T14:07:04.632Z</time></trkpt><trkpt lat="44.17699613995244" lon="11.494690697098967"><ele>286.0</ele><time>2026-04-03T14:07:05.632Z</time></trkpt><trkpt lat="44.176994928881484" lon="11.494845783708634"><ele>286.0</ele><time>2026-04-03T14:07:06.632Z</time></trkpt><trkpt lat="44.17695410624793" lon="11.495004727604236"><ele>288.3333333333333</ele><time>2026-04-03T14:07:07.632Z</time></trkpt><trkpt lat="44.17687410324314" lon="11.495160751200602"><ele>290.6666666666667</ele><time>2026-04-03T14:07:08.632Z</time></trkpt><trkpt lat="44.17675752096288" lon="11.495310413864939"><ele>293.0</ele><time>2026-04-03T14:07:09.632Z</time></trkpt><trkpt lat="44.17663747142424" lon="11.495468281761902"><ele>293.0</ele><time>2026-04-03T14:07:10.632Z</time></trkpt><trkpt lat="44.17655277388006" lon="11.4956063966263"><ele>293.0</ele><time>2026-04-03T14:07:11.632Z</time></trkpt><trkpt lat="44.17650468828455" lon="11.495740524524493"><ele>293.0</ele><time>2026-04-03T14:07:12.632Z</time></trkpt><trkpt lat="44.17650780882269" lon="11.495873186182628"><ele>293.0</ele><time>2026-04-03T14:07:13.632Z</time></trkpt><trkpt lat="44.176557254562944" lon="11.495987409052589"><ele>293.0</ele><time>2026-04-03T14:07:14.632Z</time></trkpt><trkpt lat="44.17664500125811" lon="11.496062975016503"><ele>293.0</ele><time>2026-04-03T14:07:15.632Z</time></trkpt><trkpt lat="44.176749974774204" lon="11.496082242148109"><ele>293.0</ele><time>2026-04-03T14:07:16.632Z</time></trkpt><trkpt lat="44.1768722879242" lon="11.49603823366701"><ele>293.0</ele><time>2026-04-03T14:07:17.632Z</time></trkpt><trkpt lat="44.176999198496304" lon="11.495965172043164"><ele>293.0</ele><time>2026-04-03T14:07:18.632Z</time></trkpt><trkpt lat="44.1771030380713" lon="11.495847450117228"><ele>293.0</ele><time>2026-04-03T14:07:19.632Z</time></trkpt><trkpt lat="44.177204841403935" lon="11.4956933246368"><ele>293.0</ele><time>2026-04-03T14:07:20.632Z</time></trkpt><trkpt lat="44.177311058640605" lon="11.49553202708468"><ele>293.0</ele><time>2026-04-03T14:07:21.632Z</time></trkpt><trkpt lat="44.17741276876767" lon="11.495398812146393"><ele>293.0</ele><time>2026-04-03T14:07:22.632Z</time></trkpt><trkpt lat="44.17750472402459" lon="11.495280107455054"><ele>290.25</ele><time>2026-04-03T14:07:23.632Z</time></trkpt><trkpt lat="44.17760687964867" lon="11.495196069114163"><ele>287.5</ele><time>2026-04-03T14:07:24.632Z</time></trkpt><trkpt lat="44.17773118757611" lon="11.495146089328474"><ele>284.75</ele><time>2026-04-03T14:07:25.632Z</time></trkpt><trkpt lat="44.17787597334276" lon="11.495132015430265"><ele>282.0</ele><time>2026-04-03T14:07:26.632Z</time></trkpt><trkpt lat="44.17801187509778" lon="11.495152065700761"><ele>282.0</ele><time>2026-04-03T14:07:27.632Z</time></trkpt><trkpt lat="44.17813255519353" lon="11.495201584369077"><ele>282.0</ele><time>2026-04-03T14:07:28.632Z</time></trkpt><trkpt lat="44.17823042238987" lon="11.495291338748816"><ele>282.0</ele><time>2026-04-03T14:07:29.632Z</time></trkpt><trkpt lat="44.17832371339534" lon="11.4954253289618"><ele>282.0</ele><time>2026-04-03T14:07:30.632Z</time></trkpt><trkpt lat="44.17841380754502" lon="11.495598358647191"><ele>285.6666666666667</ele><time>2026-04-03T14:07:31.632Z</time></trkpt><trkpt lat="44.178494638430244" lon="11.495787526337473"><ele>289.33333333333337</ele><time>2026-04-03T14:07:32.631Z</time></trkpt><trkpt lat="44.17856961779639" lon="11.495983746310928"><ele>293.0</ele><time>2026-04-03T14:07:33.631Z</time></trkpt><trkpt lat="44.178636923553306" lon="11.496183024596276"><ele>295.0</ele><time>2026-04-03T14:07:34.631Z</time></trkpt><trkpt lat="44.178698515571746" lon="11.496385165846341"><ele>297.0</ele><time>2026-04-03T14:07:35.631Z</time></trkpt><trkpt lat="44.17875066468623" lon="11.496579552246907"><ele>299.0</ele><time>2026-04-03T14:07:36.631Z</time></trkpt><trkpt lat="44.178780591104506" lon="11.496759224324075"><ele>301.0</ele><time>2026-04-03T14:07:37.631Z</time></trkpt><trkpt lat="44.17878223825544" lon="11.496932979838428"><ele>301.0</ele><time>2026-04-03T14:07:38.631Z</time></trkpt><trkpt lat="44.178756606097146" lon="11.49710422395052"><ele>301.0</ele><time>2026-04-03T14:07:39.631Z</time></trkpt><trkpt lat="44.178698697358016" lon="11.497266862433921"><ele>301.0</ele><time>2026-04-03T14:07:40.631Z</time></trkpt><trkpt lat="44.17860828442648" lon="11.497412583418539"><ele>301.0</ele><time>2026-04-03T14:07:41.631Z</time></trkpt><trkpt lat="44.178480421875996" lon="11.497536166810129"><ele>301.0</ele><time>2026-04-03T14:07:42.631Z</time></trkpt><trkpt lat="44.17832423187665" lon="11.497624027987015"><ele>301.0</ele><time>2026-04-03T14:07:43.631Z</time></trkpt><trkpt lat="44.17815647676124" lon="11.497701282541183"><ele>301.0</ele><time>2026-04-03T14:07:44.631Z</time></trkpt><trkpt lat="44.17800025744218" lon="11.497783299934884"><ele>304.25</ele><time>2026-04-03T14:07:45.631Z</time></trkpt><trkpt lat="44.177857456408" lon="11.497861780298491"><ele>307.5</ele><time>2026-04-03T14:07:46.628Z</time></trkpt><trkpt lat="44.17773802152733" lon="11.49794339256184"><ele>310.75</ele><time>2026-04-03T14:07:47.628Z</time></trkpt><trkpt lat="44.17765471664417" lon="11.49805119672148"><ele>314.0</ele><time>2026-04-03T14:07:48.628Z</time></trkpt><trkpt lat="44.17762115623438" lon="11.498176020943257"><ele>314.0</ele><time>2026-04-03T14:07:49.629Z</time></trkpt><trkpt lat="44.17763866897359" lon="11.498308727330633"><ele>314.0</ele><time>2026-04-03T14:07:50.629Z</time></trkpt><trkpt lat="44.177709700132965" lon="11.498428715693748"><ele>314.0</ele><time>2026-04-03T14:07:51.629Z</time></trkpt><trkpt lat="44.177821115015824" lon="11.498523941016366"><ele>314.0</ele><time>2026-04-03T14:07:52.629Z</time></trkpt><trkpt lat="44.1779694404926" lon="11.498587857600556"><ele>314.0</ele><time>2026-04-03T14:07:53.629Z</time></trkpt><trkpt lat="44.17813594557902" lon="11.498624270289369"><ele>314.0</ele><time>2026-04-03T14:07:54.629Z</time></trkpt><trkpt lat="44.17829287861865" lon="11.498664043310242"><ele>314.0</ele><time>2026-04-03T14:07:55.629Z</time></trkpt><trkpt lat="44.17844955013978" lon="11.498705603178367"><ele>318.6666666666667</ele><time>2026-04-03T14:07:56.629Z</time></trkpt><trkpt lat="44.1785869778522" lon="11.498793231765301"><ele>323.3333333333333</ele><time>2026-04-03T14:07:57.629Z</time></trkpt><trkpt lat="44.17871690032176" lon="11.498918570001418"><ele>328.0</ele><time>2026-04-03T14:07:58.629Z</time></trkpt><trkpt lat="44.17885215076211" lon="11.499060455981176"><ele>328.0</ele><time>2026-04-03T14:07:59.628Z</time></trkpt><trkpt lat="44.179003830326714" lon="11.499205999836871"><ele>328.0</ele><time>2026-04-03T14:08:00.628Z</time></trkpt><trkpt lat="44.17915639116856" lon="11.499369709939938"><ele>328.0</ele><time>2026-04-03T14:08:01.628Z</time></trkpt><trkpt lat="44.17929899700876" lon="11.49955143155853"><ele>328.66666666666663</ele><time>2026-04-03T14:08:02.628Z</time></trkpt><trkpt lat="44.1794317334701" lon="11.499740642493796"><ele>329.3333333333333</ele><time>2026-04-03T14:08:03.628Z</time></trkpt><trkpt lat="44.17954810078151" lon="11.499936538322414"><ele>330.0</ele><time>2026-04-03T14:08:04.628Z</time></trkpt><trkpt lat="44.17966674339479" lon="11.50012693973306"><ele>330.0</ele><time>2026-04-03T14:08:05.628Z</time></trkpt><trkpt lat="44.17978579007738" lon="11.500284642889882"><ele>330.0</ele><time>2026-04-03T14:08:06.628Z</time></trkpt><trkpt lat="44.179889577770886" lon="11.500406052338905"><ele>330.0</ele><time>2026-04-03T14:08:07.628Z</time></trkpt><trkpt lat="44.179972842662394" lon="11.500522811431258"><ele>330.0</ele><time>2026-04-03T14:08:08.628Z</time></trkpt><trkpt lat="44.18003941609472" lon="11.500681672030842"><ele>328.3333333333333</ele><time>2026-04-03T14:08:09.628Z</time></trkpt><trkpt lat="44.18009923069642" lon="11.50088715500138"><ele>326.66666666666663</ele><time>2026-04-03T14:08:10.628Z</time></trkpt><trkpt lat="44.180152989122185" lon="11.501096164374681"><ele>325.0</ele><time>2026-04-03T14:08:11.628Z</time></trkpt><trkpt lat="44.180210937940906" lon="11.501323638535547"><ele>325.0</ele><time>2026-04-03T14:08:12.628Z</time></trkpt><trkpt lat="44.18028210755594" lon="11.501529380149652"><ele>325.0</ele><time>2026-04-03T14:08:13.628Z</time></trkpt><trkpt lat="44.18036713931453" lon="11.501711853303096"><ele>325.0</ele><time>2026-04-03T14:08:14.628Z</time></trkpt><trkpt lat="44.18044512090247" lon="11.501876618730845"><ele>325.0</ele><time>2026-04-03T14:08:15.628Z</time></trkpt><trkpt lat="44.18050571696423" lon="11.50202331865984"><ele>325.0</ele><time>2026-04-03T14:08:16.628Z</time></trkpt><trkpt lat="44.180593283352074" lon="11.50213615489997"><ele>325.0</ele><time>2026-04-03T14:08:17.628Z</time></trkpt><trkpt lat="44.180699216047216" lon="11.502201506197352"><ele>325.0</ele><time>2026-04-03T14:08:18.628Z</time></trkpt><trkpt lat="44.18083247030806" lon="11.50220893754505"><ele>319.66666666666663</ele><time>2026-04-03T14:08:19.628Z</time></trkpt><trkpt lat="44.18097742121367" lon="11.50216119373242"><ele>314.3333333333333</ele><time>2026-04-03T14:08:20.628Z</time></trkpt><trkpt lat="44.18112693279286" lon="11.502114715670276"><ele>309.0</ele><time>2026-04-03T14:08:21.628Z</time></trkpt><trkpt lat="44.181281398659344" lon="11.502067941825054"><ele>306.25</ele><time>2026-04-03T14:08:22.628Z</time></trkpt><trkpt lat="44.181425947406076" lon="11.502026706071783"><ele>303.5</ele><time>2026-04-03T14:08:23.628Z</time></trkpt><trkpt lat="44.18156960573674" lon="11.5019919308137"><ele>300.75</ele><time>2026-04-03T14:08:24.628Z</time></trkpt><trkpt lat="44.18170574592662" lon="11.501960014249448"><ele>298.0</ele><time>2026-04-03T14:08:25.628Z</time></trkpt><trkpt lat="44.18182569793347" lon="11.501936001370446"><ele>297.66666666666663</ele><time>2026-04-03T14:08:26.628Z</time></trkpt><trkpt lat="44.18192533421958" lon="11.50191636720959"><ele>297.3333333333333</ele><time>2026-04-03T14:08:27.628Z</time></trkpt><trkpt lat="44.18200541227997" lon="11.501906144946632"><ele>297.0</ele><time>2026-04-03T14:08:28.628Z</time></trkpt><trkpt lat="44.18206961632878" lon="11.501939590972475"><ele>296.6666666666667</ele><time>2026-04-03T14:08:29.628Z</time></trkpt><trkpt lat="44.182128174698825" lon="11.502003841551126"><ele>296.33333333333337</ele><time>2026-04-03T14:08:30.628Z</time></trkpt><trkpt lat="44.182180720225325" lon="11.502109088433393"><ele>296.0</ele><time>2026-04-03T14:08:31.628Z</time></trkpt><trkpt lat="44.18221253782503" lon="11.502255578252454"><ele>297.25</ele><time>2026-04-03T14:08:32.628Z</time></trkpt><trkpt lat="44.182229326089775" lon="11.502406938955469"><ele>298.5</ele><time>2026-04-03T14:08:33.628Z</time></trkpt><trkpt lat="44.18226705347501" lon="11.502583192049961"><ele>299.75</ele><time>2026-04-03T14:08:34.628Z</time></trkpt><trkpt lat="44.18230359601841" lon="11.5027717107781"><ele>301.0</ele><time>2026-04-03T14:08:35.628Z</time></trkpt><trkpt lat="44.182341287651106" lon="11.502973004054768"><ele>297.3333333333333</ele><time>2026-04-03T14:08:36.628Z</time></trkpt><trkpt lat="44.18237684992637" lon="11.503186512269806"><ele>293.6666666666667</ele><time>2026-04-03T14:08:37.628Z</time></trkpt><trkpt lat="44.182411474281906" lon="11.5033880361365"><ele>290.0</ele><time>2026-04-03T14:08:38.628Z</time></trkpt><trkpt lat="44.182463923423704" lon="11.503578114827349"><ele>290.0</ele><time>2026-04-03T14:08:39.628Z</time></trkpt><trkpt lat="44.18254156291164" lon="11.503742623367657"><ele>290.0</ele><time>2026-04-03T14:08:40.628Z</time></trkpt><trkpt lat="44.18263362393749" lon="11.503877253542486"><ele>290.0</ele><time>2026-04-03T14:08:41.628Z</time></trkpt><trkpt lat="44.18276957935721" lon="11.503972558709483"><ele>290.0</ele><time>2026-04-03T14:08:42.628Z</time></trkpt><trkpt lat="44.18291646400153" lon="11.504021348654518"><ele>292.25</ele><time>2026-04-03T14:08:43.628Z</time></trkpt><trkpt lat="44.183068718084556" lon="11.504037521785586"><ele>294.5</ele><time>2026-04-03T14:08:44.628Z</time></trkpt><trkpt lat="44.18321860846391" lon="11.504035767900616"><ele>296.75</ele><time>2026-04-03T14:08:45.628Z</time></trkpt><trkpt lat="44.18335540723293" lon="11.504003159617582"><ele>299.0</ele><time>2026-04-03T14:08:46.628Z</time></trkpt><trkpt lat="44.18348112485137" lon="11.50392931675721"><ele>299.0</ele><time>2026-04-03T14:08:47.628Z</time></trkpt><trkpt lat="44.183590324577175" lon="11.50379109457797"><ele>299.0</ele><time>2026-04-03T14:08:48.628Z</time></trkpt><trkpt lat="44.18370094165077" lon="11.503634344412855"><ele>299.0</ele><time>2026-04-03T14:08:49.628Z</time></trkpt><trkpt lat="44.18381914374185" lon="11.503503707314978"><ele>294.0</ele><time>2026-04-03T14:08:50.628Z</time></trkpt><trkpt lat="44.18393292882643" lon="11.503416748973727"><ele>289.0</ele><time>2026-04-03T14:08:51.628Z</time></trkpt><trkpt lat="44.18406249502321" lon="11.50338171302318"><ele>284.0</ele><time>2026-04-03T14:08:52.628Z</time></trkpt><trkpt lat="44.184208362023924" lon="11.503375450275144"><ele>279.0</ele><time>2026-04-03T14:08:53.628Z</time></trkpt><trkpt lat="44.1843624273087" lon="11.503373536021298"><ele>277.25</ele><time>2026-04-03T14:08:54.628Z</time></trkpt><trkpt lat="44.18452008224997" lon="11.503349078718799"><ele>275.5</ele><time>2026-04-03T14:08:55.628Z</time></trkpt><trkpt lat="44.184660416199044" lon="11.503298999060624"><ele>273.75</ele><time>2026-04-03T14:08:56.628Z</time></trkpt><trkpt lat="44.18478251571475" lon="11.503277938883594"><ele>272.0</ele><time>2026-04-03T14:08:57.628Z</time></trkpt><trkpt lat="44.1849013870523" lon="11.503270182797634"><ele>271.0</ele><time>2026-04-03T14:08:58.628Z</time></trkpt><trkpt lat="44.18501036231489" lon="11.50332587654792"><ele>270.0</ele><time>2026-04-03T14:08:59.628Z</time></trkpt><trkpt lat="44.18511514292406" lon="11.503439030568344"><ele>269.0</ele><time>2026-04-03T14:09:00.628Z</time></trkpt><trkpt lat="44.185194226639005" lon="11.503567362526207"><ele>268.0</ele><time>2026-04-03T14:09:01.628Z</time></trkpt><trkpt lat="44.185277146367355" lon="11.50368294365551"><ele>267.6</ele><time>2026-04-03T14:09:02.628Z</time></trkpt><trkpt lat="44.185367865792756" lon="11.503776393082989"><ele>267.20000000000005</ele><time>2026-04-03T14:09:03.628Z</time></trkpt><trkpt lat="44.18546879717941" lon="11.503835456628122"><ele>266.8</ele><time>2026-04-03T14:09:04.628Z</time></trkpt><trkpt lat="44.18557158130126" lon="11.50384122641779"><ele>266.40000000000003</ele><time>2026-04-03T14:09:05.628Z</time></trkpt><trkpt lat="44.1856457053472" lon="11.503774487653788"><ele>266.0</ele><time>2026-04-03T14:09:06.628Z</time></trkpt><trkpt lat="44.1856850659621" lon="11.503651781794241"><ele>266.0</ele><time>2026-04-03T14:09:07.628Z</time></trkpt><trkpt lat="44.1856907202557" lon="11.50348642170741"><ele>266.0</ele><time>2026-04-03T14:09:08.628Z</time></trkpt><trkpt lat="44.18566978004682" lon="11.503294789747496"><ele>266.0</ele><time>2026-04-03T14:09:09.628Z</time></trkpt><trkpt lat="44.185629080816796" lon="11.50310831756718"><ele>266.0</ele><time>2026-04-03T14:09:10.628Z</time></trkpt><trkpt lat="44.1855588162545" lon="11.502946135586408"><ele>262.25</ele><time>2026-04-03T14:09:11.628Z</time></trkpt><trkpt lat="44.185480920618176" lon="11.502813458329637"><ele>258.5</ele><time>2026-04-03T14:09:12.628Z</time></trkpt><trkpt lat="44.18544783265419" lon="11.502647604172576"><ele>254.75</ele><time>2026-04-03T14:09:13.628Z</time></trkpt><trkpt lat="44.18544104202802" lon="11.502460959622878"><ele>251.0</ele><time>2026-04-03T14:09:14.628Z</time></trkpt><trkpt lat="44.18543750650649" lon="11.502268313235534"><ele>249.75</ele><time>2026-04-03T14:09:15.628Z</time></trkpt><trkpt lat="44.18544937893201" lon="11.502079010245403"><ele>248.5</ele><time>2026-04-03T14:09:16.628Z</time></trkpt><trkpt lat="44.185484465333595" lon="11.501904646380035"><ele>247.25</ele><time>2026-04-03T14:09:17.628Z</time></trkpt><trkpt lat="44.18555591219601" lon="11.501725621795378"><ele>246.0</ele><time>2026-04-03T14:09:18.628Z</time></trkpt><trkpt lat="44.18564969131195" lon="11.50155784042859"><ele>247.0</ele><time>2026-04-03T14:09:19.628Z</time></trkpt><trkpt lat="44.18573475312124" lon="11.501382197346102"><ele>248.0</ele><time>2026-04-03T14:09:20.628Z</time></trkpt><trkpt lat="44.1857904044191" lon="11.501185245484658"><ele>249.0</ele><time>2026-04-03T14:09:21.628Z</time></trkpt><trkpt lat="44.185819601870804" lon="11.500988269138526"><ele>250.0</ele><time>2026-04-03T14:09:22.628Z</time></trkpt><trkpt lat="44.18585112254645" lon="11.500819564398661"><ele>247.8</ele><time>2026-04-03T14:09:23.628Z</time></trkpt><trkpt lat="44.185885775692924" lon="11.500666965220793"><ele>245.6</ele><time>2026-04-03T14:09:24.628Z</time></trkpt><trkpt lat="44.18593278512331" lon="11.500532013516567"><ele>243.39999999999998</ele><time>2026-04-03T14:09:25.628Z</time></trkpt><trkpt lat="44.18600032795518" lon="11.500414335928253"><ele>241.2</ele><time>2026-04-03T14:09:26.628Z</time></trkpt><trkpt lat="44.18608129626034" lon="11.500319508780468"><ele>239.0</ele><time>2026-04-03T14:09:27.628Z</time></trkpt><trkpt lat="44.186160849042466" lon="11.500241684353313"><ele>236.2</ele><time>2026-04-03T14:09:28.628Z</time></trkpt><trkpt lat="44.18622872851015" lon="11.500186535213617"><ele>233.39999999999998</ele><time>2026-04-03T14:09:29.628Z</time></trkpt><trkpt lat="44.1863134515949" lon="11.500120435405252"><ele>230.6</ele><time>2026-04-03T14:09:31.628Z</time></trkpt><trkpt lat="44.18637127915097" lon="11.500082108509455"><ele>227.8</ele><time>2026-04-03T14:09:34.628Z</time></trkpt><trkpt lat="44.186435242819485" lon="11.500034119652621"><ele>225.0</ele><time>2026-04-03T14:09:45.628Z</time></trkpt><trkpt lat="44.186572999774604" lon="11.500005679417749"><ele>225.0</ele><time>2026-04-03T14:09:47.628Z</time></trkpt><trkpt lat="44.18667824457589" lon="11.50001778136009"><ele>225.0</ele><time>2026-04-03T14:09:48.628Z</time></trkpt><trkpt lat="44.186790411229" lon="11.500062159733663"><ele>225.0</ele><time>2026-04-03T14:09:49.628Z</time></trkpt><trkpt lat="44.18688773608481" lon="11.500127130657393"><ele>225.0</ele><time>2026-04-03T14:09:50.628Z</time></trkpt><trkpt lat="44.18696167547962" lon="11.50019612383128"><ele>225.0</ele><time>2026-04-03T14:09:51.628Z</time></trkpt><trkpt lat="44.18700539708636" lon="11.500296093888675"><ele>225.0</ele><time>2026-04-03T14:09:52.624Z</time></trkpt><trkpt lat="44.187015290789866" lon="11.500407364114045"><ele>225.0</ele><time>2026-04-03T14:09:53.625Z</time></trkpt><trkpt lat="44.18698656850122" lon="11.500532871559226"><ele>225.0</ele><time>2026-04-03T14:09:54.625Z</time></trkpt><trkpt lat="44.18693118857434" lon="11.500656345159753"><ele>225.0</ele><time>2026-04-03T14:09:55.624Z</time></trkpt><trkpt lat="44.18687453503161" lon="11.500789730692949"><ele>225.0</ele><time>2026-04-03T14:09:56.625Z</time></trkpt><trkpt lat="44.186833599505874" lon="11.500957925760105"><ele>226.4</ele><time>2026-04-03T14:09:57.625Z</time></trkpt><trkpt lat="44.18680853233147" lon="11.501121119118325"><ele>227.8</ele><time>2026-04-03T14:09:58.624Z</time></trkpt><trkpt lat="44.18679830710643" lon="11.501270008425674"><ele>229.2</ele><time>2026-04-03T14:09:59.624Z</time></trkpt><trkpt lat="44.18680484099641" lon="11.501399272611803"><ele>230.6</ele><time>2026-04-03T14:10:00.624Z</time></trkpt><trkpt lat="44.18684674437564" lon="11.501494969581211"><ele>232.0</ele><time>2026-04-03T14:10:01.625Z</time></trkpt><trkpt lat="44.18691016800947" lon="11.501551595031067"><ele>232.5</ele><time>2026-04-03T14:10:02.624Z</time></trkpt><trkpt lat="44.186996990282054" lon="11.501576731618306"><ele>233.0</ele><time>2026-04-03T14:10:03.624Z</time></trkpt><trkpt lat="44.18711367252029" lon="11.501582069721806"><ele>233.5</ele><time>2026-04-03T14:10:04.625Z</time></trkpt><trkpt lat="44.18725021964174" lon="11.501581895818545"><ele>234.0</ele><time>2026-04-03T14:10:05.625Z</time></trkpt><trkpt lat="44.1873892067439" lon="11.501575576333085"><ele>223.66666666666669</ele><time>2026-04-03T14:10:06.625Z</time></trkpt><trkpt lat="44.18753462675582" lon="11.50157351890076"><ele>213.33333333333334</ele><time>2026-04-03T14:10:07.625Z</time></trkpt><trkpt lat="44.18769395534027" lon="11.501576897912068"><ele>203.0</ele><time>2026-04-03T14:10:08.625Z</time></trkpt><trkpt lat="44.18785059565493" lon="11.501577178010196"><ele>203.0</ele><time>2026-04-03T14:10:09.625Z</time></trkpt><trkpt lat="44.18799312749059" lon="11.501579593445047"><ele>203.0</ele><time>2026-04-03T14:10:10.625Z</time></trkpt><trkpt lat="44.18813170006531" lon="11.50157866287477"><ele>203.0</ele><time>2026-04-03T14:10:11.625Z</time></trkpt><trkpt lat="44.1882513498687" lon="11.501563925809114"><ele>203.0</ele><time>2026-04-03T14:10:12.625Z</time></trkpt><trkpt lat="44.18835333546052" lon="11.501522076457759"><ele>204.0</ele><time>2026-04-03T14:10:13.625Z</time></trkpt><trkpt lat="44.188437201681" lon="11.501428865717122"><ele>205.0</ele><time>2026-04-03T14:10:14.625Z</time></trkpt><trkpt lat="44.188511171885374" lon="11.501283999837202"><ele>206.0</ele><time>2026-04-03T14:10:15.625Z</time></trkpt><trkpt lat="44.18857915493075" lon="11.501094420985728"><ele>207.0</ele><time>2026-04-03T14:10:16.625Z</time></trkpt><trkpt lat="44.188648236825166" lon="11.500892890303016"><ele>211.0</ele><time>2026-04-03T14:10:17.625Z</time></trkpt><trkpt lat="44.18872521282826" lon="11.50067475598723"><ele>215.0</ele><time>2026-04-03T14:10:18.625Z</time></trkpt><trkpt lat="44.188814035036884" lon="11.500456937399854"><ele>219.0</ele><time>2026-04-03T14:10:19.625Z</time></trkpt><trkpt lat="44.18891098467217" lon="11.500257011832757"><ele>222.0</ele><time>2026-04-03T14:10:20.624Z</time></trkpt><trkpt lat="44.189004746860725" lon="11.500078285253315"><ele>225.0</ele><time>2026-04-03T14:10:21.624Z</time></trkpt><trkpt lat="44.18911540841606" lon="11.499920412290914"><ele>228.0</ele><time>2026-04-03T14:10:22.624Z</time></trkpt><trkpt lat="44.18925965688113" lon="11.499772888088575"><ele>228.0</ele><time>2026-04-03T14:10:23.624Z</time></trkpt><trkpt lat="44.189400442550344" lon="11.499650036648443"><ele>228.0</ele><time>2026-04-03T14:10:24.624Z</time></trkpt><trkpt lat="44.189539794603014" lon="11.499553708405413"><ele>228.0</ele><time>2026-04-03T14:10:25.624Z</time></trkpt><trkpt lat="44.18966779484332" lon="11.499483153224048"><ele>231.75</ele><time>2026-04-03T14:10:26.624Z</time></trkpt><trkpt lat="44.189789240219596" lon="11.49943679993956"><ele>235.5</ele><time>2026-04-03T14:10:27.624Z</time></trkpt><trkpt lat="44.189920103418096" lon="11.499430268057441"><ele>239.25</ele><time>2026-04-03T14:10:28.624Z</time></trkpt><trkpt lat="44.19006646718433" lon="11.499470086073943"><ele>243.0</ele><time>2026-04-03T14:10:29.624Z</time></trkpt><trkpt lat="44.19022890873693" lon="11.499546703034921"><ele>236.66666666666669</ele><time>2026-04-03T14:10:30.624Z</time></trkpt><trkpt lat="44.19039647179968" lon="11.499644727739348"><ele>230.33333333333334</ele><time>2026-04-03T14:10:31.624Z</time></trkpt><trkpt lat="44.19055659310325" lon="11.499748256502594"><ele>224.0</ele><time>2026-04-03T14:10:32.624Z</time></trkpt><trkpt lat="44.19071247960672" lon="11.499873247665086"><ele>224.0</ele><time>2026-04-03T14:10:33.624Z</time></trkpt><trkpt lat="44.19086549648731" lon="11.500012388793408"><ele>224.0</ele><time>2026-04-03T14:10:34.624Z</time></trkpt><trkpt lat="44.19102345634882" lon="11.500156973252734"><ele>224.0</ele><time>2026-04-03T14:10:35.624Z</time></trkpt><trkpt lat="44.1911660834415" lon="11.500284372617038"><ele>224.0</ele><time>2026-04-03T14:10:36.624Z</time></trkpt><trkpt lat="44.19131786213881" lon="11.50038802604703"><ele>224.0</ele><time>2026-04-03T14:10:37.624Z</time></trkpt><trkpt lat="44.19146911375075" lon="11.500466658177787"><ele>224.0</ele><time>2026-04-03T14:10:38.624Z</time></trkpt><trkpt lat="44.19162679369599" lon="11.500512582356711"><ele>223.25</ele><time>2026-04-03T14:10:39.624Z</time></trkpt><trkpt lat="44.19178363311943" lon="11.500519016085136"><ele>222.5</ele><time>2026-04-03T14:10:40.624Z</time></trkpt><trkpt lat="44.1919188365434" lon="11.500476802745583"><ele>221.75</ele><time>2026-04-03T14:10:41.624Z</time></trkpt><trkpt lat="44.19202422731776" lon="11.500376530068339"><ele>221.0</ele><time>2026-04-03T14:10:42.624Z</time></trkpt><trkpt lat="44.19212306508029" lon="11.500257202240226"><ele>227.75</ele><time>2026-04-03T14:10:43.624Z</time></trkpt><trkpt lat="44.192228259653724" lon="11.500181592178581"><ele>234.5</ele><time>2026-04-03T14:10:44.624Z</time></trkpt><trkpt lat="44.192338527895785" lon="11.500180673858736"><ele>241.25</ele><time>2026-04-03T14:10:45.624Z</time></trkpt><trkpt lat="44.19245496696741" lon="11.500222738834236"><ele>248.0</ele><time>2026-04-03T14:10:46.624Z</time></trkpt><trkpt lat="44.19258549438672" lon="11.500305928646199"><ele>248.0</ele><time>2026-04-03T14:10:47.624Z</time></trkpt><trkpt lat="44.1926944188313" lon="11.50040009558997"><ele>248.0</ele><time>2026-04-03T14:10:48.624Z</time></trkpt><trkpt lat="44.19284614732574" lon="11.500445642451567"><ele>248.0</ele><time>2026-04-03T14:10:49.624Z</time></trkpt><trkpt lat="44.19301759208988" lon="11.500466266026137"><ele>237.66666666666669</ele><time>2026-04-03T14:10:50.624Z</time></trkpt><trkpt lat="44.19319927253602" lon="11.500437204895627"><ele>227.33333333333331</ele><time>2026-04-03T14:10:51.624Z</time></trkpt><trkpt lat="44.193377024817465" lon="11.500430899801554"><ele>217.0</ele><time>2026-04-03T14:10:52.624Z</time></trkpt><trkpt lat="44.19354891681993" lon="11.50045643408893"><ele>217.0</ele><time>2026-04-03T14:10:53.624Z</time></trkpt><trkpt lat="44.193725456687794" lon="11.500455616962658"><ele>217.0</ele><time>2026-04-03T14:10:54.624Z</time></trkpt><trkpt lat="44.19390856544506" lon="11.50040903025119"><ele>217.0</ele><time>2026-04-03T14:10:55.624Z</time></trkpt><trkpt lat="44.19408527015023" lon="11.50032252161948"><ele>230.33333333333331</ele><time>2026-04-03T14:10:56.624Z</time></trkpt><trkpt lat="44.194267476561166" lon="11.500239168236996"><ele>243.66666666666669</ele><time>2026-04-03T14:10:57.624Z</time></trkpt><trkpt lat="44.19443201586797" lon="11.500190089955243"><ele>257.0</ele><time>2026-04-03T14:10:58.624Z</time></trkpt><trkpt lat="44.1945822812444" lon="11.500176778050625"><ele>257.0</ele><time>2026-04-03T14:10:59.624Z</time></trkpt><trkpt lat="44.194701748171525" lon="11.500190333944765"><ele>257.0</ele><time>2026-04-03T14:11:00.624Z</time></trkpt><trkpt lat="44.194803299907726" lon="11.500244219295709"><ele>257.0</ele><time>2026-04-03T14:11:01.624Z</time></trkpt><trkpt lat="44.19487935305841" lon="11.50035405886749"><ele>257.0</ele><time>2026-04-03T14:11:02.624Z</time></trkpt><trkpt lat="44.19496751665188" lon="11.50047166648569"><ele>255.39999999999998</ele><time>2026-04-03T14:11:03.624Z</time></trkpt><trkpt lat="44.19506007708326" lon="11.500541723093766"><ele>253.79999999999998</ele><time>2026-04-03T14:11:04.624Z</time></trkpt><trkpt lat="44.19516558335442" lon="11.500562767758469"><ele>252.2</ele><time>2026-04-03T14:11:05.624Z</time></trkpt><trkpt lat="44.19527865307657" lon="11.500517859773877"><ele>250.6</ele><time>2026-04-03T14:11:06.624Z</time></trkpt><trkpt lat="44.19538341230371" lon="11.500452228394593"><ele>249.0</ele><time>2026-04-03T14:11:07.624Z</time></trkpt><trkpt lat="44.1954823839794" lon="11.500399042429567"><ele>251.75</ele><time>2026-04-03T14:11:08.624Z</time></trkpt><trkpt lat="44.19556470793049" lon="11.500419587544629"><ele>254.5</ele><time>2026-04-03T14:11:09.624Z</time></trkpt><trkpt lat="44.195638986780054" lon="11.500513245839484"><ele>257.25</ele><time>2026-04-03T14:11:10.624Z</time></trkpt><trkpt lat="44.19569598329155" lon="11.500662799254503"><ele>260.0</ele><time>2026-04-03T14:11:11.624Z</time></trkpt><trkpt lat="44.19573244179856" lon="11.500884506345583"><ele>260.0</ele><time>2026-04-03T14:11:12.624Z</time></trkpt><trkpt lat="44.19573936893599" lon="11.501113261417615"><ele>260.0</ele><time>2026-04-03T14:11:13.624Z</time></trkpt><trkpt lat="44.19575278849488" lon="11.501344628133266"><ele>260.0</ele><time>2026-04-03T14:11:14.624Z</time></trkpt><trkpt lat="44.19574541272429" lon="11.501501380499562"><ele>260.0</ele><time>2026-04-03T14:11:15.624Z</time></trkpt><trkpt lat="44.19578026995631" lon="11.501677016710204"><ele>255.5</ele><time>2026-04-03T14:11:16.624Z</time></trkpt><trkpt lat="44.19584621852169" lon="11.501819508011252"><ele>251.0</ele><time>2026-04-03T14:11:17.624Z</time></trkpt><trkpt lat="44.195959622139206" lon="11.501941344221532"><ele>246.5</ele><time>2026-04-03T14:11:18.624Z</time></trkpt><trkpt lat="44.196099084594735" lon="11.502058500486655"><ele>242.0</ele><time>2026-04-03T14:11:19.624Z</time></trkpt><trkpt lat="44.196246948010725" lon="11.502165048916703"><ele>242.66666666666669</ele><time>2026-04-03T14:11:20.624Z</time></trkpt><trkpt lat="44.196389935463245" lon="11.50225870294823"><ele>243.33333333333331</ele><time>2026-04-03T14:11:21.624Z</time></trkpt><trkpt lat="44.196537484479585" lon="11.502335408224706"><ele>244.0</ele><time>2026-04-03T14:11:22.624Z</time></trkpt><trkpt lat="44.196693150858806" lon="11.502377613238382"><ele>244.0</ele><time>2026-04-03T14:11:23.624Z</time></trkpt><trkpt lat="44.196832963282226" lon="11.502395574638232"><ele>244.0</ele><time>2026-04-03T14:11:24.624Z</time></trkpt><trkpt lat="44.19697249194961" lon="11.5023640722132"><ele>244.0</ele><time>2026-04-03T14:11:25.624Z</time></trkpt><trkpt lat="44.197113664166224" lon="11.502297240779452"><ele>244.0</ele><time>2026-04-03T14:11:26.624Z</time></trkpt><trkpt lat="44.19723841857106" lon="11.502190456863763"><ele>251.0</ele><time>2026-04-03T14:11:27.624Z</time></trkpt><trkpt lat="44.19734664006253" lon="11.502070068815753"><ele>258.0</ele><time>2026-04-03T14:11:28.624Z</time></trkpt><trkpt lat="44.197449634892074" lon="11.501972352142673"><ele>265.0</ele><time>2026-04-03T14:11:29.624Z</time></trkpt><trkpt lat="44.19755509854768" lon="11.501917491191984"><ele>272.0</ele><time>2026-04-03T14:11:30.624Z</time></trkpt><trkpt lat="44.19765663777041" lon="11.501927041743109"><ele>272.0</ele><time>2026-04-03T14:11:31.624Z</time></trkpt><trkpt lat="44.197768818266375" lon="11.50198089147213"><ele>272.0</ele><time>2026-04-03T14:11:32.624Z</time></trkpt><trkpt lat="44.19788969739263" lon="11.502081043314975"><ele>272.0</ele><time>2026-04-03T14:11:33.624Z</time></trkpt><trkpt lat="44.1980200580259" lon="11.502178550449855"><ele>272.0</ele><time>2026-04-03T14:11:34.624Z</time></trkpt><trkpt lat="44.19815148179858" lon="11.50228305712135"><ele>265.0</ele><time>2026-04-03T14:11:35.624Z</time></trkpt><trkpt lat="44.198275942746015" lon="11.502407333860962"><ele>258.0</ele><time>2026-04-03T14:11:36.624Z</time></trkpt><trkpt lat="44.198400446524424" lon="11.502530638967015"><ele>251.0</ele><time>2026-04-03T14:11:37.624Z</time></trkpt><trkpt lat="44.19853610060242" lon="11.50261819375117"><ele>251.0</ele><time>2026-04-03T14:11:38.624Z</time></trkpt><trkpt lat="44.198681438186995" lon="11.502668414724322"><ele>251.0</ele><time>2026-04-03T14:11:39.624Z</time></trkpt><trkpt lat="44.19883162891339" lon="11.502705656347208"><ele>251.0</ele><time>2026-04-03T14:11:40.624Z</time></trkpt><trkpt lat="44.19898371500341" lon="11.502739230417584"><ele>254.75</ele><time>2026-04-03T14:11:41.624Z</time></trkpt><trkpt lat="44.199128237556025" lon="11.502730649417773"><ele>258.5</ele><time>2026-04-03T14:11:42.624Z</time></trkpt><trkpt lat="44.19926043114256" lon="11.502662946991936"><ele>262.25</ele><time>2026-04-03T14:11:43.624Z</time></trkpt><trkpt lat="44.19936871490921" lon="11.50256073288391"><ele>266.0</ele><time>2026-04-03T14:11:44.624Z</time></trkpt><trkpt lat="44.19947516190486" lon="11.50248781480921"><ele>266.0</ele><time>2026-04-03T14:11:45.624Z</time></trkpt><trkpt lat="44.19958302717538" lon="11.502466412216805"><ele>266.0</ele><time>2026-04-03T14:11:46.624Z</time></trkpt><trkpt lat="44.199701645582024" lon="11.50249537049992"><ele>266.0</ele><time>2026-04-03T14:11:47.624Z</time></trkpt><trkpt lat="44.19981055458187" lon="11.502540392153113"><ele>266.0</ele><time>2026-04-03T14:11:48.624Z</time></trkpt><trkpt lat="44.19990278800652" lon="11.50261562114028"><ele>267.5</ele><time>2026-04-03T14:11:49.624Z</time></trkpt><trkpt lat="44.19996975254209" lon="11.502737419621042"><ele>269.0</ele><time>2026-04-03T14:11:50.624Z</time></trkpt><trkpt lat="44.200050515460816" lon="11.502892326300639"><ele>270.5</ele><time>2026-04-03T14:11:51.624Z</time></trkpt><trkpt lat="44.20016057157697" lon="11.502981315324861"><ele>272.0</ele><time>2026-04-03T14:11:52.624Z</time></trkpt><trkpt lat="44.2002912978728" lon="11.503044480910592"><ele>266.0</ele><time>2026-04-03T14:11:53.624Z</time></trkpt><trkpt lat="44.20043774024951" lon="11.5030838172151"><ele>260.0</ele><time>2026-04-03T14:11:54.624Z</time></trkpt><trkpt lat="44.20059328259369" lon="11.503111502250963"><ele>254.0</ele><time>2026-04-03T14:11:55.624Z</time></trkpt><trkpt lat="44.20077584129946" lon="11.50313181628997"><ele>254.0</ele><time>2026-04-03T14:11:56.624Z</time></trkpt><trkpt lat="44.20096459178328" lon="11.503160386845646"><ele>254.0</ele><time>2026-04-03T14:11:57.624Z</time></trkpt><trkpt lat="44.2011662279168" lon="11.50316978498457"><ele>254.0</ele><time>2026-04-03T14:11:58.621Z</time></trkpt><trkpt lat="44.20136050943734" lon="11.503196578208145"><ele>253.66666666666669</ele><time>2026-04-03T14:11:59.621Z</time></trkpt><trkpt lat="44.20156284335496" lon="11.50321597450096"><ele>253.33333333333331</ele><time>2026-04-03T14:12:00.621Z</time></trkpt><trkpt lat="44.201750442343766" lon="11.503242004454055"><ele>253.0</ele><time>2026-04-03T14:12:01.621Z</time></trkpt><trkpt lat="44.201929616877734" lon="11.503275928055052"><ele>253.0</ele><time>2026-04-03T14:12:02.621Z</time></trkpt><trkpt lat="44.20209297494459" lon="11.503325143157463"><ele>253.0</ele><time>2026-04-03T14:12:03.621Z</time></trkpt><trkpt lat="44.20224702144227" lon="11.503351374320113"><ele>253.0</ele><time>2026-04-03T14:12:04.621Z</time></trkpt><trkpt lat="44.202393163763915" lon="11.503344137170904"><ele>252.5</ele><time>2026-04-03T14:12:05.621Z</time></trkpt><trkpt lat="44.20253562563666" lon="11.503296404176815"><ele>252.0</ele><time>2026-04-03T14:12:06.621Z</time></trkpt><trkpt lat="44.20266701930637" lon="11.503285944613637"><ele>251.5</ele><time>2026-04-03T14:12:07.621Z</time></trkpt><trkpt lat="44.202772399493384" lon="11.503166083568386"><ele>251.0</ele><time>2026-04-03T14:12:08.621Z</time></trkpt><trkpt lat="44.20285624772146" lon="11.503044384164147"><ele>251.0</ele><time>2026-04-03T14:12:09.621Z</time></trkpt><trkpt lat="44.20293852974436" lon="11.502996915052313"><ele>251.0</ele><time>2026-04-03T14:12:10.621Z</time></trkpt><trkpt lat="44.203051446275765" lon="11.503011571387638"><ele>251.0</ele><time>2026-04-03T14:12:11.621Z</time></trkpt><trkpt lat="44.20318382037067" lon="11.503099252383254"><ele>251.0</ele><time>2026-04-03T14:12:12.621Z</time></trkpt><trkpt lat="44.20333803052714" lon="11.503156007581014"><ele>248.33333333333334</ele><time>2026-04-03T14:12:13.621Z</time></trkpt><trkpt lat="44.20350842352676" lon="11.503167355095586"><ele>245.66666666666669</ele><time>2026-04-03T14:12:14.621Z</time></trkpt><trkpt lat="44.203683610626086" lon="11.503161503499097"><ele>243.0</ele><time>2026-04-03T14:12:15.621Z</time></trkpt><trkpt lat="44.20387242066843" lon="11.503153138334467"><ele>243.66666666666669</ele><time>2026-04-03T14:12:16.621Z</time></trkpt><trkpt lat="44.20405642373671" lon="11.503138737311385"><ele>244.33333333333334</ele><time>2026-04-03T14:12:17.621Z</time></trkpt><trkpt lat="44.20424513836188" lon="11.503133121844472"><ele>245.0</ele><time>2026-04-03T14:12:18.621Z</time></trkpt><trkpt lat="44.20444190096485" lon="11.50313680990263"><ele>245.0</ele><time>2026-04-03T14:12:19.621Z</time></trkpt><trkpt lat="44.20463427054407" lon="11.503163899172403"><ele>245.0</ele><time>2026-04-03T14:12:20.621Z</time></trkpt><trkpt lat="44.20481948938511" lon="11.503215080165951"><ele>245.0</ele><time>2026-04-03T14:12:21.621Z</time></trkpt><trkpt lat="44.2050136582347" lon="11.503255389579131"><ele>244.33333333333334</ele><time>2026-04-03T14:12:22.621Z</time></trkpt><trkpt lat="44.205216346312696" lon="11.503274341375187"><ele>243.66666666666669</ele><time>2026-04-03T14:12:23.621Z</time></trkpt><trkpt lat="44.205420691977245" lon="11.503295752201712"><ele>243.0</ele><time>2026-04-03T14:12:24.621Z</time></trkpt><trkpt lat="44.20562589955642" lon="11.503315269652285"><ele>242.33333333333331</ele><time>2026-04-03T14:12:25.621Z</time></trkpt><trkpt lat="44.20582972454286" lon="11.503347422295008"><ele>241.66666666666666</ele><time>2026-04-03T14:12:26.621Z</time></trkpt><trkpt lat="44.20604122046788" lon="11.50337539578441"><ele>241.0</ele><time>2026-04-03T14:12:27.621Z</time></trkpt><trkpt lat="44.20625118189892" lon="11.503400874912135"><ele>241.0</ele><time>2026-04-03T14:12:28.621Z</time></trkpt><trkpt lat="44.20646906081183" lon="11.50342374107583"><ele>241.0</ele><time>2026-04-03T14:12:29.621Z</time></trkpt><trkpt lat="44.206701412412784" lon="11.503454066426547"><ele>241.33333333333331</ele><time>2026-04-03T14:12:30.621Z</time></trkpt><trkpt lat="44.2069214596925" lon="11.503480137660276"><ele>241.66666666666669</ele><time>2026-04-03T14:12:31.621Z</time></trkpt><trkpt lat="44.20714290504546" lon="11.503503540206136"><ele>242.0</ele><time>2026-04-03T14:12:32.621Z</time></trkpt><trkpt lat="44.20735233653851" lon="11.503524893232324"><ele>242.0</ele><time>2026-04-03T14:12:33.621Z</time></trkpt><trkpt lat="44.20754270841098" lon="11.503550978280963"><ele>242.0</ele><time>2026-04-03T14:12:34.621Z</time></trkpt><trkpt lat="44.20771819677584" lon="11.503591852922911"><ele>242.0</ele><time>2026-04-03T14:12:35.621Z</time></trkpt><trkpt lat="44.20786921147311" lon="11.50365794999035"><ele>242.0</ele><time>2026-04-03T14:12:36.621Z</time></trkpt><trkpt lat="44.208009563167806" lon="11.503732429861973"><ele>242.0</ele><time>2026-04-03T14:12:37.621Z</time></trkpt><trkpt lat="44.20814146623615" lon="11.503771342355313"><ele>242.0</ele><time>2026-04-03T14:12:38.621Z</time></trkpt><trkpt lat="44.20826177243609" lon="11.503753914803626"><ele>242.0</ele><time>2026-04-03T14:12:39.621Z</time></trkpt><trkpt lat="44.20836399630235" lon="11.503676083871444"><ele>241.2</ele><time>2026-04-03T14:12:40.621Z</time></trkpt><trkpt lat="44.20844698171597" lon="11.503550217582765"><ele>240.39999999999998</ele><time>2026-04-03T14:12:41.621Z</time></trkpt><trkpt lat="44.20852576754322" lon="11.503449375123655"><ele>239.60000000000002</ele><time>2026-04-03T14:12:42.621Z</time></trkpt><trkpt lat="44.20860890567772" lon="11.503391826380447"><ele>238.8</ele><time>2026-04-03T14:12:43.621Z</time></trkpt><trkpt lat="44.20871289236574" lon="11.503420934947929"><ele>238.0</ele><time>2026-04-03T14:12:44.621Z</time></trkpt><trkpt lat="44.20883015126051" lon="11.503492470253004"><ele>238.0</ele><time>2026-04-03T14:12:45.621Z</time></trkpt><trkpt lat="44.208950923757385" lon="11.503563428980716"><ele>238.0</ele><time>2026-04-03T14:12:46.621Z</time></trkpt><trkpt lat="44.209081877316486" lon="11.503616782061735"><ele>238.0</ele><time>2026-04-03T14:12:47.621Z</time></trkpt><trkpt lat="44.20922051127521" lon="11.50367496471379"><ele>238.0</ele><time>2026-04-03T14:12:48.621Z</time></trkpt><trkpt lat="44.20936677170554" lon="11.503744519993479"><ele>234.66666666666666</ele><time>2026-04-03T14:12:49.621Z</time></trkpt><trkpt lat="44.20951883004994" lon="11.503820505758448"><ele>231.33333333333331</ele><time>2026-04-03T14:12:50.621Z</time></trkpt><trkpt lat="44.2096737063956" lon="11.503898169173839"><ele>228.0</ele><time>2026-04-03T14:12:51.621Z</time></trkpt><trkpt lat="44.20982725312995" lon="11.503968033179131"><ele>228.0</ele><time>2026-04-03T14:12:52.621Z</time></trkpt><trkpt lat="44.20997680922872" lon="11.50402791198436"><ele>228.0</ele><time>2026-04-03T14:12:53.621Z</time></trkpt><trkpt lat="44.21011702504394" lon="11.504095302143117"><ele>228.0</ele><time>2026-04-03T14:12:54.621Z</time></trkpt><trkpt lat="44.210248701073496" lon="11.504161584095417"><ele>228.0</ele><time>2026-04-03T14:12:55.621Z</time></trkpt><trkpt lat="44.210394600537356" lon="11.504225022188535"><ele>228.0</ele><time>2026-04-03T14:12:56.621Z</time></trkpt><trkpt lat="44.210539617923075" lon="11.504291457495956"><ele>228.0</ele><time>2026-04-03T14:12:57.621Z</time></trkpt><trkpt lat="44.21068370189683" lon="11.504355284235011"><ele>228.0</ele><time>2026-04-03T14:12:58.621Z</time></trkpt><trkpt lat="44.210821006723855" lon="11.5044143122807"><ele>228.0</ele><time>2026-04-03T14:12:59.62Z</time></trkpt><trkpt lat="44.2109567991571" lon="11.504467986624366"><ele>227.25</ele><time>2026-04-03T14:13:00.62Z</time></trkpt><trkpt lat="44.211098176392376" lon="11.50452894064873"><ele>226.5</ele><time>2026-04-03T14:13:01.62Z</time></trkpt><trkpt lat="44.21122911685804" lon="11.504584077495686"><ele>225.75</ele><time>2026-04-03T14:13:02.62Z</time></trkpt><trkpt lat="44.21135659902967" lon="11.504638249933272"><ele>225.0</ele><time>2026-04-03T14:13:03.62Z</time></trkpt><trkpt lat="44.21147994890354" lon="11.504687581781937"><ele>223.75</ele><time>2026-04-03T14:13:04.62Z</time></trkpt><trkpt lat="44.21159972053358" lon="11.504743971900359"><ele>222.5</ele><time>2026-04-03T14:13:05.62Z</time></trkpt><trkpt lat="44.211720309063374" lon="11.504790995999237"><ele>221.25</ele><time>2026-04-03T14:13:06.62Z</time></trkpt><trkpt lat="44.21185444932309" lon="11.50482338809386"><ele>220.0</ele><time>2026-04-03T14:13:07.62Z</time></trkpt><trkpt lat="44.21199555253691" lon="11.504835476662869"><ele>220.0</ele><time>2026-04-03T14:13:08.62Z</time></trkpt><trkpt lat="44.21213483523165" lon="11.50482297138209"><ele>220.0</ele><time>2026-04-03T14:13:09.62Z</time></trkpt><trkpt lat="44.21227386347146" lon="11.504800771852738"><ele>220.0</ele><time>2026-04-03T14:13:10.62Z</time></trkpt><trkpt lat="44.21240555926599" lon="11.50474729062739"><ele>220.0</ele><time>2026-04-03T14:13:11.62Z</time></trkpt><trkpt lat="44.212543389575096" lon="11.50470521984071"><ele>218.75</ele><time>2026-04-03T14:13:12.62Z</time></trkpt><trkpt lat="44.21267974120752" lon="11.504685507601387"><ele>217.5</ele><time>2026-04-03T14:13:13.62Z</time></trkpt><trkpt lat="44.212810215056386" lon="11.504672636426017"><ele>216.25</ele><time>2026-04-03T14:13:14.62Z</time></trkpt><trkpt lat="44.21294022283274" lon="11.504642839240262"><ele>215.0</ele><time>2026-04-03T14:13:15.62Z</time></trkpt><trkpt lat="44.213069206754234" lon="11.504651272432803"><ele>214.5</ele><time>2026-04-03T14:13:16.62Z</time></trkpt><trkpt lat="44.21322778171507" lon="11.504699635296289"><ele>214.0</ele><time>2026-04-03T14:13:17.62Z</time></trkpt><trkpt lat="44.213367739776416" lon="11.504699244965705"><ele>213.5</ele><time>2026-04-03T14:13:18.62Z</time></trkpt><trkpt lat="44.21350027336439" lon="11.504691569487917"><ele>213.0</ele><time>2026-04-03T14:13:19.62Z</time></trkpt><trkpt lat="44.213646682786184" lon="11.504664273508912"><ele>213.0</ele><time>2026-04-03T14:13:20.62Z</time></trkpt><trkpt lat="44.21378732953251" lon="11.504579940334938"><ele>213.0</ele><time>2026-04-03T14:13:21.62Z</time></trkpt><trkpt lat="44.21393220648469" lon="11.504513424676514"><ele>213.0</ele><time>2026-04-03T14:13:22.62Z</time></trkpt><trkpt lat="44.21407245451163" lon="11.504451221251026"><ele>213.75</ele><time>2026-04-03T14:13:23.62Z</time></trkpt><trkpt lat="44.214214577034234" lon="11.504384208932635"><ele>214.5</ele><time>2026-04-03T14:13:24.62Z</time></trkpt><trkpt lat="44.21435819376835" lon="11.504326348175377"><ele>215.25</ele><time>2026-04-03T14:13:25.62Z</time></trkpt><trkpt lat="44.2144957509283" lon="11.50428318139245"><ele>216.0</ele><time>2026-04-03T14:13:26.62Z</time></trkpt><trkpt lat="44.21464333937134" lon="11.504267537273211"><ele>216.0</ele><time>2026-04-03T14:13:27.62Z</time></trkpt><trkpt lat="44.21479694770867" lon="11.504273236085712"><ele>216.0</ele><time>2026-04-03T14:13:28.62Z</time></trkpt><trkpt lat="44.21495634799587" lon="11.504282307721633"><ele>216.0</ele><time>2026-04-03T14:13:29.62Z</time></trkpt><trkpt lat="44.2151204844503" lon="11.50427598634052"><ele>216.0</ele><time>2026-04-03T14:13:30.62Z</time></trkpt><trkpt lat="44.215296144076945" lon="11.504279102307093"><ele>216.0</ele><time>2026-04-03T14:13:31.62Z</time></trkpt><trkpt lat="44.2154649035632" lon="11.504291791334943"><ele>216.0</ele><time>2026-04-03T14:13:32.62Z</time></trkpt><trkpt lat="44.21562755791326" lon="11.504324623152225"><ele>214.66666666666669</ele><time>2026-04-03T14:13:33.62Z</time></trkpt><trkpt lat="44.21579745675233" lon="11.504376171211733"><ele>213.33333333333334</ele><time>2026-04-03T14:13:34.62Z</time></trkpt><trkpt lat="44.215957127705884" lon="11.504444622066467"><ele>212.0</ele><time>2026-04-03T14:13:35.62Z</time></trkpt><trkpt lat="44.21611618224473" lon="11.504522525379118"><ele>209.0</ele><time>2026-04-03T14:13:36.62Z</time></trkpt><trkpt lat="44.21626276311347" lon="11.504606208337144"><ele>206.0</ele><time>2026-04-03T14:13:37.62Z</time></trkpt><trkpt lat="44.216391805525504" lon="11.504665598747502"><ele>203.0</ele><time>2026-04-03T14:13:38.62Z</time></trkpt><trkpt lat="44.21650240003952" lon="11.504715663504868"><ele>200.0</ele><time>2026-04-03T14:13:39.62Z</time></trkpt><trkpt lat="44.21658971509731" lon="11.504733291601864"><ele>200.0</ele><time>2026-04-03T14:13:40.62Z</time></trkpt><trkpt lat="44.216660164464514" lon="11.504677465706383"><ele>200.0</ele><time>2026-04-03T14:13:41.62Z</time></trkpt><trkpt lat="44.21670015456963" lon="11.504570888688129"><ele>200.0</ele><time>2026-04-03T14:13:42.62Z</time></trkpt><trkpt lat="44.216716928281016" lon="11.504408159966378"><ele>200.0</ele><time>2026-04-03T14:13:43.62Z</time></trkpt><trkpt lat="44.21669720449377" lon="11.504210912433853"><ele>200.0</ele><time>2026-04-03T14:13:44.62Z</time></trkpt><trkpt lat="44.21666665793348" lon="11.504023746594655"><ele>200.25</ele><time>2026-04-03T14:13:45.62Z</time></trkpt><trkpt lat="44.21664803581058" lon="11.503828089763203"><ele>200.5</ele><time>2026-04-03T14:13:46.62Z</time></trkpt><trkpt lat="44.21664145843914" lon="11.503643688576998"><ele>200.75</ele><time>2026-04-03T14:13:47.62Z</time></trkpt><trkpt lat="44.216652801603615" lon="11.50347409067584"><ele>201.0</ele><time>2026-04-03T14:13:48.62Z</time></trkpt><trkpt lat="44.216692405389246" lon="11.503309412452298"><ele>201.0</ele><time>2026-04-03T14:13:49.62Z</time></trkpt><trkpt lat="44.21675172707022" lon="11.503175021514242"><ele>201.0</ele><time>2026-04-03T14:13:50.62Z</time></trkpt><trkpt lat="44.21681396409195" lon="11.503077853262381"><ele>201.0</ele><time>2026-04-03T14:13:51.62Z</time></trkpt><trkpt lat="44.21689856950449" lon="11.503031653685255"><ele>201.0</ele><time>2026-04-03T14:13:52.62Z</time></trkpt><trkpt lat="44.21699559033237" lon="11.503031956110402"><ele>201.0</ele><time>2026-04-03T14:13:53.62Z</time></trkpt><trkpt lat="44.21711318137727" lon="11.503077646471286"><ele>201.0</ele><time>2026-04-03T14:13:54.62Z</time></trkpt><trkpt lat="44.2172128894383" lon="11.503159215685468"><ele>201.0</ele><time>2026-04-03T14:13:55.62Z</time></trkpt><trkpt lat="44.21728632455874" lon="11.503252099921403"><ele>201.0</ele><time>2026-04-03T14:13:56.62Z</time></trkpt><trkpt lat="44.217328994466925" lon="11.50340339572387"><ele>201.0</ele><time>2026-04-03T14:13:57.62Z</time></trkpt><trkpt lat="44.21735532389577" lon="11.503592010787107"><ele>201.0</ele><time>2026-04-03T14:13:58.62Z</time></trkpt><trkpt lat="44.2173803321808" lon="11.503799141741212"><ele>201.0</ele><time>2026-04-03T14:13:59.62Z</time></trkpt><trkpt lat="44.217409534011374" lon="11.504009954774126"><ele>201.0</ele><time>2026-04-03T14:14:00.62Z</time></trkpt><trkpt lat="44.21743821074801" lon="11.504217236241969"><ele>201.0</ele><time>2026-04-03T14:14:01.62Z</time></trkpt><trkpt lat="44.217472614920204" lon="11.504419952534027"><ele>201.0</ele><time>2026-04-03T14:14:02.62Z</time></trkpt><trkpt lat="44.217501489797165" lon="11.504595523447009"><ele>201.0</ele><time>2026-04-03T14:14:03.62Z</time></trkpt><trkpt lat="44.21753389220576" lon="11.504743742893119"><ele>201.0</ele><time>2026-04-03T14:14:04.617Z</time></trkpt><trkpt lat="44.21757716278036" lon="11.504885877400811"><ele>199.0</ele><time>2026-04-03T14:14:05.617Z</time></trkpt><trkpt lat="44.21766599818976" lon="11.504987510129327"><ele>197.0</ele><time>2026-04-03T14:14:06.617Z</time></trkpt><trkpt lat="44.21778780859035" lon="11.505077184569624"><ele>195.0</ele><time>2026-04-03T14:14:07.618Z</time></trkpt><trkpt lat="44.217930884746984" lon="11.50511553459913"><ele>193.0</ele><time>2026-04-03T14:14:08.617Z</time></trkpt><trkpt lat="44.21811364851721" lon="11.505140373249013"><ele>193.33333333333331</ele><time>2026-04-03T14:14:09.617Z</time></trkpt><trkpt lat="44.218271216833536" lon="11.505188686481699"><ele>193.66666666666669</ele><time>2026-04-03T14:14:10.617Z</time></trkpt><trkpt lat="44.218432444824664" lon="11.505239893131973"><ele>194.0</ele><time>2026-04-03T14:14:11.617Z</time></trkpt><trkpt lat="44.218574977629586" lon="11.505285184236897"><ele>194.0</ele><time>2026-04-03T14:14:12.617Z</time></trkpt><trkpt lat="44.21871729089439" lon="11.505324761358027"><ele>194.0</ele><time>2026-04-03T14:14:13.617Z</time></trkpt><trkpt lat="44.21885638521894" lon="11.505327455604876"><ele>194.0</ele><time>2026-04-03T14:14:14.617Z</time></trkpt><trkpt lat="44.21900430006338" lon="11.505295172019292"><ele>194.0</ele><time>2026-04-03T14:14:15.617Z</time></trkpt><trkpt lat="44.21916907500651" lon="11.50520107023441"><ele>192.66666666666669</ele><time>2026-04-03T14:14:16.617Z</time></trkpt><trkpt lat="44.2193387582385" lon="11.505102320663386"><ele>191.33333333333334</ele><time>2026-04-03T14:14:17.617Z</time></trkpt><trkpt lat="44.21951250739206" lon="11.504996114536853"><ele>190.0</ele><time>2026-04-03T14:14:18.617Z</time></trkpt><trkpt lat="44.21968527499595" lon="11.50489493675513"><ele>188.0</ele><time>2026-04-03T14:14:19.617Z</time></trkpt><trkpt lat="44.21986239432714" lon="11.504789392577747"><ele>186.0</ele><time>2026-04-03T14:14:20.617Z</time></trkpt><trkpt lat="44.220050323856555" lon="11.504684837121525"><ele>184.0</ele><time>2026-04-03T14:14:21.617Z</time></trkpt><trkpt lat="44.22024725386868" lon="11.50456878834135"><ele>184.0</ele><time>2026-04-03T14:14:22.617Z</time></trkpt><trkpt lat="44.22043256624074" lon="11.5044604911005"><ele>184.0</ele><time>2026-04-03T14:14:23.617Z</time></trkpt><trkpt lat="44.22061647491913" lon="11.504350433435459"><ele>184.0</ele><time>2026-04-03T14:14:24.617Z</time></trkpt><trkpt lat="44.22078403734947" lon="11.50424446809873"><ele>182.33333333333334</ele><time>2026-04-03T14:14:25.617Z</time></trkpt><trkpt lat="44.220944104972105" lon="11.504141215671657"><ele>180.66666666666666</ele><time>2026-04-03T14:14:26.617Z</time></trkpt><trkpt lat="44.22109456639355" lon="11.504035921123615"><ele>179.0</ele><time>2026-04-03T14:14:27.617Z</time></trkpt><trkpt lat="44.22123283993374" lon="11.503955966625753"><ele>179.0</ele><time>2026-04-03T14:14:28.617Z</time></trkpt><trkpt lat="44.22135047793215" lon="11.503885313865556"><ele>179.0</ele><time>2026-04-03T14:14:29.617Z</time></trkpt><trkpt lat="44.22146039373776" lon="11.503842616371834"><ele>179.0</ele><time>2026-04-03T14:14:30.617Z</time></trkpt><trkpt lat="44.22156832605413" lon="11.503839214272979"><ele>179.0</ele><time>2026-04-03T14:14:31.617Z</time></trkpt><trkpt lat="44.221667254209926" lon="11.503870523801579"><ele>177.25</ele><time>2026-04-03T14:14:32.617Z</time></trkpt><trkpt lat="44.22177016856033" lon="11.50395589741533"><ele>175.5</ele><time>2026-04-03T14:14:33.617Z</time></trkpt><trkpt lat="44.221878880887836" lon="11.504065489835954"><ele>173.75</ele><time>2026-04-03T14:14:34.617Z</time></trkpt><trkpt lat="44.221996322004685" lon="11.504177454385221"><ele>172.0</ele><time>2026-04-03T14:14:35.617Z</time></trkpt><trkpt lat="44.22213402457138" lon="11.50428920532076"><ele>172.0</ele><time>2026-04-03T14:14:36.617Z</time></trkpt><trkpt lat="44.222268396906586" lon="11.504402765547217"><ele>172.0</ele><time>2026-04-03T14:14:37.617Z</time></trkpt><trkpt lat="44.222391495616726" lon="11.50450232693399"><ele>172.0</ele><time>2026-04-03T14:14:38.617Z</time></trkpt><trkpt lat="44.222494925356685" lon="11.504557847114965"><ele>172.0</ele><time>2026-04-03T14:14:39.617Z</time></trkpt><trkpt lat="44.22260826624283" lon="11.504544511872355"><ele>171.66666666666669</ele><time>2026-04-03T14:14:40.617Z</time></trkpt><trkpt lat="44.22277323309811" lon="11.504501044856173"><ele>171.33333333333334</ele><time>2026-04-03T14:14:41.617Z</time></trkpt><trkpt lat="44.22295878367541" lon="11.504413973317858"><ele>171.0</ele><time>2026-04-03T14:14:42.617Z</time></trkpt><trkpt lat="44.2231382707474" lon="11.504372140529286"><ele>172.66666666666666</ele><time>2026-04-03T14:14:43.617Z</time></trkpt><trkpt lat="44.22331670727996" lon="11.504364761667967"><ele>174.33333333333331</ele><time>2026-04-03T14:14:44.617Z</time></trkpt><trkpt lat="44.22350505160763" lon="11.504385691747082"><ele>176.0</ele><time>2026-04-03T14:14:45.617Z</time></trkpt><trkpt lat="44.22369187945867" lon="11.50443987194038"><ele>176.0</ele><time>2026-04-03T14:14:46.617Z</time></trkpt><trkpt lat="44.223878686452494" lon="11.504499999268571"><ele>176.0</ele><time>2026-04-03T14:14:47.617Z</time></trkpt><trkpt lat="44.22404697437096" lon="11.504543494403746"><ele>176.0</ele><time>2026-04-03T14:14:48.617Z</time></trkpt><trkpt lat="44.22423865564116" lon="11.504594339446225"><ele>181.66666666666666</ele><time>2026-04-03T14:14:49.617Z</time></trkpt><trkpt lat="44.22442096952532" lon="11.504649334745878"><ele>187.33333333333331</ele><time>2026-04-03T14:14:50.617Z</time></trkpt><trkpt lat="44.224611440887124" lon="11.504703424944891"><ele>193.0</ele><time>2026-04-03T14:14:51.617Z</time></trkpt><trkpt lat="44.224793732231895" lon="11.50476096649071"><ele>190.33333333333331</ele><time>2026-04-03T14:14:52.617Z</time></trkpt><trkpt lat="44.22496418418352" lon="11.50481646084362"><ele>187.66666666666666</ele><time>2026-04-03T14:14:53.617Z</time></trkpt><trkpt lat="44.22514155051878" lon="11.50486547856326"><ele>185.0</ele><time>2026-04-03T14:14:54.617Z</time></trkpt><trkpt lat="44.22531339360453" lon="11.504916205858086"><ele>185.0</ele><time>2026-04-03T14:14:55.617Z</time></trkpt><trkpt lat="44.22549664679225" lon="11.50497361564802"><ele>185.0</ele><time>2026-04-03T14:14:56.617Z</time></trkpt><trkpt lat="44.22568679351366" lon="11.50502912879164"><ele>185.0</ele><time>2026-04-03T14:14:57.617Z</time></trkpt><trkpt lat="44.22588532975444" lon="11.505092080302068"><ele>181.33333333333331</ele><time>2026-04-03T14:14:58.617Z</time></trkpt><trkpt lat="44.226090209057396" lon="11.505149171880134"><ele>177.66666666666666</ele><time>2026-04-03T14:14:59.617Z</time></trkpt><trkpt lat="44.22629701919906" lon="11.505211933691728"><ele>174.0</ele><time>2026-04-03T14:15:00.617Z</time></trkpt><trkpt lat="44.226496100577904" lon="11.50527259230144"><ele>171.66666666666666</ele><time>2026-04-03T14:15:01.617Z</time></trkpt><trkpt lat="44.22670066976477" lon="11.505334648337069"><ele>169.33333333333331</ele><time>2026-04-03T14:15:02.617Z</time></trkpt><trkpt lat="44.22688969548602" lon="11.505397687561892"><ele>167.0</ele><time>2026-04-03T14:15:03.617Z</time></trkpt><trkpt lat="44.22707867809866" lon="11.50547708447494"><ele>168.33333333333331</ele><time>2026-04-03T14:15:04.617Z</time></trkpt><trkpt lat="44.227249892120206" lon="11.50556429557442"><ele>169.66666666666666</ele><time>2026-04-03T14:15:05.617Z</time></trkpt><trkpt lat="44.22740281711712" lon="11.505680994132158"><ele>171.0</ele><time>2026-04-03T14:15:06.617Z</time></trkpt><trkpt lat="44.22753178243884" lon="11.505817099264936"><ele>171.0</ele><time>2026-04-03T14:15:07.617Z</time></trkpt><trkpt lat="44.22763404425642" lon="11.505968341007852"><ele>171.0</ele><time>2026-04-03T14:15:08.617Z</time></trkpt><trkpt lat="44.22771662420824" lon="11.506146760204045"><ele>171.0</ele><time>2026-04-03T14:15:09.617Z</time></trkpt><trkpt lat="44.22777913093373" lon="11.506354107976074"><ele>174.33333333333334</ele><time>2026-04-03T14:15:10.617Z</time></trkpt><trkpt lat="44.22782878523017" lon="11.50658373699306"><ele>177.66666666666669</ele><time>2026-04-03T14:15:11.617Z</time></trkpt><trkpt lat="44.22787432385101" lon="11.506817074462601"><ele>181.0</ele><time>2026-04-03T14:15:12.617Z</time></trkpt><trkpt lat="44.22790584382402" lon="11.507044768452792"><ele>182.0</ele><time>2026-04-03T14:15:13.617Z</time></trkpt><trkpt lat="44.227937917819595" lon="11.507257254299706"><ele>183.0</ele><time>2026-04-03T14:15:14.617Z</time></trkpt><trkpt lat="44.22798912484865" lon="11.507456836647533"><ele>184.0</ele><time>2026-04-03T14:15:15.617Z</time></trkpt><trkpt lat="44.228066225710364" lon="11.507641360464575"><ele>180.66666666666669</ele><time>2026-04-03T14:15:16.617Z</time></trkpt><trkpt lat="44.22818272242108" lon="11.507800743787914"><ele>177.33333333333334</ele><time>2026-04-03T14:15:17.617Z</time></trkpt><trkpt lat="44.22831135040849" lon="11.507955301554402"><ele>174.0</ele><time>2026-04-03T14:15:18.617Z</time></trkpt><trkpt lat="44.22846267564798" lon="11.508114904715024"><ele>174.0</ele><time>2026-04-03T14:15:19.617Z</time></trkpt><trkpt lat="44.22862392906174" lon="11.508306612507551"><ele>174.0</ele><time>2026-04-03T14:15:20.617Z</time></trkpt><trkpt lat="44.2287780672433" lon="11.50848766664881"><ele>174.0</ele><time>2026-04-03T14:15:21.617Z</time></trkpt><trkpt lat="44.22894111361028" lon="11.50866581496631"><ele>173.33333333333334</ele><time>2026-04-03T14:15:22.617Z</time></trkpt><trkpt lat="44.22910803011292" lon="11.508847152551875"><ele>172.66666666666669</ele><time>2026-04-03T14:15:23.617Z</time></trkpt><trkpt lat="44.229277779047315" lon="11.509021036835618"><ele>172.0</ele><time>2026-04-03T14:15:24.617Z</time></trkpt><trkpt lat="44.22945349812298" lon="11.5091919027802"><ele>172.0</ele><time>2026-04-03T14:15:25.617Z</time></trkpt><trkpt lat="44.229635408323205" lon="11.50935987819938"><ele>172.0</ele><time>2026-04-03T14:15:26.617Z</time></trkpt><trkpt lat="44.22980325194982" lon="11.50951856403839"><ele>172.0</ele><time>2026-04-03T14:15:27.617Z</time></trkpt><trkpt lat="44.2299797208807" lon="11.509679164307078"><ele>171.0</ele><time>2026-04-03T14:15:28.617Z</time></trkpt><trkpt lat="44.23015949882943" lon="11.509848471263425"><ele>170.0</ele><time>2026-04-03T14:15:29.617Z</time></trkpt><trkpt lat="44.2303405863887" lon="11.510025959335708"><ele>169.0</ele><time>2026-04-03T14:15:30.617Z</time></trkpt><trkpt lat="44.23052766000369" lon="11.510204053760875"><ele>170.0</ele><time>2026-04-03T14:15:31.617Z</time></trkpt><trkpt lat="44.230716191138896" lon="11.510384472204604"><ele>171.0</ele><time>2026-04-03T14:15:32.617Z</time></trkpt><trkpt lat="44.2309005165774" lon="11.510563079833934"><ele>171.0</ele><time>2026-04-03T14:15:33.617Z</time></trkpt><trkpt lat="44.231088387780595" lon="11.510740771473474"><ele>171.0</ele><time>2026-04-03T14:15:34.617Z</time></trkpt><trkpt lat="44.231281591305624" lon="11.51091787064994"><ele>171.0</ele><time>2026-04-03T14:15:35.617Z</time></trkpt><trkpt lat="44.23147372440649" lon="11.511096813442366"><ele>171.0</ele><time>2026-04-03T14:15:36.617Z</time></trkpt><trkpt lat="44.231663882585146" lon="11.511274518999365"><ele>169.0</ele><time>2026-04-03T14:15:37.617Z</time></trkpt><trkpt lat="44.23185338675734" lon="11.511452497986339"><ele>167.0</ele><time>2026-04-03T14:15:38.617Z</time></trkpt><trkpt lat="44.23204774211491" lon="11.51162553863798"><ele>167.0</ele><time>2026-04-03T14:15:39.617Z</time></trkpt><trkpt lat="44.232240853961564" lon="11.511797532843504"><ele>167.0</ele><time>2026-04-03T14:15:40.617Z</time></trkpt><trkpt lat="44.23243212768288" lon="11.511975937512661"><ele>168.5</ele><time>2026-04-03T14:15:41.617Z</time></trkpt><trkpt lat="44.23262308260131" lon="11.512156016337718"><ele>170.0</ele><time>2026-04-03T14:15:42.617Z</time></trkpt><trkpt lat="44.23281216574851" lon="11.512332713730194"><ele>170.0</ele><time>2026-04-03T14:15:43.617Z</time></trkpt><trkpt lat="44.23299212252319" lon="11.512500020205014"><ele>170.0</ele><time>2026-04-03T14:15:44.617Z</time></trkpt><trkpt lat="44.23316223915078" lon="11.512655983273772"><ele>170.0</ele><time>2026-04-03T14:15:45.617Z</time></trkpt><trkpt lat="44.23331579021303" lon="11.51280892459398"><ele>171.66666666666666</ele><time>2026-04-03T14:15:46.617Z</time></trkpt><trkpt lat="44.23346869577127" lon="11.512944890679103"><ele>173.33333333333334</ele><time>2026-04-03T14:15:47.617Z</time></trkpt><trkpt lat="44.233612453353274" lon="11.513079495458426"><ele>175.0</ele><time>2026-04-03T14:15:48.617Z</time></trkpt><trkpt lat="44.233748503054734" lon="11.513210835087987"><ele>175.0</ele><time>2026-04-03T14:15:49.617Z</time></trkpt><trkpt lat="44.23387225721503" lon="11.513345472797942"><ele>175.0</ele><time>2026-04-03T14:15:50.617Z</time></trkpt><trkpt lat="44.233975188718816" lon="11.513481678340728"><ele>175.0</ele><time>2026-04-03T14:15:51.617Z</time></trkpt><trkpt lat="44.23406287887482" lon="11.513631811987159"><ele>175.0</ele><time>2026-04-03T14:15:52.617Z</time></trkpt><trkpt lat="44.234112641857664" lon="11.513805425576669"><ele>173.33333333333334</ele><time>2026-04-03T14:15:53.617Z</time></trkpt><trkpt lat="44.23414153589092" lon="11.51400746878479"><ele>171.66666666666666</ele><time>2026-04-03T14:15:54.617Z</time></trkpt><trkpt lat="44.2341572678183" lon="11.514234370245697"><ele>170.0</ele><time>2026-04-03T14:15:55.617Z</time></trkpt><trkpt lat="44.23418450634252" lon="11.514477508597473"><ele>172.33333333333331</ele><time>2026-04-03T14:15:56.617Z</time></trkpt><trkpt lat="44.234235411847514" lon="11.514729562421664"><ele>174.66666666666666</ele><time>2026-04-03T14:15:57.617Z</time></trkpt><trkpt lat="44.234303065887076" lon="11.514985399361551"><ele>177.0</ele><time>2026-04-03T14:15:58.617Z</time></trkpt><trkpt lat="44.23437062364116" lon="11.515236145000845"><ele>178.0</ele><time>2026-04-03T14:15:59.617Z</time></trkpt><trkpt lat="44.234425888752426" lon="11.515478628514009"><ele>179.0</ele><time>2026-04-03T14:16:00.617Z</time></trkpt><trkpt lat="44.23446637861318" lon="11.515712904045198"><ele>180.0</ele><time>2026-04-03T14:16:01.617Z</time></trkpt><trkpt lat="44.23449783825547" lon="11.515936505420981"><ele>180.0</ele><time>2026-04-03T14:16:02.617Z</time></trkpt><trkpt lat="44.234514194497635" lon="11.516149477009158"><ele>180.0</ele><time>2026-04-03T14:16:03.617Z</time></trkpt><trkpt lat="44.234539765667414" lon="11.516353448669303"><ele>180.0</ele><time>2026-04-03T14:16:04.617Z</time></trkpt><trkpt lat="44.23457102817444" lon="11.51656172470206"><ele>181.33333333333334</ele><time>2026-04-03T14:16:05.616Z</time></trkpt><trkpt lat="44.234612848762154" lon="11.516772646122096"><ele>182.66666666666669</ele><time>2026-04-03T14:16:06.616Z</time></trkpt><trkpt lat="44.23466158429221" lon="11.516975091013947"><ele>184.0</ele><time>2026-04-03T14:16:07.616Z</time></trkpt><trkpt lat="44.234733803639976" lon="11.517161614091636"><ele>178.33333333333334</ele><time>2026-04-03T14:16:08.616Z</time></trkpt><trkpt lat="44.234829495119804" lon="11.517332937957441"><ele>172.66666666666666</ele><time>2026-04-03T14:16:09.616Z</time></trkpt><trkpt lat="44.234951567424865" lon="11.517484539693374"><ele>167.0</ele><time>2026-04-03T14:16:10.613Z</time></trkpt><trkpt lat="44.23509290225384" lon="11.517639502896566"><ele>167.0</ele><time>2026-04-03T14:16:11.613Z</time></trkpt><trkpt lat="44.23523908601797" lon="11.517801347603731"><ele>167.0</ele><time>2026-04-03T14:16:12.613Z</time></trkpt><trkpt lat="44.235384830139054" lon="11.517958985523714"><ele>167.0</ele><time>2026-04-03T14:16:13.614Z</time></trkpt><trkpt lat="44.2355165020833" lon="11.518104846748555"><ele>165.33333333333331</ele><time>2026-04-03T14:16:14.613Z</time></trkpt><trkpt lat="44.23564018532501" lon="11.518241820156495"><ele>163.66666666666666</ele><time>2026-04-03T14:16:15.613Z</time></trkpt><trkpt lat="44.23575887662573" lon="11.518373056304814"><ele>162.0</ele><time>2026-04-03T14:16:16.613Z</time></trkpt><trkpt lat="44.23587221564912" lon="11.518502784138379"><ele>162.0</ele><time>2026-04-03T14:16:17.613Z</time></trkpt><trkpt lat="44.235988052027565" lon="11.518635027640455"><ele>162.0</ele><time>2026-04-03T14:16:18.613Z</time></trkpt><trkpt lat="44.23609655643251" lon="11.518767298843631"><ele>162.0</ele><time>2026-04-03T14:16:19.613Z</time></trkpt><trkpt lat="44.23621526487084" lon="11.518899752017317"><ele>162.0</ele><time>2026-04-03T14:16:20.614Z</time></trkpt><trkpt lat="44.236331615337654" lon="11.519030880404149"><ele>163.25</ele><time>2026-04-03T14:16:21.614Z</time></trkpt><trkpt lat="44.23644226501621" lon="11.519158982120933"><ele>164.5</ele><time>2026-04-03T14:16:22.613Z</time></trkpt><trkpt lat="44.23655003194256" lon="11.519286655385"><ele>165.75</ele><time>2026-04-03T14:16:23.613Z</time></trkpt><trkpt lat="44.236657260772716" lon="11.519414556866847"><ele>167.0</ele><time>2026-04-03T14:16:24.613Z</time></trkpt><trkpt lat="44.23676342740599" lon="11.519540630358808"><ele>169.0</ele><time>2026-04-03T14:16:25.613Z</time></trkpt><trkpt lat="44.23687058836625" lon="11.519654285904819"><ele>171.0</ele><time>2026-04-03T14:16:26.613Z</time></trkpt><trkpt lat="44.23699784173132" lon="11.519742882228519"><ele>173.0</ele><time>2026-04-03T14:16:27.613Z</time></trkpt><trkpt lat="44.23713420143377" lon="11.519778585041896"><ele>175.0</ele><time>2026-04-03T14:16:28.613Z</time></trkpt><trkpt lat="44.237266695455205" lon="11.519803390714248"><ele>174.0</ele><time>2026-04-03T14:16:29.613Z</time></trkpt><trkpt lat="44.23738621404753" lon="11.519847590410274"><ele>173.0</ele><time>2026-04-03T14:16:30.613Z</time></trkpt><trkpt lat="44.237489418998805" lon="11.51991574829225"><ele>172.0</ele><time>2026-04-03T14:16:31.613Z</time></trkpt><trkpt lat="44.23756215903931" lon="11.52002468759382"><ele>171.0</ele><time>2026-04-03T14:16:32.613Z</time></trkpt><trkpt lat="44.23763045862468" lon="11.520159476497682"><ele>171.0</ele><time>2026-04-03T14:16:33.613Z</time></trkpt><trkpt lat="44.23769460315968" lon="11.520301822135405"><ele>171.0</ele><time>2026-04-03T14:16:34.613Z</time></trkpt><trkpt lat="44.23777530386593" lon="11.520439577929446"><ele>171.0</ele><time>2026-04-03T14:16:35.613Z</time></trkpt><trkpt lat="44.23786841300814" lon="11.520545367778377"><ele>171.0</ele><time>2026-04-03T14:16:36.613Z</time></trkpt><trkpt lat="44.23796738495497" lon="11.520643623567132"><ele>171.75</ele><time>2026-04-03T14:16:37.613Z</time></trkpt><trkpt lat="44.238074786987724" lon="11.520724407661207"><ele>172.5</ele><time>2026-04-03T14:16:38.613Z</time></trkpt><trkpt lat="44.23819062569014" lon="11.520801497096224"><ele>173.25</ele><time>2026-04-03T14:16:39.613Z</time></trkpt><trkpt lat="44.23830113284053" lon="11.520890963199951"><ele>174.0</ele><time>2026-04-03T14:16:40.613Z</time></trkpt><trkpt lat="44.23840863393356" lon="11.52099490572773"><ele>174.0</ele><time>2026-04-03T14:16:41.613Z</time></trkpt><trkpt lat="44.238500976555066" lon="11.521121356357218"><ele>174.0</ele><time>2026-04-03T14:16:42.613Z</time></trkpt><trkpt lat="44.23859181223878" lon="11.521253918491993"><ele>174.0</ele><time>2026-04-03T14:16:43.613Z</time></trkpt><trkpt lat="44.23867771152017" lon="11.521396458589283"><ele>174.0</ele><time>2026-04-03T14:16:44.613Z</time></trkpt><trkpt lat="44.238766371090634" lon="11.521523606551423"><ele>174.25</ele><time>2026-04-03T14:16:45.613Z</time></trkpt><trkpt lat="44.238873034542614" lon="11.521637842739361"><ele>174.5</ele><time>2026-04-03T14:16:46.613Z</time></trkpt><trkpt lat="44.2389710356754" lon="11.521745216822891"><ele>174.75</ele><time>2026-04-03T14:16:47.613Z</time></trkpt><trkpt lat="44.23906294417076" lon="11.521856486328122"><ele>175.0</ele><time>2026-04-03T14:16:48.613Z</time></trkpt><trkpt lat="44.23914904393443" lon="11.521971132011874"><ele>177.75</ele><time>2026-04-03T14:16:49.613Z</time></trkpt><trkpt lat="44.239218316722486" lon="11.522108174778493"><ele>180.5</ele><time>2026-04-03T14:16:50.613Z</time></trkpt><trkpt lat="44.239292085587735" lon="11.522249951085344"><ele>183.25</ele><time>2026-04-03T14:16:51.613Z</time></trkpt><trkpt lat="44.23935923119287" lon="11.522373197661175"><ele>186.0</ele><time>2026-04-03T14:16:52.613Z</time></trkpt><trkpt lat="44.23945687597524" lon="11.522520128262421"><ele>186.0</ele><time>2026-04-03T14:16:53.613Z</time></trkpt><trkpt lat="44.2395564018025" lon="11.522679011694642"><ele>186.0</ele><time>2026-04-03T14:16:54.613Z</time></trkpt><trkpt lat="44.23960579747615" lon="11.522885358898106"><ele>186.0</ele><time>2026-04-03T14:16:55.613Z</time></trkpt><trkpt lat="44.23968038959026" lon="11.523034769029444"><ele>186.0</ele><time>2026-04-03T14:16:56.613Z</time></trkpt><trkpt lat="44.239766209775716" lon="11.523157773042374"><ele>187.25</ele><time>2026-04-03T14:16:57.613Z</time></trkpt><trkpt lat="44.23985700091292" lon="11.523259564830425"><ele>188.5</ele><time>2026-04-03T14:16:58.613Z</time></trkpt><trkpt lat="44.23996173539373" lon="11.523329409182054"><ele>189.75</ele><time>2026-04-03T14:16:59.613Z</time></trkpt><trkpt lat="44.24008179920643" lon="11.523339752591577"><ele>191.0</ele><time>2026-04-03T14:17:00.613Z</time></trkpt><trkpt lat="44.24020557908279" lon="11.52330973178391"><ele>191.0</ele><time>2026-04-03T14:17:01.613Z</time></trkpt><trkpt lat="44.24033156699257" lon="11.523254975866955"><ele>191.0</ele><time>2026-04-03T14:17:02.613Z</time></trkpt><trkpt lat="44.240446883770616" lon="11.523185770325721"><ele>191.0</ele><time>2026-04-03T14:17:03.613Z</time></trkpt><trkpt lat="44.24056116561674" lon="11.52312684957114"><ele>191.0</ele><time>2026-04-03T14:17:04.613Z</time></trkpt><trkpt lat="44.240677100636965" lon="11.52309087705432"><ele>191.0</ele><time>2026-04-03T14:17:05.613Z</time></trkpt><trkpt lat="44.24079698209521" lon="11.523081286622931"><ele>191.0</ele><time>2026-04-03T14:17:06.613Z</time></trkpt><trkpt lat="44.24090703208973" lon="11.52308914451697"><ele>191.0</ele><time>2026-04-03T14:17:07.613Z</time></trkpt><trkpt lat="44.241007597491496" lon="11.523127957838408"><ele>191.0</ele><time>2026-04-03T14:17:08.613Z</time></trkpt><trkpt lat="44.24110769675461" lon="11.523200640671181"><ele>191.0</ele><time>2026-04-03T14:17:09.613Z</time></trkpt><trkpt lat="44.24120504076535" lon="11.523312987745655"><ele>191.0</ele><time>2026-04-03T14:17:10.613Z</time></trkpt><trkpt lat="44.24129948240928" lon="11.52344108271057"><ele>191.0</ele><time>2026-04-03T14:17:11.613Z</time></trkpt><trkpt lat="44.241389945092656" lon="11.523566066710828"><ele>191.0</ele><time>2026-04-03T14:17:12.613Z</time></trkpt><trkpt lat="44.24148380549766" lon="11.523695487607915"><ele>191.0</ele><time>2026-04-03T14:17:13.613Z</time></trkpt><trkpt lat="44.24157876170747" lon="11.523822793710858"><ele>192.0</ele><time>2026-04-03T14:17:14.613Z</time></trkpt><trkpt lat="44.2416754840955" lon="11.523954474859497"><ele>193.0</ele><time>2026-04-03T14:17:15.613Z</time></trkpt><trkpt lat="44.24177578665135" lon="11.524078457926985"><ele>194.0</ele><time>2026-04-03T14:17:16.613Z</time></trkpt><trkpt lat="44.24187135833664" lon="11.524206360986113"><ele>195.0</ele><time>2026-04-03T14:17:17.613Z</time></trkpt><trkpt lat="44.241968764676315" lon="11.524330456811995"><ele>195.0</ele><time>2026-04-03T14:17:18.613Z</time></trkpt><trkpt lat="44.242075341119" lon="11.524440710638066"><ele>195.0</ele><time>2026-04-03T14:17:19.613Z</time></trkpt><trkpt lat="44.24219050621699" lon="11.524536715700155"><ele>195.0</ele><time>2026-04-03T14:17:20.613Z</time></trkpt><trkpt lat="44.24231000252707" lon="11.524620749894765"><ele>195.0</ele><time>2026-04-03T14:17:21.613Z</time></trkpt><trkpt lat="44.24243606148901" lon="11.524694765688693"><ele>195.25</ele><time>2026-04-03T14:17:22.613Z</time></trkpt><trkpt lat="44.24255101317195" lon="11.524769533169712"><ele>195.5</ele><time>2026-04-03T14:17:23.613Z</time></trkpt><trkpt lat="44.24265942084315" lon="11.524852342636832"><ele>195.75</ele><time>2026-04-03T14:17:24.613Z</time></trkpt><trkpt lat="44.24276265126478" lon="11.524953599288033"><ele>196.0</ele><time>2026-04-03T14:17:25.613Z</time></trkpt><trkpt lat="44.24286050245793" lon="11.525074993019448"><ele>196.0</ele><time>2026-04-03T14:17:26.613Z</time></trkpt><trkpt lat="44.24294784147512" lon="11.525224306273719"><ele>196.0</ele><time>2026-04-03T14:17:27.613Z</time></trkpt><trkpt lat="44.24301940622621" lon="11.525388421754185"><ele>196.0</ele><time>2026-04-03T14:17:28.613Z</time></trkpt><trkpt lat="44.243075977381245" lon="11.525553491337773"><ele>196.0</ele><time>2026-04-03T14:17:29.613Z</time></trkpt><trkpt lat="44.24311969714079" lon="11.525726815517947"><ele>195.25</ele><time>2026-04-03T14:17:30.613Z</time></trkpt><trkpt lat="44.24315383127938" lon="11.525911615516886"><ele>194.5</ele><time>2026-04-03T14:17:31.613Z</time></trkpt><trkpt lat="44.24316196301351" lon="11.526105838004506"><ele>193.75</ele><time>2026-04-03T14:17:32.613Z</time></trkpt><trkpt lat="44.24314572641767" lon="11.526307754667195"><ele>193.0</ele><time>2026-04-03T14:17:33.613Z</time></trkpt><trkpt lat="44.24311841272907" lon="11.526516129589321"><ele>193.0</ele><time>2026-04-03T14:17:34.613Z</time></trkpt><trkpt lat="44.243078499799275" lon="11.526720306555399"><ele>193.0</ele><time>2026-04-03T14:17:35.613Z</time></trkpt><trkpt lat="44.24303307442313" lon="11.526921053963658"><ele>193.0</ele><time>2026-04-03T14:17:36.613Z</time></trkpt><trkpt lat="44.24299783643875" lon="11.527112748328138"><ele>193.0</ele><time>2026-04-03T14:17:37.613Z</time></trkpt><trkpt lat="44.242970452909866" lon="11.527289747527574"><ele>192.0</ele><time>2026-04-03T14:17:38.613Z</time></trkpt><trkpt lat="44.24293806969723" lon="11.527452989637933"><ele>191.0</ele><time>2026-04-03T14:17:39.613Z</time></trkpt><trkpt lat="44.24290880889163" lon="11.527607071108923"><ele>190.0</ele><time>2026-04-03T14:17:40.613Z</time></trkpt><trkpt lat="44.24288019443116" lon="11.52774928471676"><ele>189.0</ele><time>2026-04-03T14:17:41.613Z</time></trkpt><trkpt lat="44.24285488647255" lon="11.52787731673874"><ele>188.0</ele><time>2026-04-03T14:17:42.613Z</time></trkpt><trkpt lat="44.24282942093614" lon="11.528034335253693"><ele>188.0</ele><time>2026-04-03T14:17:44.613Z</time></trkpt><trkpt lat="44.24280316363779" lon="11.528173078705455"><ele>188.0</ele><time>2026-04-03T14:17:46.613Z</time></trkpt><trkpt lat="44.24276418298112" lon="11.528351012995795"><ele>188.0</ele><time>2026-04-03T14:17:48.613Z</time></trkpt><trkpt lat="44.242756647438654" lon="11.528471742823301"><ele>188.0</ele><time>2026-04-03T14:17:49.613Z</time></trkpt><trkpt lat="44.24277517450704" lon="11.52861351976001"><ele>188.0</ele><time>2026-04-03T14:17:50.613Z</time></trkpt><trkpt lat="44.24283126784247" lon="11.528744541222482"><ele>190.2</ele><time>2026-04-03T14:17:51.613Z</time></trkpt><trkpt lat="44.24289179190584" lon="11.528857320611694"><ele>192.4</ele><time>2026-04-03T14:17:52.613Z</time></trkpt><trkpt lat="44.24295569883414" lon="11.528967299381959"><ele>194.6</ele><time>2026-04-03T14:17:53.613Z</time></trkpt><trkpt lat="44.2430226181601" lon="11.529084549904855"><ele>196.79999999999998</ele><time>2026-04-03T14:17:54.613Z</time></trkpt><trkpt lat="44.24309701592146" lon="11.529210429581124"><ele>199.0</ele><time>2026-04-03T14:17:55.613Z</time></trkpt><trkpt lat="44.243179270786186" lon="11.52935036000694"><ele>199.0</ele><time>2026-04-03T14:17:56.613Z</time></trkpt><trkpt lat="44.24326759314894" lon="11.52949310408802"><ele>199.0</ele><time>2026-04-03T14:17:57.613Z</time></trkpt><trkpt lat="44.24335442810131" lon="11.529643217314915"><ele>199.0</ele><time>2026-04-03T14:17:58.613Z</time></trkpt><trkpt lat="44.243439749900716" lon="11.529792154434622"><ele>199.0</ele><time>2026-04-03T14:17:59.613Z</time></trkpt><trkpt lat="44.24353124935645" lon="11.529946573538165"><ele>200.5</ele><time>2026-04-03T14:18:00.613Z</time></trkpt><trkpt lat="44.24361533332747" lon="11.530097350822276"><ele>202.0</ele><time>2026-04-03T14:18:01.613Z</time></trkpt><trkpt lat="44.243705884178794" lon="11.530254264567096"><ele>203.5</ele><time>2026-04-03T14:18:02.613Z</time></trkpt><trkpt lat="44.243801482391085" lon="11.5304174862899"><ele>205.0</ele><time>2026-04-03T14:18:03.613Z</time></trkpt><trkpt lat="44.24390669210012" lon="11.530590388199625"><ele>205.33333333333331</ele><time>2026-04-03T14:18:04.613Z</time></trkpt><trkpt lat="44.24403411681973" lon="11.530787122111773"><ele>205.66666666666669</ele><time>2026-04-03T14:18:05.613Z</time></trkpt><trkpt lat="44.24417082090031" lon="11.531018662743097"><ele>206.0</ele><time>2026-04-03T14:18:06.613Z</time></trkpt><trkpt lat="44.24430451932316" lon="11.531267102443291"><ele>206.0</ele><time>2026-04-03T14:18:07.613Z</time></trkpt><trkpt lat="44.24442883484287" lon="11.531492647282606"><ele>206.0</ele><time>2026-04-03T14:18:08.613Z</time></trkpt><trkpt lat="44.244557134158526" lon="11.531711504839617"><ele>206.0</ele><time>2026-04-03T14:18:09.613Z</time></trkpt><trkpt lat="44.244678573726404" lon="11.531925508274943"><ele>204.66666666666669</ele><time>2026-04-03T14:18:10.613Z</time></trkpt><trkpt lat="44.24479632803305" lon="11.532128714231904"><ele>203.33333333333331</ele><time>2026-04-03T14:18:11.613Z</time></trkpt><trkpt lat="44.24490071653739" lon="11.532321006917494"><ele>202.0</ele><time>2026-04-03T14:18:12.613Z</time></trkpt><trkpt lat="44.24500215373462" lon="11.53252606747738"><ele>202.0</ele><time>2026-04-03T14:18:13.613Z</time></trkpt><trkpt lat="44.24510900134724" lon="11.532749580713599"><ele>202.0</ele><time>2026-04-03T14:18:14.613Z</time></trkpt><trkpt lat="44.24521807462115" lon="11.53297060609583"><ele>202.0</ele><time>2026-04-03T14:18:15.613Z</time></trkpt><trkpt lat="44.24532809689092" lon="11.53319606809746"><ele>204.0</ele><time>2026-04-03T14:18:16.61Z</time></trkpt><trkpt lat="44.245440420310096" lon="11.533435389654091"><ele>206.0</ele><time>2026-04-03T14:18:17.609Z</time></trkpt><trkpt lat="44.2455518544205" lon="11.5336744013038"><ele>208.0</ele><time>2026-04-03T14:18:18.609Z</time></trkpt><trkpt lat="44.24566016114508" lon="11.533911144891587"><ele>206.0</ele><time>2026-04-03T14:18:19.61Z</time></trkpt><trkpt lat="44.24576860025159" lon="11.534157281198226"><ele>204.0</ele><time>2026-04-03T14:18:20.61Z</time></trkpt><trkpt lat="44.24587827616047" lon="11.534399793813042"><ele>202.0</ele><time>2026-04-03T14:18:21.61Z</time></trkpt><trkpt lat="44.24597831113715" lon="11.53463615780462"><ele>202.0</ele><time>2026-04-03T14:18:22.609Z</time></trkpt><trkpt lat="44.24607980036848" lon="11.534852670676266"><ele>202.0</ele><time>2026-04-03T14:18:23.61Z</time></trkpt><trkpt lat="44.2461899792966" lon="11.535051303711963"><ele>202.0</ele><time>2026-04-03T14:18:24.61Z</time></trkpt><trkpt lat="44.246300546965834" lon="11.5352472452917"><ele>205.0</ele><time>2026-04-03T14:18:25.609Z</time></trkpt><trkpt lat="44.246405001576825" lon="11.535446826093976"><ele>208.0</ele><time>2026-04-03T14:18:26.61Z</time></trkpt><trkpt lat="44.24650203536761" lon="11.535650710911945"><ele>211.0</ele><time>2026-04-03T14:18:27.61Z</time></trkpt><trkpt lat="44.24659526111115" lon="11.535857645330461"><ele>206.0</ele><time>2026-04-03T14:18:28.61Z</time></trkpt><trkpt lat="44.24668805723322" lon="11.536069232693457"><ele>201.0</ele><time>2026-04-03T14:18:29.61Z</time></trkpt><trkpt lat="44.246782133667914" lon="11.53628533529748"><ele>196.0</ele><time>2026-04-03T14:18:30.61Z</time></trkpt><trkpt lat="44.24687702820074" lon="11.536500652305907"><ele>196.0</ele><time>2026-04-03T14:18:31.61Z</time></trkpt><trkpt lat="44.2469697721227" lon="11.53671039792902"><ele>196.0</ele><time>2026-04-03T14:18:32.61Z</time></trkpt><trkpt lat="44.24705766129002" lon="11.536904590845715"><ele>196.0</ele><time>2026-04-03T14:18:33.61Z</time></trkpt><trkpt lat="44.24714326517059" lon="11.537095079327688"><ele>199.66666666666666</ele><time>2026-04-03T14:18:34.61Z</time></trkpt><trkpt lat="44.247225356591755" lon="11.537280180482899"><ele>203.33333333333331</ele><time>2026-04-03T14:18:35.61Z</time></trkpt><trkpt lat="44.24730301959031" lon="11.537472196100154"><ele>207.0</ele><time>2026-04-03T14:18:36.61Z</time></trkpt><trkpt lat="44.247367839300026" lon="11.537653538717244"><ele>202.0</ele><time>2026-04-03T14:18:37.61Z</time></trkpt><trkpt lat="44.247417063135764" lon="11.537837816810379"><ele>197.0</ele><time>2026-04-03T14:18:38.61Z</time></trkpt><trkpt lat="44.24745892847351" lon="11.538040158122941"><ele>192.0</ele><time>2026-04-03T14:18:39.61Z</time></trkpt><trkpt lat="44.2474882774979" lon="11.538242646877256"><ele>187.0</ele><time>2026-04-03T14:18:40.61Z</time></trkpt><trkpt lat="44.24753769420603" lon="11.538450575014132"><ele>187.0</ele><time>2026-04-03T14:18:41.61Z</time></trkpt><trkpt lat="44.247603794695785" lon="11.538663860642394"><ele>187.0</ele><time>2026-04-03T14:18:42.61Z</time></trkpt><trkpt lat="44.24769183697575" lon="11.538869523312062"><ele>187.0</ele><time>2026-04-03T14:18:43.61Z</time></trkpt><trkpt lat="44.24776873517876" lon="11.539084251304077"><ele>189.0</ele><time>2026-04-03T14:18:44.61Z</time></trkpt><trkpt lat="44.24784027446127" lon="11.539301788479008"><ele>191.0</ele><time>2026-04-03T14:18:45.61Z</time></trkpt><trkpt lat="44.247909201659276" lon="11.53951846525835"><ele>193.0</ele><time>2026-04-03T14:18:46.61Z</time></trkpt><trkpt lat="44.247977355247" lon="11.539738021826368"><ele>190.0</ele><time>2026-04-03T14:18:47.61Z</time></trkpt><trkpt lat="44.24804415453128" lon="11.539958842266664"><ele>187.0</ele><time>2026-04-03T14:18:48.61Z</time></trkpt><trkpt lat="44.24811468109361" lon="11.540183584548343"><ele>184.0</ele><time>2026-04-03T14:18:49.61Z</time></trkpt><trkpt lat="44.24818505352119" lon="11.540413301457072"><ele>184.0</ele><time>2026-04-03T14:18:50.61Z</time></trkpt><trkpt lat="44.24825271866269" lon="11.540639734999896"><ele>184.0</ele><time>2026-04-03T14:18:51.61Z</time></trkpt><trkpt lat="44.24831669253522" lon="11.54086293990334"><ele>184.0</ele><time>2026-04-03T14:18:52.61Z</time></trkpt><trkpt lat="44.24837673619259" lon="11.541082344919618"><ele>186.66666666666669</ele><time>2026-04-03T14:18:53.61Z</time></trkpt><trkpt lat="44.248441282194975" lon="11.541296263334946"><ele>189.33333333333334</ele><time>2026-04-03T14:18:54.61Z</time></trkpt><trkpt lat="44.24850947903895" lon="11.54151041167274"><ele>192.0</ele><time>2026-04-03T14:18:55.61Z</time></trkpt><trkpt lat="44.24858274776825" lon="11.541716777137106"><ele>192.0</ele><time>2026-04-03T14:18:56.61Z</time></trkpt><trkpt lat="44.248662826040224" lon="11.541908991055886"><ele>192.0</ele><time>2026-04-03T14:18:57.61Z</time></trkpt><trkpt lat="44.248762083474695" lon="11.542083015739538"><ele>192.0</ele><time>2026-04-03T14:18:58.61Z</time></trkpt><trkpt lat="44.248878112439904" lon="11.542221682335166"><ele>190.0</ele><time>2026-04-03T14:18:59.61Z</time></trkpt><trkpt lat="44.249000875044494" lon="11.542336046077857"><ele>188.0</ele><time>2026-04-03T14:19:00.61Z</time></trkpt><trkpt lat="44.24912288380649" lon="11.542456971456835"><ele>186.0</ele><time>2026-04-03T14:19:01.61Z</time></trkpt><trkpt lat="44.24922673585422" lon="11.542596937066037"><ele>184.0</ele><time>2026-04-03T14:19:02.609Z</time></trkpt><trkpt lat="44.24932256520579" lon="11.542746517212073"><ele>188.0</ele><time>2026-04-03T14:19:03.609Z</time></trkpt><trkpt lat="44.24942096410148" lon="11.542909621789654"><ele>192.0</ele><time>2026-04-03T14:19:04.609Z</time></trkpt><trkpt lat="44.249524746929175" lon="11.543072087676478"><ele>196.0</ele><time>2026-04-03T14:19:05.609Z</time></trkpt><trkpt lat="44.24963055548484" lon="11.54323549561168"><ele>196.0</ele><time>2026-04-03T14:19:06.609Z</time></trkpt><trkpt lat="44.2497412173289" lon="11.543404711525504"><ele>196.0</ele><time>2026-04-03T14:19:07.609Z</time></trkpt><trkpt lat="44.249850653679864" lon="11.543569799980483"><ele>196.0</ele><time>2026-04-03T14:19:08.609Z</time></trkpt><trkpt lat="44.24996402519711" lon="11.543714040023378"><ele>190.66666666666666</ele><time>2026-04-03T14:19:09.609Z</time></trkpt><trkpt lat="44.250088667858186" lon="11.543838120358481"><ele>185.33333333333331</ele><time>2026-04-03T14:19:10.609Z</time></trkpt><trkpt lat="44.250208182188096" lon="11.543968313622997"><ele>180.0</ele><time>2026-04-03T14:19:11.609Z</time></trkpt><trkpt lat="44.25032653969177" lon="11.544110398615754"><ele>180.0</ele><time>2026-04-03T14:19:12.609Z</time></trkpt><trkpt lat="44.25045341890331" lon="11.54425487154885"><ele>180.0</ele><time>2026-04-03T14:19:13.609Z</time></trkpt><trkpt lat="44.25058236300462" lon="11.54440133698471"><ele>180.0</ele><time>2026-04-03T14:19:14.609Z</time></trkpt><trkpt lat="44.250707182718344" lon="11.544552334121057"><ele>178.66666666666666</ele><time>2026-04-03T14:19:15.609Z</time></trkpt><trkpt lat="44.25082676712304" lon="11.54470331243795"><ele>177.33333333333331</ele><time>2026-04-03T14:19:16.609Z</time></trkpt><trkpt lat="44.25095017591551" lon="11.544846716194062"><ele>176.0</ele><time>2026-04-03T14:19:17.609Z</time></trkpt><trkpt lat="44.25107498375499" lon="11.54498596494436"><ele>176.0</ele><time>2026-04-03T14:19:18.609Z</time></trkpt><trkpt lat="44.251187119255434" lon="11.545132697338376"><ele>176.0</ele><time>2026-04-03T14:19:19.609Z</time></trkpt><trkpt lat="44.251299594075064" lon="11.545279590000032"><ele>176.0</ele><time>2026-04-03T14:19:20.609Z</time></trkpt><trkpt lat="44.25141022211386" lon="11.545425378859207"><ele>176.0</ele><time>2026-04-03T14:19:21.609Z</time></trkpt><trkpt lat="44.25152019282757" lon="11.545560313602184"><ele>176.0</ele><time>2026-04-03T14:19:22.609Z</time></trkpt><trkpt lat="44.251639165365596" lon="11.545686188285721"><ele>176.0</ele><time>2026-04-03T14:19:23.609Z</time></trkpt><trkpt lat="44.25174400661042" lon="11.545816122391676"><ele>176.0</ele><time>2026-04-03T14:19:24.609Z</time></trkpt><trkpt lat="44.25184514945175" lon="11.545944672205362"><ele>176.0</ele><time>2026-04-03T14:19:25.609Z</time></trkpt><trkpt lat="44.251940850708486" lon="11.546088051176888"><ele>176.0</ele><time>2026-04-03T14:19:26.609Z</time></trkpt><trkpt lat="44.25203933223312" lon="11.546237104739749"><ele>176.0</ele><time>2026-04-03T14:19:27.609Z</time></trkpt><trkpt lat="44.252126086104056" lon="11.546397600496569"><ele>176.0</ele><time>2026-04-03T14:19:28.609Z</time></trkpt><trkpt lat="44.25219130753497" lon="11.54656392999986"><ele>175.75</ele><time>2026-04-03T14:19:29.609Z</time></trkpt><trkpt lat="44.25224820248827" lon="11.546743697737972"><ele>175.5</ele><time>2026-04-03T14:19:30.609Z</time></trkpt><trkpt lat="44.25229405214446" lon="11.546933677423574"><ele>175.25</ele><time>2026-04-03T14:19:31.609Z</time></trkpt><trkpt lat="44.25233170166947" lon="11.547129841811874"><ele>175.0</ele><time>2026-04-03T14:19:32.609Z</time></trkpt><trkpt lat="44.252369158310785" lon="11.54733077414604"><ele>175.25</ele><time>2026-04-03T14:19:33.609Z</time></trkpt><trkpt lat="44.252405445659186" lon="11.547534900930835"><ele>175.5</ele><time>2026-04-03T14:19:34.609Z</time></trkpt><trkpt lat="44.25244118062084" lon="11.547735908829562"><ele>175.75</ele><time>2026-04-03T14:19:35.609Z</time></trkpt><trkpt lat="44.252478563546816" lon="11.547937821122769"><ele>176.0</ele><time>2026-04-03T14:19:36.609Z</time></trkpt><trkpt lat="44.252518226112464" lon="11.548141457643078"><ele>176.0</ele><time>2026-04-03T14:19:37.609Z</time></trkpt><trkpt lat="44.25255827367463" lon="11.548340914790042"><ele>176.0</ele><time>2026-04-03T14:19:38.609Z</time></trkpt><trkpt lat="44.252596197680305" lon="11.548547505299654"><ele>176.0</ele><time>2026-04-03T14:19:39.609Z</time></trkpt><trkpt lat="44.25263297274054" lon="11.548760495335317"><ele>175.66666666666666</ele><time>2026-04-03T14:19:40.609Z</time></trkpt><trkpt lat="44.25267019574305" lon="11.548967707574747"><ele>175.33333333333334</ele><time>2026-04-03T14:19:41.609Z</time></trkpt><trkpt lat="44.252708200753716" lon="11.54917199851811"><ele>175.0</ele><time>2026-04-03T14:19:42.609Z</time></trkpt><trkpt lat="44.252742018422914" lon="11.549376606144836"><ele>175.5</ele><time>2026-04-03T14:19:43.609Z</time></trkpt><trkpt lat="44.252778326848386" lon="11.549569643775197"><ele>176.0</ele><time>2026-04-03T14:19:44.609Z</time></trkpt><trkpt lat="44.25282162960281" lon="11.549757769953734"><ele>176.5</ele><time>2026-04-03T14:19:45.609Z</time></trkpt><trkpt lat="44.25289492095584" lon="11.549937719539678"><ele>177.0</ele><time>2026-04-03T14:19:46.609Z</time></trkpt><trkpt lat="44.25298481220296" lon="11.550099733570311"><ele>177.0</ele><time>2026-04-03T14:19:47.609Z</time></trkpt><trkpt lat="44.253088834320415" lon="11.55024571891681"><ele>177.0</ele><time>2026-04-03T14:19:48.609Z</time></trkpt><trkpt lat="44.25320562444229" lon="11.550375811730357"><ele>177.0</ele><time>2026-04-03T14:19:49.609Z</time></trkpt><trkpt lat="44.25332844339944" lon="11.550493722951314"><ele>177.0</ele><time>2026-04-03T14:19:50.609Z</time></trkpt><trkpt lat="44.2534565538243" lon="11.550599112210868"><ele>176.25</ele><time>2026-04-03T14:19:51.609Z</time></trkpt><trkpt lat="44.2535786289126" lon="11.550711591712805"><ele>175.5</ele><time>2026-04-03T14:19:52.609Z</time></trkpt><trkpt lat="44.25370049431429" lon="11.550829255353086"><ele>174.75</ele><time>2026-04-03T14:19:53.609Z</time></trkpt><trkpt lat="44.253825486991275" lon="11.55094523283296"><ele>174.0</ele><time>2026-04-03T14:19:54.609Z</time></trkpt><trkpt lat="44.253948881960376" lon="11.551056689712615"><ele>172.0</ele><time>2026-04-03T14:19:55.609Z</time></trkpt><trkpt lat="44.25407481338374" lon="11.55117337598442"><ele>170.0</ele><time>2026-04-03T14:19:56.609Z</time></trkpt><trkpt lat="44.25420389532174" lon="11.551288767086286"><ele>168.0</ele><time>2026-04-03T14:19:57.609Z</time></trkpt><trkpt lat="44.254334755354236" lon="11.551419845163203"><ele>168.0</ele><time>2026-04-03T14:19:58.609Z</time></trkpt><trkpt lat="44.25445089331761" lon="11.551562892971235"><ele>168.0</ele><time>2026-04-03T14:19:59.609Z</time></trkpt><trkpt lat="44.25455515653245" lon="11.551717547620628"><ele>168.0</ele><time>2026-04-03T14:20:00.609Z</time></trkpt><trkpt lat="44.25464868745846" lon="11.551888172182919"><ele>168.0</ele><time>2026-04-03T14:20:01.609Z</time></trkpt><trkpt lat="44.25472898683895" lon="11.552058236838246"><ele>168.0</ele><time>2026-04-03T14:20:02.609Z</time></trkpt><trkpt lat="44.25479947334009" lon="11.552222821890158"><ele>168.0</ele><time>2026-04-03T14:20:03.609Z</time></trkpt><trkpt lat="44.254857758374186" lon="11.55239069899678"><ele>168.0</ele><time>2026-04-03T14:20:04.609Z</time></trkpt><trkpt lat="44.25492153712465" lon="11.55255288120223"><ele>168.0</ele><time>2026-04-03T14:20:05.609Z</time></trkpt><trkpt lat="44.25498424814928" lon="11.552712364204314"><ele>168.0</ele><time>2026-04-03T14:20:06.609Z</time></trkpt><trkpt lat="44.25504908662883" lon="11.552864222635804"><ele>168.0</ele><time>2026-04-03T14:20:07.609Z</time></trkpt><trkpt lat="44.25511083789565" lon="11.553013050912607"><ele>168.0</ele><time>2026-04-03T14:20:08.609Z</time></trkpt><trkpt lat="44.255169655888814" lon="11.55316069552417"><ele>168.5</ele><time>2026-04-03T14:20:09.609Z</time></trkpt><trkpt lat="44.25522957497152" lon="11.553312504763586"><ele>169.0</ele><time>2026-04-03T14:20:10.609Z</time></trkpt><trkpt lat="44.255293375123586" lon="11.553465830515753"><ele>169.5</ele><time>2026-04-03T14:20:11.609Z</time></trkpt><trkpt lat="44.255358624125364" lon="11.553620377139628"><ele>170.0</ele><time>2026-04-03T14:20:12.609Z</time></trkpt><trkpt lat="44.255424138825376" lon="11.553776476429633"><ele>170.25</ele><time>2026-04-03T14:20:13.609Z</time></trkpt><trkpt lat="44.25549228922989" lon="11.553926988885717"><ele>170.5</ele><time>2026-04-03T14:20:14.609Z</time></trkpt><trkpt lat="44.25556850698905" lon="11.554072300183064"><ele>170.75</ele><time>2026-04-03T14:20:15.609Z</time></trkpt><trkpt lat="44.25564938900055" lon="11.554213199550254"><ele>171.0</ele><time>2026-04-03T14:20:16.609Z</time></trkpt><trkpt lat="44.25573500394656" lon="11.55435230697109"><ele>171.0</ele><time>2026-04-03T14:20:17.609Z</time></trkpt><trkpt lat="44.255821373760085" lon="11.554491621794357"><ele>171.0</ele><time>2026-04-03T14:20:18.609Z</time></trkpt><trkpt lat="44.25590538342318" lon="11.55462898423084"><ele>171.0</ele><time>2026-04-03T14:20:19.609Z</time></trkpt><trkpt lat="44.25599190470372" lon="11.55476333871729"><ele>171.0</ele><time>2026-04-03T14:20:20.609Z</time></trkpt><trkpt lat="44.25607675912139" lon="11.554889109173347"><ele>171.75</ele><time>2026-04-03T14:20:21.609Z</time></trkpt><trkpt lat="44.25615906574159" lon="11.555013333553937"><ele>172.5</ele><time>2026-04-03T14:20:22.606Z</time></trkpt><trkpt lat="44.256241546732134" lon="11.55512934270754"><ele>173.25</ele><time>2026-04-03T14:20:23.606Z</time></trkpt><trkpt lat="44.256322401146654" lon="11.555252715524837"><ele>174.0</ele><time>2026-04-03T14:20:24.606Z</time></trkpt><trkpt lat="44.256408137218614" lon="11.555377027169953"><ele>174.0</ele><time>2026-04-03T14:20:25.606Z</time></trkpt><trkpt lat="44.256495491932725" lon="11.555500876149887"><ele>174.0</ele><time>2026-04-03T14:20:26.605Z</time></trkpt><trkpt lat="44.256587781699174" lon="11.555625801131104"><ele>174.0</ele><time>2026-04-03T14:20:27.605Z</time></trkpt><trkpt lat="44.256671467892986" lon="11.555754061025727"><ele>174.0</ele><time>2026-04-03T14:20:28.605Z</time></trkpt><trkpt lat="44.256758254361806" lon="11.555877184282236"><ele>174.0</ele><time>2026-04-03T14:20:29.606Z</time></trkpt><trkpt lat="44.25684545322212" lon="11.555999473164393"><ele>174.0</ele><time>2026-04-03T14:20:30.606Z</time></trkpt><trkpt lat="44.256930104204464" lon="11.556127800869858"><ele>174.0</ele><time>2026-04-03T14:20:31.606Z</time></trkpt><trkpt lat="44.25700929130955" lon="11.556259255650218"><ele>174.0</ele><time>2026-04-03T14:20:32.605Z</time></trkpt><trkpt lat="44.25709612777176" lon="11.556394750092696"><ele>174.0</ele><time>2026-04-03T14:20:33.605Z</time></trkpt><trkpt lat="44.25718698247643" lon="11.556522111145497"><ele>174.0</ele><time>2026-04-03T14:20:34.606Z</time></trkpt><trkpt lat="44.25727798566907" lon="11.556649338786146"><ele>174.0</ele><time>2026-04-03T14:20:35.606Z</time></trkpt><trkpt lat="44.25736066079259" lon="11.556781132988705"><ele>174.0</ele><time>2026-04-03T14:20:36.606Z</time></trkpt><trkpt lat="44.25744676414604" lon="11.556905822461736"><ele>173.75</ele><time>2026-04-03T14:20:37.606Z</time></trkpt><trkpt lat="44.257529023185896" lon="11.557035187955956"><ele>173.5</ele><time>2026-04-03T14:20:38.606Z</time></trkpt><trkpt lat="44.25760959068025" lon="11.55716501948208"><ele>173.25</ele><time>2026-04-03T14:20:39.606Z</time></trkpt><trkpt lat="44.257687737472374" lon="11.55728696262232"><ele>173.0</ele><time>2026-04-03T14:20:40.606Z</time></trkpt><trkpt lat="44.25776730805307" lon="11.557406884475729"><ele>173.0</ele><time>2026-04-03T14:20:41.606Z</time></trkpt><trkpt lat="44.25785321599254" lon="11.557522373445108"><ele>173.0</ele><time>2026-04-03T14:20:42.606Z</time></trkpt><trkpt lat="44.257935720705895" lon="11.557641225889821"><ele>173.0</ele><time>2026-04-03T14:20:43.606Z</time></trkpt><trkpt lat="44.25802005481001" lon="11.557756760772563"><ele>173.0</ele><time>2026-04-03T14:20:44.606Z</time></trkpt><trkpt lat="44.25810096765765" lon="11.557876425398648"><ele>173.5</ele><time>2026-04-03T14:20:45.606Z</time></trkpt><trkpt lat="44.25818153716325" lon="11.55799854711848"><ele>174.0</ele><time>2026-04-03T14:20:46.606Z</time></trkpt><trkpt lat="44.258262464252155" lon="11.558123673705653"><ele>174.5</ele><time>2026-04-03T14:20:47.606Z</time></trkpt><trkpt lat="44.25834105996146" lon="11.558247189035127"><ele>175.0</ele><time>2026-04-03T14:20:48.606Z</time></trkpt><trkpt lat="44.258411405821136" lon="11.558381921605035"><ele>175.0</ele><time>2026-04-03T14:20:49.606Z</time></trkpt><trkpt lat="44.25848592190908" lon="11.558524349476999"><ele>175.0</ele><time>2026-04-03T14:20:50.606Z</time></trkpt><trkpt lat="44.25856811705183" lon="11.55866939105907"><ele>175.0</ele><time>2026-04-03T14:20:51.606Z</time></trkpt><trkpt lat="44.25862237325883" lon="11.558834827054918"><ele>175.0</ele><time>2026-04-03T14:20:52.606Z</time></trkpt><trkpt lat="44.258658243525076" lon="11.559007796102211"><ele>175.25</ele><time>2026-04-03T14:20:53.606Z</time></trkpt><trkpt lat="44.258697928548905" lon="11.559168357211519"><ele>175.5</ele><time>2026-04-03T14:20:54.606Z</time></trkpt><trkpt lat="44.25874176907866" lon="11.55931754742981"><ele>175.75</ele><time>2026-04-03T14:20:55.606Z</time></trkpt><trkpt lat="44.258780980208954" lon="11.559465374515478"><ele>176.0</ele><time>2026-04-03T14:20:56.606Z</time></trkpt><trkpt lat="44.25881602441853" lon="11.559611581800377"><ele>174.25</ele><time>2026-04-03T14:20:57.606Z</time></trkpt><trkpt lat="44.25885235277795" lon="11.559762514207273"><ele>172.5</ele><time>2026-04-03T14:20:58.606Z</time></trkpt><trkpt lat="44.258892368783165" lon="11.559916260703334"><ele>170.75</ele><time>2026-04-03T14:20:59.606Z</time></trkpt><trkpt lat="44.25892713951707" lon="11.560066588682597"><ele>169.0</ele><time>2026-04-03T14:21:00.606Z</time></trkpt><trkpt lat="44.258960045085466" lon="11.560221939058284"><ele>169.2</ele><time>2026-04-03T14:21:01.606Z</time></trkpt><trkpt lat="44.25899570655112" lon="11.560378061365604"><ele>169.39999999999998</ele><time>2026-04-03T14:21:02.606Z</time></trkpt><trkpt lat="44.259025784266754" lon="11.560523803405163"><ele>169.6</ele><time>2026-04-03T14:21:03.606Z</time></trkpt><trkpt lat="44.25905780981908" lon="11.5606673577887"><ele>169.8</ele><time>2026-04-03T14:21:04.606Z</time></trkpt><trkpt lat="44.25909700746892" lon="11.560815398662688"><ele>170.0</ele><time>2026-04-03T14:21:05.606Z</time></trkpt><trkpt lat="44.25913918872336" lon="11.560964015321419"><ele>170.0</ele><time>2026-04-03T14:21:06.606Z</time></trkpt><trkpt lat="44.259198936773295" lon="11.561123504565218"><ele>170.0</ele><time>2026-04-03T14:21:07.605Z</time></trkpt><trkpt lat="44.25928382058446" lon="11.561277149878514"><ele>170.0</ele><time>2026-04-03T14:21:08.605Z</time></trkpt><trkpt lat="44.259365216648526" lon="11.561413138493293"><ele>170.0</ele><time>2026-04-03T14:21:09.605Z</time></trkpt><trkpt lat="44.25945784233274" lon="11.561529957826112"><ele>170.75</ele><time>2026-04-03T14:21:10.605Z</time></trkpt><trkpt lat="44.25955284070274" lon="11.561628090526844"><ele>171.5</ele><time>2026-04-03T14:21:11.605Z</time></trkpt><trkpt lat="44.25966519634633" lon="11.561708692950011"><ele>172.25</ele><time>2026-04-03T14:21:12.605Z</time></trkpt><trkpt lat="44.25977473721449" lon="11.561781406521156"><ele>173.0</ele><time>2026-04-03T14:21:13.605Z</time></trkpt><trkpt lat="44.25988099003552" lon="11.561854234440544"><ele>172.0</ele><time>2026-04-03T14:21:14.605Z</time></trkpt><trkpt lat="44.25998982300117" lon="11.561925920285555"><ele>171.0</ele><time>2026-04-03T14:21:15.605Z</time></trkpt><trkpt lat="44.26011576792878" lon="11.561984235084248"><ele>170.0</ele><time>2026-04-03T14:21:16.605Z</time></trkpt><trkpt lat="44.26023928922694" lon="11.562043843575877"><ele>169.0</ele><time>2026-04-03T14:21:17.605Z</time></trkpt><trkpt lat="44.26036889394144" lon="11.562109223614689"><ele>169.0</ele><time>2026-04-03T14:21:18.605Z</time></trkpt><trkpt lat="44.26050393030906" lon="11.56218091303178"><ele>169.0</ele><time>2026-04-03T14:21:19.605Z</time></trkpt><trkpt lat="44.2606466679144" lon="11.562260318077888"><ele>169.0</ele><time>2026-04-03T14:21:20.605Z</time></trkpt><trkpt lat="44.260780039522736" lon="11.562333137958786"><ele>169.0</ele><time>2026-04-03T14:21:21.605Z</time></trkpt><trkpt lat="44.260910004669896" lon="11.5624239399287"><ele>169.66666666666669</ele><time>2026-04-03T14:21:22.605Z</time></trkpt><trkpt lat="44.26103477338436" lon="11.562539130416797"><ele>170.33333333333334</ele><time>2026-04-03T14:21:23.605Z</time></trkpt><trkpt lat="44.26115239867189" lon="11.562666831050983"><ele>171.0</ele><time>2026-04-03T14:21:24.605Z</time></trkpt><trkpt lat="44.2612750656215" lon="11.562800986457892"><ele>169.33333333333334</ele><time>2026-04-03T14:21:25.605Z</time></trkpt><trkpt lat="44.26139505230045" lon="11.562949761500628"><ele>167.66666666666669</ele><time>2026-04-03T14:21:26.605Z</time></trkpt><trkpt lat="44.26152543160816" lon="11.563100363854586"><ele>166.0</ele><time>2026-04-03T14:21:27.605Z</time></trkpt><trkpt lat="44.26165609453354" lon="11.563256594754424"><ele>166.0</ele><time>2026-04-03T14:21:28.605Z</time></trkpt><trkpt lat="44.26178072935494" lon="11.563416516085143"><ele>166.0</ele><time>2026-04-03T14:21:29.605Z</time></trkpt><trkpt lat="44.261903620096" lon="11.563582051517676"><ele>166.0</ele><time>2026-04-03T14:21:30.605Z</time></trkpt><trkpt lat="44.26203035119976" lon="11.563739028823717"><ele>164.66666666666669</ele><time>2026-04-03T14:21:31.605Z</time></trkpt><trkpt lat="44.26215071608763" lon="11.563889202157448"><ele>163.33333333333334</ele><time>2026-04-03T14:21:32.605Z</time></trkpt><trkpt lat="44.26227870709053" lon="11.564039095031527"><ele>162.0</ele><time>2026-04-03T14:21:33.605Z</time></trkpt><trkpt lat="44.26240287937336" lon="11.564188072862382"><ele>162.0</ele><time>2026-04-03T14:21:34.605Z</time></trkpt><trkpt lat="44.26252658063857" lon="11.564344023046827"><ele>162.0</ele><time>2026-04-03T14:21:35.605Z</time></trkpt><trkpt lat="44.26265566173452" lon="11.564496863936904"><ele>162.0</ele><time>2026-04-03T14:21:36.605Z</time></trkpt><trkpt lat="44.262782380852286" lon="11.564651101461159"><ele>163.33333333333334</ele><time>2026-04-03T14:21:37.605Z</time></trkpt><trkpt lat="44.26290743455034" lon="11.564806253075444"><ele>164.66666666666669</ele><time>2026-04-03T14:21:38.605Z</time></trkpt><trkpt lat="44.26303539405629" lon="11.564968305875896"><ele>166.0</ele><time>2026-04-03T14:21:39.605Z</time></trkpt><trkpt lat="44.263160923313286" lon="11.565123300722734"><ele>164.66666666666669</ele><time>2026-04-03T14:21:40.605Z</time></trkpt><trkpt lat="44.26328206303633" lon="11.565272071415425"><ele>163.33333333333334</ele><time>2026-04-03T14:21:41.605Z</time></trkpt><trkpt lat="44.263398109276785" lon="11.565424870319745"><ele>162.0</ele><time>2026-04-03T14:21:42.605Z</time></trkpt><trkpt lat="44.26351652981715" lon="11.565560002547457"><ele>162.0</ele><time>2026-04-03T14:21:43.605Z</time></trkpt><trkpt lat="44.263627183184354" lon="11.565698986133828"><ele>162.0</ele><time>2026-04-03T14:21:44.605Z</time></trkpt><trkpt lat="44.2637325587877" lon="11.565848097184627"><ele>162.0</ele><time>2026-04-03T14:21:45.605Z</time></trkpt><trkpt lat="44.263826385297676" lon="11.566015947204672"><ele>163.33333333333334</ele><time>2026-04-03T14:21:46.605Z</time></trkpt><trkpt lat="44.263916500612915" lon="11.566197494279008"><ele>164.66666666666669</ele><time>2026-04-03T14:21:47.605Z</time></trkpt><trkpt lat="44.26400872583508" lon="11.566389716639327"><ele>166.0</ele><time>2026-04-03T14:21:48.605Z</time></trkpt><trkpt lat="44.26409914184603" lon="11.566598293962956"><ele>163.66666666666669</ele><time>2026-04-03T14:21:49.605Z</time></trkpt><trkpt lat="44.26417399378998" lon="11.566803609458624"><ele>161.33333333333334</ele><time>2026-04-03T14:21:50.605Z</time></trkpt><trkpt lat="44.264239404438" lon="11.567015219655941"><ele>159.0</ele><time>2026-04-03T14:21:51.605Z</time></trkpt><trkpt lat="44.26430760680746" lon="11.567226002899153"><ele>159.0</ele><time>2026-04-03T14:21:52.605Z</time></trkpt><trkpt lat="44.26438024354207" lon="11.56743691738129"><ele>159.0</ele><time>2026-04-03T14:21:53.605Z</time></trkpt><trkpt lat="44.26444764751952" lon="11.56763835672899"><ele>159.0</ele><time>2026-04-03T14:21:54.605Z</time></trkpt><trkpt lat="44.26452110676687" lon="11.567838039168391"><ele>159.33333333333334</ele><time>2026-04-03T14:21:55.605Z</time></trkpt><trkpt lat="44.26458088575939" lon="11.5680378604621"><ele>159.66666666666669</ele><time>2026-04-03T14:21:56.605Z</time></trkpt><trkpt lat="44.26463771249999" lon="11.568242554714043"><ele>160.0</ele><time>2026-04-03T14:21:57.605Z</time></trkpt><trkpt lat="44.2646875846541" lon="11.568427027825768"><ele>160.0</ele><time>2026-04-03T14:21:58.605Z</time></trkpt><trkpt lat="44.26474041743674" lon="11.568609483571057"><ele>160.0</ele><time>2026-04-03T14:21:59.605Z</time></trkpt><trkpt lat="44.26479934771557" lon="11.568791281310157"><ele>160.0</ele><time>2026-04-03T14:22:00.605Z</time></trkpt><trkpt lat="44.264852984515876" lon="11.568973940073443"><ele>160.0</ele><time>2026-04-03T14:22:01.605Z</time></trkpt><trkpt lat="44.26491191222355" lon="11.569159626730547"><ele>160.0</ele><time>2026-04-03T14:22:02.605Z</time></trkpt><trkpt lat="44.264977905860924" lon="11.569348863676115"><ele>160.0</ele><time>2026-04-03T14:22:03.605Z</time></trkpt><trkpt lat="44.26504781102642" lon="11.569525413253665"><ele>160.0</ele><time>2026-04-03T14:22:04.605Z</time></trkpt><trkpt lat="44.265129102961275" lon="11.569688850917927"><ele>160.0</ele><time>2026-04-03T14:22:05.605Z</time></trkpt><trkpt lat="44.26522727246837" lon="11.56984456975637"><ele>160.0</ele><time>2026-04-03T14:22:06.605Z</time></trkpt><trkpt lat="44.265329567592076" lon="11.569990953521135"><ele>160.0</ele><time>2026-04-03T14:22:07.605Z</time></trkpt><trkpt lat="44.26543777490547" lon="11.57013151503474"><ele>160.0</ele><time>2026-04-03T14:22:08.605Z</time></trkpt><trkpt lat="44.26554371201165" lon="11.57025908678311"><ele>160.0</ele><time>2026-04-03T14:22:09.605Z</time></trkpt><trkpt lat="44.26565750523005" lon="11.570386574882635"><ele>159.5</ele><time>2026-04-03T14:22:10.605Z</time></trkpt><trkpt lat="44.26577190472599" lon="11.57051921874624"><ele>159.0</ele><time>2026-04-03T14:22:11.605Z</time></trkpt><trkpt lat="44.2658823466463" lon="11.570654010817115"><ele>158.5</ele><time>2026-04-03T14:22:12.605Z</time></trkpt><trkpt lat="44.26598997180462" lon="11.570783060950784"><ele>158.0</ele><time>2026-04-03T14:22:13.605Z</time></trkpt><trkpt lat="44.26609554580434" lon="11.570910102391373"><ele>158.0</ele><time>2026-04-03T14:22:14.605Z</time></trkpt><trkpt lat="44.266211164055136" lon="11.57104176688254"><ele>158.0</ele><time>2026-04-03T14:22:15.605Z</time></trkpt><trkpt lat="44.266326077136625" lon="11.571187371202475"><ele>158.0</ele><time>2026-04-03T14:22:16.605Z</time></trkpt><trkpt lat="44.266445686301914" lon="11.571327268131867"><ele>155.66666666666666</ele><time>2026-04-03T14:22:17.605Z</time></trkpt><trkpt lat="44.26656014038095" lon="11.571470398508655"><ele>153.33333333333334</ele><time>2026-04-03T14:22:18.605Z</time></trkpt><trkpt lat="44.26667490544398" lon="11.571608079103541"><ele>151.0</ele><time>2026-04-03T14:22:19.605Z</time></trkpt><trkpt lat="44.26678877324567" lon="11.571744902155407"><ele>151.0</ele><time>2026-04-03T14:22:20.605Z</time></trkpt><trkpt lat="44.26689619980665" lon="11.571885602227061"><ele>151.0</ele><time>2026-04-03T14:22:21.605Z</time></trkpt><trkpt lat="44.26699248837191" lon="11.572028104911887"><ele>151.0</ele><time>2026-04-03T14:22:22.605Z</time></trkpt><trkpt lat="44.2670757228013" lon="11.572186675423199"><ele>151.0</ele><time>2026-04-03T14:22:23.605Z</time></trkpt><trkpt lat="44.26714871879586" lon="11.57235794776212"><ele>151.5</ele><time>2026-04-03T14:22:24.605Z</time></trkpt><trkpt lat="44.26721435022324" lon="11.572537182750605"><ele>152.0</ele><time>2026-04-03T14:22:25.605Z</time></trkpt><trkpt lat="44.267259718447775" lon="11.572730745648085"><ele>152.5</ele><time>2026-04-03T14:22:26.605Z</time></trkpt><trkpt lat="44.26731941941332" lon="11.572918256043423"><ele>153.0</ele><time>2026-04-03T14:22:27.605Z</time></trkpt><trkpt lat="44.26737870638623" lon="11.573114030772368"><ele>150.0</ele><time>2026-04-03T14:22:28.602Z</time></trkpt><trkpt lat="44.2674355975636" lon="11.573333482437471"><ele>147.0</ele><time>2026-04-03T14:22:29.602Z</time></trkpt><trkpt lat="44.267502084089294" lon="11.573561470232692"><ele>144.0</ele><time>2026-04-03T14:22:30.602Z</time></trkpt><trkpt lat="44.26756706743405" lon="11.573798611799791"><ele>142.66666666666666</ele><time>2026-04-03T14:22:31.602Z</time></trkpt><trkpt lat="44.26763468003438" lon="11.574038770983403"><ele>141.33333333333331</ele><time>2026-04-03T14:22:32.602Z</time></trkpt><trkpt lat="44.267716398354814" lon="11.574297196729583"><ele>140.0</ele><time>2026-04-03T14:22:33.602Z</time></trkpt><trkpt lat="44.26781046807661" lon="11.574599526104468"><ele>138.0</ele><time>2026-04-03T14:22:34.602Z</time></trkpt><trkpt lat="44.267906669832804" lon="11.574943012142478"><ele>136.0</ele><time>2026-04-03T14:22:35.602Z</time></trkpt><trkpt lat="44.26801474392868" lon="11.575315807017201"><ele>133.0</ele><time>2026-04-03T14:22:36.602Z</time></trkpt><trkpt lat="44.26811764206692" lon="11.575722467935226"><ele>130.0</ele><time>2026-04-03T14:22:37.601Z</time></trkpt><trkpt lat="44.26822098234929" lon="11.576147245657143"><ele>129.5</ele><time>2026-04-03T14:22:38.602Z</time></trkpt><trkpt lat="44.268334459639675" lon="11.57656306190027"><ele>129.0</ele><time>2026-04-03T14:22:39.602Z</time></trkpt><trkpt lat="44.268439626683794" lon="11.576947765784915"><ele>130.0</ele><time>2026-04-03T14:22:40.601Z</time></trkpt><trkpt lat="44.268545897566845" lon="11.577312056768848"><ele>131.0</ele><time>2026-04-03T14:22:41.602Z</time></trkpt><trkpt lat="44.2686401473351" lon="11.577651920257303"><ele>132.5</ele><time>2026-04-03T14:22:42.602Z</time></trkpt><trkpt lat="44.268722370377134" lon="11.577969843994557"><ele>134.0</ele><time>2026-04-03T14:22:43.602Z</time></trkpt><trkpt lat="44.268798576236854" lon="11.578269070627147"><ele>134.0</ele><time>2026-04-03T14:22:44.602Z</time></trkpt><trkpt lat="44.26887134468139" lon="11.578550728127963"><ele>134.0</ele><time>2026-04-03T14:22:45.602Z</time></trkpt><trkpt lat="44.268943318767214" lon="11.578812296431595"><ele>134.0</ele><time>2026-04-03T14:22:46.602Z</time></trkpt><trkpt lat="44.26902312544829" lon="11.579056422199276"><ele>134.0</ele><time>2026-04-03T14:22:47.602Z</time></trkpt><trkpt lat="44.26912813412756" lon="11.579289497205362"><ele>134.0</ele><time>2026-04-03T14:22:48.602Z</time></trkpt><trkpt lat="44.269260276537324" lon="11.579513483898387"><ele>134.0</ele><time>2026-04-03T14:22:49.602Z</time></trkpt><trkpt lat="44.26941810694687" lon="11.579732710663555"><ele>134.0</ele><time>2026-04-03T14:22:50.602Z</time></trkpt><trkpt lat="44.269584507258" lon="11.579965161151996"><ele>134.0</ele><time>2026-04-03T14:22:51.602Z</time></trkpt><trkpt lat="44.269754687628826" lon="11.580212130387673"><ele>131.5</ele><time>2026-04-03T14:22:52.602Z</time></trkpt><trkpt lat="44.26992914047996" lon="11.580453050320838"><ele>129.0</ele><time>2026-04-03T14:22:53.602Z</time></trkpt><trkpt lat="44.27009928562851" lon="11.580691419421242"><ele>129.0</ele><time>2026-04-03T14:22:54.602Z</time></trkpt><trkpt lat="44.27026360115597" lon="11.580914426910958"><ele>129.0</ele><time>2026-04-03T14:22:55.602Z</time></trkpt><trkpt lat="44.27043216955772" lon="11.581141210004501"><ele>129.5</ele><time>2026-04-03T14:22:56.602Z</time></trkpt><trkpt lat="44.27059843714605" lon="11.581364136558589"><ele>130.0</ele><time>2026-04-03T14:22:57.602Z</time></trkpt><trkpt lat="44.27076775488912" lon="11.581567170687354"><ele>129.33333333333334</ele><time>2026-04-03T14:22:58.602Z</time></trkpt><trkpt lat="44.27094125948138" lon="11.581763966927008"><ele>128.66666666666666</ele><time>2026-04-03T14:22:59.602Z</time></trkpt><trkpt lat="44.271115752066336" lon="11.581945331632223"><ele>128.0</ele><time>2026-04-03T14:23:00.602Z</time></trkpt><trkpt lat="44.27128898284493" lon="11.582116381840688"><ele>124.33333333333333</ele><time>2026-04-03T14:23:01.602Z</time></trkpt><trkpt lat="44.27145811055758" lon="11.582279280312008"><ele>120.66666666666666</ele><time>2026-04-03T14:23:02.602Z</time></trkpt><trkpt lat="44.27161883886842" lon="11.582434353835463"><ele>117.0</ele><time>2026-04-03T14:23:03.602Z</time></trkpt><trkpt lat="44.271774006154345" lon="11.582587559751698"><ele>117.0</ele><time>2026-04-03T14:23:04.602Z</time></trkpt><trkpt lat="44.271925110295946" lon="11.582741243043952"><ele>117.0</ele><time>2026-04-03T14:23:05.602Z</time></trkpt><trkpt lat="44.272077103502376" lon="11.582906714435635"><ele>117.0</ele><time>2026-04-03T14:23:06.602Z</time></trkpt><trkpt lat="44.272221788113285" lon="11.58309905552885"><ele>114.66666666666666</ele><time>2026-04-03T14:23:07.602Z</time></trkpt><trkpt lat="44.27234105651577" lon="11.583315345829204"><ele>112.33333333333333</ele><time>2026-04-03T14:23:08.602Z</time></trkpt><trkpt lat="44.27243351517561" lon="11.58356406524851"><ele>110.0</ele><time>2026-04-03T14:23:09.602Z</time></trkpt><trkpt lat="44.272496930297116" lon="11.583827789243266"><ele>110.0</ele><time>2026-04-03T14:23:10.602Z</time></trkpt><trkpt lat="44.27254254169497" lon="11.58408964050716"><ele>110.0</ele><time>2026-04-03T14:23:11.602Z</time></trkpt><trkpt lat="44.27258533790872" lon="11.584359880838498"><ele>110.0</ele><time>2026-04-03T14:23:12.602Z</time></trkpt><trkpt lat="44.272617818597126" lon="11.584633579464464"><ele>110.66666666666666</ele><time>2026-04-03T14:23:13.602Z</time></trkpt><trkpt lat="44.272658470364696" lon="11.584906530281767"><ele>111.33333333333334</ele><time>2026-04-03T14:23:14.602Z</time></trkpt><trkpt lat="44.27271707887531" lon="11.585173537316226"><ele>112.0</ele><time>2026-04-03T14:23:15.602Z</time></trkpt><trkpt lat="44.2727949628457" lon="11.585430826558214"><ele>112.0</ele><time>2026-04-03T14:23:16.602Z</time></trkpt><trkpt lat="44.27289674149582" lon="11.585672364072593"><ele>112.0</ele><time>2026-04-03T14:23:17.602Z</time></trkpt><trkpt lat="44.27300473205748" lon="11.585915227329782"><ele>112.0</ele><time>2026-04-03T14:23:18.602Z</time></trkpt><trkpt lat="44.273116980287526" lon="11.586161553483803"><ele>110.33333333333334</ele><time>2026-04-03T14:23:19.602Z</time></trkpt><trkpt lat="44.27323214164403" lon="11.58640800548277"><ele>108.66666666666666</ele><time>2026-04-03T14:23:20.602Z</time></trkpt><trkpt lat="44.27334361417922" lon="11.586639892566058"><ele>107.0</ele><time>2026-04-03T14:23:21.602Z</time></trkpt><trkpt lat="44.273453422043325" lon="11.586861602850899"><ele>108.66666666666666</ele><time>2026-04-03T14:23:22.602Z</time></trkpt><trkpt lat="44.27355464239834" lon="11.587076653598057"><ele>110.33333333333334</ele><time>2026-04-03T14:23:23.602Z</time></trkpt><trkpt lat="44.273647019876215" lon="11.587283108005897"><ele>112.0</ele><time>2026-04-03T14:23:24.602Z</time></trkpt><trkpt lat="44.27373126041092" lon="11.58747638451872"><ele>112.0</ele><time>2026-04-03T14:23:25.601Z</time></trkpt><trkpt lat="44.27380789719275" lon="11.587648140995382"><ele>112.0</ele><time>2026-04-03T14:23:26.601Z</time></trkpt><trkpt lat="44.27388370311891" lon="11.58779042836408"><ele>112.0</ele><time>2026-04-03T14:23:27.601Z</time></trkpt><trkpt lat="44.273979742878" lon="11.587885041917186"><ele>112.0</ele><time>2026-04-03T14:23:28.601Z</time></trkpt><trkpt lat="44.274094644934884" lon="11.587927117928121"><ele>108.66666666666667</ele><time>2026-04-03T14:23:29.601Z</time></trkpt><trkpt lat="44.27422761885627" lon="11.58789704173113"><ele>105.33333333333334</ele><time>2026-04-03T14:23:30.601Z</time></trkpt><trkpt lat="44.27438220833058" lon="11.587823999716955"><ele>102.0</ele><time>2026-04-03T14:23:31.601Z</time></trkpt><trkpt lat="44.27452942939158" lon="11.587733220008486"><ele>102.0</ele><time>2026-04-03T14:23:32.601Z</time></trkpt><trkpt lat="44.27467663100592" lon="11.587656164624716"><ele>102.0</ele><time>2026-04-03T14:23:33.601Z</time></trkpt><trkpt lat="44.27481679328416" lon="11.587606518244174"><ele>102.0</ele><time>2026-04-03T14:23:34.601Z</time></trkpt><trkpt lat="44.27494331653177" lon="11.587550749340279"><ele>102.0</ele><time>2026-04-03T14:23:35.601Z</time></trkpt><trkpt lat="44.275064059537215" lon="11.58749359241358"><ele>101.75</ele><time>2026-04-03T14:23:36.601Z</time></trkpt><trkpt lat="44.27518639451877" lon="11.587462486544595"><ele>101.5</ele><time>2026-04-03T14:23:37.601Z</time></trkpt><trkpt lat="44.275300911778395" lon="11.587422064758195"><ele>101.25</ele><time>2026-04-03T14:23:38.601Z</time></trkpt><trkpt lat="44.275409520163386" lon="11.587381326155132"><ele>101.0</ele><time>2026-04-03T14:23:39.601Z</time></trkpt><trkpt lat="44.27551418696373" lon="11.587339264176764"><ele>101.0</ele><time>2026-04-03T14:23:40.601Z</time></trkpt><trkpt lat="44.27562361044682" lon="11.587309239619787"><ele>101.0</ele><time>2026-04-03T14:23:41.601Z</time></trkpt><trkpt lat="44.27573836863521" lon="11.587299042811361"><ele>101.0</ele><time>2026-04-03T14:23:42.601Z</time></trkpt><trkpt lat="44.27584522932622" lon="11.587320049490241"><ele>101.0</ele><time>2026-04-03T14:23:43.601Z</time></trkpt><trkpt lat="44.27595405863695" lon="11.587372061665974"><ele>101.0</ele><time>2026-04-03T14:23:44.601Z</time></trkpt><trkpt lat="44.276066858364224" lon="11.587447939042637"><ele>101.0</ele><time>2026-04-03T14:23:45.601Z</time></trkpt><trkpt lat="44.27618935008416" lon="11.587533115028572"><ele>101.0</ele><time>2026-04-03T14:23:46.601Z</time></trkpt><trkpt lat="44.27631254022702" lon="11.587613950332079"><ele>101.0</ele><time>2026-04-03T14:23:47.601Z</time></trkpt><trkpt lat="44.276430905858334" lon="11.58769775460521"><ele>101.0</ele><time>2026-04-03T14:23:48.601Z</time></trkpt><trkpt lat="44.27654396707396" lon="11.587778089228017"><ele>100.75</ele><time>2026-04-03T14:23:49.601Z</time></trkpt><trkpt lat="44.27665332703255" lon="11.587859453493962"><ele>100.5</ele><time>2026-04-03T14:23:50.601Z</time></trkpt><trkpt lat="44.27675999569705" lon="11.587925486198401"><ele>100.25</ele><time>2026-04-03T14:23:51.601Z</time></trkpt><trkpt lat="44.276862345445196" lon="11.58799637656456"><ele>100.0</ele><time>2026-04-03T14:23:52.601Z</time></trkpt><trkpt lat="44.27696103830505" lon="11.588066276054358"><ele>100.0</ele><time>2026-04-03T14:23:53.601Z</time></trkpt><trkpt lat="44.27705797084795" lon="11.588142217628539"><ele>100.0</ele><time>2026-04-03T14:23:54.601Z</time></trkpt><trkpt lat="44.2771583686462" lon="11.588217889536685"><ele>100.0</ele><time>2026-04-03T14:23:55.601Z</time></trkpt><trkpt lat="44.27725317004797" lon="11.588279144737427"><ele>100.0</ele><time>2026-04-03T14:23:56.601Z</time></trkpt><trkpt lat="44.27735189995403" lon="11.588334931135737"><ele>100.0</ele><time>2026-04-03T14:23:57.601Z</time></trkpt><trkpt lat="44.277455686814896" lon="11.588394207926559"><ele>99.6</ele><time>2026-04-03T14:23:58.601Z</time></trkpt><trkpt lat="44.27755314675137" lon="11.588437233660452"><ele>99.2</ele><time>2026-04-03T14:23:59.601Z</time></trkpt><trkpt lat="44.27765365592503" lon="11.58846292135781"><ele>98.80000000000001</ele><time>2026-04-03T14:24:00.601Z</time></trkpt><trkpt lat="44.27775596856484" lon="11.588491938954663"><ele>98.4</ele><time>2026-04-03T14:24:01.601Z</time></trkpt><trkpt lat="44.277859862467274" lon="11.588526519465193"><ele>98.0</ele><time>2026-04-03T14:24:02.601Z</time></trkpt><trkpt lat="44.27796404852558" lon="11.588541767816531"><ele>98.0</ele><time>2026-04-03T14:24:03.601Z</time></trkpt><trkpt lat="44.278076577585736" lon="11.588540778146191"><ele>98.0</ele><time>2026-04-03T14:24:04.601Z</time></trkpt><trkpt lat="44.2781773985372" lon="11.588533782168923"><ele>98.0</ele><time>2026-04-03T14:24:05.601Z</time></trkpt><trkpt lat="44.27828815265733" lon="11.588514991061889"><ele>98.0</ele><time>2026-04-03T14:24:06.601Z</time></trkpt><trkpt lat="44.27839842715425" lon="11.588478363376908"><ele>98.0</ele><time>2026-04-03T14:24:07.601Z</time></trkpt><trkpt lat="44.27851247954452" lon="11.588443796330242"><ele>97.5</ele><time>2026-04-03T14:24:08.601Z</time></trkpt><trkpt lat="44.27862447483674" lon="11.588411713595733"><ele>97.0</ele><time>2026-04-03T14:24:09.601Z</time></trkpt><trkpt lat="44.278738101965324" lon="11.58837773640458"><ele>96.5</ele><time>2026-04-03T14:24:10.601Z</time></trkpt><trkpt lat="44.278847064563266" lon="11.588353513132573"><ele>96.0</ele><time>2026-04-03T14:24:11.601Z</time></trkpt><trkpt lat="44.27896388940478" lon="11.58832258377826"><ele>95.5</ele><time>2026-04-03T14:24:12.601Z</time></trkpt><trkpt lat="44.27908427981367" lon="11.588290077425409"><ele>95.0</ele><time>2026-04-03T14:24:13.601Z</time></trkpt><trkpt lat="44.279202033417135" lon="11.58826098440811"><ele>94.5</ele><time>2026-04-03T14:24:14.601Z</time></trkpt><trkpt lat="44.27932149388245" lon="11.588237441844232"><ele>94.0</ele><time>2026-04-03T14:24:15.601Z</time></trkpt><trkpt lat="44.27944056712361" lon="11.588227349035654"><ele>94.0</ele><time>2026-04-03T14:24:16.601Z</time></trkpt><trkpt lat="44.279555063559876" lon="11.588221959496252"><ele>94.0</ele><time>2026-04-03T14:24:17.601Z</time></trkpt><trkpt lat="44.27966594101615" lon="11.588219451465969"><ele>94.0</ele><time>2026-04-03T14:24:18.601Z</time></trkpt><trkpt lat="44.27977613996481" lon="11.588220379914278"><ele>94.0</ele><time>2026-04-03T14:24:19.601Z</time></trkpt><trkpt lat="44.27987699512491" lon="11.588217597289349"><ele>94.0</ele><time>2026-04-03T14:24:20.601Z</time></trkpt><trkpt lat="44.279971775209965" lon="11.58822393564863"><ele>93.5</ele><time>2026-04-03T14:24:21.601Z</time></trkpt><trkpt lat="44.280067232315346" lon="11.588268831760637"><ele>93.0</ele><time>2026-04-03T14:24:22.601Z</time></trkpt><trkpt lat="44.28016401814955" lon="11.588356772932215"><ele>92.5</ele><time>2026-04-03T14:24:23.601Z</time></trkpt><trkpt lat="44.28025105757842" lon="11.58847070432396"><ele>92.0</ele><time>2026-04-03T14:24:24.601Z</time></trkpt><trkpt lat="44.28033116531309" lon="11.588604472231836"><ele>92.0</ele><time>2026-04-03T14:24:25.601Z</time></trkpt><trkpt lat="44.28041088763768" lon="11.588754664687745"><ele>92.0</ele><time>2026-04-03T14:24:26.601Z</time></trkpt><trkpt lat="44.28048550802817" lon="11.588902958830074"><ele>92.0</ele><time>2026-04-03T14:24:27.601Z</time></trkpt><trkpt lat="44.28056285231512" lon="11.589050676524568"><ele>92.0</ele><time>2026-04-03T14:24:28.601Z</time></trkpt><trkpt lat="44.28064376769338" lon="11.589200498237911"><ele>93.0</ele><time>2026-04-03T14:24:29.601Z</time></trkpt><trkpt lat="44.28072915309407" lon="11.589347992615824"><ele>94.0</ele><time>2026-04-03T14:24:30.601Z</time></trkpt><trkpt lat="44.28080727533739" lon="11.589501507910665"><ele>95.0</ele><time>2026-04-03T14:24:31.601Z</time></trkpt><trkpt lat="44.28089145406717" lon="11.589657990418047"><ele>96.0</ele><time>2026-04-03T14:24:32.601Z</time></trkpt><trkpt lat="44.28097231855679" lon="11.589821803516255"><ele>96.0</ele><time>2026-04-03T14:24:33.601Z</time></trkpt><trkpt lat="44.28105104316937" lon="11.589963802806853"><ele>96.0</ele><time>2026-04-03T14:24:34.598Z</time></trkpt><trkpt lat="44.281126133562395" lon="11.590111301203258"><ele>96.0</ele><time>2026-04-03T14:24:35.598Z</time></trkpt><trkpt lat="44.28120855490388" lon="11.590263051951354"><ele>96.0</ele><time>2026-04-03T14:24:36.598Z</time></trkpt><trkpt lat="44.28129938455082" lon="11.590430565512943"><ele>96.33333333333334</ele><time>2026-04-03T14:24:37.598Z</time></trkpt><trkpt lat="44.28139463827683" lon="11.590615688724043"><ele>96.66666666666667</ele><time>2026-04-03T14:24:38.598Z</time></trkpt><trkpt lat="44.28148176865909" lon="11.590822004754424"><ele>97.0</ele><time>2026-04-03T14:24:39.598Z</time></trkpt><trkpt lat="44.28158700973606" lon="11.591029954801542"><ele>96.33333333333334</ele><time>2026-04-03T14:24:40.598Z</time></trkpt><trkpt lat="44.281696782252865" lon="11.591243614346663"><ele>95.66666666666667</ele><time>2026-04-03T14:24:41.597Z</time></trkpt><trkpt lat="44.281803108883665" lon="11.591445327760725"><ele>95.0</ele><time>2026-04-03T14:24:42.597Z</time></trkpt><trkpt lat="44.28191756552124" lon="11.59165254332018"><ele>95.0</ele><time>2026-04-03T14:24:43.598Z</time></trkpt><trkpt lat="44.28202771267172" lon="11.591887170152805"><ele>95.0</ele><time>2026-04-03T14:24:44.598Z</time></trkpt><trkpt lat="44.282145390705615" lon="11.592129246524504"><ele>95.0</ele><time>2026-04-03T14:24:45.598Z</time></trkpt><trkpt lat="44.28227947389722" lon="11.592372528403594"><ele>95.0</ele><time>2026-04-03T14:24:46.598Z</time></trkpt><trkpt lat="44.282412590147054" lon="11.592600852011808"><ele>95.0</ele><time>2026-04-03T14:24:47.598Z</time></trkpt><trkpt lat="44.28254237920749" lon="11.592834238084478"><ele>95.0</ele><time>2026-04-03T14:24:48.598Z</time></trkpt><trkpt lat="44.28267882633329" lon="11.593066920201476"><ele>95.0</ele><time>2026-04-03T14:24:49.598Z</time></trkpt><trkpt lat="44.2828196028101" lon="11.593299064475376"><ele>95.0</ele><time>2026-04-03T14:24:50.598Z</time></trkpt><trkpt lat="44.28295400207033" lon="11.593537734872017"><ele>95.0</ele><time>2026-04-03T14:24:51.598Z</time></trkpt><trkpt lat="44.283089913678126" lon="11.59377038823273"><ele>96.33333333333334</ele><time>2026-04-03T14:24:52.598Z</time></trkpt><trkpt lat="44.28322045378018" lon="11.594000585126945"><ele>97.66666666666667</ele><time>2026-04-03T14:24:53.598Z</time></trkpt><trkpt lat="44.28334689798588" lon="11.59422832701116"><ele>99.0</ele><time>2026-04-03T14:24:54.598Z</time></trkpt><trkpt lat="44.28346629982788" lon="11.59446510712627"><ele>97.66666666666667</ele><time>2026-04-03T14:24:55.598Z</time></trkpt><trkpt lat="44.283582290073056" lon="11.594708071504424"><ele>96.33333333333334</ele><time>2026-04-03T14:24:56.598Z</time></trkpt><trkpt lat="44.28368364372277" lon="11.594970077592539"><ele>95.0</ele><time>2026-04-03T14:24:57.598Z</time></trkpt><trkpt lat="44.283783114789514" lon="11.595239893115254"><ele>94.66666666666667</ele><time>2026-04-03T14:24:58.598Z</time></trkpt><trkpt lat="44.28388428754015" lon="11.595515980754705"><ele>94.33333333333333</ele><time>2026-04-03T14:24:59.598Z</time></trkpt><trkpt lat="44.28398070820872" lon="11.59576360143597"><ele>94.0</ele><time>2026-04-03T14:25:00.598Z</time></trkpt><trkpt lat="44.28407145621869" lon="11.59599606748502"><ele>94.66666666666666</ele><time>2026-04-03T14:25:01.598Z</time></trkpt><trkpt lat="44.28416756902422" lon="11.596238442292593"><ele>95.33333333333333</ele><time>2026-04-03T14:25:02.598Z</time></trkpt><trkpt lat="44.28426868805916" lon="11.596485376366221"><ele>96.0</ele><time>2026-04-03T14:25:03.598Z</time></trkpt><trkpt lat="44.28437716251109" lon="11.596725221349576"><ele>96.0</ele><time>2026-04-03T14:25:04.598Z</time></trkpt><trkpt lat="44.28449306303756" lon="11.596954894616474"><ele>96.0</ele><time>2026-04-03T14:25:05.598Z</time></trkpt><trkpt lat="44.28460973738659" lon="11.59717972584589"><ele>96.0</ele><time>2026-04-03T14:25:06.598Z</time></trkpt><trkpt lat="44.28472773584275" lon="11.597401091630571"><ele>96.66666666666666</ele><time>2026-04-03T14:25:07.598Z</time></trkpt><trkpt lat="44.28484893875323" lon="11.597621800000251"><ele>97.33333333333333</ele><time>2026-04-03T14:25:08.598Z</time></trkpt><trkpt lat="44.28496992572256" lon="11.597844128000087"><ele>98.0</ele><time>2026-04-03T14:25:09.598Z</time></trkpt><trkpt lat="44.285088284841734" lon="11.598066006508898"><ele>98.0</ele><time>2026-04-03T14:25:10.598Z</time></trkpt><trkpt lat="44.285203976235515" lon="11.598288773125322"><ele>98.0</ele><time>2026-04-03T14:25:11.598Z</time></trkpt><trkpt lat="44.285325592534065" lon="11.598511767417516"><ele>98.0</ele><time>2026-04-03T14:25:12.598Z</time></trkpt><trkpt lat="44.285447382073414" lon="11.598735101214018"><ele>97.0</ele><time>2026-04-03T14:25:13.598Z</time></trkpt><trkpt lat="44.28557100533525" lon="11.598955617532404"><ele>96.0</ele><time>2026-04-03T14:25:14.598Z</time></trkpt><trkpt lat="44.28568858991981" lon="11.599170533502065"><ele>95.0</ele><time>2026-04-03T14:25:15.598Z</time></trkpt><trkpt lat="44.2858058751915" lon="11.599376255046216"><ele>94.0</ele><time>2026-04-03T14:25:16.598Z</time></trkpt><trkpt lat="44.285912443355855" lon="11.59958254574127"><ele>93.0</ele><time>2026-04-03T14:25:17.598Z</time></trkpt><trkpt lat="44.28602270363511" lon="11.599792612355875"><ele>92.0</ele><time>2026-04-03T14:25:18.598Z</time></trkpt><trkpt lat="44.286128132937186" lon="11.600009647374954"><ele>92.0</ele><time>2026-04-03T14:25:19.598Z</time></trkpt><trkpt lat="44.28622364413714" lon="11.600221575577015"><ele>92.0</ele><time>2026-04-03T14:25:20.598Z</time></trkpt><trkpt lat="44.28631040401013" lon="11.60044127101603"><ele>92.0</ele><time>2026-04-03T14:25:21.598Z</time></trkpt><trkpt lat="44.28638267954127" lon="11.600671712883848"><ele>93.0</ele><time>2026-04-03T14:25:22.598Z</time></trkpt><trkpt lat="44.286437393789164" lon="11.60091669430082"><ele>94.0</ele><time>2026-04-03T14:25:23.598Z</time></trkpt><trkpt lat="44.286484138479224" lon="11.601164187060549"><ele>95.0</ele><time>2026-04-03T14:25:24.598Z</time></trkpt><trkpt lat="44.28653609753168" lon="11.601399157209967"><ele>95.0</ele><time>2026-04-03T14:25:25.598Z</time></trkpt><trkpt lat="44.28658845247256" lon="11.601630241874652"><ele>95.0</ele><time>2026-04-03T14:25:26.598Z</time></trkpt><trkpt lat="44.2866358537648" lon="11.601855775318777"><ele>95.0</ele><time>2026-04-03T14:25:27.598Z</time></trkpt><trkpt lat="44.28668611977682" lon="11.60207936476741"><ele>94.0</ele><time>2026-04-03T14:25:28.598Z</time></trkpt><trkpt lat="44.28673076356895" lon="11.602299235936387"><ele>93.0</ele><time>2026-04-03T14:25:29.598Z</time></trkpt><trkpt lat="44.28677369941671" lon="11.602524918996963"><ele>92.0</ele><time>2026-04-03T14:25:30.598Z</time></trkpt><trkpt lat="44.28680807513789" lon="11.602757615013939"><ele>92.33333333333334</ele><time>2026-04-03T14:25:31.598Z</time></trkpt><trkpt lat="44.28682799207416" lon="11.602996390358316"><ele>92.66666666666667</ele><time>2026-04-03T14:25:32.598Z</time></trkpt><trkpt lat="44.28682361941039" lon="11.603234974324177"><ele>93.0</ele><time>2026-04-03T14:25:33.598Z</time></trkpt><trkpt lat="44.28679958406502" lon="11.603484270359317"><ele>93.0</ele><time>2026-04-03T14:25:34.598Z</time></trkpt><trkpt lat="44.286764505367266" lon="11.603733138051394"><ele>93.0</ele><time>2026-04-03T14:25:35.598Z</time></trkpt><trkpt lat="44.28671966794558" lon="11.60398048345631"><ele>93.0</ele><time>2026-04-03T14:25:36.598Z</time></trkpt><trkpt lat="44.286687923759445" lon="11.604222923704379"><ele>93.0</ele><time>2026-04-03T14:25:37.598Z</time></trkpt><trkpt lat="44.28665224843622" lon="11.604466341770568"><ele>93.0</ele><time>2026-04-03T14:25:38.598Z</time></trkpt><trkpt lat="44.286614880937925" lon="11.604720357024993"><ele>93.0</ele><time>2026-04-03T14:25:39.598Z</time></trkpt><trkpt lat="44.286582142370484" lon="11.604965514202624"><ele>92.66666666666667</ele><time>2026-04-03T14:25:40.598Z</time></trkpt><trkpt lat="44.2865495331222" lon="11.605210535716344"><ele>92.33333333333334</ele><time>2026-04-03T14:25:41.598Z</time></trkpt><trkpt lat="44.286518760499106" lon="11.6054435767585"><ele>92.0</ele><time>2026-04-03T14:25:42.597Z</time></trkpt><trkpt lat="44.28648715112501" lon="11.605672216836007"><ele>91.8</ele><time>2026-04-03T14:25:43.597Z</time></trkpt><trkpt lat="44.2864597686812" lon="11.60588828689419"><ele>91.6</ele><time>2026-04-03T14:25:44.597Z</time></trkpt><trkpt lat="44.286436791958685" lon="11.606031749653644"><ele>91.39999999999999</ele><time>2026-04-03T14:25:45.597Z</time></trkpt><trkpt lat="44.28641957279771" lon="11.606128752613122"><ele>91.19999999999999</ele><time>2026-04-03T14:25:46.597Z</time></trkpt><trkpt lat="44.28639833378693" lon="11.60624492453361"><ele>91.0</ele><time>2026-04-03T14:25:48.597Z</time></trkpt><trkpt lat="44.286377200942006" lon="11.606338418908841"><ele>90.0</ele><time>2026-04-03T14:25:50.597Z</time></trkpt><trkpt lat="44.28636249961633" lon="11.606480563058115"><ele>89.0</ele><time>2026-04-03T14:25:52.597Z</time></trkpt><trkpt lat="44.28633469630658" lon="11.6066394236178"><ele>88.0</ele><time>2026-04-03T14:25:54.597Z</time></trkpt><trkpt lat="44.2863101387694" lon="11.606764563208612"><ele>87.0</ele><time>2026-04-03T14:25:56.597Z</time></trkpt><trkpt lat="44.28630564798609" lon="11.606872586092301"><ele>86.0</ele><time>2026-04-03T14:26:10.597Z</time></trkpt><trkpt lat="44.28629391823586" lon="11.606969897626875"><ele>86.19999999999999</ele><time>2026-04-03T14:26:11.597Z</time></trkpt><trkpt lat="44.28627626861774" lon="11.607085806423502"><ele>86.39999999999999</ele><time>2026-04-03T14:26:12.597Z</time></trkpt><trkpt lat="44.28625388773217" lon="11.607225427370956"><ele>86.6</ele><time>2026-04-03T14:26:13.597Z</time></trkpt><trkpt lat="44.286236515241114" lon="11.607392091948718"><ele>86.8</ele><time>2026-04-03T14:26:14.597Z</time></trkpt><trkpt lat="44.286216175625704" lon="11.607574574878665"><ele>87.0</ele><time>2026-04-03T14:26:15.597Z</time></trkpt><trkpt lat="44.28620885753218" lon="11.60776851801929"><ele>87.66666666666667</ele><time>2026-04-03T14:26:16.597Z</time></trkpt><trkpt lat="44.28620868195987" lon="11.607968414580611"><ele>88.33333333333334</ele><time>2026-04-03T14:26:17.597Z</time></trkpt><trkpt lat="44.28622235381159" lon="11.608180722608264"><ele>89.0</ele><time>2026-04-03T14:26:18.597Z</time></trkpt><trkpt lat="44.28624969939073" lon="11.608399413192316"><ele>89.0</ele><time>2026-04-03T14:26:19.597Z</time></trkpt><trkpt lat="44.286295728907724" lon="11.608617092476216"><ele>89.0</ele><time>2026-04-03T14:26:20.597Z</time></trkpt><trkpt lat="44.28636064372506" lon="11.60883384242261"><ele>89.0</ele><time>2026-04-03T14:26:21.597Z</time></trkpt><trkpt lat="44.28643920932398" lon="11.609023451353167"><ele>89.33333333333334</ele><time>2026-04-03T14:26:22.597Z</time></trkpt><trkpt lat="44.28653562337603" lon="11.609220958428008"><ele>89.66666666666667</ele><time>2026-04-03T14:26:23.597Z</time></trkpt><trkpt lat="44.2866391730949" lon="11.609425333164097"><ele>90.0</ele><time>2026-04-03T14:26:24.597Z</time></trkpt><trkpt lat="44.28674194755826" lon="11.609619227439426"><ele>90.0</ele><time>2026-04-03T14:26:25.597Z</time></trkpt><trkpt lat="44.286849479113826" lon="11.60981689361202"><ele>90.0</ele><time>2026-04-03T14:26:26.597Z</time></trkpt><trkpt lat="44.286957003479365" lon="11.610010949019383"><ele>90.0</ele><time>2026-04-03T14:26:27.597Z</time></trkpt><trkpt lat="44.287065756756476" lon="11.610206594820776"><ele>89.66666666666667</ele><time>2026-04-03T14:26:28.597Z</time></trkpt><trkpt lat="44.28718031864821" lon="11.610407963594303"><ele>89.33333333333334</ele><time>2026-04-03T14:26:29.597Z</time></trkpt><trkpt lat="44.28729495869428" lon="11.610619174894653"><ele>89.0</ele><time>2026-04-03T14:26:30.597Z</time></trkpt><trkpt lat="44.287414220689676" lon="11.610839368530609"><ele>89.0</ele><time>2026-04-03T14:26:31.597Z</time></trkpt><trkpt lat="44.2875391511942" lon="11.61106501499491"><ele>89.0</ele><time>2026-04-03T14:26:32.597Z</time></trkpt><trkpt lat="44.28766604955707" lon="11.61129469881654"><ele>89.0</ele><time>2026-04-03T14:26:33.597Z</time></trkpt><trkpt lat="44.28779980690584" lon="11.61152995128986"><ele>88.66666666666667</ele><time>2026-04-03T14:26:34.597Z</time></trkpt><trkpt lat="44.28793465662939" lon="11.611774906728618"><ele>88.33333333333333</ele><time>2026-04-03T14:26:35.597Z</time></trkpt><trkpt lat="44.28805692645104" lon="11.61202034982768"><ele>88.0</ele><time>2026-04-03T14:26:36.597Z</time></trkpt><trkpt lat="44.28816807651221" lon="11.612272798183795"><ele>88.0</ele><time>2026-04-03T14:26:37.597Z</time></trkpt><trkpt lat="44.28826398738111" lon="11.612535974992488"><ele>88.0</ele><time>2026-04-03T14:26:38.597Z</time></trkpt><trkpt lat="44.288351375954626" lon="11.61280730080936"><ele>88.0</ele><time>2026-04-03T14:26:39.597Z</time></trkpt><trkpt lat="44.288431924026234" lon="11.613082241511234"><ele>87.66666666666666</ele><time>2026-04-03T14:26:40.594Z</time></trkpt><trkpt lat="44.28851176529787" lon="11.613359530343791"><ele>87.33333333333333</ele><time>2026-04-03T14:26:41.595Z</time></trkpt><trkpt lat="44.28859282886458" lon="11.613639829261306"><ele>87.0</ele><time>2026-04-03T14:26:42.595Z</time></trkpt><trkpt lat="44.288671186155725" lon="11.613917198064389"><ele>86.66666666666667</ele><time>2026-04-03T14:26:43.594Z</time></trkpt><trkpt lat="44.288749727817354" lon="11.614188036190027"><ele>86.33333333333334</ele><time>2026-04-03T14:26:44.594Z</time></trkpt><trkpt lat="44.28882810353312" lon="11.614456487388063"><ele>86.0</ele><time>2026-04-03T14:26:45.594Z</time></trkpt><trkpt lat="44.28891451164237" lon="11.614720428420858"><ele>87.0</ele><time>2026-04-03T14:26:46.595Z</time></trkpt><trkpt lat="44.28901819963931" lon="11.614972111922965"><ele>88.0</ele><time>2026-04-03T14:26:47.594Z</time></trkpt><trkpt lat="44.2891469063329" lon="11.615198749506067"><ele>89.0</ele><time>2026-04-03T14:26:48.594Z</time></trkpt><trkpt lat="44.28928807114268" lon="11.615412710497726"><ele>89.33333333333334</ele><time>2026-04-03T14:26:49.594Z</time></trkpt><trkpt lat="44.28944052854895" lon="11.615609920375285"><ele>89.66666666666667</ele><time>2026-04-03T14:26:50.594Z</time></trkpt><trkpt lat="44.28960371871165" lon="11.615790990501553"><ele>90.0</ele><time>2026-04-03T14:26:51.594Z</time></trkpt><trkpt lat="44.28977300646762" lon="11.615967643803623"><ele>90.33333333333333</ele><time>2026-04-03T14:26:52.594Z</time></trkpt><trkpt lat="44.289943923168764" lon="11.616145165723447"><ele>90.66666666666666</ele><time>2026-04-03T14:26:53.594Z</time></trkpt><trkpt lat="44.29011145982418" lon="11.616322579938396"><ele>91.0</ele><time>2026-04-03T14:26:54.594Z</time></trkpt><trkpt lat="44.29027368259184" lon="11.616493747127826"><ele>91.0</ele><time>2026-04-03T14:26:55.594Z</time></trkpt><trkpt lat="44.29042702870466" lon="11.616660816462852"><ele>91.0</ele><time>2026-04-03T14:26:56.594Z</time></trkpt><trkpt lat="44.290579935415884" lon="11.616828886548848"><ele>91.0</ele><time>2026-04-03T14:26:57.594Z</time></trkpt><trkpt lat="44.290729972569714" lon="11.616995636510042"><ele>90.66666666666666</ele><time>2026-04-03T14:26:58.594Z</time></trkpt><trkpt lat="44.29088534666584" lon="11.617167522144086"><ele>90.33333333333333</ele><time>2026-04-03T14:26:59.594Z</time></trkpt><trkpt lat="44.29104022941182" lon="11.61733823978552"><ele>90.0</ele><time>2026-04-03T14:27:00.594Z</time></trkpt><trkpt lat="44.291196714294976" lon="11.617507257618035"><ele>90.0</ele><time>2026-04-03T14:27:01.594Z</time></trkpt><trkpt lat="44.29135232099451" lon="11.617675569199777"><ele>90.0</ele><time>2026-04-03T14:27:02.594Z</time></trkpt><trkpt lat="44.29150440263347" lon="11.617836727166226"><ele>90.0</ele><time>2026-04-03T14:27:03.594Z</time></trkpt><trkpt lat="44.291656059537004" lon="11.618004474318036"><ele>90.33333333333333</ele><time>2026-04-03T14:27:04.594Z</time></trkpt><trkpt lat="44.291805707418376" lon="11.618173734252801"><ele>90.66666666666666</ele><time>2026-04-03T14:27:05.594Z</time></trkpt><trkpt lat="44.29195423021895" lon="11.618333856984046"><ele>91.0</ele><time>2026-04-03T14:27:06.594Z</time></trkpt><trkpt lat="44.29209343308434" lon="11.618480054996427"><ele>91.0</ele><time>2026-04-03T14:27:07.594Z</time></trkpt><trkpt lat="44.29223233697432" lon="11.618636921937505"><ele>91.0</ele><time>2026-04-03T14:27:08.594Z</time></trkpt><trkpt lat="44.29236668006674" lon="11.618800733344855"><ele>91.0</ele><time>2026-04-03T14:27:09.594Z</time></trkpt><trkpt lat="44.292497297801276" lon="11.618962429571395"><ele>91.33333333333333</ele><time>2026-04-03T14:27:10.594Z</time></trkpt><trkpt lat="44.29262738607299" lon="11.619115959037869"><ele>91.66666666666667</ele><time>2026-04-03T14:27:11.594Z</time></trkpt><trkpt lat="44.292762542789475" lon="11.619284341667441"><ele>92.0</ele><time>2026-04-03T14:27:12.594Z</time></trkpt><trkpt lat="44.292905186351746" lon="11.61945850513238"><ele>91.66666666666667</ele><time>2026-04-03T14:27:13.594Z</time></trkpt><trkpt lat="44.29303942685286" lon="11.619621145995927"><ele>91.33333333333333</ele><time>2026-04-03T14:27:14.594Z</time></trkpt><trkpt lat="44.293185751578314" lon="11.61975826330043"><ele>91.0</ele><time>2026-04-03T14:27:15.594Z</time></trkpt><trkpt lat="44.29334035454244" lon="11.61988889065112"><ele>91.0</ele><time>2026-04-03T14:27:16.594Z</time></trkpt><trkpt lat="44.29349209385049" lon="11.62002948404709"><ele>91.0</ele><time>2026-04-03T14:27:17.594Z</time></trkpt><trkpt lat="44.293635131088855" lon="11.620169327413992"><ele>91.0</ele><time>2026-04-03T14:27:18.594Z</time></trkpt><trkpt lat="44.293772239720866" lon="11.620317328662171"><ele>89.66666666666666</ele><time>2026-04-03T14:27:19.594Z</time></trkpt><trkpt lat="44.29390039636007" lon="11.62047859008136"><ele>88.33333333333333</ele><time>2026-04-03T14:27:20.594Z</time></trkpt><trkpt lat="44.29401352608573" lon="11.620655122558523"><ele>87.0</ele><time>2026-04-03T14:27:21.594Z</time></trkpt><trkpt lat="44.29412578768686" lon="11.620834295732859"><ele>89.0</ele><time>2026-04-03T14:27:22.594Z</time></trkpt><trkpt lat="44.294231564986575" lon="11.621017549767759"><ele>91.0</ele><time>2026-04-03T14:27:23.594Z</time></trkpt><trkpt lat="44.29433485390606" lon="11.621203879740612"><ele>93.0</ele><time>2026-04-03T14:27:24.594Z</time></trkpt><trkpt lat="44.29443677482809" lon="11.621389860598612"><ele>93.0</ele><time>2026-04-03T14:27:25.594Z</time></trkpt><trkpt lat="44.29453041825932" lon="11.621565320621084"><ele>93.0</ele><time>2026-04-03T14:27:26.594Z</time></trkpt><trkpt lat="44.29462871860237" lon="11.621743553451763"><ele>93.0</ele><time>2026-04-03T14:27:27.594Z</time></trkpt><trkpt lat="44.29472667573713" lon="11.621916443112411"><ele>93.33333333333333</ele><time>2026-04-03T14:27:28.594Z</time></trkpt><trkpt lat="44.29482754871882" lon="11.622087600548157"><ele>93.66666666666666</ele><time>2026-04-03T14:27:29.594Z</time></trkpt><trkpt lat="44.29492507149198" lon="11.622262970161573"><ele>94.0</ele><time>2026-04-03T14:27:30.594Z</time></trkpt><trkpt lat="44.29502653844325" lon="11.62244023300238"><ele>94.0</ele><time>2026-04-03T14:27:31.594Z</time></trkpt><trkpt lat="44.295124637936915" lon="11.622617502517638"><ele>94.0</ele><time>2026-04-03T14:27:32.594Z</time></trkpt><trkpt lat="44.29522867434714" lon="11.622791122190126"><ele>94.0</ele><time>2026-04-03T14:27:33.594Z</time></trkpt><trkpt lat="44.2953305263205" lon="11.622965440515495"><ele>93.66666666666666</ele><time>2026-04-03T14:27:34.594Z</time></trkpt><trkpt lat="44.29542930897094" lon="11.623143642367845"><ele>93.33333333333333</ele><time>2026-04-03T14:27:35.594Z</time></trkpt><trkpt lat="44.29552811939089" lon="11.623325310473959"><ele>93.0</ele><time>2026-04-03T14:27:36.594Z</time></trkpt><trkpt lat="44.2956337260321" lon="11.623506018557238"><ele>91.33333333333333</ele><time>2026-04-03T14:27:37.594Z</time></trkpt><trkpt lat="44.295737872565056" lon="11.623698255311037"><ele>89.66666666666666</ele><time>2026-04-03T14:27:38.594Z</time></trkpt><trkpt lat="44.2958475868994" lon="11.62389450982521"><ele>88.0</ele><time>2026-04-03T14:27:39.594Z</time></trkpt><trkpt lat="44.29595836348466" lon="11.624091516253197"><ele>88.0</ele><time>2026-04-03T14:27:40.594Z</time></trkpt><trkpt lat="44.29607094377724" lon="11.62429051160516"><ele>88.0</ele><time>2026-04-03T14:27:41.594Z</time></trkpt><trkpt lat="44.296177194260245" lon="11.624488766037466"><ele>88.0</ele><time>2026-04-03T14:27:42.594Z</time></trkpt><trkpt lat="44.29628383026731" lon="11.62468737611783"><ele>87.66666666666666</ele><time>2026-04-03T14:27:43.594Z</time></trkpt><trkpt lat="44.296387761996364" lon="11.624893674495793"><ele>87.33333333333333</ele><time>2026-04-03T14:27:44.594Z</time></trkpt><trkpt lat="44.29648800610968" lon="11.62510380360652"><ele>87.0</ele><time>2026-04-03T14:27:45.594Z</time></trkpt><trkpt lat="44.29658764805199" lon="11.625295777751012"><ele>85.33333333333333</ele><time>2026-04-03T14:27:46.594Z</time></trkpt><trkpt lat="44.29667927245439" lon="11.625494157070639"><ele>83.66666666666666</ele><time>2026-04-03T14:27:47.594Z</time></trkpt><trkpt lat="44.296764769285154" lon="11.625699122556918"><ele>82.0</ele><time>2026-04-03T14:27:48.594Z</time></trkpt><trkpt lat="44.29684233153651" lon="11.625910770819784"><ele>82.0</ele><time>2026-04-03T14:27:49.594Z</time></trkpt><trkpt lat="44.2969287582081" lon="11.626120123085206"><ele>82.0</ele><time>2026-04-03T14:27:50.594Z</time></trkpt><trkpt lat="44.297007486276875" lon="11.62631442594726"><ele>82.0</ele><time>2026-04-03T14:27:51.594Z</time></trkpt><trkpt lat="44.29708564022809" lon="11.626504918787619"><ele>81.0</ele><time>2026-04-03T14:27:52.594Z</time></trkpt><trkpt lat="44.29716208219981" lon="11.6266781917047"><ele>80.0</ele><time>2026-04-03T14:27:53.594Z</time></trkpt><trkpt lat="44.29724057083664" lon="11.626857051486862"><ele>79.0</ele><time>2026-04-03T14:27:54.594Z</time></trkpt><trkpt lat="44.29731594557303" lon="11.627044361283874"><ele>78.33333333333333</ele><time>2026-04-03T14:27:55.594Z</time></trkpt><trkpt lat="44.297393282345226" lon="11.627231467446265"><ele>77.66666666666667</ele><time>2026-04-03T14:27:56.594Z</time></trkpt><trkpt lat="44.29747001056637" lon="11.627416728723022"><ele>77.0</ele><time>2026-04-03T14:27:57.594Z</time></trkpt><trkpt lat="44.297547838193154" lon="11.62759688708312"><ele>77.0</ele><time>2026-04-03T14:27:58.594Z</time></trkpt><trkpt lat="44.29761882298904" lon="11.627765139371256"><ele>77.0</ele><time>2026-04-03T14:27:59.594Z</time></trkpt><trkpt lat="44.29769656364992" lon="11.627945174672563"><ele>77.0</ele><time>2026-04-03T14:28:00.594Z</time></trkpt><trkpt lat="44.297775510140056" lon="11.628125647853023"><ele>77.0</ele><time>2026-04-03T14:28:01.594Z</time></trkpt><trkpt lat="44.297853807503486" lon="11.628305797698266"><ele>77.33333333333334</ele><time>2026-04-03T14:28:02.594Z</time></trkpt><trkpt lat="44.297930533001605" lon="11.628495818307039"><ele>77.66666666666667</ele><time>2026-04-03T14:28:03.593Z</time></trkpt><trkpt lat="44.298009721143686" lon="11.628687157665391"><ele>78.0</ele><time>2026-04-03T14:28:04.593Z</time></trkpt><trkpt lat="44.298096199283144" lon="11.628879034735759"><ele>77.33333333333333</ele><time>2026-04-03T14:28:05.593Z</time></trkpt><trkpt lat="44.29817945004342" lon="11.629074996695849"><ele>76.66666666666666</ele><time>2026-04-03T14:28:06.593Z</time></trkpt><trkpt lat="44.298264789968215" lon="11.629276056745686"><ele>76.0</ele><time>2026-04-03T14:28:07.593Z</time></trkpt><trkpt lat="44.298347165494725" lon="11.62947340822476"><ele>75.33333333333333</ele><time>2026-04-03T14:28:08.593Z</time></trkpt><trkpt lat="44.298430132735206" lon="11.62966386790275"><ele>74.66666666666667</ele><time>2026-04-03T14:28:09.593Z</time></trkpt><trkpt lat="44.29851077699049" lon="11.629855150934539"><ele>74.0</ele><time>2026-04-03T14:28:10.593Z</time></trkpt><trkpt lat="44.29859587792374" lon="11.630047888642755"><ele>74.0</ele><time>2026-04-03T14:28:11.593Z</time></trkpt><trkpt lat="44.2986796025131" lon="11.630241222155801"><ele>74.0</ele><time>2026-04-03T14:28:12.593Z</time></trkpt><trkpt lat="44.29876433768217" lon="11.630434612533069"><ele>74.0</ele><time>2026-04-03T14:28:13.593Z</time></trkpt><trkpt lat="44.29885238301786" lon="11.630636020303909"><ele>74.0</ele><time>2026-04-03T14:28:14.593Z</time></trkpt><trkpt lat="44.298938738911055" lon="11.63083980847404"><ele>74.0</ele><time>2026-04-03T14:28:15.593Z</time></trkpt><trkpt lat="44.29902039606112" lon="11.631043416697121"><ele>74.0</ele><time>2026-04-03T14:28:16.593Z</time></trkpt><trkpt lat="44.29910364349005" lon="11.631237981027407"><ele>74.33333333333334</ele><time>2026-04-03T14:28:17.593Z</time></trkpt><trkpt lat="44.299184716007424" lon="11.631436500257264"><ele>74.66666666666667</ele><time>2026-04-03T14:28:18.593Z</time></trkpt><trkpt lat="44.29927092240079" lon="11.631629818305772"><ele>75.0</ele><time>2026-04-03T14:28:19.593Z</time></trkpt><trkpt lat="44.29935727824111" lon="11.631817526974418"><ele>74.33333333333333</ele><time>2026-04-03T14:28:20.593Z</time></trkpt><trkpt lat="44.29944241523659" lon="11.63200843661295"><ele>73.66666666666666</ele><time>2026-04-03T14:28:21.593Z</time></trkpt><trkpt lat="44.29951648472846" lon="11.632208080665844"><ele>73.0</ele><time>2026-04-03T14:28:22.593Z</time></trkpt><trkpt lat="44.29958764136521" lon="11.632388695135603"><ele>73.0</ele><time>2026-04-03T14:28:23.593Z</time></trkpt><trkpt lat="44.29965576692323" lon="11.63255877857143"><ele>73.0</ele><time>2026-04-03T14:28:24.593Z</time></trkpt><trkpt lat="44.29971957157796" lon="11.63272336256921"><ele>73.0</ele><time>2026-04-03T14:28:25.593Z</time></trkpt><trkpt lat="44.299786538598305" lon="11.63288357229484"><ele>73.0</ele><time>2026-04-03T14:28:26.593Z</time></trkpt><trkpt lat="44.299855334102936" lon="11.633051703351043"><ele>72.66666666666666</ele><time>2026-04-03T14:28:27.593Z</time></trkpt><trkpt lat="44.29993128523761" lon="11.633227662905842"><ele>72.33333333333333</ele><time>2026-04-03T14:28:28.593Z</time></trkpt><trkpt lat="44.30001397957932" lon="11.633415791400564"><ele>72.0</ele><time>2026-04-03T14:28:29.593Z</time></trkpt><trkpt lat="44.300101790817045" lon="11.633618142814637"><ele>72.0</ele><time>2026-04-03T14:28:30.593Z</time></trkpt><trkpt lat="44.300199607179174" lon="11.63382733209521"><ele>72.0</ele><time>2026-04-03T14:28:31.593Z</time></trkpt><trkpt lat="44.30031109681001" lon="11.634033321834245"><ele>72.0</ele><time>2026-04-03T14:28:32.593Z</time></trkpt><trkpt lat="44.3004403329464" lon="11.634221358450965"><ele>72.0</ele><time>2026-04-03T14:28:33.593Z</time></trkpt><trkpt lat="44.30057292829484" lon="11.634384409552652"><ele>72.0</ele><time>2026-04-03T14:28:34.593Z</time></trkpt><trkpt lat="44.300707020420695" lon="11.634530153719425"><ele>72.0</ele><time>2026-04-03T14:28:35.593Z</time></trkpt><trkpt lat="44.30084584901598" lon="11.634668358286934"><ele>72.0</ele><time>2026-04-03T14:28:36.593Z</time></trkpt><trkpt lat="44.300992583001474" lon="11.634779114131476"><ele>72.0</ele><time>2026-04-03T14:28:37.593Z</time></trkpt><trkpt lat="44.30114610362209" lon="11.634866748984873"><ele>72.0</ele><time>2026-04-03T14:28:38.593Z</time></trkpt><trkpt lat="44.3013067121044" lon="11.634940123198255"><ele>72.33333333333333</ele><time>2026-04-03T14:28:39.593Z</time></trkpt><trkpt lat="44.30146677201839" lon="11.635006058002732"><ele>72.66666666666666</ele><time>2026-04-03T14:28:40.593Z</time></trkpt><trkpt lat="44.301624309972944" lon="11.635069423213022"><ele>73.0</ele><time>2026-04-03T14:28:41.593Z</time></trkpt><trkpt lat="44.30177843489809" lon="11.635127226945064"><ele>73.0</ele><time>2026-04-03T14:28:42.593Z</time></trkpt><trkpt lat="44.30193093250312" lon="11.635186705177416"><ele>73.0</ele><time>2026-04-03T14:28:43.593Z</time></trkpt><trkpt lat="44.30208297440403" lon="11.635244106948774"><ele>73.0</ele><time>2026-04-03T14:28:44.593Z</time></trkpt><trkpt lat="44.302237471561845" lon="11.635298828134777"><ele>73.0</ele><time>2026-04-03T14:28:45.593Z</time></trkpt><trkpt lat="44.302394721253954" lon="11.635352061554977"><ele>73.0</ele><time>2026-04-03T14:28:46.591Z</time></trkpt><trkpt lat="44.302549070942526" lon="11.63540936612588"><ele>73.0</ele><time>2026-04-03T14:28:47.591Z</time></trkpt><trkpt lat="44.30270199483772" lon="11.635466957798755"><ele>73.0</ele><time>2026-04-03T14:28:48.591Z</time></trkpt><trkpt lat="44.302857667982515" lon="11.635525705539658"><ele>73.0</ele><time>2026-04-03T14:28:49.59Z</time></trkpt><trkpt lat="44.303013981930796" lon="11.635582787882678"><ele>73.0</ele><time>2026-04-03T14:28:50.59Z</time></trkpt><trkpt lat="44.30317398893905" lon="11.635635476757686"><ele>74.0</ele><time>2026-04-03T14:28:51.59Z</time></trkpt><trkpt lat="44.30333140809462" lon="11.635687940503077"><ele>75.0</ele><time>2026-04-03T14:28:52.59Z</time></trkpt><trkpt lat="44.30349078347567" lon="11.635745519521809"><ele>76.0</ele><time>2026-04-03T14:28:53.591Z</time></trkpt><trkpt lat="44.3036504497045" lon="11.635799334867846"><ele>76.0</ele><time>2026-04-03T14:28:54.591Z</time></trkpt><trkpt lat="44.303809408437544" lon="11.635855197611935"><ele>76.0</ele><time>2026-04-03T14:28:55.59Z</time></trkpt><trkpt lat="44.303965071099235" lon="11.635925398850302"><ele>76.0</ele><time>2026-04-03T14:28:56.591Z</time></trkpt><trkpt lat="44.304108511214615" lon="11.636014634095137"><ele>76.0</ele><time>2026-04-03T14:28:57.59Z</time></trkpt><trkpt lat="44.30424367177809" lon="11.636132128996666"><ele>76.0</ele><time>2026-04-03T14:28:58.59Z</time></trkpt><trkpt lat="44.30436800987601" lon="11.636264976167828"><ele>76.0</ele><time>2026-04-03T14:28:59.59Z</time></trkpt><trkpt lat="44.30448775136343" lon="11.636403772935285"><ele>76.0</ele><time>2026-04-03T14:29:00.59Z</time></trkpt><trkpt lat="44.304613004715705" lon="11.63655079447373"><ele>76.0</ele><time>2026-04-03T14:29:01.59Z</time></trkpt><trkpt lat="44.30473466188246" lon="11.636704937110657"><ele>76.0</ele><time>2026-04-03T14:29:02.59Z</time></trkpt><trkpt lat="44.304863156032866" lon="11.636859378881244"><ele>75.66666666666666</ele><time>2026-04-03T14:29:03.59Z</time></trkpt><trkpt lat="44.30499414883251" lon="11.637022643733495"><ele>75.33333333333333</ele><time>2026-04-03T14:29:04.59Z</time></trkpt><trkpt lat="44.30512773080915" lon="11.6371892636206"><ele>75.0</ele><time>2026-04-03T14:29:05.59Z</time></trkpt><trkpt lat="44.305259010383075" lon="11.637358510063226"><ele>75.0</ele><time>2026-04-03T14:29:06.59Z</time></trkpt><trkpt lat="44.30539536375721" lon="11.637522315736778"><ele>75.0</ele><time>2026-04-03T14:29:07.59Z</time></trkpt><trkpt lat="44.305542170078986" lon="11.637668727053427"><ele>75.0</ele><time>2026-04-03T14:29:08.59Z</time></trkpt><trkpt lat="44.305700912402955" lon="11.637797838168561"><ele>75.33333333333333</ele><time>2026-04-03T14:29:09.59Z</time></trkpt><trkpt lat="44.30587154779502" lon="11.637909524801746"><ele>75.66666666666666</ele><time>2026-04-03T14:29:10.59Z</time></trkpt><trkpt lat="44.306041661536995" lon="11.638010104091652"><ele>76.0</ele><time>2026-04-03T14:29:11.59Z</time></trkpt><trkpt lat="44.30621330318815" lon="11.638106810119222"><ele>76.0</ele><time>2026-04-03T14:29:12.59Z</time></trkpt><trkpt lat="44.30638635654991" lon="11.63820512893401"><ele>76.0</ele><time>2026-04-03T14:29:13.59Z</time></trkpt><trkpt lat="44.30655639976878" lon="11.638296645664726"><ele>76.0</ele><time>2026-04-03T14:29:14.59Z</time></trkpt><trkpt lat="44.30672399488921" lon="11.638382611434544"><ele>75.0</ele><time>2026-04-03T14:29:15.59Z</time></trkpt><trkpt lat="44.306887107539346" lon="11.63847141058956"><ele>74.0</ele><time>2026-04-03T14:29:16.59Z</time></trkpt><trkpt lat="44.30705004129243" lon="11.638560769120685"><ele>73.0</ele><time>2026-04-03T14:29:17.59Z</time></trkpt><trkpt lat="44.307212820767276" lon="11.638656290836375"><ele>72.66666666666666</ele><time>2026-04-03T14:29:18.59Z</time></trkpt><trkpt lat="44.30737338158949" lon="11.638753580951281"><ele>72.33333333333333</ele><time>2026-04-03T14:29:19.59Z</time></trkpt><trkpt lat="44.30753616880832" lon="11.638863330706535"><ele>72.0</ele><time>2026-04-03T14:29:20.59Z</time></trkpt><trkpt lat="44.30768945432236" lon="11.638987103444638"><ele>72.0</ele><time>2026-04-03T14:29:21.59Z</time></trkpt><trkpt lat="44.307840004591924" lon="11.639114005330725"><ele>72.0</ele><time>2026-04-03T14:29:22.59Z</time></trkpt><trkpt lat="44.307993822738766" lon="11.639246735764857"><ele>72.0</ele><time>2026-04-03T14:29:23.59Z</time></trkpt><trkpt lat="44.30813996944301" lon="11.63938787112871"><ele>71.33333333333333</ele><time>2026-04-03T14:29:24.59Z</time></trkpt><trkpt lat="44.30829094394786" lon="11.639522176431859"><ele>70.66666666666666</ele><time>2026-04-03T14:29:25.59Z</time></trkpt><trkpt lat="44.30843770964046" lon="11.639655522306183"><ele>70.0</ele><time>2026-04-03T14:29:26.59Z</time></trkpt><trkpt lat="44.30857676406042" lon="11.639798714058292"><ele>70.0</ele><time>2026-04-03T14:29:27.59Z</time></trkpt><trkpt lat="44.308715542844176" lon="11.63995724169076"><ele>70.0</ele><time>2026-04-03T14:29:28.59Z</time></trkpt><trkpt lat="44.30885134360517" lon="11.6401274883852"><ele>70.0</ele><time>2026-04-03T14:29:29.59Z</time></trkpt><trkpt lat="44.30898457170868" lon="11.640307721377411"><ele>70.66666666666666</ele><time>2026-04-03T14:29:30.59Z</time></trkpt><trkpt lat="44.30910894508823" lon="11.640501280197004"><ele>71.33333333333333</ele><time>2026-04-03T14:29:31.59Z</time></trkpt><trkpt lat="44.30924219091028" lon="11.640719743059796"><ele>72.0</ele><time>2026-04-03T14:29:32.59Z</time></trkpt><trkpt lat="44.30938874163122" lon="11.640954586160305"><ele>70.0</ele><time>2026-04-03T14:29:33.59Z</time></trkpt><trkpt lat="44.30953888395713" lon="11.64120768583282"><ele>68.0</ele><time>2026-04-03T14:29:34.59Z</time></trkpt><trkpt lat="44.30969561060803" lon="11.641475533711157"><ele>69.0</ele><time>2026-04-03T14:29:35.59Z</time></trkpt><trkpt lat="44.309851521987966" lon="11.641734264561832"><ele>70.0</ele><time>2026-04-03T14:29:36.59Z</time></trkpt><trkpt lat="44.310006465887895" lon="11.641987684354083"><ele>70.0</ele><time>2026-04-03T14:29:37.59Z</time></trkpt><trkpt lat="44.31015878920315" lon="11.642228800675271"><ele>70.0</ele><time>2026-04-03T14:29:38.59Z</time></trkpt><trkpt lat="44.31030810669961" lon="11.642469419340557"><ele>70.0</ele><time>2026-04-03T14:29:39.59Z</time></trkpt><trkpt lat="44.31045402302958" lon="11.642704281044026"><ele>70.0</ele><time>2026-04-03T14:29:40.59Z</time></trkpt><trkpt lat="44.310597703252206" lon="11.642936047080196"><ele>70.0</ele><time>2026-04-03T14:29:41.59Z</time></trkpt><trkpt lat="44.31073864121206" lon="11.643167702167705"><ele>70.66666666666666</ele><time>2026-04-03T14:29:42.59Z</time></trkpt><trkpt lat="44.310873286435836" lon="11.643403947119582"><ele>71.33333333333333</ele><time>2026-04-03T14:29:43.59Z</time></trkpt><trkpt lat="44.31101128156621" lon="11.643638355095804"><ele>72.0</ele><time>2026-04-03T14:29:44.59Z</time></trkpt><trkpt lat="44.31115090588517" lon="11.643871623235169"><ele>72.0</ele><time>2026-04-03T14:29:45.59Z</time></trkpt><trkpt lat="44.31128853176606" lon="11.644092319296087"><ele>72.0</ele><time>2026-04-03T14:29:46.59Z</time></trkpt><trkpt lat="44.311421644729485" lon="11.64430452666268"><ele>72.0</ele><time>2026-04-03T14:29:47.59Z</time></trkpt><trkpt lat="44.31155218652991" lon="11.644515131107513"><ele>72.0</ele><time>2026-04-03T14:29:48.59Z</time></trkpt><trkpt lat="44.31167664180073" lon="11.644714624309703"><ele>72.0</ele><time>2026-04-03T14:29:49.589Z</time></trkpt><trkpt lat="44.31179684009614" lon="11.644906199097742"><ele>72.0</ele><time>2026-04-03T14:29:50.589Z</time></trkpt><trkpt lat="44.31191548077188" lon="11.645097453097955"><ele>72.0</ele><time>2026-04-03T14:29:51.589Z</time></trkpt><trkpt lat="44.312028910411996" lon="11.645288230198325"><ele>72.0</ele><time>2026-04-03T14:29:52.589Z</time></trkpt><trkpt lat="44.312139593217246" lon="11.645474108513183"><ele>72.0</ele><time>2026-04-03T14:29:53.589Z</time></trkpt><trkpt lat="44.31224600970133" lon="11.645663364687753"><ele>71.66666666666667</ele><time>2026-04-03T14:29:54.589Z</time></trkpt><trkpt lat="44.31235272031683" lon="11.645851602499555"><ele>71.33333333333334</ele><time>2026-04-03T14:29:55.589Z</time></trkpt><trkpt lat="44.312457960128846" lon="11.646037898098447"><ele>71.0</ele><time>2026-04-03T14:29:56.589Z</time></trkpt><trkpt lat="44.312563653226206" lon="11.646219189190871"><ele>71.0</ele><time>2026-04-03T14:29:57.589Z</time></trkpt><trkpt lat="44.31266339698374" lon="11.646398116748594"><ele>71.0</ele><time>2026-04-03T14:29:58.589Z</time></trkpt><trkpt lat="44.31276549967922" lon="11.646575600623754"><ele>71.0</ele><time>2026-04-03T14:29:59.589Z</time></trkpt><trkpt lat="44.312866794125654" lon="11.64675043380179"><ele>71.0</ele><time>2026-04-03T14:30:00.589Z</time></trkpt><trkpt lat="44.31297406006355" lon="11.6469145049082"><ele>71.0</ele><time>2026-04-03T14:30:01.589Z</time></trkpt><trkpt lat="44.313109137770965" lon="11.647053748374383"><ele>71.0</ele><time>2026-04-03T14:30:02.589Z</time></trkpt><trkpt lat="44.313256640775364" lon="11.647178529979831"><ele>71.0</ele><time>2026-04-03T14:30:03.589Z</time></trkpt><trkpt lat="44.31340322829235" lon="11.647299032966417"><ele>71.0</ele><time>2026-04-03T14:30:04.589Z</time></trkpt><trkpt lat="44.31355848605987" lon="11.647405805490852"><ele>71.0</ele><time>2026-04-03T14:30:05.589Z</time></trkpt><trkpt lat="44.313693582831725" lon="11.647507730841927"><ele>71.0</ele><time>2026-04-03T14:30:06.589Z</time></trkpt><trkpt lat="44.313819227655145" lon="11.647613437081503"><ele>71.0</ele><time>2026-04-03T14:30:07.589Z</time></trkpt><trkpt lat="44.31394977758445" lon="11.647711266934698"><ele>71.0</ele><time>2026-04-03T14:30:08.589Z</time></trkpt><trkpt lat="44.31407789844744" lon="11.64781220168025"><ele>71.0</ele><time>2026-04-03T14:30:09.589Z</time></trkpt><trkpt lat="44.31420373211932" lon="11.64790345197051"><ele>72.0</ele><time>2026-04-03T14:30:10.589Z</time></trkpt><trkpt lat="44.31432897004993" lon="11.64799564343143"><ele>73.0</ele><time>2026-04-03T14:30:11.589Z</time></trkpt><trkpt lat="44.31445642084681" lon="11.648087710968715"><ele>74.0</ele><time>2026-04-03T14:30:12.589Z</time></trkpt><trkpt lat="44.3145865652169" lon="11.648180341068532"><ele>75.0</ele><time>2026-04-03T14:30:13.589Z</time></trkpt><trkpt lat="44.31471194838147" lon="11.648274826426535"><ele>75.25</ele><time>2026-04-03T14:30:14.589Z</time></trkpt><trkpt lat="44.31483298897489" lon="11.648364011610665"><ele>75.5</ele><time>2026-04-03T14:30:15.589Z</time></trkpt><trkpt lat="44.314947717754805" lon="11.648447675391582"><ele>75.75</ele><time>2026-04-03T14:30:16.589Z</time></trkpt><trkpt lat="44.31505925936989" lon="11.648536521444393"><ele>76.0</ele><time>2026-04-03T14:30:17.589Z</time></trkpt><trkpt lat="44.315167000586456" lon="11.648617502025076"><ele>75.75</ele><time>2026-04-03T14:30:18.589Z</time></trkpt><trkpt lat="44.31527127911631" lon="11.648696885563087"><ele>75.5</ele><time>2026-04-03T14:30:19.589Z</time></trkpt><trkpt lat="44.31537177118842" lon="11.64877241799655"><ele>75.25</ele><time>2026-04-03T14:30:20.589Z</time></trkpt><trkpt lat="44.31547601660541" lon="11.648848823397591"><ele>75.0</ele><time>2026-04-03T14:30:21.589Z</time></trkpt><trkpt lat="44.31557833266496" lon="11.648929610873658"><ele>75.75</ele><time>2026-04-03T14:30:22.589Z</time></trkpt><trkpt lat="44.31567894309038" lon="11.64900744394113"><ele>76.5</ele><time>2026-04-03T14:30:23.589Z</time></trkpt><trkpt lat="44.31578357075504" lon="11.649088758414644"><ele>77.25</ele><time>2026-04-03T14:30:24.589Z</time></trkpt><trkpt lat="44.31589474805471" lon="11.649173399257089"><ele>78.0</ele><time>2026-04-03T14:30:25.589Z</time></trkpt><trkpt lat="44.3160008549181" lon="11.649255732278132"><ele>78.0</ele><time>2026-04-03T14:30:26.589Z</time></trkpt><trkpt lat="44.316109485260306" lon="11.649337981817228"><ele>78.0</ele><time>2026-04-03T14:30:27.589Z</time></trkpt><trkpt lat="44.31621801794036" lon="11.649418461352521"><ele>78.0</ele><time>2026-04-03T14:30:28.589Z</time></trkpt><trkpt lat="44.31633297816624" lon="11.649495110594085"><ele>78.0</ele><time>2026-04-03T14:30:29.589Z</time></trkpt><trkpt lat="44.316449725311394" lon="11.649576497845635"><ele>77.25</ele><time>2026-04-03T14:30:30.589Z</time></trkpt><trkpt lat="44.31656853946961" lon="11.649665144262025"><ele>76.5</ele><time>2026-04-03T14:30:31.589Z</time></trkpt><trkpt lat="44.31668332780706" lon="11.649759925242673"><ele>75.75</ele><time>2026-04-03T14:30:32.589Z</time></trkpt><trkpt lat="44.31680202970443" lon="11.649849193893196"><ele>75.0</ele><time>2026-04-03T14:30:33.589Z</time></trkpt><trkpt lat="44.31692536495872" lon="11.649942483679416"><ele>75.0</ele><time>2026-04-03T14:30:34.589Z</time></trkpt><trkpt lat="44.31705167615275" lon="11.650039642476496"><ele>75.0</ele><time>2026-04-03T14:30:35.589Z</time></trkpt><trkpt lat="44.31717646015672" lon="11.650138457294018"><ele>75.0</ele><time>2026-04-03T14:30:36.589Z</time></trkpt><trkpt lat="44.3173037774626" lon="11.650241853610112"><ele>75.0</ele><time>2026-04-03T14:30:37.589Z</time></trkpt><trkpt lat="44.31743499264639" lon="11.650349246246527"><ele>73.33333333333333</ele><time>2026-04-03T14:30:38.589Z</time></trkpt><trkpt lat="44.317568093624935" lon="11.650458800178741"><ele>71.66666666666666</ele><time>2026-04-03T14:30:39.589Z</time></trkpt><trkpt lat="44.31770551974852" lon="11.650571027471903"><ele>70.0</ele><time>2026-04-03T14:30:40.589Z</time></trkpt><trkpt lat="44.31784219959176" lon="11.650674547188405"><ele>70.0</ele><time>2026-04-03T14:30:41.589Z</time></trkpt><trkpt lat="44.31797163948798" lon="11.650769203805122"><ele>70.0</ele><time>2026-04-03T14:30:42.589Z</time></trkpt><trkpt lat="44.318092825723646" lon="11.650861966130874"><ele>70.0</ele><time>2026-04-03T14:30:43.589Z</time></trkpt><trkpt lat="44.31822257233163" lon="11.650953984045193"><ele>70.0</ele><time>2026-04-03T14:30:44.589Z</time></trkpt><trkpt lat="44.318354326056415" lon="11.651048936666713"><ele>71.66666666666666</ele><time>2026-04-03T14:30:45.589Z</time></trkpt><trkpt lat="44.318499643750336" lon="11.651143354406448"><ele>73.33333333333333</ele><time>2026-04-03T14:30:46.589Z</time></trkpt><trkpt lat="44.31864468451914" lon="11.651237372332686"><ele>75.0</ele><time>2026-04-03T14:30:47.589Z</time></trkpt><trkpt lat="44.31877770863668" lon="11.651321219299279"><ele>75.0</ele><time>2026-04-03T14:30:48.589Z</time></trkpt><trkpt lat="44.31889974725991" lon="11.651415046952414"><ele>75.0</ele><time>2026-04-03T14:30:49.589Z</time></trkpt><trkpt lat="44.31900909229672" lon="11.651515088958822"><ele>75.0</ele><time>2026-04-03T14:30:50.589Z</time></trkpt><trkpt lat="44.31912193033509" lon="11.651615490072436"><ele>75.0</ele><time>2026-04-03T14:30:51.589Z</time></trkpt><trkpt lat="44.31922959385896" lon="11.651712169647134"><ele>75.5</ele><time>2026-04-03T14:30:52.587Z</time></trkpt><trkpt lat="44.31934914445217" lon="11.651809380322975"><ele>76.0</ele><time>2026-04-03T14:30:53.587Z</time></trkpt><trkpt lat="44.319467247638485" lon="11.651902761593416"><ele>76.5</ele><time>2026-04-03T14:30:54.587Z</time></trkpt><trkpt lat="44.31958614807959" lon="11.65199782212271"><ele>77.0</ele><time>2026-04-03T14:30:55.587Z</time></trkpt><trkpt lat="44.31969594515438" lon="11.652086560518098"><ele>77.75</ele><time>2026-04-03T14:30:56.587Z</time></trkpt><trkpt lat="44.3198018191969" lon="11.652173770784534"><ele>78.5</ele><time>2026-04-03T14:30:57.587Z</time></trkpt><trkpt lat="44.319906704610986" lon="11.652261017854107"><ele>79.25</ele><time>2026-04-03T14:30:58.587Z</time></trkpt><trkpt lat="44.32000519602927" lon="11.652339990040973"><ele>80.0</ele><time>2026-04-03T14:30:59.586Z</time></trkpt><trkpt lat="44.320104602205326" lon="11.652421867420625"><ele>80.0</ele><time>2026-04-03T14:31:00.586Z</time></trkpt><trkpt lat="44.32020668596726" lon="11.652504207212683"><ele>80.0</ele><time>2026-04-03T14:31:01.586Z</time></trkpt><trkpt lat="44.32030720363785" lon="11.652570526512335"><ele>80.0</ele><time>2026-04-03T14:31:02.587Z</time></trkpt><trkpt lat="44.32040416790835" lon="11.652641774447448"><ele>80.0</ele><time>2026-04-03T14:31:03.587Z</time></trkpt><trkpt lat="44.32050444037137" lon="11.652715952523307"><ele>80.0</ele><time>2026-04-03T14:31:04.587Z</time></trkpt><trkpt lat="44.32060136523318" lon="11.652791184619023"><ele>80.0</ele><time>2026-04-03T14:31:05.587Z</time></trkpt><trkpt lat="44.32069795141877" lon="11.652869467450795"><ele>80.0</ele><time>2026-04-03T14:31:06.587Z</time></trkpt><trkpt lat="44.32080053176114" lon="11.652948442014923"><ele>80.0</ele><time>2026-04-03T14:31:07.587Z</time></trkpt><trkpt lat="44.32090392115248" lon="11.653027089929052"><ele>80.0</ele><time>2026-04-03T14:31:08.587Z</time></trkpt><trkpt lat="44.32101112871038" lon="11.653108331048406"><ele>80.0</ele><time>2026-04-03T14:31:09.587Z</time></trkpt><trkpt lat="44.32111711309008" lon="11.653197902019542"><ele>80.0</ele><time>2026-04-03T14:31:10.587Z</time></trkpt><trkpt lat="44.32122434095451" lon="11.65329626609841"><ele>80.0</ele><time>2026-04-03T14:31:11.587Z</time></trkpt><trkpt lat="44.32133448979063" lon="11.65339895430509"><ele>79.75</ele><time>2026-04-03T14:31:12.587Z</time></trkpt><trkpt lat="44.32144463139283" lon="11.653508756956025"><ele>79.5</ele><time>2026-04-03T14:31:13.587Z</time></trkpt><trkpt lat="44.32154987078133" lon="11.653617383748596"><ele>79.25</ele><time>2026-04-03T14:31:14.587Z</time></trkpt><trkpt lat="44.3216533218871" lon="11.653719300088477"><ele>79.0</ele><time>2026-04-03T14:31:15.587Z</time></trkpt><trkpt lat="44.32174746709462" lon="11.653810834086112"><ele>79.0</ele><time>2026-04-03T14:31:16.587Z</time></trkpt><trkpt lat="44.32184889201599" lon="11.6538985564878"><ele>79.0</ele><time>2026-04-03T14:31:17.587Z</time></trkpt><trkpt lat="44.32194864733848" lon="11.65399038107534"><ele>79.0</ele><time>2026-04-03T14:31:18.587Z</time></trkpt><trkpt lat="44.32204663982796" lon="11.654083939150675"><ele>79.0</ele><time>2026-04-03T14:31:19.587Z</time></trkpt><trkpt lat="44.322132174844654" lon="11.654177950664907"><ele>79.0</ele><time>2026-04-03T14:31:20.587Z</time></trkpt><trkpt lat="44.322217636781964" lon="11.654280830920273"><ele>79.0</ele><time>2026-04-03T14:31:21.587Z</time></trkpt><trkpt lat="44.32229995331278" lon="11.654392377416219"><ele>79.0</ele><time>2026-04-03T14:31:22.587Z</time></trkpt><trkpt lat="44.32238266134936" lon="11.654508733611573"><ele>79.0</ele><time>2026-04-03T14:31:23.587Z</time></trkpt><trkpt lat="44.32246312699318" lon="11.654631905896412"><ele>78.75</ele><time>2026-04-03T14:31:24.587Z</time></trkpt><trkpt lat="44.322541902517926" lon="11.654754126537885"><ele>78.5</ele><time>2026-04-03T14:31:25.587Z</time></trkpt><trkpt lat="44.3226221341683" lon="11.65488189893738"><ele>78.25</ele><time>2026-04-03T14:31:26.587Z</time></trkpt><trkpt lat="44.322705806309806" lon="11.655016231042133"><ele>78.0</ele><time>2026-04-03T14:31:27.587Z</time></trkpt><trkpt lat="44.32279574382844" lon="11.655171660256304"><ele>78.33333333333333</ele><time>2026-04-03T14:31:28.587Z</time></trkpt><trkpt lat="44.32289071068827" lon="11.655344638694354"><ele>78.66666666666666</ele><time>2026-04-03T14:31:29.587Z</time></trkpt><trkpt lat="44.322989876453754" lon="11.655524935538017"><ele>79.0</ele><time>2026-04-03T14:31:30.587Z</time></trkpt><trkpt lat="44.323089291577375" lon="11.655713957211145"><ele>79.0</ele><time>2026-04-03T14:31:31.587Z</time></trkpt><trkpt lat="44.323182986297" lon="11.655904050457202"><ele>79.0</ele><time>2026-04-03T14:31:32.587Z</time></trkpt><trkpt lat="44.32326389605437" lon="11.65608121894512"><ele>79.0</ele><time>2026-04-03T14:31:33.587Z</time></trkpt><trkpt lat="44.323345294865895" lon="11.656254194373336"><ele>77.75</ele><time>2026-04-03T14:31:34.587Z</time></trkpt><trkpt lat="44.32342888760867" lon="11.656417353597458"><ele>76.5</ele><time>2026-04-03T14:31:35.587Z</time></trkpt><trkpt lat="44.32351662946651" lon="11.656587148972156"><ele>75.25</ele><time>2026-04-03T14:31:36.587Z</time></trkpt><trkpt lat="44.323598712395366" lon="11.656747491104811"><ele>74.0</ele><time>2026-04-03T14:31:37.587Z</time></trkpt><trkpt lat="44.323677959838946" lon="11.656907653725371"><ele>74.0</ele><time>2026-04-03T14:31:38.587Z</time></trkpt><trkpt lat="44.323757072143394" lon="11.657056480376564"><ele>74.0</ele><time>2026-04-03T14:31:39.587Z</time></trkpt><trkpt lat="44.323830531667774" lon="11.657193679681136"><ele>74.0</ele><time>2026-04-03T14:31:40.587Z</time></trkpt><trkpt lat="44.323902059326066" lon="11.657330499917657"><ele>74.0</ele><time>2026-04-03T14:31:41.587Z</time></trkpt><trkpt lat="44.323973828027455" lon="11.657467836718629"><ele>74.75</ele><time>2026-04-03T14:31:42.587Z</time></trkpt><trkpt lat="44.32404377252528" lon="11.657613152561886"><ele>75.5</ele><time>2026-04-03T14:31:43.587Z</time></trkpt><trkpt lat="44.324117615917594" lon="11.65775880260547"><ele>76.25</ele><time>2026-04-03T14:31:44.587Z</time></trkpt><trkpt lat="44.32419516141394" lon="11.657895242412831"><ele>77.0</ele><time>2026-04-03T14:31:45.587Z</time></trkpt><trkpt lat="44.324257479671516" lon="11.65803120013832"><ele>77.0</ele><time>2026-04-03T14:31:46.587Z</time></trkpt><trkpt lat="44.32431584341178" lon="11.658166134191829"><ele>77.0</ele><time>2026-04-03T14:31:47.587Z</time></trkpt><trkpt lat="44.3243629319046" lon="11.6582929673136"><ele>77.0</ele><time>2026-04-03T14:31:48.587Z</time></trkpt><trkpt lat="44.32440326529814" lon="11.658419116359408"><ele>77.0</ele><time>2026-04-03T14:31:49.587Z</time></trkpt><trkpt lat="44.32444033319075" lon="11.658538842120624"><ele>77.0</ele><time>2026-04-03T14:31:50.587Z</time></trkpt><trkpt lat="44.32447759570186" lon="11.658657607233296"><ele>76.8</ele><time>2026-04-03T14:31:51.587Z</time></trkpt><trkpt lat="44.324511166903825" lon="11.65878054319267"><ele>76.6</ele><time>2026-04-03T14:31:52.587Z</time></trkpt><trkpt lat="44.324546601694735" lon="11.65890164725536"><ele>76.39999999999999</ele><time>2026-04-03T14:31:53.587Z</time></trkpt><trkpt lat="44.324580302883376" lon="11.65902333315124"><ele>76.2</ele><time>2026-04-03T14:31:54.587Z</time></trkpt><trkpt lat="44.32461880553585" lon="11.65915455070892"><ele>76.0</ele><time>2026-04-03T14:31:55.587Z</time></trkpt><trkpt lat="44.32466287365293" lon="11.659293005303576"><ele>76.0</ele><time>2026-04-03T14:31:56.587Z</time></trkpt><trkpt lat="44.32470943614301" lon="11.659438270203939"><ele>76.0</ele><time>2026-04-03T14:31:57.587Z</time></trkpt><trkpt lat="44.32476910138818" lon="11.65961199121362"><ele>76.0</ele><time>2026-04-03T14:31:58.587Z</time></trkpt><trkpt lat="44.3248281522645" lon="11.659801290092616"><ele>76.0</ele><time>2026-04-03T14:31:59.587Z</time></trkpt><trkpt lat="44.32488404399316" lon="11.660011854304164"><ele>76.0</ele><time>2026-04-03T14:32:00.587Z</time></trkpt><trkpt lat="44.32494153800289" lon="11.660222373087494"><ele>76.0</ele><time>2026-04-03T14:32:01.587Z</time></trkpt><trkpt lat="44.32499775504647" lon="11.660428340677576"><ele>76.0</ele><time>2026-04-03T14:32:02.587Z</time></trkpt><trkpt lat="44.32505618794744" lon="11.66063281865409"><ele>74.66666666666666</ele><time>2026-04-03T14:32:03.587Z</time></trkpt><trkpt lat="44.32512453477653" lon="11.660839420616309"><ele>73.33333333333333</ele><time>2026-04-03T14:32:04.587Z</time></trkpt><trkpt lat="44.32520410462186" lon="11.661035968047944"><ele>72.0</ele><time>2026-04-03T14:32:05.587Z</time></trkpt><trkpt lat="44.32529004810327" lon="11.661217428081013"><ele>71.66666666666667</ele><time>2026-04-03T14:32:06.587Z</time></trkpt><trkpt lat="44.325385805270926" lon="11.661387280699463"><ele>71.33333333333334</ele><time>2026-04-03T14:32:07.587Z</time></trkpt><trkpt lat="44.32548965574515" lon="11.661550433314193"><ele>71.0</ele><time>2026-04-03T14:32:08.587Z</time></trkpt><trkpt lat="44.325603179996335" lon="11.661701510765242"><ele>71.33333333333334</ele><time>2026-04-03T14:32:09.587Z</time></trkpt><trkpt lat="44.32572125049243" lon="11.661846940731973"><ele>71.66666666666667</ele><time>2026-04-03T14:32:10.587Z</time></trkpt><trkpt lat="44.32583612194967" lon="11.661987347164205"><ele>72.0</ele><time>2026-04-03T14:32:11.587Z</time></trkpt><trkpt lat="44.32595100933177" lon="11.662129284622216"><ele>72.0</ele><time>2026-04-03T14:32:12.587Z</time></trkpt><trkpt lat="44.3260691675469" lon="11.662268809202041"><ele>72.0</ele><time>2026-04-03T14:32:13.587Z</time></trkpt><trkpt lat="44.32619643676743" lon="11.662412907432298"><ele>72.0</ele><time>2026-04-03T14:32:14.587Z</time></trkpt><trkpt lat="44.326313349217266" lon="11.662558242765853"><ele>72.0</ele><time>2026-04-03T14:32:15.587Z</time></trkpt><trkpt lat="44.32642434162087" lon="11.662710920361418"><ele>72.0</ele><time>2026-04-03T14:32:16.587Z</time></trkpt><trkpt lat="44.326530463490975" lon="11.662874158804406"><ele>72.0</ele><time>2026-04-03T14:32:17.587Z</time></trkpt><trkpt lat="44.326631438155324" lon="11.663048792285977"><ele>72.0</ele><time>2026-04-03T14:32:18.587Z</time></trkpt><trkpt lat="44.32672557683952" lon="11.66322560340598"><ele>72.0</ele><time>2026-04-03T14:32:19.586Z</time></trkpt><trkpt lat="44.3268086835266" lon="11.663407178481345"><ele>72.0</ele><time>2026-04-03T14:32:20.586Z</time></trkpt><trkpt lat="44.32688936541874" lon="11.66359156654237"><ele>71.0</ele><time>2026-04-03T14:32:21.586Z</time></trkpt><trkpt lat="44.326969461477894" lon="11.663777423457795"><ele>70.0</ele><time>2026-04-03T14:32:22.586Z</time></trkpt><trkpt lat="44.327050813271256" lon="11.663968054549805"><ele>69.0</ele><time>2026-04-03T14:32:23.586Z</time></trkpt><trkpt lat="44.327132886290244" lon="11.664161816938897"><ele>69.0</ele><time>2026-04-03T14:32:24.586Z</time></trkpt><trkpt lat="44.32721889534242" lon="11.664355732943587"><ele>69.0</ele><time>2026-04-03T14:32:25.586Z</time></trkpt><trkpt lat="44.32730676336396" lon="11.664544995876636"><ele>69.0</ele><time>2026-04-03T14:32:26.586Z</time></trkpt><trkpt lat="44.327389603016854" lon="11.664730204326183"><ele>70.0</ele><time>2026-04-03T14:32:27.586Z</time></trkpt><trkpt lat="44.32747469093037" lon="11.664913117315063"><ele>71.0</ele><time>2026-04-03T14:32:28.586Z</time></trkpt><trkpt lat="44.32756240772386" lon="11.665096932250862"><ele>72.0</ele><time>2026-04-03T14:32:29.586Z</time></trkpt><trkpt lat="44.32764962568894" lon="11.665278909794903"><ele>71.33333333333333</ele><time>2026-04-03T14:32:30.586Z</time></trkpt><trkpt lat="44.32773529090523" lon="11.665456119262592"><ele>70.66666666666666</ele><time>2026-04-03T14:32:31.586Z</time></trkpt><trkpt lat="44.32782802608798" lon="11.665627583158246"><ele>70.0</ele><time>2026-04-03T14:32:32.586Z</time></trkpt><trkpt lat="44.32792553160571" lon="11.665794870437441"><ele>70.0</ele><time>2026-04-03T14:32:33.586Z</time></trkpt><trkpt lat="44.32802601561934" lon="11.665961969090116"><ele>70.0</ele><time>2026-04-03T14:32:34.586Z</time></trkpt><trkpt lat="44.328131060494826" lon="11.66612669347732"><ele>70.0</ele><time>2026-04-03T14:32:35.586Z</time></trkpt><trkpt lat="44.32824185118836" lon="11.66628918034098"><ele>69.66666666666666</ele><time>2026-04-03T14:32:36.586Z</time></trkpt><trkpt lat="44.32835448254807" lon="11.666453535730893"><ele>69.33333333333333</ele><time>2026-04-03T14:32:37.586Z</time></trkpt><trkpt lat="44.328470684286664" lon="11.666613170944611"><ele>69.0</ele><time>2026-04-03T14:32:38.586Z</time></trkpt><trkpt lat="44.32858493622753" lon="11.666770065476621"><ele>69.0</ele><time>2026-04-03T14:32:39.586Z</time></trkpt><trkpt lat="44.32869330887777" lon="11.666940971187271"><ele>69.0</ele><time>2026-04-03T14:32:40.586Z</time></trkpt><trkpt lat="44.32879504460572" lon="11.667121288775848"><ele>69.0</ele><time>2026-04-03T14:32:41.586Z</time></trkpt><trkpt lat="44.328896434400946" lon="11.667306992731161"><ele>69.0</ele><time>2026-04-03T14:32:42.586Z</time></trkpt><trkpt lat="44.32898516495449" lon="11.667506327056449"><ele>69.0</ele><time>2026-04-03T14:32:43.586Z</time></trkpt><trkpt lat="44.32906036458257" lon="11.667711781174406"><ele>69.0</ele><time>2026-04-03T14:32:44.586Z</time></trkpt><trkpt lat="44.329145436393794" lon="11.667914553931485"><ele>69.0</ele><time>2026-04-03T14:32:45.586Z</time></trkpt><trkpt lat="44.32923517148811" lon="11.668124381294957"><ele>69.0</ele><time>2026-04-03T14:32:46.586Z</time></trkpt><trkpt lat="44.329315010455" lon="11.66833228289388"><ele>69.0</ele><time>2026-04-03T14:32:47.586Z</time></trkpt><trkpt lat="44.32940684465328" lon="11.668544746078949"><ele>69.0</ele><time>2026-04-03T14:32:48.586Z</time></trkpt><trkpt lat="44.32950628794263" lon="11.668775822761187"><ele>69.0</ele><time>2026-04-03T14:32:49.586Z</time></trkpt><trkpt lat="44.32960863710272" lon="11.669027191874719"><ele>69.0</ele><time>2026-04-03T14:32:50.586Z</time></trkpt><trkpt lat="44.32971110403619" lon="11.669298534056956"><ele>69.0</ele><time>2026-04-03T14:32:51.586Z</time></trkpt><trkpt lat="44.32980842972077" lon="11.669587804373007"><ele>69.0</ele><time>2026-04-03T14:32:52.586Z</time></trkpt><trkpt lat="44.329918533537544" lon="11.669871033492571"><ele>69.0</ele><time>2026-04-03T14:32:53.586Z</time></trkpt><trkpt lat="44.330030021514084" lon="11.67014689397742"><ele>69.0</ele><time>2026-04-03T14:32:54.586Z</time></trkpt><trkpt lat="44.330146507190705" lon="11.670424099784155"><ele>69.5</ele><time>2026-04-03T14:32:55.586Z</time></trkpt><trkpt lat="44.33026539550117" lon="11.670697148736052"><ele>70.0</ele><time>2026-04-03T14:32:56.586Z</time></trkpt><trkpt lat="44.330386987437976" lon="11.670975847201607"><ele>69.0</ele><time>2026-04-03T14:32:57.586Z</time></trkpt><trkpt lat="44.33051412627246" lon="11.671251410012609"><ele>68.0</ele><time>2026-04-03T14:32:58.583Z</time></trkpt><trkpt lat="44.33065165790936" lon="11.671519476004768"><ele>68.0</ele><time>2026-04-03T14:32:59.583Z</time></trkpt><trkpt lat="44.330790135506625" lon="11.671786349355072"><ele>68.0</ele><time>2026-04-03T14:33:00.583Z</time></trkpt><trkpt lat="44.330931826690566" lon="11.672045190789442"><ele>68.0</ele><time>2026-04-03T14:33:01.583Z</time></trkpt><trkpt lat="44.331077655094674" lon="11.672299526396031"><ele>68.0</ele><time>2026-04-03T14:33:02.583Z</time></trkpt><trkpt lat="44.33122997009649" lon="11.672539508326675"><ele>68.0</ele><time>2026-04-03T14:33:03.583Z</time></trkpt><trkpt lat="44.331392311103116" lon="11.67276879980865"><ele>68.0</ele><time>2026-04-03T14:33:04.583Z</time></trkpt><trkpt lat="44.33156338733995" lon="11.673003546819631"><ele>67.0</ele><time>2026-04-03T14:33:05.583Z</time></trkpt><trkpt lat="44.331733586071486" lon="11.673238807890096"><ele>66.0</ele><time>2026-04-03T14:33:06.583Z</time></trkpt><trkpt lat="44.331910927012416" lon="11.673482476374152"><ele>66.0</ele><time>2026-04-03T14:33:07.583Z</time></trkpt><trkpt lat="44.33208340337314" lon="11.67372275072158"><ele>66.0</ele><time>2026-04-03T14:33:08.583Z</time></trkpt><trkpt lat="44.332256423257206" lon="11.673970342187776"><ele>66.0</ele><time>2026-04-03T14:33:09.583Z</time></trkpt><trkpt lat="44.332429268088475" lon="11.67421759895678"><ele>66.0</ele><time>2026-04-03T14:33:10.583Z</time></trkpt><trkpt lat="44.33260334467571" lon="11.674465412419458"><ele>64.0</ele><time>2026-04-03T14:33:11.583Z</time></trkpt><trkpt lat="44.332774578432414" lon="11.674718295606349"><ele>62.0</ele><time>2026-04-03T14:33:12.583Z</time></trkpt><trkpt lat="44.33293929144214" lon="11.674975905849974"><ele>62.0</ele><time>2026-04-03T14:33:13.583Z</time></trkpt><trkpt lat="44.333100565653254" lon="11.675231379263423"><ele>62.0</ele><time>2026-04-03T14:33:14.583Z</time></trkpt><trkpt lat="44.33325799791697" lon="11.675481798153555"><ele>62.0</ele><time>2026-04-03T14:33:15.583Z</time></trkpt><trkpt lat="44.33341521676199" lon="11.675739337978968"><ele>62.0</ele><time>2026-04-03T14:33:16.583Z</time></trkpt><trkpt lat="44.33355950087406" lon="11.676014226368842"><ele>61.5</ele><time>2026-04-03T14:33:17.583Z</time></trkpt><trkpt lat="44.33369241130849" lon="11.676305509681677"><ele>61.0</ele><time>2026-04-03T14:33:18.583Z</time></trkpt><trkpt lat="44.3338131132273" lon="11.676600780017294"><ele>65.0</ele><time>2026-04-03T14:33:19.583Z</time></trkpt><trkpt lat="44.33392018967358" lon="11.676904632449027"><ele>69.0</ele><time>2026-04-03T14:33:20.583Z</time></trkpt><trkpt lat="44.33400649691703" lon="11.677209505569135"><ele>69.0</ele><time>2026-04-03T14:33:21.583Z</time></trkpt><trkpt lat="44.33409328954624" lon="11.677514289128334"><ele>69.0</ele><time>2026-04-03T14:33:22.583Z</time></trkpt><trkpt lat="44.33417747007983" lon="11.677809308543619"><ele>66.5</ele><time>2026-04-03T14:33:23.583Z</time></trkpt><trkpt lat="44.33426867901445" lon="11.67810419115909"><ele>64.0</ele><time>2026-04-03T14:33:24.583Z</time></trkpt><trkpt lat="44.33436124318572" lon="11.67841014638232"><ele>64.0</ele><time>2026-04-03T14:33:25.583Z</time></trkpt><trkpt lat="44.334452847514804" lon="11.67871672661596"><ele>64.0</ele><time>2026-04-03T14:33:26.583Z</time></trkpt><trkpt lat="44.33454494857206" lon="11.679026794868616"><ele>64.0</ele><time>2026-04-03T14:33:27.583Z</time></trkpt><trkpt lat="44.33463686679129" lon="11.679339626425586"><ele>64.0</ele><time>2026-04-03T14:33:28.583Z</time></trkpt><trkpt lat="44.334730138539356" lon="11.67964772527777"><ele>62.5</ele><time>2026-04-03T14:33:29.583Z</time></trkpt><trkpt lat="44.33482139051039" lon="11.679955340108418"><ele>61.0</ele><time>2026-04-03T14:33:30.583Z</time></trkpt><trkpt lat="44.33491349645644" lon="11.680260350015201"><ele>60.5</ele><time>2026-04-03T14:33:31.583Z</time></trkpt><trkpt lat="44.33502024779687" lon="11.68055120483729"><ele>60.0</ele><time>2026-04-03T14:33:32.583Z</time></trkpt><trkpt lat="44.33513858463198" lon="11.680820278199677"><ele>60.0</ele><time>2026-04-03T14:33:33.583Z</time></trkpt><trkpt lat="44.33526749365128" lon="11.681061666368606"><ele>60.0</ele><time>2026-04-03T14:33:34.583Z</time></trkpt><trkpt lat="44.33540389520953" lon="11.681302722796385"><ele>60.0</ele><time>2026-04-03T14:33:35.583Z</time></trkpt><trkpt lat="44.33554499248661" lon="11.681536759723597"><ele>60.66666666666667</ele><time>2026-04-03T14:33:36.583Z</time></trkpt><trkpt lat="44.33569523890992" lon="11.681756709676195"><ele>61.333333333333336</ele><time>2026-04-03T14:33:37.583Z</time></trkpt><trkpt lat="44.335856274782785" lon="11.681965569715233"><ele>62.0</ele><time>2026-04-03T14:33:38.583Z</time></trkpt><trkpt lat="44.336028939343095" lon="11.682159572665672"><ele>61.66666666666667</ele><time>2026-04-03T14:33:39.583Z</time></trkpt><trkpt lat="44.336211677956975" lon="11.682341650218026"><ele>61.33333333333333</ele><time>2026-04-03T14:33:40.583Z</time></trkpt><trkpt lat="44.33638974831315" lon="11.682509206732329"><ele>61.0</ele><time>2026-04-03T14:33:41.583Z</time></trkpt><trkpt lat="44.33656503720871" lon="11.682667240128326"><ele>61.0</ele><time>2026-04-03T14:33:42.583Z</time></trkpt><trkpt lat="44.33673022805915" lon="11.682810945595667"><ele>61.0</ele><time>2026-04-03T14:33:43.583Z</time></trkpt><trkpt lat="44.33688311232562" lon="11.682947574036682"><ele>61.0</ele><time>2026-04-03T14:33:44.583Z</time></trkpt><trkpt lat="44.33702505033011" lon="11.683072065507407"><ele>61.0</ele><time>2026-04-03T14:33:45.583Z</time></trkpt><trkpt lat="44.33716061148951" lon="11.683185256923547"><ele>61.0</ele><time>2026-04-03T14:33:46.583Z</time></trkpt><trkpt lat="44.33730189611983" lon="11.683293277279011"><ele>61.0</ele><time>2026-04-03T14:33:47.583Z</time></trkpt><trkpt lat="44.33744672091264" lon="11.683405799583875"><ele>60.0</ele><time>2026-04-03T14:33:48.583Z</time></trkpt><trkpt lat="44.337585439938266" lon="11.683516883919184"><ele>59.0</ele><time>2026-04-03T14:33:49.583Z</time></trkpt><trkpt lat="44.337723187491584" lon="11.68362949920219"><ele>58.0</ele><time>2026-04-03T14:33:50.583Z</time></trkpt><trkpt lat="44.33786198145239" lon="11.683741252052661"><ele>58.0</ele><time>2026-04-03T14:33:51.583Z</time></trkpt><trkpt lat="44.33799681222507" lon="11.683848910437868"><ele>58.0</ele><time>2026-04-03T14:33:52.583Z</time></trkpt><trkpt lat="44.338124721648015" lon="11.683949946194833"><ele>58.0</ele><time>2026-04-03T14:33:53.583Z</time></trkpt><trkpt lat="44.338242614227994" lon="11.684045405927145"><ele>58.0</ele><time>2026-04-03T14:33:54.583Z</time></trkpt><trkpt lat="44.33836006120844" lon="11.684133841262367"><ele>58.25</ele><time>2026-04-03T14:33:55.583Z</time></trkpt><trkpt lat="44.33848496467883" lon="11.684224086836261"><ele>58.5</ele><time>2026-04-03T14:33:56.583Z</time></trkpt><trkpt lat="44.33861098192207" lon="11.68432173257236"><ele>58.75</ele><time>2026-04-03T14:33:57.583Z</time></trkpt><trkpt lat="44.33874609005774" lon="11.684429889776768"><ele>59.0</ele><time>2026-04-03T14:33:58.583Z</time></trkpt><trkpt lat="44.33888054342517" lon="11.684541926873186"><ele>58.5</ele><time>2026-04-03T14:33:59.583Z</time></trkpt><trkpt lat="44.339008137711915" lon="11.684646457994596"><ele>58.0</ele><time>2026-04-03T14:34:00.583Z</time></trkpt><trkpt lat="44.33913511974305" lon="11.684744834046786"><ele>57.5</ele><time>2026-04-03T14:34:01.583Z</time></trkpt><trkpt lat="44.33926387667796" lon="11.684852695459904"><ele>57.0</ele><time>2026-04-03T14:34:02.583Z</time></trkpt><trkpt lat="44.33938607739795" lon="11.6849567973516"><ele>57.0</ele><time>2026-04-03T14:34:03.583Z</time></trkpt><trkpt lat="44.339502803893716" lon="11.685053598201776"><ele>57.0</ele><time>2026-04-03T14:34:04.583Z</time></trkpt><trkpt lat="44.33961644280785" lon="11.68515177171136"><ele>57.0</ele><time>2026-04-03T14:34:05.583Z</time></trkpt><trkpt lat="44.339725244730786" lon="11.685245611875388"><ele>57.0</ele><time>2026-04-03T14:34:06.583Z</time></trkpt><trkpt lat="44.33983641110407" lon="11.685345034724685"><ele>57.25</ele><time>2026-04-03T14:34:07.583Z</time></trkpt><trkpt lat="44.33994742948535" lon="11.685441524013218"><ele>57.5</ele><time>2026-04-03T14:34:08.583Z</time></trkpt><trkpt lat="44.34005565787711" lon="11.685540820801606"><ele>57.75</ele><time>2026-04-03T14:34:09.583Z</time></trkpt><trkpt lat="44.3401621936943" lon="11.685648783188475"><ele>58.0</ele><time>2026-04-03T14:34:10.583Z</time></trkpt><trkpt lat="44.340265349847286" lon="11.685748293392347"><ele>58.0</ele><time>2026-04-03T14:34:11.583Z</time></trkpt><trkpt lat="44.34037244118136" lon="11.685859619325823"><ele>58.0</ele><time>2026-04-03T14:34:12.583Z</time></trkpt><trkpt lat="44.340483632090674" lon="11.685981668981595"><ele>58.0</ele><time>2026-04-03T14:34:13.583Z</time></trkpt><trkpt lat="44.340594132592024" lon="11.68611403094976"><ele>58.0</ele><time>2026-04-03T14:34:14.583Z</time></trkpt><trkpt lat="44.34069938338794" lon="11.686245643379797"><ele>58.25</ele><time>2026-04-03T14:34:15.583Z</time></trkpt><trkpt lat="44.340795645404604" lon="11.68636980523377"><ele>58.5</ele><time>2026-04-03T14:34:16.583Z</time></trkpt><trkpt lat="44.34088806650702" lon="11.686494276942453"><ele>58.75</ele><time>2026-04-03T14:34:17.583Z</time></trkpt><trkpt lat="44.34097859819082" lon="11.686623884246046"><ele>59.0</ele><time>2026-04-03T14:34:18.583Z</time></trkpt><trkpt lat="44.3410696882395" lon="11.686743661184346"><ele>59.0</ele><time>2026-04-03T14:34:19.583Z</time></trkpt><trkpt lat="44.341160558981485" lon="11.686858552090778"><ele>59.00000000000001</ele><time>2026-04-03T14:34:20.583Z</time></trkpt><trkpt lat="44.34124240230715" lon="11.686965684169017"><ele>59.00000000000001</ele><time>2026-04-03T14:34:21.583Z</time></trkpt><trkpt lat="44.3413184198081" lon="11.687064096120121"><ele>59.0</ele><time>2026-04-03T14:34:22.583Z</time></trkpt><trkpt lat="44.3413932465812" lon="11.687142219149894"><ele>59.0</ele><time>2026-04-03T14:34:23.583Z</time></trkpt><trkpt lat="44.341469811940755" lon="11.687193223343815"><ele>59.0</ele><time>2026-04-03T14:34:24.583Z</time></trkpt><trkpt lat="44.34154561718583" lon="11.687220496806534"><ele>59.00000000000001</ele><time>2026-04-03T14:34:25.583Z</time></trkpt><trkpt lat="44.341653299260955" lon="11.68724589429296"><ele>59.00000000000001</ele><time>2026-04-03T14:34:27.583Z</time></trkpt><trkpt lat="44.341739090795976" lon="11.68727456702314"><ele>59.0</ele><time>2026-04-03T14:34:29.583Z</time></trkpt><trkpt lat="44.34182321549127" lon="11.687340448448248"><ele>59.0</ele><time>2026-04-03T14:34:32.583Z</time></trkpt><trkpt lat="44.34187391612718" lon="11.68745436124618"><ele>59.00000000000001</ele><time>2026-04-03T14:34:34.583Z</time></trkpt><trkpt lat="44.341885085663726" lon="11.687544703225473"><ele>59.0</ele><time>2026-04-03T14:34:35.583Z</time></trkpt><trkpt lat="44.34189658230911" lon="11.687652407428029"><ele>59.0</ele><time>2026-04-03T14:34:36.583Z</time></trkpt><trkpt lat="44.341928964039354" lon="11.687769655574334"><ele>59.0</ele><time>2026-04-03T14:34:37.583Z</time></trkpt><trkpt lat="44.341977550203424" lon="11.687864414222451"><ele>59.00000000000001</ele><time>2026-04-03T14:34:38.583Z</time></trkpt><trkpt lat="44.34203830444428" lon="11.687962472654622"><ele>59.0</ele><time>2026-04-03T14:34:39.583Z</time></trkpt><trkpt lat="44.34211139238046" lon="11.688069014579787"><ele>58.800000000000004</ele><time>2026-04-03T14:34:40.583Z</time></trkpt><trkpt lat="44.34218737944887" lon="11.688190050992302"><ele>58.60000000000001</ele><time>2026-04-03T14:34:41.583Z</time></trkpt><trkpt lat="44.34226365482052" lon="11.688307598960385"><ele>58.4</ele><time>2026-04-03T14:34:42.583Z</time></trkpt><trkpt lat="44.34233771312439" lon="11.688412722917263"><ele>58.2</ele><time>2026-04-03T14:34:43.583Z</time></trkpt><trkpt lat="44.34241110561732" lon="11.688509966014417"><ele>58.0</ele><time>2026-04-03T14:34:44.583Z</time></trkpt><trkpt lat="44.342480460445614" lon="11.688608701853909"><ele>57.599999999999994</ele><time>2026-04-03T14:34:45.583Z</time></trkpt><trkpt lat="44.34255167696921" lon="11.688708202581743"><ele>57.199999999999996</ele><time>2026-04-03T14:34:46.583Z</time></trkpt><trkpt lat="44.342626978218675" lon="11.688808434704653"><ele>56.8</ele><time>2026-04-03T14:34:47.583Z</time></trkpt><trkpt lat="44.34270309174441" lon="11.688913358410511"><ele>56.4</ele><time>2026-04-03T14:34:48.583Z</time></trkpt><trkpt lat="44.342773878589604" lon="11.689022731359366"><ele>56.0</ele><time>2026-04-03T14:34:49.583Z</time></trkpt><trkpt lat="44.342852448368504" lon="11.689135471971738"><ele>56.0</ele><time>2026-04-03T14:34:50.583Z</time></trkpt><trkpt lat="44.34293259139415" lon="11.689252116425722"><ele>56.0</ele><time>2026-04-03T14:34:51.583Z</time></trkpt><trkpt lat="44.343017160559654" lon="11.689369551958205"><ele>56.0</ele><time>2026-04-03T14:34:52.583Z</time></trkpt><trkpt lat="44.34310008660224" lon="11.689487191621117"><ele>56.0</ele><time>2026-04-03T14:34:53.583Z</time></trkpt><trkpt lat="44.343182094311125" lon="11.689605631122033"><ele>55.75</ele><time>2026-04-03T14:34:54.583Z</time></trkpt><trkpt lat="44.34326713335249" lon="11.689729527907797"><ele>55.5</ele><time>2026-04-03T14:34:55.583Z</time></trkpt><trkpt lat="44.34335490893952" lon="11.689855364804002"><ele>55.25</ele><time>2026-04-03T14:34:56.583Z</time></trkpt><trkpt lat="44.34344268493247" lon="11.689973486477708"><ele>55.0</ele><time>2026-04-03T14:34:57.583Z</time></trkpt><trkpt lat="44.3435277794687" lon="11.69009168306655"><ele>55.0</ele><time>2026-04-03T14:34:58.583Z</time></trkpt><trkpt lat="44.343617190615866" lon="11.690214394600519"><ele>55.0</ele><time>2026-04-03T14:34:59.583Z</time></trkpt><trkpt lat="44.34370550804134" lon="11.690342377344793"><ele>55.0</ele><time>2026-04-03T14:35:00.583Z</time></trkpt><trkpt lat="44.34379971053679" lon="11.690473834727793"><ele>55.0</ele><time>2026-04-03T14:35:01.583Z</time></trkpt><trkpt lat="44.343891930932706" lon="11.690600917099605"><ele>54.75</ele><time>2026-04-03T14:35:02.583Z</time></trkpt><trkpt lat="44.34398172257071" lon="11.69072659179071"><ele>54.5</ele><time>2026-04-03T14:35:03.583Z</time></trkpt><trkpt lat="44.34407499417691" lon="11.690860897258585"><ele>54.25</ele><time>2026-04-03T14:35:04.578Z</time></trkpt><trkpt lat="44.34417177467646" lon="11.690990376887292"><ele>54.0</ele><time>2026-04-03T14:35:05.579Z</time></trkpt><trkpt lat="44.34426662287451" lon="11.691118075952538"><ele>53.75</ele><time>2026-04-03T14:35:06.579Z</time></trkpt><trkpt lat="44.34435874716264" lon="11.691250373170297"><ele>53.5</ele><time>2026-04-03T14:35:07.578Z</time></trkpt><trkpt lat="44.344453669860066" lon="11.691382465751902"><ele>53.25</ele><time>2026-04-03T14:35:08.579Z</time></trkpt><trkpt lat="44.34454764652138" lon="11.691510114197804"><ele>53.0</ele><time>2026-04-03T14:35:09.579Z</time></trkpt><trkpt lat="44.3446370698519" lon="11.691626188058107"><ele>53.25</ele><time>2026-04-03T14:35:10.579Z</time></trkpt><trkpt lat="44.34471672390788" lon="11.691745878915984"><ele>53.5</ele><time>2026-04-03T14:35:11.579Z</time></trkpt><trkpt lat="44.34479426846677" lon="11.691868534181676"><ele>53.75</ele><time>2026-04-03T14:35:12.579Z</time></trkpt><trkpt lat="44.3448673605979" lon="11.69199301438621"><ele>54.0</ele><time>2026-04-03T14:35:13.578Z</time></trkpt><trkpt lat="44.344932435329355" lon="11.692142512809955"><ele>54.0</ele><time>2026-04-03T14:35:14.578Z</time></trkpt><trkpt lat="44.34500554653658" lon="11.692287257019792"><ele>54.0</ele><time>2026-04-03T14:35:15.578Z</time></trkpt><trkpt lat="44.34507671610685" lon="11.692442497116062"><ele>54.0</ele><time>2026-04-03T14:35:16.578Z</time></trkpt><trkpt lat="44.34513809534177" lon="11.692594663508965"><ele>54.0</ele><time>2026-04-03T14:35:17.578Z</time></trkpt><trkpt lat="44.345198533425105" lon="11.692742151444982"><ele>54.25</ele><time>2026-04-03T14:35:18.578Z</time></trkpt><trkpt lat="44.345257819910124" lon="11.692893435932534"><ele>54.5</ele><time>2026-04-03T14:35:19.578Z</time></trkpt><trkpt lat="44.345305832794985" lon="11.693046212480438"><ele>54.75</ele><time>2026-04-03T14:35:20.578Z</time></trkpt><trkpt lat="44.34535568888927" lon="11.693194426437511"><ele>55.0</ele><time>2026-04-03T14:35:21.578Z</time></trkpt><trkpt lat="44.34540061463862" lon="11.693336887175946"><ele>55.0</ele><time>2026-04-03T14:35:22.578Z</time></trkpt><trkpt lat="44.34544102681699" lon="11.69348902510857"><ele>55.0</ele><time>2026-04-03T14:35:23.578Z</time></trkpt><trkpt lat="44.34547934406757" lon="11.69363188960334"><ele>55.0</ele><time>2026-04-03T14:35:24.578Z</time></trkpt><trkpt lat="44.3455072868974" lon="11.693764562334438"><ele>55.0</ele><time>2026-04-03T14:35:25.578Z</time></trkpt><trkpt lat="44.345535475158165" lon="11.693891509719593"><ele>55.0</ele><time>2026-04-03T14:35:26.578Z</time></trkpt><trkpt lat="44.34556583906287" lon="11.694021493842955"><ele>54.99999999999999</ele><time>2026-04-03T14:35:27.578Z</time></trkpt><trkpt lat="44.34559638848814" lon="11.694143883116588"><ele>55.0</ele><time>2026-04-03T14:35:28.578Z</time></trkpt><trkpt lat="44.34562095653924" lon="11.694259901587992"><ele>55.0</ele><time>2026-04-03T14:35:29.578Z</time></trkpt><trkpt lat="44.34564197364554" lon="11.694369459987863"><ele>55.0</ele><time>2026-04-03T14:35:30.578Z</time></trkpt><trkpt lat="44.34567240267007" lon="11.694473241624722"><ele>54.99999999999999</ele><time>2026-04-03T14:35:31.578Z</time></trkpt><trkpt lat="44.34569850050539" lon="11.694578537306375"><ele>55.0</ele><time>2026-04-03T14:35:32.578Z</time></trkpt><trkpt lat="44.34572539772423" lon="11.694684812367003"><ele>54.666666666666664</ele><time>2026-04-03T14:35:33.578Z</time></trkpt><trkpt lat="44.34576002235763" lon="11.694789124327336"><ele>54.33333333333333</ele><time>2026-04-03T14:35:34.578Z</time></trkpt><trkpt lat="44.34579651067189" lon="11.69488689585837"><ele>54.0</ele><time>2026-04-03T14:35:35.578Z</time></trkpt><trkpt lat="44.3458353867197" lon="11.694983440780895"><ele>53.66666666666667</ele><time>2026-04-03T14:35:36.578Z</time></trkpt><trkpt lat="44.34587945060758" lon="11.695082159979348"><ele>53.333333333333336</ele><time>2026-04-03T14:35:37.578Z</time></trkpt><trkpt lat="44.34593155695192" lon="11.695186604310535"><ele>53.0</ele><time>2026-04-03T14:35:38.578Z</time></trkpt><trkpt lat="44.34598945930681" lon="11.695286594502422"><ele>52.4</ele><time>2026-04-03T14:35:39.578Z</time></trkpt><trkpt lat="44.34605127745545" lon="11.695375584756247"><ele>51.8</ele><time>2026-04-03T14:35:40.578Z</time></trkpt><trkpt lat="44.346119869494196" lon="11.695457960171241"><ele>51.2</ele><time>2026-04-03T14:35:41.578Z</time></trkpt><trkpt lat="44.34619311556991" lon="11.695542432501133"><ele>50.6</ele><time>2026-04-03T14:35:42.578Z</time></trkpt><trkpt lat="44.346274643446534" lon="11.695630127230583"><ele>50.0</ele><time>2026-04-03T14:35:43.578Z</time></trkpt><trkpt lat="44.346358559685285" lon="11.695706877572068"><ele>50.50000000000001</ele><time>2026-04-03T14:35:44.578Z</time></trkpt><trkpt lat="44.34643217981765" lon="11.695774430929518"><ele>51.0</ele><time>2026-04-03T14:35:45.578Z</time></trkpt><trkpt lat="44.346499327363496" lon="11.695835079586166"><ele>51.5</ele><time>2026-04-03T14:35:46.578Z</time></trkpt><trkpt lat="44.34656200176424" lon="11.695894310101574"><ele>52.0</ele><time>2026-04-03T14:35:47.578Z</time></trkpt><trkpt lat="44.34662460075474" lon="11.695951192345046"><ele>52.50000000000001</ele><time>2026-04-03T14:35:48.578Z</time></trkpt><trkpt lat="44.34669710222867" lon="11.696012303820178"><ele>53.0</ele><time>2026-04-03T14:35:49.578Z</time></trkpt><trkpt lat="44.346767246174" lon="11.696067045014624"><ele>52.50000000000001</ele><time>2026-04-03T14:35:50.578Z</time></trkpt><trkpt lat="44.34682909291394" lon="11.69611631643547"><ele>52.0</ele><time>2026-04-03T14:35:51.578Z</time></trkpt><trkpt lat="44.34688870117569" lon="11.696167458553"><ele>51.5</ele><time>2026-04-03T14:35:52.578Z</time></trkpt><trkpt lat="44.346942265893524" lon="11.6962141747214"><ele>51.0</ele><time>2026-04-03T14:35:53.578Z</time></trkpt><trkpt lat="44.347006442422966" lon="11.696269361494975"><ele>50.50000000000001</ele><time>2026-04-03T14:35:54.578Z</time></trkpt><trkpt lat="44.34707534727224" lon="11.696330829559335"><ele>50.0</ele><time>2026-04-03T14:35:55.578Z</time></trkpt><trkpt lat="44.34715053478166" lon="11.696398380303199"><ele>50.4</ele><time>2026-04-03T14:35:56.578Z</time></trkpt><trkpt lat="44.34723105128736" lon="11.696472928122212"><ele>50.8</ele><time>2026-04-03T14:35:57.578Z</time></trkpt><trkpt lat="44.347319456808606" lon="11.696545248369274"><ele>51.2</ele><time>2026-04-03T14:35:58.578Z</time></trkpt><trkpt lat="44.34741052706654" lon="11.696620800688335"><ele>51.6</ele><time>2026-04-03T14:35:59.578Z</time></trkpt><trkpt lat="44.34750410862002" lon="11.696693684751631"><ele>52.0</ele><time>2026-04-03T14:36:00.578Z</time></trkpt><trkpt lat="44.34759751201927" lon="11.696765256473654"><ele>52.0</ele><time>2026-04-03T14:36:01.578Z</time></trkpt><trkpt lat="44.34768611465915" lon="11.696845310011737"><ele>52.0</ele><time>2026-04-03T14:36:02.578Z</time></trkpt><trkpt lat="44.34777423403642" lon="11.696925040477572"><ele>52.0</ele><time>2026-04-03T14:36:03.578Z</time></trkpt><trkpt lat="44.34786280750724" lon="11.697006486060221"><ele>52.0</ele><time>2026-04-03T14:36:04.578Z</time></trkpt><trkpt lat="44.3479216970631" lon="11.697064276144907"><ele>52.0</ele><time>2026-04-03T14:36:05.578Z</time></trkpt><trkpt lat="44.347984934914486" lon="11.697122079282575"><ele>52.0</ele><time>2026-04-03T14:36:06.578Z</time></trkpt><trkpt lat="44.348069033187784" lon="11.697194723131418"><ele>52.0</ele><time>2026-04-03T14:36:07.578Z</time></trkpt><trkpt lat="44.34816820874282" lon="11.697285024653533"><ele>52.0</ele><time>2026-04-03T14:36:08.578Z</time></trkpt><trkpt lat="44.348300525860495" lon="11.697403615774546"><ele>52.0</ele><time>2026-04-03T14:36:09.578Z</time></trkpt><trkpt lat="44.34844999276377" lon="11.697527739944144"><ele>52.0</ele><time>2026-04-03T14:36:10.578Z</time></trkpt><trkpt lat="44.348602759818206" lon="11.697658211420443"><ele>52.0</ele><time>2026-04-03T14:36:11.578Z</time></trkpt><trkpt lat="44.34876595495312" lon="11.697801741091236"><ele>52.0</ele><time>2026-04-03T14:36:12.578Z</time></trkpt><trkpt lat="44.34893441534041" lon="11.697950514410204"><ele>52.33333333333333</ele><time>2026-04-03T14:36:13.578Z</time></trkpt><trkpt lat="44.34908743442947" lon="11.698081896602492"><ele>52.66666666666667</ele><time>2026-04-03T14:36:14.578Z</time></trkpt><trkpt lat="44.34922891925198" lon="11.698211205850408"><ele>53.0</ele><time>2026-04-03T14:36:15.578Z</time></trkpt><trkpt lat="44.349357988281035" lon="11.698337061623736"><ele>53.0</ele><time>2026-04-03T14:36:16.578Z</time></trkpt><trkpt lat="44.349482445330466" lon="11.698450168490657"><ele>53.0</ele><time>2026-04-03T14:36:17.578Z</time></trkpt><trkpt lat="44.34959521794362" lon="11.698561039325474"><ele>53.0</ele><time>2026-04-03T14:36:18.578Z</time></trkpt><trkpt lat="44.34970448430521" lon="11.69865938816915"><ele>53.0</ele><time>2026-04-03T14:36:19.578Z</time></trkpt><trkpt lat="44.34980238705909" lon="11.698756231386781"><ele>52.4</ele><time>2026-04-03T14:36:20.578Z</time></trkpt><trkpt lat="44.34989027459079" lon="11.69885123399994"><ele>51.8</ele><time>2026-04-03T14:36:21.578Z</time></trkpt><trkpt lat="44.34995705868509" lon="11.69895701527212"><ele>51.2</ele><time>2026-04-03T14:36:22.578Z</time></trkpt><trkpt lat="44.35000711953253" lon="11.699080737876713"><ele>50.6</ele><time>2026-04-03T14:36:23.578Z</time></trkpt><trkpt lat="44.35004772894535" lon="11.69921538362228"><ele>50.0</ele><time>2026-04-03T14:36:24.578Z</time></trkpt><trkpt lat="44.350072012348" lon="11.69935114906876"><ele>49.833333333333336</ele><time>2026-04-03T14:36:25.578Z</time></trkpt><trkpt lat="44.35008916615094" lon="11.699484062423792"><ele>49.66666666666667</ele><time>2026-04-03T14:36:26.578Z</time></trkpt><trkpt lat="44.350104739482234" lon="11.699605430663041"><ele>49.5</ele><time>2026-04-03T14:36:27.578Z</time></trkpt><trkpt lat="44.35013525339757" lon="11.699709663759068"><ele>49.33333333333333</ele><time>2026-04-03T14:36:28.578Z</time></trkpt><trkpt lat="44.350181532857086" lon="11.699782921485463"><ele>49.166666666666664</ele><time>2026-04-03T14:36:29.578Z</time></trkpt><trkpt lat="44.35023987133792" lon="11.699835611287979"><ele>49.0</ele><time>2026-04-03T14:36:30.578Z</time></trkpt><trkpt lat="44.35031715382738" lon="11.69987212801079"><ele>48.99999999999999</ele><time>2026-04-03T14:36:31.578Z</time></trkpt><trkpt lat="44.35039361913581" lon="11.69988021322124"><ele>49.0</ele><time>2026-04-03T14:36:32.578Z</time></trkpt><trkpt lat="44.35046246070338" lon="11.699878507974109"><ele>49.0</ele><time>2026-04-03T14:36:33.578Z</time></trkpt><trkpt lat="44.35053087525195" lon="11.699893946620092"><ele>49.0</ele><time>2026-04-03T14:36:34.578Z</time></trkpt><trkpt lat="44.35060616169219" lon="11.699943457558307"><ele>48.99999999999999</ele><time>2026-04-03T14:36:35.578Z</time></trkpt><trkpt lat="44.35068006131544" lon="11.70002327316989"><ele>49.0</ele><time>2026-04-03T14:36:36.578Z</time></trkpt><trkpt lat="44.350751484832855" lon="11.700126782221558"><ele>49.25</ele><time>2026-04-03T14:36:37.578Z</time></trkpt><trkpt lat="44.350822624736566" lon="11.700232995883615"><ele>49.5</ele><time>2026-04-03T14:36:38.578Z</time></trkpt><trkpt lat="44.35089753365983" lon="11.7003388990034"><ele>49.75</ele><time>2026-04-03T14:36:39.578Z</time></trkpt><trkpt lat="44.350986424346544" lon="11.700449093775653"><ele>50.0</ele><time>2026-04-03T14:36:40.578Z</time></trkpt><trkpt lat="44.351091175333664" lon="11.700580504091366"><ele>50.0</ele><time>2026-04-03T14:36:41.578Z</time></trkpt><trkpt lat="44.35120195294804" lon="11.700726055922713"><ele>50.0</ele><time>2026-04-03T14:36:42.578Z</time></trkpt><trkpt lat="44.351321984839345" lon="11.700879883743049"><ele>50.0</ele><time>2026-04-03T14:36:43.578Z</time></trkpt><trkpt lat="44.351437792423305" lon="11.701015965340462"><ele>50.25</ele><time>2026-04-03T14:36:44.578Z</time></trkpt><trkpt lat="44.351557588009" lon="11.701135717743773"><ele>50.5</ele><time>2026-04-03T14:36:45.578Z</time></trkpt><trkpt lat="44.35168521494666" lon="11.701254996411205"><ele>50.75</ele><time>2026-04-03T14:36:46.578Z</time></trkpt><trkpt lat="44.35181440189989" lon="11.701354738648305"><ele>51.0</ele><time>2026-04-03T14:36:47.578Z</time></trkpt><trkpt lat="44.35193655762608" lon="11.701440680230032"><ele>51.0</ele><time>2026-04-03T14:36:48.578Z</time></trkpt><trkpt lat="44.35205139617267" lon="11.70152907660935"><ele>51.0</ele><time>2026-04-03T14:36:49.578Z</time></trkpt><trkpt lat="44.352164839481055" lon="11.701614631386612"><ele>51.0</ele><time>2026-04-03T14:36:50.578Z</time></trkpt><trkpt lat="44.35227625704524" lon="11.701694072216599"><ele>51.0</ele><time>2026-04-03T14:36:51.578Z</time></trkpt><trkpt lat="44.352372843847334" lon="11.701767923398846"><ele>50.8</ele><time>2026-04-03T14:36:52.578Z</time></trkpt><trkpt lat="44.352464373342734" lon="11.70184133395104"><ele>50.599999999999994</ele><time>2026-04-03T14:36:53.577Z</time></trkpt><trkpt lat="44.35255635630031" lon="11.701913397714284"><ele>50.4</ele><time>2026-04-03T14:36:54.577Z</time></trkpt><trkpt lat="44.35264346439216" lon="11.701978511160782"><ele>50.2</ele><time>2026-04-03T14:36:55.577Z</time></trkpt><trkpt lat="44.35271719612723" lon="11.70203096188921"><ele>50.0</ele><time>2026-04-03T14:36:56.577Z</time></trkpt><trkpt lat="44.35278958187225" lon="11.702077412761575"><ele>50.00000000000001</ele><time>2026-04-03T14:36:57.577Z</time></trkpt><trkpt lat="44.352857368666164" lon="11.702119168993427"><ele>50.0</ele><time>2026-04-03T14:36:58.577Z</time></trkpt><trkpt lat="44.352921618536904" lon="11.702162107198205"><ele>50.0</ele><time>2026-04-03T14:36:59.577Z</time></trkpt><trkpt lat="44.35298832861045" lon="11.70220641914061"><ele>50.0</ele><time>2026-04-03T14:37:00.577Z</time></trkpt><trkpt lat="44.35305327422828" lon="11.70225354850699"><ele>50.0</ele><time>2026-04-03T14:37:01.577Z</time></trkpt><trkpt lat="44.35311784859503" lon="11.702295671390694"><ele>50.00000000000001</ele><time>2026-04-03T14:37:02.577Z</time></trkpt><trkpt lat="44.35318124260554" lon="11.702342224146985"><ele>50.0</ele><time>2026-04-03T14:37:03.577Z</time></trkpt><trkpt lat="44.35325230399834" lon="11.702395291008703"><ele>50.0</ele><time>2026-04-03T14:37:04.577Z</time></trkpt><trkpt lat="44.353336130007264" lon="11.702458928522727"><ele>50.0</ele><time>2026-04-03T14:37:05.577Z</time></trkpt><trkpt lat="44.353444369761135" lon="11.702532284897451"><ele>50.0</ele><time>2026-04-03T14:37:06.577Z</time></trkpt><trkpt lat="44.35355966617466" lon="11.702624073927165"><ele>50.0</ele><time>2026-04-03T14:37:07.577Z</time></trkpt><trkpt lat="44.353664379732656" lon="11.70270950866537"><ele>49.8</ele><time>2026-04-03T14:37:08.577Z</time></trkpt><trkpt lat="44.35376813862982" lon="11.702788778025347"><ele>49.6</ele><time>2026-04-03T14:37:09.577Z</time></trkpt><trkpt lat="44.35385687094566" lon="11.702849209065764"><ele>49.400000000000006</ele><time>2026-04-03T14:37:10.573Z</time></trkpt><trkpt lat="44.353928739255274" lon="11.702895703246767"><ele>49.2</ele><time>2026-04-03T14:37:11.574Z</time></trkpt><trkpt lat="44.35401032871561" lon="11.702967831967461"><ele>49.0</ele><time>2026-04-03T14:37:13.573Z</time></trkpt><trkpt lat="44.35408108896199" lon="11.703008093102792"><ele>48.99999999999999</ele><time>2026-04-03T14:38:01.573Z</time></trkpt><trkpt lat="44.35414357695152" lon="11.703060359947745"><ele>49.0</ele><time>2026-04-03T14:38:03.573Z</time></trkpt><trkpt lat="44.35414116336775" lon="11.703184753914954"><ele>49.0</ele><time>2026-04-03T14:38:05.573Z</time></trkpt><trkpt lat="44.354091213445756" lon="11.703282831199806"><ele>49.0</ele><time>2026-04-03T14:38:06.573Z</time></trkpt><trkpt lat="44.35404992313862" lon="11.703377743798683"><ele>48.99999999999999</ele><time>2026-04-03T14:38:07.573Z</time></trkpt><trkpt lat="44.354002081379335" lon="11.70350108569051"><ele>49.0</ele><time>2026-04-03T14:38:08.573Z</time></trkpt><trkpt lat="44.35394826709353" lon="11.703656601090866"><ele>49.25</ele><time>2026-04-03T14:38:09.573Z</time></trkpt><trkpt lat="44.35388274095048" lon="11.703832702852843"><ele>49.5</ele><time>2026-04-03T14:38:10.573Z</time></trkpt><trkpt lat="44.35381134456187" lon="11.704021283177225"><ele>49.75</ele><time>2026-04-03T14:38:11.573Z</time></trkpt><trkpt lat="44.353738696630494" lon="11.70420947922175"><ele>50.0</ele><time>2026-04-03T14:38:12.573Z</time></trkpt><trkpt lat="44.35367142504824" lon="11.70438072499643"><ele>50.0</ele><time>2026-04-03T14:38:13.573Z</time></trkpt><trkpt lat="44.35360208094106" lon="11.704552929686669"><ele>50.0</ele><time>2026-04-03T14:38:14.573Z</time></trkpt><trkpt lat="44.35353696175556" lon="11.7047134506023"><ele>50.0</ele><time>2026-04-03T14:38:15.573Z</time></trkpt><trkpt lat="44.35348775811009" lon="11.704874265695237"><ele>50.0</ele><time>2026-04-03T14:38:16.573Z</time></trkpt><trkpt lat="44.35345955402365" lon="11.705045610851435"><ele>50.0</ele><time>2026-04-03T14:38:17.573Z</time></trkpt><trkpt lat="44.353443989862264" lon="11.70523162350437"><ele>50.0</ele><time>2026-04-03T14:38:18.573Z</time></trkpt><trkpt lat="44.35343005202565" lon="11.705412436265181"><ele>50.0</ele><time>2026-04-03T14:38:19.573Z</time></trkpt><trkpt lat="44.35341312099786" lon="11.705602916024612"><ele>50.0</ele><time>2026-04-03T14:38:20.573Z</time></trkpt><trkpt lat="44.35340474468739" lon="11.705790387873755"><ele>50.0</ele><time>2026-04-03T14:38:21.573Z</time></trkpt><trkpt lat="44.35338858737325" lon="11.705969648231424"><ele>50.0</ele><time>2026-04-03T14:38:22.573Z</time></trkpt><trkpt lat="44.353366235698886" lon="11.706165854667614"><ele>50.0</ele><time>2026-04-03T14:38:23.573Z</time></trkpt><trkpt lat="44.35333934558489" lon="11.706364925673876"><ele>50.0</ele><time>2026-04-03T14:38:24.573Z</time></trkpt><trkpt lat="44.35331848102327" lon="11.706550255908454"><ele>50.25</ele><time>2026-04-03T14:38:25.573Z</time></trkpt><trkpt lat="44.353297208165166" lon="11.7067448122408"><ele>50.5</ele><time>2026-04-03T14:38:26.573Z</time></trkpt><trkpt lat="44.35326857574931" lon="11.7069477067068"><ele>50.75</ele><time>2026-04-03T14:38:27.573Z</time></trkpt><trkpt lat="44.35324614114149" lon="11.707142586431482"><ele>51.0</ele><time>2026-04-03T14:38:28.573Z</time></trkpt><trkpt lat="44.353224856322456" lon="11.707338822430808"><ele>51.0</ele><time>2026-04-03T14:38:29.573Z</time></trkpt><trkpt lat="44.35319110173657" lon="11.707525138235665"><ele>51.0</ele><time>2026-04-03T14:38:30.573Z</time></trkpt><trkpt lat="44.35315195566761" lon="11.707712405990645"><ele>51.0</ele><time>2026-04-03T14:38:31.573Z</time></trkpt><trkpt lat="44.35310605987505" lon="11.707899086260436"><ele>51.0</ele><time>2026-04-03T14:38:32.573Z</time></trkpt><trkpt lat="44.35306180732101" lon="11.70807507592965"><ele>51.0</ele><time>2026-04-03T14:38:33.573Z</time></trkpt><trkpt lat="44.353014937008744" lon="11.708235375339926"><ele>51.0</ele><time>2026-04-03T14:38:34.573Z</time></trkpt><trkpt lat="44.352975409448746" lon="11.70839204548103"><ele>51.0</ele><time>2026-04-03T14:38:35.573Z</time></trkpt><trkpt lat="44.35293069778936" lon="11.708545084168097"><ele>51.0</ele><time>2026-04-03T14:38:36.573Z</time></trkpt><trkpt lat="44.35289122006773" lon="11.70867897157156"><ele>51.0</ele><time>2026-04-03T14:38:37.573Z</time></trkpt><trkpt lat="44.35286137018481" lon="11.708792203554125"><ele>51.0</ele><time>2026-04-03T14:38:38.573Z</time></trkpt><trkpt lat="44.35283544306934" lon="11.708893984317504"><ele>51.0</ele><time>2026-04-03T14:38:39.573Z</time></trkpt><trkpt lat="44.35280503742215" lon="11.708986663810638"><ele>51.0</ele><time>2026-04-03T14:38:40.573Z</time></trkpt><trkpt lat="44.35276500646928" lon="11.709125961911543"><ele>51.0</ele><time>2026-04-03T14:38:42.573Z</time></trkpt><trkpt lat="44.35274605128292" lon="11.709220132166168"><ele>51.0</ele><time>2026-04-03T14:38:44.573Z</time></trkpt><trkpt lat="44.35271046718593" lon="11.709327016447416"><ele>51.0</ele><time>2026-04-03T14:38:46.573Z</time></trkpt><trkpt lat="44.35268424699668" lon="11.709420271078196"><ele>51.0</ele><time>2026-04-03T14:38:48.573Z</time></trkpt><trkpt lat="44.35263823592769" lon="11.709542411849366"><ele>51.0</ele><time>2026-04-03T14:38:50.573Z</time></trkpt><trkpt lat="44.352594825651416" lon="11.709670181140755"><ele>51.0</ele><time>2026-04-03T14:38:52.573Z</time></trkpt><trkpt lat="44.35255645137731" lon="11.70976741131353"><ele>51.0</ele><time>2026-04-03T14:38:54.573Z</time></trkpt><trkpt lat="44.35253122455419" lon="11.709858325503914"><ele>51.0</ele><time>2026-04-03T14:38:56.573Z</time></trkpt><trkpt lat="44.35246893493518" lon="11.709918494086406"><ele>51.0</ele><time>2026-04-03T14:38:58.573Z</time></trkpt><trkpt lat="44.352403826050214" lon="11.709963053713391"><ele>51.0</ele><time>2026-04-03T14:39:00.573Z</time></trkpt><trkpt lat="44.35234464415914" lon="11.710022143331184"><ele>51.0</ele><time>2026-04-03T14:39:03.572Z</time></trkpt><trkpt lat="44.35229370439893" lon="11.710080527077599"><ele>51.0</ele><time>2026-04-03T14:39:06.572Z</time></trkpt><trkpt lat="44.3522046735122" lon="11.71011217515989"><ele>51.0</ele><time>2026-04-03T14:39:09.572Z</time></trkpt><trkpt lat="44.352111532954126" lon="11.71004409711502"><ele>51.0</ele><time>2026-04-03T14:39:11.572Z</time></trkpt><trkpt lat="44.352041941994834" lon="11.709999872255679"><ele>50.4</ele><time>2026-04-03T14:39:13.572Z</time></trkpt><trkpt lat="44.351966208995854" lon="11.70995994024857"><ele>49.8</ele><time>2026-04-03T14:39:15.572Z</time></trkpt><trkpt lat="44.351853867417915" lon="11.70989924095205"><ele>49.199999999999996</ele><time>2026-04-03T14:39:17.569Z</time></trkpt><trkpt lat="44.35178249271196" lon="11.709859042391061"><ele>48.599999999999994</ele><time>2026-04-03T14:39:18.568Z</time></trkpt><trkpt lat="44.351719397595645" lon="11.709821766845698"><ele>48.0</ele><time>2026-04-03T14:39:19.569Z</time></trkpt><trkpt lat="44.35160938467992" lon="11.709757719955663"><ele>48.0</ele><time>2026-04-03T14:39:21.569Z</time></trkpt><trkpt lat="44.35149840392214" lon="11.70972086958271"><ele>48.0</ele><time>2026-04-03T14:39:23.569Z</time></trkpt><trkpt lat="44.351411651795" lon="11.709782971789608"><ele>48.0</ele><time>2026-04-03T14:39:25.569Z</time></trkpt><trkpt lat="44.35135577424478" lon="11.709920227905336"><ele>48.0</ele><time>2026-04-03T14:39:27.569Z</time></trkpt><trkpt lat="44.351325207897055" lon="11.710017774889023"><ele>48.0</ele><time>2026-04-03T14:39:28.569Z</time></trkpt><trkpt lat="44.35129049388205" lon="11.710112451712197"><ele>47.833333333333336</ele><time>2026-04-03T14:39:29.568Z</time></trkpt><trkpt lat="44.35125845289015" lon="11.710199394695287"><ele>47.666666666666664</ele><time>2026-04-03T14:39:30.568Z</time></trkpt><trkpt lat="44.351220306877984" lon="11.710295992849463"><ele>47.5</ele><time>2026-04-03T14:39:32.568Z</time></trkpt><trkpt lat="44.351197442909815" lon="11.710382333113582"><ele>47.33333333333333</ele><time>2026-04-03T14:39:35.568Z</time></trkpt><trkpt lat="44.35118094347678" lon="11.710473278746294"><ele>47.166666666666664</ele><time>2026-04-03T14:39:37.568Z</time></trkpt><trkpt lat="44.35115826355358" lon="11.710629999525404"><ele>47.0</ele><time>2026-04-03T14:39:39.568Z</time></trkpt><trkpt lat="44.35117217632401" lon="11.710746188574621"><ele>46.8</ele><time>2026-04-03T14:39:40.568Z</time></trkpt><trkpt lat="44.35118957060358" lon="11.710877581405567"><ele>46.6</ele><time>2026-04-03T14:39:41.568Z</time></trkpt><trkpt lat="44.35120369692335" lon="11.711026197565824"><ele>46.4</ele><time>2026-04-03T14:39:42.568Z</time></trkpt><trkpt lat="44.351213752135344" lon="11.711172140992097"><ele>46.199999999999996</ele><time>2026-04-03T14:39:43.568Z</time></trkpt><trkpt lat="44.351215293232514" lon="11.711309716993467"><ele>46.0</ele><time>2026-04-03T14:39:44.568Z</time></trkpt><trkpt lat="44.35122259838966" lon="11.711435114844598"><ele>46.0</ele><time>2026-04-03T14:39:45.568Z</time></trkpt><trkpt lat="44.35122417328093" lon="11.711556905579767"><ele>46.0</ele><time>2026-04-03T14:39:46.568Z</time></trkpt><trkpt lat="44.351231416877965" lon="11.71168376851287"><ele>46.0</ele><time>2026-04-03T14:39:47.568Z</time></trkpt><trkpt lat="44.3512407823802" lon="11.71181876640027"><ele>46.0</ele><time>2026-04-03T14:39:48.568Z</time></trkpt><trkpt lat="44.35125496399397" lon="11.711956393456992"><ele>46.0</ele><time>2026-04-03T14:39:49.568Z</time></trkpt><trkpt lat="44.35126770591162" lon="11.71209085001555"><ele>46.16666666666667</ele><time>2026-04-03T14:39:50.568Z</time></trkpt><trkpt lat="44.351279272518816" lon="11.71221354080107"><ele>46.333333333333336</ele><time>2026-04-03T14:39:51.568Z</time></trkpt><trkpt lat="44.35128360953017" lon="11.712312790448715"><ele>46.5</ele><time>2026-04-03T14:39:52.568Z</time></trkpt><trkpt lat="44.351296627672006" lon="11.712457510015023"><ele>46.666666666666664</ele><time>2026-04-03T14:39:54.568Z</time></trkpt><trkpt lat="44.35133236829212" lon="11.712544555629329"><ele>46.83333333333333</ele><time>2026-04-03T14:40:05.568Z</time></trkpt><trkpt lat="44.351343050396075" lon="11.712689365849831"><ele>47.0</ele><time>2026-04-03T14:40:07.568Z</time></trkpt><trkpt lat="44.351344277271686" lon="11.712839580391693"><ele>47.25</ele><time>2026-04-03T14:40:08.568Z</time></trkpt><trkpt lat="44.35131098750405" lon="11.71300979243525"><ele>47.5</ele><time>2026-04-03T14:40:09.568Z</time></trkpt><trkpt lat="44.35126951800827" lon="11.713185558095587"><ele>47.75</ele><time>2026-04-03T14:40:10.568Z</time></trkpt><trkpt lat="44.351187006038145" lon="11.713357948626467"><ele>48.0</ele><time>2026-04-03T14:40:11.568Z</time></trkpt><trkpt lat="44.35109025939046" lon="11.713537447925596"><ele>48.0</ele><time>2026-04-03T14:40:12.568Z</time></trkpt><trkpt lat="44.3509967040024" lon="11.71372006710908"><ele>48.0</ele><time>2026-04-03T14:40:13.568Z</time></trkpt><trkpt lat="44.350905061115526" lon="11.713908942093608"><ele>48.0</ele><time>2026-04-03T14:40:14.568Z</time></trkpt><trkpt lat="44.35081181855661" lon="11.714095986409045"><ele>48.0</ele><time>2026-04-03T14:40:15.568Z</time></trkpt><trkpt lat="44.35072623579932" lon="11.714274099574897"><ele>48.0</ele><time>2026-04-03T14:40:16.568Z</time></trkpt><trkpt lat="44.35063836715983" lon="11.7144487310885"><ele>48.0</ele><time>2026-04-03T14:40:17.568Z</time></trkpt><trkpt lat="44.35054913478248" lon="11.714619789801839"><ele>47.25</ele><time>2026-04-03T14:40:18.568Z</time></trkpt><trkpt lat="44.35046919635965" lon="11.714778921996365"><ele>46.5</ele><time>2026-04-03T14:40:19.568Z</time></trkpt><trkpt lat="44.35039157970062" lon="11.71492606434321"><ele>45.75</ele><time>2026-04-03T14:40:20.568Z</time></trkpt><trkpt lat="44.350315922100854" lon="11.71506717347672"><ele>45.0</ele><time>2026-04-03T14:40:21.568Z</time></trkpt><trkpt lat="44.350260916908184" lon="11.715210941771698"><ele>45.166666666666664</ele><time>2026-04-03T14:40:22.568Z</time></trkpt><trkpt lat="44.350222678118705" lon="11.715321920295311"><ele>45.333333333333336</ele><time>2026-04-03T14:40:23.568Z</time></trkpt><trkpt lat="44.350182611100784" lon="11.715430156426295"><ele>45.5</ele><time>2026-04-03T14:40:25.568Z</time></trkpt><trkpt lat="44.35016212126686" lon="11.715565555972761"><ele>45.66666666666667</ele><time>2026-04-03T14:40:54.568Z</time></trkpt><trkpt lat="44.35014870280198" lon="11.715667124217678"><ele>45.833333333333336</ele><time>2026-04-03T14:40:55.568Z</time></trkpt><trkpt lat="44.35014460208795" lon="11.715780229118126"><ele>46.0</ele><time>2026-04-03T14:40:56.568Z</time></trkpt><trkpt lat="44.3501527667778" lon="11.715906790266107"><ele>46.0</ele><time>2026-04-03T14:40:57.568Z</time></trkpt><trkpt lat="44.350168020276584" lon="11.716042937032615"><ele>46.0</ele><time>2026-04-03T14:40:58.568Z</time></trkpt><trkpt lat="44.35018776874629" lon="11.716184556676309"><ele>46.0</ele><time>2026-04-03T14:40:59.568Z</time></trkpt><trkpt lat="44.350208461676054" lon="11.716338205087569"><ele>46.0</ele><time>2026-04-03T14:41:00.568Z</time></trkpt><trkpt lat="44.35023542408718" lon="11.716498047353198"><ele>46.0</ele><time>2026-04-03T14:41:01.568Z</time></trkpt><trkpt lat="44.35026362527616" lon="11.716663312079353"><ele>46.0</ele><time>2026-04-03T14:41:02.568Z</time></trkpt><trkpt lat="44.350295061177455" lon="11.716833307365667"><ele>46.0</ele><time>2026-04-03T14:41:03.568Z</time></trkpt><trkpt lat="44.35031442823369" lon="11.717016303457923"><ele>46.0</ele><time>2026-04-03T14:41:04.568Z</time></trkpt><trkpt lat="44.35032705602803" lon="11.717212321453967"><ele>46.0</ele><time>2026-04-03T14:41:05.568Z</time></trkpt><trkpt lat="44.35033565715821" lon="11.717423381922117"><ele>46.0</ele><time>2026-04-03T14:41:06.568Z</time></trkpt><trkpt lat="44.350346972640644" lon="11.717650373546924"><ele>46.0</ele><time>2026-04-03T14:41:07.568Z</time></trkpt><trkpt lat="44.350359897348895" lon="11.717860435143052"><ele>46.0</ele><time>2026-04-03T14:41:08.568Z</time></trkpt><trkpt lat="44.35036878483249" lon="11.718059409059602"><ele>46.0</ele><time>2026-04-03T14:41:09.568Z</time></trkpt><trkpt lat="44.35037619762215" lon="11.71824476932106"><ele>46.0</ele><time>2026-04-03T14:41:10.568Z</time></trkpt><trkpt lat="44.35037260967412" lon="11.718414852448802"><ele>46.0</ele><time>2026-04-03T14:41:11.568Z</time></trkpt><trkpt lat="44.35037058678998" lon="11.718570892518175"><ele>46.0</ele><time>2026-04-03T14:41:12.568Z</time></trkpt><trkpt lat="44.350366888498186" lon="11.71871566257595"><ele>46.0</ele><time>2026-04-03T14:41:13.568Z</time></trkpt><trkpt lat="44.35036280012408" lon="11.718858437191082"><ele>46.0</ele><time>2026-04-03T14:41:14.568Z</time></trkpt><trkpt lat="44.3503612387397" lon="11.719007999874474"><ele>46.0</ele><time>2026-04-03T14:41:15.568Z</time></trkpt><trkpt lat="44.350365912396" lon="11.719155436280737"><ele>46.0</ele><time>2026-04-03T14:41:16.568Z</time></trkpt><trkpt lat="44.35038690364076" lon="11.71929362507688"><ele>46.0</ele><time>2026-04-03T14:41:17.567Z</time></trkpt><trkpt lat="44.35042748405143" lon="11.719420360647694"><ele>46.0</ele><time>2026-04-03T14:41:18.567Z</time></trkpt><trkpt lat="44.35048945345241" lon="11.719523258870185"><ele>46.0</ele><time>2026-04-03T14:41:19.567Z</time></trkpt><trkpt lat="44.35057783967351" lon="11.719598417310241"><ele>46.0</ele><time>2026-04-03T14:41:20.567Z</time></trkpt><trkpt lat="44.350679727418" lon="11.71966668912001"><ele>46.0</ele><time>2026-04-03T14:41:21.567Z</time></trkpt><trkpt lat="44.350791650833436" lon="11.719736827721274"><ele>46.0</ele><time>2026-04-03T14:41:22.565Z</time></trkpt><trkpt lat="44.350904855946034" lon="11.719800267864846"><ele>46.0</ele><time>2026-04-03T14:41:23.564Z</time></trkpt><trkpt lat="44.35100344602043" lon="11.719858511226631"><ele>46.0</ele><time>2026-04-03T14:41:24.564Z</time></trkpt><trkpt lat="44.35109500689809" lon="11.719913364466043"><ele>46.0</ele><time>2026-04-03T14:41:25.565Z</time></trkpt><trkpt lat="44.351183965496" lon="11.719967506233958"><ele>46.0</ele><time>2026-04-03T14:41:26.565Z</time></trkpt><trkpt lat="44.35127233088187" lon="11.720016800598229"><ele>46.0</ele><time>2026-04-03T14:41:27.565Z</time></trkpt><trkpt lat="44.3513526139297" lon="11.720065036818376"><ele>46.0</ele><time>2026-04-03T14:41:28.564Z</time></trkpt><trkpt lat="44.35142305412087" lon="11.720112133572204"><ele>46.0</ele><time>2026-04-03T14:41:29.565Z</time></trkpt><trkpt lat="44.35148519656368" lon="11.72015938823563"><ele>46.0</ele><time>2026-04-03T14:41:30.565Z</time></trkpt><trkpt lat="44.35155620134736" lon="11.720293413894119"><ele>46.0</ele><time>2026-04-03T14:41:32.564Z</time></trkpt><trkpt lat="44.3515569601619" lon="11.720437900948719"><ele>46.0</ele><time>2026-04-03T14:41:34.564Z</time></trkpt><trkpt lat="44.351480364317126" lon="11.72058521323073"><ele>45.8</ele><time>2026-04-03T14:41:36.564Z</time></trkpt><trkpt lat="44.35143531118785" lon="11.720683550043672"><ele>45.599999999999994</ele><time>2026-04-03T14:41:37.564Z</time></trkpt><trkpt lat="44.35137256176082" lon="11.720788146586067"><ele>45.4</ele><time>2026-04-03T14:41:38.564Z</time></trkpt><trkpt lat="44.35129841983912" lon="11.72091014485679"><ele>45.2</ele><time>2026-04-03T14:41:39.564Z</time></trkpt><trkpt lat="44.351226721168494" lon="11.721029898250748"><ele>45.0</ele><time>2026-04-03T14:41:40.564Z</time></trkpt><trkpt lat="44.3511617567159" lon="11.721148733935136"><ele>44.833333333333336</ele><time>2026-04-03T14:41:41.564Z</time></trkpt><trkpt lat="44.35109653145016" lon="11.721261050088298"><ele>44.666666666666664</ele><time>2026-04-03T14:41:42.564Z</time></trkpt><trkpt lat="44.351037870890444" lon="11.721362854220589"><ele>44.5</ele><time>2026-04-03T14:41:43.564Z</time></trkpt><trkpt lat="44.350982190222005" lon="11.721452851371065"><ele>44.33333333333333</ele><time>2026-04-03T14:41:44.564Z</time></trkpt><trkpt lat="44.3509316197427" lon="11.721527242565514"><ele>44.166666666666664</ele><time>2026-04-03T14:41:45.564Z</time></trkpt><trkpt lat="44.350891320202905" lon="11.72163104967147"><ele>44.0</ele><time>2026-04-03T14:41:47.564Z</time></trkpt><trkpt lat="44.350957527385624" lon="11.721629141332482"><ele>44.0</ele><time>2026-04-03T14:41:50.564Z</time></trkpt><trkpt lat="44.35098362954674" lon="11.721506459474984"><ele>44.0</ele><time>2026-04-03T14:41:52.564Z</time></trkpt><trkpt lat="44.35101799221054" lon="11.721420538964427"><ele>44.0</ele><time>2026-04-03T14:41:53.564Z</time></trkpt><trkpt lat="44.35108279991955" lon="11.721341431629758"><ele>44.0</ele><time>2026-04-03T14:41:54.564Z</time></trkpt><trkpt lat="44.351149413716215" lon="11.721271070097712"><ele>44.0</ele><time>2026-04-03T14:41:55.564Z</time></trkpt><trkpt lat="44.35119203386104" lon="11.721174858536829"><ele>44.0</ele><time>2026-04-03T14:41:56.564Z</time></trkpt><trkpt lat="44.35124223425662" lon="11.721072840016314"><ele>44.0</ele><time>2026-04-03T14:41:57.564Z</time></trkpt><trkpt lat="44.35130683553537" lon="11.720989745066628"><ele>44.0</ele><time>2026-04-03T14:41:58.564Z</time></trkpt><trkpt lat="44.35136299203862" lon="11.720909480475129"><ele>44.0</ele><time>2026-04-03T14:41:59.564Z</time></trkpt><trkpt lat="44.35141436463068" lon="11.720839388764409"><ele>44.0</ele><time>2026-04-03T14:42:00.564Z</time></trkpt><trkpt lat="44.35144083269592" lon="11.72075780167263"><ele>44.0</ele><time>2026-04-03T14:42:01.564Z</time></trkpt><trkpt lat="44.35148325179491" lon="11.720650910929656"><ele>44.0</ele><time>2026-04-03T14:42:03.564Z</time></trkpt><trkpt lat="44.3515155550513" lon="11.720539776406277"><ele>45.0</ele><time>2026-04-03T14:42:06.564Z</time></trkpt><trkpt lat="44.35158079281049" lon="11.720471585396977"><ele>45.0</ele><time>2026-04-03T14:42:09.564Z</time></trkpt><trkpt lat="44.35165610176478" lon="11.720502233721021"><ele>45.0</ele><time>2026-04-03T14:42:12.564Z</time></trkpt><trkpt lat="44.35171616575267" lon="11.72046267384864"><ele>45.0</ele><time>2026-04-03T14:42:25.564Z</time></trkpt><trkpt lat="44.35170145889141" lon="11.720310817750278"><ele>45.0</ele><time>2026-04-03T14:43:22.563Z</time></trkpt><trkpt lat="44.35170145889141" lon="11.720310817750278"><ele>45.0</ele><time>2026-04-03T14:43:22.563Z</time></trkpt><trkpt lat="44.35170145889141" lon="11.720310817750278"><ele>45.0</ele><time>2026-04-03T14:43:22.563Z</time></trkpt><trkpt lat="44.35170145889141" lon="11.720310817750278"><ele>45.0</ele><time>2026-04-03T14:43:22.563Z</time></trkpt></trkseg></trk></gpx>